<?xml version="1.0" encoding="UTF-8" standalone="no" ?>
<gpx xmlns="http://www.topografix.com/GPX/1/1" xmlns:xsi="http://www.w3.org/2001/XMLSchema-instance" xsi:schemaLocation="http://www.topografix.com/GPX/1/1 http://www.topografix.com/GPX/1/1/gpx.xsd" version="1.1" creator="VisuGPX - https://www.visugpx.com">
  <metadata>
    <name>20190922-Consenvoye-Euville</name>
    <desc><![CDATA[7ème jour de notre tour de France]]></desc>
  </metadata>
  <trk>
    <name><![CDATA[Tracé 20190922-094848]]></name>
    <trkseg>
      <trkpt lat="49.28338" lon="5.284">
        <ele>180.058</ele>
        <time>2019-09-22T07:48:48.633Z</time>
      </trkpt>
      <trkpt lat="49.2834" lon="5.28408">
        <ele>185.588</ele>
        <time>2019-09-22T07:48:52.000Z</time>
      </trkpt>
      <trkpt lat="49.28358" lon="5.28403">
        <ele>187.021</ele>
        <time>2019-09-22T08:00:19.000Z</time>
      </trkpt>
      <trkpt lat="49.28374" lon="5.28388">
        <ele>189.808</ele>
        <time>2019-09-22T08:01:55.000Z</time>
      </trkpt>
      <trkpt lat="49.28385" lon="5.28366">
        <ele>187.97</ele>
        <time>2019-09-22T08:02:13.000Z</time>
      </trkpt>
      <trkpt lat="49.28398" lon="5.28344">
        <ele>191.32</ele>
        <time>2019-09-22T08:02:34.000Z</time>
      </trkpt>
      <trkpt lat="49.2841" lon="5.28323">
        <ele>191.359</ele>
        <time>2019-09-22T08:02:52.000Z</time>
      </trkpt>
      <trkpt lat="49.28422" lon="5.283">
        <ele>190.835</ele>
        <time>2019-09-22T08:03:43.000Z</time>
      </trkpt>
      <trkpt lat="49.28433" lon="5.28279">
        <ele>191.337</ele>
        <time>2019-09-22T08:04:01.000Z</time>
      </trkpt>
      <trkpt lat="49.28448" lon="5.28261">
        <ele>190.476</ele>
        <time>2019-09-22T08:04:19.000Z</time>
      </trkpt>
      <trkpt lat="49.28461" lon="5.28243">
        <ele>188.168</ele>
        <time>2019-09-22T08:04:43.000Z</time>
      </trkpt>
      <trkpt lat="49.28461" lon="5.28243">
        <ele>188.216</ele>
        <time>2019-09-22T08:05:43.000Z</time>
      </trkpt>
      <trkpt lat="49.28458" lon="5.28233">
        <ele>188.523</ele>
        <time>2019-09-22T08:05:46.000Z</time>
      </trkpt>
      <trkpt lat="49.28451" lon="5.28225">
        <ele>188.875</ele>
        <time>2019-09-22T08:05:49.000Z</time>
      </trkpt>
      <trkpt lat="49.28443" lon="5.28215">
        <ele>188.549</ele>
        <time>2019-09-22T08:05:52.000Z</time>
      </trkpt>
      <trkpt lat="49.28435" lon="5.28204">
        <ele>188.128</ele>
        <time>2019-09-22T08:05:55.000Z</time>
      </trkpt>
      <trkpt lat="49.28428" lon="5.28193">
        <ele>188.522</ele>
        <time>2019-09-22T08:05:58.000Z</time>
      </trkpt>
      <trkpt lat="49.28421" lon="5.2818">
        <ele>188.207</ele>
        <time>2019-09-22T08:06:01.000Z</time>
      </trkpt>
      <trkpt lat="49.28414" lon="5.28167">
        <ele>187.617</ele>
        <time>2019-09-22T08:06:04.000Z</time>
      </trkpt>
      <trkpt lat="49.28407" lon="5.28153">
        <ele>187.123</ele>
        <time>2019-09-22T08:06:07.000Z</time>
      </trkpt>
      <trkpt lat="49.28399" lon="5.28136">
        <ele>186.856</ele>
        <time>2019-09-22T08:06:10.000Z</time>
      </trkpt>
      <trkpt lat="49.28389" lon="5.28118">
        <ele>186.839</ele>
        <time>2019-09-22T08:06:13.000Z</time>
      </trkpt>
      <trkpt lat="49.28381" lon="5.281">
        <ele>186.947</ele>
        <time>2019-09-22T08:06:16.000Z</time>
      </trkpt>
      <trkpt lat="49.28374" lon="5.2808">
        <ele>186.703</ele>
        <time>2019-09-22T08:06:19.000Z</time>
      </trkpt>
      <trkpt lat="49.28368" lon="5.28061">
        <ele>186.447</ele>
        <time>2019-09-22T08:06:22.000Z</time>
      </trkpt>
      <trkpt lat="49.28363" lon="5.28042">
        <ele>186.291</ele>
        <time>2019-09-22T08:06:25.000Z</time>
      </trkpt>
      <trkpt lat="49.28357" lon="5.28022">
        <ele>186.466</ele>
        <time>2019-09-22T08:06:28.000Z</time>
      </trkpt>
      <trkpt lat="49.28351" lon="5.28005">
        <ele>186.252</ele>
        <time>2019-09-22T08:06:31.000Z</time>
      </trkpt>
      <trkpt lat="49.28347" lon="5.27988">
        <ele>186.181</ele>
        <time>2019-09-22T08:06:34.000Z</time>
      </trkpt>
      <trkpt lat="49.28342" lon="5.27972">
        <ele>186.265</ele>
        <time>2019-09-22T08:06:37.000Z</time>
      </trkpt>
      <trkpt lat="49.28337" lon="5.27958">
        <ele>186.15</ele>
        <time>2019-09-22T08:06:40.000Z</time>
      </trkpt>
      <trkpt lat="49.28333" lon="5.27943">
        <ele>186.064</ele>
        <time>2019-09-22T08:06:43.000Z</time>
      </trkpt>
      <trkpt lat="49.28328" lon="5.27928">
        <ele>186.271</ele>
        <time>2019-09-22T08:06:46.000Z</time>
      </trkpt>
      <trkpt lat="49.28323" lon="5.27911">
        <ele>185.795</ele>
        <time>2019-09-22T08:06:49.000Z</time>
      </trkpt>
      <trkpt lat="49.28318" lon="5.27896">
        <ele>185.822</ele>
        <time>2019-09-22T08:06:52.000Z</time>
      </trkpt>
      <trkpt lat="49.28313" lon="5.27882">
        <ele>185.563</ele>
        <time>2019-09-22T08:06:55.000Z</time>
      </trkpt>
      <trkpt lat="49.28309" lon="5.27867">
        <ele>185.863</ele>
        <time>2019-09-22T08:06:58.000Z</time>
      </trkpt>
      <trkpt lat="49.28305" lon="5.27853">
        <ele>186.308</ele>
        <time>2019-09-22T08:07:01.000Z</time>
      </trkpt>
      <trkpt lat="49.283" lon="5.27838">
        <ele>186.726</ele>
        <time>2019-09-22T08:07:04.000Z</time>
      </trkpt>
      <trkpt lat="49.28294" lon="5.2782">
        <ele>186.528</ele>
        <time>2019-09-22T08:07:07.000Z</time>
      </trkpt>
      <trkpt lat="49.28287" lon="5.278">
        <ele>185.691</ele>
        <time>2019-09-22T08:07:10.000Z</time>
      </trkpt>
      <trkpt lat="49.28281" lon="5.2778">
        <ele>185.026</ele>
        <time>2019-09-22T08:07:13.000Z</time>
      </trkpt>
      <trkpt lat="49.28275" lon="5.2776">
        <ele>184.873</ele>
        <time>2019-09-22T08:07:16.000Z</time>
      </trkpt>
      <trkpt lat="49.28269" lon="5.27739">
        <ele>184.9</ele>
        <time>2019-09-22T08:07:19.000Z</time>
      </trkpt>
      <trkpt lat="49.28263" lon="5.27719">
        <ele>185.052</ele>
        <time>2019-09-22T08:07:22.000Z</time>
      </trkpt>
      <trkpt lat="49.28257" lon="5.27699">
        <ele>184.858</ele>
        <time>2019-09-22T08:07:25.000Z</time>
      </trkpt>
      <trkpt lat="49.2825" lon="5.2768">
        <ele>184.488</ele>
        <time>2019-09-22T08:07:28.000Z</time>
      </trkpt>
      <trkpt lat="49.28245" lon="5.27661">
        <ele>184.583</ele>
        <time>2019-09-22T08:07:31.000Z</time>
      </trkpt>
      <trkpt lat="49.2824" lon="5.27643">
        <ele>184.651</ele>
        <time>2019-09-22T08:07:34.000Z</time>
      </trkpt>
      <trkpt lat="49.28235" lon="5.27627">
        <ele>184.641</ele>
        <time>2019-09-22T08:07:37.000Z</time>
      </trkpt>
      <trkpt lat="49.2823" lon="5.27609">
        <ele>184.712</ele>
        <time>2019-09-22T08:07:40.000Z</time>
      </trkpt>
      <trkpt lat="49.28224" lon="5.27592">
        <ele>184.935</ele>
        <time>2019-09-22T08:07:43.000Z</time>
      </trkpt>
      <trkpt lat="49.28218" lon="5.27573">
        <ele>184.829</ele>
        <time>2019-09-22T08:07:46.000Z</time>
      </trkpt>
      <trkpt lat="49.28212" lon="5.27554">
        <ele>185.341</ele>
        <time>2019-09-22T08:07:49.000Z</time>
      </trkpt>
      <trkpt lat="49.28206" lon="5.27536">
        <ele>185.829</ele>
        <time>2019-09-22T08:07:52.000Z</time>
      </trkpt>
      <trkpt lat="49.28199" lon="5.27518">
        <ele>186.124</ele>
        <time>2019-09-22T08:07:55.000Z</time>
      </trkpt>
      <trkpt lat="49.28191" lon="5.27505">
        <ele>186.357</ele>
        <time>2019-09-22T08:07:58.000Z</time>
      </trkpt>
      <trkpt lat="49.28179" lon="5.27507">
        <ele>186.301</ele>
        <time>2019-09-22T08:08:01.000Z</time>
      </trkpt>
      <trkpt lat="49.28169" lon="5.27517">
        <ele>186.176</ele>
        <time>2019-09-22T08:08:04.000Z</time>
      </trkpt>
      <trkpt lat="49.28159" lon="5.27528">
        <ele>185.9</ele>
        <time>2019-09-22T08:08:07.000Z</time>
      </trkpt>
      <trkpt lat="49.2815" lon="5.27538">
        <ele>185.694</ele>
        <time>2019-09-22T08:08:10.000Z</time>
      </trkpt>
      <trkpt lat="49.28139" lon="5.27547">
        <ele>186.017</ele>
        <time>2019-09-22T08:08:13.000Z</time>
      </trkpt>
      <trkpt lat="49.28129" lon="5.27555">
        <ele>186.023</ele>
        <time>2019-09-22T08:08:16.000Z</time>
      </trkpt>
      <trkpt lat="49.28119" lon="5.27565">
        <ele>186.287</ele>
        <time>2019-09-22T08:08:19.000Z</time>
      </trkpt>
      <trkpt lat="49.28109" lon="5.27575">
        <ele>186.115</ele>
        <time>2019-09-22T08:08:22.000Z</time>
      </trkpt>
      <trkpt lat="49.28098" lon="5.27585">
        <ele>185.709</ele>
        <time>2019-09-22T08:08:25.000Z</time>
      </trkpt>
      <trkpt lat="49.28087" lon="5.27595">
        <ele>185.366</ele>
        <time>2019-09-22T08:08:28.000Z</time>
      </trkpt>
      <trkpt lat="49.28077" lon="5.27603">
        <ele>184.932</ele>
        <time>2019-09-22T08:08:31.000Z</time>
      </trkpt>
      <trkpt lat="49.28067" lon="5.27613">
        <ele>184.546</ele>
        <time>2019-09-22T08:08:34.000Z</time>
      </trkpt>
      <trkpt lat="49.28057" lon="5.27624">
        <ele>184.608</ele>
        <time>2019-09-22T08:08:37.000Z</time>
      </trkpt>
      <trkpt lat="49.28046" lon="5.27633">
        <ele>184.738</ele>
        <time>2019-09-22T08:08:40.000Z</time>
      </trkpt>
      <trkpt lat="49.28035" lon="5.27644">
        <ele>185.096</ele>
        <time>2019-09-22T08:08:43.000Z</time>
      </trkpt>
      <trkpt lat="49.28023" lon="5.27652">
        <ele>185.063</ele>
        <time>2019-09-22T08:08:46.000Z</time>
      </trkpt>
      <trkpt lat="49.28013" lon="5.27661">
        <ele>185.165</ele>
        <time>2019-09-22T08:08:49.000Z</time>
      </trkpt>
      <trkpt lat="49.28002" lon="5.27668">
        <ele>185.402</ele>
        <time>2019-09-22T08:08:52.000Z</time>
      </trkpt>
      <trkpt lat="49.27992" lon="5.27676">
        <ele>185.772</ele>
        <time>2019-09-22T08:08:55.000Z</time>
      </trkpt>
      <trkpt lat="49.27981" lon="5.27685">
        <ele>186.526</ele>
        <time>2019-09-22T08:08:58.000Z</time>
      </trkpt>
      <trkpt lat="49.2797" lon="5.27694">
        <ele>186.96</ele>
        <time>2019-09-22T08:09:01.000Z</time>
      </trkpt>
      <trkpt lat="49.27959" lon="5.27702">
        <ele>187.699</ele>
        <time>2019-09-22T08:09:04.000Z</time>
      </trkpt>
      <trkpt lat="49.27949" lon="5.27711">
        <ele>188.419</ele>
        <time>2019-09-22T08:09:07.000Z</time>
      </trkpt>
      <trkpt lat="49.27939" lon="5.27719">
        <ele>188.72</ele>
        <time>2019-09-22T08:09:10.000Z</time>
      </trkpt>
      <trkpt lat="49.27928" lon="5.27726">
        <ele>189.351</ele>
        <time>2019-09-22T08:09:13.000Z</time>
      </trkpt>
      <trkpt lat="49.27919" lon="5.27734">
        <ele>190.181</ele>
        <time>2019-09-22T08:09:16.000Z</time>
      </trkpt>
      <trkpt lat="49.27908" lon="5.27741">
        <ele>191</ele>
        <time>2019-09-22T08:09:19.000Z</time>
      </trkpt>
      <trkpt lat="49.27897" lon="5.2775">
        <ele>191.334</ele>
        <time>2019-09-22T08:09:22.000Z</time>
      </trkpt>
      <trkpt lat="49.27886" lon="5.27757">
        <ele>191.519</ele>
        <time>2019-09-22T08:09:25.000Z</time>
      </trkpt>
      <trkpt lat="49.27875" lon="5.27767">
        <ele>191.589</ele>
        <time>2019-09-22T08:09:28.000Z</time>
      </trkpt>
      <trkpt lat="49.27863" lon="5.27775">
        <ele>191.486</ele>
        <time>2019-09-22T08:09:31.000Z</time>
      </trkpt>
      <trkpt lat="49.27851" lon="5.27784">
        <ele>191.165</ele>
        <time>2019-09-22T08:09:34.000Z</time>
      </trkpt>
      <trkpt lat="49.27839" lon="5.27793">
        <ele>192.085</ele>
        <time>2019-09-22T08:09:37.000Z</time>
      </trkpt>
      <trkpt lat="49.27826" lon="5.27801">
        <ele>192.29</ele>
        <time>2019-09-22T08:09:40.000Z</time>
      </trkpt>
      <trkpt lat="49.27814" lon="5.2781">
        <ele>191.724</ele>
        <time>2019-09-22T08:09:43.000Z</time>
      </trkpt>
      <trkpt lat="49.278" lon="5.2782">
        <ele>191.347</ele>
        <time>2019-09-22T08:09:46.000Z</time>
      </trkpt>
      <trkpt lat="49.27787" lon="5.2783">
        <ele>191.48</ele>
        <time>2019-09-22T08:09:49.000Z</time>
      </trkpt>
      <trkpt lat="49.27775" lon="5.27841">
        <ele>191.477</ele>
        <time>2019-09-22T08:09:52.000Z</time>
      </trkpt>
      <trkpt lat="49.27764" lon="5.27852">
        <ele>191.473</ele>
        <time>2019-09-22T08:09:55.000Z</time>
      </trkpt>
      <trkpt lat="49.27751" lon="5.27863">
        <ele>191.845</ele>
        <time>2019-09-22T08:09:58.000Z</time>
      </trkpt>
      <trkpt lat="49.27739" lon="5.27874">
        <ele>191.825</ele>
        <time>2019-09-22T08:10:01.000Z</time>
      </trkpt>
      <trkpt lat="49.27725" lon="5.27883">
        <ele>191.888</ele>
        <time>2019-09-22T08:10:04.000Z</time>
      </trkpt>
      <trkpt lat="49.27711" lon="5.27894">
        <ele>192.078</ele>
        <time>2019-09-22T08:10:07.000Z</time>
      </trkpt>
      <trkpt lat="49.27698" lon="5.27903">
        <ele>192.409</ele>
        <time>2019-09-22T08:10:10.000Z</time>
      </trkpt>
      <trkpt lat="49.27684" lon="5.27915">
        <ele>192.428</ele>
        <time>2019-09-22T08:10:13.000Z</time>
      </trkpt>
      <trkpt lat="49.27669" lon="5.27926">
        <ele>192.06</ele>
        <time>2019-09-22T08:10:16.000Z</time>
      </trkpt>
      <trkpt lat="49.27655" lon="5.27938">
        <ele>191.506</ele>
        <time>2019-09-22T08:10:19.000Z</time>
      </trkpt>
      <trkpt lat="49.27641" lon="5.2795">
        <ele>191.136</ele>
        <time>2019-09-22T08:10:22.000Z</time>
      </trkpt>
      <trkpt lat="49.27628" lon="5.27961">
        <ele>191.541</ele>
        <time>2019-09-22T08:10:25.000Z</time>
      </trkpt>
      <trkpt lat="49.27615" lon="5.27974">
        <ele>192.043</ele>
        <time>2019-09-22T08:10:28.000Z</time>
      </trkpt>
      <trkpt lat="49.27601" lon="5.27985">
        <ele>192.451</ele>
        <time>2019-09-22T08:10:31.000Z</time>
      </trkpt>
      <trkpt lat="49.27586" lon="5.27996">
        <ele>192.404</ele>
        <time>2019-09-22T08:10:34.000Z</time>
      </trkpt>
      <trkpt lat="49.27571" lon="5.28007">
        <ele>192.152</ele>
        <time>2019-09-22T08:10:37.000Z</time>
      </trkpt>
      <trkpt lat="49.27553" lon="5.28019">
        <ele>191.525</ele>
        <time>2019-09-22T08:10:40.000Z</time>
      </trkpt>
      <trkpt lat="49.27532" lon="5.2803">
        <ele>189.961</ele>
        <time>2019-09-22T08:10:43.000Z</time>
      </trkpt>
      <trkpt lat="49.27513" lon="5.28041">
        <ele>188.472</ele>
        <time>2019-09-22T08:10:46.000Z</time>
      </trkpt>
      <trkpt lat="49.27496" lon="5.28053">
        <ele>186.897</ele>
        <time>2019-09-22T08:10:49.000Z</time>
      </trkpt>
      <trkpt lat="49.2748" lon="5.28064">
        <ele>185.823</ele>
        <time>2019-09-22T08:10:52.000Z</time>
      </trkpt>
      <trkpt lat="49.27466" lon="5.28077">
        <ele>184.967</ele>
        <time>2019-09-22T08:10:55.000Z</time>
      </trkpt>
      <trkpt lat="49.27453" lon="5.28089">
        <ele>184.684</ele>
        <time>2019-09-22T08:10:58.000Z</time>
      </trkpt>
      <trkpt lat="49.27439" lon="5.28103">
        <ele>183.964</ele>
        <time>2019-09-22T08:11:01.000Z</time>
      </trkpt>
      <trkpt lat="49.27425" lon="5.28116">
        <ele>182.847</ele>
        <time>2019-09-22T08:11:04.000Z</time>
      </trkpt>
      <trkpt lat="49.27412" lon="5.28129">
        <ele>182.58</ele>
        <time>2019-09-22T08:11:07.000Z</time>
      </trkpt>
      <trkpt lat="49.27399" lon="5.28143">
        <ele>182.92</ele>
        <time>2019-09-22T08:11:10.000Z</time>
      </trkpt>
      <trkpt lat="49.27386" lon="5.28156">
        <ele>183.513</ele>
        <time>2019-09-22T08:11:13.000Z</time>
      </trkpt>
      <trkpt lat="49.27374" lon="5.28169">
        <ele>184.133</ele>
        <time>2019-09-22T08:11:16.000Z</time>
      </trkpt>
      <trkpt lat="49.27362" lon="5.28182">
        <ele>184.562</ele>
        <time>2019-09-22T08:11:19.000Z</time>
      </trkpt>
      <trkpt lat="49.2735" lon="5.28195">
        <ele>184.859</ele>
        <time>2019-09-22T08:11:22.000Z</time>
      </trkpt>
      <trkpt lat="49.27338" lon="5.28207">
        <ele>184.421</ele>
        <time>2019-09-22T08:11:25.000Z</time>
      </trkpt>
      <trkpt lat="49.27326" lon="5.28219">
        <ele>184.115</ele>
        <time>2019-09-22T08:11:28.000Z</time>
      </trkpt>
      <trkpt lat="49.27313" lon="5.28232">
        <ele>184.244</ele>
        <time>2019-09-22T08:11:31.000Z</time>
      </trkpt>
      <trkpt lat="49.273" lon="5.28244">
        <ele>184.665</ele>
        <time>2019-09-22T08:11:34.000Z</time>
      </trkpt>
      <trkpt lat="49.27288" lon="5.28257">
        <ele>184.326</ele>
        <time>2019-09-22T08:11:37.000Z</time>
      </trkpt>
      <trkpt lat="49.27275" lon="5.2827">
        <ele>184.566</ele>
        <time>2019-09-22T08:11:40.000Z</time>
      </trkpt>
      <trkpt lat="49.27262" lon="5.28282">
        <ele>184.317</ele>
        <time>2019-09-22T08:11:43.000Z</time>
      </trkpt>
      <trkpt lat="49.27249" lon="5.28293">
        <ele>184.431</ele>
        <time>2019-09-22T08:11:46.000Z</time>
      </trkpt>
      <trkpt lat="49.27235" lon="5.28305">
        <ele>184.273</ele>
        <time>2019-09-22T08:11:49.000Z</time>
      </trkpt>
      <trkpt lat="49.27222" lon="5.28317">
        <ele>184.311</ele>
        <time>2019-09-22T08:11:52.000Z</time>
      </trkpt>
      <trkpt lat="49.27209" lon="5.28328">
        <ele>184.54</ele>
        <time>2019-09-22T08:11:55.000Z</time>
      </trkpt>
      <trkpt lat="49.27195" lon="5.2834">
        <ele>184.389</ele>
        <time>2019-09-22T08:11:58.000Z</time>
      </trkpt>
      <trkpt lat="49.27182" lon="5.28352">
        <ele>184.314</ele>
        <time>2019-09-22T08:12:01.000Z</time>
      </trkpt>
      <trkpt lat="49.27169" lon="5.28364">
        <ele>184.266</ele>
        <time>2019-09-22T08:12:04.000Z</time>
      </trkpt>
      <trkpt lat="49.27156" lon="5.28376">
        <ele>184.252</ele>
        <time>2019-09-22T08:12:07.000Z</time>
      </trkpt>
      <trkpt lat="49.27143" lon="5.28388">
        <ele>184.097</ele>
        <time>2019-09-22T08:12:10.000Z</time>
      </trkpt>
      <trkpt lat="49.27131" lon="5.28401">
        <ele>183.928</ele>
        <time>2019-09-22T08:12:13.000Z</time>
      </trkpt>
      <trkpt lat="49.2712" lon="5.28414">
        <ele>184.024</ele>
        <time>2019-09-22T08:12:16.000Z</time>
      </trkpt>
      <trkpt lat="49.2711" lon="5.28426">
        <ele>184.591</ele>
        <time>2019-09-22T08:12:19.000Z</time>
      </trkpt>
      <trkpt lat="49.271" lon="5.28438">
        <ele>185.512</ele>
        <time>2019-09-22T08:12:22.000Z</time>
      </trkpt>
      <trkpt lat="49.2709" lon="5.28452">
        <ele>185.93</ele>
        <time>2019-09-22T08:12:25.000Z</time>
      </trkpt>
      <trkpt lat="49.27081" lon="5.28466">
        <ele>186.374</ele>
        <time>2019-09-22T08:12:28.000Z</time>
      </trkpt>
      <trkpt lat="49.27071" lon="5.28478">
        <ele>186.997</ele>
        <time>2019-09-22T08:12:31.000Z</time>
      </trkpt>
      <trkpt lat="49.27062" lon="5.2849">
        <ele>187.561</ele>
        <time>2019-09-22T08:12:34.000Z</time>
      </trkpt>
      <trkpt lat="49.27054" lon="5.28504">
        <ele>187.311</ele>
        <time>2019-09-22T08:12:37.000Z</time>
      </trkpt>
      <trkpt lat="49.27045" lon="5.28517">
        <ele>187.852</ele>
        <time>2019-09-22T08:12:40.000Z</time>
      </trkpt>
      <trkpt lat="49.27036" lon="5.2853">
        <ele>188.172</ele>
        <time>2019-09-22T08:12:43.000Z</time>
      </trkpt>
      <trkpt lat="49.27025" lon="5.28543">
        <ele>187.542</ele>
        <time>2019-09-22T08:12:46.000Z</time>
      </trkpt>
      <trkpt lat="49.27015" lon="5.28556">
        <ele>187.483</ele>
        <time>2019-09-22T08:12:49.000Z</time>
      </trkpt>
      <trkpt lat="49.27005" lon="5.28568">
        <ele>187.543</ele>
        <time>2019-09-22T08:12:52.000Z</time>
      </trkpt>
      <trkpt lat="49.26996" lon="5.28581">
        <ele>187.671</ele>
        <time>2019-09-22T08:12:55.000Z</time>
      </trkpt>
      <trkpt lat="49.26987" lon="5.28593">
        <ele>188.237</ele>
        <time>2019-09-22T08:12:58.000Z</time>
      </trkpt>
      <trkpt lat="49.26979" lon="5.28605">
        <ele>188.626</ele>
        <time>2019-09-22T08:13:01.000Z</time>
      </trkpt>
      <trkpt lat="49.2697" lon="5.28616">
        <ele>188.529</ele>
        <time>2019-09-22T08:13:04.000Z</time>
      </trkpt>
      <trkpt lat="49.26962" lon="5.28627">
        <ele>188.579</ele>
        <time>2019-09-22T08:13:07.000Z</time>
      </trkpt>
      <trkpt lat="49.26953" lon="5.28638">
        <ele>188.588</ele>
        <time>2019-09-22T08:13:10.000Z</time>
      </trkpt>
      <trkpt lat="49.26946" lon="5.28649">
        <ele>188.792</ele>
        <time>2019-09-22T08:13:13.000Z</time>
      </trkpt>
      <trkpt lat="49.26938" lon="5.2866">
        <ele>189.099</ele>
        <time>2019-09-22T08:13:16.000Z</time>
      </trkpt>
      <trkpt lat="49.2693" lon="5.28672">
        <ele>189.504</ele>
        <time>2019-09-22T08:13:19.000Z</time>
      </trkpt>
      <trkpt lat="49.26923" lon="5.28683">
        <ele>190.057</ele>
        <time>2019-09-22T08:13:22.000Z</time>
      </trkpt>
      <trkpt lat="49.26915" lon="5.28695">
        <ele>190.043</ele>
        <time>2019-09-22T08:13:25.000Z</time>
      </trkpt>
      <trkpt lat="49.26907" lon="5.28707">
        <ele>190.058</ele>
        <time>2019-09-22T08:13:28.000Z</time>
      </trkpt>
      <trkpt lat="49.26898" lon="5.28718">
        <ele>189.945</ele>
        <time>2019-09-22T08:13:31.000Z</time>
      </trkpt>
      <trkpt lat="49.26891" lon="5.28731">
        <ele>190.057</ele>
        <time>2019-09-22T08:13:34.000Z</time>
      </trkpt>
      <trkpt lat="49.26882" lon="5.28743">
        <ele>190.161</ele>
        <time>2019-09-22T08:13:37.000Z</time>
      </trkpt>
      <trkpt lat="49.26874" lon="5.28753">
        <ele>190.79</ele>
        <time>2019-09-22T08:13:40.000Z</time>
      </trkpt>
      <trkpt lat="49.26867" lon="5.28765">
        <ele>191.068</ele>
        <time>2019-09-22T08:13:43.000Z</time>
      </trkpt>
      <trkpt lat="49.2686" lon="5.28777">
        <ele>191.713</ele>
        <time>2019-09-22T08:13:46.000Z</time>
      </trkpt>
      <trkpt lat="49.26851" lon="5.28788">
        <ele>192.408</ele>
        <time>2019-09-22T08:13:49.000Z</time>
      </trkpt>
      <trkpt lat="49.26843" lon="5.288">
        <ele>192.746</ele>
        <time>2019-09-22T08:13:52.000Z</time>
      </trkpt>
      <trkpt lat="49.26835" lon="5.28811">
        <ele>192.77</ele>
        <time>2019-09-22T08:13:55.000Z</time>
      </trkpt>
      <trkpt lat="49.26826" lon="5.28821">
        <ele>193.258</ele>
        <time>2019-09-22T08:13:58.000Z</time>
      </trkpt>
      <trkpt lat="49.26816" lon="5.28833">
        <ele>192.675</ele>
        <time>2019-09-22T08:14:01.000Z</time>
      </trkpt>
      <trkpt lat="49.26807" lon="5.28844">
        <ele>192.347</ele>
        <time>2019-09-22T08:14:04.000Z</time>
      </trkpt>
      <trkpt lat="49.26797" lon="5.28856">
        <ele>191.957</ele>
        <time>2019-09-22T08:14:07.000Z</time>
      </trkpt>
      <trkpt lat="49.26788" lon="5.28867">
        <ele>191.901</ele>
        <time>2019-09-22T08:14:10.000Z</time>
      </trkpt>
      <trkpt lat="49.2678" lon="5.28879">
        <ele>192.807</ele>
        <time>2019-09-22T08:14:13.000Z</time>
      </trkpt>
      <trkpt lat="49.26772" lon="5.28889">
        <ele>192.529</ele>
        <time>2019-09-22T08:14:16.000Z</time>
      </trkpt>
      <trkpt lat="49.26761" lon="5.289">
        <ele>190.959</ele>
        <time>2019-09-22T08:14:19.000Z</time>
      </trkpt>
      <trkpt lat="49.26752" lon="5.28912">
        <ele>189.734</ele>
        <time>2019-09-22T08:14:22.000Z</time>
      </trkpt>
      <trkpt lat="49.26742" lon="5.28924">
        <ele>189.609</ele>
        <time>2019-09-22T08:14:25.000Z</time>
      </trkpt>
      <trkpt lat="49.26733" lon="5.28935">
        <ele>189.536</ele>
        <time>2019-09-22T08:14:28.000Z</time>
      </trkpt>
      <trkpt lat="49.26724" lon="5.28947">
        <ele>190.112</ele>
        <time>2019-09-22T08:14:31.000Z</time>
      </trkpt>
      <trkpt lat="49.26716" lon="5.28958">
        <ele>190.723</ele>
        <time>2019-09-22T08:14:34.000Z</time>
      </trkpt>
      <trkpt lat="49.26706" lon="5.28969">
        <ele>191.4</ele>
        <time>2019-09-22T08:14:37.000Z</time>
      </trkpt>
      <trkpt lat="49.26696" lon="5.28979">
        <ele>191.693</ele>
        <time>2019-09-22T08:14:40.000Z</time>
      </trkpt>
      <trkpt lat="49.26687" lon="5.28988">
        <ele>192.034</ele>
        <time>2019-09-22T08:14:43.000Z</time>
      </trkpt>
      <trkpt lat="49.26677" lon="5.28998">
        <ele>191.979</ele>
        <time>2019-09-22T08:14:46.000Z</time>
      </trkpt>
      <trkpt lat="49.26668" lon="5.29007">
        <ele>192.361</ele>
        <time>2019-09-22T08:14:49.000Z</time>
      </trkpt>
      <trkpt lat="49.26658" lon="5.29014">
        <ele>192.651</ele>
        <time>2019-09-22T08:14:52.000Z</time>
      </trkpt>
      <trkpt lat="49.26649" lon="5.29023">
        <ele>193.148</ele>
        <time>2019-09-22T08:14:55.000Z</time>
      </trkpt>
      <trkpt lat="49.26639" lon="5.2903">
        <ele>193.455</ele>
        <time>2019-09-22T08:14:58.000Z</time>
      </trkpt>
      <trkpt lat="49.26628" lon="5.29038">
        <ele>193.661</ele>
        <time>2019-09-22T08:15:01.000Z</time>
      </trkpt>
      <trkpt lat="49.26618" lon="5.29046">
        <ele>193.635</ele>
        <time>2019-09-22T08:15:04.000Z</time>
      </trkpt>
      <trkpt lat="49.26608" lon="5.29053">
        <ele>193.16</ele>
        <time>2019-09-22T08:15:07.000Z</time>
      </trkpt>
      <trkpt lat="49.26597" lon="5.29059">
        <ele>193.027</ele>
        <time>2019-09-22T08:15:10.000Z</time>
      </trkpt>
      <trkpt lat="49.26587" lon="5.29065">
        <ele>193.079</ele>
        <time>2019-09-22T08:15:13.000Z</time>
      </trkpt>
      <trkpt lat="49.26576" lon="5.29069">
        <ele>193.086</ele>
        <time>2019-09-22T08:15:16.000Z</time>
      </trkpt>
      <trkpt lat="49.26564" lon="5.29074">
        <ele>193.518</ele>
        <time>2019-09-22T08:15:19.000Z</time>
      </trkpt>
      <trkpt lat="49.26552" lon="5.29076">
        <ele>194.168</ele>
        <time>2019-09-22T08:15:22.000Z</time>
      </trkpt>
      <trkpt lat="49.26541" lon="5.29079">
        <ele>194.783</ele>
        <time>2019-09-22T08:15:25.000Z</time>
      </trkpt>
      <trkpt lat="49.26529" lon="5.2908">
        <ele>195.634</ele>
        <time>2019-09-22T08:15:28.000Z</time>
      </trkpt>
      <trkpt lat="49.26518" lon="5.2908">
        <ele>196.314</ele>
        <time>2019-09-22T08:15:31.000Z</time>
      </trkpt>
      <trkpt lat="49.26507" lon="5.2908">
        <ele>196.809</ele>
        <time>2019-09-22T08:15:34.000Z</time>
      </trkpt>
      <trkpt lat="49.26497" lon="5.29079">
        <ele>197.281</ele>
        <time>2019-09-22T08:15:37.000Z</time>
      </trkpt>
      <trkpt lat="49.26486" lon="5.29077">
        <ele>197.725</ele>
        <time>2019-09-22T08:15:40.000Z</time>
      </trkpt>
      <trkpt lat="49.26473" lon="5.29076">
        <ele>197.958</ele>
        <time>2019-09-22T08:15:43.000Z</time>
      </trkpt>
      <trkpt lat="49.26458" lon="5.29074">
        <ele>197.721</ele>
        <time>2019-09-22T08:15:46.000Z</time>
      </trkpt>
      <trkpt lat="49.26442" lon="5.29072">
        <ele>196.666</ele>
        <time>2019-09-22T08:15:49.000Z</time>
      </trkpt>
      <trkpt lat="49.26423" lon="5.29069">
        <ele>195.62</ele>
        <time>2019-09-22T08:15:52.000Z</time>
      </trkpt>
      <trkpt lat="49.26404" lon="5.29065">
        <ele>194.446</ele>
        <time>2019-09-22T08:15:55.000Z</time>
      </trkpt>
      <trkpt lat="49.26385" lon="5.29064">
        <ele>193.267</ele>
        <time>2019-09-22T08:15:58.000Z</time>
      </trkpt>
      <trkpt lat="49.26368" lon="5.29067">
        <ele>192.121</ele>
        <time>2019-09-22T08:16:01.000Z</time>
      </trkpt>
      <trkpt lat="49.26354" lon="5.29074">
        <ele>191.967</ele>
        <time>2019-09-22T08:16:04.000Z</time>
      </trkpt>
      <trkpt lat="49.26345" lon="5.29077">
        <ele>192.885</ele>
        <time>2019-09-22T08:16:07.000Z</time>
      </trkpt>
      <trkpt lat="49.26343" lon="5.29076">
        <ele>193.076</ele>
        <time>2019-09-22T08:16:10.000Z</time>
      </trkpt>
      <trkpt lat="49.26343" lon="5.29076">
        <ele>193.076</ele>
        <time>2019-09-22T08:18:01.000Z</time>
      </trkpt>
      <trkpt lat="49.26343" lon="5.29075">
        <ele>192.721</ele>
        <time>2019-09-22T08:18:04.000Z</time>
      </trkpt>
      <trkpt lat="49.26332" lon="5.29083">
        <ele>192.791</ele>
        <time>2019-09-22T08:18:10.000Z</time>
      </trkpt>
      <trkpt lat="49.26324" lon="5.29089">
        <ele>192.676</ele>
        <time>2019-09-22T08:18:13.000Z</time>
      </trkpt>
      <trkpt lat="49.26314" lon="5.29097">
        <ele>192.824</ele>
        <time>2019-09-22T08:18:16.000Z</time>
      </trkpt>
      <trkpt lat="49.26301" lon="5.29105">
        <ele>192.515</ele>
        <time>2019-09-22T08:18:19.000Z</time>
      </trkpt>
      <trkpt lat="49.26286" lon="5.29112">
        <ele>191.906</ele>
        <time>2019-09-22T08:18:22.000Z</time>
      </trkpt>
      <trkpt lat="49.26268" lon="5.29121">
        <ele>191.649</ele>
        <time>2019-09-22T08:18:25.000Z</time>
      </trkpt>
      <trkpt lat="49.2625" lon="5.29129">
        <ele>192.384</ele>
        <time>2019-09-22T08:18:28.000Z</time>
      </trkpt>
      <trkpt lat="49.26232" lon="5.29134">
        <ele>192.857</ele>
        <time>2019-09-22T08:18:31.000Z</time>
      </trkpt>
      <trkpt lat="49.26215" lon="5.29136">
        <ele>192.632</ele>
        <time>2019-09-22T08:18:34.000Z</time>
      </trkpt>
      <trkpt lat="49.26198" lon="5.29139">
        <ele>192.096</ele>
        <time>2019-09-22T08:18:37.000Z</time>
      </trkpt>
      <trkpt lat="49.26182" lon="5.29143">
        <ele>191.39</ele>
        <time>2019-09-22T08:18:40.000Z</time>
      </trkpt>
      <trkpt lat="49.26168" lon="5.29145">
        <ele>190.985</ele>
        <time>2019-09-22T08:18:43.000Z</time>
      </trkpt>
      <trkpt lat="49.26154" lon="5.29148">
        <ele>191.03</ele>
        <time>2019-09-22T08:18:46.000Z</time>
      </trkpt>
      <trkpt lat="49.26143" lon="5.29152">
        <ele>191.314</ele>
        <time>2019-09-22T08:18:49.000Z</time>
      </trkpt>
      <trkpt lat="49.26132" lon="5.29154">
        <ele>191.934</ele>
        <time>2019-09-22T08:18:52.000Z</time>
      </trkpt>
      <trkpt lat="49.26121" lon="5.29156">
        <ele>192.444</ele>
        <time>2019-09-22T08:18:55.000Z</time>
      </trkpt>
      <trkpt lat="49.2611" lon="5.29159">
        <ele>191.732</ele>
        <time>2019-09-22T08:18:58.000Z</time>
      </trkpt>
      <trkpt lat="49.26098" lon="5.29161">
        <ele>191.021</ele>
        <time>2019-09-22T08:19:01.000Z</time>
      </trkpt>
      <trkpt lat="49.26085" lon="5.29163">
        <ele>190.381</ele>
        <time>2019-09-22T08:19:04.000Z</time>
      </trkpt>
      <trkpt lat="49.26069" lon="5.29165">
        <ele>189.925</ele>
        <time>2019-09-22T08:19:07.000Z</time>
      </trkpt>
      <trkpt lat="49.26053" lon="5.29164">
        <ele>188.561</ele>
        <time>2019-09-22T08:19:10.000Z</time>
      </trkpt>
      <trkpt lat="49.26038" lon="5.2916">
        <ele>187.142</ele>
        <time>2019-09-22T08:19:13.000Z</time>
      </trkpt>
      <trkpt lat="49.26024" lon="5.29153">
        <ele>187.03</ele>
        <time>2019-09-22T08:19:16.000Z</time>
      </trkpt>
      <trkpt lat="49.26011" lon="5.29145">
        <ele>186.918</ele>
        <time>2019-09-22T08:19:19.000Z</time>
      </trkpt>
      <trkpt lat="49.25999" lon="5.29136">
        <ele>186.899</ele>
        <time>2019-09-22T08:19:22.000Z</time>
      </trkpt>
      <trkpt lat="49.25987" lon="5.29127">
        <ele>186.55</ele>
        <time>2019-09-22T08:19:25.000Z</time>
      </trkpt>
      <trkpt lat="49.25975" lon="5.29118">
        <ele>186.344</ele>
        <time>2019-09-22T08:19:28.000Z</time>
      </trkpt>
      <trkpt lat="49.25964" lon="5.2911">
        <ele>186.178</ele>
        <time>2019-09-22T08:19:31.000Z</time>
      </trkpt>
      <trkpt lat="49.25953" lon="5.29101">
        <ele>186.246</ele>
        <time>2019-09-22T08:19:34.000Z</time>
      </trkpt>
      <trkpt lat="49.25942" lon="5.29094">
        <ele>186.589</ele>
        <time>2019-09-22T08:19:37.000Z</time>
      </trkpt>
      <trkpt lat="49.25932" lon="5.29087">
        <ele>187.065</ele>
        <time>2019-09-22T08:19:40.000Z</time>
      </trkpt>
      <trkpt lat="49.25921" lon="5.29087">
        <ele>187.171</ele>
        <time>2019-09-22T08:19:43.001Z</time>
      </trkpt>
      <trkpt lat="49.25918" lon="5.29106">
        <ele>186.739</ele>
        <time>2019-09-22T08:19:46.000Z</time>
      </trkpt>
      <trkpt lat="49.25924" lon="5.29129">
        <ele>186.003</ele>
        <time>2019-09-22T08:19:49.000Z</time>
      </trkpt>
      <trkpt lat="49.25932" lon="5.29147">
        <ele>185.276</ele>
        <time>2019-09-22T08:19:52.000Z</time>
      </trkpt>
      <trkpt lat="49.25941" lon="5.29164">
        <ele>185.058</ele>
        <time>2019-09-22T08:19:55.000Z</time>
      </trkpt>
      <trkpt lat="49.25948" lon="5.29182">
        <ele>184.991</ele>
        <time>2019-09-22T08:19:58.000Z</time>
      </trkpt>
      <trkpt lat="49.25957" lon="5.29199">
        <ele>184.586</ele>
        <time>2019-09-22T08:20:01.000Z</time>
      </trkpt>
      <trkpt lat="49.25965" lon="5.29217">
        <ele>184.586</ele>
        <time>2019-09-22T08:20:04.000Z</time>
      </trkpt>
      <trkpt lat="49.25974" lon="5.29233">
        <ele>184.769</ele>
        <time>2019-09-22T08:20:07.000Z</time>
      </trkpt>
      <trkpt lat="49.25983" lon="5.29249">
        <ele>184.894</ele>
        <time>2019-09-22T08:20:10.000Z</time>
      </trkpt>
      <trkpt lat="49.25992" lon="5.29265">
        <ele>184.929</ele>
        <time>2019-09-22T08:20:13.000Z</time>
      </trkpt>
      <trkpt lat="49.26001" lon="5.29281">
        <ele>184.497</ele>
        <time>2019-09-22T08:20:16.000Z</time>
      </trkpt>
      <trkpt lat="49.26011" lon="5.29297">
        <ele>184.885</ele>
        <time>2019-09-22T08:20:19.000Z</time>
      </trkpt>
      <trkpt lat="49.2602" lon="5.29314">
        <ele>185.368</ele>
        <time>2019-09-22T08:20:22.000Z</time>
      </trkpt>
      <trkpt lat="49.26029" lon="5.29333">
        <ele>185.33</ele>
        <time>2019-09-22T08:20:25.000Z</time>
      </trkpt>
      <trkpt lat="49.26037" lon="5.29351">
        <ele>185.087</ele>
        <time>2019-09-22T08:20:28.000Z</time>
      </trkpt>
      <trkpt lat="49.26046" lon="5.29371">
        <ele>186.06</ele>
        <time>2019-09-22T08:20:31.000Z</time>
      </trkpt>
      <trkpt lat="49.26054" lon="5.29391">
        <ele>187.579</ele>
        <time>2019-09-22T08:20:34.000Z</time>
      </trkpt>
      <trkpt lat="49.26062" lon="5.29411">
        <ele>188.434</ele>
        <time>2019-09-22T08:20:37.000Z</time>
      </trkpt>
      <trkpt lat="49.26071" lon="5.29429">
        <ele>189.183</ele>
        <time>2019-09-22T08:20:40.000Z</time>
      </trkpt>
      <trkpt lat="49.26078" lon="5.29446">
        <ele>189.023</ele>
        <time>2019-09-22T08:20:43.000Z</time>
      </trkpt>
      <trkpt lat="49.26087" lon="5.29464">
        <ele>188.641</ele>
        <time>2019-09-22T08:20:46.000Z</time>
      </trkpt>
      <trkpt lat="49.26095" lon="5.29482">
        <ele>188.103</ele>
        <time>2019-09-22T08:20:49.000Z</time>
      </trkpt>
      <trkpt lat="49.26104" lon="5.29501">
        <ele>187.869</ele>
        <time>2019-09-22T08:20:52.000Z</time>
      </trkpt>
      <trkpt lat="49.26112" lon="5.2952">
        <ele>187.62</ele>
        <time>2019-09-22T08:20:55.000Z</time>
      </trkpt>
      <trkpt lat="49.26121" lon="5.2954">
        <ele>187.331</ele>
        <time>2019-09-22T08:20:58.000Z</time>
      </trkpt>
      <trkpt lat="49.26128" lon="5.29559">
        <ele>187.053</ele>
        <time>2019-09-22T08:21:01.000Z</time>
      </trkpt>
      <trkpt lat="49.26134" lon="5.29579">
        <ele>187.325</ele>
        <time>2019-09-22T08:21:04.000Z</time>
      </trkpt>
      <trkpt lat="49.2614" lon="5.29599">
        <ele>186.811</ele>
        <time>2019-09-22T08:21:07.000Z</time>
      </trkpt>
      <trkpt lat="49.26146" lon="5.29621">
        <ele>186.487</ele>
        <time>2019-09-22T08:21:10.000Z</time>
      </trkpt>
      <trkpt lat="49.26152" lon="5.29642">
        <ele>186.04</ele>
        <time>2019-09-22T08:21:13.000Z</time>
      </trkpt>
      <trkpt lat="49.26158" lon="5.29663">
        <ele>185.531</ele>
        <time>2019-09-22T08:21:16.000Z</time>
      </trkpt>
      <trkpt lat="49.26163" lon="5.29683">
        <ele>185.314</ele>
        <time>2019-09-22T08:21:19.000Z</time>
      </trkpt>
      <trkpt lat="49.26169" lon="5.29705">
        <ele>185.309</ele>
        <time>2019-09-22T08:21:22.000Z</time>
      </trkpt>
      <trkpt lat="49.26175" lon="5.29725">
        <ele>185.645</ele>
        <time>2019-09-22T08:21:25.000Z</time>
      </trkpt>
      <trkpt lat="49.26181" lon="5.29745">
        <ele>185.708</ele>
        <time>2019-09-22T08:21:28.000Z</time>
      </trkpt>
      <trkpt lat="49.26185" lon="5.29766">
        <ele>185.686</ele>
        <time>2019-09-22T08:21:31.000Z</time>
      </trkpt>
      <trkpt lat="49.2619" lon="5.29787">
        <ele>186</ele>
        <time>2019-09-22T08:21:34.000Z</time>
      </trkpt>
      <trkpt lat="49.26193" lon="5.2981">
        <ele>186.364</ele>
        <time>2019-09-22T08:21:37.000Z</time>
      </trkpt>
      <trkpt lat="49.26196" lon="5.29834">
        <ele>186.355</ele>
        <time>2019-09-22T08:21:40.000Z</time>
      </trkpt>
      <trkpt lat="49.262" lon="5.29857">
        <ele>186.459</ele>
        <time>2019-09-22T08:21:43.000Z</time>
      </trkpt>
      <trkpt lat="49.26206" lon="5.29875">
        <ele>186.909</ele>
        <time>2019-09-22T08:21:46.000Z</time>
      </trkpt>
      <trkpt lat="49.26214" lon="5.29887">
        <ele>186.965</ele>
        <time>2019-09-22T08:21:49.000Z</time>
      </trkpt>
      <trkpt lat="49.26221" lon="5.29903">
        <ele>186.243</ele>
        <time>2019-09-22T08:21:52.000Z</time>
      </trkpt>
      <trkpt lat="49.26229" lon="5.29923">
        <ele>185.503</ele>
        <time>2019-09-22T08:21:55.000Z</time>
      </trkpt>
      <trkpt lat="49.26234" lon="5.29951">
        <ele>185.084</ele>
        <time>2019-09-22T08:21:58.000Z</time>
      </trkpt>
      <trkpt lat="49.26238" lon="5.29981">
        <ele>184.509</ele>
        <time>2019-09-22T08:22:01.000Z</time>
      </trkpt>
      <trkpt lat="49.26242" lon="5.30009">
        <ele>183.999</ele>
        <time>2019-09-22T08:22:04.000Z</time>
      </trkpt>
      <trkpt lat="49.26243" lon="5.30032">
        <ele>184.713</ele>
        <time>2019-09-22T08:22:07.000Z</time>
      </trkpt>
      <trkpt lat="49.26244" lon="5.30054">
        <ele>185.066</ele>
        <time>2019-09-22T08:22:10.000Z</time>
      </trkpt>
      <trkpt lat="49.26244" lon="5.30075">
        <ele>185.216</ele>
        <time>2019-09-22T08:22:13.000Z</time>
      </trkpt>
      <trkpt lat="49.26243" lon="5.30097">
        <ele>185.346</ele>
        <time>2019-09-22T08:22:16.000Z</time>
      </trkpt>
      <trkpt lat="49.26242" lon="5.30119">
        <ele>185.293</ele>
        <time>2019-09-22T08:22:19.000Z</time>
      </trkpt>
      <trkpt lat="49.26241" lon="5.3014">
        <ele>185.309</ele>
        <time>2019-09-22T08:22:22.000Z</time>
      </trkpt>
      <trkpt lat="49.26241" lon="5.30161">
        <ele>185.755</ele>
        <time>2019-09-22T08:22:25.000Z</time>
      </trkpt>
      <trkpt lat="49.2624" lon="5.30181">
        <ele>185.839</ele>
        <time>2019-09-22T08:22:28.000Z</time>
      </trkpt>
      <trkpt lat="49.26239" lon="5.30201">
        <ele>185.696</ele>
        <time>2019-09-22T08:22:31.000Z</time>
      </trkpt>
      <trkpt lat="49.26236" lon="5.30221">
        <ele>185.522</ele>
        <time>2019-09-22T08:22:34.000Z</time>
      </trkpt>
      <trkpt lat="49.26232" lon="5.3024">
        <ele>185.251</ele>
        <time>2019-09-22T08:22:37.000Z</time>
      </trkpt>
      <trkpt lat="49.26226" lon="5.30258">
        <ele>185.16</ele>
        <time>2019-09-22T08:22:40.000Z</time>
      </trkpt>
      <trkpt lat="49.26219" lon="5.30276">
        <ele>185.344</ele>
        <time>2019-09-22T08:22:43.000Z</time>
      </trkpt>
      <trkpt lat="49.2621" lon="5.30291">
        <ele>185.395</ele>
        <time>2019-09-22T08:22:46.000Z</time>
      </trkpt>
      <trkpt lat="49.26201" lon="5.30305">
        <ele>185.269</ele>
        <time>2019-09-22T08:22:49.000Z</time>
      </trkpt>
      <trkpt lat="49.26191" lon="5.30317">
        <ele>185.29</ele>
        <time>2019-09-22T08:22:52.000Z</time>
      </trkpt>
      <trkpt lat="49.26181" lon="5.3033">
        <ele>184.936</ele>
        <time>2019-09-22T08:22:55.000Z</time>
      </trkpt>
      <trkpt lat="49.2617" lon="5.30342">
        <ele>184.338</ele>
        <time>2019-09-22T08:22:58.000Z</time>
      </trkpt>
      <trkpt lat="49.2616" lon="5.30356">
        <ele>183.803</ele>
        <time>2019-09-22T08:23:01.000Z</time>
      </trkpt>
      <trkpt lat="49.26149" lon="5.30368">
        <ele>183.69</ele>
        <time>2019-09-22T08:23:04.000Z</time>
      </trkpt>
      <trkpt lat="49.26139" lon="5.30382">
        <ele>183.686</ele>
        <time>2019-09-22T08:23:07.000Z</time>
      </trkpt>
      <trkpt lat="49.26129" lon="5.30395">
        <ele>183.91</ele>
        <time>2019-09-22T08:23:10.000Z</time>
      </trkpt>
      <trkpt lat="49.26119" lon="5.3041">
        <ele>184.263</ele>
        <time>2019-09-22T08:23:13.000Z</time>
      </trkpt>
      <trkpt lat="49.2611" lon="5.30425">
        <ele>184.291</ele>
        <time>2019-09-22T08:23:16.000Z</time>
      </trkpt>
      <trkpt lat="49.261" lon="5.3044">
        <ele>183.869</ele>
        <time>2019-09-22T08:23:19.000Z</time>
      </trkpt>
      <trkpt lat="49.26091" lon="5.30455">
        <ele>183.844</ele>
        <time>2019-09-22T08:23:22.000Z</time>
      </trkpt>
      <trkpt lat="49.26082" lon="5.3047">
        <ele>184.27</ele>
        <time>2019-09-22T08:23:25.000Z</time>
      </trkpt>
      <trkpt lat="49.26075" lon="5.30486">
        <ele>183.782</ele>
        <time>2019-09-22T08:23:28.000Z</time>
      </trkpt>
      <trkpt lat="49.26068" lon="5.30504">
        <ele>183.799</ele>
        <time>2019-09-22T08:23:31.000Z</time>
      </trkpt>
      <trkpt lat="49.26062" lon="5.30522">
        <ele>183.786</ele>
        <time>2019-09-22T08:23:34.000Z</time>
      </trkpt>
      <trkpt lat="49.26057" lon="5.3054">
        <ele>183.932</ele>
        <time>2019-09-22T08:23:37.000Z</time>
      </trkpt>
      <trkpt lat="49.26051" lon="5.30559">
        <ele>183.682</ele>
        <time>2019-09-22T08:23:40.000Z</time>
      </trkpt>
      <trkpt lat="49.26045" lon="5.30578">
        <ele>183.179</ele>
        <time>2019-09-22T08:23:43.000Z</time>
      </trkpt>
      <trkpt lat="49.26039" lon="5.30597">
        <ele>182.802</ele>
        <time>2019-09-22T08:23:46.000Z</time>
      </trkpt>
      <trkpt lat="49.26033" lon="5.30615">
        <ele>182.802</ele>
        <time>2019-09-22T08:23:49.000Z</time>
      </trkpt>
      <trkpt lat="49.26028" lon="5.30633">
        <ele>182.835</ele>
        <time>2019-09-22T08:23:52.000Z</time>
      </trkpt>
      <trkpt lat="49.26023" lon="5.30651">
        <ele>182.893</ele>
        <time>2019-09-22T08:23:55.000Z</time>
      </trkpt>
      <trkpt lat="49.26018" lon="5.30669">
        <ele>182.445</ele>
        <time>2019-09-22T08:23:58.000Z</time>
      </trkpt>
      <trkpt lat="49.26013" lon="5.30688">
        <ele>182.061</ele>
        <time>2019-09-22T08:24:01.000Z</time>
      </trkpt>
      <trkpt lat="49.26008" lon="5.30708">
        <ele>181.868</ele>
        <time>2019-09-22T08:24:04.000Z</time>
      </trkpt>
      <trkpt lat="49.26003" lon="5.30729">
        <ele>181.971</ele>
        <time>2019-09-22T08:24:07.000Z</time>
      </trkpt>
      <trkpt lat="49.25997" lon="5.30749">
        <ele>181.98</ele>
        <time>2019-09-22T08:24:10.000Z</time>
      </trkpt>
      <trkpt lat="49.2599" lon="5.3077">
        <ele>181.978</ele>
        <time>2019-09-22T08:24:13.000Z</time>
      </trkpt>
      <trkpt lat="49.25984" lon="5.30791">
        <ele>181.713</ele>
        <time>2019-09-22T08:24:16.000Z</time>
      </trkpt>
      <trkpt lat="49.25979" lon="5.30811">
        <ele>182.182</ele>
        <time>2019-09-22T08:24:19.000Z</time>
      </trkpt>
      <trkpt lat="49.25974" lon="5.30831">
        <ele>182.939</ele>
        <time>2019-09-22T08:24:22.000Z</time>
      </trkpt>
      <trkpt lat="49.2597" lon="5.30851">
        <ele>183.162</ele>
        <time>2019-09-22T08:24:25.000Z</time>
      </trkpt>
      <trkpt lat="49.25966" lon="5.30871">
        <ele>183.095</ele>
        <time>2019-09-22T08:24:28.000Z</time>
      </trkpt>
      <trkpt lat="49.25963" lon="5.3089">
        <ele>183.127</ele>
        <time>2019-09-22T08:24:31.000Z</time>
      </trkpt>
      <trkpt lat="49.2596" lon="5.30909">
        <ele>183.203</ele>
        <time>2019-09-22T08:24:34.000Z</time>
      </trkpt>
      <trkpt lat="49.25957" lon="5.30928">
        <ele>183.41</ele>
        <time>2019-09-22T08:24:37.000Z</time>
      </trkpt>
      <trkpt lat="49.25954" lon="5.30948">
        <ele>183.822</ele>
        <time>2019-09-22T08:24:40.000Z</time>
      </trkpt>
      <trkpt lat="49.25953" lon="5.30969">
        <ele>183.739</ele>
        <time>2019-09-22T08:24:43.000Z</time>
      </trkpt>
      <trkpt lat="49.2595" lon="5.30991">
        <ele>183.904</ele>
        <time>2019-09-22T08:24:46.000Z</time>
      </trkpt>
      <trkpt lat="49.25947" lon="5.31013">
        <ele>184.156</ele>
        <time>2019-09-22T08:24:49.000Z</time>
      </trkpt>
      <trkpt lat="49.25944" lon="5.31034">
        <ele>184.22</ele>
        <time>2019-09-22T08:24:52.000Z</time>
      </trkpt>
      <trkpt lat="49.25941" lon="5.31055">
        <ele>184.009</ele>
        <time>2019-09-22T08:24:55.000Z</time>
      </trkpt>
      <trkpt lat="49.25938" lon="5.31076">
        <ele>184.001</ele>
        <time>2019-09-22T08:24:58.000Z</time>
      </trkpt>
      <trkpt lat="49.25935" lon="5.31096">
        <ele>184.007</ele>
        <time>2019-09-22T08:25:01.000Z</time>
      </trkpt>
      <trkpt lat="49.25932" lon="5.31116">
        <ele>184.063</ele>
        <time>2019-09-22T08:25:04.000Z</time>
      </trkpt>
      <trkpt lat="49.25929" lon="5.31135">
        <ele>184.032</ele>
        <time>2019-09-22T08:25:07.000Z</time>
      </trkpt>
      <trkpt lat="49.25926" lon="5.31155">
        <ele>184.199</ele>
        <time>2019-09-22T08:25:10.000Z</time>
      </trkpt>
      <trkpt lat="49.25924" lon="5.31175">
        <ele>183.959</ele>
        <time>2019-09-22T08:25:13.000Z</time>
      </trkpt>
      <trkpt lat="49.25921" lon="5.31195">
        <ele>184.088</ele>
        <time>2019-09-22T08:25:16.000Z</time>
      </trkpt>
      <trkpt lat="49.25918" lon="5.31215">
        <ele>184.218</ele>
        <time>2019-09-22T08:25:19.000Z</time>
      </trkpt>
      <trkpt lat="49.25915" lon="5.31235">
        <ele>184.349</ele>
        <time>2019-09-22T08:25:22.000Z</time>
      </trkpt>
      <trkpt lat="49.25912" lon="5.31255">
        <ele>184.332</ele>
        <time>2019-09-22T08:25:25.000Z</time>
      </trkpt>
      <trkpt lat="49.25909" lon="5.31274">
        <ele>184.281</ele>
        <time>2019-09-22T08:25:28.000Z</time>
      </trkpt>
      <trkpt lat="49.25906" lon="5.31294">
        <ele>184.445</ele>
        <time>2019-09-22T08:25:31.000Z</time>
      </trkpt>
      <trkpt lat="49.25903" lon="5.31314">
        <ele>184.304</ele>
        <time>2019-09-22T08:25:34.000Z</time>
      </trkpt>
      <trkpt lat="49.25899" lon="5.31334">
        <ele>184.027</ele>
        <time>2019-09-22T08:25:37.000Z</time>
      </trkpt>
      <trkpt lat="49.25895" lon="5.31355">
        <ele>183.892</ele>
        <time>2019-09-22T08:25:40.000Z</time>
      </trkpt>
      <trkpt lat="49.25891" lon="5.31376">
        <ele>184.01</ele>
        <time>2019-09-22T08:25:43.000Z</time>
      </trkpt>
      <trkpt lat="49.25887" lon="5.31397">
        <ele>184.108</ele>
        <time>2019-09-22T08:25:46.000Z</time>
      </trkpt>
      <trkpt lat="49.25883" lon="5.31416">
        <ele>184.14</ele>
        <time>2019-09-22T08:25:49.000Z</time>
      </trkpt>
      <trkpt lat="49.25879" lon="5.31436">
        <ele>184.165</ele>
        <time>2019-09-22T08:25:52.000Z</time>
      </trkpt>
      <trkpt lat="49.25874" lon="5.31455">
        <ele>184.128</ele>
        <time>2019-09-22T08:25:55.000Z</time>
      </trkpt>
      <trkpt lat="49.2587" lon="5.31474">
        <ele>184.228</ele>
        <time>2019-09-22T08:25:58.000Z</time>
      </trkpt>
      <trkpt lat="49.25866" lon="5.31494">
        <ele>184.233</ele>
        <time>2019-09-22T08:26:01.000Z</time>
      </trkpt>
      <trkpt lat="49.25862" lon="5.31514">
        <ele>184.458</ele>
        <time>2019-09-22T08:26:04.000Z</time>
      </trkpt>
      <trkpt lat="49.25858" lon="5.31534">
        <ele>184.754</ele>
        <time>2019-09-22T08:26:07.000Z</time>
      </trkpt>
      <trkpt lat="49.25855" lon="5.31554">
        <ele>184.932</ele>
        <time>2019-09-22T08:26:10.000Z</time>
      </trkpt>
      <trkpt lat="49.25851" lon="5.31574">
        <ele>184.96</ele>
        <time>2019-09-22T08:26:13.000Z</time>
      </trkpt>
      <trkpt lat="49.25847" lon="5.31594">
        <ele>185.009</ele>
        <time>2019-09-22T08:26:16.000Z</time>
      </trkpt>
      <trkpt lat="49.25843" lon="5.31614">
        <ele>184.837</ele>
        <time>2019-09-22T08:26:19.000Z</time>
      </trkpt>
      <trkpt lat="49.25839" lon="5.31634">
        <ele>184.755</ele>
        <time>2019-09-22T08:26:22.000Z</time>
      </trkpt>
      <trkpt lat="49.25835" lon="5.31654">
        <ele>184.569</ele>
        <time>2019-09-22T08:26:25.000Z</time>
      </trkpt>
      <trkpt lat="49.25832" lon="5.31675">
        <ele>184.376</ele>
        <time>2019-09-22T08:26:28.000Z</time>
      </trkpt>
      <trkpt lat="49.25828" lon="5.31694">
        <ele>184.148</ele>
        <time>2019-09-22T08:26:31.000Z</time>
      </trkpt>
      <trkpt lat="49.25825" lon="5.31713">
        <ele>184.106</ele>
        <time>2019-09-22T08:26:34.000Z</time>
      </trkpt>
      <trkpt lat="49.25821" lon="5.31732">
        <ele>184.053</ele>
        <time>2019-09-22T08:26:37.000Z</time>
      </trkpt>
      <trkpt lat="49.25818" lon="5.31752">
        <ele>183.907</ele>
        <time>2019-09-22T08:26:40.000Z</time>
      </trkpt>
      <trkpt lat="49.25815" lon="5.3177">
        <ele>183.879</ele>
        <time>2019-09-22T08:26:43.000Z</time>
      </trkpt>
      <trkpt lat="49.25812" lon="5.31788">
        <ele>184.085</ele>
        <time>2019-09-22T08:26:46.000Z</time>
      </trkpt>
      <trkpt lat="49.25809" lon="5.31806">
        <ele>184.083</ele>
        <time>2019-09-22T08:26:49.000Z</time>
      </trkpt>
      <trkpt lat="49.25807" lon="5.31825">
        <ele>183.784</ele>
        <time>2019-09-22T08:26:52.000Z</time>
      </trkpt>
      <trkpt lat="49.25805" lon="5.31844">
        <ele>183.567</ele>
        <time>2019-09-22T08:26:55.000Z</time>
      </trkpt>
      <trkpt lat="49.25803" lon="5.31864">
        <ele>183.457</ele>
        <time>2019-09-22T08:26:58.000Z</time>
      </trkpt>
      <trkpt lat="49.25802" lon="5.31883">
        <ele>183.294</ele>
        <time>2019-09-22T08:27:01.000Z</time>
      </trkpt>
      <trkpt lat="49.25801" lon="5.31902">
        <ele>183.137</ele>
        <time>2019-09-22T08:27:04.000Z</time>
      </trkpt>
      <trkpt lat="49.25798" lon="5.3192">
        <ele>183.473</ele>
        <time>2019-09-22T08:27:07.000Z</time>
      </trkpt>
      <trkpt lat="49.25797" lon="5.31939">
        <ele>183.549</ele>
        <time>2019-09-22T08:27:10.000Z</time>
      </trkpt>
      <trkpt lat="49.25796" lon="5.31959">
        <ele>183.138</ele>
        <time>2019-09-22T08:27:13.000Z</time>
      </trkpt>
      <trkpt lat="49.25794" lon="5.31979">
        <ele>182.954</ele>
        <time>2019-09-22T08:27:16.000Z</time>
      </trkpt>
      <trkpt lat="49.25792" lon="5.31999">
        <ele>182.906</ele>
        <time>2019-09-22T08:27:19.000Z</time>
      </trkpt>
      <trkpt lat="49.25789" lon="5.32019">
        <ele>182.889</ele>
        <time>2019-09-22T08:27:22.000Z</time>
      </trkpt>
      <trkpt lat="49.25787" lon="5.32039">
        <ele>182.964</ele>
        <time>2019-09-22T08:27:25.000Z</time>
      </trkpt>
      <trkpt lat="49.25784" lon="5.32059">
        <ele>182.832</ele>
        <time>2019-09-22T08:27:28.000Z</time>
      </trkpt>
      <trkpt lat="49.25782" lon="5.3208">
        <ele>182.895</ele>
        <time>2019-09-22T08:27:31.000Z</time>
      </trkpt>
      <trkpt lat="49.25779" lon="5.321">
        <ele>182.932</ele>
        <time>2019-09-22T08:27:34.000Z</time>
      </trkpt>
      <trkpt lat="49.25775" lon="5.32122">
        <ele>182.838</ele>
        <time>2019-09-22T08:27:37.000Z</time>
      </trkpt>
      <trkpt lat="49.25772" lon="5.32143">
        <ele>182.688</ele>
        <time>2019-09-22T08:27:40.000Z</time>
      </trkpt>
      <trkpt lat="49.25767" lon="5.32164">
        <ele>182.943</ele>
        <time>2019-09-22T08:27:43.000Z</time>
      </trkpt>
      <trkpt lat="49.25762" lon="5.32183">
        <ele>182.999</ele>
        <time>2019-09-22T08:27:46.000Z</time>
      </trkpt>
      <trkpt lat="49.25755" lon="5.32202">
        <ele>183.089</ele>
        <time>2019-09-22T08:27:49.000Z</time>
      </trkpt>
      <trkpt lat="49.25747" lon="5.3222">
        <ele>183.268</ele>
        <time>2019-09-22T08:27:52.000Z</time>
      </trkpt>
      <trkpt lat="49.25739" lon="5.32237">
        <ele>183.573</ele>
        <time>2019-09-22T08:27:55.000Z</time>
      </trkpt>
      <trkpt lat="49.2573" lon="5.32254">
        <ele>183.622</ele>
        <time>2019-09-22T08:27:58.000Z</time>
      </trkpt>
      <trkpt lat="49.25722" lon="5.3227">
        <ele>183.922</ele>
        <time>2019-09-22T08:28:01.000Z</time>
      </trkpt>
      <trkpt lat="49.25712" lon="5.32286">
        <ele>184.077</ele>
        <time>2019-09-22T08:28:04.000Z</time>
      </trkpt>
      <trkpt lat="49.25703" lon="5.323">
        <ele>184.094</ele>
        <time>2019-09-22T08:28:07.000Z</time>
      </trkpt>
      <trkpt lat="49.25695" lon="5.32313">
        <ele>184.406</ele>
        <time>2019-09-22T08:28:10.000Z</time>
      </trkpt>
      <trkpt lat="49.25686" lon="5.32327">
        <ele>184.287</ele>
        <time>2019-09-22T08:28:13.000Z</time>
      </trkpt>
      <trkpt lat="49.25676" lon="5.3234">
        <ele>184.023</ele>
        <time>2019-09-22T08:28:16.000Z</time>
      </trkpt>
      <trkpt lat="49.25666" lon="5.32353">
        <ele>183.998</ele>
        <time>2019-09-22T08:28:19.000Z</time>
      </trkpt>
      <trkpt lat="49.25655" lon="5.32367">
        <ele>184.188</ele>
        <time>2019-09-22T08:28:22.000Z</time>
      </trkpt>
      <trkpt lat="49.25645" lon="5.3238">
        <ele>184.517</ele>
        <time>2019-09-22T08:28:25.000Z</time>
      </trkpt>
      <trkpt lat="49.25634" lon="5.32394">
        <ele>184.535</ele>
        <time>2019-09-22T08:28:28.000Z</time>
      </trkpt>
      <trkpt lat="49.25622" lon="5.32407">
        <ele>184.287</ele>
        <time>2019-09-22T08:28:31.000Z</time>
      </trkpt>
      <trkpt lat="49.25612" lon="5.32421">
        <ele>183.817</ele>
        <time>2019-09-22T08:28:34.000Z</time>
      </trkpt>
      <trkpt lat="49.25602" lon="5.32435">
        <ele>183.758</ele>
        <time>2019-09-22T08:28:37.000Z</time>
      </trkpt>
      <trkpt lat="49.25592" lon="5.32448">
        <ele>183.86</ele>
        <time>2019-09-22T08:28:40.000Z</time>
      </trkpt>
      <trkpt lat="49.25581" lon="5.3246">
        <ele>184.38</ele>
        <time>2019-09-22T08:28:43.000Z</time>
      </trkpt>
      <trkpt lat="49.2557" lon="5.32473">
        <ele>184.961</ele>
        <time>2019-09-22T08:28:46.000Z</time>
      </trkpt>
      <trkpt lat="49.25559" lon="5.32486">
        <ele>185.195</ele>
        <time>2019-09-22T08:28:49.000Z</time>
      </trkpt>
      <trkpt lat="49.25548" lon="5.32498">
        <ele>185.36</ele>
        <time>2019-09-22T08:28:52.000Z</time>
      </trkpt>
      <trkpt lat="49.25536" lon="5.32508">
        <ele>185.176</ele>
        <time>2019-09-22T08:28:55.000Z</time>
      </trkpt>
      <trkpt lat="49.25525" lon="5.32516">
        <ele>185.684</ele>
        <time>2019-09-22T08:28:58.000Z</time>
      </trkpt>
      <trkpt lat="49.25515" lon="5.32522">
        <ele>186.157</ele>
        <time>2019-09-22T08:29:01.000Z</time>
      </trkpt>
      <trkpt lat="49.25504" lon="5.32529">
        <ele>186.567</ele>
        <time>2019-09-22T08:29:04.000Z</time>
      </trkpt>
      <trkpt lat="49.25493" lon="5.32536">
        <ele>186.644</ele>
        <time>2019-09-22T08:29:07.000Z</time>
      </trkpt>
      <trkpt lat="49.25481" lon="5.32541">
        <ele>187.097</ele>
        <time>2019-09-22T08:29:10.000Z</time>
      </trkpt>
      <trkpt lat="49.25471" lon="5.32547">
        <ele>187.78</ele>
        <time>2019-09-22T08:29:13.000Z</time>
      </trkpt>
      <trkpt lat="49.25461" lon="5.32552">
        <ele>188.395</ele>
        <time>2019-09-22T08:29:16.000Z</time>
      </trkpt>
      <trkpt lat="49.25451" lon="5.32557">
        <ele>188.876</ele>
        <time>2019-09-22T08:29:19.000Z</time>
      </trkpt>
      <trkpt lat="49.25441" lon="5.32562">
        <ele>188.993</ele>
        <time>2019-09-22T08:29:22.000Z</time>
      </trkpt>
      <trkpt lat="49.25431" lon="5.32568">
        <ele>188.897</ele>
        <time>2019-09-22T08:29:25.000Z</time>
      </trkpt>
      <trkpt lat="49.25421" lon="5.32574">
        <ele>188.96</ele>
        <time>2019-09-22T08:29:28.000Z</time>
      </trkpt>
      <trkpt lat="49.25412" lon="5.32579">
        <ele>189.473</ele>
        <time>2019-09-22T08:29:31.000Z</time>
      </trkpt>
      <trkpt lat="49.25402" lon="5.32584">
        <ele>190.13</ele>
        <time>2019-09-22T08:29:34.000Z</time>
      </trkpt>
      <trkpt lat="49.25391" lon="5.32588">
        <ele>190.96</ele>
        <time>2019-09-22T08:29:37.000Z</time>
      </trkpt>
      <trkpt lat="49.25381" lon="5.32591">
        <ele>191.672</ele>
        <time>2019-09-22T08:29:40.000Z</time>
      </trkpt>
      <trkpt lat="49.2537" lon="5.32594">
        <ele>192.256</ele>
        <time>2019-09-22T08:29:43.000Z</time>
      </trkpt>
      <trkpt lat="49.25359" lon="5.32599">
        <ele>192.729</ele>
        <time>2019-09-22T08:29:46.000Z</time>
      </trkpt>
      <trkpt lat="49.25351" lon="5.32612">
        <ele>193.269</ele>
        <time>2019-09-22T08:29:49.000Z</time>
      </trkpt>
      <trkpt lat="49.25349" lon="5.32633">
        <ele>194.16</ele>
        <time>2019-09-22T08:29:52.000Z</time>
      </trkpt>
      <trkpt lat="49.25352" lon="5.32657">
        <ele>194.07</ele>
        <time>2019-09-22T08:29:55.000Z</time>
      </trkpt>
      <trkpt lat="49.25357" lon="5.32684">
        <ele>193.395</ele>
        <time>2019-09-22T08:29:58.000Z</time>
      </trkpt>
      <trkpt lat="49.25357" lon="5.3271">
        <ele>192.598</ele>
        <time>2019-09-22T08:30:01.000Z</time>
      </trkpt>
      <trkpt lat="49.25355" lon="5.32735">
        <ele>190.87</ele>
        <time>2019-09-22T08:30:04.000Z</time>
      </trkpt>
      <trkpt lat="49.25351" lon="5.32759">
        <ele>189.68</ele>
        <time>2019-09-22T08:30:07.000Z</time>
      </trkpt>
      <trkpt lat="49.25345" lon="5.32783">
        <ele>189.758</ele>
        <time>2019-09-22T08:30:10.000Z</time>
      </trkpt>
      <trkpt lat="49.25338" lon="5.32805">
        <ele>188.933</ele>
        <time>2019-09-22T08:30:13.000Z</time>
      </trkpt>
      <trkpt lat="49.25332" lon="5.32826">
        <ele>187.813</ele>
        <time>2019-09-22T08:30:16.000Z</time>
      </trkpt>
      <trkpt lat="49.25326" lon="5.32847">
        <ele>186.677</ele>
        <time>2019-09-22T08:30:19.000Z</time>
      </trkpt>
      <trkpt lat="49.2532" lon="5.32866">
        <ele>185.897</ele>
        <time>2019-09-22T08:30:22.000Z</time>
      </trkpt>
      <trkpt lat="49.25314" lon="5.32887">
        <ele>184.992</ele>
        <time>2019-09-22T08:30:25.000Z</time>
      </trkpt>
      <trkpt lat="49.25308" lon="5.32907">
        <ele>184.626</ele>
        <time>2019-09-22T08:30:28.000Z</time>
      </trkpt>
      <trkpt lat="49.25301" lon="5.32926">
        <ele>184.521</ele>
        <time>2019-09-22T08:30:31.000Z</time>
      </trkpt>
      <trkpt lat="49.25295" lon="5.32947">
        <ele>183.715</ele>
        <time>2019-09-22T08:30:34.000Z</time>
      </trkpt>
      <trkpt lat="49.2529" lon="5.32966">
        <ele>183.671</ele>
        <time>2019-09-22T08:30:37.000Z</time>
      </trkpt>
      <trkpt lat="49.25285" lon="5.32983">
        <ele>183.756</ele>
        <time>2019-09-22T08:30:40.000Z</time>
      </trkpt>
      <trkpt lat="49.25279" lon="5.33">
        <ele>183.714</ele>
        <time>2019-09-22T08:30:43.000Z</time>
      </trkpt>
      <trkpt lat="49.25274" lon="5.33015">
        <ele>183.877</ele>
        <time>2019-09-22T08:30:46.000Z</time>
      </trkpt>
      <trkpt lat="49.2527" lon="5.3303">
        <ele>184.293</ele>
        <time>2019-09-22T08:30:49.000Z</time>
      </trkpt>
      <trkpt lat="49.25265" lon="5.33046">
        <ele>185.168</ele>
        <time>2019-09-22T08:30:52.000Z</time>
      </trkpt>
      <trkpt lat="49.2526" lon="5.33061">
        <ele>185.847</ele>
        <time>2019-09-22T08:30:55.000Z</time>
      </trkpt>
      <trkpt lat="49.25255" lon="5.33075">
        <ele>186.2</ele>
        <time>2019-09-22T08:30:58.000Z</time>
      </trkpt>
      <trkpt lat="49.25251" lon="5.33089">
        <ele>187.471</ele>
        <time>2019-09-22T08:31:01.000Z</time>
      </trkpt>
      <trkpt lat="49.25247" lon="5.33104">
        <ele>188.125</ele>
        <time>2019-09-22T08:31:04.000Z</time>
      </trkpt>
      <trkpt lat="49.25243" lon="5.3312">
        <ele>188.005</ele>
        <time>2019-09-22T08:31:07.000Z</time>
      </trkpt>
      <trkpt lat="49.25238" lon="5.33137">
        <ele>187.818</ele>
        <time>2019-09-22T08:31:10.000Z</time>
      </trkpt>
      <trkpt lat="49.25236" lon="5.33159">
        <ele>187.54</ele>
        <time>2019-09-22T08:31:13.000Z</time>
      </trkpt>
      <trkpt lat="49.25243" lon="5.33182">
        <ele>187.438</ele>
        <time>2019-09-22T08:31:16.000Z</time>
      </trkpt>
      <trkpt lat="49.25254" lon="5.33205">
        <ele>186.958</ele>
        <time>2019-09-22T08:31:19.000Z</time>
      </trkpt>
      <trkpt lat="49.25264" lon="5.33229">
        <ele>186.321</ele>
        <time>2019-09-22T08:31:22.000Z</time>
      </trkpt>
      <trkpt lat="49.25274" lon="5.33254">
        <ele>186.119</ele>
        <time>2019-09-22T08:31:25.000Z</time>
      </trkpt>
      <trkpt lat="49.25283" lon="5.33279">
        <ele>185.769</ele>
        <time>2019-09-22T08:31:28.000Z</time>
      </trkpt>
      <trkpt lat="49.25292" lon="5.33302">
        <ele>185.519</ele>
        <time>2019-09-22T08:31:31.000Z</time>
      </trkpt>
      <trkpt lat="49.253" lon="5.33319">
        <ele>185.29</ele>
        <time>2019-09-22T08:31:34.000Z</time>
      </trkpt>
      <trkpt lat="49.25306" lon="5.33337">
        <ele>185.168</ele>
        <time>2019-09-22T08:31:37.000Z</time>
      </trkpt>
      <trkpt lat="49.25312" lon="5.33358">
        <ele>184.658</ele>
        <time>2019-09-22T08:31:40.000Z</time>
      </trkpt>
      <trkpt lat="49.25315" lon="5.33384">
        <ele>184.022</ele>
        <time>2019-09-22T08:31:43.000Z</time>
      </trkpt>
      <trkpt lat="49.25318" lon="5.3341">
        <ele>183.467</ele>
        <time>2019-09-22T08:31:46.000Z</time>
      </trkpt>
      <trkpt lat="49.25322" lon="5.33435">
        <ele>182.813</ele>
        <time>2019-09-22T08:31:49.000Z</time>
      </trkpt>
      <trkpt lat="49.25327" lon="5.33458">
        <ele>182.665</ele>
        <time>2019-09-22T08:31:52.000Z</time>
      </trkpt>
      <trkpt lat="49.25332" lon="5.33478">
        <ele>182.728</ele>
        <time>2019-09-22T08:31:55.000Z</time>
      </trkpt>
      <trkpt lat="49.25338" lon="5.33495">
        <ele>182.7</ele>
        <time>2019-09-22T08:31:58.000Z</time>
      </trkpt>
      <trkpt lat="49.25345" lon="5.33508">
        <ele>183.022</ele>
        <time>2019-09-22T08:32:01.000Z</time>
      </trkpt>
      <trkpt lat="49.2535" lon="5.33522">
        <ele>183.499</ele>
        <time>2019-09-22T08:32:04.000Z</time>
      </trkpt>
      <trkpt lat="49.25354" lon="5.33532">
        <ele>184.525</ele>
        <time>2019-09-22T08:32:07.000Z</time>
      </trkpt>
      <trkpt lat="49.25359" lon="5.33542">
        <ele>185.179</ele>
        <time>2019-09-22T08:32:10.000Z</time>
      </trkpt>
      <trkpt lat="49.25363" lon="5.33551">
        <ele>185.46</ele>
        <time>2019-09-22T08:32:13.000Z</time>
      </trkpt>
      <trkpt lat="49.25364" lon="5.33559">
        <ele>185.727</ele>
        <time>2019-09-22T08:32:16.000Z</time>
      </trkpt>
      <trkpt lat="49.25358" lon="5.33566">
        <ele>186.057</ele>
        <time>2019-09-22T08:32:19.000Z</time>
      </trkpt>
      <trkpt lat="49.25348" lon="5.33578">
        <ele>186.275</ele>
        <time>2019-09-22T08:32:22.000Z</time>
      </trkpt>
      <trkpt lat="49.25337" lon="5.33591">
        <ele>186.253</ele>
        <time>2019-09-22T08:32:25.000Z</time>
      </trkpt>
      <trkpt lat="49.25329" lon="5.33609">
        <ele>186.518</ele>
        <time>2019-09-22T08:32:28.000Z</time>
      </trkpt>
      <trkpt lat="49.25323" lon="5.33619">
        <ele>186.522</ele>
        <time>2019-09-22T08:32:31.000Z</time>
      </trkpt>
      <trkpt lat="49.25314" lon="5.33625">
        <ele>186.521</ele>
        <time>2019-09-22T08:32:34.000Z</time>
      </trkpt>
      <trkpt lat="49.25305" lon="5.33635">
        <ele>186.95</ele>
        <time>2019-09-22T08:32:37.000Z</time>
      </trkpt>
      <trkpt lat="49.25295" lon="5.33645">
        <ele>187.472</ele>
        <time>2019-09-22T08:32:40.000Z</time>
      </trkpt>
      <trkpt lat="49.25285" lon="5.33655">
        <ele>187.715</ele>
        <time>2019-09-22T08:32:43.000Z</time>
      </trkpt>
      <trkpt lat="49.25274" lon="5.33666">
        <ele>187.637</ele>
        <time>2019-09-22T08:32:46.000Z</time>
      </trkpt>
      <trkpt lat="49.25262" lon="5.33677">
        <ele>187.472</ele>
        <time>2019-09-22T08:32:49.000Z</time>
      </trkpt>
      <trkpt lat="49.25251" lon="5.33688">
        <ele>187.331</ele>
        <time>2019-09-22T08:32:52.000Z</time>
      </trkpt>
      <trkpt lat="49.25239" lon="5.33699">
        <ele>187.433</ele>
        <time>2019-09-22T08:32:55.000Z</time>
      </trkpt>
      <trkpt lat="49.25228" lon="5.33708">
        <ele>187.365</ele>
        <time>2019-09-22T08:32:58.000Z</time>
      </trkpt>
      <trkpt lat="49.25216" lon="5.33717">
        <ele>187.118</ele>
        <time>2019-09-22T08:33:01.000Z</time>
      </trkpt>
      <trkpt lat="49.25205" lon="5.33726">
        <ele>186.73</ele>
        <time>2019-09-22T08:33:04.000Z</time>
      </trkpt>
      <trkpt lat="49.25194" lon="5.33734">
        <ele>186.85</ele>
        <time>2019-09-22T08:33:07.000Z</time>
      </trkpt>
      <trkpt lat="49.25184" lon="5.3374">
        <ele>187.426</ele>
        <time>2019-09-22T08:33:10.000Z</time>
      </trkpt>
      <trkpt lat="49.25173" lon="5.33746">
        <ele>188.24</ele>
        <time>2019-09-22T08:33:13.000Z</time>
      </trkpt>
      <trkpt lat="49.25163" lon="5.33753">
        <ele>189.238</ele>
        <time>2019-09-22T08:33:16.000Z</time>
      </trkpt>
      <trkpt lat="49.25152" lon="5.3376">
        <ele>189.563</ele>
        <time>2019-09-22T08:33:19.000Z</time>
      </trkpt>
      <trkpt lat="49.25141" lon="5.33765">
        <ele>189.918</ele>
        <time>2019-09-22T08:33:22.000Z</time>
      </trkpt>
      <trkpt lat="49.25129" lon="5.3377">
        <ele>190.479</ele>
        <time>2019-09-22T08:33:25.000Z</time>
      </trkpt>
      <trkpt lat="49.25117" lon="5.33776">
        <ele>191.461</ele>
        <time>2019-09-22T08:33:28.000Z</time>
      </trkpt>
      <trkpt lat="49.25104" lon="5.33781">
        <ele>192.212</ele>
        <time>2019-09-22T08:33:31.000Z</time>
      </trkpt>
      <trkpt lat="49.25092" lon="5.33785">
        <ele>192.753</ele>
        <time>2019-09-22T08:33:34.000Z</time>
      </trkpt>
      <trkpt lat="49.25081" lon="5.33789">
        <ele>193.069</ele>
        <time>2019-09-22T08:33:37.000Z</time>
      </trkpt>
      <trkpt lat="49.25068" lon="5.33794">
        <ele>193.11</ele>
        <time>2019-09-22T08:33:40.000Z</time>
      </trkpt>
      <trkpt lat="49.25055" lon="5.33797">
        <ele>193.596</ele>
        <time>2019-09-22T08:33:43.000Z</time>
      </trkpt>
      <trkpt lat="49.25043" lon="5.338">
        <ele>193.898</ele>
        <time>2019-09-22T08:33:46.000Z</time>
      </trkpt>
      <trkpt lat="49.2503" lon="5.33803">
        <ele>193.448</ele>
        <time>2019-09-22T08:33:49.000Z</time>
      </trkpt>
      <trkpt lat="49.25015" lon="5.33806">
        <ele>192.697</ele>
        <time>2019-09-22T08:33:52.000Z</time>
      </trkpt>
      <trkpt lat="49.25002" lon="5.33807">
        <ele>192.251</ele>
        <time>2019-09-22T08:33:55.000Z</time>
      </trkpt>
      <trkpt lat="49.24989" lon="5.33809">
        <ele>192.004</ele>
        <time>2019-09-22T08:33:58.000Z</time>
      </trkpt>
      <trkpt lat="49.24976" lon="5.3381">
        <ele>192.546</ele>
        <time>2019-09-22T08:34:01.000Z</time>
      </trkpt>
      <trkpt lat="49.24962" lon="5.3381">
        <ele>192.723</ele>
        <time>2019-09-22T08:34:04.000Z</time>
      </trkpt>
      <trkpt lat="49.24948" lon="5.3381">
        <ele>192.106</ele>
        <time>2019-09-22T08:34:07.000Z</time>
      </trkpt>
      <trkpt lat="49.24934" lon="5.3381">
        <ele>191.213</ele>
        <time>2019-09-22T08:34:10.000Z</time>
      </trkpt>
      <trkpt lat="49.2492" lon="5.33809">
        <ele>190.418</ele>
        <time>2019-09-22T08:34:13.000Z</time>
      </trkpt>
      <trkpt lat="49.24906" lon="5.33809">
        <ele>189.564</ele>
        <time>2019-09-22T08:34:16.000Z</time>
      </trkpt>
      <trkpt lat="49.24893" lon="5.33808">
        <ele>188.9</ele>
        <time>2019-09-22T08:34:19.000Z</time>
      </trkpt>
      <trkpt lat="49.24881" lon="5.33807">
        <ele>188.627</ele>
        <time>2019-09-22T08:34:22.000Z</time>
      </trkpt>
      <trkpt lat="49.24868" lon="5.33806">
        <ele>188.461</ele>
        <time>2019-09-22T08:34:25.000Z</time>
      </trkpt>
      <trkpt lat="49.24855" lon="5.33806">
        <ele>188.27</ele>
        <time>2019-09-22T08:34:28.000Z</time>
      </trkpt>
      <trkpt lat="49.24842" lon="5.33804">
        <ele>188.317</ele>
        <time>2019-09-22T08:34:31.000Z</time>
      </trkpt>
      <trkpt lat="49.24831" lon="5.33803">
        <ele>187.493</ele>
        <time>2019-09-22T08:34:34.000Z</time>
      </trkpt>
      <trkpt lat="49.24819" lon="5.33802">
        <ele>187.392</ele>
        <time>2019-09-22T08:34:37.000Z</time>
      </trkpt>
      <trkpt lat="49.24806" lon="5.33802">
        <ele>187.49</ele>
        <time>2019-09-22T08:34:40.000Z</time>
      </trkpt>
      <trkpt lat="49.24792" lon="5.338">
        <ele>187.939</ele>
        <time>2019-09-22T08:34:43.000Z</time>
      </trkpt>
      <trkpt lat="49.24779" lon="5.33798">
        <ele>187.923</ele>
        <time>2019-09-22T08:34:46.000Z</time>
      </trkpt>
      <trkpt lat="49.24767" lon="5.33796">
        <ele>188.036</ele>
        <time>2019-09-22T08:34:49.000Z</time>
      </trkpt>
      <trkpt lat="49.24755" lon="5.33795">
        <ele>188.35</ele>
        <time>2019-09-22T08:34:52.000Z</time>
      </trkpt>
      <trkpt lat="49.24742" lon="5.33793">
        <ele>188.729</ele>
        <time>2019-09-22T08:34:55.000Z</time>
      </trkpt>
      <trkpt lat="49.24728" lon="5.33792">
        <ele>188.672</ele>
        <time>2019-09-22T08:34:58.000Z</time>
      </trkpt>
      <trkpt lat="49.24715" lon="5.3379">
        <ele>188.324</ele>
        <time>2019-09-22T08:35:01.000Z</time>
      </trkpt>
      <trkpt lat="49.24702" lon="5.33786">
        <ele>187.931</ele>
        <time>2019-09-22T08:35:04.000Z</time>
      </trkpt>
      <trkpt lat="49.24689" lon="5.33782">
        <ele>187.661</ele>
        <time>2019-09-22T08:35:07.000Z</time>
      </trkpt>
      <trkpt lat="49.24677" lon="5.33778">
        <ele>187.508</ele>
        <time>2019-09-22T08:35:10.000Z</time>
      </trkpt>
      <trkpt lat="49.24665" lon="5.33773">
        <ele>187.147</ele>
        <time>2019-09-22T08:35:13.000Z</time>
      </trkpt>
      <trkpt lat="49.24652" lon="5.33767">
        <ele>187.395</ele>
        <time>2019-09-22T08:35:16.000Z</time>
      </trkpt>
      <trkpt lat="49.2464" lon="5.3376">
        <ele>187.795</ele>
        <time>2019-09-22T08:35:19.000Z</time>
      </trkpt>
      <trkpt lat="49.24627" lon="5.33752">
        <ele>188.116</ele>
        <time>2019-09-22T08:35:22.000Z</time>
      </trkpt>
      <trkpt lat="49.24616" lon="5.33744">
        <ele>188.271</ele>
        <time>2019-09-22T08:35:25.000Z</time>
      </trkpt>
      <trkpt lat="49.24605" lon="5.33736">
        <ele>188.512</ele>
        <time>2019-09-22T08:35:28.000Z</time>
      </trkpt>
      <trkpt lat="49.24593" lon="5.33728">
        <ele>188.293</ele>
        <time>2019-09-22T08:35:31.000Z</time>
      </trkpt>
      <trkpt lat="49.24582" lon="5.33718">
        <ele>188.286</ele>
        <time>2019-09-22T08:35:34.000Z</time>
      </trkpt>
      <trkpt lat="49.2457" lon="5.33707">
        <ele>188.225</ele>
        <time>2019-09-22T08:35:37.000Z</time>
      </trkpt>
      <trkpt lat="49.2456" lon="5.33695">
        <ele>188.294</ele>
        <time>2019-09-22T08:35:40.000Z</time>
      </trkpt>
      <trkpt lat="49.2455" lon="5.33682">
        <ele>188.463</ele>
        <time>2019-09-22T08:35:43.000Z</time>
      </trkpt>
      <trkpt lat="49.2454" lon="5.33671">
        <ele>188.78</ele>
        <time>2019-09-22T08:35:46.000Z</time>
      </trkpt>
      <trkpt lat="49.2453" lon="5.33658">
        <ele>189.299</ele>
        <time>2019-09-22T08:35:49.000Z</time>
      </trkpt>
      <trkpt lat="49.24521" lon="5.33646">
        <ele>189.171</ele>
        <time>2019-09-22T08:35:52.000Z</time>
      </trkpt>
      <trkpt lat="49.24511" lon="5.33635">
        <ele>189.228</ele>
        <time>2019-09-22T08:35:55.000Z</time>
      </trkpt>
      <trkpt lat="49.24501" lon="5.33623">
        <ele>189.198</ele>
        <time>2019-09-22T08:35:58.000Z</time>
      </trkpt>
      <trkpt lat="49.24491" lon="5.33611">
        <ele>189.262</ele>
        <time>2019-09-22T08:36:01.000Z</time>
      </trkpt>
      <trkpt lat="49.2448" lon="5.33598">
        <ele>189.353</ele>
        <time>2019-09-22T08:36:04.000Z</time>
      </trkpt>
      <trkpt lat="49.24471" lon="5.33585">
        <ele>189.425</ele>
        <time>2019-09-22T08:36:07.000Z</time>
      </trkpt>
      <trkpt lat="49.2446" lon="5.33573">
        <ele>189.593</ele>
        <time>2019-09-22T08:36:10.000Z</time>
      </trkpt>
      <trkpt lat="49.2445" lon="5.3356">
        <ele>190.128</ele>
        <time>2019-09-22T08:36:13.000Z</time>
      </trkpt>
      <trkpt lat="49.24439" lon="5.33548">
        <ele>190.333</ele>
        <time>2019-09-22T08:36:16.000Z</time>
      </trkpt>
      <trkpt lat="49.24428" lon="5.33536">
        <ele>190.647</ele>
        <time>2019-09-22T08:36:19.000Z</time>
      </trkpt>
      <trkpt lat="49.24417" lon="5.33523">
        <ele>190.647</ele>
        <time>2019-09-22T08:36:22.000Z</time>
      </trkpt>
      <trkpt lat="49.24407" lon="5.33508">
        <ele>190.366</ele>
        <time>2019-09-22T08:36:25.000Z</time>
      </trkpt>
      <trkpt lat="49.24395" lon="5.33491">
        <ele>189.373</ele>
        <time>2019-09-22T08:36:28.000Z</time>
      </trkpt>
      <trkpt lat="49.24385" lon="5.33477">
        <ele>188.905</ele>
        <time>2019-09-22T08:36:31.000Z</time>
      </trkpt>
      <trkpt lat="49.24375" lon="5.33464">
        <ele>188.421</ele>
        <time>2019-09-22T08:36:34.000Z</time>
      </trkpt>
      <trkpt lat="49.24366" lon="5.33451">
        <ele>187.868</ele>
        <time>2019-09-22T08:36:37.000Z</time>
      </trkpt>
      <trkpt lat="49.24357" lon="5.3344">
        <ele>187.423</ele>
        <time>2019-09-22T08:36:40.000Z</time>
      </trkpt>
      <trkpt lat="49.24347" lon="5.33428">
        <ele>187.243</ele>
        <time>2019-09-22T08:36:43.000Z</time>
      </trkpt>
      <trkpt lat="49.24338" lon="5.33415">
        <ele>186.632</ele>
        <time>2019-09-22T08:36:46.000Z</time>
      </trkpt>
      <trkpt lat="49.24328" lon="5.33403">
        <ele>186.185</ele>
        <time>2019-09-22T08:36:49.000Z</time>
      </trkpt>
      <trkpt lat="49.24318" lon="5.33391">
        <ele>185.987</ele>
        <time>2019-09-22T08:36:52.000Z</time>
      </trkpt>
      <trkpt lat="49.24308" lon="5.33379">
        <ele>185.961</ele>
        <time>2019-09-22T08:36:55.000Z</time>
      </trkpt>
      <trkpt lat="49.24299" lon="5.33367">
        <ele>185.683</ele>
        <time>2019-09-22T08:36:58.000Z</time>
      </trkpt>
      <trkpt lat="49.24289" lon="5.33353">
        <ele>185.649</ele>
        <time>2019-09-22T08:37:01.000Z</time>
      </trkpt>
      <trkpt lat="49.24279" lon="5.3334">
        <ele>185.389</ele>
        <time>2019-09-22T08:37:04.000Z</time>
      </trkpt>
      <trkpt lat="49.24268" lon="5.33327">
        <ele>185.175</ele>
        <time>2019-09-22T08:37:07.000Z</time>
      </trkpt>
      <trkpt lat="49.24258" lon="5.33312">
        <ele>185.062</ele>
        <time>2019-09-22T08:37:10.000Z</time>
      </trkpt>
      <trkpt lat="49.24249" lon="5.33298">
        <ele>185.151</ele>
        <time>2019-09-22T08:37:13.000Z</time>
      </trkpt>
      <trkpt lat="49.24239" lon="5.33283">
        <ele>185.247</ele>
        <time>2019-09-22T08:37:16.000Z</time>
      </trkpt>
      <trkpt lat="49.24231" lon="5.33268">
        <ele>185.409</ele>
        <time>2019-09-22T08:37:19.000Z</time>
      </trkpt>
      <trkpt lat="49.24222" lon="5.33254">
        <ele>185.355</ele>
        <time>2019-09-22T08:37:22.000Z</time>
      </trkpt>
      <trkpt lat="49.24213" lon="5.33238">
        <ele>185.401</ele>
        <time>2019-09-22T08:37:25.000Z</time>
      </trkpt>
      <trkpt lat="49.24204" lon="5.33222">
        <ele>185.34</ele>
        <time>2019-09-22T08:37:28.000Z</time>
      </trkpt>
      <trkpt lat="49.24195" lon="5.33208">
        <ele>185.07</ele>
        <time>2019-09-22T08:37:31.000Z</time>
      </trkpt>
      <trkpt lat="49.24186" lon="5.33193">
        <ele>184.874</ele>
        <time>2019-09-22T08:37:34.000Z</time>
      </trkpt>
      <trkpt lat="49.24177" lon="5.33179">
        <ele>184.678</ele>
        <time>2019-09-22T08:37:37.000Z</time>
      </trkpt>
      <trkpt lat="49.24169" lon="5.33164">
        <ele>184.835</ele>
        <time>2019-09-22T08:37:40.000Z</time>
      </trkpt>
      <trkpt lat="49.24161" lon="5.3315">
        <ele>185.039</ele>
        <time>2019-09-22T08:37:43.000Z</time>
      </trkpt>
      <trkpt lat="49.24152" lon="5.33138">
        <ele>185.127</ele>
        <time>2019-09-22T08:37:46.000Z</time>
      </trkpt>
      <trkpt lat="49.24144" lon="5.33125">
        <ele>185.143</ele>
        <time>2019-09-22T08:37:49.000Z</time>
      </trkpt>
      <trkpt lat="49.24135" lon="5.33109">
        <ele>185.166</ele>
        <time>2019-09-22T08:37:52.000Z</time>
      </trkpt>
      <trkpt lat="49.24126" lon="5.33093">
        <ele>185.008</ele>
        <time>2019-09-22T08:37:55.000Z</time>
      </trkpt>
      <trkpt lat="49.24117" lon="5.33078">
        <ele>184.728</ele>
        <time>2019-09-22T08:37:58.000Z</time>
      </trkpt>
      <trkpt lat="49.24108" lon="5.33061">
        <ele>184.571</ele>
        <time>2019-09-22T08:38:01.000Z</time>
      </trkpt>
      <trkpt lat="49.24098" lon="5.33044">
        <ele>184.595</ele>
        <time>2019-09-22T08:38:04.000Z</time>
      </trkpt>
      <trkpt lat="49.24089" lon="5.3303">
        <ele>184.924</ele>
        <time>2019-09-22T08:38:07.000Z</time>
      </trkpt>
      <trkpt lat="49.24081" lon="5.33014">
        <ele>185.066</ele>
        <time>2019-09-22T08:38:10.000Z</time>
      </trkpt>
      <trkpt lat="49.24072" lon="5.32998">
        <ele>184.939</ele>
        <time>2019-09-22T08:38:13.000Z</time>
      </trkpt>
      <trkpt lat="49.24063" lon="5.32982">
        <ele>184.949</ele>
        <time>2019-09-22T08:38:16.000Z</time>
      </trkpt>
      <trkpt lat="49.24055" lon="5.32969">
        <ele>184.869</ele>
        <time>2019-09-22T08:38:19.000Z</time>
      </trkpt>
      <trkpt lat="49.24047" lon="5.32957">
        <ele>185.292</ele>
        <time>2019-09-22T08:38:22.000Z</time>
      </trkpt>
      <trkpt lat="49.24039" lon="5.32942">
        <ele>185.555</ele>
        <time>2019-09-22T08:38:25.000Z</time>
      </trkpt>
      <trkpt lat="49.2403" lon="5.32926">
        <ele>185.688</ele>
        <time>2019-09-22T08:38:28.000Z</time>
      </trkpt>
      <trkpt lat="49.24021" lon="5.3291">
        <ele>185.736</ele>
        <time>2019-09-22T08:38:31.000Z</time>
      </trkpt>
      <trkpt lat="49.24011" lon="5.32894">
        <ele>186.053</ele>
        <time>2019-09-22T08:38:34.000Z</time>
      </trkpt>
      <trkpt lat="49.24003" lon="5.32878">
        <ele>186.283</ele>
        <time>2019-09-22T08:38:37.000Z</time>
      </trkpt>
      <trkpt lat="49.23994" lon="5.32864">
        <ele>186.563</ele>
        <time>2019-09-22T08:38:40.000Z</time>
      </trkpt>
      <trkpt lat="49.23986" lon="5.3285">
        <ele>186.548</ele>
        <time>2019-09-22T08:38:43.000Z</time>
      </trkpt>
      <trkpt lat="49.23977" lon="5.32835">
        <ele>186.701</ele>
        <time>2019-09-22T08:38:46.000Z</time>
      </trkpt>
      <trkpt lat="49.23968" lon="5.32821">
        <ele>186.61</ele>
        <time>2019-09-22T08:38:49.000Z</time>
      </trkpt>
      <trkpt lat="49.2396" lon="5.32808">
        <ele>186.305</ele>
        <time>2019-09-22T08:38:52.000Z</time>
      </trkpt>
      <trkpt lat="49.23951" lon="5.32794">
        <ele>186.057</ele>
        <time>2019-09-22T08:38:55.000Z</time>
      </trkpt>
      <trkpt lat="49.23942" lon="5.32778">
        <ele>185.927</ele>
        <time>2019-09-22T08:38:58.000Z</time>
      </trkpt>
      <trkpt lat="49.23934" lon="5.32762">
        <ele>185.997</ele>
        <time>2019-09-22T08:39:01.000Z</time>
      </trkpt>
      <trkpt lat="49.23924" lon="5.32748">
        <ele>186.347</ele>
        <time>2019-09-22T08:39:04.000Z</time>
      </trkpt>
      <trkpt lat="49.23915" lon="5.32732">
        <ele>186.614</ele>
        <time>2019-09-22T08:39:07.000Z</time>
      </trkpt>
      <trkpt lat="49.23907" lon="5.32717">
        <ele>186.524</ele>
        <time>2019-09-22T08:39:10.000Z</time>
      </trkpt>
      <trkpt lat="49.23898" lon="5.32701">
        <ele>186.607</ele>
        <time>2019-09-22T08:39:13.000Z</time>
      </trkpt>
      <trkpt lat="49.2389" lon="5.32686">
        <ele>186.771</ele>
        <time>2019-09-22T08:39:16.000Z</time>
      </trkpt>
      <trkpt lat="49.23881" lon="5.32671">
        <ele>186.557</ele>
        <time>2019-09-22T08:39:19.000Z</time>
      </trkpt>
      <trkpt lat="49.23872" lon="5.32655">
        <ele>186.551</ele>
        <time>2019-09-22T08:39:22.000Z</time>
      </trkpt>
      <trkpt lat="49.23863" lon="5.32641">
        <ele>186.815</ele>
        <time>2019-09-22T08:39:25.000Z</time>
      </trkpt>
      <trkpt lat="49.23854" lon="5.32627">
        <ele>187.254</ele>
        <time>2019-09-22T08:39:28.000Z</time>
      </trkpt>
      <trkpt lat="49.23844" lon="5.32612">
        <ele>187.384</ele>
        <time>2019-09-22T08:39:31.000Z</time>
      </trkpt>
      <trkpt lat="49.23835" lon="5.32598">
        <ele>187.639</ele>
        <time>2019-09-22T08:39:34.000Z</time>
      </trkpt>
      <trkpt lat="49.23827" lon="5.32584">
        <ele>187.819</ele>
        <time>2019-09-22T08:39:37.000Z</time>
      </trkpt>
      <trkpt lat="49.23818" lon="5.32572">
        <ele>187.944</ele>
        <time>2019-09-22T08:39:40.000Z</time>
      </trkpt>
      <trkpt lat="49.2381" lon="5.32561">
        <ele>188.149</ele>
        <time>2019-09-22T08:39:43.000Z</time>
      </trkpt>
      <trkpt lat="49.23802" lon="5.32548">
        <ele>188.057</ele>
        <time>2019-09-22T08:39:46.000Z</time>
      </trkpt>
      <trkpt lat="49.23794" lon="5.32531">
        <ele>187.984</ele>
        <time>2019-09-22T08:39:49.000Z</time>
      </trkpt>
      <trkpt lat="49.23784" lon="5.32514">
        <ele>188.511</ele>
        <time>2019-09-22T08:39:52.000Z</time>
      </trkpt>
      <trkpt lat="49.23775" lon="5.32498">
        <ele>189.48</ele>
        <time>2019-09-22T08:39:55.000Z</time>
      </trkpt>
      <trkpt lat="49.23766" lon="5.32486">
        <ele>190.173</ele>
        <time>2019-09-22T08:39:58.000Z</time>
      </trkpt>
      <trkpt lat="49.23758" lon="5.32471">
        <ele>190.641</ele>
        <time>2019-09-22T08:40:01.000Z</time>
      </trkpt>
      <trkpt lat="49.23748" lon="5.32452">
        <ele>190.763</ele>
        <time>2019-09-22T08:40:04.000Z</time>
      </trkpt>
      <trkpt lat="49.2374" lon="5.32433">
        <ele>190.252</ele>
        <time>2019-09-22T08:40:07.000Z</time>
      </trkpt>
      <trkpt lat="49.23731" lon="5.32416">
        <ele>189.924</ele>
        <time>2019-09-22T08:40:10.000Z</time>
      </trkpt>
      <trkpt lat="49.23723" lon="5.32399">
        <ele>189.502</ele>
        <time>2019-09-22T08:40:13.000Z</time>
      </trkpt>
      <trkpt lat="49.23714" lon="5.32384">
        <ele>189.77</ele>
        <time>2019-09-22T08:40:16.000Z</time>
      </trkpt>
      <trkpt lat="49.23706" lon="5.32368">
        <ele>189.563</ele>
        <time>2019-09-22T08:40:19.000Z</time>
      </trkpt>
      <trkpt lat="49.23697" lon="5.32353">
        <ele>189.067</ele>
        <time>2019-09-22T08:40:22.000Z</time>
      </trkpt>
      <trkpt lat="49.23689" lon="5.32339">
        <ele>188.306</ele>
        <time>2019-09-22T08:40:25.000Z</time>
      </trkpt>
      <trkpt lat="49.23681" lon="5.32325">
        <ele>187.562</ele>
        <time>2019-09-22T08:40:28.000Z</time>
      </trkpt>
      <trkpt lat="49.23673" lon="5.3231">
        <ele>187.25</ele>
        <time>2019-09-22T08:40:31.000Z</time>
      </trkpt>
      <trkpt lat="49.23664" lon="5.32294">
        <ele>186.891</ele>
        <time>2019-09-22T08:40:34.000Z</time>
      </trkpt>
      <trkpt lat="49.23656" lon="5.32278">
        <ele>187.152</ele>
        <time>2019-09-22T08:40:37.000Z</time>
      </trkpt>
      <trkpt lat="49.23646" lon="5.32263">
        <ele>187.027</ele>
        <time>2019-09-22T08:40:40.000Z</time>
      </trkpt>
      <trkpt lat="49.23638" lon="5.32248">
        <ele>187.072</ele>
        <time>2019-09-22T08:40:43.000Z</time>
      </trkpt>
      <trkpt lat="49.23629" lon="5.32233">
        <ele>186.815</ele>
        <time>2019-09-22T08:40:46.000Z</time>
      </trkpt>
      <trkpt lat="49.2362" lon="5.32218">
        <ele>186.375</ele>
        <time>2019-09-22T08:40:49.000Z</time>
      </trkpt>
      <trkpt lat="49.23612" lon="5.32203">
        <ele>186.212</ele>
        <time>2019-09-22T08:40:52.000Z</time>
      </trkpt>
      <trkpt lat="49.23603" lon="5.32187">
        <ele>186.543</ele>
        <time>2019-09-22T08:40:55.000Z</time>
      </trkpt>
      <trkpt lat="49.23593" lon="5.32172">
        <ele>186.787</ele>
        <time>2019-09-22T08:40:58.000Z</time>
      </trkpt>
      <trkpt lat="49.23584" lon="5.32157">
        <ele>186.926</ele>
        <time>2019-09-22T08:41:01.000Z</time>
      </trkpt>
      <trkpt lat="49.23575" lon="5.32143">
        <ele>187.058</ele>
        <time>2019-09-22T08:41:04.000Z</time>
      </trkpt>
      <trkpt lat="49.23566" lon="5.32127">
        <ele>187.184</ele>
        <time>2019-09-22T08:41:07.000Z</time>
      </trkpt>
      <trkpt lat="49.23558" lon="5.32111">
        <ele>186.885</ele>
        <time>2019-09-22T08:41:10.000Z</time>
      </trkpt>
      <trkpt lat="49.23549" lon="5.32095">
        <ele>186.79</ele>
        <time>2019-09-22T08:41:13.000Z</time>
      </trkpt>
      <trkpt lat="49.2354" lon="5.32079">
        <ele>187.136</ele>
        <time>2019-09-22T08:41:16.000Z</time>
      </trkpt>
      <trkpt lat="49.23532" lon="5.32062">
        <ele>187.148</ele>
        <time>2019-09-22T08:41:19.000Z</time>
      </trkpt>
      <trkpt lat="49.23524" lon="5.32044">
        <ele>187.136</ele>
        <time>2019-09-22T08:41:22.000Z</time>
      </trkpt>
      <trkpt lat="49.23517" lon="5.32025">
        <ele>186.75</ele>
        <time>2019-09-22T08:41:25.000Z</time>
      </trkpt>
      <trkpt lat="49.23511" lon="5.32007">
        <ele>185.793</ele>
        <time>2019-09-22T08:41:28.000Z</time>
      </trkpt>
      <trkpt lat="49.23504" lon="5.31988">
        <ele>185.094</ele>
        <time>2019-09-22T08:41:31.000Z</time>
      </trkpt>
      <trkpt lat="49.23499" lon="5.31967">
        <ele>184.657</ele>
        <time>2019-09-22T08:41:34.000Z</time>
      </trkpt>
      <trkpt lat="49.23494" lon="5.31947">
        <ele>184.119</ele>
        <time>2019-09-22T08:41:37.000Z</time>
      </trkpt>
      <trkpt lat="49.23489" lon="5.31925">
        <ele>184.173</ele>
        <time>2019-09-22T08:41:40.000Z</time>
      </trkpt>
      <trkpt lat="49.23485" lon="5.31904">
        <ele>184.255</ele>
        <time>2019-09-22T08:41:43.000Z</time>
      </trkpt>
      <trkpt lat="49.23482" lon="5.31884">
        <ele>184.373</ele>
        <time>2019-09-22T08:41:46.000Z</time>
      </trkpt>
      <trkpt lat="49.23479" lon="5.31864">
        <ele>184.487</ele>
        <time>2019-09-22T08:41:49.000Z</time>
      </trkpt>
      <trkpt lat="49.23477" lon="5.31844">
        <ele>184.681</ele>
        <time>2019-09-22T08:41:52.000Z</time>
      </trkpt>
      <trkpt lat="49.23476" lon="5.31823">
        <ele>184.875</ele>
        <time>2019-09-22T08:41:55.000Z</time>
      </trkpt>
      <trkpt lat="49.23474" lon="5.31801">
        <ele>184.879</ele>
        <time>2019-09-22T08:41:58.000Z</time>
      </trkpt>
      <trkpt lat="49.23474" lon="5.3178">
        <ele>184.942</ele>
        <time>2019-09-22T08:42:01.000Z</time>
      </trkpt>
      <trkpt lat="49.23473" lon="5.3176">
        <ele>184.978</ele>
        <time>2019-09-22T08:42:04.000Z</time>
      </trkpt>
      <trkpt lat="49.23471" lon="5.31739">
        <ele>185.181</ele>
        <time>2019-09-22T08:42:07.000Z</time>
      </trkpt>
      <trkpt lat="49.2347" lon="5.31718">
        <ele>185.365</ele>
        <time>2019-09-22T08:42:10.000Z</time>
      </trkpt>
      <trkpt lat="49.23468" lon="5.31696">
        <ele>185.635</ele>
        <time>2019-09-22T08:42:13.000Z</time>
      </trkpt>
      <trkpt lat="49.23467" lon="5.31675">
        <ele>185.852</ele>
        <time>2019-09-22T08:42:16.000Z</time>
      </trkpt>
      <trkpt lat="49.23465" lon="5.31656">
        <ele>185.901</ele>
        <time>2019-09-22T08:42:19.000Z</time>
      </trkpt>
      <trkpt lat="49.23464" lon="5.31635">
        <ele>186.13</ele>
        <time>2019-09-22T08:42:22.000Z</time>
      </trkpt>
      <trkpt lat="49.23463" lon="5.31614">
        <ele>185.949</ele>
        <time>2019-09-22T08:42:25.000Z</time>
      </trkpt>
      <trkpt lat="49.23462" lon="5.3159">
        <ele>185.953</ele>
        <time>2019-09-22T08:42:28.000Z</time>
      </trkpt>
      <trkpt lat="49.23461" lon="5.31567">
        <ele>186.103</ele>
        <time>2019-09-22T08:42:31.000Z</time>
      </trkpt>
      <trkpt lat="49.23459" lon="5.31545">
        <ele>186.702</ele>
        <time>2019-09-22T08:42:34.000Z</time>
      </trkpt>
      <trkpt lat="49.23458" lon="5.31524">
        <ele>187.19</ele>
        <time>2019-09-22T08:42:37.000Z</time>
      </trkpt>
      <trkpt lat="49.23457" lon="5.31503">
        <ele>187.334</ele>
        <time>2019-09-22T08:42:40.000Z</time>
      </trkpt>
      <trkpt lat="49.23455" lon="5.31482">
        <ele>187.318</ele>
        <time>2019-09-22T08:42:43.000Z</time>
      </trkpt>
      <trkpt lat="49.23454" lon="5.31464">
        <ele>186.934</ele>
        <time>2019-09-22T08:42:46.000Z</time>
      </trkpt>
      <trkpt lat="49.23453" lon="5.31444">
        <ele>187.003</ele>
        <time>2019-09-22T08:42:49.000Z</time>
      </trkpt>
      <trkpt lat="49.23452" lon="5.31424">
        <ele>186.867</ele>
        <time>2019-09-22T08:42:52.000Z</time>
      </trkpt>
      <trkpt lat="49.23451" lon="5.31404">
        <ele>186.913</ele>
        <time>2019-09-22T08:42:55.000Z</time>
      </trkpt>
      <trkpt lat="49.23449" lon="5.31384">
        <ele>187.019</ele>
        <time>2019-09-22T08:42:58.000Z</time>
      </trkpt>
      <trkpt lat="49.23448" lon="5.31364">
        <ele>187.357</ele>
        <time>2019-09-22T08:43:01.000Z</time>
      </trkpt>
      <trkpt lat="49.23447" lon="5.31344">
        <ele>187.497</ele>
        <time>2019-09-22T08:43:04.000Z</time>
      </trkpt>
      <trkpt lat="49.23447" lon="5.31326">
        <ele>187.652</ele>
        <time>2019-09-22T08:43:07.000Z</time>
      </trkpt>
      <trkpt lat="49.23445" lon="5.31308">
        <ele>187.283</ele>
        <time>2019-09-22T08:43:10.000Z</time>
      </trkpt>
      <trkpt lat="49.23444" lon="5.31287">
        <ele>186.571</ele>
        <time>2019-09-22T08:43:13.000Z</time>
      </trkpt>
      <trkpt lat="49.23441" lon="5.31267">
        <ele>185.729</ele>
        <time>2019-09-22T08:43:16.000Z</time>
      </trkpt>
      <trkpt lat="49.2344" lon="5.31245">
        <ele>185.723</ele>
        <time>2019-09-22T08:43:19.000Z</time>
      </trkpt>
      <trkpt lat="49.23439" lon="5.31222">
        <ele>185.993</ele>
        <time>2019-09-22T08:43:22.000Z</time>
      </trkpt>
      <trkpt lat="49.23436" lon="5.312">
        <ele>186.151</ele>
        <time>2019-09-22T08:43:25.000Z</time>
      </trkpt>
      <trkpt lat="49.23433" lon="5.31179">
        <ele>186.218</ele>
        <time>2019-09-22T08:43:28.000Z</time>
      </trkpt>
      <trkpt lat="49.2343" lon="5.31158">
        <ele>186.23</ele>
        <time>2019-09-22T08:43:31.000Z</time>
      </trkpt>
      <trkpt lat="49.23426" lon="5.31138">
        <ele>186.045</ele>
        <time>2019-09-22T08:43:34.000Z</time>
      </trkpt>
      <trkpt lat="49.23423" lon="5.31118">
        <ele>186.014</ele>
        <time>2019-09-22T08:43:37.000Z</time>
      </trkpt>
      <trkpt lat="49.23418" lon="5.31099">
        <ele>186.101</ele>
        <time>2019-09-22T08:43:40.000Z</time>
      </trkpt>
      <trkpt lat="49.23412" lon="5.3108">
        <ele>186.1</ele>
        <time>2019-09-22T08:43:43.000Z</time>
      </trkpt>
      <trkpt lat="49.23407" lon="5.31061">
        <ele>186.501</ele>
        <time>2019-09-22T08:43:46.000Z</time>
      </trkpt>
      <trkpt lat="49.23402" lon="5.31042">
        <ele>186.94</ele>
        <time>2019-09-22T08:43:49.000Z</time>
      </trkpt>
      <trkpt lat="49.23397" lon="5.31023">
        <ele>187.206</ele>
        <time>2019-09-22T08:43:52.000Z</time>
      </trkpt>
      <trkpt lat="49.23392" lon="5.31004">
        <ele>187.528</ele>
        <time>2019-09-22T08:43:55.000Z</time>
      </trkpt>
      <trkpt lat="49.23386" lon="5.30986">
        <ele>187.992</ele>
        <time>2019-09-22T08:43:58.000Z</time>
      </trkpt>
      <trkpt lat="49.23381" lon="5.30968">
        <ele>188.129</ele>
        <time>2019-09-22T08:44:01.000Z</time>
      </trkpt>
      <trkpt lat="49.23376" lon="5.30949">
        <ele>188.523</ele>
        <time>2019-09-22T08:44:04.000Z</time>
      </trkpt>
      <trkpt lat="49.23371" lon="5.30932">
        <ele>188.046</ele>
        <time>2019-09-22T08:44:07.000Z</time>
      </trkpt>
      <trkpt lat="49.23366" lon="5.30914">
        <ele>187.45</ele>
        <time>2019-09-22T08:44:10.000Z</time>
      </trkpt>
      <trkpt lat="49.23361" lon="5.30895">
        <ele>187.256</ele>
        <time>2019-09-22T08:44:13.000Z</time>
      </trkpt>
      <trkpt lat="49.23355" lon="5.30877">
        <ele>187.404</ele>
        <time>2019-09-22T08:44:16.000Z</time>
      </trkpt>
      <trkpt lat="49.2335" lon="5.30858">
        <ele>187.033</ele>
        <time>2019-09-22T08:44:19.000Z</time>
      </trkpt>
      <trkpt lat="49.23345" lon="5.30839">
        <ele>186.685</ele>
        <time>2019-09-22T08:44:22.000Z</time>
      </trkpt>
      <trkpt lat="49.2334" lon="5.30822">
        <ele>187.277</ele>
        <time>2019-09-22T08:44:25.000Z</time>
      </trkpt>
      <trkpt lat="49.23335" lon="5.30804">
        <ele>187.631</ele>
        <time>2019-09-22T08:44:28.000Z</time>
      </trkpt>
      <trkpt lat="49.23331" lon="5.30786">
        <ele>187.882</ele>
        <time>2019-09-22T08:44:31.000Z</time>
      </trkpt>
      <trkpt lat="49.23325" lon="5.30767">
        <ele>188.069</ele>
        <time>2019-09-22T08:44:34.000Z</time>
      </trkpt>
      <trkpt lat="49.2332" lon="5.3075">
        <ele>188.004</ele>
        <time>2019-09-22T08:44:37.000Z</time>
      </trkpt>
      <trkpt lat="49.23313" lon="5.30729">
        <ele>187.509</ele>
        <time>2019-09-22T08:44:40.000Z</time>
      </trkpt>
      <trkpt lat="49.23308" lon="5.30707">
        <ele>187.704</ele>
        <time>2019-09-22T08:44:43.000Z</time>
      </trkpt>
      <trkpt lat="49.23302" lon="5.30686">
        <ele>188.133</ele>
        <time>2019-09-22T08:44:46.000Z</time>
      </trkpt>
      <trkpt lat="49.23295" lon="5.30665">
        <ele>188.162</ele>
        <time>2019-09-22T08:44:49.000Z</time>
      </trkpt>
      <trkpt lat="49.2329" lon="5.30645">
        <ele>187.956</ele>
        <time>2019-09-22T08:44:52.000Z</time>
      </trkpt>
      <trkpt lat="49.23285" lon="5.30625">
        <ele>188.025</ele>
        <time>2019-09-22T08:44:55.000Z</time>
      </trkpt>
      <trkpt lat="49.2328" lon="5.30606">
        <ele>188.111</ele>
        <time>2019-09-22T08:44:58.000Z</time>
      </trkpt>
      <trkpt lat="49.23275" lon="5.30586">
        <ele>188.189</ele>
        <time>2019-09-22T08:45:01.000Z</time>
      </trkpt>
      <trkpt lat="49.23269" lon="5.30566">
        <ele>187.928</ele>
        <time>2019-09-22T08:45:04.000Z</time>
      </trkpt>
      <trkpt lat="49.23264" lon="5.30548">
        <ele>187.957</ele>
        <time>2019-09-22T08:45:07.000Z</time>
      </trkpt>
      <trkpt lat="49.23259" lon="5.3053">
        <ele>187.904</ele>
        <time>2019-09-22T08:45:10.000Z</time>
      </trkpt>
      <trkpt lat="49.23254" lon="5.30512">
        <ele>187.892</ele>
        <time>2019-09-22T08:45:13.000Z</time>
      </trkpt>
      <trkpt lat="49.23249" lon="5.30493">
        <ele>187.862</ele>
        <time>2019-09-22T08:45:16.000Z</time>
      </trkpt>
      <trkpt lat="49.23244" lon="5.30475">
        <ele>188.043</ele>
        <time>2019-09-22T08:45:19.000Z</time>
      </trkpt>
      <trkpt lat="49.23239" lon="5.30456">
        <ele>187.739</ele>
        <time>2019-09-22T08:45:22.000Z</time>
      </trkpt>
      <trkpt lat="49.23234" lon="5.30437">
        <ele>186.701</ele>
        <time>2019-09-22T08:45:25.000Z</time>
      </trkpt>
      <trkpt lat="49.23228" lon="5.30419">
        <ele>186.267</ele>
        <time>2019-09-22T08:45:28.000Z</time>
      </trkpt>
      <trkpt lat="49.23222" lon="5.30401">
        <ele>186.292</ele>
        <time>2019-09-22T08:45:31.000Z</time>
      </trkpt>
      <trkpt lat="49.23219" lon="5.30383">
        <ele>186.878</ele>
        <time>2019-09-22T08:45:34.000Z</time>
      </trkpt>
      <trkpt lat="49.23215" lon="5.30367">
        <ele>187.129</ele>
        <time>2019-09-22T08:45:37.000Z</time>
      </trkpt>
      <trkpt lat="49.2321" lon="5.30352">
        <ele>187.283</ele>
        <time>2019-09-22T08:45:40.000Z</time>
      </trkpt>
      <trkpt lat="49.23205" lon="5.30338">
        <ele>186.786</ele>
        <time>2019-09-22T08:45:43.000Z</time>
      </trkpt>
      <trkpt lat="49.23201" lon="5.30324">
        <ele>186.952</ele>
        <time>2019-09-22T08:45:46.000Z</time>
      </trkpt>
      <trkpt lat="49.232" lon="5.3031">
        <ele>187.444</ele>
        <time>2019-09-22T08:45:49.000Z</time>
      </trkpt>
      <trkpt lat="49.23202" lon="5.30298">
        <ele>187.515</ele>
        <time>2019-09-22T08:45:52.000Z</time>
      </trkpt>
      <trkpt lat="49.23197" lon="5.30293">
        <ele>187.794</ele>
        <time>2019-09-22T08:45:55.000Z</time>
      </trkpt>
      <trkpt lat="49.2319" lon="5.30294">
        <ele>187.583</ele>
        <time>2019-09-22T08:45:58.000Z</time>
      </trkpt>
      <trkpt lat="49.23184" lon="5.30289">
        <ele>188.084</ele>
        <time>2019-09-22T08:46:01.000Z</time>
      </trkpt>
      <trkpt lat="49.2318" lon="5.30279">
        <ele>188.068</ele>
        <time>2019-09-22T08:46:04.000Z</time>
      </trkpt>
      <trkpt lat="49.23175" lon="5.30265">
        <ele>188.277</ele>
        <time>2019-09-22T08:46:07.000Z</time>
      </trkpt>
      <trkpt lat="49.23171" lon="5.30249">
        <ele>188.086</ele>
        <time>2019-09-22T08:46:10.000Z</time>
      </trkpt>
      <trkpt lat="49.23168" lon="5.30233">
        <ele>188.673</ele>
        <time>2019-09-22T08:46:13.000Z</time>
      </trkpt>
      <trkpt lat="49.23165" lon="5.30217">
        <ele>190.077</ele>
        <time>2019-09-22T08:46:16.000Z</time>
      </trkpt>
      <trkpt lat="49.23161" lon="5.30202">
        <ele>191.292</ele>
        <time>2019-09-22T08:46:19.000Z</time>
      </trkpt>
      <trkpt lat="49.23158" lon="5.30185">
        <ele>192.272</ele>
        <time>2019-09-22T08:46:22.000Z</time>
      </trkpt>
      <trkpt lat="49.23154" lon="5.3017">
        <ele>192.592</ele>
        <time>2019-09-22T08:46:25.000Z</time>
      </trkpt>
      <trkpt lat="49.23149" lon="5.30156">
        <ele>193.151</ele>
        <time>2019-09-22T08:46:28.000Z</time>
      </trkpt>
      <trkpt lat="49.23145" lon="5.30141">
        <ele>193.353</ele>
        <time>2019-09-22T08:46:31.000Z</time>
      </trkpt>
      <trkpt lat="49.23141" lon="5.30126">
        <ele>193.548</ele>
        <time>2019-09-22T08:46:34.000Z</time>
      </trkpt>
      <trkpt lat="49.23138" lon="5.30109">
        <ele>193.968</ele>
        <time>2019-09-22T08:46:37.000Z</time>
      </trkpt>
      <trkpt lat="49.23133" lon="5.30092">
        <ele>194.164</ele>
        <time>2019-09-22T08:46:40.000Z</time>
      </trkpt>
      <trkpt lat="49.23129" lon="5.30075">
        <ele>194.054</ele>
        <time>2019-09-22T08:46:43.000Z</time>
      </trkpt>
      <trkpt lat="49.23124" lon="5.30058">
        <ele>194.255</ele>
        <time>2019-09-22T08:46:46.000Z</time>
      </trkpt>
      <trkpt lat="49.23119" lon="5.30042">
        <ele>194.514</ele>
        <time>2019-09-22T08:46:49.000Z</time>
      </trkpt>
      <trkpt lat="49.23114" lon="5.30027">
        <ele>194.454</ele>
        <time>2019-09-22T08:46:52.000Z</time>
      </trkpt>
      <trkpt lat="49.23108" lon="5.30009">
        <ele>194.172</ele>
        <time>2019-09-22T08:46:55.000Z</time>
      </trkpt>
      <trkpt lat="49.23102" lon="5.29989">
        <ele>193.831</ele>
        <time>2019-09-22T08:46:58.000Z</time>
      </trkpt>
      <trkpt lat="49.23096" lon="5.29969">
        <ele>193.242</ele>
        <time>2019-09-22T08:47:01.000Z</time>
      </trkpt>
      <trkpt lat="49.23088" lon="5.2995">
        <ele>192.324</ele>
        <time>2019-09-22T08:47:04.000Z</time>
      </trkpt>
      <trkpt lat="49.2308" lon="5.29933">
        <ele>191.585</ele>
        <time>2019-09-22T08:47:07.000Z</time>
      </trkpt>
      <trkpt lat="49.23071" lon="5.29916">
        <ele>190.896</ele>
        <time>2019-09-22T08:47:10.000Z</time>
      </trkpt>
      <trkpt lat="49.23061" lon="5.29899">
        <ele>190.015</ele>
        <time>2019-09-22T08:47:13.000Z</time>
      </trkpt>
      <trkpt lat="49.23051" lon="5.29884">
        <ele>189.863</ele>
        <time>2019-09-22T08:47:16.000Z</time>
      </trkpt>
      <trkpt lat="49.23041" lon="5.2987">
        <ele>189.658</ele>
        <time>2019-09-22T08:47:19.000Z</time>
      </trkpt>
      <trkpt lat="49.2303" lon="5.29856">
        <ele>189.988</ele>
        <time>2019-09-22T08:47:22.000Z</time>
      </trkpt>
      <trkpt lat="49.23019" lon="5.29843">
        <ele>190.252</ele>
        <time>2019-09-22T08:47:25.000Z</time>
      </trkpt>
      <trkpt lat="49.23006" lon="5.29832">
        <ele>190.536</ele>
        <time>2019-09-22T08:47:28.000Z</time>
      </trkpt>
      <trkpt lat="49.22994" lon="5.29823">
        <ele>190.599</ele>
        <time>2019-09-22T08:47:31.000Z</time>
      </trkpt>
      <trkpt lat="49.22982" lon="5.29813">
        <ele>190.734</ele>
        <time>2019-09-22T08:47:34.000Z</time>
      </trkpt>
      <trkpt lat="49.22969" lon="5.29804">
        <ele>191.05</ele>
        <time>2019-09-22T08:47:37.000Z</time>
      </trkpt>
      <trkpt lat="49.22955" lon="5.29795">
        <ele>191.632</ele>
        <time>2019-09-22T08:47:40.000Z</time>
      </trkpt>
      <trkpt lat="49.2294" lon="5.29788">
        <ele>191.855</ele>
        <time>2019-09-22T08:47:43.000Z</time>
      </trkpt>
      <trkpt lat="49.22926" lon="5.29782">
        <ele>191.568</ele>
        <time>2019-09-22T08:47:46.000Z</time>
      </trkpt>
      <trkpt lat="49.22911" lon="5.29776">
        <ele>191.175</ele>
        <time>2019-09-22T08:47:49.000Z</time>
      </trkpt>
      <trkpt lat="49.22897" lon="5.29771">
        <ele>190.53</ele>
        <time>2019-09-22T08:47:52.000Z</time>
      </trkpt>
      <trkpt lat="49.22882" lon="5.29766">
        <ele>190.143</ele>
        <time>2019-09-22T08:47:55.000Z</time>
      </trkpt>
      <trkpt lat="49.22867" lon="5.29761">
        <ele>190.145</ele>
        <time>2019-09-22T08:47:58.000Z</time>
      </trkpt>
      <trkpt lat="49.22852" lon="5.29756">
        <ele>189.89</ele>
        <time>2019-09-22T08:48:01.000Z</time>
      </trkpt>
      <trkpt lat="49.22838" lon="5.29751">
        <ele>189.838</ele>
        <time>2019-09-22T08:48:04.000Z</time>
      </trkpt>
      <trkpt lat="49.22823" lon="5.29746">
        <ele>189.992</ele>
        <time>2019-09-22T08:48:07.000Z</time>
      </trkpt>
      <trkpt lat="49.22809" lon="5.29742">
        <ele>189.966</ele>
        <time>2019-09-22T08:48:10.000Z</time>
      </trkpt>
      <trkpt lat="49.22795" lon="5.29738">
        <ele>189.678</ele>
        <time>2019-09-22T08:48:13.000Z</time>
      </trkpt>
      <trkpt lat="49.2278" lon="5.29733">
        <ele>189.038</ele>
        <time>2019-09-22T08:48:16.000Z</time>
      </trkpt>
      <trkpt lat="49.22766" lon="5.2973">
        <ele>189.036</ele>
        <time>2019-09-22T08:48:19.000Z</time>
      </trkpt>
      <trkpt lat="49.22751" lon="5.29728">
        <ele>189.057</ele>
        <time>2019-09-22T08:48:22.000Z</time>
      </trkpt>
      <trkpt lat="49.22736" lon="5.29726">
        <ele>189.173</ele>
        <time>2019-09-22T08:48:25.000Z</time>
      </trkpt>
      <trkpt lat="49.22722" lon="5.29725">
        <ele>189.21</ele>
        <time>2019-09-22T08:48:28.000Z</time>
      </trkpt>
      <trkpt lat="49.22708" lon="5.29725">
        <ele>189.212</ele>
        <time>2019-09-22T08:48:31.000Z</time>
      </trkpt>
      <trkpt lat="49.22693" lon="5.29724">
        <ele>189.677</ele>
        <time>2019-09-22T08:48:34.000Z</time>
      </trkpt>
      <trkpt lat="49.22679" lon="5.29724">
        <ele>189.85</ele>
        <time>2019-09-22T08:48:37.000Z</time>
      </trkpt>
      <trkpt lat="49.22665" lon="5.29725">
        <ele>190.033</ele>
        <time>2019-09-22T08:48:40.000Z</time>
      </trkpt>
      <trkpt lat="49.2265" lon="5.29726">
        <ele>190.516</ele>
        <time>2019-09-22T08:48:43.000Z</time>
      </trkpt>
      <trkpt lat="49.22636" lon="5.29727">
        <ele>190.779</ele>
        <time>2019-09-22T08:48:46.000Z</time>
      </trkpt>
      <trkpt lat="49.2262" lon="5.29728">
        <ele>190.708</ele>
        <time>2019-09-22T08:48:49.000Z</time>
      </trkpt>
      <trkpt lat="49.22606" lon="5.29728">
        <ele>191.003</ele>
        <time>2019-09-22T08:48:52.000Z</time>
      </trkpt>
      <trkpt lat="49.22591" lon="5.29729">
        <ele>191.298</ele>
        <time>2019-09-22T08:48:55.000Z</time>
      </trkpt>
      <trkpt lat="49.22576" lon="5.29729">
        <ele>191.449</ele>
        <time>2019-09-22T08:48:58.000Z</time>
      </trkpt>
      <trkpt lat="49.22562" lon="5.29733">
        <ele>191.559</ele>
        <time>2019-09-22T08:49:01.000Z</time>
      </trkpt>
      <trkpt lat="49.22549" lon="5.29736">
        <ele>191.986</ele>
        <time>2019-09-22T08:49:04.000Z</time>
      </trkpt>
      <trkpt lat="49.22536" lon="5.29741">
        <ele>192.608</ele>
        <time>2019-09-22T08:49:07.000Z</time>
      </trkpt>
      <trkpt lat="49.22523" lon="5.29748">
        <ele>192.802</ele>
        <time>2019-09-22T08:49:10.000Z</time>
      </trkpt>
      <trkpt lat="49.22509" lon="5.29757">
        <ele>192.655</ele>
        <time>2019-09-22T08:49:13.000Z</time>
      </trkpt>
      <trkpt lat="49.22493" lon="5.29767">
        <ele>192.498</ele>
        <time>2019-09-22T08:49:16.000Z</time>
      </trkpt>
      <trkpt lat="49.22479" lon="5.29777">
        <ele>192.525</ele>
        <time>2019-09-22T08:49:19.000Z</time>
      </trkpt>
      <trkpt lat="49.22466" lon="5.29785">
        <ele>191.91</ele>
        <time>2019-09-22T08:49:22.000Z</time>
      </trkpt>
      <trkpt lat="49.22454" lon="5.29793">
        <ele>191.788</ele>
        <time>2019-09-22T08:49:25.000Z</time>
      </trkpt>
      <trkpt lat="49.22442" lon="5.29803">
        <ele>191.638</ele>
        <time>2019-09-22T08:49:28.000Z</time>
      </trkpt>
      <trkpt lat="49.22428" lon="5.29812">
        <ele>191.818</ele>
        <time>2019-09-22T08:49:31.000Z</time>
      </trkpt>
      <trkpt lat="49.22416" lon="5.29823">
        <ele>192.2</ele>
        <time>2019-09-22T08:49:34.000Z</time>
      </trkpt>
      <trkpt lat="49.22403" lon="5.29834">
        <ele>192.227</ele>
        <time>2019-09-22T08:49:37.000Z</time>
      </trkpt>
      <trkpt lat="49.2239" lon="5.29847">
        <ele>191.935</ele>
        <time>2019-09-22T08:49:40.000Z</time>
      </trkpt>
      <trkpt lat="49.22377" lon="5.29861">
        <ele>192.172</ele>
        <time>2019-09-22T08:49:43.000Z</time>
      </trkpt>
      <trkpt lat="49.22366" lon="5.29874">
        <ele>191.638</ele>
        <time>2019-09-22T08:49:46.000Z</time>
      </trkpt>
      <trkpt lat="49.22356" lon="5.29888">
        <ele>190.94</ele>
        <time>2019-09-22T08:49:49.000Z</time>
      </trkpt>
      <trkpt lat="49.22346" lon="5.29902">
        <ele>190.737</ele>
        <time>2019-09-22T08:49:52.000Z</time>
      </trkpt>
      <trkpt lat="49.22337" lon="5.29917">
        <ele>190.306</ele>
        <time>2019-09-22T08:49:55.000Z</time>
      </trkpt>
      <trkpt lat="49.22328" lon="5.29931">
        <ele>190.293</ele>
        <time>2019-09-22T08:49:58.000Z</time>
      </trkpt>
      <trkpt lat="49.22319" lon="5.29946">
        <ele>190.192</ele>
        <time>2019-09-22T08:50:01.000Z</time>
      </trkpt>
      <trkpt lat="49.22311" lon="5.29962">
        <ele>189.871</ele>
        <time>2019-09-22T08:50:04.000Z</time>
      </trkpt>
      <trkpt lat="49.22303" lon="5.29978">
        <ele>190.04</ele>
        <time>2019-09-22T08:50:07.000Z</time>
      </trkpt>
      <trkpt lat="49.22296" lon="5.29995">
        <ele>190.626</ele>
        <time>2019-09-22T08:50:10.000Z</time>
      </trkpt>
      <trkpt lat="49.22289" lon="5.30012">
        <ele>190.902</ele>
        <time>2019-09-22T08:50:13.000Z</time>
      </trkpt>
      <trkpt lat="49.22282" lon="5.30028">
        <ele>191.368</ele>
        <time>2019-09-22T08:50:16.000Z</time>
      </trkpt>
      <trkpt lat="49.22276" lon="5.30045">
        <ele>192.039</ele>
        <time>2019-09-22T08:50:19.000Z</time>
      </trkpt>
      <trkpt lat="49.22271" lon="5.30062">
        <ele>192.465</ele>
        <time>2019-09-22T08:50:22.000Z</time>
      </trkpt>
      <trkpt lat="49.22266" lon="5.30079">
        <ele>192.778</ele>
        <time>2019-09-22T08:50:25.000Z</time>
      </trkpt>
      <trkpt lat="49.22261" lon="5.30097">
        <ele>192.609</ele>
        <time>2019-09-22T08:50:28.000Z</time>
      </trkpt>
      <trkpt lat="49.22255" lon="5.30115">
        <ele>192.6</ele>
        <time>2019-09-22T08:50:31.000Z</time>
      </trkpt>
      <trkpt lat="49.22252" lon="5.30134">
        <ele>192.475</ele>
        <time>2019-09-22T08:50:34.000Z</time>
      </trkpt>
      <trkpt lat="49.22249" lon="5.30156">
        <ele>192.666</ele>
        <time>2019-09-22T08:50:37.000Z</time>
      </trkpt>
      <trkpt lat="49.22246" lon="5.30177">
        <ele>193.115</ele>
        <time>2019-09-22T08:50:40.000Z</time>
      </trkpt>
      <trkpt lat="49.22242" lon="5.30198">
        <ele>192.989</ele>
        <time>2019-09-22T08:50:43.000Z</time>
      </trkpt>
      <trkpt lat="49.22239" lon="5.30218">
        <ele>193.144</ele>
        <time>2019-09-22T08:50:46.000Z</time>
      </trkpt>
      <trkpt lat="49.22236" lon="5.30239">
        <ele>193.946</ele>
        <time>2019-09-22T08:50:49.000Z</time>
      </trkpt>
      <trkpt lat="49.22232" lon="5.30261">
        <ele>194.203</ele>
        <time>2019-09-22T08:50:52.000Z</time>
      </trkpt>
      <trkpt lat="49.22229" lon="5.30283">
        <ele>195.351</ele>
        <time>2019-09-22T08:50:55.000Z</time>
      </trkpt>
      <trkpt lat="49.22224" lon="5.30306">
        <ele>196.043</ele>
        <time>2019-09-22T08:50:58.001Z</time>
      </trkpt>
      <trkpt lat="49.22217" lon="5.30327">
        <ele>197.015</ele>
        <time>2019-09-22T08:51:01.000Z</time>
      </trkpt>
      <trkpt lat="49.22213" lon="5.30347">
        <ele>197.9</ele>
        <time>2019-09-22T08:51:04.000Z</time>
      </trkpt>
      <trkpt lat="49.22208" lon="5.30368">
        <ele>198.074</ele>
        <time>2019-09-22T08:51:07.000Z</time>
      </trkpt>
      <trkpt lat="49.22204" lon="5.30389">
        <ele>197.748</ele>
        <time>2019-09-22T08:51:10.000Z</time>
      </trkpt>
      <trkpt lat="49.22201" lon="5.30409">
        <ele>197.245</ele>
        <time>2019-09-22T08:51:13.000Z</time>
      </trkpt>
      <trkpt lat="49.22198" lon="5.3043">
        <ele>197.081</ele>
        <time>2019-09-22T08:51:16.000Z</time>
      </trkpt>
      <trkpt lat="49.22195" lon="5.3045">
        <ele>197.103</ele>
        <time>2019-09-22T08:51:19.000Z</time>
      </trkpt>
      <trkpt lat="49.22192" lon="5.30471">
        <ele>196.793</ele>
        <time>2019-09-22T08:51:22.000Z</time>
      </trkpt>
      <trkpt lat="49.2219" lon="5.30493">
        <ele>196.397</ele>
        <time>2019-09-22T08:51:25.000Z</time>
      </trkpt>
      <trkpt lat="49.22189" lon="5.30514">
        <ele>195.615</ele>
        <time>2019-09-22T08:51:28.000Z</time>
      </trkpt>
      <trkpt lat="49.22187" lon="5.30534">
        <ele>195.218</ele>
        <time>2019-09-22T08:51:31.000Z</time>
      </trkpt>
      <trkpt lat="49.22185" lon="5.30556">
        <ele>194.788</ele>
        <time>2019-09-22T08:51:34.000Z</time>
      </trkpt>
      <trkpt lat="49.22183" lon="5.30577">
        <ele>194.569</ele>
        <time>2019-09-22T08:51:37.000Z</time>
      </trkpt>
      <trkpt lat="49.22182" lon="5.30597">
        <ele>194.615</ele>
        <time>2019-09-22T08:51:40.000Z</time>
      </trkpt>
      <trkpt lat="49.22181" lon="5.30617">
        <ele>193.713</ele>
        <time>2019-09-22T08:51:43.000Z</time>
      </trkpt>
      <trkpt lat="49.22182" lon="5.30637">
        <ele>192.592</ele>
        <time>2019-09-22T08:51:46.000Z</time>
      </trkpt>
      <trkpt lat="49.22181" lon="5.30659">
        <ele>191.875</ele>
        <time>2019-09-22T08:51:49.000Z</time>
      </trkpt>
      <trkpt lat="49.22181" lon="5.3068">
        <ele>191.342</ele>
        <time>2019-09-22T08:51:52.000Z</time>
      </trkpt>
      <trkpt lat="49.22181" lon="5.307">
        <ele>190.885</ele>
        <time>2019-09-22T08:51:55.000Z</time>
      </trkpt>
      <trkpt lat="49.2218" lon="5.3072">
        <ele>190.344</ele>
        <time>2019-09-22T08:51:58.000Z</time>
      </trkpt>
      <trkpt lat="49.2218" lon="5.30742">
        <ele>189.332</ele>
        <time>2019-09-22T08:52:01.000Z</time>
      </trkpt>
      <trkpt lat="49.2218" lon="5.30764">
        <ele>188.041</ele>
        <time>2019-09-22T08:52:04.000Z</time>
      </trkpt>
      <trkpt lat="49.22181" lon="5.30786">
        <ele>187.623</ele>
        <time>2019-09-22T08:52:07.000Z</time>
      </trkpt>
      <trkpt lat="49.22181" lon="5.30808">
        <ele>187.402</ele>
        <time>2019-09-22T08:52:10.000Z</time>
      </trkpt>
      <trkpt lat="49.22182" lon="5.30828">
        <ele>187.077</ele>
        <time>2019-09-22T08:52:13.000Z</time>
      </trkpt>
      <trkpt lat="49.22182" lon="5.30848">
        <ele>186.787</ele>
        <time>2019-09-22T08:52:16.000Z</time>
      </trkpt>
      <trkpt lat="49.22182" lon="5.30869">
        <ele>187.054</ele>
        <time>2019-09-22T08:52:19.000Z</time>
      </trkpt>
      <trkpt lat="49.22183" lon="5.3089">
        <ele>187.384</ele>
        <time>2019-09-22T08:52:22.000Z</time>
      </trkpt>
      <trkpt lat="49.22184" lon="5.30913">
        <ele>187.602</ele>
        <time>2019-09-22T08:52:25.000Z</time>
      </trkpt>
      <trkpt lat="49.22184" lon="5.30935">
        <ele>187.854</ele>
        <time>2019-09-22T08:52:28.000Z</time>
      </trkpt>
      <trkpt lat="49.22185" lon="5.30956">
        <ele>188.343</ele>
        <time>2019-09-22T08:52:31.000Z</time>
      </trkpt>
      <trkpt lat="49.22187" lon="5.30977">
        <ele>188.728</ele>
        <time>2019-09-22T08:52:34.000Z</time>
      </trkpt>
      <trkpt lat="49.22188" lon="5.30999">
        <ele>189.427</ele>
        <time>2019-09-22T08:52:37.000Z</time>
      </trkpt>
      <trkpt lat="49.2219" lon="5.31022">
        <ele>189.948</ele>
        <time>2019-09-22T08:52:40.000Z</time>
      </trkpt>
      <trkpt lat="49.22192" lon="5.31044">
        <ele>190.118</ele>
        <time>2019-09-22T08:52:43.000Z</time>
      </trkpt>
      <trkpt lat="49.22194" lon="5.31065">
        <ele>190.195</ele>
        <time>2019-09-22T08:52:46.000Z</time>
      </trkpt>
      <trkpt lat="49.22196" lon="5.31087">
        <ele>190.341</ele>
        <time>2019-09-22T08:52:49.000Z</time>
      </trkpt>
      <trkpt lat="49.22199" lon="5.31106">
        <ele>190.624</ele>
        <time>2019-09-22T08:52:52.000Z</time>
      </trkpt>
      <trkpt lat="49.222" lon="5.31124">
        <ele>190.542</ele>
        <time>2019-09-22T08:52:55.000Z</time>
      </trkpt>
      <trkpt lat="49.22202" lon="5.31143">
        <ele>190.823</ele>
        <time>2019-09-22T08:52:58.000Z</time>
      </trkpt>
      <trkpt lat="49.22204" lon="5.31161">
        <ele>191.448</ele>
        <time>2019-09-22T08:53:01.000Z</time>
      </trkpt>
      <trkpt lat="49.22206" lon="5.3118">
        <ele>191.736</ele>
        <time>2019-09-22T08:53:04.000Z</time>
      </trkpt>
      <trkpt lat="49.22208" lon="5.31198">
        <ele>192.592</ele>
        <time>2019-09-22T08:53:07.000Z</time>
      </trkpt>
      <trkpt lat="49.22209" lon="5.31219">
        <ele>192.97</ele>
        <time>2019-09-22T08:53:10.000Z</time>
      </trkpt>
      <trkpt lat="49.22211" lon="5.31241">
        <ele>193.925</ele>
        <time>2019-09-22T08:53:13.000Z</time>
      </trkpt>
      <trkpt lat="49.22212" lon="5.31264">
        <ele>194.887</ele>
        <time>2019-09-22T08:53:16.000Z</time>
      </trkpt>
      <trkpt lat="49.22214" lon="5.31286">
        <ele>195.847</ele>
        <time>2019-09-22T08:53:19.000Z</time>
      </trkpt>
      <trkpt lat="49.22215" lon="5.31308">
        <ele>196.352</ele>
        <time>2019-09-22T08:53:22.000Z</time>
      </trkpt>
      <trkpt lat="49.22217" lon="5.31327">
        <ele>196.518</ele>
        <time>2019-09-22T08:53:25.000Z</time>
      </trkpt>
      <trkpt lat="49.22219" lon="5.31349">
        <ele>196.742</ele>
        <time>2019-09-22T08:53:28.000Z</time>
      </trkpt>
      <trkpt lat="49.22221" lon="5.31373">
        <ele>196.547</ele>
        <time>2019-09-22T08:53:31.000Z</time>
      </trkpt>
      <trkpt lat="49.22224" lon="5.31398">
        <ele>196.7</ele>
        <time>2019-09-22T08:53:34.000Z</time>
      </trkpt>
      <trkpt lat="49.22226" lon="5.31421">
        <ele>196.545</ele>
        <time>2019-09-22T08:53:37.000Z</time>
      </trkpt>
      <trkpt lat="49.22228" lon="5.31444">
        <ele>196.526</ele>
        <time>2019-09-22T08:53:40.000Z</time>
      </trkpt>
      <trkpt lat="49.22231" lon="5.31465">
        <ele>195.746</ele>
        <time>2019-09-22T08:53:43.000Z</time>
      </trkpt>
      <trkpt lat="49.22234" lon="5.31487">
        <ele>196.099</ele>
        <time>2019-09-22T08:53:46.000Z</time>
      </trkpt>
      <trkpt lat="49.22237" lon="5.31508">
        <ele>195.964</ele>
        <time>2019-09-22T08:53:49.000Z</time>
      </trkpt>
      <trkpt lat="49.22239" lon="5.3153">
        <ele>195.903</ele>
        <time>2019-09-22T08:53:52.000Z</time>
      </trkpt>
      <trkpt lat="49.22241" lon="5.3155">
        <ele>196.046</ele>
        <time>2019-09-22T08:53:55.000Z</time>
      </trkpt>
      <trkpt lat="49.22243" lon="5.31571">
        <ele>196.063</ele>
        <time>2019-09-22T08:53:58.000Z</time>
      </trkpt>
      <trkpt lat="49.22246" lon="5.31592">
        <ele>196.187</ele>
        <time>2019-09-22T08:54:01.000Z</time>
      </trkpt>
      <trkpt lat="49.22248" lon="5.31611">
        <ele>195.987</ele>
        <time>2019-09-22T08:54:04.000Z</time>
      </trkpt>
      <trkpt lat="49.2225" lon="5.3163">
        <ele>195.79</ele>
        <time>2019-09-22T08:54:07.000Z</time>
      </trkpt>
      <trkpt lat="49.22253" lon="5.31652">
        <ele>195.763</ele>
        <time>2019-09-22T08:54:10.000Z</time>
      </trkpt>
      <trkpt lat="49.22254" lon="5.31671">
        <ele>195.45</ele>
        <time>2019-09-22T08:54:13.000Z</time>
      </trkpt>
      <trkpt lat="49.22256" lon="5.3169">
        <ele>195.511</ele>
        <time>2019-09-22T08:54:16.000Z</time>
      </trkpt>
      <trkpt lat="49.22257" lon="5.31708">
        <ele>195.558</ele>
        <time>2019-09-22T08:54:19.000Z</time>
      </trkpt>
      <trkpt lat="49.22258" lon="5.31729">
        <ele>195.726</ele>
        <time>2019-09-22T08:54:22.000Z</time>
      </trkpt>
      <trkpt lat="49.2226" lon="5.31752">
        <ele>195.485</ele>
        <time>2019-09-22T08:54:25.000Z</time>
      </trkpt>
      <trkpt lat="49.22263" lon="5.31773">
        <ele>195.772</ele>
        <time>2019-09-22T08:54:28.000Z</time>
      </trkpt>
      <trkpt lat="49.22264" lon="5.31794">
        <ele>196.255</ele>
        <time>2019-09-22T08:54:31.000Z</time>
      </trkpt>
      <trkpt lat="49.22266" lon="5.31817">
        <ele>195.795</ele>
        <time>2019-09-22T08:54:34.000Z</time>
      </trkpt>
      <trkpt lat="49.22269" lon="5.31838">
        <ele>194.743</ele>
        <time>2019-09-22T08:54:37.000Z</time>
      </trkpt>
      <trkpt lat="49.22273" lon="5.3186">
        <ele>193.698</ele>
        <time>2019-09-22T08:54:40.000Z</time>
      </trkpt>
      <trkpt lat="49.22277" lon="5.31881">
        <ele>192.664</ele>
        <time>2019-09-22T08:54:43.000Z</time>
      </trkpt>
      <trkpt lat="49.2228" lon="5.31901">
        <ele>191.607</ele>
        <time>2019-09-22T08:54:46.000Z</time>
      </trkpt>
      <trkpt lat="49.22283" lon="5.31922">
        <ele>191.022</ele>
        <time>2019-09-22T08:54:49.000Z</time>
      </trkpt>
      <trkpt lat="49.22285" lon="5.31943">
        <ele>190.84</ele>
        <time>2019-09-22T08:54:52.000Z</time>
      </trkpt>
      <trkpt lat="49.22288" lon="5.31963">
        <ele>190.818</ele>
        <time>2019-09-22T08:54:55.000Z</time>
      </trkpt>
      <trkpt lat="49.2229" lon="5.31983">
        <ele>190.808</ele>
        <time>2019-09-22T08:54:58.000Z</time>
      </trkpt>
      <trkpt lat="49.22291" lon="5.32002">
        <ele>190.628</ele>
        <time>2019-09-22T08:55:01.000Z</time>
      </trkpt>
      <trkpt lat="49.22292" lon="5.32023">
        <ele>190.584</ele>
        <time>2019-09-22T08:55:04.000Z</time>
      </trkpt>
      <trkpt lat="49.22294" lon="5.32044">
        <ele>190.436</ele>
        <time>2019-09-22T08:55:07.000Z</time>
      </trkpt>
      <trkpt lat="49.22296" lon="5.32066">
        <ele>190.824</ele>
        <time>2019-09-22T08:55:10.000Z</time>
      </trkpt>
      <trkpt lat="49.22298" lon="5.32086">
        <ele>191.38</ele>
        <time>2019-09-22T08:55:13.000Z</time>
      </trkpt>
      <trkpt lat="49.223" lon="5.32106">
        <ele>191.78</ele>
        <time>2019-09-22T08:55:16.000Z</time>
      </trkpt>
      <trkpt lat="49.22302" lon="5.32126">
        <ele>191.927</ele>
        <time>2019-09-22T08:55:19.000Z</time>
      </trkpt>
      <trkpt lat="49.22303" lon="5.32148">
        <ele>192.148</ele>
        <time>2019-09-22T08:55:22.000Z</time>
      </trkpt>
      <trkpt lat="49.22304" lon="5.32169">
        <ele>192.699</ele>
        <time>2019-09-22T08:55:25.000Z</time>
      </trkpt>
      <trkpt lat="49.22305" lon="5.32189">
        <ele>193.365</ele>
        <time>2019-09-22T08:55:28.000Z</time>
      </trkpt>
      <trkpt lat="49.22308" lon="5.3221">
        <ele>193.503</ele>
        <time>2019-09-22T08:55:31.000Z</time>
      </trkpt>
      <trkpt lat="49.22311" lon="5.32232">
        <ele>193.904</ele>
        <time>2019-09-22T08:55:34.000Z</time>
      </trkpt>
      <trkpt lat="49.22314" lon="5.32252">
        <ele>194.651</ele>
        <time>2019-09-22T08:55:37.000Z</time>
      </trkpt>
      <trkpt lat="49.22317" lon="5.32271">
        <ele>195.159</ele>
        <time>2019-09-22T08:55:40.000Z</time>
      </trkpt>
      <trkpt lat="49.2232" lon="5.32291">
        <ele>195.027</ele>
        <time>2019-09-22T08:55:43.000Z</time>
      </trkpt>
      <trkpt lat="49.22323" lon="5.32311">
        <ele>195.6</ele>
        <time>2019-09-22T08:55:46.000Z</time>
      </trkpt>
      <trkpt lat="49.22327" lon="5.3233">
        <ele>195.746</ele>
        <time>2019-09-22T08:55:49.000Z</time>
      </trkpt>
      <trkpt lat="49.22332" lon="5.32349">
        <ele>195.589</ele>
        <time>2019-09-22T08:55:52.000Z</time>
      </trkpt>
      <trkpt lat="49.22335" lon="5.32368">
        <ele>195.771</ele>
        <time>2019-09-22T08:55:55.000Z</time>
      </trkpt>
      <trkpt lat="49.22339" lon="5.32388">
        <ele>195.399</ele>
        <time>2019-09-22T08:55:58.000Z</time>
      </trkpt>
      <trkpt lat="49.22342" lon="5.32408">
        <ele>194.988</ele>
        <time>2019-09-22T08:56:01.000Z</time>
      </trkpt>
      <trkpt lat="49.22344" lon="5.32429">
        <ele>193.715</ele>
        <time>2019-09-22T08:56:04.000Z</time>
      </trkpt>
      <trkpt lat="49.22347" lon="5.3245">
        <ele>193.264</ele>
        <time>2019-09-22T08:56:07.000Z</time>
      </trkpt>
      <trkpt lat="49.22351" lon="5.32472">
        <ele>193.156</ele>
        <time>2019-09-22T08:56:10.000Z</time>
      </trkpt>
      <trkpt lat="49.22355" lon="5.32493">
        <ele>192.524</ele>
        <time>2019-09-22T08:56:13.000Z</time>
      </trkpt>
      <trkpt lat="49.22359" lon="5.32513">
        <ele>192.031</ele>
        <time>2019-09-22T08:56:16.000Z</time>
      </trkpt>
      <trkpt lat="49.22362" lon="5.32531">
        <ele>192.12</ele>
        <time>2019-09-22T08:56:19.000Z</time>
      </trkpt>
      <trkpt lat="49.22366" lon="5.32549">
        <ele>192.13</ele>
        <time>2019-09-22T08:56:22.000Z</time>
      </trkpt>
      <trkpt lat="49.2237" lon="5.32569">
        <ele>192.461</ele>
        <time>2019-09-22T08:56:25.000Z</time>
      </trkpt>
      <trkpt lat="49.22373" lon="5.32588">
        <ele>192.7</ele>
        <time>2019-09-22T08:56:28.000Z</time>
      </trkpt>
      <trkpt lat="49.22377" lon="5.32608">
        <ele>193.128</ele>
        <time>2019-09-22T08:56:31.000Z</time>
      </trkpt>
      <trkpt lat="49.22381" lon="5.32628">
        <ele>193.494</ele>
        <time>2019-09-22T08:56:34.000Z</time>
      </trkpt>
      <trkpt lat="49.22385" lon="5.32647">
        <ele>193.493</ele>
        <time>2019-09-22T08:56:37.000Z</time>
      </trkpt>
      <trkpt lat="49.22388" lon="5.32667">
        <ele>193.282</ele>
        <time>2019-09-22T08:56:40.000Z</time>
      </trkpt>
      <trkpt lat="49.22392" lon="5.32686">
        <ele>193.071</ele>
        <time>2019-09-22T08:56:43.000Z</time>
      </trkpt>
      <trkpt lat="49.22396" lon="5.32708">
        <ele>192.952</ele>
        <time>2019-09-22T08:56:46.000Z</time>
      </trkpt>
      <trkpt lat="49.22399" lon="5.32727">
        <ele>192.908</ele>
        <time>2019-09-22T08:56:49.000Z</time>
      </trkpt>
      <trkpt lat="49.22403" lon="5.32744">
        <ele>193.957</ele>
        <time>2019-09-22T08:56:52.000Z</time>
      </trkpt>
      <trkpt lat="49.22406" lon="5.32763">
        <ele>194.416</ele>
        <time>2019-09-22T08:56:55.000Z</time>
      </trkpt>
      <trkpt lat="49.22409" lon="5.32783">
        <ele>195.147</ele>
        <time>2019-09-22T08:56:58.000Z</time>
      </trkpt>
      <trkpt lat="49.22413" lon="5.32804">
        <ele>195.528</ele>
        <time>2019-09-22T08:57:01.000Z</time>
      </trkpt>
      <trkpt lat="49.22417" lon="5.32826">
        <ele>195.734</ele>
        <time>2019-09-22T08:57:04.000Z</time>
      </trkpt>
      <trkpt lat="49.22421" lon="5.32847">
        <ele>195.644</ele>
        <time>2019-09-22T08:57:07.000Z</time>
      </trkpt>
      <trkpt lat="49.22425" lon="5.32868">
        <ele>195.389</ele>
        <time>2019-09-22T08:57:10.000Z</time>
      </trkpt>
      <trkpt lat="49.22429" lon="5.32888">
        <ele>195.679</ele>
        <time>2019-09-22T08:57:13.000Z</time>
      </trkpt>
      <trkpt lat="49.22433" lon="5.32907">
        <ele>195.744</ele>
        <time>2019-09-22T08:57:16.000Z</time>
      </trkpt>
      <trkpt lat="49.22437" lon="5.32927">
        <ele>195.888</ele>
        <time>2019-09-22T08:57:19.000Z</time>
      </trkpt>
      <trkpt lat="49.2244" lon="5.32946">
        <ele>196.263</ele>
        <time>2019-09-22T08:57:22.000Z</time>
      </trkpt>
      <trkpt lat="49.22443" lon="5.32965">
        <ele>196.89</ele>
        <time>2019-09-22T08:57:25.000Z</time>
      </trkpt>
      <trkpt lat="49.22446" lon="5.32983">
        <ele>197.346</ele>
        <time>2019-09-22T08:57:28.000Z</time>
      </trkpt>
      <trkpt lat="49.22449" lon="5.33002">
        <ele>197.619</ele>
        <time>2019-09-22T08:57:31.000Z</time>
      </trkpt>
      <trkpt lat="49.22452" lon="5.33022">
        <ele>197.351</ele>
        <time>2019-09-22T08:57:34.000Z</time>
      </trkpt>
      <trkpt lat="49.22456" lon="5.33043">
        <ele>197.147</ele>
        <time>2019-09-22T08:57:37.000Z</time>
      </trkpt>
      <trkpt lat="49.2246" lon="5.33065">
        <ele>196.515</ele>
        <time>2019-09-22T08:57:40.000Z</time>
      </trkpt>
      <trkpt lat="49.22463" lon="5.33087">
        <ele>196.082</ele>
        <time>2019-09-22T08:57:43.000Z</time>
      </trkpt>
      <trkpt lat="49.22466" lon="5.33108">
        <ele>195.905</ele>
        <time>2019-09-22T08:57:46.000Z</time>
      </trkpt>
      <trkpt lat="49.22469" lon="5.33129">
        <ele>195.6</ele>
        <time>2019-09-22T08:57:49.000Z</time>
      </trkpt>
      <trkpt lat="49.22472" lon="5.3315">
        <ele>194.587</ele>
        <time>2019-09-22T08:57:52.000Z</time>
      </trkpt>
      <trkpt lat="49.22475" lon="5.33171">
        <ele>193.584</ele>
        <time>2019-09-22T08:57:55.000Z</time>
      </trkpt>
      <trkpt lat="49.22478" lon="5.33192">
        <ele>192.546</ele>
        <time>2019-09-22T08:57:58.000Z</time>
      </trkpt>
      <trkpt lat="49.2248" lon="5.33212">
        <ele>191.731</ele>
        <time>2019-09-22T08:58:01.000Z</time>
      </trkpt>
      <trkpt lat="49.22482" lon="5.33233">
        <ele>191.938</ele>
        <time>2019-09-22T08:58:04.000Z</time>
      </trkpt>
      <trkpt lat="49.22483" lon="5.33254">
        <ele>191.955</ele>
        <time>2019-09-22T08:58:07.000Z</time>
      </trkpt>
      <trkpt lat="49.22483" lon="5.33272">
        <ele>191.85</ele>
        <time>2019-09-22T08:58:10.000Z</time>
      </trkpt>
      <trkpt lat="49.22484" lon="5.33292">
        <ele>192.254</ele>
        <time>2019-09-22T08:58:13.000Z</time>
      </trkpt>
      <trkpt lat="49.22485" lon="5.33314">
        <ele>192.312</ele>
        <time>2019-09-22T08:58:16.000Z</time>
      </trkpt>
      <trkpt lat="49.22486" lon="5.33335">
        <ele>192.001</ele>
        <time>2019-09-22T08:58:19.000Z</time>
      </trkpt>
      <trkpt lat="49.22486" lon="5.33354">
        <ele>191.916</ele>
        <time>2019-09-22T08:58:22.000Z</time>
      </trkpt>
      <trkpt lat="49.22487" lon="5.33374">
        <ele>191.849</ele>
        <time>2019-09-22T08:58:25.000Z</time>
      </trkpt>
      <trkpt lat="49.22488" lon="5.33395">
        <ele>191.833</ele>
        <time>2019-09-22T08:58:28.000Z</time>
      </trkpt>
      <trkpt lat="49.2249" lon="5.33416">
        <ele>192.289</ele>
        <time>2019-09-22T08:58:31.000Z</time>
      </trkpt>
      <trkpt lat="49.22492" lon="5.33437">
        <ele>192.614</ele>
        <time>2019-09-22T08:58:34.000Z</time>
      </trkpt>
      <trkpt lat="49.22494" lon="5.33458">
        <ele>192.69</ele>
        <time>2019-09-22T08:58:37.000Z</time>
      </trkpt>
      <trkpt lat="49.22496" lon="5.3348">
        <ele>193.06</ele>
        <time>2019-09-22T08:58:40.000Z</time>
      </trkpt>
      <trkpt lat="49.22498" lon="5.33503">
        <ele>193.486</ele>
        <time>2019-09-22T08:58:43.000Z</time>
      </trkpt>
      <trkpt lat="49.22499" lon="5.33524">
        <ele>193.585</ele>
        <time>2019-09-22T08:58:46.000Z</time>
      </trkpt>
      <trkpt lat="49.22501" lon="5.33545">
        <ele>193.845</ele>
        <time>2019-09-22T08:58:49.000Z</time>
      </trkpt>
      <trkpt lat="49.22502" lon="5.33564">
        <ele>193.683</ele>
        <time>2019-09-22T08:58:52.000Z</time>
      </trkpt>
      <trkpt lat="49.22503" lon="5.33583">
        <ele>193.343</ele>
        <time>2019-09-22T08:58:55.000Z</time>
      </trkpt>
      <trkpt lat="49.22505" lon="5.33603">
        <ele>193.383</ele>
        <time>2019-09-22T08:58:58.000Z</time>
      </trkpt>
      <trkpt lat="49.22507" lon="5.33623">
        <ele>193.299</ele>
        <time>2019-09-22T08:59:01.000Z</time>
      </trkpt>
      <trkpt lat="49.22508" lon="5.33643">
        <ele>193.023</ele>
        <time>2019-09-22T08:59:04.000Z</time>
      </trkpt>
      <trkpt lat="49.22511" lon="5.33664">
        <ele>192.925</ele>
        <time>2019-09-22T08:59:07.000Z</time>
      </trkpt>
      <trkpt lat="49.22514" lon="5.33686">
        <ele>192.482</ele>
        <time>2019-09-22T08:59:10.000Z</time>
      </trkpt>
      <trkpt lat="49.22515" lon="5.33708">
        <ele>191.87</ele>
        <time>2019-09-22T08:59:13.000Z</time>
      </trkpt>
      <trkpt lat="49.22516" lon="5.3373">
        <ele>191.699</ele>
        <time>2019-09-22T08:59:16.000Z</time>
      </trkpt>
      <trkpt lat="49.22518" lon="5.3375">
        <ele>191.512</ele>
        <time>2019-09-22T08:59:19.000Z</time>
      </trkpt>
      <trkpt lat="49.2252" lon="5.33771">
        <ele>191.218</ele>
        <time>2019-09-22T08:59:22.000Z</time>
      </trkpt>
      <trkpt lat="49.22522" lon="5.3379">
        <ele>190.333</ele>
        <time>2019-09-22T08:59:25.000Z</time>
      </trkpt>
      <trkpt lat="49.22522" lon="5.33809">
        <ele>190.259</ele>
        <time>2019-09-22T08:59:28.000Z</time>
      </trkpt>
      <trkpt lat="49.22523" lon="5.33829">
        <ele>190.59</ele>
        <time>2019-09-22T08:59:31.000Z</time>
      </trkpt>
      <trkpt lat="49.22525" lon="5.3385">
        <ele>190.77</ele>
        <time>2019-09-22T08:59:34.000Z</time>
      </trkpt>
      <trkpt lat="49.22527" lon="5.3387">
        <ele>191.051</ele>
        <time>2019-09-22T08:59:37.000Z</time>
      </trkpt>
      <trkpt lat="49.22528" lon="5.3389">
        <ele>191.687</ele>
        <time>2019-09-22T08:59:40.000Z</time>
      </trkpt>
      <trkpt lat="49.22529" lon="5.3391">
        <ele>192.159</ele>
        <time>2019-09-22T08:59:43.000Z</time>
      </trkpt>
      <trkpt lat="49.22531" lon="5.33931">
        <ele>192.916</ele>
        <time>2019-09-22T08:59:46.000Z</time>
      </trkpt>
      <trkpt lat="49.22532" lon="5.33952">
        <ele>193.34</ele>
        <time>2019-09-22T08:59:49.000Z</time>
      </trkpt>
      <trkpt lat="49.22533" lon="5.33972">
        <ele>193.851</ele>
        <time>2019-09-22T08:59:52.000Z</time>
      </trkpt>
      <trkpt lat="49.22534" lon="5.33993">
        <ele>194.552</ele>
        <time>2019-09-22T08:59:55.000Z</time>
      </trkpt>
      <trkpt lat="49.22536" lon="5.34014">
        <ele>194.835</ele>
        <time>2019-09-22T08:59:58.000Z</time>
      </trkpt>
      <trkpt lat="49.22536" lon="5.34035">
        <ele>195.533</ele>
        <time>2019-09-22T09:00:01.000Z</time>
      </trkpt>
      <trkpt lat="49.22537" lon="5.34056">
        <ele>195.492</ele>
        <time>2019-09-22T09:00:04.000Z</time>
      </trkpt>
      <trkpt lat="49.22537" lon="5.34077">
        <ele>195.694</ele>
        <time>2019-09-22T09:00:07.000Z</time>
      </trkpt>
      <trkpt lat="49.22538" lon="5.34098">
        <ele>195.825</ele>
        <time>2019-09-22T09:00:10.000Z</time>
      </trkpt>
      <trkpt lat="49.22539" lon="5.34118">
        <ele>195.912</ele>
        <time>2019-09-22T09:00:13.000Z</time>
      </trkpt>
      <trkpt lat="49.22538" lon="5.34138">
        <ele>195.746</ele>
        <time>2019-09-22T09:00:16.000Z</time>
      </trkpt>
      <trkpt lat="49.22538" lon="5.3416">
        <ele>195.565</ele>
        <time>2019-09-22T09:00:19.000Z</time>
      </trkpt>
      <trkpt lat="49.22537" lon="5.34181">
        <ele>195.434</ele>
        <time>2019-09-22T09:00:22.000Z</time>
      </trkpt>
      <trkpt lat="49.22536" lon="5.34203">
        <ele>195.199</ele>
        <time>2019-09-22T09:00:25.000Z</time>
      </trkpt>
      <trkpt lat="49.22535" lon="5.34224">
        <ele>194.729</ele>
        <time>2019-09-22T09:00:28.000Z</time>
      </trkpt>
      <trkpt lat="49.22533" lon="5.34245">
        <ele>194.849</ele>
        <time>2019-09-22T09:00:31.000Z</time>
      </trkpt>
      <trkpt lat="49.22531" lon="5.34265">
        <ele>194.434</ele>
        <time>2019-09-22T09:00:34.000Z</time>
      </trkpt>
      <trkpt lat="49.22529" lon="5.34284">
        <ele>194.319</ele>
        <time>2019-09-22T09:00:37.000Z</time>
      </trkpt>
      <trkpt lat="49.22527" lon="5.34303">
        <ele>194.45</ele>
        <time>2019-09-22T09:00:40.000Z</time>
      </trkpt>
      <trkpt lat="49.22524" lon="5.34323">
        <ele>194.399</ele>
        <time>2019-09-22T09:00:43.000Z</time>
      </trkpt>
      <trkpt lat="49.22521" lon="5.34343">
        <ele>194.561</ele>
        <time>2019-09-22T09:00:46.000Z</time>
      </trkpt>
      <trkpt lat="49.22517" lon="5.34363">
        <ele>194.599</ele>
        <time>2019-09-22T09:00:49.000Z</time>
      </trkpt>
      <trkpt lat="49.22513" lon="5.34384">
        <ele>194.921</ele>
        <time>2019-09-22T09:00:52.000Z</time>
      </trkpt>
      <trkpt lat="49.2251" lon="5.34405">
        <ele>194.955</ele>
        <time>2019-09-22T09:00:55.000Z</time>
      </trkpt>
      <trkpt lat="49.22508" lon="5.34424">
        <ele>195.123</ele>
        <time>2019-09-22T09:00:58.000Z</time>
      </trkpt>
      <trkpt lat="49.22505" lon="5.34444">
        <ele>194.597</ele>
        <time>2019-09-22T09:01:01.000Z</time>
      </trkpt>
      <trkpt lat="49.22503" lon="5.34464">
        <ele>194.161</ele>
        <time>2019-09-22T09:01:04.000Z</time>
      </trkpt>
      <trkpt lat="49.22501" lon="5.34483">
        <ele>194.429</ele>
        <time>2019-09-22T09:01:07.000Z</time>
      </trkpt>
      <trkpt lat="49.225" lon="5.34502">
        <ele>194.473</ele>
        <time>2019-09-22T09:01:10.000Z</time>
      </trkpt>
      <trkpt lat="49.22498" lon="5.34524">
        <ele>194.057</ele>
        <time>2019-09-22T09:01:13.000Z</time>
      </trkpt>
      <trkpt lat="49.22495" lon="5.34543">
        <ele>193.811</ele>
        <time>2019-09-22T09:01:16.000Z</time>
      </trkpt>
      <trkpt lat="49.22493" lon="5.34563">
        <ele>193.714</ele>
        <time>2019-09-22T09:01:19.000Z</time>
      </trkpt>
      <trkpt lat="49.2249" lon="5.34583">
        <ele>193.993</ele>
        <time>2019-09-22T09:01:22.000Z</time>
      </trkpt>
      <trkpt lat="49.22488" lon="5.34604">
        <ele>194.608</ele>
        <time>2019-09-22T09:01:25.000Z</time>
      </trkpt>
      <trkpt lat="49.22485" lon="5.34625">
        <ele>195.033</ele>
        <time>2019-09-22T09:01:28.000Z</time>
      </trkpt>
      <trkpt lat="49.22481" lon="5.34644">
        <ele>195.017</ele>
        <time>2019-09-22T09:01:31.000Z</time>
      </trkpt>
      <trkpt lat="49.22479" lon="5.34663">
        <ele>196.237</ele>
        <time>2019-09-22T09:01:34.000Z</time>
      </trkpt>
      <trkpt lat="49.22476" lon="5.34682">
        <ele>197.351</ele>
        <time>2019-09-22T09:01:37.000Z</time>
      </trkpt>
      <trkpt lat="49.22474" lon="5.34702">
        <ele>197.361</ele>
        <time>2019-09-22T09:01:40.000Z</time>
      </trkpt>
      <trkpt lat="49.22471" lon="5.34723">
        <ele>196.993</ele>
        <time>2019-09-22T09:01:43.000Z</time>
      </trkpt>
      <trkpt lat="49.22469" lon="5.34743">
        <ele>196.635</ele>
        <time>2019-09-22T09:01:46.000Z</time>
      </trkpt>
      <trkpt lat="49.22467" lon="5.34761">
        <ele>196.685</ele>
        <time>2019-09-22T09:01:49.000Z</time>
      </trkpt>
      <trkpt lat="49.22464" lon="5.34781">
        <ele>197.347</ele>
        <time>2019-09-22T09:01:52.000Z</time>
      </trkpt>
      <trkpt lat="49.22461" lon="5.34801">
        <ele>197.202</ele>
        <time>2019-09-22T09:01:55.000Z</time>
      </trkpt>
      <trkpt lat="49.22458" lon="5.34821">
        <ele>197.307</ele>
        <time>2019-09-22T09:01:58.000Z</time>
      </trkpt>
      <trkpt lat="49.22455" lon="5.34843">
        <ele>197.356</ele>
        <time>2019-09-22T09:02:01.000Z</time>
      </trkpt>
      <trkpt lat="49.22452" lon="5.34863">
        <ele>197.254</ele>
        <time>2019-09-22T09:02:04.000Z</time>
      </trkpt>
      <trkpt lat="49.2245" lon="5.34881">
        <ele>197.157</ele>
        <time>2019-09-22T09:02:07.000Z</time>
      </trkpt>
      <trkpt lat="49.22446" lon="5.349">
        <ele>197.078</ele>
        <time>2019-09-22T09:02:10.000Z</time>
      </trkpt>
      <trkpt lat="49.22443" lon="5.3492">
        <ele>197.286</ele>
        <time>2019-09-22T09:02:13.000Z</time>
      </trkpt>
      <trkpt lat="49.22439" lon="5.34941">
        <ele>197.507</ele>
        <time>2019-09-22T09:02:16.000Z</time>
      </trkpt>
      <trkpt lat="49.22434" lon="5.34961">
        <ele>198.116</ele>
        <time>2019-09-22T09:02:19.000Z</time>
      </trkpt>
      <trkpt lat="49.22429" lon="5.3498">
        <ele>198.231</ele>
        <time>2019-09-22T09:02:22.000Z</time>
      </trkpt>
      <trkpt lat="49.22424" lon="5.35">
        <ele>198.231</ele>
        <time>2019-09-22T09:02:25.000Z</time>
      </trkpt>
      <trkpt lat="49.2242" lon="5.35018">
        <ele>198.263</ele>
        <time>2019-09-22T09:02:28.000Z</time>
      </trkpt>
      <trkpt lat="49.22414" lon="5.35035">
        <ele>197.869</ele>
        <time>2019-09-22T09:02:31.000Z</time>
      </trkpt>
      <trkpt lat="49.22408" lon="5.35053">
        <ele>197.775</ele>
        <time>2019-09-22T09:02:34.000Z</time>
      </trkpt>
      <trkpt lat="49.22403" lon="5.35071">
        <ele>197.285</ele>
        <time>2019-09-22T09:02:37.000Z</time>
      </trkpt>
      <trkpt lat="49.22395" lon="5.35092">
        <ele>197.186</ele>
        <time>2019-09-22T09:02:40.000Z</time>
      </trkpt>
      <trkpt lat="49.22388" lon="5.35111">
        <ele>197.277</ele>
        <time>2019-09-22T09:02:43.000Z</time>
      </trkpt>
      <trkpt lat="49.22381" lon="5.35128">
        <ele>196.925</ele>
        <time>2019-09-22T09:02:46.000Z</time>
      </trkpt>
      <trkpt lat="49.22375" lon="5.35147">
        <ele>196.605</ele>
        <time>2019-09-22T09:02:49.000Z</time>
      </trkpt>
      <trkpt lat="49.22367" lon="5.35165">
        <ele>195.899</ele>
        <time>2019-09-22T09:02:52.000Z</time>
      </trkpt>
      <trkpt lat="49.22359" lon="5.35182">
        <ele>195.707</ele>
        <time>2019-09-22T09:02:55.000Z</time>
      </trkpt>
      <trkpt lat="49.22352" lon="5.352">
        <ele>195.677</ele>
        <time>2019-09-22T09:02:58.000Z</time>
      </trkpt>
      <trkpt lat="49.22343" lon="5.35217">
        <ele>194.744</ele>
        <time>2019-09-22T09:03:01.000Z</time>
      </trkpt>
      <trkpt lat="49.22333" lon="5.35234">
        <ele>193.809</ele>
        <time>2019-09-22T09:03:04.000Z</time>
      </trkpt>
      <trkpt lat="49.22324" lon="5.3525">
        <ele>193.74</ele>
        <time>2019-09-22T09:03:07.000Z</time>
      </trkpt>
      <trkpt lat="49.22315" lon="5.35265">
        <ele>193.993</ele>
        <time>2019-09-22T09:03:10.000Z</time>
      </trkpt>
      <trkpt lat="49.22304" lon="5.3528">
        <ele>193.954</ele>
        <time>2019-09-22T09:03:13.000Z</time>
      </trkpt>
      <trkpt lat="49.22293" lon="5.35297">
        <ele>194.251</ele>
        <time>2019-09-22T09:03:16.000Z</time>
      </trkpt>
      <trkpt lat="49.22282" lon="5.35313">
        <ele>193.999</ele>
        <time>2019-09-22T09:03:19.000Z</time>
      </trkpt>
      <trkpt lat="49.2227" lon="5.35328">
        <ele>194.096</ele>
        <time>2019-09-22T09:03:22.000Z</time>
      </trkpt>
      <trkpt lat="49.22259" lon="5.35342">
        <ele>194.006</ele>
        <time>2019-09-22T09:03:25.000Z</time>
      </trkpt>
      <trkpt lat="49.22247" lon="5.35355">
        <ele>193.945</ele>
        <time>2019-09-22T09:03:28.000Z</time>
      </trkpt>
      <trkpt lat="49.22236" lon="5.35368">
        <ele>193.981</ele>
        <time>2019-09-22T09:03:31.000Z</time>
      </trkpt>
      <trkpt lat="49.22225" lon="5.35381">
        <ele>193.734</ele>
        <time>2019-09-22T09:03:34.000Z</time>
      </trkpt>
      <trkpt lat="49.22214" lon="5.35394">
        <ele>193.266</ele>
        <time>2019-09-22T09:03:37.000Z</time>
      </trkpt>
      <trkpt lat="49.22204" lon="5.35406">
        <ele>193.1</ele>
        <time>2019-09-22T09:03:40.000Z</time>
      </trkpt>
      <trkpt lat="49.22194" lon="5.35418">
        <ele>193.268</ele>
        <time>2019-09-22T09:03:43.000Z</time>
      </trkpt>
      <trkpt lat="49.22185" lon="5.35429">
        <ele>194.181</ele>
        <time>2019-09-22T09:03:46.000Z</time>
      </trkpt>
      <trkpt lat="49.22176" lon="5.3544">
        <ele>194.494</ele>
        <time>2019-09-22T09:03:49.000Z</time>
      </trkpt>
      <trkpt lat="49.22166" lon="5.35452">
        <ele>194.877</ele>
        <time>2019-09-22T09:03:52.000Z</time>
      </trkpt>
      <trkpt lat="49.22157" lon="5.35464">
        <ele>195.13</ele>
        <time>2019-09-22T09:03:55.000Z</time>
      </trkpt>
      <trkpt lat="49.22147" lon="5.35475">
        <ele>195.159</ele>
        <time>2019-09-22T09:03:58.000Z</time>
      </trkpt>
      <trkpt lat="49.22136" lon="5.35488">
        <ele>195.097</ele>
        <time>2019-09-22T09:04:01.000Z</time>
      </trkpt>
      <trkpt lat="49.22125" lon="5.35501">
        <ele>195.023</ele>
        <time>2019-09-22T09:04:04.000Z</time>
      </trkpt>
      <trkpt lat="49.22116" lon="5.35514">
        <ele>195.401</ele>
        <time>2019-09-22T09:04:07.000Z</time>
      </trkpt>
      <trkpt lat="49.22107" lon="5.35522">
        <ele>195.433</ele>
        <time>2019-09-22T09:04:10.000Z</time>
      </trkpt>
      <trkpt lat="49.22091" lon="5.35532">
        <ele>195.536</ele>
        <time>2019-09-22T09:04:13.000Z</time>
      </trkpt>
      <trkpt lat="49.22076" lon="5.35554">
        <ele>195.435</ele>
        <time>2019-09-22T09:04:16.000Z</time>
      </trkpt>
      <trkpt lat="49.22066" lon="5.35576">
        <ele>194.82</ele>
        <time>2019-09-22T09:04:19.000Z</time>
      </trkpt>
      <trkpt lat="49.22057" lon="5.35594">
        <ele>194.588</ele>
        <time>2019-09-22T09:04:22.000Z</time>
      </trkpt>
      <trkpt lat="49.22047" lon="5.35611">
        <ele>193.483</ele>
        <time>2019-09-22T09:04:25.000Z</time>
      </trkpt>
      <trkpt lat="49.2204" lon="5.35628">
        <ele>192.995</ele>
        <time>2019-09-22T09:04:28.000Z</time>
      </trkpt>
      <trkpt lat="49.22034" lon="5.35643">
        <ele>193.002</ele>
        <time>2019-09-22T09:04:31.000Z</time>
      </trkpt>
      <trkpt lat="49.22031" lon="5.35655">
        <ele>193.234</ele>
        <time>2019-09-22T09:04:34.000Z</time>
      </trkpt>
      <trkpt lat="49.22027" lon="5.35668">
        <ele>193.473</ele>
        <time>2019-09-22T09:04:37.000Z</time>
      </trkpt>
      <trkpt lat="49.22022" lon="5.35682">
        <ele>193.953</ele>
        <time>2019-09-22T09:04:40.000Z</time>
      </trkpt>
      <trkpt lat="49.22017" lon="5.35695">
        <ele>194.475</ele>
        <time>2019-09-22T09:04:43.000Z</time>
      </trkpt>
      <trkpt lat="49.22013" lon="5.35707">
        <ele>195.08</ele>
        <time>2019-09-22T09:04:46.000Z</time>
      </trkpt>
      <trkpt lat="49.22009" lon="5.3572">
        <ele>195.506</ele>
        <time>2019-09-22T09:04:49.000Z</time>
      </trkpt>
      <trkpt lat="49.22007" lon="5.3573">
        <ele>195.622</ele>
        <time>2019-09-22T09:04:52.000Z</time>
      </trkpt>
      <trkpt lat="49.2201" lon="5.35735">
        <ele>195.414</ele>
        <time>2019-09-22T09:04:55.000Z</time>
      </trkpt>
      <trkpt lat="49.22017" lon="5.35737">
        <ele>195.574</ele>
        <time>2019-09-22T09:04:58.000Z</time>
      </trkpt>
      <trkpt lat="49.22025" lon="5.3574">
        <ele>195.663</ele>
        <time>2019-09-22T09:05:01.000Z</time>
      </trkpt>
      <trkpt lat="49.22034" lon="5.35745">
        <ele>195.434</ele>
        <time>2019-09-22T09:05:04.000Z</time>
      </trkpt>
      <trkpt lat="49.22044" lon="5.3575">
        <ele>194.927</ele>
        <time>2019-09-22T09:05:07.000Z</time>
      </trkpt>
      <trkpt lat="49.22058" lon="5.35758">
        <ele>194.096</ele>
        <time>2019-09-22T09:05:10.000Z</time>
      </trkpt>
      <trkpt lat="49.22071" lon="5.35771">
        <ele>193.962</ele>
        <time>2019-09-22T09:05:13.000Z</time>
      </trkpt>
      <trkpt lat="49.22082" lon="5.35784">
        <ele>193.99</ele>
        <time>2019-09-22T09:05:16.000Z</time>
      </trkpt>
      <trkpt lat="49.22092" lon="5.35796">
        <ele>194.065</ele>
        <time>2019-09-22T09:05:19.000Z</time>
      </trkpt>
      <trkpt lat="49.22095" lon="5.35803">
        <ele>194.226</ele>
        <time>2019-09-22T09:05:22.000Z</time>
      </trkpt>
      <trkpt lat="49.22095" lon="5.35803">
        <ele>194.226</ele>
        <time>2019-09-22T09:16:31.000Z</time>
      </trkpt>
      <trkpt lat="49.22094" lon="5.35803">
        <ele>194.145</ele>
        <time>2019-09-22T09:16:34.000Z</time>
      </trkpt>
      <trkpt lat="49.22086" lon="5.35798">
        <ele>194.786</ele>
        <time>2019-09-22T09:16:40.000Z</time>
      </trkpt>
      <trkpt lat="49.22079" lon="5.35792">
        <ele>194.445</ele>
        <time>2019-09-22T09:16:43.000Z</time>
      </trkpt>
      <trkpt lat="49.22072" lon="5.35786">
        <ele>194.508</ele>
        <time>2019-09-22T09:16:46.000Z</time>
      </trkpt>
      <trkpt lat="49.22063" lon="5.35778">
        <ele>194.548</ele>
        <time>2019-09-22T09:16:49.000Z</time>
      </trkpt>
      <trkpt lat="49.22056" lon="5.3578">
        <ele>194.848</ele>
        <time>2019-09-22T09:16:52.000Z</time>
      </trkpt>
      <trkpt lat="49.22052" lon="5.35792">
        <ele>195.458</ele>
        <time>2019-09-22T09:16:55.000Z</time>
      </trkpt>
      <trkpt lat="49.22048" lon="5.35807">
        <ele>195.691</ele>
        <time>2019-09-22T09:16:58.000Z</time>
      </trkpt>
      <trkpt lat="49.22046" lon="5.35823">
        <ele>195.018</ele>
        <time>2019-09-22T09:17:01.000Z</time>
      </trkpt>
      <trkpt lat="49.22043" lon="5.35839">
        <ele>194.498</ele>
        <time>2019-09-22T09:17:04.000Z</time>
      </trkpt>
      <trkpt lat="49.2204" lon="5.3586">
        <ele>193.696</ele>
        <time>2019-09-22T09:17:07.000Z</time>
      </trkpt>
      <trkpt lat="49.22037" lon="5.35882">
        <ele>192.833</ele>
        <time>2019-09-22T09:17:10.000Z</time>
      </trkpt>
      <trkpt lat="49.22035" lon="5.35905">
        <ele>191.606</ele>
        <time>2019-09-22T09:17:13.000Z</time>
      </trkpt>
      <trkpt lat="49.22035" lon="5.35931">
        <ele>190.682</ele>
        <time>2019-09-22T09:17:16.000Z</time>
      </trkpt>
      <trkpt lat="49.22035" lon="5.3596">
        <ele>189.714</ele>
        <time>2019-09-22T09:17:19.000Z</time>
      </trkpt>
      <trkpt lat="49.22036" lon="5.35987">
        <ele>189.269</ele>
        <time>2019-09-22T09:17:22.000Z</time>
      </trkpt>
      <trkpt lat="49.22036" lon="5.36008">
        <ele>189.768</ele>
        <time>2019-09-22T09:17:25.000Z</time>
      </trkpt>
      <trkpt lat="49.22036" lon="5.36026">
        <ele>190.54</ele>
        <time>2019-09-22T09:17:28.000Z</time>
      </trkpt>
      <trkpt lat="49.22039" lon="5.36042">
        <ele>190.928</ele>
        <time>2019-09-22T09:17:31.000Z</time>
      </trkpt>
      <trkpt lat="49.22048" lon="5.36059">
        <ele>190.462</ele>
        <time>2019-09-22T09:17:34.000Z</time>
      </trkpt>
      <trkpt lat="49.22055" lon="5.36079">
        <ele>190.517</ele>
        <time>2019-09-22T09:17:37.000Z</time>
      </trkpt>
      <trkpt lat="49.22062" lon="5.36098">
        <ele>191.178</ele>
        <time>2019-09-22T09:17:40.000Z</time>
      </trkpt>
      <trkpt lat="49.22069" lon="5.36116">
        <ele>191.289</ele>
        <time>2019-09-22T09:17:43.000Z</time>
      </trkpt>
      <trkpt lat="49.22075" lon="5.36134">
        <ele>191.081</ele>
        <time>2019-09-22T09:17:46.000Z</time>
      </trkpt>
      <trkpt lat="49.22079" lon="5.36154">
        <ele>190.728</ele>
        <time>2019-09-22T09:17:49.000Z</time>
      </trkpt>
      <trkpt lat="49.22081" lon="5.36177">
        <ele>190.622</ele>
        <time>2019-09-22T09:17:52.000Z</time>
      </trkpt>
      <trkpt lat="49.22082" lon="5.362">
        <ele>189.952</ele>
        <time>2019-09-22T09:17:55.000Z</time>
      </trkpt>
      <trkpt lat="49.22083" lon="5.36223">
        <ele>189.406</ele>
        <time>2019-09-22T09:17:58.000Z</time>
      </trkpt>
      <trkpt lat="49.22084" lon="5.36247">
        <ele>189.264</ele>
        <time>2019-09-22T09:18:01.000Z</time>
      </trkpt>
      <trkpt lat="49.22084" lon="5.3627">
        <ele>189.088</ele>
        <time>2019-09-22T09:18:04.000Z</time>
      </trkpt>
      <trkpt lat="49.22084" lon="5.36292">
        <ele>188.824</ele>
        <time>2019-09-22T09:18:07.000Z</time>
      </trkpt>
      <trkpt lat="49.22084" lon="5.36315">
        <ele>188.584</ele>
        <time>2019-09-22T09:18:10.000Z</time>
      </trkpt>
      <trkpt lat="49.22085" lon="5.36337">
        <ele>188.174</ele>
        <time>2019-09-22T09:18:13.000Z</time>
      </trkpt>
      <trkpt lat="49.2208" lon="5.3636">
        <ele>188.126</ele>
        <time>2019-09-22T09:18:16.000Z</time>
      </trkpt>
      <trkpt lat="49.22073" lon="5.36381">
        <ele>187.594</ele>
        <time>2019-09-22T09:18:19.000Z</time>
      </trkpt>
      <trkpt lat="49.22065" lon="5.364">
        <ele>187.866</ele>
        <time>2019-09-22T09:18:22.000Z</time>
      </trkpt>
      <trkpt lat="49.22055" lon="5.3642">
        <ele>188.115</ele>
        <time>2019-09-22T09:18:25.000Z</time>
      </trkpt>
      <trkpt lat="49.22044" lon="5.36438">
        <ele>188.82</ele>
        <time>2019-09-22T09:18:28.000Z</time>
      </trkpt>
      <trkpt lat="49.22034" lon="5.36454">
        <ele>189.008</ele>
        <time>2019-09-22T09:18:31.000Z</time>
      </trkpt>
      <trkpt lat="49.22025" lon="5.3647">
        <ele>189.692</ele>
        <time>2019-09-22T09:18:34.000Z</time>
      </trkpt>
      <trkpt lat="49.22017" lon="5.36486">
        <ele>190.527</ele>
        <time>2019-09-22T09:18:37.000Z</time>
      </trkpt>
      <trkpt lat="49.2201" lon="5.365">
        <ele>191.266</ele>
        <time>2019-09-22T09:18:40.000Z</time>
      </trkpt>
      <trkpt lat="49.22003" lon="5.36514">
        <ele>192.217</ele>
        <time>2019-09-22T09:18:43.000Z</time>
      </trkpt>
      <trkpt lat="49.21995" lon="5.36531">
        <ele>192.815</ele>
        <time>2019-09-22T09:18:46.000Z</time>
      </trkpt>
      <trkpt lat="49.21985" lon="5.36546">
        <ele>193.476</ele>
        <time>2019-09-22T09:18:49.000Z</time>
      </trkpt>
      <trkpt lat="49.21976" lon="5.36561">
        <ele>194.265</ele>
        <time>2019-09-22T09:18:52.000Z</time>
      </trkpt>
      <trkpt lat="49.21967" lon="5.36575">
        <ele>194.959</ele>
        <time>2019-09-22T09:18:55.000Z</time>
      </trkpt>
      <trkpt lat="49.21958" lon="5.36589">
        <ele>195.193</ele>
        <time>2019-09-22T09:18:58.000Z</time>
      </trkpt>
      <trkpt lat="49.2195" lon="5.36601">
        <ele>195.718</ele>
        <time>2019-09-22T09:19:01.000Z</time>
      </trkpt>
      <trkpt lat="49.21939" lon="5.36615">
        <ele>196.242</ele>
        <time>2019-09-22T09:19:04.000Z</time>
      </trkpt>
      <trkpt lat="49.21927" lon="5.36629">
        <ele>196.78</ele>
        <time>2019-09-22T09:19:07.000Z</time>
      </trkpt>
      <trkpt lat="49.21915" lon="5.36641">
        <ele>196.747</ele>
        <time>2019-09-22T09:19:10.000Z</time>
      </trkpt>
      <trkpt lat="49.21902" lon="5.36654">
        <ele>197.126</ele>
        <time>2019-09-22T09:19:13.000Z</time>
      </trkpt>
      <trkpt lat="49.2189" lon="5.36666">
        <ele>197.131</ele>
        <time>2019-09-22T09:19:16.000Z</time>
      </trkpt>
      <trkpt lat="49.21878" lon="5.36676">
        <ele>197.723</ele>
        <time>2019-09-22T09:19:19.000Z</time>
      </trkpt>
      <trkpt lat="49.21865" lon="5.36685">
        <ele>198.449</ele>
        <time>2019-09-22T09:19:22.000Z</time>
      </trkpt>
      <trkpt lat="49.21853" lon="5.36694">
        <ele>198.997</ele>
        <time>2019-09-22T09:19:25.000Z</time>
      </trkpt>
      <trkpt lat="49.2184" lon="5.36702">
        <ele>199.173</ele>
        <time>2019-09-22T09:19:28.000Z</time>
      </trkpt>
      <trkpt lat="49.21827" lon="5.36711">
        <ele>200.23</ele>
        <time>2019-09-22T09:19:31.000Z</time>
      </trkpt>
      <trkpt lat="49.21815" lon="5.36719">
        <ele>200.937</ele>
        <time>2019-09-22T09:19:34.000Z</time>
      </trkpt>
      <trkpt lat="49.21801" lon="5.36728">
        <ele>200.63</ele>
        <time>2019-09-22T09:19:37.000Z</time>
      </trkpt>
      <trkpt lat="49.21788" lon="5.36737">
        <ele>201.145</ele>
        <time>2019-09-22T09:19:40.000Z</time>
      </trkpt>
      <trkpt lat="49.21776" lon="5.36744">
        <ele>201.776</ele>
        <time>2019-09-22T09:19:43.000Z</time>
      </trkpt>
      <trkpt lat="49.21763" lon="5.36753">
        <ele>202.176</ele>
        <time>2019-09-22T09:19:46.000Z</time>
      </trkpt>
      <trkpt lat="49.2175" lon="5.36762">
        <ele>202.533</ele>
        <time>2019-09-22T09:19:49.000Z</time>
      </trkpt>
      <trkpt lat="49.21736" lon="5.36772">
        <ele>202.676</ele>
        <time>2019-09-22T09:19:52.000Z</time>
      </trkpt>
      <trkpt lat="49.21722" lon="5.36781">
        <ele>203.4</ele>
        <time>2019-09-22T09:19:55.000Z</time>
      </trkpt>
      <trkpt lat="49.21709" lon="5.36789">
        <ele>204.282</ele>
        <time>2019-09-22T09:19:58.000Z</time>
      </trkpt>
      <trkpt lat="49.21695" lon="5.36797">
        <ele>205.052</ele>
        <time>2019-09-22T09:20:01.000Z</time>
      </trkpt>
      <trkpt lat="49.21682" lon="5.36806">
        <ele>205.131</ele>
        <time>2019-09-22T09:20:04.000Z</time>
      </trkpt>
      <trkpt lat="49.21668" lon="5.36815">
        <ele>205.316</ele>
        <time>2019-09-22T09:20:07.000Z</time>
      </trkpt>
      <trkpt lat="49.21654" lon="5.36825">
        <ele>204.662</ele>
        <time>2019-09-22T09:20:10.000Z</time>
      </trkpt>
      <trkpt lat="49.21642" lon="5.36834">
        <ele>204.038</ele>
        <time>2019-09-22T09:20:13.000Z</time>
      </trkpt>
      <trkpt lat="49.21629" lon="5.36842">
        <ele>203.889</ele>
        <time>2019-09-22T09:20:16.000Z</time>
      </trkpt>
      <trkpt lat="49.21614" lon="5.3685">
        <ele>203.413</ele>
        <time>2019-09-22T09:20:19.000Z</time>
      </trkpt>
      <trkpt lat="49.216" lon="5.36859">
        <ele>203.326</ele>
        <time>2019-09-22T09:20:22.000Z</time>
      </trkpt>
      <trkpt lat="49.21584" lon="5.36869">
        <ele>201.907</ele>
        <time>2019-09-22T09:20:25.000Z</time>
      </trkpt>
      <trkpt lat="49.21569" lon="5.36878">
        <ele>200.555</ele>
        <time>2019-09-22T09:20:28.000Z</time>
      </trkpt>
      <trkpt lat="49.21555" lon="5.36887">
        <ele>199.478</ele>
        <time>2019-09-22T09:20:31.000Z</time>
      </trkpt>
      <trkpt lat="49.21541" lon="5.36895">
        <ele>198.812</ele>
        <time>2019-09-22T09:20:34.000Z</time>
      </trkpt>
      <trkpt lat="49.21528" lon="5.36904">
        <ele>199.075</ele>
        <time>2019-09-22T09:20:37.000Z</time>
      </trkpt>
      <trkpt lat="49.21515" lon="5.36912">
        <ele>199.708</ele>
        <time>2019-09-22T09:20:40.000Z</time>
      </trkpt>
      <trkpt lat="49.21502" lon="5.3692">
        <ele>200.053</ele>
        <time>2019-09-22T09:20:43.000Z</time>
      </trkpt>
      <trkpt lat="49.21489" lon="5.36928">
        <ele>200.197</ele>
        <time>2019-09-22T09:20:46.000Z</time>
      </trkpt>
      <trkpt lat="49.21475" lon="5.36937">
        <ele>200.217</ele>
        <time>2019-09-22T09:20:49.000Z</time>
      </trkpt>
      <trkpt lat="49.21461" lon="5.36945">
        <ele>200.116</ele>
        <time>2019-09-22T09:20:52.000Z</time>
      </trkpt>
      <trkpt lat="49.21448" lon="5.36955">
        <ele>200.44</ele>
        <time>2019-09-22T09:20:55.000Z</time>
      </trkpt>
      <trkpt lat="49.21432" lon="5.36965">
        <ele>200.253</ele>
        <time>2019-09-22T09:20:58.000Z</time>
      </trkpt>
      <trkpt lat="49.21417" lon="5.36974">
        <ele>199.379</ele>
        <time>2019-09-22T09:21:01.000Z</time>
      </trkpt>
      <trkpt lat="49.21402" lon="5.36983">
        <ele>198.274</ele>
        <time>2019-09-22T09:21:04.000Z</time>
      </trkpt>
      <trkpt lat="49.21388" lon="5.36992">
        <ele>197.452</ele>
        <time>2019-09-22T09:21:07.000Z</time>
      </trkpt>
      <trkpt lat="49.21372" lon="5.37002">
        <ele>195.9</ele>
        <time>2019-09-22T09:21:10.000Z</time>
      </trkpt>
      <trkpt lat="49.21357" lon="5.3701">
        <ele>195.141</ele>
        <time>2019-09-22T09:21:13.000Z</time>
      </trkpt>
      <trkpt lat="49.21344" lon="5.37019">
        <ele>195.054</ele>
        <time>2019-09-22T09:21:16.000Z</time>
      </trkpt>
      <trkpt lat="49.2133" lon="5.37026">
        <ele>194.94</ele>
        <time>2019-09-22T09:21:19.000Z</time>
      </trkpt>
      <trkpt lat="49.21316" lon="5.37035">
        <ele>194.602</ele>
        <time>2019-09-22T09:21:22.000Z</time>
      </trkpt>
      <trkpt lat="49.21301" lon="5.37043">
        <ele>194.558</ele>
        <time>2019-09-22T09:21:25.000Z</time>
      </trkpt>
      <trkpt lat="49.21287" lon="5.37051">
        <ele>194.288</ele>
        <time>2019-09-22T09:21:28.001Z</time>
      </trkpt>
      <trkpt lat="49.21272" lon="5.37059">
        <ele>194.159</ele>
        <time>2019-09-22T09:21:31.001Z</time>
      </trkpt>
      <trkpt lat="49.21257" lon="5.37066">
        <ele>193.633</ele>
        <time>2019-09-22T09:21:34.001Z</time>
      </trkpt>
      <trkpt lat="49.21243" lon="5.37073">
        <ele>193.658</ele>
        <time>2019-09-22T09:21:37.001Z</time>
      </trkpt>
      <trkpt lat="49.21228" lon="5.37081">
        <ele>193.483</ele>
        <time>2019-09-22T09:21:40.001Z</time>
      </trkpt>
      <trkpt lat="49.21214" lon="5.37089">
        <ele>193.599</ele>
        <time>2019-09-22T09:21:43.001Z</time>
      </trkpt>
      <trkpt lat="49.21201" lon="5.37096">
        <ele>193.77</ele>
        <time>2019-09-22T09:21:46.001Z</time>
      </trkpt>
      <trkpt lat="49.21188" lon="5.37102">
        <ele>194.194</ele>
        <time>2019-09-22T09:21:49.001Z</time>
      </trkpt>
      <trkpt lat="49.21174" lon="5.37108">
        <ele>194.673</ele>
        <time>2019-09-22T09:21:52.001Z</time>
      </trkpt>
      <trkpt lat="49.21161" lon="5.37116">
        <ele>195.498</ele>
        <time>2019-09-22T09:21:55.001Z</time>
      </trkpt>
      <trkpt lat="49.21147" lon="5.37123">
        <ele>196.22</ele>
        <time>2019-09-22T09:21:58.001Z</time>
      </trkpt>
      <trkpt lat="49.21131" lon="5.37127">
        <ele>196.275</ele>
        <time>2019-09-22T09:22:01.001Z</time>
      </trkpt>
      <trkpt lat="49.21117" lon="5.37135">
        <ele>196.848</ele>
        <time>2019-09-22T09:22:04.001Z</time>
      </trkpt>
      <trkpt lat="49.21102" lon="5.37144">
        <ele>196.557</ele>
        <time>2019-09-22T09:22:07.001Z</time>
      </trkpt>
      <trkpt lat="49.21088" lon="5.37154">
        <ele>196.873</ele>
        <time>2019-09-22T09:22:10.001Z</time>
      </trkpt>
      <trkpt lat="49.21073" lon="5.37162">
        <ele>197.085</ele>
        <time>2019-09-22T09:22:13.001Z</time>
      </trkpt>
      <trkpt lat="49.21058" lon="5.37172">
        <ele>196.685</ele>
        <time>2019-09-22T09:22:16.000Z</time>
      </trkpt>
      <trkpt lat="49.21044" lon="5.37181">
        <ele>196.799</ele>
        <time>2019-09-22T09:22:19.001Z</time>
      </trkpt>
      <trkpt lat="49.21027" lon="5.3719">
        <ele>196.095</ele>
        <time>2019-09-22T09:22:22.001Z</time>
      </trkpt>
      <trkpt lat="49.21011" lon="5.372">
        <ele>194.711</ele>
        <time>2019-09-22T09:22:25.001Z</time>
      </trkpt>
      <trkpt lat="49.20996" lon="5.3721">
        <ele>193.851</ele>
        <time>2019-09-22T09:22:28.001Z</time>
      </trkpt>
      <trkpt lat="49.20981" lon="5.37218">
        <ele>193.678</ele>
        <time>2019-09-22T09:22:31.001Z</time>
      </trkpt>
      <trkpt lat="49.20967" lon="5.37225">
        <ele>193.572</ele>
        <time>2019-09-22T09:22:34.001Z</time>
      </trkpt>
      <trkpt lat="49.20953" lon="5.37233">
        <ele>193.901</ele>
        <time>2019-09-22T09:22:37.001Z</time>
      </trkpt>
      <trkpt lat="49.20938" lon="5.3724">
        <ele>194.607</ele>
        <time>2019-09-22T09:22:40.001Z</time>
      </trkpt>
      <trkpt lat="49.20924" lon="5.37248">
        <ele>194.859</ele>
        <time>2019-09-22T09:22:43.001Z</time>
      </trkpt>
      <trkpt lat="49.20909" lon="5.37257">
        <ele>195.141</ele>
        <time>2019-09-22T09:22:46.001Z</time>
      </trkpt>
      <trkpt lat="49.20895" lon="5.37264">
        <ele>195.304</ele>
        <time>2019-09-22T09:22:49.001Z</time>
      </trkpt>
      <trkpt lat="49.20881" lon="5.37272">
        <ele>195.364</ele>
        <time>2019-09-22T09:22:52.001Z</time>
      </trkpt>
      <trkpt lat="49.20866" lon="5.3728">
        <ele>195.4</ele>
        <time>2019-09-22T09:22:55.001Z</time>
      </trkpt>
      <trkpt lat="49.2085" lon="5.37288">
        <ele>194.654</ele>
        <time>2019-09-22T09:22:58.001Z</time>
      </trkpt>
      <trkpt lat="49.20836" lon="5.37296">
        <ele>194.164</ele>
        <time>2019-09-22T09:23:01.001Z</time>
      </trkpt>
      <trkpt lat="49.20823" lon="5.37304">
        <ele>194.106</ele>
        <time>2019-09-22T09:23:04.001Z</time>
      </trkpt>
      <trkpt lat="49.2081" lon="5.37311">
        <ele>193.878</ele>
        <time>2019-09-22T09:23:07.001Z</time>
      </trkpt>
      <trkpt lat="49.20798" lon="5.37318">
        <ele>193.766</ele>
        <time>2019-09-22T09:23:10.001Z</time>
      </trkpt>
      <trkpt lat="49.20789" lon="5.37323">
        <ele>194.165</ele>
        <time>2019-09-22T09:23:13.001Z</time>
      </trkpt>
      <trkpt lat="49.2078" lon="5.37328">
        <ele>194.396</ele>
        <time>2019-09-22T09:23:16.000Z</time>
      </trkpt>
      <trkpt lat="49.2077" lon="5.37334">
        <ele>195.028</ele>
        <time>2019-09-22T09:23:19.001Z</time>
      </trkpt>
      <trkpt lat="49.20761" lon="5.37339">
        <ele>195.778</ele>
        <time>2019-09-22T09:23:22.001Z</time>
      </trkpt>
      <trkpt lat="49.20754" lon="5.37343">
        <ele>196.247</ele>
        <time>2019-09-22T09:23:25.001Z</time>
      </trkpt>
      <trkpt lat="49.20747" lon="5.37345">
        <ele>196.631</ele>
        <time>2019-09-22T09:23:28.001Z</time>
      </trkpt>
      <trkpt lat="49.20742" lon="5.37342">
        <ele>198.662</ele>
        <time>2019-09-22T09:23:31.001Z</time>
      </trkpt>
      <trkpt lat="49.2074" lon="5.37331">
        <ele>198.789</ele>
        <time>2019-09-22T09:23:34.001Z</time>
      </trkpt>
      <trkpt lat="49.20735" lon="5.37319">
        <ele>199.218</ele>
        <time>2019-09-22T09:23:37.001Z</time>
      </trkpt>
      <trkpt lat="49.20726" lon="5.37318">
        <ele>198.999</ele>
        <time>2019-09-22T09:23:40.001Z</time>
      </trkpt>
      <trkpt lat="49.20719" lon="5.37328">
        <ele>199.22</ele>
        <time>2019-09-22T09:23:43.001Z</time>
      </trkpt>
      <trkpt lat="49.20712" lon="5.37337">
        <ele>199.537</ele>
        <time>2019-09-22T09:23:46.001Z</time>
      </trkpt>
      <trkpt lat="49.20705" lon="5.37342">
        <ele>200.048</ele>
        <time>2019-09-22T09:23:49.001Z</time>
      </trkpt>
      <trkpt lat="49.20694" lon="5.37345">
        <ele>200.947</ele>
        <time>2019-09-22T09:23:52.001Z</time>
      </trkpt>
      <trkpt lat="49.20682" lon="5.37349">
        <ele>201.703</ele>
        <time>2019-09-22T09:23:55.001Z</time>
      </trkpt>
      <trkpt lat="49.2067" lon="5.37353">
        <ele>202.932</ele>
        <time>2019-09-22T09:23:58.001Z</time>
      </trkpt>
      <trkpt lat="49.20657" lon="5.37356">
        <ele>203.093</ele>
        <time>2019-09-22T09:24:01.001Z</time>
      </trkpt>
      <trkpt lat="49.20644" lon="5.37359">
        <ele>202.722</ele>
        <time>2019-09-22T09:24:04.001Z</time>
      </trkpt>
      <trkpt lat="49.20631" lon="5.37361">
        <ele>202.933</ele>
        <time>2019-09-22T09:24:07.001Z</time>
      </trkpt>
      <trkpt lat="49.20618" lon="5.37363">
        <ele>203.16</ele>
        <time>2019-09-22T09:24:10.001Z</time>
      </trkpt>
      <trkpt lat="49.20604" lon="5.37365">
        <ele>202.828</ele>
        <time>2019-09-22T09:24:13.001Z</time>
      </trkpt>
      <trkpt lat="49.20589" lon="5.37364">
        <ele>203.276</ele>
        <time>2019-09-22T09:24:16.000Z</time>
      </trkpt>
      <trkpt lat="49.20573" lon="5.37364">
        <ele>203.423</ele>
        <time>2019-09-22T09:24:19.001Z</time>
      </trkpt>
      <trkpt lat="49.20555" lon="5.37363">
        <ele>203.291</ele>
        <time>2019-09-22T09:24:22.001Z</time>
      </trkpt>
      <trkpt lat="49.20539" lon="5.3736">
        <ele>203.679</ele>
        <time>2019-09-22T09:24:25.001Z</time>
      </trkpt>
      <trkpt lat="49.20524" lon="5.37356">
        <ele>202.673</ele>
        <time>2019-09-22T09:24:28.001Z</time>
      </trkpt>
      <trkpt lat="49.20509" lon="5.3735">
        <ele>201.97</ele>
        <time>2019-09-22T09:24:31.001Z</time>
      </trkpt>
      <trkpt lat="49.20494" lon="5.37345">
        <ele>201.324</ele>
        <time>2019-09-22T09:24:34.001Z</time>
      </trkpt>
      <trkpt lat="49.2048" lon="5.37338">
        <ele>201.101</ele>
        <time>2019-09-22T09:24:37.001Z</time>
      </trkpt>
      <trkpt lat="49.20464" lon="5.37332">
        <ele>200.76</ele>
        <time>2019-09-22T09:24:40.001Z</time>
      </trkpt>
      <trkpt lat="49.20449" lon="5.37327">
        <ele>200.095</ele>
        <time>2019-09-22T09:24:43.001Z</time>
      </trkpt>
      <trkpt lat="49.20434" lon="5.37321">
        <ele>199.722</ele>
        <time>2019-09-22T09:24:46.001Z</time>
      </trkpt>
      <trkpt lat="49.20419" lon="5.37315">
        <ele>198.971</ele>
        <time>2019-09-22T09:24:49.001Z</time>
      </trkpt>
      <trkpt lat="49.20404" lon="5.37309">
        <ele>198.453</ele>
        <time>2019-09-22T09:24:52.001Z</time>
      </trkpt>
      <trkpt lat="49.20389" lon="5.37304">
        <ele>197.929</ele>
        <time>2019-09-22T09:24:55.001Z</time>
      </trkpt>
      <trkpt lat="49.20374" lon="5.37299">
        <ele>197.694</ele>
        <time>2019-09-22T09:24:58.001Z</time>
      </trkpt>
      <trkpt lat="49.20358" lon="5.37293">
        <ele>197.233</ele>
        <time>2019-09-22T09:25:01.001Z</time>
      </trkpt>
      <trkpt lat="49.20344" lon="5.37288">
        <ele>197.254</ele>
        <time>2019-09-22T09:25:04.001Z</time>
      </trkpt>
      <trkpt lat="49.20329" lon="5.37282">
        <ele>196.992</ele>
        <time>2019-09-22T09:25:07.001Z</time>
      </trkpt>
      <trkpt lat="49.20313" lon="5.37277">
        <ele>196.494</ele>
        <time>2019-09-22T09:25:10.001Z</time>
      </trkpt>
      <trkpt lat="49.20298" lon="5.37272">
        <ele>196.104</ele>
        <time>2019-09-22T09:25:13.001Z</time>
      </trkpt>
      <trkpt lat="49.20283" lon="5.37265">
        <ele>195.432</ele>
        <time>2019-09-22T09:25:16.000Z</time>
      </trkpt>
      <trkpt lat="49.20269" lon="5.3726">
        <ele>195.635</ele>
        <time>2019-09-22T09:25:19.001Z</time>
      </trkpt>
      <trkpt lat="49.20254" lon="5.37255">
        <ele>195.707</ele>
        <time>2019-09-22T09:25:22.001Z</time>
      </trkpt>
      <trkpt lat="49.20239" lon="5.3725">
        <ele>195.906</ele>
        <time>2019-09-22T09:25:25.001Z</time>
      </trkpt>
      <trkpt lat="49.20224" lon="5.37244">
        <ele>196.049</ele>
        <time>2019-09-22T09:25:28.001Z</time>
      </trkpt>
      <trkpt lat="49.20209" lon="5.37238">
        <ele>196.601</ele>
        <time>2019-09-22T09:25:31.001Z</time>
      </trkpt>
      <trkpt lat="49.20194" lon="5.37232">
        <ele>196.566</ele>
        <time>2019-09-22T09:25:34.001Z</time>
      </trkpt>
      <trkpt lat="49.20176" lon="5.37226">
        <ele>197.732</ele>
        <time>2019-09-22T09:25:37.001Z</time>
      </trkpt>
      <trkpt lat="49.20162" lon="5.37221">
        <ele>197.429</ele>
        <time>2019-09-22T09:25:40.001Z</time>
      </trkpt>
      <trkpt lat="49.20147" lon="5.37216">
        <ele>196.664</ele>
        <time>2019-09-22T09:25:43.001Z</time>
      </trkpt>
      <trkpt lat="49.20132" lon="5.3721">
        <ele>196.49</ele>
        <time>2019-09-22T09:25:46.001Z</time>
      </trkpt>
      <trkpt lat="49.20117" lon="5.37205">
        <ele>196.544</ele>
        <time>2019-09-22T09:25:49.001Z</time>
      </trkpt>
      <trkpt lat="49.20101" lon="5.37198">
        <ele>196.126</ele>
        <time>2019-09-22T09:25:52.001Z</time>
      </trkpt>
      <trkpt lat="49.20086" lon="5.37192">
        <ele>196.042</ele>
        <time>2019-09-22T09:25:55.001Z</time>
      </trkpt>
      <trkpt lat="49.20072" lon="5.37186">
        <ele>196.061</ele>
        <time>2019-09-22T09:25:58.001Z</time>
      </trkpt>
      <trkpt lat="49.20057" lon="5.37181">
        <ele>196.235</ele>
        <time>2019-09-22T09:26:01.001Z</time>
      </trkpt>
      <trkpt lat="49.20042" lon="5.37175">
        <ele>196.272</ele>
        <time>2019-09-22T09:26:04.001Z</time>
      </trkpt>
      <trkpt lat="49.20027" lon="5.3717">
        <ele>196.923</ele>
        <time>2019-09-22T09:26:07.001Z</time>
      </trkpt>
      <trkpt lat="49.20012" lon="5.37164">
        <ele>196.817</ele>
        <time>2019-09-22T09:26:10.001Z</time>
      </trkpt>
      <trkpt lat="49.19999" lon="5.37159">
        <ele>196.569</ele>
        <time>2019-09-22T09:26:13.001Z</time>
      </trkpt>
      <trkpt lat="49.19986" lon="5.37154">
        <ele>196.601</ele>
        <time>2019-09-22T09:26:16.000Z</time>
      </trkpt>
      <trkpt lat="49.19973" lon="5.37149">
        <ele>196.676</ele>
        <time>2019-09-22T09:26:19.001Z</time>
      </trkpt>
      <trkpt lat="49.1996" lon="5.37145">
        <ele>196.818</ele>
        <time>2019-09-22T09:26:22.001Z</time>
      </trkpt>
      <trkpt lat="49.19945" lon="5.37139">
        <ele>197.048</ele>
        <time>2019-09-22T09:26:25.001Z</time>
      </trkpt>
      <trkpt lat="49.1993" lon="5.37134">
        <ele>197.27</ele>
        <time>2019-09-22T09:26:28.001Z</time>
      </trkpt>
      <trkpt lat="49.19916" lon="5.37129">
        <ele>197.038</ele>
        <time>2019-09-22T09:26:31.001Z</time>
      </trkpt>
      <trkpt lat="49.19902" lon="5.37123">
        <ele>196.666</ele>
        <time>2019-09-22T09:26:34.001Z</time>
      </trkpt>
      <trkpt lat="49.19888" lon="5.37118">
        <ele>196.88</ele>
        <time>2019-09-22T09:26:37.001Z</time>
      </trkpt>
      <trkpt lat="49.19875" lon="5.37112">
        <ele>196.523</ele>
        <time>2019-09-22T09:26:40.001Z</time>
      </trkpt>
      <trkpt lat="49.19861" lon="5.37107">
        <ele>196.53</ele>
        <time>2019-09-22T09:26:43.001Z</time>
      </trkpt>
      <trkpt lat="49.19848" lon="5.37103">
        <ele>196.703</ele>
        <time>2019-09-22T09:26:46.001Z</time>
      </trkpt>
      <trkpt lat="49.19833" lon="5.37098">
        <ele>196.586</ele>
        <time>2019-09-22T09:26:49.001Z</time>
      </trkpt>
      <trkpt lat="49.19818" lon="5.37093">
        <ele>196.535</ele>
        <time>2019-09-22T09:26:52.001Z</time>
      </trkpt>
      <trkpt lat="49.19804" lon="5.37087">
        <ele>196.201</ele>
        <time>2019-09-22T09:26:55.001Z</time>
      </trkpt>
      <trkpt lat="49.19791" lon="5.37081">
        <ele>196.226</ele>
        <time>2019-09-22T09:26:58.001Z</time>
      </trkpt>
      <trkpt lat="49.19777" lon="5.37075">
        <ele>196.324</ele>
        <time>2019-09-22T09:27:01.001Z</time>
      </trkpt>
      <trkpt lat="49.19763" lon="5.37069">
        <ele>196.412</ele>
        <time>2019-09-22T09:27:04.001Z</time>
      </trkpt>
      <trkpt lat="49.19749" lon="5.37063">
        <ele>196.5</ele>
        <time>2019-09-22T09:27:07.001Z</time>
      </trkpt>
      <trkpt lat="49.19735" lon="5.37058">
        <ele>196.835</ele>
        <time>2019-09-22T09:27:10.001Z</time>
      </trkpt>
      <trkpt lat="49.1972" lon="5.37053">
        <ele>197.197</ele>
        <time>2019-09-22T09:27:13.001Z</time>
      </trkpt>
      <trkpt lat="49.19705" lon="5.37047">
        <ele>197.47</ele>
        <time>2019-09-22T09:27:16.000Z</time>
      </trkpt>
      <trkpt lat="49.19691" lon="5.37041">
        <ele>197.514</ele>
        <time>2019-09-22T09:27:19.001Z</time>
      </trkpt>
      <trkpt lat="49.19677" lon="5.37036">
        <ele>196.894</ele>
        <time>2019-09-22T09:27:22.001Z</time>
      </trkpt>
      <trkpt lat="49.19663" lon="5.37031">
        <ele>196.496</ele>
        <time>2019-09-22T09:27:25.001Z</time>
      </trkpt>
      <trkpt lat="49.19648" lon="5.37026">
        <ele>196.323</ele>
        <time>2019-09-22T09:27:28.001Z</time>
      </trkpt>
      <trkpt lat="49.19635" lon="5.37022">
        <ele>196.23</ele>
        <time>2019-09-22T09:27:31.001Z</time>
      </trkpt>
      <trkpt lat="49.1962" lon="5.37017">
        <ele>196.56</ele>
        <time>2019-09-22T09:27:34.001Z</time>
      </trkpt>
      <trkpt lat="49.19608" lon="5.37012">
        <ele>197.433</ele>
        <time>2019-09-22T09:27:37.001Z</time>
      </trkpt>
      <trkpt lat="49.19594" lon="5.37006">
        <ele>198.406</ele>
        <time>2019-09-22T09:27:40.001Z</time>
      </trkpt>
      <trkpt lat="49.19578" lon="5.37002">
        <ele>198.945</ele>
        <time>2019-09-22T09:27:43.001Z</time>
      </trkpt>
      <trkpt lat="49.19562" lon="5.36996">
        <ele>200.145</ele>
        <time>2019-09-22T09:27:46.001Z</time>
      </trkpt>
      <trkpt lat="49.19547" lon="5.36991">
        <ele>200.947</ele>
        <time>2019-09-22T09:27:49.001Z</time>
      </trkpt>
      <trkpt lat="49.19533" lon="5.36985">
        <ele>201.292</ele>
        <time>2019-09-22T09:27:52.001Z</time>
      </trkpt>
      <trkpt lat="49.19519" lon="5.36977">
        <ele>201.844</ele>
        <time>2019-09-22T09:27:55.001Z</time>
      </trkpt>
      <trkpt lat="49.19508" lon="5.36968">
        <ele>202.429</ele>
        <time>2019-09-22T09:27:58.001Z</time>
      </trkpt>
      <trkpt lat="49.19497" lon="5.36958">
        <ele>203.312</ele>
        <time>2019-09-22T09:28:01.001Z</time>
      </trkpt>
      <trkpt lat="49.19487" lon="5.36947">
        <ele>204.36</ele>
        <time>2019-09-22T09:28:04.001Z</time>
      </trkpt>
      <trkpt lat="49.19476" lon="5.36936">
        <ele>204.83</ele>
        <time>2019-09-22T09:28:07.001Z</time>
      </trkpt>
      <trkpt lat="49.19463" lon="5.36923">
        <ele>204.48</ele>
        <time>2019-09-22T09:28:10.001Z</time>
      </trkpt>
      <trkpt lat="49.19452" lon="5.36909">
        <ele>205.134</ele>
        <time>2019-09-22T09:28:13.001Z</time>
      </trkpt>
      <trkpt lat="49.19442" lon="5.36895">
        <ele>205.532</ele>
        <time>2019-09-22T09:28:16.000Z</time>
      </trkpt>
      <trkpt lat="49.19431" lon="5.3688">
        <ele>205.885</ele>
        <time>2019-09-22T09:28:19.001Z</time>
      </trkpt>
      <trkpt lat="49.19421" lon="5.36864">
        <ele>206.018</ele>
        <time>2019-09-22T09:28:22.001Z</time>
      </trkpt>
      <trkpt lat="49.19409" lon="5.36843">
        <ele>205.496</ele>
        <time>2019-09-22T09:28:25.001Z</time>
      </trkpt>
      <trkpt lat="49.19395" lon="5.36818">
        <ele>204.638</ele>
        <time>2019-09-22T09:28:28.001Z</time>
      </trkpt>
      <trkpt lat="49.19379" lon="5.36791">
        <ele>202.988</ele>
        <time>2019-09-22T09:28:31.001Z</time>
      </trkpt>
      <trkpt lat="49.19365" lon="5.36766">
        <ele>200.949</ele>
        <time>2019-09-22T09:28:34.001Z</time>
      </trkpt>
      <trkpt lat="49.19353" lon="5.36742">
        <ele>198.546</ele>
        <time>2019-09-22T09:28:37.001Z</time>
      </trkpt>
      <trkpt lat="49.19341" lon="5.36719">
        <ele>196.662</ele>
        <time>2019-09-22T09:28:40.001Z</time>
      </trkpt>
      <trkpt lat="49.1933" lon="5.36698">
        <ele>195.591</ele>
        <time>2019-09-22T09:28:43.001Z</time>
      </trkpt>
      <trkpt lat="49.19319" lon="5.36677">
        <ele>194.347</ele>
        <time>2019-09-22T09:28:46.001Z</time>
      </trkpt>
      <trkpt lat="49.19309" lon="5.36658">
        <ele>193.533</ele>
        <time>2019-09-22T09:28:49.001Z</time>
      </trkpt>
      <trkpt lat="49.19299" lon="5.36638">
        <ele>193.337</ele>
        <time>2019-09-22T09:28:52.001Z</time>
      </trkpt>
      <trkpt lat="49.19289" lon="5.36618">
        <ele>193.789</ele>
        <time>2019-09-22T09:28:55.001Z</time>
      </trkpt>
      <trkpt lat="49.19279" lon="5.36597">
        <ele>194.129</ele>
        <time>2019-09-22T09:28:58.001Z</time>
      </trkpt>
      <trkpt lat="49.19268" lon="5.36575">
        <ele>193.991</ele>
        <time>2019-09-22T09:29:01.001Z</time>
      </trkpt>
      <trkpt lat="49.19258" lon="5.36553">
        <ele>193.895</ele>
        <time>2019-09-22T09:29:04.001Z</time>
      </trkpt>
      <trkpt lat="49.19248" lon="5.36534">
        <ele>194.013</ele>
        <time>2019-09-22T09:29:07.001Z</time>
      </trkpt>
      <trkpt lat="49.19238" lon="5.36515">
        <ele>194.076</ele>
        <time>2019-09-22T09:29:10.001Z</time>
      </trkpt>
      <trkpt lat="49.19228" lon="5.36496">
        <ele>193.748</ele>
        <time>2019-09-22T09:29:13.001Z</time>
      </trkpt>
      <trkpt lat="49.19218" lon="5.36478">
        <ele>193.611</ele>
        <time>2019-09-22T09:29:16.000Z</time>
      </trkpt>
      <trkpt lat="49.19208" lon="5.36459">
        <ele>193.153</ele>
        <time>2019-09-22T09:29:19.001Z</time>
      </trkpt>
      <trkpt lat="49.19198" lon="5.36439">
        <ele>192.912</ele>
        <time>2019-09-22T09:29:22.001Z</time>
      </trkpt>
      <trkpt lat="49.19188" lon="5.3642">
        <ele>192.062</ele>
        <time>2019-09-22T09:29:25.001Z</time>
      </trkpt>
      <trkpt lat="49.19179" lon="5.36403">
        <ele>191.623</ele>
        <time>2019-09-22T09:29:28.001Z</time>
      </trkpt>
      <trkpt lat="49.1917" lon="5.36386">
        <ele>191.063</ele>
        <time>2019-09-22T09:29:31.001Z</time>
      </trkpt>
      <trkpt lat="49.19161" lon="5.36368">
        <ele>191.298</ele>
        <time>2019-09-22T09:29:34.001Z</time>
      </trkpt>
      <trkpt lat="49.19151" lon="5.3635">
        <ele>191.217</ele>
        <time>2019-09-22T09:29:37.001Z</time>
      </trkpt>
      <trkpt lat="49.19142" lon="5.36332">
        <ele>191.325</ele>
        <time>2019-09-22T09:29:40.001Z</time>
      </trkpt>
      <trkpt lat="49.19132" lon="5.36313">
        <ele>191.488</ele>
        <time>2019-09-22T09:29:43.001Z</time>
      </trkpt>
      <trkpt lat="49.19123" lon="5.36293">
        <ele>191.633</ele>
        <time>2019-09-22T09:29:46.001Z</time>
      </trkpt>
      <trkpt lat="49.19113" lon="5.36273">
        <ele>191.117</ele>
        <time>2019-09-22T09:29:49.001Z</time>
      </trkpt>
      <trkpt lat="49.19103" lon="5.36254">
        <ele>191.145</ele>
        <time>2019-09-22T09:29:52.001Z</time>
      </trkpt>
      <trkpt lat="49.19094" lon="5.36238">
        <ele>191.737</ele>
        <time>2019-09-22T09:29:55.001Z</time>
      </trkpt>
      <trkpt lat="49.19086" lon="5.3622">
        <ele>192.461</ele>
        <time>2019-09-22T09:29:58.001Z</time>
      </trkpt>
      <trkpt lat="49.19078" lon="5.36205">
        <ele>192.882</ele>
        <time>2019-09-22T09:30:01.001Z</time>
      </trkpt>
      <trkpt lat="49.19069" lon="5.36188">
        <ele>193.919</ele>
        <time>2019-09-22T09:30:04.001Z</time>
      </trkpt>
      <trkpt lat="49.19059" lon="5.36169">
        <ele>193.99</ele>
        <time>2019-09-22T09:30:07.001Z</time>
      </trkpt>
      <trkpt lat="49.1905" lon="5.3615">
        <ele>194.381</ele>
        <time>2019-09-22T09:30:10.001Z</time>
      </trkpt>
      <trkpt lat="49.1904" lon="5.36131">
        <ele>193.983</ele>
        <time>2019-09-22T09:30:13.001Z</time>
      </trkpt>
      <trkpt lat="49.1903" lon="5.36113">
        <ele>194.213</ele>
        <time>2019-09-22T09:30:16.000Z</time>
      </trkpt>
      <trkpt lat="49.19021" lon="5.36094">
        <ele>195.027</ele>
        <time>2019-09-22T09:30:19.001Z</time>
      </trkpt>
      <trkpt lat="49.19011" lon="5.36073">
        <ele>195.365</ele>
        <time>2019-09-22T09:30:22.001Z</time>
      </trkpt>
      <trkpt lat="49.19003" lon="5.36054">
        <ele>195.47</ele>
        <time>2019-09-22T09:30:25.001Z</time>
      </trkpt>
      <trkpt lat="49.18993" lon="5.36035">
        <ele>195.92</ele>
        <time>2019-09-22T09:30:28.001Z</time>
      </trkpt>
      <trkpt lat="49.18981" lon="5.36012">
        <ele>195.374</ele>
        <time>2019-09-22T09:30:31.001Z</time>
      </trkpt>
      <trkpt lat="49.18969" lon="5.35991">
        <ele>195.106</ele>
        <time>2019-09-22T09:30:34.001Z</time>
      </trkpt>
      <trkpt lat="49.18959" lon="5.35974">
        <ele>195.142</ele>
        <time>2019-09-22T09:30:37.001Z</time>
      </trkpt>
      <trkpt lat="49.18951" lon="5.35958">
        <ele>195.215</ele>
        <time>2019-09-22T09:30:40.001Z</time>
      </trkpt>
      <trkpt lat="49.18942" lon="5.35941">
        <ele>194.612</ele>
        <time>2019-09-22T09:30:43.001Z</time>
      </trkpt>
      <trkpt lat="49.18933" lon="5.35924">
        <ele>194.201</ele>
        <time>2019-09-22T09:30:46.001Z</time>
      </trkpt>
      <trkpt lat="49.18923" lon="5.35907">
        <ele>193.931</ele>
        <time>2019-09-22T09:30:49.001Z</time>
      </trkpt>
      <trkpt lat="49.18913" lon="5.35886">
        <ele>193.753</ele>
        <time>2019-09-22T09:30:52.001Z</time>
      </trkpt>
      <trkpt lat="49.18903" lon="5.35868">
        <ele>193.77</ele>
        <time>2019-09-22T09:30:55.001Z</time>
      </trkpt>
      <trkpt lat="49.18892" lon="5.35847">
        <ele>193.757</ele>
        <time>2019-09-22T09:30:58.001Z</time>
      </trkpt>
      <trkpt lat="49.18881" lon="5.35826">
        <ele>192.872</ele>
        <time>2019-09-22T09:31:01.001Z</time>
      </trkpt>
      <trkpt lat="49.18871" lon="5.35805">
        <ele>192.983</ele>
        <time>2019-09-22T09:31:04.001Z</time>
      </trkpt>
      <trkpt lat="49.1886" lon="5.35785">
        <ele>193.251</ele>
        <time>2019-09-22T09:31:07.001Z</time>
      </trkpt>
      <trkpt lat="49.18848" lon="5.35766">
        <ele>193.009</ele>
        <time>2019-09-22T09:31:10.001Z</time>
      </trkpt>
      <trkpt lat="49.18837" lon="5.3575">
        <ele>192.647</ele>
        <time>2019-09-22T09:31:13.001Z</time>
      </trkpt>
      <trkpt lat="49.18824" lon="5.35734">
        <ele>192.711</ele>
        <time>2019-09-22T09:31:16.000Z</time>
      </trkpt>
      <trkpt lat="49.18812" lon="5.35718">
        <ele>192.778</ele>
        <time>2019-09-22T09:31:19.001Z</time>
      </trkpt>
      <trkpt lat="49.18802" lon="5.35705">
        <ele>192.856</ele>
        <time>2019-09-22T09:31:22.001Z</time>
      </trkpt>
      <trkpt lat="49.18791" lon="5.35692">
        <ele>192.802</ele>
        <time>2019-09-22T09:31:25.001Z</time>
      </trkpt>
      <trkpt lat="49.18781" lon="5.3568">
        <ele>193.119</ele>
        <time>2019-09-22T09:31:28.001Z</time>
      </trkpt>
      <trkpt lat="49.18769" lon="5.35668">
        <ele>193.589</ele>
        <time>2019-09-22T09:31:31.001Z</time>
      </trkpt>
      <trkpt lat="49.18759" lon="5.35658">
        <ele>193.678</ele>
        <time>2019-09-22T09:31:34.001Z</time>
      </trkpt>
      <trkpt lat="49.18749" lon="5.35648">
        <ele>194.165</ele>
        <time>2019-09-22T09:31:37.001Z</time>
      </trkpt>
      <trkpt lat="49.18738" lon="5.35637">
        <ele>194.159</ele>
        <time>2019-09-22T09:31:40.001Z</time>
      </trkpt>
      <trkpt lat="49.18727" lon="5.35626">
        <ele>194.533</ele>
        <time>2019-09-22T09:31:43.001Z</time>
      </trkpt>
      <trkpt lat="49.18714" lon="5.35614">
        <ele>195.281</ele>
        <time>2019-09-22T09:31:46.001Z</time>
      </trkpt>
      <trkpt lat="49.18701" lon="5.35602">
        <ele>195.5</ele>
        <time>2019-09-22T09:31:49.001Z</time>
      </trkpt>
      <trkpt lat="49.18688" lon="5.3559">
        <ele>195.874</ele>
        <time>2019-09-22T09:31:52.001Z</time>
      </trkpt>
      <trkpt lat="49.18673" lon="5.35578">
        <ele>195.613</ele>
        <time>2019-09-22T09:31:55.001Z</time>
      </trkpt>
      <trkpt lat="49.18659" lon="5.35567">
        <ele>196.209</ele>
        <time>2019-09-22T09:31:58.001Z</time>
      </trkpt>
      <trkpt lat="49.18645" lon="5.35557">
        <ele>196.199</ele>
        <time>2019-09-22T09:32:01.001Z</time>
      </trkpt>
      <trkpt lat="49.1863" lon="5.35548">
        <ele>196.272</ele>
        <time>2019-09-22T09:32:04.001Z</time>
      </trkpt>
      <trkpt lat="49.18615" lon="5.35538">
        <ele>195.436</ele>
        <time>2019-09-22T09:32:07.001Z</time>
      </trkpt>
      <trkpt lat="49.18601" lon="5.35528">
        <ele>195.505</ele>
        <time>2019-09-22T09:32:10.001Z</time>
      </trkpt>
      <trkpt lat="49.18586" lon="5.35521">
        <ele>195.642</ele>
        <time>2019-09-22T09:32:13.001Z</time>
      </trkpt>
      <trkpt lat="49.18572" lon="5.35513">
        <ele>195.722</ele>
        <time>2019-09-22T09:32:16.000Z</time>
      </trkpt>
      <trkpt lat="49.18557" lon="5.35506">
        <ele>196.102</ele>
        <time>2019-09-22T09:32:19.001Z</time>
      </trkpt>
      <trkpt lat="49.18543" lon="5.355">
        <ele>196.393</ele>
        <time>2019-09-22T09:32:22.001Z</time>
      </trkpt>
      <trkpt lat="49.18529" lon="5.35494">
        <ele>196.28</ele>
        <time>2019-09-22T09:32:25.001Z</time>
      </trkpt>
      <trkpt lat="49.18514" lon="5.35489">
        <ele>196.352</ele>
        <time>2019-09-22T09:32:28.001Z</time>
      </trkpt>
      <trkpt lat="49.185" lon="5.35486">
        <ele>196.223</ele>
        <time>2019-09-22T09:32:31.001Z</time>
      </trkpt>
      <trkpt lat="49.18485" lon="5.35483">
        <ele>196.04</ele>
        <time>2019-09-22T09:32:34.001Z</time>
      </trkpt>
      <trkpt lat="49.1847" lon="5.3548">
        <ele>195.855</ele>
        <time>2019-09-22T09:32:37.001Z</time>
      </trkpt>
      <trkpt lat="49.18456" lon="5.35477">
        <ele>195.816</ele>
        <time>2019-09-22T09:32:40.001Z</time>
      </trkpt>
      <trkpt lat="49.18442" lon="5.35475">
        <ele>196.093</ele>
        <time>2019-09-22T09:32:43.001Z</time>
      </trkpt>
      <trkpt lat="49.18427" lon="5.35472">
        <ele>196.091</ele>
        <time>2019-09-22T09:32:46.001Z</time>
      </trkpt>
      <trkpt lat="49.18413" lon="5.3547">
        <ele>195.787</ele>
        <time>2019-09-22T09:32:49.001Z</time>
      </trkpt>
      <trkpt lat="49.18397" lon="5.35467">
        <ele>195.601</ele>
        <time>2019-09-22T09:32:52.001Z</time>
      </trkpt>
      <trkpt lat="49.18382" lon="5.35465">
        <ele>195.896</ele>
        <time>2019-09-22T09:32:55.001Z</time>
      </trkpt>
      <trkpt lat="49.18365" lon="5.35463">
        <ele>196.656</ele>
        <time>2019-09-22T09:32:58.001Z</time>
      </trkpt>
      <trkpt lat="49.18349" lon="5.35461">
        <ele>197.081</ele>
        <time>2019-09-22T09:33:01.001Z</time>
      </trkpt>
      <trkpt lat="49.18333" lon="5.35458">
        <ele>197.406</ele>
        <time>2019-09-22T09:33:04.001Z</time>
      </trkpt>
      <trkpt lat="49.18316" lon="5.35454">
        <ele>196.872</ele>
        <time>2019-09-22T09:33:07.001Z</time>
      </trkpt>
      <trkpt lat="49.18302" lon="5.35452">
        <ele>195.769</ele>
        <time>2019-09-22T09:33:10.001Z</time>
      </trkpt>
      <trkpt lat="49.18286" lon="5.35449">
        <ele>194.427</ele>
        <time>2019-09-22T09:33:13.001Z</time>
      </trkpt>
      <trkpt lat="49.18272" lon="5.35447">
        <ele>193.954</ele>
        <time>2019-09-22T09:33:16.000Z</time>
      </trkpt>
      <trkpt lat="49.18256" lon="5.35443">
        <ele>193.983</ele>
        <time>2019-09-22T09:33:19.001Z</time>
      </trkpt>
      <trkpt lat="49.1824" lon="5.3544">
        <ele>193.891</ele>
        <time>2019-09-22T09:33:22.001Z</time>
      </trkpt>
      <trkpt lat="49.18223" lon="5.35439">
        <ele>194.87</ele>
        <time>2019-09-22T09:33:25.001Z</time>
      </trkpt>
      <trkpt lat="49.18209" lon="5.35439">
        <ele>195.055</ele>
        <time>2019-09-22T09:33:28.001Z</time>
      </trkpt>
      <trkpt lat="49.18195" lon="5.3544">
        <ele>195.032</ele>
        <time>2019-09-22T09:33:31.001Z</time>
      </trkpt>
      <trkpt lat="49.18181" lon="5.35445">
        <ele>195.723</ele>
        <time>2019-09-22T09:33:34.001Z</time>
      </trkpt>
      <trkpt lat="49.18169" lon="5.35445">
        <ele>196.522</ele>
        <time>2019-09-22T09:33:37.001Z</time>
      </trkpt>
      <trkpt lat="49.18155" lon="5.35448">
        <ele>198.173</ele>
        <time>2019-09-22T09:33:40.001Z</time>
      </trkpt>
      <trkpt lat="49.18139" lon="5.35453">
        <ele>198.217</ele>
        <time>2019-09-22T09:33:43.001Z</time>
      </trkpt>
      <trkpt lat="49.18122" lon="5.35461">
        <ele>198.317</ele>
        <time>2019-09-22T09:33:46.001Z</time>
      </trkpt>
      <trkpt lat="49.18107" lon="5.35469">
        <ele>197.865</ele>
        <time>2019-09-22T09:33:49.001Z</time>
      </trkpt>
      <trkpt lat="49.18092" lon="5.35477">
        <ele>198.035</ele>
        <time>2019-09-22T09:33:52.001Z</time>
      </trkpt>
      <trkpt lat="49.18076" lon="5.35486">
        <ele>198.471</ele>
        <time>2019-09-22T09:33:55.001Z</time>
      </trkpt>
      <trkpt lat="49.18061" lon="5.35499">
        <ele>199.868</ele>
        <time>2019-09-22T09:33:58.001Z</time>
      </trkpt>
      <trkpt lat="49.18045" lon="5.35511">
        <ele>200.398</ele>
        <time>2019-09-22T09:34:01.001Z</time>
      </trkpt>
      <trkpt lat="49.18029" lon="5.35524">
        <ele>199.404</ele>
        <time>2019-09-22T09:34:04.001Z</time>
      </trkpt>
      <trkpt lat="49.18014" lon="5.35538">
        <ele>198.752</ele>
        <time>2019-09-22T09:34:07.001Z</time>
      </trkpt>
      <trkpt lat="49.18001" lon="5.35554">
        <ele>198.01</ele>
        <time>2019-09-22T09:34:10.001Z</time>
      </trkpt>
      <trkpt lat="49.17988" lon="5.35569">
        <ele>196.737</ele>
        <time>2019-09-22T09:34:13.001Z</time>
      </trkpt>
      <trkpt lat="49.17976" lon="5.35585">
        <ele>196.168</ele>
        <time>2019-09-22T09:34:16.000Z</time>
      </trkpt>
      <trkpt lat="49.17966" lon="5.35601">
        <ele>196.007</ele>
        <time>2019-09-22T09:34:19.001Z</time>
      </trkpt>
      <trkpt lat="49.17957" lon="5.35619">
        <ele>195.924</ele>
        <time>2019-09-22T09:34:22.001Z</time>
      </trkpt>
      <trkpt lat="49.17948" lon="5.35637">
        <ele>195.131</ele>
        <time>2019-09-22T09:34:25.001Z</time>
      </trkpt>
      <trkpt lat="49.17939" lon="5.35655">
        <ele>194.421</ele>
        <time>2019-09-22T09:34:28.001Z</time>
      </trkpt>
      <trkpt lat="49.17932" lon="5.35673">
        <ele>194.263</ele>
        <time>2019-09-22T09:34:31.001Z</time>
      </trkpt>
      <trkpt lat="49.17922" lon="5.35694">
        <ele>194.435</ele>
        <time>2019-09-22T09:34:34.001Z</time>
      </trkpt>
      <trkpt lat="49.17914" lon="5.35717">
        <ele>195.002</ele>
        <time>2019-09-22T09:34:37.001Z</time>
      </trkpt>
      <trkpt lat="49.17906" lon="5.35738">
        <ele>195.115</ele>
        <time>2019-09-22T09:34:40.001Z</time>
      </trkpt>
      <trkpt lat="49.179" lon="5.35759">
        <ele>195.524</ele>
        <time>2019-09-22T09:34:43.001Z</time>
      </trkpt>
      <trkpt lat="49.17895" lon="5.3578">
        <ele>195.067</ele>
        <time>2019-09-22T09:34:46.001Z</time>
      </trkpt>
      <trkpt lat="49.1789" lon="5.35801">
        <ele>194.222</ele>
        <time>2019-09-22T09:34:49.001Z</time>
      </trkpt>
      <trkpt lat="49.17887" lon="5.35821">
        <ele>193.587</ele>
        <time>2019-09-22T09:34:52.001Z</time>
      </trkpt>
      <trkpt lat="49.17883" lon="5.35838">
        <ele>193.988</ele>
        <time>2019-09-22T09:34:55.001Z</time>
      </trkpt>
      <trkpt lat="49.17881" lon="5.35859">
        <ele>194.984</ele>
        <time>2019-09-22T09:34:58.001Z</time>
      </trkpt>
      <trkpt lat="49.17879" lon="5.35883">
        <ele>195.863</ele>
        <time>2019-09-22T09:35:01.001Z</time>
      </trkpt>
      <trkpt lat="49.17875" lon="5.35903">
        <ele>195.864</ele>
        <time>2019-09-22T09:35:04.001Z</time>
      </trkpt>
      <trkpt lat="49.17872" lon="5.35926">
        <ele>195.817</ele>
        <time>2019-09-22T09:35:07.001Z</time>
      </trkpt>
      <trkpt lat="49.17869" lon="5.35946">
        <ele>195.976</ele>
        <time>2019-09-22T09:35:10.001Z</time>
      </trkpt>
      <trkpt lat="49.17866" lon="5.35967">
        <ele>196.307</ele>
        <time>2019-09-22T09:35:13.001Z</time>
      </trkpt>
      <trkpt lat="49.17864" lon="5.35988">
        <ele>197.326</ele>
        <time>2019-09-22T09:35:16.000Z</time>
      </trkpt>
      <trkpt lat="49.17862" lon="5.3601">
        <ele>198.326</ele>
        <time>2019-09-22T09:35:19.001Z</time>
      </trkpt>
      <trkpt lat="49.17859" lon="5.36026">
        <ele>199.075</ele>
        <time>2019-09-22T09:35:22.001Z</time>
      </trkpt>
      <trkpt lat="49.17855" lon="5.36044">
        <ele>199.629</ele>
        <time>2019-09-22T09:35:25.001Z</time>
      </trkpt>
      <trkpt lat="49.17853" lon="5.36061">
        <ele>199.875</ele>
        <time>2019-09-22T09:35:28.001Z</time>
      </trkpt>
      <trkpt lat="49.17852" lon="5.3608">
        <ele>200.419</ele>
        <time>2019-09-22T09:35:31.001Z</time>
      </trkpt>
      <trkpt lat="49.17851" lon="5.361">
        <ele>200.784</ele>
        <time>2019-09-22T09:35:34.001Z</time>
      </trkpt>
      <trkpt lat="49.17851" lon="5.36116">
        <ele>200.849</ele>
        <time>2019-09-22T09:35:37.001Z</time>
      </trkpt>
      <trkpt lat="49.17848" lon="5.36139">
        <ele>201.086</ele>
        <time>2019-09-22T09:35:40.001Z</time>
      </trkpt>
      <trkpt lat="49.17844" lon="5.36162">
        <ele>201.88</ele>
        <time>2019-09-22T09:35:43.001Z</time>
      </trkpt>
      <trkpt lat="49.17841" lon="5.36186">
        <ele>202.549</ele>
        <time>2019-09-22T09:35:46.001Z</time>
      </trkpt>
      <trkpt lat="49.17837" lon="5.36207">
        <ele>203.199</ele>
        <time>2019-09-22T09:35:49.001Z</time>
      </trkpt>
      <trkpt lat="49.17837" lon="5.36227">
        <ele>203.069</ele>
        <time>2019-09-22T09:35:52.001Z</time>
      </trkpt>
      <trkpt lat="49.17836" lon="5.36245">
        <ele>202.765</ele>
        <time>2019-09-22T09:35:55.001Z</time>
      </trkpt>
      <trkpt lat="49.17834" lon="5.36265">
        <ele>202.924</ele>
        <time>2019-09-22T09:35:58.001Z</time>
      </trkpt>
      <trkpt lat="49.17831" lon="5.36285">
        <ele>203.89</ele>
        <time>2019-09-22T09:36:01.001Z</time>
      </trkpt>
      <trkpt lat="49.17828" lon="5.36306">
        <ele>205.046</ele>
        <time>2019-09-22T09:36:04.001Z</time>
      </trkpt>
      <trkpt lat="49.17825" lon="5.36329">
        <ele>205.311</ele>
        <time>2019-09-22T09:36:07.001Z</time>
      </trkpt>
      <trkpt lat="49.1782" lon="5.36356">
        <ele>205.304</ele>
        <time>2019-09-22T09:36:10.001Z</time>
      </trkpt>
      <trkpt lat="49.17815" lon="5.36383">
        <ele>205.163</ele>
        <time>2019-09-22T09:36:13.001Z</time>
      </trkpt>
      <trkpt lat="49.1781" lon="5.36409">
        <ele>204.483</ele>
        <time>2019-09-22T09:36:16.000Z</time>
      </trkpt>
      <trkpt lat="49.17805" lon="5.36435">
        <ele>203.891</ele>
        <time>2019-09-22T09:36:19.001Z</time>
      </trkpt>
      <trkpt lat="49.17802" lon="5.3646">
        <ele>203.477</ele>
        <time>2019-09-22T09:36:22.001Z</time>
      </trkpt>
      <trkpt lat="49.17798" lon="5.36484">
        <ele>203.227</ele>
        <time>2019-09-22T09:36:25.001Z</time>
      </trkpt>
      <trkpt lat="49.17795" lon="5.36508">
        <ele>202.729</ele>
        <time>2019-09-22T09:36:28.001Z</time>
      </trkpt>
      <trkpt lat="49.17793" lon="5.36533">
        <ele>202.736</ele>
        <time>2019-09-22T09:36:31.001Z</time>
      </trkpt>
      <trkpt lat="49.17789" lon="5.36557">
        <ele>202.595</ele>
        <time>2019-09-22T09:36:34.001Z</time>
      </trkpt>
      <trkpt lat="49.17786" lon="5.36582">
        <ele>202.59</ele>
        <time>2019-09-22T09:36:37.001Z</time>
      </trkpt>
      <trkpt lat="49.17782" lon="5.36606">
        <ele>201.989</ele>
        <time>2019-09-22T09:36:40.001Z</time>
      </trkpt>
      <trkpt lat="49.17778" lon="5.3663">
        <ele>200.809</ele>
        <time>2019-09-22T09:36:43.001Z</time>
      </trkpt>
      <trkpt lat="49.17775" lon="5.36653">
        <ele>200.3</ele>
        <time>2019-09-22T09:36:46.001Z</time>
      </trkpt>
      <trkpt lat="49.17772" lon="5.36676">
        <ele>199.787</ele>
        <time>2019-09-22T09:36:49.001Z</time>
      </trkpt>
      <trkpt lat="49.17769" lon="5.36699">
        <ele>199.198</ele>
        <time>2019-09-22T09:36:52.001Z</time>
      </trkpt>
      <trkpt lat="49.17766" lon="5.36722">
        <ele>198.641</ele>
        <time>2019-09-22T09:36:55.001Z</time>
      </trkpt>
      <trkpt lat="49.17764" lon="5.36745">
        <ele>198.47</ele>
        <time>2019-09-22T09:36:58.001Z</time>
      </trkpt>
      <trkpt lat="49.17761" lon="5.36767">
        <ele>198.072</ele>
        <time>2019-09-22T09:37:01.001Z</time>
      </trkpt>
      <trkpt lat="49.17758" lon="5.36791">
        <ele>197.923</ele>
        <time>2019-09-22T09:37:04.001Z</time>
      </trkpt>
      <trkpt lat="49.17756" lon="5.36814">
        <ele>197.967</ele>
        <time>2019-09-22T09:37:07.001Z</time>
      </trkpt>
      <trkpt lat="49.17753" lon="5.36836">
        <ele>198.046</ele>
        <time>2019-09-22T09:37:10.001Z</time>
      </trkpt>
      <trkpt lat="49.1775" lon="5.36857">
        <ele>197.673</ele>
        <time>2019-09-22T09:37:13.001Z</time>
      </trkpt>
      <trkpt lat="49.17747" lon="5.36878">
        <ele>196.409</ele>
        <time>2019-09-22T09:37:16.000Z</time>
      </trkpt>
      <trkpt lat="49.17745" lon="5.36901">
        <ele>196.551</ele>
        <time>2019-09-22T09:37:19.001Z</time>
      </trkpt>
      <trkpt lat="49.17742" lon="5.36924">
        <ele>196.103</ele>
        <time>2019-09-22T09:37:22.001Z</time>
      </trkpt>
      <trkpt lat="49.17736" lon="5.36947">
        <ele>195.402</ele>
        <time>2019-09-22T09:37:25.001Z</time>
      </trkpt>
      <trkpt lat="49.17727" lon="5.3697">
        <ele>194.85</ele>
        <time>2019-09-22T09:37:28.001Z</time>
      </trkpt>
      <trkpt lat="49.1772" lon="5.36995">
        <ele>194.807</ele>
        <time>2019-09-22T09:37:31.001Z</time>
      </trkpt>
      <trkpt lat="49.17717" lon="5.3702">
        <ele>194.567</ele>
        <time>2019-09-22T09:37:34.001Z</time>
      </trkpt>
      <trkpt lat="49.17715" lon="5.37043">
        <ele>194.347</ele>
        <time>2019-09-22T09:37:37.001Z</time>
      </trkpt>
      <trkpt lat="49.17711" lon="5.37066">
        <ele>194.944</ele>
        <time>2019-09-22T09:37:40.001Z</time>
      </trkpt>
      <trkpt lat="49.17707" lon="5.37087">
        <ele>196.245</ele>
        <time>2019-09-22T09:37:43.001Z</time>
      </trkpt>
      <trkpt lat="49.17705" lon="5.37107">
        <ele>196.534</ele>
        <time>2019-09-22T09:37:46.001Z</time>
      </trkpt>
      <trkpt lat="49.17702" lon="5.3713">
        <ele>196.445</ele>
        <time>2019-09-22T09:37:49.001Z</time>
      </trkpt>
      <trkpt lat="49.17699" lon="5.37153">
        <ele>196.569</ele>
        <time>2019-09-22T09:37:52.001Z</time>
      </trkpt>
      <trkpt lat="49.17696" lon="5.37178">
        <ele>196.591</ele>
        <time>2019-09-22T09:37:55.001Z</time>
      </trkpt>
      <trkpt lat="49.17693" lon="5.37203">
        <ele>196.921</ele>
        <time>2019-09-22T09:37:58.001Z</time>
      </trkpt>
      <trkpt lat="49.17691" lon="5.37227">
        <ele>197.208</ele>
        <time>2019-09-22T09:38:01.001Z</time>
      </trkpt>
      <trkpt lat="49.17688" lon="5.37252">
        <ele>197.343</ele>
        <time>2019-09-22T09:38:04.001Z</time>
      </trkpt>
      <trkpt lat="49.17686" lon="5.37275">
        <ele>198.012</ele>
        <time>2019-09-22T09:38:07.001Z</time>
      </trkpt>
      <trkpt lat="49.17682" lon="5.37296">
        <ele>198.956</ele>
        <time>2019-09-22T09:38:10.001Z</time>
      </trkpt>
      <trkpt lat="49.17677" lon="5.37316">
        <ele>200.182</ele>
        <time>2019-09-22T09:38:13.001Z</time>
      </trkpt>
      <trkpt lat="49.17669" lon="5.37337">
        <ele>200.795</ele>
        <time>2019-09-22T09:38:16.000Z</time>
      </trkpt>
      <trkpt lat="49.17661" lon="5.37359">
        <ele>200.188</ele>
        <time>2019-09-22T09:38:19.001Z</time>
      </trkpt>
      <trkpt lat="49.17657" lon="5.3738">
        <ele>199.92</ele>
        <time>2019-09-22T09:38:22.001Z</time>
      </trkpt>
      <trkpt lat="49.17656" lon="5.37401">
        <ele>198.69</ele>
        <time>2019-09-22T09:38:25.001Z</time>
      </trkpt>
      <trkpt lat="49.17655" lon="5.37423">
        <ele>197.732</ele>
        <time>2019-09-22T09:38:28.001Z</time>
      </trkpt>
      <trkpt lat="49.17653" lon="5.37445">
        <ele>197.125</ele>
        <time>2019-09-22T09:38:31.001Z</time>
      </trkpt>
      <trkpt lat="49.17651" lon="5.37466">
        <ele>196.79</ele>
        <time>2019-09-22T09:38:34.001Z</time>
      </trkpt>
      <trkpt lat="49.17648" lon="5.37489">
        <ele>196.696</ele>
        <time>2019-09-22T09:38:37.001Z</time>
      </trkpt>
      <trkpt lat="49.17646" lon="5.37512">
        <ele>196.284</ele>
        <time>2019-09-22T09:38:40.001Z</time>
      </trkpt>
      <trkpt lat="49.17643" lon="5.37537">
        <ele>196.464</ele>
        <time>2019-09-22T09:38:43.001Z</time>
      </trkpt>
      <trkpt lat="49.17641" lon="5.3756">
        <ele>195.885</ele>
        <time>2019-09-22T09:38:46.001Z</time>
      </trkpt>
      <trkpt lat="49.17639" lon="5.37585">
        <ele>195.533</ele>
        <time>2019-09-22T09:38:49.001Z</time>
      </trkpt>
      <trkpt lat="49.17636" lon="5.37609">
        <ele>195.394</ele>
        <time>2019-09-22T09:38:52.001Z</time>
      </trkpt>
      <trkpt lat="49.17634" lon="5.37632">
        <ele>195.28</ele>
        <time>2019-09-22T09:38:55.001Z</time>
      </trkpt>
      <trkpt lat="49.17632" lon="5.37655">
        <ele>195.433</ele>
        <time>2019-09-22T09:38:58.001Z</time>
      </trkpt>
      <trkpt lat="49.17629" lon="5.37676">
        <ele>195.751</ele>
        <time>2019-09-22T09:39:01.001Z</time>
      </trkpt>
      <trkpt lat="49.17628" lon="5.37698">
        <ele>195.963</ele>
        <time>2019-09-22T09:39:04.001Z</time>
      </trkpt>
      <trkpt lat="49.17625" lon="5.3772">
        <ele>196.148</ele>
        <time>2019-09-22T09:39:07.001Z</time>
      </trkpt>
      <trkpt lat="49.17621" lon="5.37744">
        <ele>196.036</ele>
        <time>2019-09-22T09:39:10.001Z</time>
      </trkpt>
      <trkpt lat="49.17615" lon="5.37766">
        <ele>195.572</ele>
        <time>2019-09-22T09:39:13.001Z</time>
      </trkpt>
      <trkpt lat="49.17606" lon="5.37786">
        <ele>194.703</ele>
        <time>2019-09-22T09:39:16.000Z</time>
      </trkpt>
      <trkpt lat="49.17595" lon="5.37801">
        <ele>194.423</ele>
        <time>2019-09-22T09:39:19.001Z</time>
      </trkpt>
      <trkpt lat="49.17583" lon="5.37812">
        <ele>195.037</ele>
        <time>2019-09-22T09:39:22.001Z</time>
      </trkpt>
      <trkpt lat="49.1757" lon="5.37821">
        <ele>195.373</ele>
        <time>2019-09-22T09:39:25.001Z</time>
      </trkpt>
      <trkpt lat="49.17554" lon="5.37829">
        <ele>195.345</ele>
        <time>2019-09-22T09:39:28.001Z</time>
      </trkpt>
      <trkpt lat="49.17538" lon="5.37836">
        <ele>195.553</ele>
        <time>2019-09-22T09:39:31.001Z</time>
      </trkpt>
      <trkpt lat="49.17524" lon="5.37842">
        <ele>196.492</ele>
        <time>2019-09-22T09:39:34.001Z</time>
      </trkpt>
      <trkpt lat="49.17508" lon="5.37846">
        <ele>196.939</ele>
        <time>2019-09-22T09:39:37.001Z</time>
      </trkpt>
      <trkpt lat="49.17494" lon="5.3785">
        <ele>197.458</ele>
        <time>2019-09-22T09:39:40.001Z</time>
      </trkpt>
      <trkpt lat="49.17481" lon="5.37856">
        <ele>198.273</ele>
        <time>2019-09-22T09:39:43.001Z</time>
      </trkpt>
      <trkpt lat="49.17467" lon="5.37861">
        <ele>199.129</ele>
        <time>2019-09-22T09:39:46.001Z</time>
      </trkpt>
      <trkpt lat="49.17452" lon="5.37867">
        <ele>199.671</ele>
        <time>2019-09-22T09:39:49.001Z</time>
      </trkpt>
      <trkpt lat="49.17436" lon="5.37874">
        <ele>200.389</ele>
        <time>2019-09-22T09:39:52.001Z</time>
      </trkpt>
      <trkpt lat="49.17421" lon="5.37879">
        <ele>201.09</ele>
        <time>2019-09-22T09:39:55.001Z</time>
      </trkpt>
      <trkpt lat="49.17406" lon="5.37883">
        <ele>200.897</ele>
        <time>2019-09-22T09:39:58.001Z</time>
      </trkpt>
      <trkpt lat="49.17392" lon="5.37889">
        <ele>200.418</ele>
        <time>2019-09-22T09:40:01.001Z</time>
      </trkpt>
      <trkpt lat="49.17379" lon="5.37895">
        <ele>200.277</ele>
        <time>2019-09-22T09:40:04.001Z</time>
      </trkpt>
      <trkpt lat="49.17366" lon="5.379">
        <ele>199.872</ele>
        <time>2019-09-22T09:40:07.001Z</time>
      </trkpt>
      <trkpt lat="49.17354" lon="5.37906">
        <ele>199.243</ele>
        <time>2019-09-22T09:40:10.001Z</time>
      </trkpt>
      <trkpt lat="49.17341" lon="5.37911">
        <ele>198.916</ele>
        <time>2019-09-22T09:40:13.001Z</time>
      </trkpt>
      <trkpt lat="49.17329" lon="5.37918">
        <ele>198.901</ele>
        <time>2019-09-22T09:40:16.000Z</time>
      </trkpt>
      <trkpt lat="49.17317" lon="5.37928">
        <ele>198.791</ele>
        <time>2019-09-22T09:40:19.001Z</time>
      </trkpt>
      <trkpt lat="49.17306" lon="5.37941">
        <ele>199.233</ele>
        <time>2019-09-22T09:40:22.001Z</time>
      </trkpt>
      <trkpt lat="49.17295" lon="5.37955">
        <ele>198.313</ele>
        <time>2019-09-22T09:40:25.001Z</time>
      </trkpt>
      <trkpt lat="49.17288" lon="5.37971">
        <ele>197.722</ele>
        <time>2019-09-22T09:40:28.001Z</time>
      </trkpt>
      <trkpt lat="49.17281" lon="5.37987">
        <ele>197.587</ele>
        <time>2019-09-22T09:40:31.001Z</time>
      </trkpt>
      <trkpt lat="49.17276" lon="5.38003">
        <ele>197.624</ele>
        <time>2019-09-22T09:40:34.001Z</time>
      </trkpt>
      <trkpt lat="49.1727" lon="5.38017">
        <ele>198.238</ele>
        <time>2019-09-22T09:40:37.001Z</time>
      </trkpt>
      <trkpt lat="49.17268" lon="5.38029">
        <ele>198.663</ele>
        <time>2019-09-22T09:40:40.001Z</time>
      </trkpt>
      <trkpt lat="49.17269" lon="5.38039">
        <ele>199.764</ele>
        <time>2019-09-22T09:40:43.001Z</time>
      </trkpt>
      <trkpt lat="49.17273" lon="5.38046">
        <ele>200.095</ele>
        <time>2019-09-22T09:40:46.001Z</time>
      </trkpt>
      <trkpt lat="49.17279" lon="5.38052">
        <ele>200.224</ele>
        <time>2019-09-22T09:40:49.001Z</time>
      </trkpt>
      <trkpt lat="49.17284" lon="5.3806">
        <ele>199.841</ele>
        <time>2019-09-22T09:40:52.001Z</time>
      </trkpt>
      <trkpt lat="49.17277" lon="5.3808">
        <ele>199.511</ele>
        <time>2019-09-22T09:40:55.001Z</time>
      </trkpt>
      <trkpt lat="49.17267" lon="5.38107">
        <ele>199.302</ele>
        <time>2019-09-22T09:40:58.001Z</time>
      </trkpt>
      <trkpt lat="49.17256" lon="5.38138">
        <ele>199.504</ele>
        <time>2019-09-22T09:41:01.001Z</time>
      </trkpt>
      <trkpt lat="49.17247" lon="5.38166">
        <ele>199.654</ele>
        <time>2019-09-22T09:41:04.001Z</time>
      </trkpt>
      <trkpt lat="49.1724" lon="5.38191">
        <ele>199.771</ele>
        <time>2019-09-22T09:41:07.001Z</time>
      </trkpt>
      <trkpt lat="49.17235" lon="5.38216">
        <ele>199.192</ele>
        <time>2019-09-22T09:41:10.001Z</time>
      </trkpt>
      <trkpt lat="49.17231" lon="5.38237">
        <ele>199.175</ele>
        <time>2019-09-22T09:41:13.001Z</time>
      </trkpt>
      <trkpt lat="49.17225" lon="5.38253">
        <ele>199.466</ele>
        <time>2019-09-22T09:41:16.000Z</time>
      </trkpt>
      <trkpt lat="49.17219" lon="5.38268">
        <ele>200.49</ele>
        <time>2019-09-22T09:41:19.001Z</time>
      </trkpt>
      <trkpt lat="49.17209" lon="5.3828">
        <ele>201.613</ele>
        <time>2019-09-22T09:41:22.001Z</time>
      </trkpt>
      <trkpt lat="49.17199" lon="5.38294">
        <ele>201.994</ele>
        <time>2019-09-22T09:41:25.001Z</time>
      </trkpt>
      <trkpt lat="49.1719" lon="5.38309">
        <ele>201.635</ele>
        <time>2019-09-22T09:41:28.001Z</time>
      </trkpt>
      <trkpt lat="49.17181" lon="5.38325">
        <ele>200.556</ele>
        <time>2019-09-22T09:41:31.001Z</time>
      </trkpt>
      <trkpt lat="49.1717" lon="5.3834">
        <ele>200.417</ele>
        <time>2019-09-22T09:41:34.001Z</time>
      </trkpt>
      <trkpt lat="49.1716" lon="5.38357">
        <ele>200.054</ele>
        <time>2019-09-22T09:41:37.001Z</time>
      </trkpt>
      <trkpt lat="49.17149" lon="5.38372">
        <ele>199.623</ele>
        <time>2019-09-22T09:41:40.001Z</time>
      </trkpt>
      <trkpt lat="49.17138" lon="5.38385">
        <ele>199.343</ele>
        <time>2019-09-22T09:41:43.001Z</time>
      </trkpt>
      <trkpt lat="49.17127" lon="5.384">
        <ele>198.763</ele>
        <time>2019-09-22T09:41:46.001Z</time>
      </trkpt>
      <trkpt lat="49.17116" lon="5.38417">
        <ele>198.244</ele>
        <time>2019-09-22T09:41:49.001Z</time>
      </trkpt>
      <trkpt lat="49.17105" lon="5.38434">
        <ele>197.747</ele>
        <time>2019-09-22T09:41:52.001Z</time>
      </trkpt>
      <trkpt lat="49.17094" lon="5.3845">
        <ele>196.948</ele>
        <time>2019-09-22T09:41:55.001Z</time>
      </trkpt>
      <trkpt lat="49.17082" lon="5.38465">
        <ele>196.82</ele>
        <time>2019-09-22T09:41:58.001Z</time>
      </trkpt>
      <trkpt lat="49.17069" lon="5.38478">
        <ele>196.683</ele>
        <time>2019-09-22T09:42:01.001Z</time>
      </trkpt>
      <trkpt lat="49.17056" lon="5.38489">
        <ele>196.641</ele>
        <time>2019-09-22T09:42:04.001Z</time>
      </trkpt>
      <trkpt lat="49.17043" lon="5.38502">
        <ele>196.539</ele>
        <time>2019-09-22T09:42:07.001Z</time>
      </trkpt>
      <trkpt lat="49.1703" lon="5.38514">
        <ele>196.609</ele>
        <time>2019-09-22T09:42:10.001Z</time>
      </trkpt>
      <trkpt lat="49.17017" lon="5.38525">
        <ele>197.093</ele>
        <time>2019-09-22T09:42:13.001Z</time>
      </trkpt>
      <trkpt lat="49.17006" lon="5.38536">
        <ele>197.337</ele>
        <time>2019-09-22T09:42:16.000Z</time>
      </trkpt>
      <trkpt lat="49.16995" lon="5.38546">
        <ele>197.595</ele>
        <time>2019-09-22T09:42:19.001Z</time>
      </trkpt>
      <trkpt lat="49.16983" lon="5.38558">
        <ele>198.066</ele>
        <time>2019-09-22T09:42:22.001Z</time>
      </trkpt>
      <trkpt lat="49.16971" lon="5.38568">
        <ele>198.146</ele>
        <time>2019-09-22T09:42:25.001Z</time>
      </trkpt>
      <trkpt lat="49.16958" lon="5.38579">
        <ele>197.975</ele>
        <time>2019-09-22T09:42:28.001Z</time>
      </trkpt>
      <trkpt lat="49.16945" lon="5.38591">
        <ele>198.397</ele>
        <time>2019-09-22T09:42:31.001Z</time>
      </trkpt>
      <trkpt lat="49.16931" lon="5.38603">
        <ele>198.464</ele>
        <time>2019-09-22T09:42:34.001Z</time>
      </trkpt>
      <trkpt lat="49.16917" lon="5.38612">
        <ele>198.932</ele>
        <time>2019-09-22T09:42:37.001Z</time>
      </trkpt>
      <trkpt lat="49.16902" lon="5.3862">
        <ele>198.864</ele>
        <time>2019-09-22T09:42:40.001Z</time>
      </trkpt>
      <trkpt lat="49.16887" lon="5.38625">
        <ele>198.906</ele>
        <time>2019-09-22T09:42:43.001Z</time>
      </trkpt>
      <trkpt lat="49.16873" lon="5.38628">
        <ele>199.128</ele>
        <time>2019-09-22T09:42:46.001Z</time>
      </trkpt>
      <trkpt lat="49.16858" lon="5.38632">
        <ele>198.716</ele>
        <time>2019-09-22T09:42:49.001Z</time>
      </trkpt>
      <trkpt lat="49.16844" lon="5.38637">
        <ele>198.147</ele>
        <time>2019-09-22T09:42:52.001Z</time>
      </trkpt>
      <trkpt lat="49.16828" lon="5.38641">
        <ele>197.658</ele>
        <time>2019-09-22T09:42:55.001Z</time>
      </trkpt>
      <trkpt lat="49.16812" lon="5.38646">
        <ele>197.689</ele>
        <time>2019-09-22T09:42:58.001Z</time>
      </trkpt>
      <trkpt lat="49.16796" lon="5.38651">
        <ele>197.997</ele>
        <time>2019-09-22T09:43:01.001Z</time>
      </trkpt>
      <trkpt lat="49.16781" lon="5.38654">
        <ele>198.467</ele>
        <time>2019-09-22T09:43:04.001Z</time>
      </trkpt>
      <trkpt lat="49.16765" lon="5.38654">
        <ele>198.891</ele>
        <time>2019-09-22T09:43:07.001Z</time>
      </trkpt>
      <trkpt lat="49.16745" lon="5.38659">
        <ele>199.826</ele>
        <time>2019-09-22T09:43:10.001Z</time>
      </trkpt>
      <trkpt lat="49.16729" lon="5.38666">
        <ele>201.136</ele>
        <time>2019-09-22T09:43:13.001Z</time>
      </trkpt>
      <trkpt lat="49.16716" lon="5.38671">
        <ele>201.298</ele>
        <time>2019-09-22T09:43:16.000Z</time>
      </trkpt>
      <trkpt lat="49.16702" lon="5.38677">
        <ele>200.686</ele>
        <time>2019-09-22T09:43:19.001Z</time>
      </trkpt>
      <trkpt lat="49.16688" lon="5.38683">
        <ele>199.488</ele>
        <time>2019-09-22T09:43:22.001Z</time>
      </trkpt>
      <trkpt lat="49.16674" lon="5.38686">
        <ele>198.887</ele>
        <time>2019-09-22T09:43:25.001Z</time>
      </trkpt>
      <trkpt lat="49.1666" lon="5.38692">
        <ele>198.64</ele>
        <time>2019-09-22T09:43:28.001Z</time>
      </trkpt>
      <trkpt lat="49.16645" lon="5.38698">
        <ele>199.217</ele>
        <time>2019-09-22T09:43:31.001Z</time>
      </trkpt>
      <trkpt lat="49.1663" lon="5.38704">
        <ele>199.697</ele>
        <time>2019-09-22T09:43:34.001Z</time>
      </trkpt>
      <trkpt lat="49.16613" lon="5.38711">
        <ele>200.008</ele>
        <time>2019-09-22T09:43:37.001Z</time>
      </trkpt>
      <trkpt lat="49.16597" lon="5.38717">
        <ele>200.063</ele>
        <time>2019-09-22T09:43:40.001Z</time>
      </trkpt>
      <trkpt lat="49.1658" lon="5.38724">
        <ele>200.496</ele>
        <time>2019-09-22T09:43:43.001Z</time>
      </trkpt>
      <trkpt lat="49.16565" lon="5.38728">
        <ele>201.027</ele>
        <time>2019-09-22T09:43:46.001Z</time>
      </trkpt>
      <trkpt lat="49.16552" lon="5.38733">
        <ele>200.765</ele>
        <time>2019-09-22T09:43:49.001Z</time>
      </trkpt>
      <trkpt lat="49.16538" lon="5.38739">
        <ele>200.101</ele>
        <time>2019-09-22T09:43:52.001Z</time>
      </trkpt>
      <trkpt lat="49.16527" lon="5.38744">
        <ele>199.47</ele>
        <time>2019-09-22T09:43:55.001Z</time>
      </trkpt>
      <trkpt lat="49.16515" lon="5.38746">
        <ele>199.251</ele>
        <time>2019-09-22T09:43:58.001Z</time>
      </trkpt>
      <trkpt lat="49.16503" lon="5.3875">
        <ele>198.291</ele>
        <time>2019-09-22T09:44:01.001Z</time>
      </trkpt>
      <trkpt lat="49.16492" lon="5.38752">
        <ele>197.05</ele>
        <time>2019-09-22T09:44:04.001Z</time>
      </trkpt>
      <trkpt lat="49.16482" lon="5.38754">
        <ele>196.283</ele>
        <time>2019-09-22T09:44:07.001Z</time>
      </trkpt>
      <trkpt lat="49.16473" lon="5.38755">
        <ele>196.32</ele>
        <time>2019-09-22T09:44:10.001Z</time>
      </trkpt>
      <trkpt lat="49.16465" lon="5.38756">
        <ele>196.456</ele>
        <time>2019-09-22T09:44:13.001Z</time>
      </trkpt>
      <trkpt lat="49.16454" lon="5.38758">
        <ele>197.196</ele>
        <time>2019-09-22T09:44:16.000Z</time>
      </trkpt>
      <trkpt lat="49.16441" lon="5.38757">
        <ele>197.478</ele>
        <time>2019-09-22T09:44:19.001Z</time>
      </trkpt>
      <trkpt lat="49.16428" lon="5.38757">
        <ele>196.823</ele>
        <time>2019-09-22T09:44:22.001Z</time>
      </trkpt>
      <trkpt lat="49.16417" lon="5.38756">
        <ele>196.694</ele>
        <time>2019-09-22T09:44:25.001Z</time>
      </trkpt>
      <trkpt lat="49.16408" lon="5.38758">
        <ele>196.46</ele>
        <time>2019-09-22T09:44:28.001Z</time>
      </trkpt>
      <trkpt lat="49.16401" lon="5.3876">
        <ele>195.912</ele>
        <time>2019-09-22T09:44:31.001Z</time>
      </trkpt>
      <trkpt lat="49.16393" lon="5.38758">
        <ele>195.596</ele>
        <time>2019-09-22T09:44:34.001Z</time>
      </trkpt>
      <trkpt lat="49.16387" lon="5.38757">
        <ele>194.891</ele>
        <time>2019-09-22T09:44:37.001Z</time>
      </trkpt>
      <trkpt lat="49.16387" lon="5.38757">
        <ele>194.891</ele>
        <time>2019-09-22T09:44:43.001Z</time>
      </trkpt>
      <trkpt lat="49.16383" lon="5.38759">
        <ele>195.391</ele>
        <time>2019-09-22T09:44:46.001Z</time>
      </trkpt>
      <trkpt lat="49.16376" lon="5.38758">
        <ele>194.775</ele>
        <time>2019-09-22T09:44:49.001Z</time>
      </trkpt>
      <trkpt lat="49.16368" lon="5.38757">
        <ele>194.737</ele>
        <time>2019-09-22T09:44:52.001Z</time>
      </trkpt>
      <trkpt lat="49.16361" lon="5.38755">
        <ele>194.596</ele>
        <time>2019-09-22T09:44:55.001Z</time>
      </trkpt>
      <trkpt lat="49.16354" lon="5.38753">
        <ele>194.977</ele>
        <time>2019-09-22T09:44:58.001Z</time>
      </trkpt>
      <trkpt lat="49.16347" lon="5.38753">
        <ele>196.99</ele>
        <time>2019-09-22T09:45:01.001Z</time>
      </trkpt>
      <trkpt lat="49.16336" lon="5.38753">
        <ele>198.235</ele>
        <time>2019-09-22T09:45:04.001Z</time>
      </trkpt>
      <trkpt lat="49.16326" lon="5.38753">
        <ele>199.591</ele>
        <time>2019-09-22T09:45:07.001Z</time>
      </trkpt>
      <trkpt lat="49.16318" lon="5.38752">
        <ele>200.508</ele>
        <time>2019-09-22T09:45:10.001Z</time>
      </trkpt>
      <trkpt lat="49.16311" lon="5.3875">
        <ele>201.408</ele>
        <time>2019-09-22T09:45:13.001Z</time>
      </trkpt>
      <trkpt lat="49.16303" lon="5.3875">
        <ele>202.941</ele>
        <time>2019-09-22T09:45:16.000Z</time>
      </trkpt>
      <trkpt lat="49.16295" lon="5.38747">
        <ele>204.067</ele>
        <time>2019-09-22T09:45:19.001Z</time>
      </trkpt>
      <trkpt lat="49.16287" lon="5.38745">
        <ele>204.285</ele>
        <time>2019-09-22T09:45:22.001Z</time>
      </trkpt>
      <trkpt lat="49.16281" lon="5.38745">
        <ele>204.841</ele>
        <time>2019-09-22T09:45:25.001Z</time>
      </trkpt>
      <trkpt lat="49.16271" lon="5.38746">
        <ele>202.852</ele>
        <time>2019-09-22T09:45:31.001Z</time>
      </trkpt>
      <trkpt lat="49.16264" lon="5.38748">
        <ele>200.22</ele>
        <time>2019-09-22T09:45:34.001Z</time>
      </trkpt>
      <trkpt lat="49.16257" lon="5.38749">
        <ele>198.053</ele>
        <time>2019-09-22T09:45:37.001Z</time>
      </trkpt>
      <trkpt lat="49.16253" lon="5.38747">
        <ele>197.291</ele>
        <time>2019-09-22T09:45:40.001Z</time>
      </trkpt>
      <trkpt lat="49.16247" lon="5.38746">
        <ele>197.275</ele>
        <time>2019-09-22T09:45:43.001Z</time>
      </trkpt>
      <trkpt lat="49.16238" lon="5.38744">
        <ele>197.312</ele>
        <time>2019-09-22T09:45:46.001Z</time>
      </trkpt>
      <trkpt lat="49.16229" lon="5.38744">
        <ele>197.033</ele>
        <time>2019-09-22T09:45:49.001Z</time>
      </trkpt>
      <trkpt lat="49.1622" lon="5.38742">
        <ele>196.357</ele>
        <time>2019-09-22T09:45:52.001Z</time>
      </trkpt>
      <trkpt lat="49.16213" lon="5.3874">
        <ele>196.644</ele>
        <time>2019-09-22T09:45:55.001Z</time>
      </trkpt>
      <trkpt lat="49.16208" lon="5.38738">
        <ele>196.38</ele>
        <time>2019-09-22T09:45:58.001Z</time>
      </trkpt>
      <trkpt lat="49.16203" lon="5.38737">
        <ele>195.734</ele>
        <time>2019-09-22T09:46:01.001Z</time>
      </trkpt>
      <trkpt lat="49.16197" lon="5.38738">
        <ele>195.999</ele>
        <time>2019-09-22T09:46:07.001Z</time>
      </trkpt>
      <trkpt lat="49.1619" lon="5.3874">
        <ele>196.865</ele>
        <time>2019-09-22T09:46:10.001Z</time>
      </trkpt>
      <trkpt lat="49.16182" lon="5.38742">
        <ele>197.627</ele>
        <time>2019-09-22T09:46:13.001Z</time>
      </trkpt>
      <trkpt lat="49.16172" lon="5.38744">
        <ele>198.297</ele>
        <time>2019-09-22T09:46:16.000Z</time>
      </trkpt>
      <trkpt lat="49.16164" lon="5.38747">
        <ele>197.468</ele>
        <time>2019-09-22T09:46:19.001Z</time>
      </trkpt>
      <trkpt lat="49.16158" lon="5.38747">
        <ele>196.824</ele>
        <time>2019-09-22T09:46:22.001Z</time>
      </trkpt>
      <trkpt lat="49.16151" lon="5.38745">
        <ele>196.822</ele>
        <time>2019-09-22T09:46:25.001Z</time>
      </trkpt>
      <trkpt lat="49.16147" lon="5.38743">
        <ele>196.605</ele>
        <time>2019-09-22T09:46:28.001Z</time>
      </trkpt>
      <trkpt lat="49.16147" lon="5.38743">
        <ele>196.605</ele>
        <time>2019-09-22T09:48:07.001Z</time>
      </trkpt>
      <trkpt lat="49.1614" lon="5.38742">
        <ele>196.876</ele>
        <time>2019-09-22T09:48:10.001Z</time>
      </trkpt>
      <trkpt lat="49.16133" lon="5.38738">
        <ele>197.875</ele>
        <time>2019-09-22T09:48:13.001Z</time>
      </trkpt>
      <trkpt lat="49.16124" lon="5.38732">
        <ele>199.462</ele>
        <time>2019-09-22T09:48:16.000Z</time>
      </trkpt>
      <trkpt lat="49.16114" lon="5.38726">
        <ele>200.264</ele>
        <time>2019-09-22T09:48:19.001Z</time>
      </trkpt>
      <trkpt lat="49.16105" lon="5.3872">
        <ele>200.896</ele>
        <time>2019-09-22T09:48:22.001Z</time>
      </trkpt>
      <trkpt lat="49.16095" lon="5.38714">
        <ele>201.6</ele>
        <time>2019-09-22T09:48:25.001Z</time>
      </trkpt>
      <trkpt lat="49.16085" lon="5.38705">
        <ele>202.395</ele>
        <time>2019-09-22T09:48:28.001Z</time>
      </trkpt>
      <trkpt lat="49.16073" lon="5.38696">
        <ele>203.589</ele>
        <time>2019-09-22T09:48:31.001Z</time>
      </trkpt>
      <trkpt lat="49.1606" lon="5.38687">
        <ele>203.8</ele>
        <time>2019-09-22T09:48:34.001Z</time>
      </trkpt>
      <trkpt lat="49.16052" lon="5.38678">
        <ele>205.932</ele>
        <time>2019-09-22T09:48:37.001Z</time>
      </trkpt>
      <trkpt lat="49.16043" lon="5.38669">
        <ele>207.21</ele>
        <time>2019-09-22T09:48:40.001Z</time>
      </trkpt>
      <trkpt lat="49.16035" lon="5.38663">
        <ele>208.004</ele>
        <time>2019-09-22T09:48:43.001Z</time>
      </trkpt>
      <trkpt lat="49.16026" lon="5.38658">
        <ele>208.417</ele>
        <time>2019-09-22T09:48:46.001Z</time>
      </trkpt>
      <trkpt lat="49.16017" lon="5.38652">
        <ele>208.273</ele>
        <time>2019-09-22T09:48:49.001Z</time>
      </trkpt>
      <trkpt lat="49.16005" lon="5.38639">
        <ele>209.068</ele>
        <time>2019-09-22T09:48:52.001Z</time>
      </trkpt>
      <trkpt lat="49.15992" lon="5.38628">
        <ele>208.369</ele>
        <time>2019-09-22T09:48:55.001Z</time>
      </trkpt>
      <trkpt lat="49.15982" lon="5.38621">
        <ele>206.824</ele>
        <time>2019-09-22T09:48:58.001Z</time>
      </trkpt>
      <trkpt lat="49.15979" lon="5.38611">
        <ele>208.626</ele>
        <time>2019-09-22T09:49:01.001Z</time>
      </trkpt>
      <trkpt lat="49.15973" lon="5.38607">
        <ele>208.731</ele>
        <time>2019-09-22T09:49:04.001Z</time>
      </trkpt>
      <trkpt lat="49.15969" lon="5.38599">
        <ele>208.927</ele>
        <time>2019-09-22T09:49:07.001Z</time>
      </trkpt>
      <trkpt lat="49.15961" lon="5.38594">
        <ele>207.19</ele>
        <time>2019-09-22T09:49:10.001Z</time>
      </trkpt>
      <trkpt lat="49.15954" lon="5.3859">
        <ele>205.541</ele>
        <time>2019-09-22T09:49:13.001Z</time>
      </trkpt>
      <trkpt lat="49.15949" lon="5.38586">
        <ele>205.873</ele>
        <time>2019-09-22T09:49:16.000Z</time>
      </trkpt>
      <trkpt lat="49.15944" lon="5.38578">
        <ele>205.892</ele>
        <time>2019-09-22T09:49:19.001Z</time>
      </trkpt>
      <trkpt lat="49.15942" lon="5.38566">
        <ele>205.559</ele>
        <time>2019-09-22T09:49:22.001Z</time>
      </trkpt>
      <trkpt lat="49.15942" lon="5.38557">
        <ele>203.375</ele>
        <time>2019-09-22T09:49:25.001Z</time>
      </trkpt>
      <trkpt lat="49.15943" lon="5.38552">
        <ele>201.944</ele>
        <time>2019-09-22T09:49:28.001Z</time>
      </trkpt>
      <trkpt lat="49.15944" lon="5.3855">
        <ele>201.679</ele>
        <time>2019-09-22T09:52:34.001Z</time>
      </trkpt>
      <trkpt lat="49.15942" lon="5.38554">
        <ele>201.507</ele>
        <time>2019-09-22T09:52:37.001Z</time>
      </trkpt>
      <trkpt lat="49.15939" lon="5.38563">
        <ele>201.573</ele>
        <time>2019-09-22T09:52:40.001Z</time>
      </trkpt>
      <trkpt lat="49.15937" lon="5.38569">
        <ele>201.272</ele>
        <time>2019-09-22T09:52:43.001Z</time>
      </trkpt>
      <trkpt lat="49.15937" lon="5.38568">
        <ele>201.311</ele>
        <time>2019-09-22T09:52:46.001Z</time>
      </trkpt>
      <trkpt lat="49.15937" lon="5.3857">
        <ele>201.389</ele>
        <time>2019-09-22T09:52:49.001Z</time>
      </trkpt>
      <trkpt lat="49.15945" lon="5.38579">
        <ele>201.692</ele>
        <time>2019-09-22T09:52:55.001Z</time>
      </trkpt>
      <trkpt lat="49.15954" lon="5.38585">
        <ele>202.023</ele>
        <time>2019-09-22T09:52:58.001Z</time>
      </trkpt>
      <trkpt lat="49.15964" lon="5.38592">
        <ele>202.601</ele>
        <time>2019-09-22T09:53:01.001Z</time>
      </trkpt>
      <trkpt lat="49.15974" lon="5.38601">
        <ele>202.837</ele>
        <time>2019-09-22T09:53:04.001Z</time>
      </trkpt>
      <trkpt lat="49.15985" lon="5.3861">
        <ele>202.978</ele>
        <time>2019-09-22T09:53:07.001Z</time>
      </trkpt>
      <trkpt lat="49.15997" lon="5.38619">
        <ele>202.704</ele>
        <time>2019-09-22T09:53:10.001Z</time>
      </trkpt>
      <trkpt lat="49.16009" lon="5.3863">
        <ele>201.953</ele>
        <time>2019-09-22T09:53:13.001Z</time>
      </trkpt>
      <trkpt lat="49.16021" lon="5.3864">
        <ele>201.543</ele>
        <time>2019-09-22T09:53:16.000Z</time>
      </trkpt>
      <trkpt lat="49.16033" lon="5.38651">
        <ele>200.947</ele>
        <time>2019-09-22T09:53:19.001Z</time>
      </trkpt>
      <trkpt lat="49.16042" lon="5.3866">
        <ele>200.551</ele>
        <time>2019-09-22T09:53:22.001Z</time>
      </trkpt>
      <trkpt lat="49.16048" lon="5.38665">
        <ele>199.57</ele>
        <time>2019-09-22T09:53:25.001Z</time>
      </trkpt>
      <trkpt lat="49.16051" lon="5.38667">
        <ele>199.495</ele>
        <time>2019-09-22T09:53:28.001Z</time>
      </trkpt>
      <trkpt lat="49.16052" lon="5.38667">
        <ele>199.795</ele>
        <time>2019-09-22T09:53:31.001Z</time>
      </trkpt>
      <trkpt lat="49.16052" lon="5.38667">
        <ele>199.795</ele>
        <time>2019-09-22T09:53:55.001Z</time>
      </trkpt>
      <trkpt lat="49.16052" lon="5.38668">
        <ele>199.882</ele>
        <time>2019-09-22T09:53:58.001Z</time>
      </trkpt>
      <trkpt lat="49.16045" lon="5.38666">
        <ele>199.335</ele>
        <time>2019-09-22T09:54:04.001Z</time>
      </trkpt>
      <trkpt lat="49.1604" lon="5.3866">
        <ele>198.623</ele>
        <time>2019-09-22T09:54:07.001Z</time>
      </trkpt>
      <trkpt lat="49.16036" lon="5.38656">
        <ele>198.632</ele>
        <time>2019-09-22T09:54:10.001Z</time>
      </trkpt>
      <trkpt lat="49.16026" lon="5.38648">
        <ele>199.879</ele>
        <time>2019-09-22T09:54:16.000Z</time>
      </trkpt>
      <trkpt lat="49.16019" lon="5.38644">
        <ele>199.865</ele>
        <time>2019-09-22T09:54:19.001Z</time>
      </trkpt>
      <trkpt lat="49.16012" lon="5.38638">
        <ele>199.443</ele>
        <time>2019-09-22T09:54:22.001Z</time>
      </trkpt>
      <trkpt lat="49.16005" lon="5.3863">
        <ele>199.9</ele>
        <time>2019-09-22T09:54:25.001Z</time>
      </trkpt>
      <trkpt lat="49.15999" lon="5.38623">
        <ele>199.019</ele>
        <time>2019-09-22T09:54:28.001Z</time>
      </trkpt>
      <trkpt lat="49.15992" lon="5.38616">
        <ele>198.365</ele>
        <time>2019-09-22T09:54:31.001Z</time>
      </trkpt>
      <trkpt lat="49.15985" lon="5.38609">
        <ele>197.408</ele>
        <time>2019-09-22T09:54:34.001Z</time>
      </trkpt>
      <trkpt lat="49.15978" lon="5.38602">
        <ele>197.166</ele>
        <time>2019-09-22T09:54:37.001Z</time>
      </trkpt>
      <trkpt lat="49.15972" lon="5.38596">
        <ele>197.211</ele>
        <time>2019-09-22T09:54:40.001Z</time>
      </trkpt>
      <trkpt lat="49.15965" lon="5.38587">
        <ele>196.92</ele>
        <time>2019-09-22T09:54:43.001Z</time>
      </trkpt>
      <trkpt lat="49.15958" lon="5.3858">
        <ele>196.474</ele>
        <time>2019-09-22T09:54:46.001Z</time>
      </trkpt>
      <trkpt lat="49.1595" lon="5.38572">
        <ele>196.375</ele>
        <time>2019-09-22T09:54:49.001Z</time>
      </trkpt>
      <trkpt lat="49.15943" lon="5.38564">
        <ele>195.87</ele>
        <time>2019-09-22T09:54:52.001Z</time>
      </trkpt>
      <trkpt lat="49.15939" lon="5.38557">
        <ele>195.888</ele>
        <time>2019-09-22T09:54:55.001Z</time>
      </trkpt>
      <trkpt lat="49.15932" lon="5.38549">
        <ele>195.726</ele>
        <time>2019-09-22T09:54:58.001Z</time>
      </trkpt>
      <trkpt lat="49.15924" lon="5.3854">
        <ele>196.208</ele>
        <time>2019-09-22T09:55:01.001Z</time>
      </trkpt>
      <trkpt lat="49.15916" lon="5.38533">
        <ele>197.129</ele>
        <time>2019-09-22T09:55:04.001Z</time>
      </trkpt>
      <trkpt lat="49.15905" lon="5.38523">
        <ele>198.186</ele>
        <time>2019-09-22T09:55:07.001Z</time>
      </trkpt>
      <trkpt lat="49.15893" lon="5.38514">
        <ele>199.949</ele>
        <time>2019-09-22T09:55:10.001Z</time>
      </trkpt>
      <trkpt lat="49.15884" lon="5.38513">
        <ele>202.166</ele>
        <time>2019-09-22T09:55:13.001Z</time>
      </trkpt>
      <trkpt lat="49.15876" lon="5.38518">
        <ele>203.348</ele>
        <time>2019-09-22T09:55:16.000Z</time>
      </trkpt>
      <trkpt lat="49.15865" lon="5.38531">
        <ele>203.573</ele>
        <time>2019-09-22T09:55:19.001Z</time>
      </trkpt>
      <trkpt lat="49.15855" lon="5.38546">
        <ele>203.843</ele>
        <time>2019-09-22T09:55:22.001Z</time>
      </trkpt>
      <trkpt lat="49.15845" lon="5.38561">
        <ele>203.659</ele>
        <time>2019-09-22T09:55:25.001Z</time>
      </trkpt>
      <trkpt lat="49.15836" lon="5.38575">
        <ele>203.412</ele>
        <time>2019-09-22T09:55:28.001Z</time>
      </trkpt>
      <trkpt lat="49.15828" lon="5.38588">
        <ele>203.197</ele>
        <time>2019-09-22T09:55:31.001Z</time>
      </trkpt>
      <trkpt lat="49.15819" lon="5.38601">
        <ele>203.502</ele>
        <time>2019-09-22T09:55:34.001Z</time>
      </trkpt>
      <trkpt lat="49.1581" lon="5.38608">
        <ele>203.787</ele>
        <time>2019-09-22T09:55:37.001Z</time>
      </trkpt>
      <trkpt lat="49.15802" lon="5.38615">
        <ele>203.211</ele>
        <time>2019-09-22T09:55:40.001Z</time>
      </trkpt>
      <trkpt lat="49.1579" lon="5.38626">
        <ele>202.986</ele>
        <time>2019-09-22T09:55:43.001Z</time>
      </trkpt>
      <trkpt lat="49.15777" lon="5.38639">
        <ele>202.151</ele>
        <time>2019-09-22T09:55:46.001Z</time>
      </trkpt>
      <trkpt lat="49.15766" lon="5.38651">
        <ele>201.147</ele>
        <time>2019-09-22T09:55:49.001Z</time>
      </trkpt>
      <trkpt lat="49.15754" lon="5.3866">
        <ele>200.011</ele>
        <time>2019-09-22T09:55:52.001Z</time>
      </trkpt>
      <trkpt lat="49.15742" lon="5.38667">
        <ele>199.836</ele>
        <time>2019-09-22T09:55:55.001Z</time>
      </trkpt>
      <trkpt lat="49.15729" lon="5.38671">
        <ele>199.705</ele>
        <time>2019-09-22T09:55:58.001Z</time>
      </trkpt>
      <trkpt lat="49.15716" lon="5.38669">
        <ele>200.438</ele>
        <time>2019-09-22T09:56:01.001Z</time>
      </trkpt>
      <trkpt lat="49.15704" lon="5.38665">
        <ele>201.85</ele>
        <time>2019-09-22T09:56:04.001Z</time>
      </trkpt>
      <trkpt lat="49.1569" lon="5.38654">
        <ele>201.905</ele>
        <time>2019-09-22T09:56:07.001Z</time>
      </trkpt>
      <trkpt lat="49.15679" lon="5.38643">
        <ele>202.479</ele>
        <time>2019-09-22T09:56:10.001Z</time>
      </trkpt>
      <trkpt lat="49.15669" lon="5.38631">
        <ele>203.297</ele>
        <time>2019-09-22T09:56:13.001Z</time>
      </trkpt>
      <trkpt lat="49.15658" lon="5.38618">
        <ele>205.157</ele>
        <time>2019-09-22T09:56:16.000Z</time>
      </trkpt>
      <trkpt lat="49.15646" lon="5.38606">
        <ele>206.423</ele>
        <time>2019-09-22T09:56:19.001Z</time>
      </trkpt>
      <trkpt lat="49.15636" lon="5.38595">
        <ele>207.334</ele>
        <time>2019-09-22T09:56:22.001Z</time>
      </trkpt>
      <trkpt lat="49.15624" lon="5.38584">
        <ele>207.809</ele>
        <time>2019-09-22T09:56:25.001Z</time>
      </trkpt>
      <trkpt lat="49.15615" lon="5.38576">
        <ele>208.255</ele>
        <time>2019-09-22T09:56:28.001Z</time>
      </trkpt>
      <trkpt lat="49.15605" lon="5.38568">
        <ele>208.1</ele>
        <time>2019-09-22T09:56:31.001Z</time>
      </trkpt>
      <trkpt lat="49.15595" lon="5.3856">
        <ele>208.327</ele>
        <time>2019-09-22T09:56:34.001Z</time>
      </trkpt>
      <trkpt lat="49.15585" lon="5.38552">
        <ele>208.48</ele>
        <time>2019-09-22T09:56:37.001Z</time>
      </trkpt>
      <trkpt lat="49.15574" lon="5.38546">
        <ele>208.306</ele>
        <time>2019-09-22T09:56:40.001Z</time>
      </trkpt>
      <trkpt lat="49.15564" lon="5.3854">
        <ele>208.963</ele>
        <time>2019-09-22T09:56:43.001Z</time>
      </trkpt>
      <trkpt lat="49.15553" lon="5.38534">
        <ele>209.246</ele>
        <time>2019-09-22T09:56:46.001Z</time>
      </trkpt>
      <trkpt lat="49.15541" lon="5.38526">
        <ele>209.173</ele>
        <time>2019-09-22T09:56:49.001Z</time>
      </trkpt>
      <trkpt lat="49.15528" lon="5.3852">
        <ele>208.222</ele>
        <time>2019-09-22T09:56:52.001Z</time>
      </trkpt>
      <trkpt lat="49.15515" lon="5.38514">
        <ele>206.406</ele>
        <time>2019-09-22T09:56:55.001Z</time>
      </trkpt>
      <trkpt lat="49.15504" lon="5.38508">
        <ele>205.202</ele>
        <time>2019-09-22T09:56:58.001Z</time>
      </trkpt>
      <trkpt lat="49.15493" lon="5.38503">
        <ele>203.537</ele>
        <time>2019-09-22T09:57:01.001Z</time>
      </trkpt>
      <trkpt lat="49.15479" lon="5.38498">
        <ele>200.044</ele>
        <time>2019-09-22T09:57:04.001Z</time>
      </trkpt>
      <trkpt lat="49.15465" lon="5.3849">
        <ele>198.219</ele>
        <time>2019-09-22T09:57:07.001Z</time>
      </trkpt>
      <trkpt lat="49.15452" lon="5.38481">
        <ele>196.987</ele>
        <time>2019-09-22T09:57:10.001Z</time>
      </trkpt>
      <trkpt lat="49.15441" lon="5.38474">
        <ele>196.329</ele>
        <time>2019-09-22T09:57:13.001Z</time>
      </trkpt>
      <trkpt lat="49.1543" lon="5.38466">
        <ele>196.877</ele>
        <time>2019-09-22T09:57:16.000Z</time>
      </trkpt>
      <trkpt lat="49.15418" lon="5.38455">
        <ele>197.532</ele>
        <time>2019-09-22T09:57:19.001Z</time>
      </trkpt>
      <trkpt lat="49.15406" lon="5.38442">
        <ele>198.164</ele>
        <time>2019-09-22T09:57:22.001Z</time>
      </trkpt>
      <trkpt lat="49.15397" lon="5.38431">
        <ele>197.821</ele>
        <time>2019-09-22T09:57:25.001Z</time>
      </trkpt>
      <trkpt lat="49.15389" lon="5.38422">
        <ele>197.879</ele>
        <time>2019-09-22T09:57:28.001Z</time>
      </trkpt>
      <trkpt lat="49.15379" lon="5.38417">
        <ele>197.876</ele>
        <time>2019-09-22T09:57:31.001Z</time>
      </trkpt>
      <trkpt lat="49.15369" lon="5.38414">
        <ele>197.309</ele>
        <time>2019-09-22T09:57:34.001Z</time>
      </trkpt>
      <trkpt lat="49.15362" lon="5.38409">
        <ele>196.852</ele>
        <time>2019-09-22T09:57:37.001Z</time>
      </trkpt>
      <trkpt lat="49.1536" lon="5.38405">
        <ele>197.048</ele>
        <time>2019-09-22T09:57:40.001Z</time>
      </trkpt>
      <trkpt lat="49.15359" lon="5.38405">
        <ele>197.003</ele>
        <time>2019-09-22T09:58:31.001Z</time>
      </trkpt>
      <trkpt lat="49.1536" lon="5.38403">
        <ele>197.232</ele>
        <time>2019-09-22T09:58:34.001Z</time>
      </trkpt>
      <trkpt lat="49.1536" lon="5.38402">
        <ele>197.217</ele>
        <time>2019-09-22T09:58:37.001Z</time>
      </trkpt>
      <trkpt lat="49.1536" lon="5.38402">
        <ele>197.381</ele>
        <time>2019-09-22T09:58:40.001Z</time>
      </trkpt>
      <trkpt lat="49.1536" lon="5.38401">
        <ele>197.476</ele>
        <time>2019-09-22T09:58:52.001Z</time>
      </trkpt>
      <trkpt lat="49.15349" lon="5.38399">
        <ele>197.04</ele>
        <time>2019-09-22T09:58:55.001Z</time>
      </trkpt>
      <trkpt lat="49.15339" lon="5.38399">
        <ele>196.545</ele>
        <time>2019-09-22T09:58:58.001Z</time>
      </trkpt>
      <trkpt lat="49.15334" lon="5.38398">
        <ele>196.309</ele>
        <time>2019-09-22T09:59:01.001Z</time>
      </trkpt>
      <trkpt lat="49.15329" lon="5.38391">
        <ele>195.995</ele>
        <time>2019-09-22T09:59:07.001Z</time>
      </trkpt>
      <trkpt lat="49.15323" lon="5.38382">
        <ele>194.069</ele>
        <time>2019-09-22T09:59:13.001Z</time>
      </trkpt>
      <trkpt lat="49.15317" lon="5.38379">
        <ele>192.264</ele>
        <time>2019-09-22T09:59:16.000Z</time>
      </trkpt>
      <trkpt lat="49.1532" lon="5.38371">
        <ele>191.537</ele>
        <time>2019-09-22T09:59:19.001Z</time>
      </trkpt>
      <trkpt lat="49.15323" lon="5.38364">
        <ele>191.287</ele>
        <time>2019-09-22T09:59:22.001Z</time>
      </trkpt>
      <trkpt lat="49.15318" lon="5.3836">
        <ele>192.894</ele>
        <time>2019-09-22T09:59:25.001Z</time>
      </trkpt>
      <trkpt lat="49.15318" lon="5.3836">
        <ele>192.894</ele>
        <time>2019-09-22T09:59:28.001Z</time>
      </trkpt>
      <trkpt lat="49.15318" lon="5.3836">
        <ele>192.894</ele>
        <time>2019-09-22T09:59:46.001Z</time>
      </trkpt>
      <trkpt lat="49.15318" lon="5.38368">
        <ele>190.522</ele>
        <time>2019-09-22T09:59:49.001Z</time>
      </trkpt>
      <trkpt lat="49.15317" lon="5.38371">
        <ele>189.934</ele>
        <time>2019-09-22T09:59:52.001Z</time>
      </trkpt>
      <trkpt lat="49.15317" lon="5.38371">
        <ele>189.934</ele>
        <time>2019-09-22T10:00:43.001Z</time>
      </trkpt>
      <trkpt lat="49.15316" lon="5.38372">
        <ele>190.024</ele>
        <time>2019-09-22T10:00:46.001Z</time>
      </trkpt>
      <trkpt lat="49.15308" lon="5.38376">
        <ele>191.43</ele>
        <time>2019-09-22T10:00:52.001Z</time>
      </trkpt>
      <trkpt lat="49.15302" lon="5.38375">
        <ele>192.714</ele>
        <time>2019-09-22T10:00:55.001Z</time>
      </trkpt>
      <trkpt lat="49.15294" lon="5.38374">
        <ele>194.165</ele>
        <time>2019-09-22T10:00:58.001Z</time>
      </trkpt>
      <trkpt lat="49.15287" lon="5.38371">
        <ele>194.915</ele>
        <time>2019-09-22T10:01:01.001Z</time>
      </trkpt>
      <trkpt lat="49.1528" lon="5.38367">
        <ele>195.05</ele>
        <time>2019-09-22T10:01:04.001Z</time>
      </trkpt>
      <trkpt lat="49.15273" lon="5.38361">
        <ele>194.984</ele>
        <time>2019-09-22T10:01:07.001Z</time>
      </trkpt>
      <trkpt lat="49.15264" lon="5.38354">
        <ele>194.857</ele>
        <time>2019-09-22T10:01:10.001Z</time>
      </trkpt>
      <trkpt lat="49.15255" lon="5.38346">
        <ele>195.141</ele>
        <time>2019-09-22T10:01:13.001Z</time>
      </trkpt>
      <trkpt lat="49.15246" lon="5.38337">
        <ele>195.442</ele>
        <time>2019-09-22T10:01:16.000Z</time>
      </trkpt>
      <trkpt lat="49.15237" lon="5.38328">
        <ele>196.224</ele>
        <time>2019-09-22T10:01:19.001Z</time>
      </trkpt>
      <trkpt lat="49.15229" lon="5.38317">
        <ele>196.798</ele>
        <time>2019-09-22T10:01:22.001Z</time>
      </trkpt>
      <trkpt lat="49.1522" lon="5.38306">
        <ele>197.466</ele>
        <time>2019-09-22T10:01:25.001Z</time>
      </trkpt>
      <trkpt lat="49.1521" lon="5.38295">
        <ele>197.602</ele>
        <time>2019-09-22T10:01:28.001Z</time>
      </trkpt>
      <trkpt lat="49.15202" lon="5.38282">
        <ele>197.728</ele>
        <time>2019-09-22T10:01:31.001Z</time>
      </trkpt>
      <trkpt lat="49.15194" lon="5.38267">
        <ele>197.779</ele>
        <time>2019-09-22T10:01:34.001Z</time>
      </trkpt>
      <trkpt lat="49.15188" lon="5.38251">
        <ele>198.128</ele>
        <time>2019-09-22T10:01:37.001Z</time>
      </trkpt>
      <trkpt lat="49.1518" lon="5.38233">
        <ele>198.109</ele>
        <time>2019-09-22T10:01:40.001Z</time>
      </trkpt>
      <trkpt lat="49.15173" lon="5.38214">
        <ele>198.887</ele>
        <time>2019-09-22T10:01:43.001Z</time>
      </trkpt>
      <trkpt lat="49.15167" lon="5.38195">
        <ele>199.562</ele>
        <time>2019-09-22T10:01:46.001Z</time>
      </trkpt>
      <trkpt lat="49.15163" lon="5.38176">
        <ele>200.873</ele>
        <time>2019-09-22T10:01:49.001Z</time>
      </trkpt>
      <trkpt lat="49.15157" lon="5.38155">
        <ele>201.74</ele>
        <time>2019-09-22T10:01:52.001Z</time>
      </trkpt>
      <trkpt lat="49.15151" lon="5.38135">
        <ele>202.182</ele>
        <time>2019-09-22T10:01:55.001Z</time>
      </trkpt>
      <trkpt lat="49.15146" lon="5.38114">
        <ele>202.169</ele>
        <time>2019-09-22T10:01:58.001Z</time>
      </trkpt>
      <trkpt lat="49.15139" lon="5.38092">
        <ele>201.608</ele>
        <time>2019-09-22T10:02:01.001Z</time>
      </trkpt>
      <trkpt lat="49.15133" lon="5.38071">
        <ele>201.317</ele>
        <time>2019-09-22T10:02:04.001Z</time>
      </trkpt>
      <trkpt lat="49.15127" lon="5.38051">
        <ele>200.999</ele>
        <time>2019-09-22T10:02:07.001Z</time>
      </trkpt>
      <trkpt lat="49.15122" lon="5.38031">
        <ele>200.863</ele>
        <time>2019-09-22T10:02:10.001Z</time>
      </trkpt>
      <trkpt lat="49.15115" lon="5.38011">
        <ele>200.617</ele>
        <time>2019-09-22T10:02:13.001Z</time>
      </trkpt>
      <trkpt lat="49.1511" lon="5.37992">
        <ele>200.603</ele>
        <time>2019-09-22T10:02:16.000Z</time>
      </trkpt>
      <trkpt lat="49.15103" lon="5.37973">
        <ele>200.121</ele>
        <time>2019-09-22T10:02:19.001Z</time>
      </trkpt>
      <trkpt lat="49.15095" lon="5.37955">
        <ele>199.213</ele>
        <time>2019-09-22T10:02:22.001Z</time>
      </trkpt>
      <trkpt lat="49.15088" lon="5.37937">
        <ele>198.58</ele>
        <time>2019-09-22T10:02:25.001Z</time>
      </trkpt>
      <trkpt lat="49.15082" lon="5.37919">
        <ele>197.989</ele>
        <time>2019-09-22T10:02:28.001Z</time>
      </trkpt>
      <trkpt lat="49.15076" lon="5.37902">
        <ele>198.119</ele>
        <time>2019-09-22T10:02:31.001Z</time>
      </trkpt>
      <trkpt lat="49.15069" lon="5.37884">
        <ele>198.11</ele>
        <time>2019-09-22T10:02:34.001Z</time>
      </trkpt>
      <trkpt lat="49.15064" lon="5.37867">
        <ele>198.806</ele>
        <time>2019-09-22T10:02:37.001Z</time>
      </trkpt>
      <trkpt lat="49.15057" lon="5.37849">
        <ele>198.902</ele>
        <time>2019-09-22T10:02:40.001Z</time>
      </trkpt>
      <trkpt lat="49.15049" lon="5.37832">
        <ele>198.768</ele>
        <time>2019-09-22T10:02:43.001Z</time>
      </trkpt>
      <trkpt lat="49.15042" lon="5.37814">
        <ele>199.009</ele>
        <time>2019-09-22T10:02:46.001Z</time>
      </trkpt>
      <trkpt lat="49.15037" lon="5.37797">
        <ele>198.848</ele>
        <time>2019-09-22T10:02:49.001Z</time>
      </trkpt>
      <trkpt lat="49.1503" lon="5.37779">
        <ele>198.147</ele>
        <time>2019-09-22T10:02:52.001Z</time>
      </trkpt>
      <trkpt lat="49.15022" lon="5.37762">
        <ele>198.047</ele>
        <time>2019-09-22T10:02:55.001Z</time>
      </trkpt>
      <trkpt lat="49.15014" lon="5.37744">
        <ele>198.164</ele>
        <time>2019-09-22T10:02:58.001Z</time>
      </trkpt>
      <trkpt lat="49.15006" lon="5.37728">
        <ele>198.068</ele>
        <time>2019-09-22T10:03:01.001Z</time>
      </trkpt>
      <trkpt lat="49.14998" lon="5.37713">
        <ele>198.146</ele>
        <time>2019-09-22T10:03:04.001Z</time>
      </trkpt>
      <trkpt lat="49.1499" lon="5.37699">
        <ele>198.411</ele>
        <time>2019-09-22T10:03:07.001Z</time>
      </trkpt>
      <trkpt lat="49.14982" lon="5.37685">
        <ele>198.306</ele>
        <time>2019-09-22T10:03:10.001Z</time>
      </trkpt>
      <trkpt lat="49.14975" lon="5.37668">
        <ele>198.24</ele>
        <time>2019-09-22T10:03:13.001Z</time>
      </trkpt>
      <trkpt lat="49.14966" lon="5.37652">
        <ele>197.87</ele>
        <time>2019-09-22T10:03:16.000Z</time>
      </trkpt>
      <trkpt lat="49.14956" lon="5.37639">
        <ele>197.509</ele>
        <time>2019-09-22T10:03:19.001Z</time>
      </trkpt>
      <trkpt lat="49.14946" lon="5.37628">
        <ele>197.355</ele>
        <time>2019-09-22T10:03:22.001Z</time>
      </trkpt>
      <trkpt lat="49.14934" lon="5.37625">
        <ele>197.942</ele>
        <time>2019-09-22T10:03:25.001Z</time>
      </trkpt>
      <trkpt lat="49.14923" lon="5.37624">
        <ele>198.267</ele>
        <time>2019-09-22T10:03:28.001Z</time>
      </trkpt>
      <trkpt lat="49.1491" lon="5.37624">
        <ele>197.803</ele>
        <time>2019-09-22T10:03:31.001Z</time>
      </trkpt>
      <trkpt lat="49.14899" lon="5.37624">
        <ele>197.414</ele>
        <time>2019-09-22T10:03:34.001Z</time>
      </trkpt>
      <trkpt lat="49.14888" lon="5.37625">
        <ele>196.694</ele>
        <time>2019-09-22T10:03:37.001Z</time>
      </trkpt>
      <trkpt lat="49.14875" lon="5.37628">
        <ele>195.722</ele>
        <time>2019-09-22T10:03:40.001Z</time>
      </trkpt>
      <trkpt lat="49.14863" lon="5.37631">
        <ele>194.832</ele>
        <time>2019-09-22T10:03:43.001Z</time>
      </trkpt>
      <trkpt lat="49.14851" lon="5.37634">
        <ele>193.998</ele>
        <time>2019-09-22T10:03:46.001Z</time>
      </trkpt>
      <trkpt lat="49.1484" lon="5.37638">
        <ele>193.061</ele>
        <time>2019-09-22T10:03:49.001Z</time>
      </trkpt>
      <trkpt lat="49.14828" lon="5.37642">
        <ele>192.819</ele>
        <time>2019-09-22T10:03:52.001Z</time>
      </trkpt>
      <trkpt lat="49.14816" lon="5.37647">
        <ele>192.946</ele>
        <time>2019-09-22T10:03:55.001Z</time>
      </trkpt>
      <trkpt lat="49.14804" lon="5.37653">
        <ele>193.192</ele>
        <time>2019-09-22T10:03:58.001Z</time>
      </trkpt>
      <trkpt lat="49.14792" lon="5.37659">
        <ele>193.49</ele>
        <time>2019-09-22T10:04:01.001Z</time>
      </trkpt>
      <trkpt lat="49.1478" lon="5.37664">
        <ele>193.351</ele>
        <time>2019-09-22T10:04:04.001Z</time>
      </trkpt>
      <trkpt lat="49.14769" lon="5.37669">
        <ele>193.086</ele>
        <time>2019-09-22T10:04:07.001Z</time>
      </trkpt>
      <trkpt lat="49.14761" lon="5.37674">
        <ele>193.313</ele>
        <time>2019-09-22T10:04:10.001Z</time>
      </trkpt>
      <trkpt lat="49.1475" lon="5.37678">
        <ele>194.358</ele>
        <time>2019-09-22T10:04:13.001Z</time>
      </trkpt>
      <trkpt lat="49.14741" lon="5.37682">
        <ele>194.802</ele>
        <time>2019-09-22T10:04:16.000Z</time>
      </trkpt>
      <trkpt lat="49.14731" lon="5.37686">
        <ele>195.582</ele>
        <time>2019-09-22T10:04:19.001Z</time>
      </trkpt>
      <trkpt lat="49.14717" lon="5.3769">
        <ele>196.693</ele>
        <time>2019-09-22T10:04:22.001Z</time>
      </trkpt>
      <trkpt lat="49.14704" lon="5.37694">
        <ele>197.13</ele>
        <time>2019-09-22T10:04:25.001Z</time>
      </trkpt>
      <trkpt lat="49.14691" lon="5.37698">
        <ele>197.408</ele>
        <time>2019-09-22T10:04:28.001Z</time>
      </trkpt>
      <trkpt lat="49.14677" lon="5.37702">
        <ele>196.977</ele>
        <time>2019-09-22T10:04:31.001Z</time>
      </trkpt>
      <trkpt lat="49.14664" lon="5.37705">
        <ele>196.742</ele>
        <time>2019-09-22T10:04:34.001Z</time>
      </trkpt>
      <trkpt lat="49.14651" lon="5.37709">
        <ele>196.042</ele>
        <time>2019-09-22T10:04:37.001Z</time>
      </trkpt>
      <trkpt lat="49.14637" lon="5.37712">
        <ele>196.134</ele>
        <time>2019-09-22T10:04:40.001Z</time>
      </trkpt>
      <trkpt lat="49.14625" lon="5.37717">
        <ele>196.612</ele>
        <time>2019-09-22T10:04:43.001Z</time>
      </trkpt>
      <trkpt lat="49.14613" lon="5.37724">
        <ele>196.915</ele>
        <time>2019-09-22T10:04:46.001Z</time>
      </trkpt>
      <trkpt lat="49.14601" lon="5.3773">
        <ele>196.823</ele>
        <time>2019-09-22T10:04:49.001Z</time>
      </trkpt>
      <trkpt lat="49.14589" lon="5.37737">
        <ele>196.349</ele>
        <time>2019-09-22T10:04:52.001Z</time>
      </trkpt>
      <trkpt lat="49.14578" lon="5.37743">
        <ele>196.319</ele>
        <time>2019-09-22T10:04:55.001Z</time>
      </trkpt>
      <trkpt lat="49.14565" lon="5.37749">
        <ele>196.546</ele>
        <time>2019-09-22T10:04:58.001Z</time>
      </trkpt>
      <trkpt lat="49.14553" lon="5.37759">
        <ele>196.701</ele>
        <time>2019-09-22T10:05:01.001Z</time>
      </trkpt>
      <trkpt lat="49.14539" lon="5.37768">
        <ele>196.389</ele>
        <time>2019-09-22T10:05:04.001Z</time>
      </trkpt>
      <trkpt lat="49.14524" lon="5.37777">
        <ele>195.974</ele>
        <time>2019-09-22T10:05:07.001Z</time>
      </trkpt>
      <trkpt lat="49.14511" lon="5.37785">
        <ele>196.165</ele>
        <time>2019-09-22T10:05:10.001Z</time>
      </trkpt>
      <trkpt lat="49.14497" lon="5.37793">
        <ele>196.482</ele>
        <time>2019-09-22T10:05:13.001Z</time>
      </trkpt>
      <trkpt lat="49.14486" lon="5.37803">
        <ele>196.518</ele>
        <time>2019-09-22T10:05:16.000Z</time>
      </trkpt>
      <trkpt lat="49.14476" lon="5.37812">
        <ele>196.747</ele>
        <time>2019-09-22T10:05:19.001Z</time>
      </trkpt>
      <trkpt lat="49.14465" lon="5.37823">
        <ele>196.743</ele>
        <time>2019-09-22T10:05:22.001Z</time>
      </trkpt>
      <trkpt lat="49.14455" lon="5.37833">
        <ele>196.656</ele>
        <time>2019-09-22T10:05:25.001Z</time>
      </trkpt>
      <trkpt lat="49.14445" lon="5.37842">
        <ele>197.295</ele>
        <time>2019-09-22T10:05:28.001Z</time>
      </trkpt>
      <trkpt lat="49.14434" lon="5.37851">
        <ele>197.488</ele>
        <time>2019-09-22T10:05:31.001Z</time>
      </trkpt>
      <trkpt lat="49.14422" lon="5.37859">
        <ele>197.526</ele>
        <time>2019-09-22T10:05:34.001Z</time>
      </trkpt>
      <trkpt lat="49.1441" lon="5.37865">
        <ele>197.358</ele>
        <time>2019-09-22T10:05:37.001Z</time>
      </trkpt>
      <trkpt lat="49.14397" lon="5.37871">
        <ele>196.895</ele>
        <time>2019-09-22T10:05:40.001Z</time>
      </trkpt>
      <trkpt lat="49.14384" lon="5.37878">
        <ele>196.609</ele>
        <time>2019-09-22T10:05:43.001Z</time>
      </trkpt>
      <trkpt lat="49.14373" lon="5.37885">
        <ele>196.47</ele>
        <time>2019-09-22T10:05:46.001Z</time>
      </trkpt>
      <trkpt lat="49.1436" lon="5.37892">
        <ele>196.502</ele>
        <time>2019-09-22T10:05:49.001Z</time>
      </trkpt>
      <trkpt lat="49.14348" lon="5.37898">
        <ele>195.545</ele>
        <time>2019-09-22T10:05:52.001Z</time>
      </trkpt>
      <trkpt lat="49.14336" lon="5.37904">
        <ele>194.893</ele>
        <time>2019-09-22T10:05:55.001Z</time>
      </trkpt>
      <trkpt lat="49.14326" lon="5.37909">
        <ele>194.359</ele>
        <time>2019-09-22T10:05:58.001Z</time>
      </trkpt>
      <trkpt lat="49.14315" lon="5.37915">
        <ele>193.77</ele>
        <time>2019-09-22T10:06:01.001Z</time>
      </trkpt>
      <trkpt lat="49.14303" lon="5.37922">
        <ele>193.449</ele>
        <time>2019-09-22T10:06:04.001Z</time>
      </trkpt>
      <trkpt lat="49.1429" lon="5.37928">
        <ele>193.622</ele>
        <time>2019-09-22T10:06:07.001Z</time>
      </trkpt>
      <trkpt lat="49.14277" lon="5.37934">
        <ele>194.064</ele>
        <time>2019-09-22T10:06:10.001Z</time>
      </trkpt>
      <trkpt lat="49.14262" lon="5.37938">
        <ele>194.679</ele>
        <time>2019-09-22T10:06:13.001Z</time>
      </trkpt>
      <trkpt lat="49.14248" lon="5.3794">
        <ele>195.027</ele>
        <time>2019-09-22T10:06:16.000Z</time>
      </trkpt>
      <trkpt lat="49.14234" lon="5.37943">
        <ele>195.017</ele>
        <time>2019-09-22T10:06:19.001Z</time>
      </trkpt>
      <trkpt lat="49.14221" lon="5.37946">
        <ele>195.799</ele>
        <time>2019-09-22T10:06:22.001Z</time>
      </trkpt>
      <trkpt lat="49.14208" lon="5.37952">
        <ele>196.432</ele>
        <time>2019-09-22T10:06:25.001Z</time>
      </trkpt>
      <trkpt lat="49.14197" lon="5.37962">
        <ele>197.142</ele>
        <time>2019-09-22T10:06:28.001Z</time>
      </trkpt>
      <trkpt lat="49.14186" lon="5.37973">
        <ele>197.479</ele>
        <time>2019-09-22T10:06:31.001Z</time>
      </trkpt>
      <trkpt lat="49.14177" lon="5.37986">
        <ele>197.964</ele>
        <time>2019-09-22T10:06:34.001Z</time>
      </trkpt>
      <trkpt lat="49.1417" lon="5.37999">
        <ele>198.097</ele>
        <time>2019-09-22T10:06:37.001Z</time>
      </trkpt>
      <trkpt lat="49.14163" lon="5.38015">
        <ele>198.294</ele>
        <time>2019-09-22T10:06:40.001Z</time>
      </trkpt>
      <trkpt lat="49.14155" lon="5.38032">
        <ele>198.608</ele>
        <time>2019-09-22T10:06:43.001Z</time>
      </trkpt>
      <trkpt lat="49.14147" lon="5.3805">
        <ele>199.072</ele>
        <time>2019-09-22T10:06:46.001Z</time>
      </trkpt>
      <trkpt lat="49.1414" lon="5.38068">
        <ele>198.825</ele>
        <time>2019-09-22T10:06:49.001Z</time>
      </trkpt>
      <trkpt lat="49.14134" lon="5.38085">
        <ele>198.332</ele>
        <time>2019-09-22T10:06:52.001Z</time>
      </trkpt>
      <trkpt lat="49.14127" lon="5.38103">
        <ele>197.859</ele>
        <time>2019-09-22T10:06:55.001Z</time>
      </trkpt>
      <trkpt lat="49.1412" lon="5.38122">
        <ele>197.802</ele>
        <time>2019-09-22T10:06:58.001Z</time>
      </trkpt>
      <trkpt lat="49.14114" lon="5.3814">
        <ele>197.695</ele>
        <time>2019-09-22T10:07:01.001Z</time>
      </trkpt>
      <trkpt lat="49.14109" lon="5.38159">
        <ele>197.278</ele>
        <time>2019-09-22T10:07:04.001Z</time>
      </trkpt>
      <trkpt lat="49.14104" lon="5.38177">
        <ele>197.286</ele>
        <time>2019-09-22T10:07:07.001Z</time>
      </trkpt>
      <trkpt lat="49.14099" lon="5.38195">
        <ele>196.889</ele>
        <time>2019-09-22T10:07:10.001Z</time>
      </trkpt>
      <trkpt lat="49.14095" lon="5.38214">
        <ele>196.715</ele>
        <time>2019-09-22T10:07:13.001Z</time>
      </trkpt>
      <trkpt lat="49.1409" lon="5.38233">
        <ele>196.739</ele>
        <time>2019-09-22T10:07:16.000Z</time>
      </trkpt>
      <trkpt lat="49.14087" lon="5.38251">
        <ele>196.683</ele>
        <time>2019-09-22T10:07:19.001Z</time>
      </trkpt>
      <trkpt lat="49.14083" lon="5.3827">
        <ele>196.495</ele>
        <time>2019-09-22T10:07:22.001Z</time>
      </trkpt>
      <trkpt lat="49.14078" lon="5.38291">
        <ele>197.052</ele>
        <time>2019-09-22T10:07:25.001Z</time>
      </trkpt>
      <trkpt lat="49.14073" lon="5.3831">
        <ele>197.213</ele>
        <time>2019-09-22T10:07:28.001Z</time>
      </trkpt>
      <trkpt lat="49.14069" lon="5.38328">
        <ele>197.855</ele>
        <time>2019-09-22T10:07:31.001Z</time>
      </trkpt>
      <trkpt lat="49.14066" lon="5.38347">
        <ele>198.207</ele>
        <time>2019-09-22T10:07:34.001Z</time>
      </trkpt>
      <trkpt lat="49.14062" lon="5.38367">
        <ele>198.572</ele>
        <time>2019-09-22T10:07:37.001Z</time>
      </trkpt>
      <trkpt lat="49.14058" lon="5.38387">
        <ele>198.959</ele>
        <time>2019-09-22T10:07:40.001Z</time>
      </trkpt>
      <trkpt lat="49.14055" lon="5.38408">
        <ele>199.253</ele>
        <time>2019-09-22T10:07:43.001Z</time>
      </trkpt>
      <trkpt lat="49.14052" lon="5.38427">
        <ele>199.33</ele>
        <time>2019-09-22T10:07:46.001Z</time>
      </trkpt>
      <trkpt lat="49.14049" lon="5.38448">
        <ele>198.997</ele>
        <time>2019-09-22T10:07:49.001Z</time>
      </trkpt>
      <trkpt lat="49.14046" lon="5.38468">
        <ele>198.61</ele>
        <time>2019-09-22T10:07:52.001Z</time>
      </trkpt>
      <trkpt lat="49.14044" lon="5.38487">
        <ele>198.56</ele>
        <time>2019-09-22T10:07:55.001Z</time>
      </trkpt>
      <trkpt lat="49.14041" lon="5.38504">
        <ele>198.539</ele>
        <time>2019-09-22T10:07:58.001Z</time>
      </trkpt>
      <trkpt lat="49.14039" lon="5.38522">
        <ele>198.853</ele>
        <time>2019-09-22T10:08:01.001Z</time>
      </trkpt>
      <trkpt lat="49.14036" lon="5.38541">
        <ele>199.362</ele>
        <time>2019-09-22T10:08:04.001Z</time>
      </trkpt>
      <trkpt lat="49.14033" lon="5.38561">
        <ele>199.632</ele>
        <time>2019-09-22T10:08:07.001Z</time>
      </trkpt>
      <trkpt lat="49.1403" lon="5.38581">
        <ele>200.29</ele>
        <time>2019-09-22T10:08:10.001Z</time>
      </trkpt>
      <trkpt lat="49.14028" lon="5.38601">
        <ele>201.113</ele>
        <time>2019-09-22T10:08:13.001Z</time>
      </trkpt>
      <trkpt lat="49.14025" lon="5.38622">
        <ele>201.328</ele>
        <time>2019-09-22T10:08:16.000Z</time>
      </trkpt>
      <trkpt lat="49.14022" lon="5.38644">
        <ele>201.008</ele>
        <time>2019-09-22T10:08:19.001Z</time>
      </trkpt>
      <trkpt lat="49.1402" lon="5.38666">
        <ele>200.555</ele>
        <time>2019-09-22T10:08:22.001Z</time>
      </trkpt>
      <trkpt lat="49.14018" lon="5.38686">
        <ele>200.092</ele>
        <time>2019-09-22T10:08:25.001Z</time>
      </trkpt>
      <trkpt lat="49.14017" lon="5.38707">
        <ele>200.078</ele>
        <time>2019-09-22T10:08:28.001Z</time>
      </trkpt>
      <trkpt lat="49.14015" lon="5.38728">
        <ele>200.385</ele>
        <time>2019-09-22T10:08:31.001Z</time>
      </trkpt>
      <trkpt lat="49.14014" lon="5.38747">
        <ele>200.616</ele>
        <time>2019-09-22T10:08:34.001Z</time>
      </trkpt>
      <trkpt lat="49.14014" lon="5.38766">
        <ele>201.824</ele>
        <time>2019-09-22T10:08:37.001Z</time>
      </trkpt>
      <trkpt lat="49.14013" lon="5.38784">
        <ele>201.806</ele>
        <time>2019-09-22T10:08:40.001Z</time>
      </trkpt>
      <trkpt lat="49.14013" lon="5.38802">
        <ele>201.807</ele>
        <time>2019-09-22T10:08:43.001Z</time>
      </trkpt>
      <trkpt lat="49.14012" lon="5.38824">
        <ele>201.568</ele>
        <time>2019-09-22T10:08:46.001Z</time>
      </trkpt>
      <trkpt lat="49.14012" lon="5.38844">
        <ele>201.892</ele>
        <time>2019-09-22T10:08:49.001Z</time>
      </trkpt>
      <trkpt lat="49.14012" lon="5.38861">
        <ele>202.16</ele>
        <time>2019-09-22T10:08:52.001Z</time>
      </trkpt>
      <trkpt lat="49.14013" lon="5.38883">
        <ele>202.219</ele>
        <time>2019-09-22T10:08:55.001Z</time>
      </trkpt>
      <trkpt lat="49.14013" lon="5.38906">
        <ele>201.754</ele>
        <time>2019-09-22T10:08:58.001Z</time>
      </trkpt>
      <trkpt lat="49.14013" lon="5.38929">
        <ele>201.727</ele>
        <time>2019-09-22T10:09:01.001Z</time>
      </trkpt>
      <trkpt lat="49.14015" lon="5.3895">
        <ele>201.254</ele>
        <time>2019-09-22T10:09:04.001Z</time>
      </trkpt>
      <trkpt lat="49.14017" lon="5.38969">
        <ele>200.653</ele>
        <time>2019-09-22T10:09:07.001Z</time>
      </trkpt>
      <trkpt lat="49.14017" lon="5.38988">
        <ele>200.48</ele>
        <time>2019-09-22T10:09:10.001Z</time>
      </trkpt>
      <trkpt lat="49.14019" lon="5.39011">
        <ele>199.579</ele>
        <time>2019-09-22T10:09:13.001Z</time>
      </trkpt>
      <trkpt lat="49.1402" lon="5.39034">
        <ele>199.25</ele>
        <time>2019-09-22T10:09:16.000Z</time>
      </trkpt>
      <trkpt lat="49.14021" lon="5.39055">
        <ele>199.084</ele>
        <time>2019-09-22T10:09:19.001Z</time>
      </trkpt>
      <trkpt lat="49.14022" lon="5.39075">
        <ele>199.479</ele>
        <time>2019-09-22T10:09:22.001Z</time>
      </trkpt>
      <trkpt lat="49.14023" lon="5.39094">
        <ele>200.468</ele>
        <time>2019-09-22T10:09:25.001Z</time>
      </trkpt>
      <trkpt lat="49.14025" lon="5.39115">
        <ele>201.427</ele>
        <time>2019-09-22T10:09:28.001Z</time>
      </trkpt>
      <trkpt lat="49.14026" lon="5.39137">
        <ele>201.746</ele>
        <time>2019-09-22T10:09:31.001Z</time>
      </trkpt>
      <trkpt lat="49.14026" lon="5.39155">
        <ele>202.431</ele>
        <time>2019-09-22T10:09:34.001Z</time>
      </trkpt>
      <trkpt lat="49.14026" lon="5.39175">
        <ele>202.715</ele>
        <time>2019-09-22T10:09:37.001Z</time>
      </trkpt>
      <trkpt lat="49.14027" lon="5.39196">
        <ele>203.043</ele>
        <time>2019-09-22T10:09:40.001Z</time>
      </trkpt>
      <trkpt lat="49.14028" lon="5.39214">
        <ele>203.511</ele>
        <time>2019-09-22T10:09:43.001Z</time>
      </trkpt>
      <trkpt lat="49.14029" lon="5.39233">
        <ele>203.778</ele>
        <time>2019-09-22T10:09:46.001Z</time>
      </trkpt>
      <trkpt lat="49.14029" lon="5.39251">
        <ele>203.907</ele>
        <time>2019-09-22T10:09:49.001Z</time>
      </trkpt>
      <trkpt lat="49.1403" lon="5.3927">
        <ele>203.914</ele>
        <time>2019-09-22T10:09:52.001Z</time>
      </trkpt>
      <trkpt lat="49.14031" lon="5.39292">
        <ele>203.794</ele>
        <time>2019-09-22T10:09:55.001Z</time>
      </trkpt>
      <trkpt lat="49.14031" lon="5.39315">
        <ele>203.579</ele>
        <time>2019-09-22T10:09:58.001Z</time>
      </trkpt>
      <trkpt lat="49.14031" lon="5.39337">
        <ele>203.075</ele>
        <time>2019-09-22T10:10:01.001Z</time>
      </trkpt>
      <trkpt lat="49.14032" lon="5.39357">
        <ele>203.162</ele>
        <time>2019-09-22T10:10:04.001Z</time>
      </trkpt>
      <trkpt lat="49.14034" lon="5.39379">
        <ele>203.393</ele>
        <time>2019-09-22T10:10:07.001Z</time>
      </trkpt>
      <trkpt lat="49.14036" lon="5.39398">
        <ele>203.399</ele>
        <time>2019-09-22T10:10:10.001Z</time>
      </trkpt>
      <trkpt lat="49.14037" lon="5.39417">
        <ele>203.599</ele>
        <time>2019-09-22T10:10:13.001Z</time>
      </trkpt>
      <trkpt lat="49.14037" lon="5.39434">
        <ele>203.669</ele>
        <time>2019-09-22T10:10:16.000Z</time>
      </trkpt>
      <trkpt lat="49.14038" lon="5.39453">
        <ele>203.658</ele>
        <time>2019-09-22T10:10:19.001Z</time>
      </trkpt>
      <trkpt lat="49.14038" lon="5.39473">
        <ele>203.882</ele>
        <time>2019-09-22T10:10:22.001Z</time>
      </trkpt>
      <trkpt lat="49.14039" lon="5.39494">
        <ele>203.673</ele>
        <time>2019-09-22T10:10:25.001Z</time>
      </trkpt>
      <trkpt lat="49.14039" lon="5.39516">
        <ele>202.861</ele>
        <time>2019-09-22T10:10:28.001Z</time>
      </trkpt>
      <trkpt lat="49.1404" lon="5.39538">
        <ele>201.825</ele>
        <time>2019-09-22T10:10:31.001Z</time>
      </trkpt>
      <trkpt lat="49.14042" lon="5.39559">
        <ele>201.32</ele>
        <time>2019-09-22T10:10:34.001Z</time>
      </trkpt>
      <trkpt lat="49.14042" lon="5.39575">
        <ele>201.472</ele>
        <time>2019-09-22T10:10:37.001Z</time>
      </trkpt>
      <trkpt lat="49.14043" lon="5.39592">
        <ele>201.492</ele>
        <time>2019-09-22T10:10:40.001Z</time>
      </trkpt>
      <trkpt lat="49.14043" lon="5.39611">
        <ele>201.656</ele>
        <time>2019-09-22T10:10:43.001Z</time>
      </trkpt>
      <trkpt lat="49.14044" lon="5.39633">
        <ele>201.676</ele>
        <time>2019-09-22T10:10:46.001Z</time>
      </trkpt>
      <trkpt lat="49.14045" lon="5.39653">
        <ele>201.591</ele>
        <time>2019-09-22T10:10:49.001Z</time>
      </trkpt>
      <trkpt lat="49.14046" lon="5.39673">
        <ele>201.523</ele>
        <time>2019-09-22T10:10:52.001Z</time>
      </trkpt>
      <trkpt lat="49.14047" lon="5.39692">
        <ele>201.757</ele>
        <time>2019-09-22T10:10:55.001Z</time>
      </trkpt>
      <trkpt lat="49.14048" lon="5.39711">
        <ele>202.092</ele>
        <time>2019-09-22T10:10:58.001Z</time>
      </trkpt>
      <trkpt lat="49.1405" lon="5.39733">
        <ele>202.657</ele>
        <time>2019-09-22T10:11:01.001Z</time>
      </trkpt>
      <trkpt lat="49.14051" lon="5.39753">
        <ele>202.91</ele>
        <time>2019-09-22T10:11:04.001Z</time>
      </trkpt>
      <trkpt lat="49.14051" lon="5.39773">
        <ele>203.476</ele>
        <time>2019-09-22T10:11:07.001Z</time>
      </trkpt>
      <trkpt lat="49.14052" lon="5.39791">
        <ele>203.376</ele>
        <time>2019-09-22T10:11:10.001Z</time>
      </trkpt>
      <trkpt lat="49.14053" lon="5.39808">
        <ele>202.791</ele>
        <time>2019-09-22T10:11:13.001Z</time>
      </trkpt>
      <trkpt lat="49.14053" lon="5.39823">
        <ele>202.221</ele>
        <time>2019-09-22T10:11:16.000Z</time>
      </trkpt>
      <trkpt lat="49.1405" lon="5.39833">
        <ele>201.546</ele>
        <time>2019-09-22T10:11:19.001Z</time>
      </trkpt>
      <trkpt lat="49.14043" lon="5.39835">
        <ele>200.506</ele>
        <time>2019-09-22T10:11:22.001Z</time>
      </trkpt>
      <trkpt lat="49.14033" lon="5.39838">
        <ele>199.917</ele>
        <time>2019-09-22T10:11:25.001Z</time>
      </trkpt>
      <trkpt lat="49.14028" lon="5.39842">
        <ele>200.628</ele>
        <time>2019-09-22T10:11:28.001Z</time>
      </trkpt>
      <trkpt lat="49.14028" lon="5.39842">
        <ele>200.628</ele>
        <time>2019-09-22T10:14:16.000Z</time>
      </trkpt>
      <trkpt lat="49.14029" lon="5.39842">
        <ele>200.075</ele>
        <time>2019-09-22T10:14:19.001Z</time>
      </trkpt>
      <trkpt lat="49.14029" lon="5.39842">
        <ele>199.994</ele>
        <time>2019-09-22T10:14:22.001Z</time>
      </trkpt>
      <trkpt lat="49.14029" lon="5.39842">
        <ele>199.994</ele>
        <time>2019-09-22T10:14:49.001Z</time>
      </trkpt>
      <trkpt lat="49.14029" lon="5.39842">
        <ele>199.867</ele>
        <time>2019-09-22T10:14:52.001Z</time>
      </trkpt>
      <trkpt lat="49.14024" lon="5.3984">
        <ele>199.332</ele>
        <time>2019-09-22T10:14:55.001Z</time>
      </trkpt>
      <trkpt lat="49.14018" lon="5.3984">
        <ele>199.253</ele>
        <time>2019-09-22T10:14:58.001Z</time>
      </trkpt>
      <trkpt lat="49.14007" lon="5.39844">
        <ele>198.968</ele>
        <time>2019-09-22T10:15:01.001Z</time>
      </trkpt>
      <trkpt lat="49.13994" lon="5.39848">
        <ele>198.612</ele>
        <time>2019-09-22T10:15:04.001Z</time>
      </trkpt>
      <trkpt lat="49.1398" lon="5.39851">
        <ele>198.15</ele>
        <time>2019-09-22T10:15:07.001Z</time>
      </trkpt>
      <trkpt lat="49.13967" lon="5.39856">
        <ele>197.864</ele>
        <time>2019-09-22T10:15:10.001Z</time>
      </trkpt>
      <trkpt lat="49.13954" lon="5.39861">
        <ele>197.774</ele>
        <time>2019-09-22T10:15:13.001Z</time>
      </trkpt>
      <trkpt lat="49.13941" lon="5.39866">
        <ele>197.648</ele>
        <time>2019-09-22T10:15:16.000Z</time>
      </trkpt>
      <trkpt lat="49.13929" lon="5.3987">
        <ele>197.258</ele>
        <time>2019-09-22T10:15:19.001Z</time>
      </trkpt>
      <trkpt lat="49.13916" lon="5.39875">
        <ele>196.629</ele>
        <time>2019-09-22T10:15:22.001Z</time>
      </trkpt>
      <trkpt lat="49.13903" lon="5.3988">
        <ele>196.417</ele>
        <time>2019-09-22T10:15:25.001Z</time>
      </trkpt>
      <trkpt lat="49.13887" lon="5.39886">
        <ele>196.073</ele>
        <time>2019-09-22T10:15:28.001Z</time>
      </trkpt>
      <trkpt lat="49.13872" lon="5.39892">
        <ele>195.85</ele>
        <time>2019-09-22T10:15:31.001Z</time>
      </trkpt>
      <trkpt lat="49.13856" lon="5.39899">
        <ele>195.374</ele>
        <time>2019-09-22T10:15:34.001Z</time>
      </trkpt>
      <trkpt lat="49.13841" lon="5.39904">
        <ele>195.005</ele>
        <time>2019-09-22T10:15:37.001Z</time>
      </trkpt>
      <trkpt lat="49.13827" lon="5.3991">
        <ele>194.585</ele>
        <time>2019-09-22T10:15:40.001Z</time>
      </trkpt>
      <trkpt lat="49.13812" lon="5.39916">
        <ele>194.074</ele>
        <time>2019-09-22T10:15:43.001Z</time>
      </trkpt>
      <trkpt lat="49.13796" lon="5.39923">
        <ele>193.958</ele>
        <time>2019-09-22T10:15:46.001Z</time>
      </trkpt>
      <trkpt lat="49.13782" lon="5.39929">
        <ele>194.072</ele>
        <time>2019-09-22T10:15:49.001Z</time>
      </trkpt>
      <trkpt lat="49.13767" lon="5.39935">
        <ele>193.795</ele>
        <time>2019-09-22T10:15:52.001Z</time>
      </trkpt>
      <trkpt lat="49.13753" lon="5.3994">
        <ele>193.144</ele>
        <time>2019-09-22T10:15:55.001Z</time>
      </trkpt>
      <trkpt lat="49.13739" lon="5.39945">
        <ele>193.135</ele>
        <time>2019-09-22T10:15:58.001Z</time>
      </trkpt>
      <trkpt lat="49.13723" lon="5.3995">
        <ele>193.114</ele>
        <time>2019-09-22T10:16:01.001Z</time>
      </trkpt>
      <trkpt lat="49.13708" lon="5.39955">
        <ele>192.879</ele>
        <time>2019-09-22T10:16:04.001Z</time>
      </trkpt>
      <trkpt lat="49.13694" lon="5.3996">
        <ele>192.755</ele>
        <time>2019-09-22T10:16:07.001Z</time>
      </trkpt>
      <trkpt lat="49.13681" lon="5.39966">
        <ele>192.777</ele>
        <time>2019-09-22T10:16:10.001Z</time>
      </trkpt>
      <trkpt lat="49.13669" lon="5.39971">
        <ele>192.227</ele>
        <time>2019-09-22T10:16:13.001Z</time>
      </trkpt>
      <trkpt lat="49.13656" lon="5.39977">
        <ele>191.639</ele>
        <time>2019-09-22T10:16:16.000Z</time>
      </trkpt>
      <trkpt lat="49.13644" lon="5.39982">
        <ele>191.462</ele>
        <time>2019-09-22T10:16:19.001Z</time>
      </trkpt>
      <trkpt lat="49.13631" lon="5.39987">
        <ele>191.104</ele>
        <time>2019-09-22T10:16:22.001Z</time>
      </trkpt>
      <trkpt lat="49.13618" lon="5.39992">
        <ele>190.801</ele>
        <time>2019-09-22T10:16:25.001Z</time>
      </trkpt>
      <trkpt lat="49.13602" lon="5.39997">
        <ele>190.341</ele>
        <time>2019-09-22T10:16:28.001Z</time>
      </trkpt>
      <trkpt lat="49.13586" lon="5.40004">
        <ele>189.679</ele>
        <time>2019-09-22T10:16:31.001Z</time>
      </trkpt>
      <trkpt lat="49.13569" lon="5.40011">
        <ele>189.126</ele>
        <time>2019-09-22T10:16:34.001Z</time>
      </trkpt>
      <trkpt lat="49.13552" lon="5.40017">
        <ele>189.101</ele>
        <time>2019-09-22T10:16:37.001Z</time>
      </trkpt>
      <trkpt lat="49.13536" lon="5.40024">
        <ele>189.683</ele>
        <time>2019-09-22T10:16:40.001Z</time>
      </trkpt>
      <trkpt lat="49.13521" lon="5.4003">
        <ele>190.355</ele>
        <time>2019-09-22T10:16:43.001Z</time>
      </trkpt>
      <trkpt lat="49.13505" lon="5.40034">
        <ele>191.57</ele>
        <time>2019-09-22T10:16:46.001Z</time>
      </trkpt>
      <trkpt lat="49.13489" lon="5.40037">
        <ele>192.558</ele>
        <time>2019-09-22T10:16:49.001Z</time>
      </trkpt>
      <trkpt lat="49.13473" lon="5.40037">
        <ele>193.592</ele>
        <time>2019-09-22T10:16:52.001Z</time>
      </trkpt>
      <trkpt lat="49.13457" lon="5.40036">
        <ele>194.186</ele>
        <time>2019-09-22T10:16:55.001Z</time>
      </trkpt>
      <trkpt lat="49.13442" lon="5.40036">
        <ele>194.372</ele>
        <time>2019-09-22T10:16:58.001Z</time>
      </trkpt>
      <trkpt lat="49.13427" lon="5.40035">
        <ele>194.299</ele>
        <time>2019-09-22T10:17:01.001Z</time>
      </trkpt>
      <trkpt lat="49.13412" lon="5.40035">
        <ele>194.281</ele>
        <time>2019-09-22T10:17:04.001Z</time>
      </trkpt>
      <trkpt lat="49.13399" lon="5.40033">
        <ele>194.37</ele>
        <time>2019-09-22T10:17:07.001Z</time>
      </trkpt>
      <trkpt lat="49.13385" lon="5.40031">
        <ele>195.009</ele>
        <time>2019-09-22T10:17:10.001Z</time>
      </trkpt>
      <trkpt lat="49.13373" lon="5.40029">
        <ele>195.088</ele>
        <time>2019-09-22T10:17:13.001Z</time>
      </trkpt>
      <trkpt lat="49.13362" lon="5.40027">
        <ele>195.403</ele>
        <time>2019-09-22T10:17:16.000Z</time>
      </trkpt>
      <trkpt lat="49.13351" lon="5.40026">
        <ele>195.092</ele>
        <time>2019-09-22T10:17:19.001Z</time>
      </trkpt>
      <trkpt lat="49.13339" lon="5.40026">
        <ele>194.972</ele>
        <time>2019-09-22T10:17:22.001Z</time>
      </trkpt>
      <trkpt lat="49.13326" lon="5.40025">
        <ele>195.369</ele>
        <time>2019-09-22T10:17:25.001Z</time>
      </trkpt>
      <trkpt lat="49.13313" lon="5.40023">
        <ele>196.065</ele>
        <time>2019-09-22T10:17:28.001Z</time>
      </trkpt>
      <trkpt lat="49.13299" lon="5.40023">
        <ele>196.217</ele>
        <time>2019-09-22T10:17:31.001Z</time>
      </trkpt>
      <trkpt lat="49.13287" lon="5.40021">
        <ele>195.879</ele>
        <time>2019-09-22T10:17:34.001Z</time>
      </trkpt>
      <trkpt lat="49.13274" lon="5.40021">
        <ele>195.146</ele>
        <time>2019-09-22T10:17:37.001Z</time>
      </trkpt>
      <trkpt lat="49.1326" lon="5.4002">
        <ele>194.944</ele>
        <time>2019-09-22T10:17:40.001Z</time>
      </trkpt>
      <trkpt lat="49.13244" lon="5.40016">
        <ele>195.095</ele>
        <time>2019-09-22T10:17:43.001Z</time>
      </trkpt>
      <trkpt lat="49.13227" lon="5.40013">
        <ele>196.065</ele>
        <time>2019-09-22T10:17:46.001Z</time>
      </trkpt>
      <trkpt lat="49.13212" lon="5.40021">
        <ele>196.942</ele>
        <time>2019-09-22T10:17:49.001Z</time>
      </trkpt>
      <trkpt lat="49.132" lon="5.40026">
        <ele>197.086</ele>
        <time>2019-09-22T10:17:52.001Z</time>
      </trkpt>
      <trkpt lat="49.13187" lon="5.40028">
        <ele>197.588</ele>
        <time>2019-09-22T10:17:55.001Z</time>
      </trkpt>
      <trkpt lat="49.13174" lon="5.40029">
        <ele>198.823</ele>
        <time>2019-09-22T10:17:58.001Z</time>
      </trkpt>
      <trkpt lat="49.13163" lon="5.40029">
        <ele>199.67</ele>
        <time>2019-09-22T10:18:01.001Z</time>
      </trkpt>
      <trkpt lat="49.13152" lon="5.40027">
        <ele>199.812</ele>
        <time>2019-09-22T10:18:04.001Z</time>
      </trkpt>
      <trkpt lat="49.13141" lon="5.40027">
        <ele>200.223</ele>
        <time>2019-09-22T10:18:07.001Z</time>
      </trkpt>
      <trkpt lat="49.13129" lon="5.40027">
        <ele>199.86</ele>
        <time>2019-09-22T10:18:10.001Z</time>
      </trkpt>
      <trkpt lat="49.13118" lon="5.40025">
        <ele>199.801</ele>
        <time>2019-09-22T10:18:13.001Z</time>
      </trkpt>
      <trkpt lat="49.13106" lon="5.40023">
        <ele>199.418</ele>
        <time>2019-09-22T10:18:16.000Z</time>
      </trkpt>
      <trkpt lat="49.13095" lon="5.40023">
        <ele>198.63</ele>
        <time>2019-09-22T10:18:19.001Z</time>
      </trkpt>
      <trkpt lat="49.13083" lon="5.40022">
        <ele>198.884</ele>
        <time>2019-09-22T10:18:22.001Z</time>
      </trkpt>
      <trkpt lat="49.13073" lon="5.40021">
        <ele>198.968</ele>
        <time>2019-09-22T10:18:25.001Z</time>
      </trkpt>
      <trkpt lat="49.13062" lon="5.40019">
        <ele>198.907</ele>
        <time>2019-09-22T10:18:28.001Z</time>
      </trkpt>
      <trkpt lat="49.13052" lon="5.40019">
        <ele>198.918</ele>
        <time>2019-09-22T10:18:31.001Z</time>
      </trkpt>
      <trkpt lat="49.13042" lon="5.40018">
        <ele>199.377</ele>
        <time>2019-09-22T10:18:34.001Z</time>
      </trkpt>
      <trkpt lat="49.13032" lon="5.40017">
        <ele>199.628</ele>
        <time>2019-09-22T10:18:37.001Z</time>
      </trkpt>
      <trkpt lat="49.13022" lon="5.40017">
        <ele>199.859</ele>
        <time>2019-09-22T10:18:40.001Z</time>
      </trkpt>
      <trkpt lat="49.13011" lon="5.40017">
        <ele>200.103</ele>
        <time>2019-09-22T10:18:43.001Z</time>
      </trkpt>
      <trkpt lat="49.13001" lon="5.40016">
        <ele>199.981</ele>
        <time>2019-09-22T10:18:46.001Z</time>
      </trkpt>
      <trkpt lat="49.12992" lon="5.40016">
        <ele>199.845</ele>
        <time>2019-09-22T10:18:49.001Z</time>
      </trkpt>
      <trkpt lat="49.12982" lon="5.40016">
        <ele>200.251</ele>
        <time>2019-09-22T10:18:52.001Z</time>
      </trkpt>
      <trkpt lat="49.12972" lon="5.40014">
        <ele>201.22</ele>
        <time>2019-09-22T10:18:55.001Z</time>
      </trkpt>
      <trkpt lat="49.12963" lon="5.40013">
        <ele>202.548</ele>
        <time>2019-09-22T10:18:58.001Z</time>
      </trkpt>
      <trkpt lat="49.12953" lon="5.40011">
        <ele>203.624</ele>
        <time>2019-09-22T10:19:01.001Z</time>
      </trkpt>
      <trkpt lat="49.12944" lon="5.4001">
        <ele>203.972</ele>
        <time>2019-09-22T10:19:04.001Z</time>
      </trkpt>
      <trkpt lat="49.12935" lon="5.4001">
        <ele>204.694</ele>
        <time>2019-09-22T10:19:07.001Z</time>
      </trkpt>
      <trkpt lat="49.12927" lon="5.4001">
        <ele>205.126</ele>
        <time>2019-09-22T10:19:10.001Z</time>
      </trkpt>
      <trkpt lat="49.12918" lon="5.40009">
        <ele>205.491</ele>
        <time>2019-09-22T10:19:13.001Z</time>
      </trkpt>
      <trkpt lat="49.1291" lon="5.40008">
        <ele>206.029</ele>
        <time>2019-09-22T10:19:16.000Z</time>
      </trkpt>
      <trkpt lat="49.12902" lon="5.40008">
        <ele>207.093</ele>
        <time>2019-09-22T10:19:19.001Z</time>
      </trkpt>
      <trkpt lat="49.12893" lon="5.40008">
        <ele>207.971</ele>
        <time>2019-09-22T10:19:22.001Z</time>
      </trkpt>
      <trkpt lat="49.12884" lon="5.40006">
        <ele>208.297</ele>
        <time>2019-09-22T10:19:25.001Z</time>
      </trkpt>
      <trkpt lat="49.12875" lon="5.40004">
        <ele>208.406</ele>
        <time>2019-09-22T10:19:28.001Z</time>
      </trkpt>
      <trkpt lat="49.12866" lon="5.40001">
        <ele>208.335</ele>
        <time>2019-09-22T10:19:31.001Z</time>
      </trkpt>
      <trkpt lat="49.12857" lon="5.4">
        <ele>208.184</ele>
        <time>2019-09-22T10:19:34.001Z</time>
      </trkpt>
      <trkpt lat="49.12849" lon="5.40002">
        <ele>208.31</ele>
        <time>2019-09-22T10:19:37.001Z</time>
      </trkpt>
      <trkpt lat="49.1284" lon="5.40003">
        <ele>208.459</ele>
        <time>2019-09-22T10:19:40.001Z</time>
      </trkpt>
      <trkpt lat="49.12831" lon="5.40002">
        <ele>208.444</ele>
        <time>2019-09-22T10:19:43.001Z</time>
      </trkpt>
      <trkpt lat="49.12822" lon="5.4">
        <ele>208.591</ele>
        <time>2019-09-22T10:19:46.001Z</time>
      </trkpt>
      <trkpt lat="49.12813" lon="5.39999">
        <ele>208.765</ele>
        <time>2019-09-22T10:19:49.001Z</time>
      </trkpt>
      <trkpt lat="49.12805" lon="5.39999">
        <ele>208.929</ele>
        <time>2019-09-22T10:19:52.001Z</time>
      </trkpt>
      <trkpt lat="49.12796" lon="5.39998">
        <ele>208.92</ele>
        <time>2019-09-22T10:19:55.001Z</time>
      </trkpt>
      <trkpt lat="49.12788" lon="5.39999">
        <ele>208.611</ele>
        <time>2019-09-22T10:19:58.001Z</time>
      </trkpt>
      <trkpt lat="49.1278" lon="5.39999">
        <ele>208.963</ele>
        <time>2019-09-22T10:20:01.001Z</time>
      </trkpt>
      <trkpt lat="49.12772" lon="5.39998">
        <ele>210.225</ele>
        <time>2019-09-22T10:20:04.001Z</time>
      </trkpt>
      <trkpt lat="49.12764" lon="5.39997">
        <ele>211.082</ele>
        <time>2019-09-22T10:20:07.001Z</time>
      </trkpt>
      <trkpt lat="49.12756" lon="5.39998">
        <ele>211.958</ele>
        <time>2019-09-22T10:20:10.001Z</time>
      </trkpt>
      <trkpt lat="49.12749" lon="5.39998">
        <ele>212.473</ele>
        <time>2019-09-22T10:20:13.001Z</time>
      </trkpt>
      <trkpt lat="49.12742" lon="5.39996">
        <ele>212.752</ele>
        <time>2019-09-22T10:20:16.000Z</time>
      </trkpt>
      <trkpt lat="49.12734" lon="5.39996">
        <ele>212.694</ele>
        <time>2019-09-22T10:20:19.001Z</time>
      </trkpt>
      <trkpt lat="49.12726" lon="5.39993">
        <ele>212.943</ele>
        <time>2019-09-22T10:20:22.001Z</time>
      </trkpt>
      <trkpt lat="49.12719" lon="5.39992">
        <ele>213.01</ele>
        <time>2019-09-22T10:20:25.001Z</time>
      </trkpt>
      <trkpt lat="49.12712" lon="5.39991">
        <ele>213.122</ele>
        <time>2019-09-22T10:20:28.001Z</time>
      </trkpt>
      <trkpt lat="49.12704" lon="5.39989">
        <ele>213.599</ele>
        <time>2019-09-22T10:20:31.001Z</time>
      </trkpt>
      <trkpt lat="49.12697" lon="5.39987">
        <ele>214.07</ele>
        <time>2019-09-22T10:20:34.001Z</time>
      </trkpt>
      <trkpt lat="49.1269" lon="5.39985">
        <ele>214.427</ele>
        <time>2019-09-22T10:20:37.001Z</time>
      </trkpt>
      <trkpt lat="49.12683" lon="5.39983">
        <ele>214.194</ele>
        <time>2019-09-22T10:20:40.001Z</time>
      </trkpt>
      <trkpt lat="49.12676" lon="5.3998">
        <ele>214.174</ele>
        <time>2019-09-22T10:20:43.001Z</time>
      </trkpt>
      <trkpt lat="49.12669" lon="5.39978">
        <ele>213.973</ele>
        <time>2019-09-22T10:20:46.001Z</time>
      </trkpt>
      <trkpt lat="49.12662" lon="5.39976">
        <ele>214.096</ele>
        <time>2019-09-22T10:20:49.001Z</time>
      </trkpt>
      <trkpt lat="49.12655" lon="5.39973">
        <ele>214.875</ele>
        <time>2019-09-22T10:20:52.001Z</time>
      </trkpt>
      <trkpt lat="49.12649" lon="5.39969">
        <ele>215.535</ele>
        <time>2019-09-22T10:20:55.001Z</time>
      </trkpt>
      <trkpt lat="49.12642" lon="5.39966">
        <ele>216.243</ele>
        <time>2019-09-22T10:20:58.001Z</time>
      </trkpt>
      <trkpt lat="49.12636" lon="5.39962">
        <ele>216.714</ele>
        <time>2019-09-22T10:21:01.001Z</time>
      </trkpt>
      <trkpt lat="49.1263" lon="5.3996">
        <ele>216.891</ele>
        <time>2019-09-22T10:21:04.001Z</time>
      </trkpt>
      <trkpt lat="49.12623" lon="5.39956">
        <ele>217.249</ele>
        <time>2019-09-22T10:21:07.001Z</time>
      </trkpt>
      <trkpt lat="49.12617" lon="5.39952">
        <ele>217.638</ele>
        <time>2019-09-22T10:21:10.001Z</time>
      </trkpt>
      <trkpt lat="49.1261" lon="5.39947">
        <ele>217.761</ele>
        <time>2019-09-22T10:21:13.001Z</time>
      </trkpt>
      <trkpt lat="49.12603" lon="5.39942">
        <ele>218.222</ele>
        <time>2019-09-22T10:21:16.000Z</time>
      </trkpt>
      <trkpt lat="49.12597" lon="5.39937">
        <ele>218.184</ele>
        <time>2019-09-22T10:21:19.001Z</time>
      </trkpt>
      <trkpt lat="49.1259" lon="5.39932">
        <ele>218.187</ele>
        <time>2019-09-22T10:21:22.001Z</time>
      </trkpt>
      <trkpt lat="49.12584" lon="5.39927">
        <ele>218.054</ele>
        <time>2019-09-22T10:21:25.001Z</time>
      </trkpt>
      <trkpt lat="49.12577" lon="5.39921">
        <ele>218.333</ele>
        <time>2019-09-22T10:21:28.002Z</time>
      </trkpt>
      <trkpt lat="49.12571" lon="5.39914">
        <ele>218.492</ele>
        <time>2019-09-22T10:21:31.001Z</time>
      </trkpt>
      <trkpt lat="49.12565" lon="5.39907">
        <ele>218.019</ele>
        <time>2019-09-22T10:21:34.001Z</time>
      </trkpt>
      <trkpt lat="49.12558" lon="5.399">
        <ele>217.837</ele>
        <time>2019-09-22T10:21:37.001Z</time>
      </trkpt>
      <trkpt lat="49.12551" lon="5.39892">
        <ele>218.172</ele>
        <time>2019-09-22T10:21:40.001Z</time>
      </trkpt>
      <trkpt lat="49.12545" lon="5.39885">
        <ele>218.633</ele>
        <time>2019-09-22T10:21:43.001Z</time>
      </trkpt>
      <trkpt lat="49.12538" lon="5.39877">
        <ele>218.588</ele>
        <time>2019-09-22T10:21:46.001Z</time>
      </trkpt>
      <trkpt lat="49.1253" lon="5.39869">
        <ele>218.744</ele>
        <time>2019-09-22T10:21:49.001Z</time>
      </trkpt>
      <trkpt lat="49.12524" lon="5.39861">
        <ele>219.299</ele>
        <time>2019-09-22T10:21:52.001Z</time>
      </trkpt>
      <trkpt lat="49.12517" lon="5.39855">
        <ele>219.848</ele>
        <time>2019-09-22T10:21:55.001Z</time>
      </trkpt>
      <trkpt lat="49.1251" lon="5.39848">
        <ele>220.444</ele>
        <time>2019-09-22T10:21:58.001Z</time>
      </trkpt>
      <trkpt lat="49.12504" lon="5.39839">
        <ele>220.902</ele>
        <time>2019-09-22T10:22:01.001Z</time>
      </trkpt>
      <trkpt lat="49.12498" lon="5.3983">
        <ele>221.175</ele>
        <time>2019-09-22T10:22:04.001Z</time>
      </trkpt>
      <trkpt lat="49.12491" lon="5.39822">
        <ele>221.504</ele>
        <time>2019-09-22T10:22:07.001Z</time>
      </trkpt>
      <trkpt lat="49.12485" lon="5.39815">
        <ele>221.67</ele>
        <time>2019-09-22T10:22:10.001Z</time>
      </trkpt>
      <trkpt lat="49.12479" lon="5.3981">
        <ele>221.868</ele>
        <time>2019-09-22T10:22:13.001Z</time>
      </trkpt>
      <trkpt lat="49.12474" lon="5.39803">
        <ele>222.166</ele>
        <time>2019-09-22T10:22:16.000Z</time>
      </trkpt>
      <trkpt lat="49.12468" lon="5.39796">
        <ele>222.635</ele>
        <time>2019-09-22T10:22:19.001Z</time>
      </trkpt>
      <trkpt lat="49.12462" lon="5.39788">
        <ele>222.987</ele>
        <time>2019-09-22T10:22:22.001Z</time>
      </trkpt>
      <trkpt lat="49.12455" lon="5.3978">
        <ele>223.25</ele>
        <time>2019-09-22T10:22:25.001Z</time>
      </trkpt>
      <trkpt lat="49.12448" lon="5.39773">
        <ele>223.242</ele>
        <time>2019-09-22T10:22:28.001Z</time>
      </trkpt>
      <trkpt lat="49.12441" lon="5.39765">
        <ele>223.047</ele>
        <time>2019-09-22T10:22:31.001Z</time>
      </trkpt>
      <trkpt lat="49.12434" lon="5.39758">
        <ele>223.478</ele>
        <time>2019-09-22T10:22:34.001Z</time>
      </trkpt>
      <trkpt lat="49.12428" lon="5.39749">
        <ele>223.893</ele>
        <time>2019-09-22T10:22:37.001Z</time>
      </trkpt>
      <trkpt lat="49.12421" lon="5.39741">
        <ele>224.263</ele>
        <time>2019-09-22T10:22:40.001Z</time>
      </trkpt>
      <trkpt lat="49.12415" lon="5.39733">
        <ele>224.033</ele>
        <time>2019-09-22T10:22:43.001Z</time>
      </trkpt>
      <trkpt lat="49.12409" lon="5.39725">
        <ele>223.845</ele>
        <time>2019-09-22T10:22:46.001Z</time>
      </trkpt>
      <trkpt lat="49.12403" lon="5.39717">
        <ele>223.534</ele>
        <time>2019-09-22T10:22:49.001Z</time>
      </trkpt>
      <trkpt lat="49.12397" lon="5.39708">
        <ele>223.004</ele>
        <time>2019-09-22T10:22:52.001Z</time>
      </trkpt>
      <trkpt lat="49.12392" lon="5.397">
        <ele>222.666</ele>
        <time>2019-09-22T10:22:55.001Z</time>
      </trkpt>
      <trkpt lat="49.12387" lon="5.3969">
        <ele>222.963</ele>
        <time>2019-09-22T10:22:58.001Z</time>
      </trkpt>
      <trkpt lat="49.12381" lon="5.39681">
        <ele>223.032</ele>
        <time>2019-09-22T10:23:01.001Z</time>
      </trkpt>
      <trkpt lat="49.12375" lon="5.39672">
        <ele>223.65</ele>
        <time>2019-09-22T10:23:04.001Z</time>
      </trkpt>
      <trkpt lat="49.1237" lon="5.39663">
        <ele>224.309</ele>
        <time>2019-09-22T10:23:07.001Z</time>
      </trkpt>
      <trkpt lat="49.12365" lon="5.39652">
        <ele>224.676</ele>
        <time>2019-09-22T10:23:10.001Z</time>
      </trkpt>
      <trkpt lat="49.12359" lon="5.39642">
        <ele>224.695</ele>
        <time>2019-09-22T10:23:13.001Z</time>
      </trkpt>
      <trkpt lat="49.12353" lon="5.39631">
        <ele>225.04</ele>
        <time>2019-09-22T10:23:16.000Z</time>
      </trkpt>
      <trkpt lat="49.12348" lon="5.3962">
        <ele>225.119</ele>
        <time>2019-09-22T10:23:19.001Z</time>
      </trkpt>
      <trkpt lat="49.12342" lon="5.39609">
        <ele>225.32</ele>
        <time>2019-09-22T10:23:22.001Z</time>
      </trkpt>
      <trkpt lat="49.12337" lon="5.39597">
        <ele>225.479</ele>
        <time>2019-09-22T10:23:25.001Z</time>
      </trkpt>
      <trkpt lat="49.12332" lon="5.39586">
        <ele>225.181</ele>
        <time>2019-09-22T10:23:28.001Z</time>
      </trkpt>
      <trkpt lat="49.12326" lon="5.39576">
        <ele>224.618</ele>
        <time>2019-09-22T10:23:31.001Z</time>
      </trkpt>
      <trkpt lat="49.1232" lon="5.39564">
        <ele>223.95</ele>
        <time>2019-09-22T10:23:34.001Z</time>
      </trkpt>
      <trkpt lat="49.12315" lon="5.39553">
        <ele>223.462</ele>
        <time>2019-09-22T10:23:37.001Z</time>
      </trkpt>
      <trkpt lat="49.12308" lon="5.3954">
        <ele>223.162</ele>
        <time>2019-09-22T10:23:40.001Z</time>
      </trkpt>
      <trkpt lat="49.12301" lon="5.39528">
        <ele>223.268</ele>
        <time>2019-09-22T10:23:43.001Z</time>
      </trkpt>
      <trkpt lat="49.12294" lon="5.39515">
        <ele>223.63</ele>
        <time>2019-09-22T10:23:46.001Z</time>
      </trkpt>
      <trkpt lat="49.12288" lon="5.39503">
        <ele>224.323</ele>
        <time>2019-09-22T10:23:49.001Z</time>
      </trkpt>
      <trkpt lat="49.12281" lon="5.39491">
        <ele>225.007</ele>
        <time>2019-09-22T10:23:52.001Z</time>
      </trkpt>
      <trkpt lat="49.12274" lon="5.39479">
        <ele>225.668</ele>
        <time>2019-09-22T10:23:55.001Z</time>
      </trkpt>
      <trkpt lat="49.12268" lon="5.39467">
        <ele>226.174</ele>
        <time>2019-09-22T10:23:58.001Z</time>
      </trkpt>
      <trkpt lat="49.12261" lon="5.39454">
        <ele>226.201</ele>
        <time>2019-09-22T10:24:01.001Z</time>
      </trkpt>
      <trkpt lat="49.12253" lon="5.39442">
        <ele>225.856</ele>
        <time>2019-09-22T10:24:04.001Z</time>
      </trkpt>
      <trkpt lat="49.12245" lon="5.39429">
        <ele>225.691</ele>
        <time>2019-09-22T10:24:07.001Z</time>
      </trkpt>
      <trkpt lat="49.12237" lon="5.39416">
        <ele>225.379</ele>
        <time>2019-09-22T10:24:10.001Z</time>
      </trkpt>
      <trkpt lat="49.12229" lon="5.39403">
        <ele>225.693</ele>
        <time>2019-09-22T10:24:13.001Z</time>
      </trkpt>
      <trkpt lat="49.12221" lon="5.3939">
        <ele>226.087</ele>
        <time>2019-09-22T10:24:16.000Z</time>
      </trkpt>
      <trkpt lat="49.12212" lon="5.39377">
        <ele>226.363</ele>
        <time>2019-09-22T10:24:19.001Z</time>
      </trkpt>
      <trkpt lat="49.12204" lon="5.39364">
        <ele>227.036</ele>
        <time>2019-09-22T10:24:22.001Z</time>
      </trkpt>
      <trkpt lat="49.12196" lon="5.39352">
        <ele>227.934</ele>
        <time>2019-09-22T10:24:25.001Z</time>
      </trkpt>
      <trkpt lat="49.12188" lon="5.3934">
        <ele>228.533</ele>
        <time>2019-09-22T10:24:28.001Z</time>
      </trkpt>
      <trkpt lat="49.12181" lon="5.39328">
        <ele>229.022</ele>
        <time>2019-09-22T10:24:31.001Z</time>
      </trkpt>
      <trkpt lat="49.12174" lon="5.39316">
        <ele>229.282</ele>
        <time>2019-09-22T10:24:34.001Z</time>
      </trkpt>
      <trkpt lat="49.12167" lon="5.39304">
        <ele>229.271</ele>
        <time>2019-09-22T10:24:37.001Z</time>
      </trkpt>
      <trkpt lat="49.12159" lon="5.39292">
        <ele>229.301</ele>
        <time>2019-09-22T10:24:40.001Z</time>
      </trkpt>
      <trkpt lat="49.12151" lon="5.39279">
        <ele>229.56</ele>
        <time>2019-09-22T10:24:43.001Z</time>
      </trkpt>
      <trkpt lat="49.12142" lon="5.39266">
        <ele>229.584</ele>
        <time>2019-09-22T10:24:46.001Z</time>
      </trkpt>
      <trkpt lat="49.12134" lon="5.39254">
        <ele>228.913</ele>
        <time>2019-09-22T10:24:49.001Z</time>
      </trkpt>
      <trkpt lat="49.12125" lon="5.39242">
        <ele>228.046</ele>
        <time>2019-09-22T10:24:52.001Z</time>
      </trkpt>
      <trkpt lat="49.12117" lon="5.39228">
        <ele>226.858</ele>
        <time>2019-09-22T10:24:55.001Z</time>
      </trkpt>
      <trkpt lat="49.12109" lon="5.39215">
        <ele>225.993</ele>
        <time>2019-09-22T10:24:58.001Z</time>
      </trkpt>
      <trkpt lat="49.12102" lon="5.39202">
        <ele>225.092</ele>
        <time>2019-09-22T10:25:01.001Z</time>
      </trkpt>
      <trkpt lat="49.12095" lon="5.3919">
        <ele>224.572</ele>
        <time>2019-09-22T10:25:04.001Z</time>
      </trkpt>
      <trkpt lat="49.12088" lon="5.39178">
        <ele>224.366</ele>
        <time>2019-09-22T10:25:07.001Z</time>
      </trkpt>
      <trkpt lat="49.12082" lon="5.39167">
        <ele>224.617</ele>
        <time>2019-09-22T10:25:10.001Z</time>
      </trkpt>
      <trkpt lat="49.12076" lon="5.39154">
        <ele>224.803</ele>
        <time>2019-09-22T10:25:13.001Z</time>
      </trkpt>
      <trkpt lat="49.12071" lon="5.39142">
        <ele>225.254</ele>
        <time>2019-09-22T10:25:16.000Z</time>
      </trkpt>
      <trkpt lat="49.12066" lon="5.39128">
        <ele>225.697</ele>
        <time>2019-09-22T10:25:19.001Z</time>
      </trkpt>
      <trkpt lat="49.12061" lon="5.39113">
        <ele>226.333</ele>
        <time>2019-09-22T10:25:22.001Z</time>
      </trkpt>
      <trkpt lat="49.12057" lon="5.39096">
        <ele>226.615</ele>
        <time>2019-09-22T10:25:25.001Z</time>
      </trkpt>
      <trkpt lat="49.12053" lon="5.39078">
        <ele>226.791</ele>
        <time>2019-09-22T10:25:28.001Z</time>
      </trkpt>
      <trkpt lat="49.12049" lon="5.39059">
        <ele>226.417</ele>
        <time>2019-09-22T10:25:31.001Z</time>
      </trkpt>
      <trkpt lat="49.12045" lon="5.3904">
        <ele>225.865</ele>
        <time>2019-09-22T10:25:34.001Z</time>
      </trkpt>
      <trkpt lat="49.1204" lon="5.39019">
        <ele>226.188</ele>
        <time>2019-09-22T10:25:37.001Z</time>
      </trkpt>
      <trkpt lat="49.12035" lon="5.38999">
        <ele>226.952</ele>
        <time>2019-09-22T10:25:40.001Z</time>
      </trkpt>
      <trkpt lat="49.12031" lon="5.38977">
        <ele>227.624</ele>
        <time>2019-09-22T10:25:43.001Z</time>
      </trkpt>
      <trkpt lat="49.12026" lon="5.38955">
        <ele>227.572</ele>
        <time>2019-09-22T10:25:46.001Z</time>
      </trkpt>
      <trkpt lat="49.12021" lon="5.38934">
        <ele>227.72</ele>
        <time>2019-09-22T10:25:49.001Z</time>
      </trkpt>
      <trkpt lat="49.12016" lon="5.38913">
        <ele>228.571</ele>
        <time>2019-09-22T10:25:52.001Z</time>
      </trkpt>
      <trkpt lat="49.12011" lon="5.38893">
        <ele>228.704</ele>
        <time>2019-09-22T10:25:55.001Z</time>
      </trkpt>
      <trkpt lat="49.12006" lon="5.38873">
        <ele>228.74</ele>
        <time>2019-09-22T10:25:58.001Z</time>
      </trkpt>
      <trkpt lat="49.12002" lon="5.38853">
        <ele>228.822</ele>
        <time>2019-09-22T10:26:01.001Z</time>
      </trkpt>
      <trkpt lat="49.11997" lon="5.38832">
        <ele>229.327</ele>
        <time>2019-09-22T10:26:04.001Z</time>
      </trkpt>
      <trkpt lat="49.11993" lon="5.38813">
        <ele>229.636</ele>
        <time>2019-09-22T10:26:07.001Z</time>
      </trkpt>
      <trkpt lat="49.1199" lon="5.38796">
        <ele>229.994</ele>
        <time>2019-09-22T10:26:10.001Z</time>
      </trkpt>
      <trkpt lat="49.11986" lon="5.3878">
        <ele>229.952</ele>
        <time>2019-09-22T10:26:13.001Z</time>
      </trkpt>
      <trkpt lat="49.11982" lon="5.38765">
        <ele>229.723</ele>
        <time>2019-09-22T10:26:16.000Z</time>
      </trkpt>
      <trkpt lat="49.11979" lon="5.3875">
        <ele>229.575</ele>
        <time>2019-09-22T10:26:19.001Z</time>
      </trkpt>
      <trkpt lat="49.11976" lon="5.38736">
        <ele>229.491</ele>
        <time>2019-09-22T10:26:22.001Z</time>
      </trkpt>
      <trkpt lat="49.11973" lon="5.38723">
        <ele>229.137</ele>
        <time>2019-09-22T10:26:25.001Z</time>
      </trkpt>
      <trkpt lat="49.11971" lon="5.38709">
        <ele>228.966</ele>
        <time>2019-09-22T10:26:28.001Z</time>
      </trkpt>
      <trkpt lat="49.11968" lon="5.38695">
        <ele>228.947</ele>
        <time>2019-09-22T10:26:31.001Z</time>
      </trkpt>
      <trkpt lat="49.11966" lon="5.38682">
        <ele>229.178</ele>
        <time>2019-09-22T10:26:34.001Z</time>
      </trkpt>
      <trkpt lat="49.11963" lon="5.38671">
        <ele>228.716</ele>
        <time>2019-09-22T10:26:37.001Z</time>
      </trkpt>
      <trkpt lat="49.11961" lon="5.38659">
        <ele>228.695</ele>
        <time>2019-09-22T10:26:40.001Z</time>
      </trkpt>
      <trkpt lat="49.11959" lon="5.38646">
        <ele>228.634</ele>
        <time>2019-09-22T10:26:43.001Z</time>
      </trkpt>
      <trkpt lat="49.11956" lon="5.38635">
        <ele>228.733</ele>
        <time>2019-09-22T10:26:46.001Z</time>
      </trkpt>
      <trkpt lat="49.11953" lon="5.38623">
        <ele>229.043</ele>
        <time>2019-09-22T10:26:49.001Z</time>
      </trkpt>
      <trkpt lat="49.11949" lon="5.38612">
        <ele>229.415</ele>
        <time>2019-09-22T10:26:52.001Z</time>
      </trkpt>
      <trkpt lat="49.11945" lon="5.38601">
        <ele>229.734</ele>
        <time>2019-09-22T10:26:55.001Z</time>
      </trkpt>
      <trkpt lat="49.11938" lon="5.38592">
        <ele>229.843</ele>
        <time>2019-09-22T10:26:58.001Z</time>
      </trkpt>
      <trkpt lat="49.11927" lon="5.38596">
        <ele>229.863</ele>
        <time>2019-09-22T10:27:01.001Z</time>
      </trkpt>
      <trkpt lat="49.11917" lon="5.38607">
        <ele>229.955</ele>
        <time>2019-09-22T10:27:04.001Z</time>
      </trkpt>
      <trkpt lat="49.11906" lon="5.38618">
        <ele>230.311</ele>
        <time>2019-09-22T10:27:07.001Z</time>
      </trkpt>
      <trkpt lat="49.11896" lon="5.38627">
        <ele>230.786</ele>
        <time>2019-09-22T10:27:10.001Z</time>
      </trkpt>
      <trkpt lat="49.11886" lon="5.38637">
        <ele>231.031</ele>
        <time>2019-09-22T10:27:13.001Z</time>
      </trkpt>
      <trkpt lat="49.11875" lon="5.38642">
        <ele>231.053</ele>
        <time>2019-09-22T10:27:16.000Z</time>
      </trkpt>
      <trkpt lat="49.11859" lon="5.38643">
        <ele>230.067</ele>
        <time>2019-09-22T10:27:19.001Z</time>
      </trkpt>
      <trkpt lat="49.11846" lon="5.38656">
        <ele>229.124</ele>
        <time>2019-09-22T10:27:22.001Z</time>
      </trkpt>
      <trkpt lat="49.11835" lon="5.38665">
        <ele>228.795</ele>
        <time>2019-09-22T10:27:25.001Z</time>
      </trkpt>
      <trkpt lat="49.11824" lon="5.38671">
        <ele>228.591</ele>
        <time>2019-09-22T10:27:28.001Z</time>
      </trkpt>
      <trkpt lat="49.11813" lon="5.38676">
        <ele>229.208</ele>
        <time>2019-09-22T10:27:31.001Z</time>
      </trkpt>
      <trkpt lat="49.11802" lon="5.38682">
        <ele>230.074</ele>
        <time>2019-09-22T10:27:34.001Z</time>
      </trkpt>
      <trkpt lat="49.11791" lon="5.38688">
        <ele>230.83</ele>
        <time>2019-09-22T10:27:37.001Z</time>
      </trkpt>
      <trkpt lat="49.1178" lon="5.38692">
        <ele>231.075</ele>
        <time>2019-09-22T10:27:40.001Z</time>
      </trkpt>
      <trkpt lat="49.11769" lon="5.38696">
        <ele>231.754</ele>
        <time>2019-09-22T10:27:43.001Z</time>
      </trkpt>
      <trkpt lat="49.11758" lon="5.38698">
        <ele>231.362</ele>
        <time>2019-09-22T10:27:46.001Z</time>
      </trkpt>
      <trkpt lat="49.11746" lon="5.387">
        <ele>231.244</ele>
        <time>2019-09-22T10:27:49.001Z</time>
      </trkpt>
      <trkpt lat="49.11735" lon="5.38701">
        <ele>230.807</ele>
        <time>2019-09-22T10:27:52.001Z</time>
      </trkpt>
      <trkpt lat="49.11723" lon="5.38703">
        <ele>230.758</ele>
        <time>2019-09-22T10:27:55.001Z</time>
      </trkpt>
      <trkpt lat="49.11711" lon="5.38704">
        <ele>231.465</ele>
        <time>2019-09-22T10:27:58.001Z</time>
      </trkpt>
      <trkpt lat="49.11698" lon="5.38706">
        <ele>232.225</ele>
        <time>2019-09-22T10:28:01.001Z</time>
      </trkpt>
      <trkpt lat="49.11685" lon="5.38706">
        <ele>231.893</ele>
        <time>2019-09-22T10:28:04.001Z</time>
      </trkpt>
      <trkpt lat="49.11671" lon="5.38705">
        <ele>231.659</ele>
        <time>2019-09-22T10:28:07.001Z</time>
      </trkpt>
      <trkpt lat="49.11657" lon="5.38704">
        <ele>231.418</ele>
        <time>2019-09-22T10:28:10.001Z</time>
      </trkpt>
      <trkpt lat="49.11641" lon="5.38703">
        <ele>231.041</ele>
        <time>2019-09-22T10:28:13.001Z</time>
      </trkpt>
      <trkpt lat="49.11624" lon="5.387">
        <ele>229.933</ele>
        <time>2019-09-22T10:28:16.000Z</time>
      </trkpt>
      <trkpt lat="49.11605" lon="5.38696">
        <ele>229.646</ele>
        <time>2019-09-22T10:28:19.001Z</time>
      </trkpt>
      <trkpt lat="49.11585" lon="5.38692">
        <ele>228.873</ele>
        <time>2019-09-22T10:28:22.001Z</time>
      </trkpt>
      <trkpt lat="49.11562" lon="5.38687">
        <ele>228.254</ele>
        <time>2019-09-22T10:28:25.001Z</time>
      </trkpt>
      <trkpt lat="49.11539" lon="5.38682">
        <ele>227.697</ele>
        <time>2019-09-22T10:28:28.001Z</time>
      </trkpt>
      <trkpt lat="49.11514" lon="5.38677">
        <ele>227.211</ele>
        <time>2019-09-22T10:28:31.001Z</time>
      </trkpt>
      <trkpt lat="49.11488" lon="5.38672">
        <ele>226.754</ele>
        <time>2019-09-22T10:28:34.001Z</time>
      </trkpt>
      <trkpt lat="49.11461" lon="5.38666">
        <ele>226.18</ele>
        <time>2019-09-22T10:28:37.001Z</time>
      </trkpt>
      <trkpt lat="49.11435" lon="5.3866">
        <ele>225.125</ele>
        <time>2019-09-22T10:28:40.001Z</time>
      </trkpt>
      <trkpt lat="49.1141" lon="5.38656">
        <ele>224.086</ele>
        <time>2019-09-22T10:28:43.001Z</time>
      </trkpt>
      <trkpt lat="49.11386" lon="5.38651">
        <ele>223.185</ele>
        <time>2019-09-22T10:28:46.001Z</time>
      </trkpt>
      <trkpt lat="49.11363" lon="5.38647">
        <ele>222.664</ele>
        <time>2019-09-22T10:28:49.001Z</time>
      </trkpt>
      <trkpt lat="49.11339" lon="5.38644">
        <ele>222.264</ele>
        <time>2019-09-22T10:28:52.001Z</time>
      </trkpt>
      <trkpt lat="49.11315" lon="5.38643">
        <ele>221.215</ele>
        <time>2019-09-22T10:28:55.001Z</time>
      </trkpt>
      <trkpt lat="49.11288" lon="5.38643">
        <ele>219.881</ele>
        <time>2019-09-22T10:28:58.001Z</time>
      </trkpt>
      <trkpt lat="49.11261" lon="5.38644">
        <ele>218.515</ele>
        <time>2019-09-22T10:29:01.001Z</time>
      </trkpt>
      <trkpt lat="49.11233" lon="5.38644">
        <ele>217.674</ele>
        <time>2019-09-22T10:29:04.001Z</time>
      </trkpt>
      <trkpt lat="49.11209" lon="5.38643">
        <ele>216.298</ele>
        <time>2019-09-22T10:29:07.001Z</time>
      </trkpt>
      <trkpt lat="49.11187" lon="5.38642">
        <ele>215.552</ele>
        <time>2019-09-22T10:29:10.001Z</time>
      </trkpt>
      <trkpt lat="49.11166" lon="5.38637">
        <ele>214.885</ele>
        <time>2019-09-22T10:29:13.001Z</time>
      </trkpt>
      <trkpt lat="49.11145" lon="5.38628">
        <ele>214.712</ele>
        <time>2019-09-22T10:29:16.000Z</time>
      </trkpt>
      <trkpt lat="49.11127" lon="5.38618">
        <ele>214.35</ele>
        <time>2019-09-22T10:29:19.001Z</time>
      </trkpt>
      <trkpt lat="49.11108" lon="5.38609">
        <ele>213.518</ele>
        <time>2019-09-22T10:29:22.001Z</time>
      </trkpt>
      <trkpt lat="49.11091" lon="5.38599">
        <ele>212.707</ele>
        <time>2019-09-22T10:29:25.001Z</time>
      </trkpt>
      <trkpt lat="49.11074" lon="5.38591">
        <ele>211.79</ele>
        <time>2019-09-22T10:29:28.001Z</time>
      </trkpt>
      <trkpt lat="49.1106" lon="5.38585">
        <ele>211.036</ele>
        <time>2019-09-22T10:29:31.001Z</time>
      </trkpt>
      <trkpt lat="49.11045" lon="5.38582">
        <ele>210.788</ele>
        <time>2019-09-22T10:29:34.001Z</time>
      </trkpt>
      <trkpt lat="49.11031" lon="5.38579">
        <ele>210.475</ele>
        <time>2019-09-22T10:29:37.001Z</time>
      </trkpt>
      <trkpt lat="49.11017" lon="5.38576">
        <ele>210.118</ele>
        <time>2019-09-22T10:29:40.001Z</time>
      </trkpt>
      <trkpt lat="49.11001" lon="5.38571">
        <ele>209.237</ele>
        <time>2019-09-22T10:29:43.001Z</time>
      </trkpt>
      <trkpt lat="49.10985" lon="5.38568">
        <ele>208.494</ele>
        <time>2019-09-22T10:29:46.001Z</time>
      </trkpt>
      <trkpt lat="49.10966" lon="5.38565">
        <ele>208.158</ele>
        <time>2019-09-22T10:29:49.001Z</time>
      </trkpt>
      <trkpt lat="49.10948" lon="5.38561">
        <ele>207.92</ele>
        <time>2019-09-22T10:29:52.001Z</time>
      </trkpt>
      <trkpt lat="49.10929" lon="5.38557">
        <ele>207.284</ele>
        <time>2019-09-22T10:29:55.001Z</time>
      </trkpt>
      <trkpt lat="49.10911" lon="5.38554">
        <ele>206.66</ele>
        <time>2019-09-22T10:29:58.001Z</time>
      </trkpt>
      <trkpt lat="49.10894" lon="5.38551">
        <ele>206.025</ele>
        <time>2019-09-22T10:30:01.001Z</time>
      </trkpt>
      <trkpt lat="49.10877" lon="5.38546">
        <ele>205.484</ele>
        <time>2019-09-22T10:30:04.001Z</time>
      </trkpt>
      <trkpt lat="49.10859" lon="5.38541">
        <ele>204.778</ele>
        <time>2019-09-22T10:30:07.001Z</time>
      </trkpt>
      <trkpt lat="49.10841" lon="5.38537">
        <ele>203.98</ele>
        <time>2019-09-22T10:30:10.001Z</time>
      </trkpt>
      <trkpt lat="49.10824" lon="5.38534">
        <ele>203.167</ele>
        <time>2019-09-22T10:30:13.001Z</time>
      </trkpt>
      <trkpt lat="49.10806" lon="5.3853">
        <ele>202.987</ele>
        <time>2019-09-22T10:30:16.000Z</time>
      </trkpt>
      <trkpt lat="49.10788" lon="5.38527">
        <ele>202.979</ele>
        <time>2019-09-22T10:30:19.001Z</time>
      </trkpt>
      <trkpt lat="49.1077" lon="5.38524">
        <ele>202.394</ele>
        <time>2019-09-22T10:30:22.001Z</time>
      </trkpt>
      <trkpt lat="49.10752" lon="5.38521">
        <ele>201.605</ele>
        <time>2019-09-22T10:30:25.001Z</time>
      </trkpt>
      <trkpt lat="49.10735" lon="5.38516">
        <ele>201.046</ele>
        <time>2019-09-22T10:30:28.001Z</time>
      </trkpt>
      <trkpt lat="49.10719" lon="5.38512">
        <ele>200.512</ele>
        <time>2019-09-22T10:30:31.001Z</time>
      </trkpt>
      <trkpt lat="49.10702" lon="5.38509">
        <ele>200.636</ele>
        <time>2019-09-22T10:30:34.001Z</time>
      </trkpt>
      <trkpt lat="49.10685" lon="5.38506">
        <ele>201.682</ele>
        <time>2019-09-22T10:30:37.001Z</time>
      </trkpt>
      <trkpt lat="49.10668" lon="5.38503">
        <ele>201.96</ele>
        <time>2019-09-22T10:30:40.001Z</time>
      </trkpt>
      <trkpt lat="49.10651" lon="5.38498">
        <ele>202.238</ele>
        <time>2019-09-22T10:30:43.001Z</time>
      </trkpt>
      <trkpt lat="49.10633" lon="5.38495">
        <ele>202.463</ele>
        <time>2019-09-22T10:30:46.001Z</time>
      </trkpt>
      <trkpt lat="49.10613" lon="5.38492">
        <ele>202.048</ele>
        <time>2019-09-22T10:30:49.001Z</time>
      </trkpt>
      <trkpt lat="49.10591" lon="5.38488">
        <ele>201.206</ele>
        <time>2019-09-22T10:30:52.001Z</time>
      </trkpt>
      <trkpt lat="49.1057" lon="5.38481">
        <ele>200.41</ele>
        <time>2019-09-22T10:30:55.001Z</time>
      </trkpt>
      <trkpt lat="49.10548" lon="5.38475">
        <ele>199.731</ele>
        <time>2019-09-22T10:30:58.001Z</time>
      </trkpt>
      <trkpt lat="49.10529" lon="5.38469">
        <ele>199.465</ele>
        <time>2019-09-22T10:31:01.001Z</time>
      </trkpt>
      <trkpt lat="49.10513" lon="5.38466">
        <ele>200.31</ele>
        <time>2019-09-22T10:31:04.001Z</time>
      </trkpt>
      <trkpt lat="49.10499" lon="5.38462">
        <ele>201.799</ele>
        <time>2019-09-22T10:31:07.001Z</time>
      </trkpt>
      <trkpt lat="49.10488" lon="5.38457">
        <ele>202.087</ele>
        <time>2019-09-22T10:31:10.001Z</time>
      </trkpt>
      <trkpt lat="49.10476" lon="5.38454">
        <ele>201.913</ele>
        <time>2019-09-22T10:31:13.001Z</time>
      </trkpt>
      <trkpt lat="49.10463" lon="5.3845">
        <ele>201.36</ele>
        <time>2019-09-22T10:31:16.000Z</time>
      </trkpt>
      <trkpt lat="49.1045" lon="5.38446">
        <ele>200.702</ele>
        <time>2019-09-22T10:31:19.001Z</time>
      </trkpt>
      <trkpt lat="49.10436" lon="5.3844">
        <ele>200.617</ele>
        <time>2019-09-22T10:31:22.001Z</time>
      </trkpt>
      <trkpt lat="49.10423" lon="5.38436">
        <ele>200.598</ele>
        <time>2019-09-22T10:31:25.001Z</time>
      </trkpt>
      <trkpt lat="49.1041" lon="5.38435">
        <ele>200.153</ele>
        <time>2019-09-22T10:31:28.001Z</time>
      </trkpt>
      <trkpt lat="49.10397" lon="5.38436">
        <ele>199.543</ele>
        <time>2019-09-22T10:31:31.001Z</time>
      </trkpt>
      <trkpt lat="49.10383" lon="5.38439">
        <ele>199.065</ele>
        <time>2019-09-22T10:31:34.001Z</time>
      </trkpt>
      <trkpt lat="49.10369" lon="5.38443">
        <ele>198.615</ele>
        <time>2019-09-22T10:31:37.001Z</time>
      </trkpt>
      <trkpt lat="49.10356" lon="5.38446">
        <ele>198.665</ele>
        <time>2019-09-22T10:31:40.001Z</time>
      </trkpt>
      <trkpt lat="49.10343" lon="5.38449">
        <ele>198.954</ele>
        <time>2019-09-22T10:31:43.001Z</time>
      </trkpt>
      <trkpt lat="49.10331" lon="5.38452">
        <ele>198.387</ele>
        <time>2019-09-22T10:31:46.001Z</time>
      </trkpt>
      <trkpt lat="49.10318" lon="5.38455">
        <ele>197.335</ele>
        <time>2019-09-22T10:31:49.001Z</time>
      </trkpt>
      <trkpt lat="49.10306" lon="5.38458">
        <ele>196.401</ele>
        <time>2019-09-22T10:31:52.001Z</time>
      </trkpt>
      <trkpt lat="49.10293" lon="5.38461">
        <ele>196.019</ele>
        <time>2019-09-22T10:31:55.001Z</time>
      </trkpt>
      <trkpt lat="49.1028" lon="5.38465">
        <ele>196.225</ele>
        <time>2019-09-22T10:31:58.001Z</time>
      </trkpt>
      <trkpt lat="49.10267" lon="5.38467">
        <ele>196.487</ele>
        <time>2019-09-22T10:32:01.001Z</time>
      </trkpt>
      <trkpt lat="49.10255" lon="5.3847">
        <ele>196.967</ele>
        <time>2019-09-22T10:32:04.001Z</time>
      </trkpt>
      <trkpt lat="49.10242" lon="5.38473">
        <ele>197.054</ele>
        <time>2019-09-22T10:32:07.001Z</time>
      </trkpt>
      <trkpt lat="49.1023" lon="5.38477">
        <ele>196.891</ele>
        <time>2019-09-22T10:32:10.001Z</time>
      </trkpt>
      <trkpt lat="49.10217" lon="5.38483">
        <ele>196.933</ele>
        <time>2019-09-22T10:32:13.001Z</time>
      </trkpt>
      <trkpt lat="49.10205" lon="5.38493">
        <ele>197.004</ele>
        <time>2019-09-22T10:32:16.000Z</time>
      </trkpt>
      <trkpt lat="49.10193" lon="5.38506">
        <ele>197.121</ele>
        <time>2019-09-22T10:32:19.001Z</time>
      </trkpt>
      <trkpt lat="49.10181" lon="5.38519">
        <ele>197.057</ele>
        <time>2019-09-22T10:32:22.001Z</time>
      </trkpt>
      <trkpt lat="49.10168" lon="5.38531">
        <ele>196.43</ele>
        <time>2019-09-22T10:32:25.001Z</time>
      </trkpt>
      <trkpt lat="49.10157" lon="5.38542">
        <ele>196.186</ele>
        <time>2019-09-22T10:32:28.001Z</time>
      </trkpt>
      <trkpt lat="49.10145" lon="5.38554">
        <ele>196.381</ele>
        <time>2019-09-22T10:32:31.001Z</time>
      </trkpt>
      <trkpt lat="49.10133" lon="5.38565">
        <ele>196.51</ele>
        <time>2019-09-22T10:32:34.001Z</time>
      </trkpt>
      <trkpt lat="49.10121" lon="5.38577">
        <ele>197.137</ele>
        <time>2019-09-22T10:32:37.001Z</time>
      </trkpt>
      <trkpt lat="49.10108" lon="5.3859">
        <ele>198.596</ele>
        <time>2019-09-22T10:32:40.001Z</time>
      </trkpt>
      <trkpt lat="49.10096" lon="5.38601">
        <ele>199.891</ele>
        <time>2019-09-22T10:32:43.001Z</time>
      </trkpt>
      <trkpt lat="49.10085" lon="5.38615">
        <ele>201.156</ele>
        <time>2019-09-22T10:32:46.001Z</time>
      </trkpt>
      <trkpt lat="49.10073" lon="5.38628">
        <ele>201.879</ele>
        <time>2019-09-22T10:32:49.001Z</time>
      </trkpt>
      <trkpt lat="49.10062" lon="5.38639">
        <ele>201.762</ele>
        <time>2019-09-22T10:32:52.001Z</time>
      </trkpt>
      <trkpt lat="49.10052" lon="5.38649">
        <ele>201.363</ele>
        <time>2019-09-22T10:32:55.001Z</time>
      </trkpt>
      <trkpt lat="49.10041" lon="5.3866">
        <ele>201.25</ele>
        <time>2019-09-22T10:32:58.001Z</time>
      </trkpt>
      <trkpt lat="49.1003" lon="5.38671">
        <ele>201.119</ele>
        <time>2019-09-22T10:33:01.001Z</time>
      </trkpt>
      <trkpt lat="49.1002" lon="5.38684">
        <ele>201.232</ele>
        <time>2019-09-22T10:33:04.001Z</time>
      </trkpt>
      <trkpt lat="49.10007" lon="5.38695">
        <ele>200.828</ele>
        <time>2019-09-22T10:33:07.001Z</time>
      </trkpt>
      <trkpt lat="49.09995" lon="5.38708">
        <ele>200.51</ele>
        <time>2019-09-22T10:33:10.001Z</time>
      </trkpt>
      <trkpt lat="49.09984" lon="5.38718">
        <ele>199.853</ele>
        <time>2019-09-22T10:33:13.001Z</time>
      </trkpt>
      <trkpt lat="49.09972" lon="5.38729">
        <ele>198.926</ele>
        <time>2019-09-22T10:33:16.000Z</time>
      </trkpt>
      <trkpt lat="49.0996" lon="5.38739">
        <ele>198.447</ele>
        <time>2019-09-22T10:33:19.001Z</time>
      </trkpt>
      <trkpt lat="49.09949" lon="5.38751">
        <ele>198.231</ele>
        <time>2019-09-22T10:33:22.001Z</time>
      </trkpt>
      <trkpt lat="49.09937" lon="5.38763">
        <ele>198.134</ele>
        <time>2019-09-22T10:33:25.001Z</time>
      </trkpt>
      <trkpt lat="49.09926" lon="5.38773">
        <ele>198.161</ele>
        <time>2019-09-22T10:33:28.001Z</time>
      </trkpt>
      <trkpt lat="49.09915" lon="5.38785">
        <ele>198.323</ele>
        <time>2019-09-22T10:33:31.001Z</time>
      </trkpt>
      <trkpt lat="49.09905" lon="5.38796">
        <ele>198.621</ele>
        <time>2019-09-22T10:33:34.001Z</time>
      </trkpt>
      <trkpt lat="49.09895" lon="5.38807">
        <ele>198.981</ele>
        <time>2019-09-22T10:33:37.001Z</time>
      </trkpt>
      <trkpt lat="49.09884" lon="5.38818">
        <ele>199.417</ele>
        <time>2019-09-22T10:33:40.001Z</time>
      </trkpt>
      <trkpt lat="49.09873" lon="5.3883">
        <ele>199.216</ele>
        <time>2019-09-22T10:33:43.001Z</time>
      </trkpt>
      <trkpt lat="49.09862" lon="5.38841">
        <ele>199.162</ele>
        <time>2019-09-22T10:33:46.001Z</time>
      </trkpt>
      <trkpt lat="49.09852" lon="5.38853">
        <ele>199.17</ele>
        <time>2019-09-22T10:33:49.001Z</time>
      </trkpt>
      <trkpt lat="49.09841" lon="5.38864">
        <ele>199.135</ele>
        <time>2019-09-22T10:33:52.001Z</time>
      </trkpt>
      <trkpt lat="49.09831" lon="5.38875">
        <ele>198.987</ele>
        <time>2019-09-22T10:33:55.001Z</time>
      </trkpt>
      <trkpt lat="49.0982" lon="5.38885">
        <ele>198.509</ele>
        <time>2019-09-22T10:33:58.001Z</time>
      </trkpt>
      <trkpt lat="49.09809" lon="5.38896">
        <ele>198.102</ele>
        <time>2019-09-22T10:34:01.001Z</time>
      </trkpt>
      <trkpt lat="49.09798" lon="5.38908">
        <ele>197.919</ele>
        <time>2019-09-22T10:34:04.001Z</time>
      </trkpt>
      <trkpt lat="49.09787" lon="5.3892">
        <ele>198.074</ele>
        <time>2019-09-22T10:34:07.001Z</time>
      </trkpt>
      <trkpt lat="49.09776" lon="5.38931">
        <ele>197.809</ele>
        <time>2019-09-22T10:34:10.001Z</time>
      </trkpt>
      <trkpt lat="49.09765" lon="5.38943">
        <ele>197.51</ele>
        <time>2019-09-22T10:34:13.001Z</time>
      </trkpt>
      <trkpt lat="49.09755" lon="5.38953">
        <ele>197.392</ele>
        <time>2019-09-22T10:34:16.000Z</time>
      </trkpt>
      <trkpt lat="49.09744" lon="5.38961">
        <ele>197.391</ele>
        <time>2019-09-22T10:34:19.001Z</time>
      </trkpt>
      <trkpt lat="49.09732" lon="5.3897">
        <ele>197.608</ele>
        <time>2019-09-22T10:34:22.001Z</time>
      </trkpt>
      <trkpt lat="49.0972" lon="5.3898">
        <ele>197.975</ele>
        <time>2019-09-22T10:34:25.001Z</time>
      </trkpt>
      <trkpt lat="49.09707" lon="5.38988">
        <ele>197.88</ele>
        <time>2019-09-22T10:34:28.001Z</time>
      </trkpt>
      <trkpt lat="49.09695" lon="5.38996">
        <ele>197.617</ele>
        <time>2019-09-22T10:34:31.001Z</time>
      </trkpt>
      <trkpt lat="49.09682" lon="5.39004">
        <ele>197.535</ele>
        <time>2019-09-22T10:34:34.001Z</time>
      </trkpt>
      <trkpt lat="49.0967" lon="5.39011">
        <ele>197.188</ele>
        <time>2019-09-22T10:34:37.001Z</time>
      </trkpt>
      <trkpt lat="49.09657" lon="5.39018">
        <ele>197.207</ele>
        <time>2019-09-22T10:34:40.001Z</time>
      </trkpt>
      <trkpt lat="49.09645" lon="5.39024">
        <ele>197.301</ele>
        <time>2019-09-22T10:34:43.001Z</time>
      </trkpt>
      <trkpt lat="49.09632" lon="5.39031">
        <ele>197.198</ele>
        <time>2019-09-22T10:34:46.001Z</time>
      </trkpt>
      <trkpt lat="49.09619" lon="5.39038">
        <ele>197.267</ele>
        <time>2019-09-22T10:34:49.001Z</time>
      </trkpt>
      <trkpt lat="49.09606" lon="5.39045">
        <ele>197.361</ele>
        <time>2019-09-22T10:34:52.001Z</time>
      </trkpt>
      <trkpt lat="49.09594" lon="5.39051">
        <ele>197.42</ele>
        <time>2019-09-22T10:34:55.001Z</time>
      </trkpt>
      <trkpt lat="49.09582" lon="5.39057">
        <ele>197.582</ele>
        <time>2019-09-22T10:34:58.001Z</time>
      </trkpt>
      <trkpt lat="49.0957" lon="5.39064">
        <ele>197.552</ele>
        <time>2019-09-22T10:35:01.001Z</time>
      </trkpt>
      <trkpt lat="49.09558" lon="5.3907">
        <ele>197.461</ele>
        <time>2019-09-22T10:35:04.001Z</time>
      </trkpt>
      <trkpt lat="49.09546" lon="5.39076">
        <ele>197.283</ele>
        <time>2019-09-22T10:35:07.001Z</time>
      </trkpt>
      <trkpt lat="49.09534" lon="5.39082">
        <ele>197.457</ele>
        <time>2019-09-22T10:35:10.001Z</time>
      </trkpt>
      <trkpt lat="49.09522" lon="5.39089">
        <ele>197.485</ele>
        <time>2019-09-22T10:35:13.001Z</time>
      </trkpt>
      <trkpt lat="49.09509" lon="5.39095">
        <ele>197.318</ele>
        <time>2019-09-22T10:35:16.000Z</time>
      </trkpt>
      <trkpt lat="49.09497" lon="5.39101">
        <ele>197.45</ele>
        <time>2019-09-22T10:35:19.001Z</time>
      </trkpt>
      <trkpt lat="49.09486" lon="5.39107">
        <ele>197.603</ele>
        <time>2019-09-22T10:35:22.001Z</time>
      </trkpt>
      <trkpt lat="49.09474" lon="5.39114">
        <ele>197.52</ele>
        <time>2019-09-22T10:35:25.001Z</time>
      </trkpt>
      <trkpt lat="49.09462" lon="5.3912">
        <ele>197.069</ele>
        <time>2019-09-22T10:35:28.001Z</time>
      </trkpt>
      <trkpt lat="49.0945" lon="5.39126">
        <ele>197.072</ele>
        <time>2019-09-22T10:35:31.001Z</time>
      </trkpt>
      <trkpt lat="49.09438" lon="5.39132">
        <ele>197.047</ele>
        <time>2019-09-22T10:35:34.001Z</time>
      </trkpt>
      <trkpt lat="49.09426" lon="5.39139">
        <ele>196.571</ele>
        <time>2019-09-22T10:35:37.001Z</time>
      </trkpt>
      <trkpt lat="49.09413" lon="5.39146">
        <ele>196.266</ele>
        <time>2019-09-22T10:35:40.001Z</time>
      </trkpt>
      <trkpt lat="49.094" lon="5.39152">
        <ele>195.744</ele>
        <time>2019-09-22T10:35:43.001Z</time>
      </trkpt>
      <trkpt lat="49.09387" lon="5.39159">
        <ele>195.438</ele>
        <time>2019-09-22T10:35:46.001Z</time>
      </trkpt>
      <trkpt lat="49.09374" lon="5.39167">
        <ele>195.342</ele>
        <time>2019-09-22T10:35:49.001Z</time>
      </trkpt>
      <trkpt lat="49.09361" lon="5.39175">
        <ele>195.696</ele>
        <time>2019-09-22T10:35:52.001Z</time>
      </trkpt>
      <trkpt lat="49.09348" lon="5.39183">
        <ele>195.955</ele>
        <time>2019-09-22T10:35:55.001Z</time>
      </trkpt>
      <trkpt lat="49.09336" lon="5.3919">
        <ele>196.05</ele>
        <time>2019-09-22T10:35:58.001Z</time>
      </trkpt>
      <trkpt lat="49.09323" lon="5.39199">
        <ele>196.544</ele>
        <time>2019-09-22T10:36:01.001Z</time>
      </trkpt>
      <trkpt lat="49.09311" lon="5.39206">
        <ele>196.618</ele>
        <time>2019-09-22T10:36:04.001Z</time>
      </trkpt>
      <trkpt lat="49.09299" lon="5.39214">
        <ele>196.407</ele>
        <time>2019-09-22T10:36:07.001Z</time>
      </trkpt>
      <trkpt lat="49.09288" lon="5.39222">
        <ele>196.4</ele>
        <time>2019-09-22T10:36:10.001Z</time>
      </trkpt>
      <trkpt lat="49.09276" lon="5.3923">
        <ele>196.584</ele>
        <time>2019-09-22T10:36:13.001Z</time>
      </trkpt>
      <trkpt lat="49.09265" lon="5.39236">
        <ele>196.755</ele>
        <time>2019-09-22T10:36:16.000Z</time>
      </trkpt>
      <trkpt lat="49.09252" lon="5.39241">
        <ele>196.655</ele>
        <time>2019-09-22T10:36:19.001Z</time>
      </trkpt>
      <trkpt lat="49.09241" lon="5.39244">
        <ele>196.682</ele>
        <time>2019-09-22T10:36:22.001Z</time>
      </trkpt>
      <trkpt lat="49.09229" lon="5.39246">
        <ele>196.479</ele>
        <time>2019-09-22T10:36:25.001Z</time>
      </trkpt>
      <trkpt lat="49.09218" lon="5.39248">
        <ele>196.404</ele>
        <time>2019-09-22T10:36:28.001Z</time>
      </trkpt>
      <trkpt lat="49.09207" lon="5.39251">
        <ele>196.345</ele>
        <time>2019-09-22T10:36:31.001Z</time>
      </trkpt>
      <trkpt lat="49.09194" lon="5.39256">
        <ele>196.351</ele>
        <time>2019-09-22T10:36:34.001Z</time>
      </trkpt>
      <trkpt lat="49.09181" lon="5.39264">
        <ele>196.517</ele>
        <time>2019-09-22T10:36:37.001Z</time>
      </trkpt>
      <trkpt lat="49.0917" lon="5.39274">
        <ele>196.797</ele>
        <time>2019-09-22T10:36:40.001Z</time>
      </trkpt>
      <trkpt lat="49.09158" lon="5.39286">
        <ele>197.072</ele>
        <time>2019-09-22T10:36:43.001Z</time>
      </trkpt>
      <trkpt lat="49.09147" lon="5.39299">
        <ele>197.669</ele>
        <time>2019-09-22T10:36:46.001Z</time>
      </trkpt>
      <trkpt lat="49.09137" lon="5.39312">
        <ele>198.515</ele>
        <time>2019-09-22T10:36:49.001Z</time>
      </trkpt>
      <trkpt lat="49.09125" lon="5.39325">
        <ele>198.899</ele>
        <time>2019-09-22T10:36:52.001Z</time>
      </trkpt>
      <trkpt lat="49.09115" lon="5.39338">
        <ele>199.077</ele>
        <time>2019-09-22T10:36:55.001Z</time>
      </trkpt>
      <trkpt lat="49.09103" lon="5.39352">
        <ele>199.307</ele>
        <time>2019-09-22T10:36:58.001Z</time>
      </trkpt>
      <trkpt lat="49.09092" lon="5.39366">
        <ele>198.962</ele>
        <time>2019-09-22T10:37:01.001Z</time>
      </trkpt>
      <trkpt lat="49.0908" lon="5.39378">
        <ele>199.139</ele>
        <time>2019-09-22T10:37:04.001Z</time>
      </trkpt>
      <trkpt lat="49.09068" lon="5.39389">
        <ele>199.043</ele>
        <time>2019-09-22T10:37:07.001Z</time>
      </trkpt>
      <trkpt lat="49.09057" lon="5.39399">
        <ele>198.864</ele>
        <time>2019-09-22T10:37:10.001Z</time>
      </trkpt>
      <trkpt lat="49.09045" lon="5.39409">
        <ele>198.67</ele>
        <time>2019-09-22T10:37:13.001Z</time>
      </trkpt>
      <trkpt lat="49.09033" lon="5.39416">
        <ele>198.298</ele>
        <time>2019-09-22T10:37:16.000Z</time>
      </trkpt>
      <trkpt lat="49.09021" lon="5.39424">
        <ele>198.828</ele>
        <time>2019-09-22T10:37:19.001Z</time>
      </trkpt>
      <trkpt lat="49.0901" lon="5.39433">
        <ele>198.781</ele>
        <time>2019-09-22T10:37:22.001Z</time>
      </trkpt>
      <trkpt lat="49.08999" lon="5.39441">
        <ele>198.093</ele>
        <time>2019-09-22T10:37:25.001Z</time>
      </trkpt>
      <trkpt lat="49.08988" lon="5.39448">
        <ele>197.29</ele>
        <time>2019-09-22T10:37:28.001Z</time>
      </trkpt>
      <trkpt lat="49.08977" lon="5.39456">
        <ele>196.935</ele>
        <time>2019-09-22T10:37:31.001Z</time>
      </trkpt>
      <trkpt lat="49.08966" lon="5.39465">
        <ele>196.859</ele>
        <time>2019-09-22T10:37:34.001Z</time>
      </trkpt>
      <trkpt lat="49.08956" lon="5.39474">
        <ele>197.334</ele>
        <time>2019-09-22T10:37:37.001Z</time>
      </trkpt>
      <trkpt lat="49.08946" lon="5.39481">
        <ele>197.089</ele>
        <time>2019-09-22T10:37:40.001Z</time>
      </trkpt>
      <trkpt lat="49.08936" lon="5.39489">
        <ele>196.349</ele>
        <time>2019-09-22T10:37:43.001Z</time>
      </trkpt>
      <trkpt lat="49.08926" lon="5.39497">
        <ele>196.245</ele>
        <time>2019-09-22T10:37:46.001Z</time>
      </trkpt>
      <trkpt lat="49.08915" lon="5.39505">
        <ele>196.534</ele>
        <time>2019-09-22T10:37:49.001Z</time>
      </trkpt>
      <trkpt lat="49.08904" lon="5.39514">
        <ele>196.797</ele>
        <time>2019-09-22T10:37:52.001Z</time>
      </trkpt>
      <trkpt lat="49.08893" lon="5.39522">
        <ele>197.416</ele>
        <time>2019-09-22T10:37:55.001Z</time>
      </trkpt>
      <trkpt lat="49.08883" lon="5.39533">
        <ele>197.894</ele>
        <time>2019-09-22T10:37:58.001Z</time>
      </trkpt>
      <trkpt lat="49.08871" lon="5.39542">
        <ele>198.278</ele>
        <time>2019-09-22T10:38:01.001Z</time>
      </trkpt>
      <trkpt lat="49.0886" lon="5.39549">
        <ele>198.857</ele>
        <time>2019-09-22T10:38:04.001Z</time>
      </trkpt>
      <trkpt lat="49.0885" lon="5.39557">
        <ele>199.554</ele>
        <time>2019-09-22T10:38:07.001Z</time>
      </trkpt>
      <trkpt lat="49.08838" lon="5.39566">
        <ele>199.958</ele>
        <time>2019-09-22T10:38:10.001Z</time>
      </trkpt>
      <trkpt lat="49.08827" lon="5.39576">
        <ele>200.274</ele>
        <time>2019-09-22T10:38:13.001Z</time>
      </trkpt>
      <trkpt lat="49.08816" lon="5.39586">
        <ele>200.44</ele>
        <time>2019-09-22T10:38:16.000Z</time>
      </trkpt>
      <trkpt lat="49.08805" lon="5.39596">
        <ele>200.455</ele>
        <time>2019-09-22T10:38:19.001Z</time>
      </trkpt>
      <trkpt lat="49.08794" lon="5.39605">
        <ele>200.423</ele>
        <time>2019-09-22T10:38:22.001Z</time>
      </trkpt>
      <trkpt lat="49.08782" lon="5.39616">
        <ele>201.007</ele>
        <time>2019-09-22T10:38:25.001Z</time>
      </trkpt>
      <trkpt lat="49.08771" lon="5.39627">
        <ele>201.448</ele>
        <time>2019-09-22T10:38:28.001Z</time>
      </trkpt>
      <trkpt lat="49.08759" lon="5.39639">
        <ele>202.223</ele>
        <time>2019-09-22T10:38:31.001Z</time>
      </trkpt>
      <trkpt lat="49.08748" lon="5.39651">
        <ele>202.674</ele>
        <time>2019-09-22T10:38:34.001Z</time>
      </trkpt>
      <trkpt lat="49.08738" lon="5.39661">
        <ele>203.061</ele>
        <time>2019-09-22T10:38:37.001Z</time>
      </trkpt>
      <trkpt lat="49.08728" lon="5.39673">
        <ele>203.138</ele>
        <time>2019-09-22T10:38:40.001Z</time>
      </trkpt>
      <trkpt lat="49.08719" lon="5.39687">
        <ele>202.774</ele>
        <time>2019-09-22T10:38:43.001Z</time>
      </trkpt>
      <trkpt lat="49.08709" lon="5.39698">
        <ele>202.219</ele>
        <time>2019-09-22T10:38:46.001Z</time>
      </trkpt>
      <trkpt lat="49.08699" lon="5.39709">
        <ele>202.009</ele>
        <time>2019-09-22T10:38:49.001Z</time>
      </trkpt>
      <trkpt lat="49.0869" lon="5.3972">
        <ele>201.802</ele>
        <time>2019-09-22T10:38:52.001Z</time>
      </trkpt>
      <trkpt lat="49.08681" lon="5.39732">
        <ele>201.365</ele>
        <time>2019-09-22T10:38:55.001Z</time>
      </trkpt>
      <trkpt lat="49.08671" lon="5.39745">
        <ele>201.35</ele>
        <time>2019-09-22T10:38:58.001Z</time>
      </trkpt>
      <trkpt lat="49.0866" lon="5.39757">
        <ele>201.66</ele>
        <time>2019-09-22T10:39:01.001Z</time>
      </trkpt>
      <trkpt lat="49.0865" lon="5.3977">
        <ele>201.98</ele>
        <time>2019-09-22T10:39:04.001Z</time>
      </trkpt>
      <trkpt lat="49.08639" lon="5.39783">
        <ele>202.662</ele>
        <time>2019-09-22T10:39:07.001Z</time>
      </trkpt>
      <trkpt lat="49.08629" lon="5.39796">
        <ele>203.062</ele>
        <time>2019-09-22T10:39:10.001Z</time>
      </trkpt>
      <trkpt lat="49.08619" lon="5.39809">
        <ele>203.301</ele>
        <time>2019-09-22T10:39:13.001Z</time>
      </trkpt>
      <trkpt lat="49.08609" lon="5.39822">
        <ele>203.851</ele>
        <time>2019-09-22T10:39:16.000Z</time>
      </trkpt>
      <trkpt lat="49.08597" lon="5.39836">
        <ele>203.291</ele>
        <time>2019-09-22T10:39:19.001Z</time>
      </trkpt>
      <trkpt lat="49.08586" lon="5.3985">
        <ele>202.743</ele>
        <time>2019-09-22T10:39:22.001Z</time>
      </trkpt>
      <trkpt lat="49.08576" lon="5.39862">
        <ele>202.429</ele>
        <time>2019-09-22T10:39:25.001Z</time>
      </trkpt>
      <trkpt lat="49.08566" lon="5.39875">
        <ele>202.529</ele>
        <time>2019-09-22T10:39:28.001Z</time>
      </trkpt>
      <trkpt lat="49.08556" lon="5.39887">
        <ele>202.341</ele>
        <time>2019-09-22T10:39:31.001Z</time>
      </trkpt>
      <trkpt lat="49.08546" lon="5.39898">
        <ele>201.715</ele>
        <time>2019-09-22T10:39:34.001Z</time>
      </trkpt>
      <trkpt lat="49.08536" lon="5.39911">
        <ele>201.225</ele>
        <time>2019-09-22T10:39:37.001Z</time>
      </trkpt>
      <trkpt lat="49.08526" lon="5.39923">
        <ele>201.408</ele>
        <time>2019-09-22T10:39:40.001Z</time>
      </trkpt>
      <trkpt lat="49.08516" lon="5.39936">
        <ele>201.716</ele>
        <time>2019-09-22T10:39:43.001Z</time>
      </trkpt>
      <trkpt lat="49.08507" lon="5.3995">
        <ele>202.028</ele>
        <time>2019-09-22T10:39:46.001Z</time>
      </trkpt>
      <trkpt lat="49.08497" lon="5.39963">
        <ele>202.153</ele>
        <time>2019-09-22T10:39:49.001Z</time>
      </trkpt>
      <trkpt lat="49.08487" lon="5.39976">
        <ele>202.437</ele>
        <time>2019-09-22T10:39:52.001Z</time>
      </trkpt>
      <trkpt lat="49.08477" lon="5.39989">
        <ele>202.607</ele>
        <time>2019-09-22T10:39:55.001Z</time>
      </trkpt>
      <trkpt lat="49.08467" lon="5.40001">
        <ele>202.649</ele>
        <time>2019-09-22T10:39:58.001Z</time>
      </trkpt>
      <trkpt lat="49.08457" lon="5.40013">
        <ele>202.421</ele>
        <time>2019-09-22T10:40:01.001Z</time>
      </trkpt>
      <trkpt lat="49.08447" lon="5.40025">
        <ele>202.013</ele>
        <time>2019-09-22T10:40:04.001Z</time>
      </trkpt>
      <trkpt lat="49.08436" lon="5.40038">
        <ele>201.586</ele>
        <time>2019-09-22T10:40:07.001Z</time>
      </trkpt>
      <trkpt lat="49.08427" lon="5.40051">
        <ele>201.345</ele>
        <time>2019-09-22T10:40:10.001Z</time>
      </trkpt>
      <trkpt lat="49.08417" lon="5.40063">
        <ele>201.504</ele>
        <time>2019-09-22T10:40:13.001Z</time>
      </trkpt>
      <trkpt lat="49.08407" lon="5.40076">
        <ele>201.315</ele>
        <time>2019-09-22T10:40:16.000Z</time>
      </trkpt>
      <trkpt lat="49.08396" lon="5.40089">
        <ele>201.269</ele>
        <time>2019-09-22T10:40:19.001Z</time>
      </trkpt>
      <trkpt lat="49.08386" lon="5.40102">
        <ele>201.445</ele>
        <time>2019-09-22T10:40:22.001Z</time>
      </trkpt>
      <trkpt lat="49.08375" lon="5.40115">
        <ele>201.171</ele>
        <time>2019-09-22T10:40:25.001Z</time>
      </trkpt>
      <trkpt lat="49.08364" lon="5.40129">
        <ele>201.291</ele>
        <time>2019-09-22T10:40:28.001Z</time>
      </trkpt>
      <trkpt lat="49.08353" lon="5.40142">
        <ele>201.461</ele>
        <time>2019-09-22T10:40:31.001Z</time>
      </trkpt>
      <trkpt lat="49.08342" lon="5.40156">
        <ele>201.385</ele>
        <time>2019-09-22T10:40:34.001Z</time>
      </trkpt>
      <trkpt lat="49.08331" lon="5.40168">
        <ele>200.773</ele>
        <time>2019-09-22T10:40:37.001Z</time>
      </trkpt>
      <trkpt lat="49.08319" lon="5.40179">
        <ele>200.157</ele>
        <time>2019-09-22T10:40:40.001Z</time>
      </trkpt>
      <trkpt lat="49.08307" lon="5.40189">
        <ele>199.827</ele>
        <time>2019-09-22T10:40:43.001Z</time>
      </trkpt>
      <trkpt lat="49.08295" lon="5.402">
        <ele>199.804</ele>
        <time>2019-09-22T10:40:46.001Z</time>
      </trkpt>
      <trkpt lat="49.08284" lon="5.4021">
        <ele>199.554</ele>
        <time>2019-09-22T10:40:49.001Z</time>
      </trkpt>
      <trkpt lat="49.08272" lon="5.4022">
        <ele>199.588</ele>
        <time>2019-09-22T10:40:52.001Z</time>
      </trkpt>
      <trkpt lat="49.08261" lon="5.40227">
        <ele>200.103</ele>
        <time>2019-09-22T10:40:55.001Z</time>
      </trkpt>
      <trkpt lat="49.0825" lon="5.40237">
        <ele>200.521</ele>
        <time>2019-09-22T10:40:58.001Z</time>
      </trkpt>
      <trkpt lat="49.08238" lon="5.40247">
        <ele>200.082</ele>
        <time>2019-09-22T10:41:01.001Z</time>
      </trkpt>
      <trkpt lat="49.08228" lon="5.40256">
        <ele>199.586</ele>
        <time>2019-09-22T10:41:04.001Z</time>
      </trkpt>
      <trkpt lat="49.08216" lon="5.40267">
        <ele>199.484</ele>
        <time>2019-09-22T10:41:07.001Z</time>
      </trkpt>
      <trkpt lat="49.08204" lon="5.40277">
        <ele>199.259</ele>
        <time>2019-09-22T10:41:10.001Z</time>
      </trkpt>
      <trkpt lat="49.08192" lon="5.40288">
        <ele>199.37</ele>
        <time>2019-09-22T10:41:13.001Z</time>
      </trkpt>
      <trkpt lat="49.08179" lon="5.40298">
        <ele>199.472</ele>
        <time>2019-09-22T10:41:16.000Z</time>
      </trkpt>
      <trkpt lat="49.08167" lon="5.40308">
        <ele>199.824</ele>
        <time>2019-09-22T10:41:19.001Z</time>
      </trkpt>
      <trkpt lat="49.08155" lon="5.40318">
        <ele>200.056</ele>
        <time>2019-09-22T10:41:22.001Z</time>
      </trkpt>
      <trkpt lat="49.08143" lon="5.40328">
        <ele>200.093</ele>
        <time>2019-09-22T10:41:25.001Z</time>
      </trkpt>
      <trkpt lat="49.08131" lon="5.40338">
        <ele>200.073</ele>
        <time>2019-09-22T10:41:28.001Z</time>
      </trkpt>
      <trkpt lat="49.08119" lon="5.40349">
        <ele>200.007</ele>
        <time>2019-09-22T10:41:31.001Z</time>
      </trkpt>
      <trkpt lat="49.08107" lon="5.4036">
        <ele>199.802</ele>
        <time>2019-09-22T10:41:34.001Z</time>
      </trkpt>
      <trkpt lat="49.08095" lon="5.40372">
        <ele>199.211</ele>
        <time>2019-09-22T10:41:37.001Z</time>
      </trkpt>
      <trkpt lat="49.08082" lon="5.40382">
        <ele>198.363</ele>
        <time>2019-09-22T10:41:40.001Z</time>
      </trkpt>
      <trkpt lat="49.08069" lon="5.40393">
        <ele>197.648</ele>
        <time>2019-09-22T10:41:43.001Z</time>
      </trkpt>
      <trkpt lat="49.08058" lon="5.40402">
        <ele>197.724</ele>
        <time>2019-09-22T10:41:46.001Z</time>
      </trkpt>
      <trkpt lat="49.08046" lon="5.40412">
        <ele>197.495</ele>
        <time>2019-09-22T10:41:49.001Z</time>
      </trkpt>
      <trkpt lat="49.08034" lon="5.40421">
        <ele>197.429</ele>
        <time>2019-09-22T10:41:52.001Z</time>
      </trkpt>
      <trkpt lat="49.08023" lon="5.4043">
        <ele>197.172</ele>
        <time>2019-09-22T10:41:55.001Z</time>
      </trkpt>
      <trkpt lat="49.08012" lon="5.40438">
        <ele>197.448</ele>
        <time>2019-09-22T10:41:58.001Z</time>
      </trkpt>
      <trkpt lat="49.08" lon="5.40448">
        <ele>198.287</ele>
        <time>2019-09-22T10:42:01.001Z</time>
      </trkpt>
      <trkpt lat="49.07988" lon="5.4046">
        <ele>198.856</ele>
        <time>2019-09-22T10:42:04.001Z</time>
      </trkpt>
      <trkpt lat="49.07976" lon="5.40472">
        <ele>199.775</ele>
        <time>2019-09-22T10:42:07.001Z</time>
      </trkpt>
      <trkpt lat="49.07964" lon="5.40483">
        <ele>200.663</ele>
        <time>2019-09-22T10:42:10.001Z</time>
      </trkpt>
      <trkpt lat="49.07951" lon="5.40493">
        <ele>201.034</ele>
        <time>2019-09-22T10:42:13.001Z</time>
      </trkpt>
      <trkpt lat="49.07938" lon="5.40504">
        <ele>200.528</ele>
        <time>2019-09-22T10:42:16.000Z</time>
      </trkpt>
      <trkpt lat="49.07926" lon="5.40515">
        <ele>200.131</ele>
        <time>2019-09-22T10:42:19.001Z</time>
      </trkpt>
      <trkpt lat="49.07914" lon="5.40525">
        <ele>199.83</ele>
        <time>2019-09-22T10:42:22.001Z</time>
      </trkpt>
      <trkpt lat="49.07902" lon="5.40536">
        <ele>199.89</ele>
        <time>2019-09-22T10:42:25.001Z</time>
      </trkpt>
      <trkpt lat="49.0789" lon="5.40546">
        <ele>199.959</ele>
        <time>2019-09-22T10:42:28.001Z</time>
      </trkpt>
      <trkpt lat="49.07878" lon="5.40557">
        <ele>199.502</ele>
        <time>2019-09-22T10:42:31.001Z</time>
      </trkpt>
      <trkpt lat="49.07865" lon="5.40568">
        <ele>199.195</ele>
        <time>2019-09-22T10:42:34.001Z</time>
      </trkpt>
      <trkpt lat="49.07852" lon="5.40579">
        <ele>199.716</ele>
        <time>2019-09-22T10:42:37.001Z</time>
      </trkpt>
      <trkpt lat="49.07839" lon="5.4059">
        <ele>200.193</ele>
        <time>2019-09-22T10:42:40.001Z</time>
      </trkpt>
      <trkpt lat="49.07828" lon="5.406">
        <ele>200.224</ele>
        <time>2019-09-22T10:42:43.001Z</time>
      </trkpt>
      <trkpt lat="49.07816" lon="5.4061">
        <ele>200.008</ele>
        <time>2019-09-22T10:42:46.001Z</time>
      </trkpt>
      <trkpt lat="49.07805" lon="5.40621">
        <ele>200.401</ele>
        <time>2019-09-22T10:42:49.001Z</time>
      </trkpt>
      <trkpt lat="49.07793" lon="5.40631">
        <ele>200.228</ele>
        <time>2019-09-22T10:42:52.001Z</time>
      </trkpt>
      <trkpt lat="49.07781" lon="5.4064">
        <ele>199.952</ele>
        <time>2019-09-22T10:42:55.001Z</time>
      </trkpt>
      <trkpt lat="49.0777" lon="5.4065">
        <ele>199.335</ele>
        <time>2019-09-22T10:42:58.001Z</time>
      </trkpt>
      <trkpt lat="49.07758" lon="5.4066">
        <ele>198.943</ele>
        <time>2019-09-22T10:43:01.001Z</time>
      </trkpt>
      <trkpt lat="49.07746" lon="5.40671">
        <ele>198.658</ele>
        <time>2019-09-22T10:43:04.001Z</time>
      </trkpt>
      <trkpt lat="49.07733" lon="5.40682">
        <ele>198.497</ele>
        <time>2019-09-22T10:43:07.001Z</time>
      </trkpt>
      <trkpt lat="49.07721" lon="5.40693">
        <ele>197.968</ele>
        <time>2019-09-22T10:43:10.001Z</time>
      </trkpt>
      <trkpt lat="49.07708" lon="5.40704">
        <ele>198.03</ele>
        <time>2019-09-22T10:43:13.001Z</time>
      </trkpt>
      <trkpt lat="49.07695" lon="5.40713">
        <ele>198.588</ele>
        <time>2019-09-22T10:43:16.000Z</time>
      </trkpt>
      <trkpt lat="49.07683" lon="5.40724">
        <ele>199.133</ele>
        <time>2019-09-22T10:43:19.001Z</time>
      </trkpt>
      <trkpt lat="49.07671" lon="5.40736">
        <ele>199.58</ele>
        <time>2019-09-22T10:43:22.001Z</time>
      </trkpt>
      <trkpt lat="49.07659" lon="5.40744">
        <ele>199.749</ele>
        <time>2019-09-22T10:43:25.001Z</time>
      </trkpt>
      <trkpt lat="49.07646" lon="5.40756">
        <ele>199.936</ele>
        <time>2019-09-22T10:43:28.001Z</time>
      </trkpt>
      <trkpt lat="49.07632" lon="5.4077">
        <ele>201.144</ele>
        <time>2019-09-22T10:43:31.001Z</time>
      </trkpt>
      <trkpt lat="49.07619" lon="5.40782">
        <ele>201.845</ele>
        <time>2019-09-22T10:43:34.001Z</time>
      </trkpt>
      <trkpt lat="49.07605" lon="5.40793">
        <ele>202.357</ele>
        <time>2019-09-22T10:43:37.001Z</time>
      </trkpt>
      <trkpt lat="49.07593" lon="5.40803">
        <ele>201.411</ele>
        <time>2019-09-22T10:43:40.001Z</time>
      </trkpt>
      <trkpt lat="49.07581" lon="5.40813">
        <ele>200.55</ele>
        <time>2019-09-22T10:43:43.001Z</time>
      </trkpt>
      <trkpt lat="49.07569" lon="5.40824">
        <ele>200.179</ele>
        <time>2019-09-22T10:43:46.001Z</time>
      </trkpt>
      <trkpt lat="49.07556" lon="5.40833">
        <ele>199.666</ele>
        <time>2019-09-22T10:43:49.001Z</time>
      </trkpt>
      <trkpt lat="49.07544" lon="5.40843">
        <ele>199.267</ele>
        <time>2019-09-22T10:43:52.001Z</time>
      </trkpt>
      <trkpt lat="49.07531" lon="5.40853">
        <ele>198.741</ele>
        <time>2019-09-22T10:43:55.001Z</time>
      </trkpt>
      <trkpt lat="49.07519" lon="5.40863">
        <ele>198.249</ele>
        <time>2019-09-22T10:43:58.001Z</time>
      </trkpt>
      <trkpt lat="49.07507" lon="5.40873">
        <ele>198.268</ele>
        <time>2019-09-22T10:44:01.001Z</time>
      </trkpt>
      <trkpt lat="49.07496" lon="5.40883">
        <ele>198.373</ele>
        <time>2019-09-22T10:44:04.001Z</time>
      </trkpt>
      <trkpt lat="49.07483" lon="5.40893">
        <ele>198.272</ele>
        <time>2019-09-22T10:44:07.001Z</time>
      </trkpt>
      <trkpt lat="49.0747" lon="5.40904">
        <ele>198.334</ele>
        <time>2019-09-22T10:44:10.001Z</time>
      </trkpt>
      <trkpt lat="49.07457" lon="5.40913">
        <ele>198.224</ele>
        <time>2019-09-22T10:44:13.001Z</time>
      </trkpt>
      <trkpt lat="49.07444" lon="5.40921">
        <ele>198.324</ele>
        <time>2019-09-22T10:44:16.000Z</time>
      </trkpt>
      <trkpt lat="49.07431" lon="5.40929">
        <ele>198.564</ele>
        <time>2019-09-22T10:44:19.001Z</time>
      </trkpt>
      <trkpt lat="49.07417" lon="5.40934">
        <ele>198.439</ele>
        <time>2019-09-22T10:44:22.001Z</time>
      </trkpt>
      <trkpt lat="49.07402" lon="5.40938">
        <ele>198.393</ele>
        <time>2019-09-22T10:44:25.001Z</time>
      </trkpt>
      <trkpt lat="49.07389" lon="5.40943">
        <ele>197.896</ele>
        <time>2019-09-22T10:44:28.001Z</time>
      </trkpt>
      <trkpt lat="49.07374" lon="5.40946">
        <ele>197.518</ele>
        <time>2019-09-22T10:44:31.001Z</time>
      </trkpt>
      <trkpt lat="49.0736" lon="5.4095">
        <ele>197.446</ele>
        <time>2019-09-22T10:44:34.001Z</time>
      </trkpt>
      <trkpt lat="49.07348" lon="5.40955">
        <ele>197.402</ele>
        <time>2019-09-22T10:44:37.001Z</time>
      </trkpt>
      <trkpt lat="49.07335" lon="5.40955">
        <ele>196.688</ele>
        <time>2019-09-22T10:44:40.001Z</time>
      </trkpt>
      <trkpt lat="49.07321" lon="5.40949">
        <ele>196.648</ele>
        <time>2019-09-22T10:44:43.001Z</time>
      </trkpt>
      <trkpt lat="49.07308" lon="5.40947">
        <ele>196.148</ele>
        <time>2019-09-22T10:44:46.001Z</time>
      </trkpt>
      <trkpt lat="49.07295" lon="5.40949">
        <ele>195.706</ele>
        <time>2019-09-22T10:44:49.001Z</time>
      </trkpt>
      <trkpt lat="49.07281" lon="5.40951">
        <ele>195.75</ele>
        <time>2019-09-22T10:44:52.001Z</time>
      </trkpt>
      <trkpt lat="49.07267" lon="5.40952">
        <ele>195.714</ele>
        <time>2019-09-22T10:44:55.001Z</time>
      </trkpt>
      <trkpt lat="49.07253" lon="5.40952">
        <ele>195.276</ele>
        <time>2019-09-22T10:44:58.001Z</time>
      </trkpt>
      <trkpt lat="49.0724" lon="5.40951">
        <ele>195.046</ele>
        <time>2019-09-22T10:45:01.001Z</time>
      </trkpt>
      <trkpt lat="49.07226" lon="5.40952">
        <ele>195.226</ele>
        <time>2019-09-22T10:45:04.001Z</time>
      </trkpt>
      <trkpt lat="49.07213" lon="5.40951">
        <ele>195.425</ele>
        <time>2019-09-22T10:45:07.001Z</time>
      </trkpt>
      <trkpt lat="49.07199" lon="5.40951">
        <ele>195.555</ele>
        <time>2019-09-22T10:45:10.001Z</time>
      </trkpt>
      <trkpt lat="49.07185" lon="5.4095">
        <ele>196.053</ele>
        <time>2019-09-22T10:45:13.001Z</time>
      </trkpt>
      <trkpt lat="49.07172" lon="5.4095">
        <ele>196.466</ele>
        <time>2019-09-22T10:45:16.000Z</time>
      </trkpt>
      <trkpt lat="49.07159" lon="5.40949">
        <ele>197.212</ele>
        <time>2019-09-22T10:45:19.001Z</time>
      </trkpt>
      <trkpt lat="49.07147" lon="5.40947">
        <ele>198.383</ele>
        <time>2019-09-22T10:45:22.001Z</time>
      </trkpt>
      <trkpt lat="49.07134" lon="5.40948">
        <ele>199.891</ele>
        <time>2019-09-22T10:45:25.001Z</time>
      </trkpt>
      <trkpt lat="49.0712" lon="5.40948">
        <ele>201.057</ele>
        <time>2019-09-22T10:45:28.001Z</time>
      </trkpt>
      <trkpt lat="49.07106" lon="5.40947">
        <ele>202.201</ele>
        <time>2019-09-22T10:45:31.001Z</time>
      </trkpt>
      <trkpt lat="49.07091" lon="5.40946">
        <ele>202.469</ele>
        <time>2019-09-22T10:45:34.001Z</time>
      </trkpt>
      <trkpt lat="49.07075" lon="5.40946">
        <ele>202.581</ele>
        <time>2019-09-22T10:45:37.001Z</time>
      </trkpt>
      <trkpt lat="49.07061" lon="5.40946">
        <ele>202.533</ele>
        <time>2019-09-22T10:45:40.001Z</time>
      </trkpt>
      <trkpt lat="49.07046" lon="5.40947">
        <ele>202.663</ele>
        <time>2019-09-22T10:45:43.001Z</time>
      </trkpt>
      <trkpt lat="49.07032" lon="5.40947">
        <ele>202.815</ele>
        <time>2019-09-22T10:45:46.001Z</time>
      </trkpt>
      <trkpt lat="49.07017" lon="5.40946">
        <ele>203.019</ele>
        <time>2019-09-22T10:45:49.001Z</time>
      </trkpt>
      <trkpt lat="49.07002" lon="5.40946">
        <ele>203.022</ele>
        <time>2019-09-22T10:45:52.001Z</time>
      </trkpt>
      <trkpt lat="49.06988" lon="5.40946">
        <ele>203.165</ele>
        <time>2019-09-22T10:45:55.001Z</time>
      </trkpt>
      <trkpt lat="49.06974" lon="5.40945">
        <ele>203.359</ele>
        <time>2019-09-22T10:45:58.001Z</time>
      </trkpt>
      <trkpt lat="49.0696" lon="5.40944">
        <ele>203.597</ele>
        <time>2019-09-22T10:46:01.001Z</time>
      </trkpt>
      <trkpt lat="49.06946" lon="5.4094">
        <ele>203.07</ele>
        <time>2019-09-22T10:46:04.001Z</time>
      </trkpt>
      <trkpt lat="49.06933" lon="5.40936">
        <ele>202.535</ele>
        <time>2019-09-22T10:46:07.001Z</time>
      </trkpt>
      <trkpt lat="49.06921" lon="5.40932">
        <ele>202.044</ele>
        <time>2019-09-22T10:46:10.001Z</time>
      </trkpt>
      <trkpt lat="49.06909" lon="5.40927">
        <ele>202.092</ele>
        <time>2019-09-22T10:46:13.001Z</time>
      </trkpt>
      <trkpt lat="49.06896" lon="5.40922">
        <ele>201.97</ele>
        <time>2019-09-22T10:46:16.000Z</time>
      </trkpt>
      <trkpt lat="49.06882" lon="5.40919">
        <ele>201.218</ele>
        <time>2019-09-22T10:46:19.001Z</time>
      </trkpt>
      <trkpt lat="49.06869" lon="5.40915">
        <ele>200.94</ele>
        <time>2019-09-22T10:46:22.001Z</time>
      </trkpt>
      <trkpt lat="49.06855" lon="5.4091">
        <ele>200.078</ele>
        <time>2019-09-22T10:46:25.001Z</time>
      </trkpt>
      <trkpt lat="49.06842" lon="5.40906">
        <ele>199.585</ele>
        <time>2019-09-22T10:46:28.001Z</time>
      </trkpt>
      <trkpt lat="49.0683" lon="5.40903">
        <ele>199.984</ele>
        <time>2019-09-22T10:46:31.001Z</time>
      </trkpt>
      <trkpt lat="49.06818" lon="5.40901">
        <ele>200.79</ele>
        <time>2019-09-22T10:46:34.001Z</time>
      </trkpt>
      <trkpt lat="49.06806" lon="5.40898">
        <ele>201.165</ele>
        <time>2019-09-22T10:46:37.001Z</time>
      </trkpt>
      <trkpt lat="49.06793" lon="5.40894">
        <ele>201.62</ele>
        <time>2019-09-22T10:46:40.001Z</time>
      </trkpt>
      <trkpt lat="49.0678" lon="5.4089">
        <ele>202.458</ele>
        <time>2019-09-22T10:46:43.001Z</time>
      </trkpt>
      <trkpt lat="49.06768" lon="5.40886">
        <ele>202.52</ele>
        <time>2019-09-22T10:46:46.001Z</time>
      </trkpt>
      <trkpt lat="49.06756" lon="5.40881">
        <ele>201.707</ele>
        <time>2019-09-22T10:46:49.001Z</time>
      </trkpt>
      <trkpt lat="49.06743" lon="5.40876">
        <ele>201.08</ele>
        <time>2019-09-22T10:46:52.001Z</time>
      </trkpt>
      <trkpt lat="49.06731" lon="5.40873">
        <ele>200.287</ele>
        <time>2019-09-22T10:46:55.001Z</time>
      </trkpt>
      <trkpt lat="49.06718" lon="5.40868">
        <ele>199.822</ele>
        <time>2019-09-22T10:46:58.001Z</time>
      </trkpt>
      <trkpt lat="49.06705" lon="5.40864">
        <ele>199.307</ele>
        <time>2019-09-22T10:47:01.001Z</time>
      </trkpt>
      <trkpt lat="49.06692" lon="5.40859">
        <ele>198.938</ele>
        <time>2019-09-22T10:47:04.001Z</time>
      </trkpt>
      <trkpt lat="49.06678" lon="5.40856">
        <ele>199.312</ele>
        <time>2019-09-22T10:47:07.001Z</time>
      </trkpt>
      <trkpt lat="49.06665" lon="5.40854">
        <ele>199.801</ele>
        <time>2019-09-22T10:47:10.001Z</time>
      </trkpt>
      <trkpt lat="49.06651" lon="5.40852">
        <ele>200.104</ele>
        <time>2019-09-22T10:47:13.001Z</time>
      </trkpt>
      <trkpt lat="49.06639" lon="5.40854">
        <ele>200.399</ele>
        <time>2019-09-22T10:47:16.000Z</time>
      </trkpt>
      <trkpt lat="49.06626" lon="5.40856">
        <ele>200.472</ele>
        <time>2019-09-22T10:47:19.001Z</time>
      </trkpt>
      <trkpt lat="49.06613" lon="5.40856">
        <ele>200.733</ele>
        <time>2019-09-22T10:47:22.001Z</time>
      </trkpt>
      <trkpt lat="49.066" lon="5.40856">
        <ele>200.767</ele>
        <time>2019-09-22T10:47:25.001Z</time>
      </trkpt>
      <trkpt lat="49.06587" lon="5.40857">
        <ele>200.85</ele>
        <time>2019-09-22T10:47:28.001Z</time>
      </trkpt>
      <trkpt lat="49.06575" lon="5.40857">
        <ele>200.848</ele>
        <time>2019-09-22T10:47:31.001Z</time>
      </trkpt>
      <trkpt lat="49.06562" lon="5.40858">
        <ele>201.383</ele>
        <time>2019-09-22T10:47:34.001Z</time>
      </trkpt>
      <trkpt lat="49.0655" lon="5.40858">
        <ele>201.553</ele>
        <time>2019-09-22T10:47:37.001Z</time>
      </trkpt>
      <trkpt lat="49.06538" lon="5.40858">
        <ele>201.944</ele>
        <time>2019-09-22T10:47:40.001Z</time>
      </trkpt>
      <trkpt lat="49.06524" lon="5.40858">
        <ele>202.146</ele>
        <time>2019-09-22T10:47:43.001Z</time>
      </trkpt>
      <trkpt lat="49.06511" lon="5.40855">
        <ele>202.412</ele>
        <time>2019-09-22T10:47:46.001Z</time>
      </trkpt>
      <trkpt lat="49.06499" lon="5.40854">
        <ele>202.573</ele>
        <time>2019-09-22T10:47:49.001Z</time>
      </trkpt>
      <trkpt lat="49.06487" lon="5.40853">
        <ele>202.845</ele>
        <time>2019-09-22T10:47:52.001Z</time>
      </trkpt>
      <trkpt lat="49.06476" lon="5.40849">
        <ele>202.387</ele>
        <time>2019-09-22T10:47:55.001Z</time>
      </trkpt>
      <trkpt lat="49.06464" lon="5.40846">
        <ele>201.957</ele>
        <time>2019-09-22T10:47:58.001Z</time>
      </trkpt>
      <trkpt lat="49.06453" lon="5.40842">
        <ele>201.552</ele>
        <time>2019-09-22T10:48:01.001Z</time>
      </trkpt>
      <trkpt lat="49.06441" lon="5.40839">
        <ele>201.768</ele>
        <time>2019-09-22T10:48:04.001Z</time>
      </trkpt>
      <trkpt lat="49.06429" lon="5.40838">
        <ele>203.242</ele>
        <time>2019-09-22T10:48:07.001Z</time>
      </trkpt>
      <trkpt lat="49.06418" lon="5.40836">
        <ele>204.282</ele>
        <time>2019-09-22T10:48:10.001Z</time>
      </trkpt>
      <trkpt lat="49.06406" lon="5.40834">
        <ele>205.957</ele>
        <time>2019-09-22T10:48:13.001Z</time>
      </trkpt>
      <trkpt lat="49.06392" lon="5.40833">
        <ele>207.327</ele>
        <time>2019-09-22T10:48:16.000Z</time>
      </trkpt>
      <trkpt lat="49.0638" lon="5.40833">
        <ele>207.627</ele>
        <time>2019-09-22T10:48:19.001Z</time>
      </trkpt>
      <trkpt lat="49.06368" lon="5.4083">
        <ele>206.867</ele>
        <time>2019-09-22T10:48:22.001Z</time>
      </trkpt>
      <trkpt lat="49.06357" lon="5.40827">
        <ele>205.44</ele>
        <time>2019-09-22T10:48:25.001Z</time>
      </trkpt>
      <trkpt lat="49.06346" lon="5.40825">
        <ele>204.435</ele>
        <time>2019-09-22T10:48:28.001Z</time>
      </trkpt>
      <trkpt lat="49.06336" lon="5.40823">
        <ele>203.613</ele>
        <time>2019-09-22T10:48:31.001Z</time>
      </trkpt>
      <trkpt lat="49.06326" lon="5.40822">
        <ele>203.443</ele>
        <time>2019-09-22T10:48:34.001Z</time>
      </trkpt>
      <trkpt lat="49.06316" lon="5.40821">
        <ele>203.009</ele>
        <time>2019-09-22T10:48:37.001Z</time>
      </trkpt>
      <trkpt lat="49.06305" lon="5.4082">
        <ele>202.206</ele>
        <time>2019-09-22T10:48:40.001Z</time>
      </trkpt>
      <trkpt lat="49.06293" lon="5.40819">
        <ele>201.669</ele>
        <time>2019-09-22T10:48:43.001Z</time>
      </trkpt>
      <trkpt lat="49.06279" lon="5.40817">
        <ele>201.404</ele>
        <time>2019-09-22T10:48:46.001Z</time>
      </trkpt>
      <trkpt lat="49.06268" lon="5.40811">
        <ele>200.942</ele>
        <time>2019-09-22T10:48:49.001Z</time>
      </trkpt>
      <trkpt lat="49.06257" lon="5.40806">
        <ele>201.445</ele>
        <time>2019-09-22T10:48:52.001Z</time>
      </trkpt>
      <trkpt lat="49.06247" lon="5.40799">
        <ele>201.691</ele>
        <time>2019-09-22T10:48:55.001Z</time>
      </trkpt>
      <trkpt lat="49.06237" lon="5.40792">
        <ele>202.015</ele>
        <time>2019-09-22T10:48:58.001Z</time>
      </trkpt>
      <trkpt lat="49.06227" lon="5.40785">
        <ele>202.723</ele>
        <time>2019-09-22T10:49:01.001Z</time>
      </trkpt>
      <trkpt lat="49.06216" lon="5.40778">
        <ele>203.198</ele>
        <time>2019-09-22T10:49:04.001Z</time>
      </trkpt>
      <trkpt lat="49.06206" lon="5.40771">
        <ele>203.375</ele>
        <time>2019-09-22T10:49:07.001Z</time>
      </trkpt>
      <trkpt lat="49.06195" lon="5.40764">
        <ele>203.263</ele>
        <time>2019-09-22T10:49:10.001Z</time>
      </trkpt>
      <trkpt lat="49.06182" lon="5.40757">
        <ele>203.216</ele>
        <time>2019-09-22T10:49:13.001Z</time>
      </trkpt>
      <trkpt lat="49.06171" lon="5.40751">
        <ele>202.797</ele>
        <time>2019-09-22T10:49:16.000Z</time>
      </trkpt>
      <trkpt lat="49.06158" lon="5.40746">
        <ele>202.78</ele>
        <time>2019-09-22T10:49:19.001Z</time>
      </trkpt>
      <trkpt lat="49.06144" lon="5.40744">
        <ele>203.254</ele>
        <time>2019-09-22T10:49:22.001Z</time>
      </trkpt>
      <trkpt lat="49.06129" lon="5.40744">
        <ele>203.288</ele>
        <time>2019-09-22T10:49:25.002Z</time>
      </trkpt>
      <trkpt lat="49.06114" lon="5.40749">
        <ele>203.372</ele>
        <time>2019-09-22T10:49:28.001Z</time>
      </trkpt>
      <trkpt lat="49.06098" lon="5.40754">
        <ele>204.143</ele>
        <time>2019-09-22T10:49:31.001Z</time>
      </trkpt>
      <trkpt lat="49.06082" lon="5.4076">
        <ele>204.982</ele>
        <time>2019-09-22T10:49:34.001Z</time>
      </trkpt>
      <trkpt lat="49.06066" lon="5.40764">
        <ele>204.712</ele>
        <time>2019-09-22T10:49:37.001Z</time>
      </trkpt>
      <trkpt lat="49.0605" lon="5.40766">
        <ele>203.873</ele>
        <time>2019-09-22T10:49:40.001Z</time>
      </trkpt>
      <trkpt lat="49.06035" lon="5.40768">
        <ele>203.424</ele>
        <time>2019-09-22T10:49:43.001Z</time>
      </trkpt>
      <trkpt lat="49.0602" lon="5.4077">
        <ele>203.174</ele>
        <time>2019-09-22T10:49:46.001Z</time>
      </trkpt>
      <trkpt lat="49.06004" lon="5.40774">
        <ele>202.925</ele>
        <time>2019-09-22T10:49:49.001Z</time>
      </trkpt>
      <trkpt lat="49.0599" lon="5.40777">
        <ele>202.957</ele>
        <time>2019-09-22T10:49:52.001Z</time>
      </trkpt>
      <trkpt lat="49.05975" lon="5.40781">
        <ele>202.685</ele>
        <time>2019-09-22T10:49:55.001Z</time>
      </trkpt>
      <trkpt lat="49.05961" lon="5.40787">
        <ele>202.873</ele>
        <time>2019-09-22T10:49:58.001Z</time>
      </trkpt>
      <trkpt lat="49.05947" lon="5.40792">
        <ele>202.642</ele>
        <time>2019-09-22T10:50:01.001Z</time>
      </trkpt>
      <trkpt lat="49.05934" lon="5.40796">
        <ele>202.691</ele>
        <time>2019-09-22T10:50:04.001Z</time>
      </trkpt>
      <trkpt lat="49.05919" lon="5.40799">
        <ele>202.956</ele>
        <time>2019-09-22T10:50:07.001Z</time>
      </trkpt>
      <trkpt lat="49.05905" lon="5.40803">
        <ele>203.03</ele>
        <time>2019-09-22T10:50:10.001Z</time>
      </trkpt>
      <trkpt lat="49.05891" lon="5.40806">
        <ele>203.271</ele>
        <time>2019-09-22T10:50:13.001Z</time>
      </trkpt>
      <trkpt lat="49.05877" lon="5.4081">
        <ele>203.127</ele>
        <time>2019-09-22T10:50:16.000Z</time>
      </trkpt>
      <trkpt lat="49.05862" lon="5.40814">
        <ele>202.393</ele>
        <time>2019-09-22T10:50:19.001Z</time>
      </trkpt>
      <trkpt lat="49.05848" lon="5.40817">
        <ele>201.737</ele>
        <time>2019-09-22T10:50:22.001Z</time>
      </trkpt>
      <trkpt lat="49.05835" lon="5.4082">
        <ele>200.591</ele>
        <time>2019-09-22T10:50:25.001Z</time>
      </trkpt>
      <trkpt lat="49.0582" lon="5.40823">
        <ele>199.82</ele>
        <time>2019-09-22T10:50:28.001Z</time>
      </trkpt>
      <trkpt lat="49.05806" lon="5.40827">
        <ele>199.068</ele>
        <time>2019-09-22T10:50:31.001Z</time>
      </trkpt>
      <trkpt lat="49.05792" lon="5.40831">
        <ele>197.417</ele>
        <time>2019-09-22T10:50:34.001Z</time>
      </trkpt>
      <trkpt lat="49.05779" lon="5.40835">
        <ele>196.588</ele>
        <time>2019-09-22T10:50:37.001Z</time>
      </trkpt>
      <trkpt lat="49.05765" lon="5.40839">
        <ele>196.313</ele>
        <time>2019-09-22T10:50:40.001Z</time>
      </trkpt>
      <trkpt lat="49.05749" lon="5.40841">
        <ele>196.978</ele>
        <time>2019-09-22T10:50:43.001Z</time>
      </trkpt>
      <trkpt lat="49.05735" lon="5.40844">
        <ele>197.469</ele>
        <time>2019-09-22T10:50:46.001Z</time>
      </trkpt>
      <trkpt lat="49.0572" lon="5.40847">
        <ele>198.437</ele>
        <time>2019-09-22T10:50:49.001Z</time>
      </trkpt>
      <trkpt lat="49.05705" lon="5.4085">
        <ele>198.874</ele>
        <time>2019-09-22T10:50:52.001Z</time>
      </trkpt>
      <trkpt lat="49.05689" lon="5.40854">
        <ele>198.258</ele>
        <time>2019-09-22T10:50:55.001Z</time>
      </trkpt>
      <trkpt lat="49.05675" lon="5.40857">
        <ele>197.61</ele>
        <time>2019-09-22T10:50:58.001Z</time>
      </trkpt>
      <trkpt lat="49.05661" lon="5.40858">
        <ele>197.155</ele>
        <time>2019-09-22T10:51:01.001Z</time>
      </trkpt>
      <trkpt lat="49.05648" lon="5.40859">
        <ele>196.587</ele>
        <time>2019-09-22T10:51:04.001Z</time>
      </trkpt>
      <trkpt lat="49.05634" lon="5.40861">
        <ele>196.213</ele>
        <time>2019-09-22T10:51:07.001Z</time>
      </trkpt>
      <trkpt lat="49.05622" lon="5.40861">
        <ele>195.584</ele>
        <time>2019-09-22T10:51:10.001Z</time>
      </trkpt>
      <trkpt lat="49.05608" lon="5.40861">
        <ele>195.085</ele>
        <time>2019-09-22T10:51:13.001Z</time>
      </trkpt>
      <trkpt lat="49.05594" lon="5.40865">
        <ele>194.998</ele>
        <time>2019-09-22T10:51:16.000Z</time>
      </trkpt>
      <trkpt lat="49.05581" lon="5.40874">
        <ele>194.931</ele>
        <time>2019-09-22T10:51:19.001Z</time>
      </trkpt>
      <trkpt lat="49.05566" lon="5.40887">
        <ele>194.856</ele>
        <time>2019-09-22T10:51:22.001Z</time>
      </trkpt>
      <trkpt lat="49.05553" lon="5.40899">
        <ele>194.802</ele>
        <time>2019-09-22T10:51:25.001Z</time>
      </trkpt>
      <trkpt lat="49.05539" lon="5.40914">
        <ele>194.632</ele>
        <time>2019-09-22T10:51:28.001Z</time>
      </trkpt>
      <trkpt lat="49.05526" lon="5.40927">
        <ele>194.624</ele>
        <time>2019-09-22T10:51:31.001Z</time>
      </trkpt>
      <trkpt lat="49.05512" lon="5.40939">
        <ele>195.336</ele>
        <time>2019-09-22T10:51:34.001Z</time>
      </trkpt>
      <trkpt lat="49.05498" lon="5.4095">
        <ele>196.962</ele>
        <time>2019-09-22T10:51:37.001Z</time>
      </trkpt>
      <trkpt lat="49.05484" lon="5.40961">
        <ele>197.787</ele>
        <time>2019-09-22T10:51:40.001Z</time>
      </trkpt>
      <trkpt lat="49.05471" lon="5.40972">
        <ele>198.335</ele>
        <time>2019-09-22T10:51:43.001Z</time>
      </trkpt>
      <trkpt lat="49.0546" lon="5.40982">
        <ele>198.614</ele>
        <time>2019-09-22T10:51:46.001Z</time>
      </trkpt>
      <trkpt lat="49.0545" lon="5.40991">
        <ele>199.311</ele>
        <time>2019-09-22T10:51:49.001Z</time>
      </trkpt>
      <trkpt lat="49.0544" lon="5.40998">
        <ele>199.869</ele>
        <time>2019-09-22T10:51:52.001Z</time>
      </trkpt>
      <trkpt lat="49.0543" lon="5.41005">
        <ele>200.269</ele>
        <time>2019-09-22T10:51:55.001Z</time>
      </trkpt>
      <trkpt lat="49.0542" lon="5.41012">
        <ele>200.735</ele>
        <time>2019-09-22T10:51:58.001Z</time>
      </trkpt>
      <trkpt lat="49.05409" lon="5.41019">
        <ele>200.592</ele>
        <time>2019-09-22T10:52:01.001Z</time>
      </trkpt>
      <trkpt lat="49.05398" lon="5.41027">
        <ele>200.52</ele>
        <time>2019-09-22T10:52:04.001Z</time>
      </trkpt>
      <trkpt lat="49.05387" lon="5.41034">
        <ele>200.68</ele>
        <time>2019-09-22T10:52:07.001Z</time>
      </trkpt>
      <trkpt lat="49.05376" lon="5.4104">
        <ele>200.419</ele>
        <time>2019-09-22T10:52:10.001Z</time>
      </trkpt>
      <trkpt lat="49.05365" lon="5.41046">
        <ele>200.324</ele>
        <time>2019-09-22T10:52:13.001Z</time>
      </trkpt>
      <trkpt lat="49.05354" lon="5.41052">
        <ele>200.244</ele>
        <time>2019-09-22T10:52:16.000Z</time>
      </trkpt>
      <trkpt lat="49.05343" lon="5.41058">
        <ele>200.349</ele>
        <time>2019-09-22T10:52:19.001Z</time>
      </trkpt>
      <trkpt lat="49.05332" lon="5.41064">
        <ele>200.87</ele>
        <time>2019-09-22T10:52:22.001Z</time>
      </trkpt>
      <trkpt lat="49.05321" lon="5.41071">
        <ele>201.015</ele>
        <time>2019-09-22T10:52:25.001Z</time>
      </trkpt>
      <trkpt lat="49.0531" lon="5.41077">
        <ele>201.211</ele>
        <time>2019-09-22T10:52:28.001Z</time>
      </trkpt>
      <trkpt lat="49.05298" lon="5.41084">
        <ele>200.745</ele>
        <time>2019-09-22T10:52:31.001Z</time>
      </trkpt>
      <trkpt lat="49.05287" lon="5.4109">
        <ele>199.853</ele>
        <time>2019-09-22T10:52:34.001Z</time>
      </trkpt>
      <trkpt lat="49.05276" lon="5.41097">
        <ele>199.42</ele>
        <time>2019-09-22T10:52:37.001Z</time>
      </trkpt>
      <trkpt lat="49.05266" lon="5.41104">
        <ele>199.471</ele>
        <time>2019-09-22T10:52:40.001Z</time>
      </trkpt>
      <trkpt lat="49.05255" lon="5.41112">
        <ele>199.467</ele>
        <time>2019-09-22T10:52:43.001Z</time>
      </trkpt>
      <trkpt lat="49.05244" lon="5.41119">
        <ele>199.954</ele>
        <time>2019-09-22T10:52:46.001Z</time>
      </trkpt>
      <trkpt lat="49.05233" lon="5.41125">
        <ele>200.074</ele>
        <time>2019-09-22T10:52:49.001Z</time>
      </trkpt>
      <trkpt lat="49.0522" lon="5.41132">
        <ele>200.39</ele>
        <time>2019-09-22T10:52:52.001Z</time>
      </trkpt>
      <trkpt lat="49.05208" lon="5.41137">
        <ele>200.418</ele>
        <time>2019-09-22T10:52:55.001Z</time>
      </trkpt>
      <trkpt lat="49.05197" lon="5.41144">
        <ele>200.682</ele>
        <time>2019-09-22T10:52:58.001Z</time>
      </trkpt>
      <trkpt lat="49.05185" lon="5.41148">
        <ele>201.726</ele>
        <time>2019-09-22T10:53:01.001Z</time>
      </trkpt>
      <trkpt lat="49.05174" lon="5.41154">
        <ele>202.318</ele>
        <time>2019-09-22T10:53:04.001Z</time>
      </trkpt>
      <trkpt lat="49.05162" lon="5.41161">
        <ele>202.224</ele>
        <time>2019-09-22T10:53:07.001Z</time>
      </trkpt>
      <trkpt lat="49.05149" lon="5.41167">
        <ele>202.829</ele>
        <time>2019-09-22T10:53:10.001Z</time>
      </trkpt>
      <trkpt lat="49.05137" lon="5.41171">
        <ele>203.023</ele>
        <time>2019-09-22T10:53:13.001Z</time>
      </trkpt>
      <trkpt lat="49.05125" lon="5.41176">
        <ele>202.611</ele>
        <time>2019-09-22T10:53:16.000Z</time>
      </trkpt>
      <trkpt lat="49.05113" lon="5.41181">
        <ele>201.811</ele>
        <time>2019-09-22T10:53:19.001Z</time>
      </trkpt>
      <trkpt lat="49.05101" lon="5.41185">
        <ele>200.524</ele>
        <time>2019-09-22T10:53:22.001Z</time>
      </trkpt>
      <trkpt lat="49.0509" lon="5.41189">
        <ele>199.778</ele>
        <time>2019-09-22T10:53:25.001Z</time>
      </trkpt>
      <trkpt lat="49.05078" lon="5.41193">
        <ele>199.286</ele>
        <time>2019-09-22T10:53:28.001Z</time>
      </trkpt>
      <trkpt lat="49.05068" lon="5.41198">
        <ele>198.421</ele>
        <time>2019-09-22T10:53:31.001Z</time>
      </trkpt>
      <trkpt lat="49.05059" lon="5.41201">
        <ele>198.346</ele>
        <time>2019-09-22T10:53:34.001Z</time>
      </trkpt>
      <trkpt lat="49.0505" lon="5.41206">
        <ele>198.485</ele>
        <time>2019-09-22T10:53:37.001Z</time>
      </trkpt>
      <trkpt lat="49.05043" lon="5.41207">
        <ele>198.625</ele>
        <time>2019-09-22T10:53:40.001Z</time>
      </trkpt>
      <trkpt lat="49.05035" lon="5.41212">
        <ele>199.144</ele>
        <time>2019-09-22T10:53:43.001Z</time>
      </trkpt>
      <trkpt lat="49.05025" lon="5.41218">
        <ele>199.899</ele>
        <time>2019-09-22T10:53:46.001Z</time>
      </trkpt>
      <trkpt lat="49.05014" lon="5.41223">
        <ele>200.274</ele>
        <time>2019-09-22T10:53:49.001Z</time>
      </trkpt>
      <trkpt lat="49.05002" lon="5.41229">
        <ele>200.403</ele>
        <time>2019-09-22T10:53:52.001Z</time>
      </trkpt>
      <trkpt lat="49.04991" lon="5.41235">
        <ele>200.789</ele>
        <time>2019-09-22T10:53:55.001Z</time>
      </trkpt>
      <trkpt lat="49.0498" lon="5.41241">
        <ele>201.332</ele>
        <time>2019-09-22T10:53:58.001Z</time>
      </trkpt>
      <trkpt lat="49.04969" lon="5.41246">
        <ele>201.966</ele>
        <time>2019-09-22T10:54:01.001Z</time>
      </trkpt>
      <trkpt lat="49.0496" lon="5.41249">
        <ele>201.698</ele>
        <time>2019-09-22T10:54:04.001Z</time>
      </trkpt>
      <trkpt lat="49.04956" lon="5.41248">
        <ele>201.809</ele>
        <time>2019-09-22T10:54:07.001Z</time>
      </trkpt>
      <trkpt lat="49.04956" lon="5.41248">
        <ele>201.809</ele>
        <time>2019-09-22T10:54:16.000Z</time>
      </trkpt>
      <trkpt lat="49.04955" lon="5.41247">
        <ele>201.864</ele>
        <time>2019-09-22T10:54:19.001Z</time>
      </trkpt>
      <trkpt lat="49.04956" lon="5.41248">
        <ele>201.809</ele>
        <time>2019-09-22T10:54:22.001Z</time>
      </trkpt>
      <trkpt lat="49.04955" lon="5.41244">
        <ele>201.672</ele>
        <time>2019-09-22T10:54:28.001Z</time>
      </trkpt>
      <trkpt lat="49.04954" lon="5.4124">
        <ele>202.097</ele>
        <time>2019-09-22T10:54:31.001Z</time>
      </trkpt>
      <trkpt lat="49.04955" lon="5.41242">
        <ele>201.668</ele>
        <time>2019-09-22T10:54:34.001Z</time>
      </trkpt>
      <trkpt lat="49.04955" lon="5.41242">
        <ele>201.668</ele>
        <time>2019-09-22T10:54:37.001Z</time>
      </trkpt>
      <trkpt lat="49.04955" lon="5.41236">
        <ele>201.821</ele>
        <time>2019-09-22T10:54:40.001Z</time>
      </trkpt>
      <trkpt lat="49.04954" lon="5.41229">
        <ele>201.628</ele>
        <time>2019-09-22T10:54:43.001Z</time>
      </trkpt>
      <trkpt lat="49.04953" lon="5.41222">
        <ele>201.192</ele>
        <time>2019-09-22T10:54:46.001Z</time>
      </trkpt>
      <trkpt lat="49.04954" lon="5.41218">
        <ele>201.267</ele>
        <time>2019-09-22T10:54:49.001Z</time>
      </trkpt>
      <trkpt lat="49.04954" lon="5.41218">
        <ele>200.897</ele>
        <time>2019-09-22T10:59:25.001Z</time>
      </trkpt>
      <trkpt lat="49.04955" lon="5.41213">
        <ele>201.445</ele>
        <time>2019-09-22T10:59:28.001Z</time>
      </trkpt>
      <trkpt lat="49.04953" lon="5.41215">
        <ele>202.047</ele>
        <time>2019-09-22T10:59:31.001Z</time>
      </trkpt>
      <trkpt lat="49.04953" lon="5.41215">
        <ele>202.286</ele>
        <time>2019-09-22T11:22:10.001Z</time>
      </trkpt>
      <trkpt lat="49.04954" lon="5.41213">
        <ele>202.229</ele>
        <time>2019-09-22T11:22:13.001Z</time>
      </trkpt>
      <trkpt lat="49.04954" lon="5.41214">
        <ele>202.229</ele>
        <time>2019-09-22T11:22:16.000Z</time>
      </trkpt>
      <trkpt lat="49.04954" lon="5.41214">
        <ele>202.229</ele>
        <time>2019-09-22T11:22:19.001Z</time>
      </trkpt>
      <trkpt lat="49.04954" lon="5.41214">
        <ele>202.229</ele>
        <time>2019-09-22T11:24:37.001Z</time>
      </trkpt>
      <trkpt lat="49.04954" lon="5.41214">
        <ele>202.229</ele>
        <time>2019-09-22T11:24:40.001Z</time>
      </trkpt>
      <trkpt lat="49.04953" lon="5.41213">
        <ele>202.197</ele>
        <time>2019-09-22T11:24:55.001Z</time>
      </trkpt>
      <trkpt lat="49.04953" lon="5.41213">
        <ele>202.197</ele>
        <time>2019-09-22T11:24:58.001Z</time>
      </trkpt>
      <trkpt lat="49.04953" lon="5.41213">
        <ele>202.197</ele>
        <time>2019-09-22T11:33:04.001Z</time>
      </trkpt>
      <trkpt lat="49.04953" lon="5.41212">
        <ele>202.197</ele>
        <time>2019-09-22T11:33:07.001Z</time>
      </trkpt>
      <trkpt lat="49.04953" lon="5.41212">
        <ele>202.197</ele>
        <time>2019-09-22T11:33:28.001Z</time>
      </trkpt>
      <trkpt lat="49.04953" lon="5.41212">
        <ele>202.197</ele>
        <time>2019-09-22T11:33:31.001Z</time>
      </trkpt>
      <trkpt lat="49.04953" lon="5.41212">
        <ele>202.197</ele>
        <time>2019-09-22T11:34:01.001Z</time>
      </trkpt>
      <trkpt lat="49.04953" lon="5.41212">
        <ele>202.197</ele>
        <time>2019-09-22T11:34:04.001Z</time>
      </trkpt>
      <trkpt lat="49.04953" lon="5.41212">
        <ele>202.197</ele>
        <time>2019-09-22T11:34:07.001Z</time>
      </trkpt>
      <trkpt lat="49.04953" lon="5.41212">
        <ele>202.197</ele>
        <time>2019-09-22T11:34:10.001Z</time>
      </trkpt>
      <trkpt lat="49.04953" lon="5.41212">
        <ele>202.911</ele>
        <time>2019-09-22T11:35:31.001Z</time>
      </trkpt>
      <trkpt lat="49.04958" lon="5.41218">
        <ele>203.506</ele>
        <time>2019-09-22T11:35:34.001Z</time>
      </trkpt>
      <trkpt lat="49.04962" lon="5.41226">
        <ele>203.949</ele>
        <time>2019-09-22T11:35:37.001Z</time>
      </trkpt>
      <trkpt lat="49.04964" lon="5.41235">
        <ele>204.369</ele>
        <time>2019-09-22T11:35:40.001Z</time>
      </trkpt>
      <trkpt lat="49.04961" lon="5.41243">
        <ele>203.761</ele>
        <time>2019-09-22T11:35:43.001Z</time>
      </trkpt>
      <trkpt lat="49.04951" lon="5.4125">
        <ele>203.576</ele>
        <time>2019-09-22T11:35:46.001Z</time>
      </trkpt>
      <trkpt lat="49.04941" lon="5.41252">
        <ele>204.259</ele>
        <time>2019-09-22T11:35:49.001Z</time>
      </trkpt>
      <trkpt lat="49.0493" lon="5.41259">
        <ele>203.965</ele>
        <time>2019-09-22T11:35:52.001Z</time>
      </trkpt>
      <trkpt lat="49.04919" lon="5.41265">
        <ele>203.72</ele>
        <time>2019-09-22T11:35:55.001Z</time>
      </trkpt>
      <trkpt lat="49.04907" lon="5.41273">
        <ele>204.125</ele>
        <time>2019-09-22T11:35:58.001Z</time>
      </trkpt>
      <trkpt lat="49.04896" lon="5.41281">
        <ele>203.929</ele>
        <time>2019-09-22T11:36:01.001Z</time>
      </trkpt>
      <trkpt lat="49.04885" lon="5.41285">
        <ele>203.606</ele>
        <time>2019-09-22T11:36:04.001Z</time>
      </trkpt>
      <trkpt lat="49.04875" lon="5.41292">
        <ele>203.471</ele>
        <time>2019-09-22T11:36:07.001Z</time>
      </trkpt>
      <trkpt lat="49.04864" lon="5.41298">
        <ele>203.198</ele>
        <time>2019-09-22T11:36:10.001Z</time>
      </trkpt>
      <trkpt lat="49.04853" lon="5.41305">
        <ele>203.018</ele>
        <time>2019-09-22T11:36:13.001Z</time>
      </trkpt>
      <trkpt lat="49.04842" lon="5.41313">
        <ele>202.792</ele>
        <time>2019-09-22T11:36:16.000Z</time>
      </trkpt>
      <trkpt lat="49.0483" lon="5.41319">
        <ele>202.657</ele>
        <time>2019-09-22T11:36:19.001Z</time>
      </trkpt>
      <trkpt lat="49.04819" lon="5.41324">
        <ele>202.27</ele>
        <time>2019-09-22T11:36:22.001Z</time>
      </trkpt>
      <trkpt lat="49.04808" lon="5.41329">
        <ele>202.826</ele>
        <time>2019-09-22T11:36:25.001Z</time>
      </trkpt>
      <trkpt lat="49.04798" lon="5.41334">
        <ele>203.296</ele>
        <time>2019-09-22T11:36:28.001Z</time>
      </trkpt>
      <trkpt lat="49.04788" lon="5.41338">
        <ele>203.673</ele>
        <time>2019-09-22T11:36:31.001Z</time>
      </trkpt>
      <trkpt lat="49.04778" lon="5.41342">
        <ele>203.783</ele>
        <time>2019-09-22T11:36:34.001Z</time>
      </trkpt>
      <trkpt lat="49.04767" lon="5.41346">
        <ele>204.266</ele>
        <time>2019-09-22T11:36:37.001Z</time>
      </trkpt>
      <trkpt lat="49.04757" lon="5.41349">
        <ele>204.622</ele>
        <time>2019-09-22T11:36:40.001Z</time>
      </trkpt>
      <trkpt lat="49.04749" lon="5.41351">
        <ele>204.883</ele>
        <time>2019-09-22T11:36:43.001Z</time>
      </trkpt>
      <trkpt lat="49.04739" lon="5.41355">
        <ele>205.342</ele>
        <time>2019-09-22T11:36:46.001Z</time>
      </trkpt>
      <trkpt lat="49.04729" lon="5.41359">
        <ele>205.946</ele>
        <time>2019-09-22T11:36:49.001Z</time>
      </trkpt>
      <trkpt lat="49.04718" lon="5.41363">
        <ele>206.474</ele>
        <time>2019-09-22T11:36:52.001Z</time>
      </trkpt>
      <trkpt lat="49.04706" lon="5.41368">
        <ele>206.437</ele>
        <time>2019-09-22T11:36:55.001Z</time>
      </trkpt>
      <trkpt lat="49.04693" lon="5.41372">
        <ele>206.7</ele>
        <time>2019-09-22T11:36:58.001Z</time>
      </trkpt>
      <trkpt lat="49.0468" lon="5.41376">
        <ele>206.422</ele>
        <time>2019-09-22T11:37:01.001Z</time>
      </trkpt>
      <trkpt lat="49.04668" lon="5.4138">
        <ele>206.121</ele>
        <time>2019-09-22T11:37:04.001Z</time>
      </trkpt>
      <trkpt lat="49.04655" lon="5.41385">
        <ele>205.715</ele>
        <time>2019-09-22T11:37:07.001Z</time>
      </trkpt>
      <trkpt lat="49.04641" lon="5.41389">
        <ele>205.583</ele>
        <time>2019-09-22T11:37:10.001Z</time>
      </trkpt>
      <trkpt lat="49.04629" lon="5.41392">
        <ele>205.62</ele>
        <time>2019-09-22T11:37:13.001Z</time>
      </trkpt>
      <trkpt lat="49.04617" lon="5.41396">
        <ele>206.019</ele>
        <time>2019-09-22T11:37:16.000Z</time>
      </trkpt>
      <trkpt lat="49.04604" lon="5.414">
        <ele>206.521</ele>
        <time>2019-09-22T11:37:19.001Z</time>
      </trkpt>
      <trkpt lat="49.04591" lon="5.41405">
        <ele>206.985</ele>
        <time>2019-09-22T11:37:22.001Z</time>
      </trkpt>
      <trkpt lat="49.04579" lon="5.41409">
        <ele>207.428</ele>
        <time>2019-09-22T11:37:25.001Z</time>
      </trkpt>
      <trkpt lat="49.04565" lon="5.41414">
        <ele>208.387</ele>
        <time>2019-09-22T11:37:28.001Z</time>
      </trkpt>
      <trkpt lat="49.04549" lon="5.41422">
        <ele>208.666</ele>
        <time>2019-09-22T11:37:31.001Z</time>
      </trkpt>
      <trkpt lat="49.04537" lon="5.41424">
        <ele>208.669</ele>
        <time>2019-09-22T11:37:34.001Z</time>
      </trkpt>
      <trkpt lat="49.04524" lon="5.41428">
        <ele>208.921</ele>
        <time>2019-09-22T11:37:37.001Z</time>
      </trkpt>
      <trkpt lat="49.0451" lon="5.41433">
        <ele>208.959</ele>
        <time>2019-09-22T11:37:40.001Z</time>
      </trkpt>
      <trkpt lat="49.04495" lon="5.41437">
        <ele>209.279</ele>
        <time>2019-09-22T11:37:43.001Z</time>
      </trkpt>
      <trkpt lat="49.04481" lon="5.41442">
        <ele>209.209</ele>
        <time>2019-09-22T11:37:46.001Z</time>
      </trkpt>
      <trkpt lat="49.04466" lon="5.41446">
        <ele>208.413</ele>
        <time>2019-09-22T11:37:49.001Z</time>
      </trkpt>
      <trkpt lat="49.04452" lon="5.41451">
        <ele>208.326</ele>
        <time>2019-09-22T11:37:52.001Z</time>
      </trkpt>
      <trkpt lat="49.04437" lon="5.41456">
        <ele>208.332</ele>
        <time>2019-09-22T11:37:55.001Z</time>
      </trkpt>
      <trkpt lat="49.04422" lon="5.41461">
        <ele>208.73</ele>
        <time>2019-09-22T11:37:58.001Z</time>
      </trkpt>
      <trkpt lat="49.04407" lon="5.41466">
        <ele>208.727</ele>
        <time>2019-09-22T11:38:01.001Z</time>
      </trkpt>
      <trkpt lat="49.04393" lon="5.41471">
        <ele>208.906</ele>
        <time>2019-09-22T11:38:04.001Z</time>
      </trkpt>
      <trkpt lat="49.0438" lon="5.41475">
        <ele>208.834</ele>
        <time>2019-09-22T11:38:07.001Z</time>
      </trkpt>
      <trkpt lat="49.04367" lon="5.41478">
        <ele>208.788</ele>
        <time>2019-09-22T11:38:10.001Z</time>
      </trkpt>
      <trkpt lat="49.04353" lon="5.41478">
        <ele>209.432</ele>
        <time>2019-09-22T11:38:13.001Z</time>
      </trkpt>
      <trkpt lat="49.04337" lon="5.41478">
        <ele>209.812</ele>
        <time>2019-09-22T11:38:16.000Z</time>
      </trkpt>
      <trkpt lat="49.04322" lon="5.41476">
        <ele>209.674</ele>
        <time>2019-09-22T11:38:19.001Z</time>
      </trkpt>
      <trkpt lat="49.04307" lon="5.41475">
        <ele>209.695</ele>
        <time>2019-09-22T11:38:22.001Z</time>
      </trkpt>
      <trkpt lat="49.04291" lon="5.41473">
        <ele>208.704</ele>
        <time>2019-09-22T11:38:25.001Z</time>
      </trkpt>
      <trkpt lat="49.04276" lon="5.41473">
        <ele>208.368</ele>
        <time>2019-09-22T11:38:28.001Z</time>
      </trkpt>
      <trkpt lat="49.04259" lon="5.41472">
        <ele>207.472</ele>
        <time>2019-09-22T11:38:31.001Z</time>
      </trkpt>
      <trkpt lat="49.04243" lon="5.41469">
        <ele>206.009</ele>
        <time>2019-09-22T11:38:34.001Z</time>
      </trkpt>
      <trkpt lat="49.04228" lon="5.41467">
        <ele>204.368</ele>
        <time>2019-09-22T11:38:37.001Z</time>
      </trkpt>
      <trkpt lat="49.04214" lon="5.41466">
        <ele>202.888</ele>
        <time>2019-09-22T11:38:40.001Z</time>
      </trkpt>
      <trkpt lat="49.04199" lon="5.41465">
        <ele>202.191</ele>
        <time>2019-09-22T11:38:43.001Z</time>
      </trkpt>
      <trkpt lat="49.04185" lon="5.41464">
        <ele>202.098</ele>
        <time>2019-09-22T11:38:46.001Z</time>
      </trkpt>
      <trkpt lat="49.04171" lon="5.41462">
        <ele>202.181</ele>
        <time>2019-09-22T11:38:49.001Z</time>
      </trkpt>
      <trkpt lat="49.04157" lon="5.4146">
        <ele>202.321</ele>
        <time>2019-09-22T11:38:52.001Z</time>
      </trkpt>
      <trkpt lat="49.04142" lon="5.41458">
        <ele>202.343</ele>
        <time>2019-09-22T11:38:55.001Z</time>
      </trkpt>
      <trkpt lat="49.04128" lon="5.41456">
        <ele>202.327</ele>
        <time>2019-09-22T11:38:58.001Z</time>
      </trkpt>
      <trkpt lat="49.04114" lon="5.41453">
        <ele>201.817</ele>
        <time>2019-09-22T11:39:01.001Z</time>
      </trkpt>
      <trkpt lat="49.041" lon="5.4145">
        <ele>202.032</ele>
        <time>2019-09-22T11:39:04.001Z</time>
      </trkpt>
      <trkpt lat="49.04085" lon="5.41447">
        <ele>202.454</ele>
        <time>2019-09-22T11:39:07.001Z</time>
      </trkpt>
      <trkpt lat="49.04072" lon="5.41444">
        <ele>202.669</ele>
        <time>2019-09-22T11:39:10.001Z</time>
      </trkpt>
      <trkpt lat="49.04058" lon="5.41439">
        <ele>202.998</ele>
        <time>2019-09-22T11:39:13.001Z</time>
      </trkpt>
      <trkpt lat="49.04045" lon="5.41435">
        <ele>203.521</ele>
        <time>2019-09-22T11:39:16.000Z</time>
      </trkpt>
      <trkpt lat="49.04031" lon="5.4143">
        <ele>203.376</ele>
        <time>2019-09-22T11:39:19.001Z</time>
      </trkpt>
      <trkpt lat="49.04019" lon="5.41424">
        <ele>203.146</ele>
        <time>2019-09-22T11:39:22.001Z</time>
      </trkpt>
      <trkpt lat="49.04006" lon="5.41418">
        <ele>203.224</ele>
        <time>2019-09-22T11:39:25.001Z</time>
      </trkpt>
      <trkpt lat="49.03994" lon="5.41413">
        <ele>203.059</ele>
        <time>2019-09-22T11:39:28.001Z</time>
      </trkpt>
      <trkpt lat="49.03982" lon="5.41408">
        <ele>202.756</ele>
        <time>2019-09-22T11:39:31.001Z</time>
      </trkpt>
      <trkpt lat="49.0397" lon="5.41403">
        <ele>202.684</ele>
        <time>2019-09-22T11:39:34.001Z</time>
      </trkpt>
      <trkpt lat="49.03958" lon="5.41398">
        <ele>202.814</ele>
        <time>2019-09-22T11:39:37.001Z</time>
      </trkpt>
      <trkpt lat="49.03946" lon="5.41392">
        <ele>202.746</ele>
        <time>2019-09-22T11:39:40.001Z</time>
      </trkpt>
      <trkpt lat="49.03933" lon="5.41387">
        <ele>203.053</ele>
        <time>2019-09-22T11:39:43.001Z</time>
      </trkpt>
      <trkpt lat="49.03921" lon="5.41381">
        <ele>203.283</ele>
        <time>2019-09-22T11:39:46.001Z</time>
      </trkpt>
      <trkpt lat="49.03908" lon="5.41376">
        <ele>203.936</ele>
        <time>2019-09-22T11:39:49.001Z</time>
      </trkpt>
      <trkpt lat="49.03896" lon="5.41371">
        <ele>204.526</ele>
        <time>2019-09-22T11:39:52.001Z</time>
      </trkpt>
      <trkpt lat="49.03883" lon="5.41367">
        <ele>205.461</ele>
        <time>2019-09-22T11:39:55.001Z</time>
      </trkpt>
      <trkpt lat="49.03869" lon="5.41363">
        <ele>206.073</ele>
        <time>2019-09-22T11:39:58.001Z</time>
      </trkpt>
      <trkpt lat="49.03856" lon="5.41358">
        <ele>206.762</ele>
        <time>2019-09-22T11:40:01.001Z</time>
      </trkpt>
      <trkpt lat="49.03844" lon="5.41352">
        <ele>207.3</ele>
        <time>2019-09-22T11:40:04.001Z</time>
      </trkpt>
      <trkpt lat="49.03831" lon="5.41346">
        <ele>207.934</ele>
        <time>2019-09-22T11:40:07.001Z</time>
      </trkpt>
      <trkpt lat="49.03819" lon="5.41341">
        <ele>207.827</ele>
        <time>2019-09-22T11:40:10.001Z</time>
      </trkpt>
      <trkpt lat="49.03806" lon="5.41335">
        <ele>208.035</ele>
        <time>2019-09-22T11:40:13.001Z</time>
      </trkpt>
      <trkpt lat="49.03793" lon="5.41331">
        <ele>208.074</ele>
        <time>2019-09-22T11:40:16.000Z</time>
      </trkpt>
      <trkpt lat="49.0378" lon="5.41327">
        <ele>207.911</ele>
        <time>2019-09-22T11:40:19.001Z</time>
      </trkpt>
      <trkpt lat="49.03767" lon="5.41323">
        <ele>207.566</ele>
        <time>2019-09-22T11:40:22.001Z</time>
      </trkpt>
      <trkpt lat="49.03753" lon="5.41315">
        <ele>206.907</ele>
        <time>2019-09-22T11:40:25.001Z</time>
      </trkpt>
      <trkpt lat="49.0374" lon="5.4131">
        <ele>206.218</ele>
        <time>2019-09-22T11:40:28.001Z</time>
      </trkpt>
      <trkpt lat="49.03728" lon="5.41303">
        <ele>205.955</ele>
        <time>2019-09-22T11:40:31.001Z</time>
      </trkpt>
      <trkpt lat="49.03715" lon="5.41298">
        <ele>205.434</ele>
        <time>2019-09-22T11:40:34.001Z</time>
      </trkpt>
      <trkpt lat="49.03703" lon="5.41293">
        <ele>205.014</ele>
        <time>2019-09-22T11:40:37.001Z</time>
      </trkpt>
      <trkpt lat="49.0369" lon="5.41289">
        <ele>205.034</ele>
        <time>2019-09-22T11:40:40.001Z</time>
      </trkpt>
      <trkpt lat="49.03677" lon="5.41284">
        <ele>205.255</ele>
        <time>2019-09-22T11:40:43.001Z</time>
      </trkpt>
      <trkpt lat="49.03664" lon="5.41277">
        <ele>205.623</ele>
        <time>2019-09-22T11:40:46.001Z</time>
      </trkpt>
      <trkpt lat="49.03652" lon="5.41273">
        <ele>205.655</ele>
        <time>2019-09-22T11:40:49.001Z</time>
      </trkpt>
      <trkpt lat="49.0364" lon="5.41266">
        <ele>206.016</ele>
        <time>2019-09-22T11:40:52.001Z</time>
      </trkpt>
      <trkpt lat="49.03626" lon="5.4126">
        <ele>206.442</ele>
        <time>2019-09-22T11:40:55.001Z</time>
      </trkpt>
      <trkpt lat="49.03614" lon="5.41256">
        <ele>206.567</ele>
        <time>2019-09-22T11:40:58.001Z</time>
      </trkpt>
      <trkpt lat="49.03601" lon="5.41253">
        <ele>206.333</ele>
        <time>2019-09-22T11:41:01.001Z</time>
      </trkpt>
      <trkpt lat="49.03588" lon="5.4125">
        <ele>206.015</ele>
        <time>2019-09-22T11:41:04.001Z</time>
      </trkpt>
      <trkpt lat="49.03574" lon="5.41248">
        <ele>206.418</ele>
        <time>2019-09-22T11:41:07.001Z</time>
      </trkpt>
      <trkpt lat="49.0356" lon="5.41247">
        <ele>206.738</ele>
        <time>2019-09-22T11:41:10.001Z</time>
      </trkpt>
      <trkpt lat="49.03546" lon="5.41244">
        <ele>206.756</ele>
        <time>2019-09-22T11:41:13.001Z</time>
      </trkpt>
      <trkpt lat="49.03533" lon="5.4124">
        <ele>206.551</ele>
        <time>2019-09-22T11:41:16.000Z</time>
      </trkpt>
      <trkpt lat="49.0352" lon="5.41236">
        <ele>206.03</ele>
        <time>2019-09-22T11:41:19.001Z</time>
      </trkpt>
      <trkpt lat="49.03506" lon="5.41233">
        <ele>206.112</ele>
        <time>2019-09-22T11:41:22.001Z</time>
      </trkpt>
      <trkpt lat="49.03492" lon="5.41231">
        <ele>206.092</ele>
        <time>2019-09-22T11:41:25.001Z</time>
      </trkpt>
      <trkpt lat="49.03478" lon="5.41227">
        <ele>205.161</ele>
        <time>2019-09-22T11:41:28.001Z</time>
      </trkpt>
      <trkpt lat="49.03465" lon="5.41223">
        <ele>204.441</ele>
        <time>2019-09-22T11:41:31.001Z</time>
      </trkpt>
      <trkpt lat="49.03451" lon="5.41221">
        <ele>204.184</ele>
        <time>2019-09-22T11:41:34.001Z</time>
      </trkpt>
      <trkpt lat="49.03438" lon="5.41218">
        <ele>204.09</ele>
        <time>2019-09-22T11:41:37.001Z</time>
      </trkpt>
      <trkpt lat="49.03425" lon="5.41216">
        <ele>203.919</ele>
        <time>2019-09-22T11:41:40.001Z</time>
      </trkpt>
      <trkpt lat="49.03412" lon="5.41215">
        <ele>203.893</ele>
        <time>2019-09-22T11:41:43.001Z</time>
      </trkpt>
      <trkpt lat="49.03399" lon="5.41213">
        <ele>204.618</ele>
        <time>2019-09-22T11:41:46.001Z</time>
      </trkpt>
      <trkpt lat="49.03385" lon="5.41212">
        <ele>204.972</ele>
        <time>2019-09-22T11:41:49.001Z</time>
      </trkpt>
      <trkpt lat="49.03372" lon="5.41213">
        <ele>205.111</ele>
        <time>2019-09-22T11:41:52.001Z</time>
      </trkpt>
      <trkpt lat="49.03358" lon="5.41213">
        <ele>204.849</ele>
        <time>2019-09-22T11:41:55.001Z</time>
      </trkpt>
      <trkpt lat="49.03345" lon="5.41211">
        <ele>205.345</ele>
        <time>2019-09-22T11:41:58.001Z</time>
      </trkpt>
      <trkpt lat="49.03331" lon="5.41211">
        <ele>206.483</ele>
        <time>2019-09-22T11:42:01.001Z</time>
      </trkpt>
      <trkpt lat="49.03317" lon="5.4121">
        <ele>206.4</ele>
        <time>2019-09-22T11:42:04.001Z</time>
      </trkpt>
      <trkpt lat="49.03303" lon="5.4121">
        <ele>206.823</ele>
        <time>2019-09-22T11:42:07.001Z</time>
      </trkpt>
      <trkpt lat="49.0329" lon="5.41208">
        <ele>206.828</ele>
        <time>2019-09-22T11:42:10.001Z</time>
      </trkpt>
      <trkpt lat="49.03277" lon="5.41207">
        <ele>207.144</ele>
        <time>2019-09-22T11:42:13.001Z</time>
      </trkpt>
      <trkpt lat="49.03263" lon="5.41207">
        <ele>207.269</ele>
        <time>2019-09-22T11:42:16.000Z</time>
      </trkpt>
      <trkpt lat="49.0325" lon="5.41205">
        <ele>207.643</ele>
        <time>2019-09-22T11:42:19.001Z</time>
      </trkpt>
      <trkpt lat="49.03236" lon="5.41204">
        <ele>208.263</ele>
        <time>2019-09-22T11:42:22.001Z</time>
      </trkpt>
      <trkpt lat="49.03222" lon="5.41203">
        <ele>208.584</ele>
        <time>2019-09-22T11:42:25.001Z</time>
      </trkpt>
      <trkpt lat="49.03209" lon="5.41202">
        <ele>208.86</ele>
        <time>2019-09-22T11:42:28.001Z</time>
      </trkpt>
      <trkpt lat="49.03195" lon="5.412">
        <ele>208.769</ele>
        <time>2019-09-22T11:42:31.001Z</time>
      </trkpt>
      <trkpt lat="49.03181" lon="5.41199">
        <ele>208.374</ele>
        <time>2019-09-22T11:42:34.001Z</time>
      </trkpt>
      <trkpt lat="49.03167" lon="5.41198">
        <ele>208.127</ele>
        <time>2019-09-22T11:42:37.001Z</time>
      </trkpt>
      <trkpt lat="49.03154" lon="5.41197">
        <ele>207.982</ele>
        <time>2019-09-22T11:42:40.001Z</time>
      </trkpt>
      <trkpt lat="49.0314" lon="5.41196">
        <ele>208.085</ele>
        <time>2019-09-22T11:42:43.001Z</time>
      </trkpt>
      <trkpt lat="49.03127" lon="5.41195">
        <ele>207.661</ele>
        <time>2019-09-22T11:42:46.001Z</time>
      </trkpt>
      <trkpt lat="49.03115" lon="5.41195">
        <ele>208.29</ele>
        <time>2019-09-22T11:42:49.001Z</time>
      </trkpt>
      <trkpt lat="49.03101" lon="5.41194">
        <ele>207.765</ele>
        <time>2019-09-22T11:42:52.001Z</time>
      </trkpt>
      <trkpt lat="49.03086" lon="5.41193">
        <ele>207.247</ele>
        <time>2019-09-22T11:42:55.001Z</time>
      </trkpt>
      <trkpt lat="49.0307" lon="5.41194">
        <ele>206.388</ele>
        <time>2019-09-22T11:42:58.001Z</time>
      </trkpt>
      <trkpt lat="49.03055" lon="5.41196">
        <ele>205.509</ele>
        <time>2019-09-22T11:43:01.001Z</time>
      </trkpt>
      <trkpt lat="49.0304" lon="5.41199">
        <ele>205.257</ele>
        <time>2019-09-22T11:43:04.001Z</time>
      </trkpt>
      <trkpt lat="49.03026" lon="5.41204">
        <ele>205.112</ele>
        <time>2019-09-22T11:43:07.001Z</time>
      </trkpt>
      <trkpt lat="49.03011" lon="5.41211">
        <ele>204.486</ele>
        <time>2019-09-22T11:43:10.001Z</time>
      </trkpt>
      <trkpt lat="49.02997" lon="5.41218">
        <ele>204.342</ele>
        <time>2019-09-22T11:43:13.001Z</time>
      </trkpt>
      <trkpt lat="49.02985" lon="5.41225">
        <ele>204.97</ele>
        <time>2019-09-22T11:43:16.000Z</time>
      </trkpt>
      <trkpt lat="49.02974" lon="5.41231">
        <ele>206.22</ele>
        <time>2019-09-22T11:43:19.001Z</time>
      </trkpt>
      <trkpt lat="49.02959" lon="5.41239">
        <ele>207.106</ele>
        <time>2019-09-22T11:43:22.001Z</time>
      </trkpt>
      <trkpt lat="49.02943" lon="5.41245">
        <ele>207.475</ele>
        <time>2019-09-22T11:43:25.001Z</time>
      </trkpt>
      <trkpt lat="49.02929" lon="5.41252">
        <ele>207.969</ele>
        <time>2019-09-22T11:43:28.001Z</time>
      </trkpt>
      <trkpt lat="49.02914" lon="5.41257">
        <ele>207.975</ele>
        <time>2019-09-22T11:43:31.001Z</time>
      </trkpt>
      <trkpt lat="49.02899" lon="5.41262">
        <ele>206.525</ele>
        <time>2019-09-22T11:43:34.001Z</time>
      </trkpt>
      <trkpt lat="49.02884" lon="5.41266">
        <ele>205.472</ele>
        <time>2019-09-22T11:43:37.001Z</time>
      </trkpt>
      <trkpt lat="49.02868" lon="5.4127">
        <ele>204.527</ele>
        <time>2019-09-22T11:43:40.001Z</time>
      </trkpt>
      <trkpt lat="49.02852" lon="5.41273">
        <ele>204.314</ele>
        <time>2019-09-22T11:43:43.001Z</time>
      </trkpt>
      <trkpt lat="49.02838" lon="5.41276">
        <ele>204.833</ele>
        <time>2019-09-22T11:43:46.001Z</time>
      </trkpt>
      <trkpt lat="49.02824" lon="5.41278">
        <ele>205.071</ele>
        <time>2019-09-22T11:43:49.002Z</time>
      </trkpt>
      <trkpt lat="49.0281" lon="5.4128">
        <ele>205.32</ele>
        <time>2019-09-22T11:43:52.001Z</time>
      </trkpt>
      <trkpt lat="49.02796" lon="5.41283">
        <ele>205.629</ele>
        <time>2019-09-22T11:43:55.001Z</time>
      </trkpt>
      <trkpt lat="49.0278" lon="5.41286">
        <ele>205.493</ele>
        <time>2019-09-22T11:43:58.001Z</time>
      </trkpt>
      <trkpt lat="49.02765" lon="5.4129">
        <ele>205.274</ele>
        <time>2019-09-22T11:44:01.001Z</time>
      </trkpt>
      <trkpt lat="49.02752" lon="5.41291">
        <ele>204.699</ele>
        <time>2019-09-22T11:44:04.001Z</time>
      </trkpt>
      <trkpt lat="49.02739" lon="5.41293">
        <ele>203.963</ele>
        <time>2019-09-22T11:44:07.001Z</time>
      </trkpt>
      <trkpt lat="49.02726" lon="5.41295">
        <ele>203.047</ele>
        <time>2019-09-22T11:44:10.001Z</time>
      </trkpt>
      <trkpt lat="49.02713" lon="5.41297">
        <ele>203.433</ele>
        <time>2019-09-22T11:44:13.001Z</time>
      </trkpt>
      <trkpt lat="49.02699" lon="5.413">
        <ele>203.595</ele>
        <time>2019-09-22T11:44:16.000Z</time>
      </trkpt>
      <trkpt lat="49.02687" lon="5.41304">
        <ele>203.631</ele>
        <time>2019-09-22T11:44:19.001Z</time>
      </trkpt>
      <trkpt lat="49.02676" lon="5.4131">
        <ele>204.903</ele>
        <time>2019-09-22T11:44:22.001Z</time>
      </trkpt>
      <trkpt lat="49.02662" lon="5.41316">
        <ele>205.872</ele>
        <time>2019-09-22T11:44:25.001Z</time>
      </trkpt>
      <trkpt lat="49.02648" lon="5.41322">
        <ele>206.22</ele>
        <time>2019-09-22T11:44:28.001Z</time>
      </trkpt>
      <trkpt lat="49.02636" lon="5.41328">
        <ele>206.257</ele>
        <time>2019-09-22T11:44:31.001Z</time>
      </trkpt>
      <trkpt lat="49.02624" lon="5.41331">
        <ele>206.077</ele>
        <time>2019-09-22T11:44:34.001Z</time>
      </trkpt>
      <trkpt lat="49.02611" lon="5.41337">
        <ele>205.275</ele>
        <time>2019-09-22T11:44:37.001Z</time>
      </trkpt>
      <trkpt lat="49.02598" lon="5.4134">
        <ele>204.889</ele>
        <time>2019-09-22T11:44:40.001Z</time>
      </trkpt>
      <trkpt lat="49.02583" lon="5.41347">
        <ele>204.667</ele>
        <time>2019-09-22T11:44:43.001Z</time>
      </trkpt>
      <trkpt lat="49.0257" lon="5.41353">
        <ele>205.241</ele>
        <time>2019-09-22T11:44:46.001Z</time>
      </trkpt>
      <trkpt lat="49.02557" lon="5.41358">
        <ele>205.184</ele>
        <time>2019-09-22T11:44:49.001Z</time>
      </trkpt>
      <trkpt lat="49.02542" lon="5.41364">
        <ele>204.388</ele>
        <time>2019-09-22T11:44:52.001Z</time>
      </trkpt>
      <trkpt lat="49.0253" lon="5.4137">
        <ele>205.037</ele>
        <time>2019-09-22T11:44:55.001Z</time>
      </trkpt>
      <trkpt lat="49.02518" lon="5.41377">
        <ele>205.918</ele>
        <time>2019-09-22T11:44:58.001Z</time>
      </trkpt>
      <trkpt lat="49.02508" lon="5.4138">
        <ele>206.202</ele>
        <time>2019-09-22T11:45:01.001Z</time>
      </trkpt>
      <trkpt lat="49.02498" lon="5.41383">
        <ele>206.73</ele>
        <time>2019-09-22T11:45:04.001Z</time>
      </trkpt>
      <trkpt lat="49.02487" lon="5.41386">
        <ele>207.801</ele>
        <time>2019-09-22T11:45:07.001Z</time>
      </trkpt>
      <trkpt lat="49.02478" lon="5.41389">
        <ele>209.083</ele>
        <time>2019-09-22T11:45:10.001Z</time>
      </trkpt>
      <trkpt lat="49.02468" lon="5.41394">
        <ele>211.098</ele>
        <time>2019-09-22T11:45:13.001Z</time>
      </trkpt>
      <trkpt lat="49.02458" lon="5.41401">
        <ele>212.122</ele>
        <time>2019-09-22T11:45:16.000Z</time>
      </trkpt>
      <trkpt lat="49.02447" lon="5.41408">
        <ele>213.658</ele>
        <time>2019-09-22T11:45:19.001Z</time>
      </trkpt>
      <trkpt lat="49.02436" lon="5.41413">
        <ele>215.036</ele>
        <time>2019-09-22T11:45:22.001Z</time>
      </trkpt>
      <trkpt lat="49.02425" lon="5.41419">
        <ele>216.642</ele>
        <time>2019-09-22T11:45:25.001Z</time>
      </trkpt>
      <trkpt lat="49.02411" lon="5.41425">
        <ele>217.602</ele>
        <time>2019-09-22T11:45:28.001Z</time>
      </trkpt>
      <trkpt lat="49.02395" lon="5.41431">
        <ele>218.38</ele>
        <time>2019-09-22T11:45:31.001Z</time>
      </trkpt>
      <trkpt lat="49.0238" lon="5.41433">
        <ele>217.795</ele>
        <time>2019-09-22T11:45:34.001Z</time>
      </trkpt>
      <trkpt lat="49.02366" lon="5.41438">
        <ele>216.987</ele>
        <time>2019-09-22T11:45:37.001Z</time>
      </trkpt>
      <trkpt lat="49.02354" lon="5.41442">
        <ele>216.945</ele>
        <time>2019-09-22T11:45:40.001Z</time>
      </trkpt>
      <trkpt lat="49.02342" lon="5.41446">
        <ele>216.715</ele>
        <time>2019-09-22T11:45:43.001Z</time>
      </trkpt>
      <trkpt lat="49.0233" lon="5.41453">
        <ele>217.949</ele>
        <time>2019-09-22T11:45:46.001Z</time>
      </trkpt>
      <trkpt lat="49.02316" lon="5.41461">
        <ele>219.762</ele>
        <time>2019-09-22T11:45:49.001Z</time>
      </trkpt>
      <trkpt lat="49.02307" lon="5.41466">
        <ele>221.685</ele>
        <time>2019-09-22T11:45:52.001Z</time>
      </trkpt>
      <trkpt lat="49.02299" lon="5.4147">
        <ele>223.191</ele>
        <time>2019-09-22T11:45:55.001Z</time>
      </trkpt>
      <trkpt lat="49.02287" lon="5.41476">
        <ele>223.135</ele>
        <time>2019-09-22T11:45:58.001Z</time>
      </trkpt>
      <trkpt lat="49.02271" lon="5.41483">
        <ele>223.121</ele>
        <time>2019-09-22T11:46:01.001Z</time>
      </trkpt>
      <trkpt lat="49.02253" lon="5.41494">
        <ele>222.958</ele>
        <time>2019-09-22T11:46:04.001Z</time>
      </trkpt>
      <trkpt lat="49.0224" lon="5.415">
        <ele>222.348</ele>
        <time>2019-09-22T11:46:07.001Z</time>
      </trkpt>
      <trkpt lat="49.02227" lon="5.41508">
        <ele>221.118</ele>
        <time>2019-09-22T11:46:10.001Z</time>
      </trkpt>
      <trkpt lat="49.02212" lon="5.41516">
        <ele>219.988</ele>
        <time>2019-09-22T11:46:13.001Z</time>
      </trkpt>
      <trkpt lat="49.02196" lon="5.41525">
        <ele>218.57</ele>
        <time>2019-09-22T11:46:16.000Z</time>
      </trkpt>
      <trkpt lat="49.02179" lon="5.41537">
        <ele>216.423</ele>
        <time>2019-09-22T11:46:19.001Z</time>
      </trkpt>
      <trkpt lat="49.02164" lon="5.41546">
        <ele>214.304</ele>
        <time>2019-09-22T11:46:22.001Z</time>
      </trkpt>
      <trkpt lat="49.0215" lon="5.41555">
        <ele>211.783</ele>
        <time>2019-09-22T11:46:25.001Z</time>
      </trkpt>
      <trkpt lat="49.02136" lon="5.41564">
        <ele>210.154</ele>
        <time>2019-09-22T11:46:28.001Z</time>
      </trkpt>
      <trkpt lat="49.02122" lon="5.41572">
        <ele>208.561</ele>
        <time>2019-09-22T11:46:31.001Z</time>
      </trkpt>
      <trkpt lat="49.02108" lon="5.41581">
        <ele>207.511</ele>
        <time>2019-09-22T11:46:34.001Z</time>
      </trkpt>
      <trkpt lat="49.02095" lon="5.41588">
        <ele>206.464</ele>
        <time>2019-09-22T11:46:37.001Z</time>
      </trkpt>
      <trkpt lat="49.02082" lon="5.41595">
        <ele>206.318</ele>
        <time>2019-09-22T11:46:40.001Z</time>
      </trkpt>
      <trkpt lat="49.0207" lon="5.41601">
        <ele>206.495</ele>
        <time>2019-09-22T11:46:43.001Z</time>
      </trkpt>
      <trkpt lat="49.02058" lon="5.41606">
        <ele>206.316</ele>
        <time>2019-09-22T11:46:46.001Z</time>
      </trkpt>
      <trkpt lat="49.02047" lon="5.41612">
        <ele>205.977</ele>
        <time>2019-09-22T11:46:49.001Z</time>
      </trkpt>
      <trkpt lat="49.02034" lon="5.41616">
        <ele>205.646</ele>
        <time>2019-09-22T11:46:52.001Z</time>
      </trkpt>
      <trkpt lat="49.02022" lon="5.41622">
        <ele>205.475</ele>
        <time>2019-09-22T11:46:55.001Z</time>
      </trkpt>
      <trkpt lat="49.0201" lon="5.41626">
        <ele>205.57</ele>
        <time>2019-09-22T11:46:58.001Z</time>
      </trkpt>
      <trkpt lat="49.01998" lon="5.4163">
        <ele>206.146</ele>
        <time>2019-09-22T11:47:01.001Z</time>
      </trkpt>
      <trkpt lat="49.01986" lon="5.41636">
        <ele>206.606</ele>
        <time>2019-09-22T11:47:04.001Z</time>
      </trkpt>
      <trkpt lat="49.01974" lon="5.4164">
        <ele>207.117</ele>
        <time>2019-09-22T11:47:07.001Z</time>
      </trkpt>
      <trkpt lat="49.01961" lon="5.41647">
        <ele>207.62</ele>
        <time>2019-09-22T11:47:10.001Z</time>
      </trkpt>
      <trkpt lat="49.01947" lon="5.41657">
        <ele>208.11</ele>
        <time>2019-09-22T11:47:13.001Z</time>
      </trkpt>
      <trkpt lat="49.01931" lon="5.41671">
        <ele>208.554</ele>
        <time>2019-09-22T11:47:16.000Z</time>
      </trkpt>
      <trkpt lat="49.01914" lon="5.41685">
        <ele>208.708</ele>
        <time>2019-09-22T11:47:19.001Z</time>
      </trkpt>
      <trkpt lat="49.01898" lon="5.41699">
        <ele>208.478</ele>
        <time>2019-09-22T11:47:22.001Z</time>
      </trkpt>
      <trkpt lat="49.01881" lon="5.41712">
        <ele>208.389</ele>
        <time>2019-09-22T11:47:25.001Z</time>
      </trkpt>
      <trkpt lat="49.01866" lon="5.41724">
        <ele>208.042</ele>
        <time>2019-09-22T11:47:28.001Z</time>
      </trkpt>
      <trkpt lat="49.01854" lon="5.41735">
        <ele>207.404</ele>
        <time>2019-09-22T11:47:31.001Z</time>
      </trkpt>
      <trkpt lat="49.01843" lon="5.41745">
        <ele>206.949</ele>
        <time>2019-09-22T11:47:34.001Z</time>
      </trkpt>
      <trkpt lat="49.01832" lon="5.41755">
        <ele>208.125</ele>
        <time>2019-09-22T11:47:37.001Z</time>
      </trkpt>
      <trkpt lat="49.01821" lon="5.41766">
        <ele>208.539</ele>
        <time>2019-09-22T11:47:40.001Z</time>
      </trkpt>
      <trkpt lat="49.0181" lon="5.41777">
        <ele>208.287</ele>
        <time>2019-09-22T11:47:43.001Z</time>
      </trkpt>
      <trkpt lat="49.01799" lon="5.41788">
        <ele>207.951</ele>
        <time>2019-09-22T11:47:46.001Z</time>
      </trkpt>
      <trkpt lat="49.01788" lon="5.41798">
        <ele>207.681</ele>
        <time>2019-09-22T11:47:49.001Z</time>
      </trkpt>
      <trkpt lat="49.01775" lon="5.41808">
        <ele>207.438</ele>
        <time>2019-09-22T11:47:52.001Z</time>
      </trkpt>
      <trkpt lat="49.01762" lon="5.41818">
        <ele>207.592</ele>
        <time>2019-09-22T11:47:55.001Z</time>
      </trkpt>
      <trkpt lat="49.01749" lon="5.41827">
        <ele>207.589</ele>
        <time>2019-09-22T11:47:58.001Z</time>
      </trkpt>
      <trkpt lat="49.01736" lon="5.41837">
        <ele>207.354</ele>
        <time>2019-09-22T11:48:01.001Z</time>
      </trkpt>
      <trkpt lat="49.01723" lon="5.41846">
        <ele>207.216</ele>
        <time>2019-09-22T11:48:04.001Z</time>
      </trkpt>
      <trkpt lat="49.01709" lon="5.41856">
        <ele>207.317</ele>
        <time>2019-09-22T11:48:07.001Z</time>
      </trkpt>
      <trkpt lat="49.01696" lon="5.41866">
        <ele>207.077</ele>
        <time>2019-09-22T11:48:10.001Z</time>
      </trkpt>
      <trkpt lat="49.01683" lon="5.41875">
        <ele>205.696</ele>
        <time>2019-09-22T11:48:13.001Z</time>
      </trkpt>
      <trkpt lat="49.0167" lon="5.41883">
        <ele>205.057</ele>
        <time>2019-09-22T11:48:16.000Z</time>
      </trkpt>
      <trkpt lat="49.01656" lon="5.41891">
        <ele>205.002</ele>
        <time>2019-09-22T11:48:19.001Z</time>
      </trkpt>
      <trkpt lat="49.01643" lon="5.41901">
        <ele>204.433</ele>
        <time>2019-09-22T11:48:22.001Z</time>
      </trkpt>
      <trkpt lat="49.0163" lon="5.41911">
        <ele>204.247</ele>
        <time>2019-09-22T11:48:25.001Z</time>
      </trkpt>
      <trkpt lat="49.01618" lon="5.41921">
        <ele>204.382</ele>
        <time>2019-09-22T11:48:28.001Z</time>
      </trkpt>
      <trkpt lat="49.01605" lon="5.4193">
        <ele>204.441</ele>
        <time>2019-09-22T11:48:31.001Z</time>
      </trkpt>
      <trkpt lat="49.01593" lon="5.4194">
        <ele>204.288</ele>
        <time>2019-09-22T11:48:34.001Z</time>
      </trkpt>
      <trkpt lat="49.01578" lon="5.41949">
        <ele>204.783</ele>
        <time>2019-09-22T11:48:37.001Z</time>
      </trkpt>
      <trkpt lat="49.01565" lon="5.41959">
        <ele>204.943</ele>
        <time>2019-09-22T11:48:40.001Z</time>
      </trkpt>
      <trkpt lat="49.01551" lon="5.41968">
        <ele>205.273</ele>
        <time>2019-09-22T11:48:43.001Z</time>
      </trkpt>
      <trkpt lat="49.01538" lon="5.41977">
        <ele>205.348</ele>
        <time>2019-09-22T11:48:46.001Z</time>
      </trkpt>
      <trkpt lat="49.01525" lon="5.41984">
        <ele>205.874</ele>
        <time>2019-09-22T11:48:49.001Z</time>
      </trkpt>
      <trkpt lat="49.01511" lon="5.41993">
        <ele>205.976</ele>
        <time>2019-09-22T11:48:52.001Z</time>
      </trkpt>
      <trkpt lat="49.01498" lon="5.42004">
        <ele>206.244</ele>
        <time>2019-09-22T11:48:55.001Z</time>
      </trkpt>
      <trkpt lat="49.01484" lon="5.42013">
        <ele>206.412</ele>
        <time>2019-09-22T11:48:58.001Z</time>
      </trkpt>
      <trkpt lat="49.01471" lon="5.42022">
        <ele>206.7</ele>
        <time>2019-09-22T11:49:01.001Z</time>
      </trkpt>
      <trkpt lat="49.01458" lon="5.4203">
        <ele>206.655</ele>
        <time>2019-09-22T11:49:04.001Z</time>
      </trkpt>
      <trkpt lat="49.01445" lon="5.42039">
        <ele>206.472</ele>
        <time>2019-09-22T11:49:07.001Z</time>
      </trkpt>
      <trkpt lat="49.01432" lon="5.42049">
        <ele>206.267</ele>
        <time>2019-09-22T11:49:10.001Z</time>
      </trkpt>
      <trkpt lat="49.01419" lon="5.42057">
        <ele>206.33</ele>
        <time>2019-09-22T11:49:13.001Z</time>
      </trkpt>
      <trkpt lat="49.01406" lon="5.42067">
        <ele>205.993</ele>
        <time>2019-09-22T11:49:16.000Z</time>
      </trkpt>
      <trkpt lat="49.01393" lon="5.42076">
        <ele>205.82</ele>
        <time>2019-09-22T11:49:19.001Z</time>
      </trkpt>
      <trkpt lat="49.01379" lon="5.42086">
        <ele>205.704</ele>
        <time>2019-09-22T11:49:22.001Z</time>
      </trkpt>
      <trkpt lat="49.01365" lon="5.42094">
        <ele>205.813</ele>
        <time>2019-09-22T11:49:25.001Z</time>
      </trkpt>
      <trkpt lat="49.01352" lon="5.42103">
        <ele>205.761</ele>
        <time>2019-09-22T11:49:28.001Z</time>
      </trkpt>
      <trkpt lat="49.01339" lon="5.42112">
        <ele>205.797</ele>
        <time>2019-09-22T11:49:31.001Z</time>
      </trkpt>
      <trkpt lat="49.01326" lon="5.42121">
        <ele>205.464</ele>
        <time>2019-09-22T11:49:34.001Z</time>
      </trkpt>
      <trkpt lat="49.01312" lon="5.42131">
        <ele>205.178</ele>
        <time>2019-09-22T11:49:37.001Z</time>
      </trkpt>
      <trkpt lat="49.01299" lon="5.4214">
        <ele>205.162</ele>
        <time>2019-09-22T11:49:40.001Z</time>
      </trkpt>
      <trkpt lat="49.01286" lon="5.4215">
        <ele>205.208</ele>
        <time>2019-09-22T11:49:43.001Z</time>
      </trkpt>
      <trkpt lat="49.01273" lon="5.42159">
        <ele>205.2</ele>
        <time>2019-09-22T11:49:46.001Z</time>
      </trkpt>
      <trkpt lat="49.01262" lon="5.42167">
        <ele>205.255</ele>
        <time>2019-09-22T11:49:49.001Z</time>
      </trkpt>
      <trkpt lat="49.01252" lon="5.42173">
        <ele>205.484</ele>
        <time>2019-09-22T11:49:52.001Z</time>
      </trkpt>
      <trkpt lat="49.0124" lon="5.42181">
        <ele>206.134</ele>
        <time>2019-09-22T11:49:55.001Z</time>
      </trkpt>
      <trkpt lat="49.01227" lon="5.4219">
        <ele>205.251</ele>
        <time>2019-09-22T11:49:58.001Z</time>
      </trkpt>
      <trkpt lat="49.01212" lon="5.42202">
        <ele>204.066</ele>
        <time>2019-09-22T11:50:01.001Z</time>
      </trkpt>
      <trkpt lat="49.01197" lon="5.42216">
        <ele>203.912</ele>
        <time>2019-09-22T11:50:04.001Z</time>
      </trkpt>
      <trkpt lat="49.01186" lon="5.42227">
        <ele>204.277</ele>
        <time>2019-09-22T11:50:07.001Z</time>
      </trkpt>
      <trkpt lat="49.01175" lon="5.42237">
        <ele>204.897</ele>
        <time>2019-09-22T11:50:10.001Z</time>
      </trkpt>
      <trkpt lat="49.01164" lon="5.42248">
        <ele>205.265</ele>
        <time>2019-09-22T11:50:13.001Z</time>
      </trkpt>
      <trkpt lat="49.01154" lon="5.42259">
        <ele>205.646</ele>
        <time>2019-09-22T11:50:16.000Z</time>
      </trkpt>
      <trkpt lat="49.01145" lon="5.42272">
        <ele>206.56</ele>
        <time>2019-09-22T11:50:19.001Z</time>
      </trkpt>
      <trkpt lat="49.01134" lon="5.42284">
        <ele>206.601</ele>
        <time>2019-09-22T11:50:22.001Z</time>
      </trkpt>
      <trkpt lat="49.01124" lon="5.42299">
        <ele>206.049</ele>
        <time>2019-09-22T11:50:25.001Z</time>
      </trkpt>
      <trkpt lat="49.01114" lon="5.42313">
        <ele>206.576</ele>
        <time>2019-09-22T11:50:28.001Z</time>
      </trkpt>
      <trkpt lat="49.01103" lon="5.42328">
        <ele>206.443</ele>
        <time>2019-09-22T11:50:31.001Z</time>
      </trkpt>
      <trkpt lat="49.01092" lon="5.42343">
        <ele>206.101</ele>
        <time>2019-09-22T11:50:34.001Z</time>
      </trkpt>
      <trkpt lat="49.01081" lon="5.42357">
        <ele>205.38</ele>
        <time>2019-09-22T11:50:37.001Z</time>
      </trkpt>
      <trkpt lat="49.01069" lon="5.42373">
        <ele>205.021</ele>
        <time>2019-09-22T11:50:40.001Z</time>
      </trkpt>
      <trkpt lat="49.01057" lon="5.42388">
        <ele>205.433</ele>
        <time>2019-09-22T11:50:43.001Z</time>
      </trkpt>
      <trkpt lat="49.01046" lon="5.42403">
        <ele>205.784</ele>
        <time>2019-09-22T11:50:46.001Z</time>
      </trkpt>
      <trkpt lat="49.01035" lon="5.42418">
        <ele>205.894</ele>
        <time>2019-09-22T11:50:49.001Z</time>
      </trkpt>
      <trkpt lat="49.01025" lon="5.42432">
        <ele>206.035</ele>
        <time>2019-09-22T11:50:52.001Z</time>
      </trkpt>
      <trkpt lat="49.01016" lon="5.42446">
        <ele>206.344</ele>
        <time>2019-09-22T11:50:55.001Z</time>
      </trkpt>
      <trkpt lat="49.01006" lon="5.42459">
        <ele>206.668</ele>
        <time>2019-09-22T11:50:58.001Z</time>
      </trkpt>
      <trkpt lat="49.00997" lon="5.42472">
        <ele>206.625</ele>
        <time>2019-09-22T11:51:01.001Z</time>
      </trkpt>
      <trkpt lat="49.00987" lon="5.42486">
        <ele>206.405</ele>
        <time>2019-09-22T11:51:04.001Z</time>
      </trkpt>
      <trkpt lat="49.00978" lon="5.425">
        <ele>206.524</ele>
        <time>2019-09-22T11:51:07.001Z</time>
      </trkpt>
      <trkpt lat="49.00968" lon="5.42515">
        <ele>206.417</ele>
        <time>2019-09-22T11:51:10.001Z</time>
      </trkpt>
      <trkpt lat="49.0096" lon="5.4253">
        <ele>206.209</ele>
        <time>2019-09-22T11:51:13.001Z</time>
      </trkpt>
      <trkpt lat="49.00952" lon="5.42546">
        <ele>206.076</ele>
        <time>2019-09-22T11:51:16.000Z</time>
      </trkpt>
      <trkpt lat="49.00944" lon="5.42561">
        <ele>206.14</ele>
        <time>2019-09-22T11:51:19.001Z</time>
      </trkpt>
      <trkpt lat="49.00935" lon="5.42577">
        <ele>205.7</ele>
        <time>2019-09-22T11:51:22.001Z</time>
      </trkpt>
      <trkpt lat="49.00927" lon="5.42592">
        <ele>205.683</ele>
        <time>2019-09-22T11:51:25.001Z</time>
      </trkpt>
      <trkpt lat="49.0092" lon="5.42608">
        <ele>205.846</ele>
        <time>2019-09-22T11:51:28.001Z</time>
      </trkpt>
      <trkpt lat="49.00914" lon="5.42623">
        <ele>205.804</ele>
        <time>2019-09-22T11:51:31.001Z</time>
      </trkpt>
      <trkpt lat="49.00908" lon="5.42639">
        <ele>206.01</ele>
        <time>2019-09-22T11:51:34.001Z</time>
      </trkpt>
      <trkpt lat="49.00902" lon="5.42655">
        <ele>206.349</ele>
        <time>2019-09-22T11:51:37.001Z</time>
      </trkpt>
      <trkpt lat="49.00896" lon="5.42672">
        <ele>206.611</ele>
        <time>2019-09-22T11:51:40.001Z</time>
      </trkpt>
      <trkpt lat="49.00891" lon="5.42689">
        <ele>206.676</ele>
        <time>2019-09-22T11:51:43.001Z</time>
      </trkpt>
      <trkpt lat="49.00885" lon="5.42706">
        <ele>206.914</ele>
        <time>2019-09-22T11:51:46.001Z</time>
      </trkpt>
      <trkpt lat="49.00879" lon="5.42722">
        <ele>207.287</ele>
        <time>2019-09-22T11:51:49.001Z</time>
      </trkpt>
      <trkpt lat="49.00873" lon="5.42739">
        <ele>207.756</ele>
        <time>2019-09-22T11:51:52.001Z</time>
      </trkpt>
      <trkpt lat="49.00867" lon="5.42756">
        <ele>207.978</ele>
        <time>2019-09-22T11:51:55.001Z</time>
      </trkpt>
      <trkpt lat="49.0086" lon="5.42773">
        <ele>208.584</ele>
        <time>2019-09-22T11:51:58.001Z</time>
      </trkpt>
      <trkpt lat="49.00854" lon="5.42789">
        <ele>208.669</ele>
        <time>2019-09-22T11:52:01.001Z</time>
      </trkpt>
      <trkpt lat="49.00849" lon="5.42805">
        <ele>208.974</ele>
        <time>2019-09-22T11:52:04.001Z</time>
      </trkpt>
      <trkpt lat="49.00843" lon="5.42821">
        <ele>208.948</ele>
        <time>2019-09-22T11:52:07.001Z</time>
      </trkpt>
      <trkpt lat="49.00836" lon="5.42836">
        <ele>208.508</ele>
        <time>2019-09-22T11:52:10.001Z</time>
      </trkpt>
      <trkpt lat="49.00828" lon="5.42852">
        <ele>208.513</ele>
        <time>2019-09-22T11:52:13.001Z</time>
      </trkpt>
      <trkpt lat="49.00821" lon="5.42868">
        <ele>208.467</ele>
        <time>2019-09-22T11:52:16.000Z</time>
      </trkpt>
      <trkpt lat="49.00814" lon="5.42884">
        <ele>208.041</ele>
        <time>2019-09-22T11:52:19.001Z</time>
      </trkpt>
      <trkpt lat="49.00806" lon="5.429">
        <ele>207.863</ele>
        <time>2019-09-22T11:52:22.001Z</time>
      </trkpt>
      <trkpt lat="49.00797" lon="5.42916">
        <ele>207.78</ele>
        <time>2019-09-22T11:52:25.001Z</time>
      </trkpt>
      <trkpt lat="49.00789" lon="5.42932">
        <ele>207.387</ele>
        <time>2019-09-22T11:52:28.001Z</time>
      </trkpt>
      <trkpt lat="49.00781" lon="5.4295">
        <ele>207.079</ele>
        <time>2019-09-22T11:52:31.001Z</time>
      </trkpt>
      <trkpt lat="49.00772" lon="5.42967">
        <ele>206.424</ele>
        <time>2019-09-22T11:52:34.001Z</time>
      </trkpt>
      <trkpt lat="49.00763" lon="5.42983">
        <ele>206.08</ele>
        <time>2019-09-22T11:52:37.001Z</time>
      </trkpt>
      <trkpt lat="49.00754" lon="5.43">
        <ele>205.96</ele>
        <time>2019-09-22T11:52:40.001Z</time>
      </trkpt>
      <trkpt lat="49.00745" lon="5.43017">
        <ele>205.555</ele>
        <time>2019-09-22T11:52:43.001Z</time>
      </trkpt>
      <trkpt lat="49.00737" lon="5.43033">
        <ele>205.566</ele>
        <time>2019-09-22T11:52:46.001Z</time>
      </trkpt>
      <trkpt lat="49.00729" lon="5.43049">
        <ele>205.665</ele>
        <time>2019-09-22T11:52:49.001Z</time>
      </trkpt>
      <trkpt lat="49.0072" lon="5.43064">
        <ele>205.787</ele>
        <time>2019-09-22T11:52:52.001Z</time>
      </trkpt>
      <trkpt lat="49.00711" lon="5.4308">
        <ele>205.862</ele>
        <time>2019-09-22T11:52:55.001Z</time>
      </trkpt>
      <trkpt lat="49.00703" lon="5.43096">
        <ele>205.925</ele>
        <time>2019-09-22T11:52:58.001Z</time>
      </trkpt>
      <trkpt lat="49.00694" lon="5.43111">
        <ele>205.761</ele>
        <time>2019-09-22T11:53:01.001Z</time>
      </trkpt>
      <trkpt lat="49.00686" lon="5.43126">
        <ele>205.72</ele>
        <time>2019-09-22T11:53:04.001Z</time>
      </trkpt>
      <trkpt lat="49.00679" lon="5.43141">
        <ele>205.783</ele>
        <time>2019-09-22T11:53:07.001Z</time>
      </trkpt>
      <trkpt lat="49.00671" lon="5.43156">
        <ele>206.074</ele>
        <time>2019-09-22T11:53:10.001Z</time>
      </trkpt>
      <trkpt lat="49.00663" lon="5.4317">
        <ele>206.433</ele>
        <time>2019-09-22T11:53:13.001Z</time>
      </trkpt>
      <trkpt lat="49.00655" lon="5.43185">
        <ele>206.626</ele>
        <time>2019-09-22T11:53:16.000Z</time>
      </trkpt>
      <trkpt lat="49.00647" lon="5.432">
        <ele>206.448</ele>
        <time>2019-09-22T11:53:19.001Z</time>
      </trkpt>
      <trkpt lat="49.00639" lon="5.43216">
        <ele>206.297</ele>
        <time>2019-09-22T11:53:22.001Z</time>
      </trkpt>
      <trkpt lat="49.00631" lon="5.43232">
        <ele>206.061</ele>
        <time>2019-09-22T11:53:25.001Z</time>
      </trkpt>
      <trkpt lat="49.00622" lon="5.43248">
        <ele>205.502</ele>
        <time>2019-09-22T11:53:28.001Z</time>
      </trkpt>
      <trkpt lat="49.00613" lon="5.43264">
        <ele>205.388</ele>
        <time>2019-09-22T11:53:31.001Z</time>
      </trkpt>
      <trkpt lat="49.00606" lon="5.43278">
        <ele>205.411</ele>
        <time>2019-09-22T11:53:34.001Z</time>
      </trkpt>
      <trkpt lat="49.00599" lon="5.43293">
        <ele>205.617</ele>
        <time>2019-09-22T11:53:37.001Z</time>
      </trkpt>
      <trkpt lat="49.00592" lon="5.43309">
        <ele>205.974</ele>
        <time>2019-09-22T11:53:40.001Z</time>
      </trkpt>
      <trkpt lat="49.00585" lon="5.43325">
        <ele>206.298</ele>
        <time>2019-09-22T11:53:43.001Z</time>
      </trkpt>
      <trkpt lat="49.00577" lon="5.43342">
        <ele>206.098</ele>
        <time>2019-09-22T11:53:46.001Z</time>
      </trkpt>
      <trkpt lat="49.0057" lon="5.43359">
        <ele>205.656</ele>
        <time>2019-09-22T11:53:49.001Z</time>
      </trkpt>
      <trkpt lat="49.00562" lon="5.43376">
        <ele>205.651</ele>
        <time>2019-09-22T11:53:52.001Z</time>
      </trkpt>
      <trkpt lat="49.00556" lon="5.43392">
        <ele>205.499</ele>
        <time>2019-09-22T11:53:55.001Z</time>
      </trkpt>
      <trkpt lat="49.00549" lon="5.43407">
        <ele>205.448</ele>
        <time>2019-09-22T11:53:58.001Z</time>
      </trkpt>
      <trkpt lat="49.00541" lon="5.43423">
        <ele>205.581</ele>
        <time>2019-09-22T11:54:01.001Z</time>
      </trkpt>
      <trkpt lat="49.00534" lon="5.43439">
        <ele>205.709</ele>
        <time>2019-09-22T11:54:04.001Z</time>
      </trkpt>
      <trkpt lat="49.00527" lon="5.43455">
        <ele>205.857</ele>
        <time>2019-09-22T11:54:07.001Z</time>
      </trkpt>
      <trkpt lat="49.0052" lon="5.4347">
        <ele>205.849</ele>
        <time>2019-09-22T11:54:10.001Z</time>
      </trkpt>
      <trkpt lat="49.00514" lon="5.43485">
        <ele>205.942</ele>
        <time>2019-09-22T11:54:13.001Z</time>
      </trkpt>
      <trkpt lat="49.00507" lon="5.43501">
        <ele>205.638</ele>
        <time>2019-09-22T11:54:16.000Z</time>
      </trkpt>
      <trkpt lat="49.005" lon="5.43518">
        <ele>205.739</ele>
        <time>2019-09-22T11:54:19.001Z</time>
      </trkpt>
      <trkpt lat="49.00494" lon="5.43534">
        <ele>205.975</ele>
        <time>2019-09-22T11:54:22.001Z</time>
      </trkpt>
      <trkpt lat="49.00486" lon="5.4355">
        <ele>206.103</ele>
        <time>2019-09-22T11:54:25.001Z</time>
      </trkpt>
      <trkpt lat="49.0048" lon="5.43566">
        <ele>206.427</ele>
        <time>2019-09-22T11:54:28.001Z</time>
      </trkpt>
      <trkpt lat="49.00473" lon="5.43582">
        <ele>206.242</ele>
        <time>2019-09-22T11:54:31.001Z</time>
      </trkpt>
      <trkpt lat="49.00466" lon="5.43596">
        <ele>206.445</ele>
        <time>2019-09-22T11:54:34.001Z</time>
      </trkpt>
      <trkpt lat="49.0046" lon="5.43611">
        <ele>206.621</ele>
        <time>2019-09-22T11:54:37.001Z</time>
      </trkpt>
      <trkpt lat="49.00454" lon="5.43624">
        <ele>207.136</ele>
        <time>2019-09-22T11:54:40.001Z</time>
      </trkpt>
      <trkpt lat="49.00448" lon="5.43637">
        <ele>207.804</ele>
        <time>2019-09-22T11:54:43.001Z</time>
      </trkpt>
      <trkpt lat="49.00442" lon="5.4365">
        <ele>208.61</ele>
        <time>2019-09-22T11:54:46.001Z</time>
      </trkpt>
      <trkpt lat="49.00437" lon="5.43663">
        <ele>209.667</ele>
        <time>2019-09-22T11:54:49.001Z</time>
      </trkpt>
      <trkpt lat="49.00431" lon="5.43676">
        <ele>209.539</ele>
        <time>2019-09-22T11:54:52.001Z</time>
      </trkpt>
      <trkpt lat="49.00425" lon="5.43689">
        <ele>209.365</ele>
        <time>2019-09-22T11:54:55.001Z</time>
      </trkpt>
      <trkpt lat="49.0042" lon="5.43701">
        <ele>209.497</ele>
        <time>2019-09-22T11:54:58.001Z</time>
      </trkpt>
      <trkpt lat="49.00414" lon="5.43714">
        <ele>209.628</ele>
        <time>2019-09-22T11:55:01.001Z</time>
      </trkpt>
      <trkpt lat="49.00408" lon="5.43728">
        <ele>210.067</ele>
        <time>2019-09-22T11:55:04.001Z</time>
      </trkpt>
      <trkpt lat="49.00402" lon="5.4374">
        <ele>210.655</ele>
        <time>2019-09-22T11:55:07.001Z</time>
      </trkpt>
      <trkpt lat="49.00396" lon="5.43753">
        <ele>210.98</ele>
        <time>2019-09-22T11:55:10.001Z</time>
      </trkpt>
      <trkpt lat="49.00391" lon="5.43765">
        <ele>211.251</ele>
        <time>2019-09-22T11:55:13.001Z</time>
      </trkpt>
      <trkpt lat="49.00385" lon="5.43777">
        <ele>211.593</ele>
        <time>2019-09-22T11:55:16.000Z</time>
      </trkpt>
      <trkpt lat="49.0038" lon="5.4379">
        <ele>211.89</ele>
        <time>2019-09-22T11:55:19.001Z</time>
      </trkpt>
      <trkpt lat="49.00374" lon="5.43801">
        <ele>211.597</ele>
        <time>2019-09-22T11:55:22.001Z</time>
      </trkpt>
      <trkpt lat="49.00368" lon="5.43815">
        <ele>211.554</ele>
        <time>2019-09-22T11:55:25.001Z</time>
      </trkpt>
      <trkpt lat="49.00363" lon="5.43828">
        <ele>211.825</ele>
        <time>2019-09-22T11:55:28.001Z</time>
      </trkpt>
      <trkpt lat="49.00356" lon="5.43841">
        <ele>212.847</ele>
        <time>2019-09-22T11:55:31.001Z</time>
      </trkpt>
      <trkpt lat="49.0035" lon="5.43855">
        <ele>213.219</ele>
        <time>2019-09-22T11:55:34.001Z</time>
      </trkpt>
      <trkpt lat="49.00343" lon="5.4387">
        <ele>213.422</ele>
        <time>2019-09-22T11:55:37.001Z</time>
      </trkpt>
      <trkpt lat="49.00335" lon="5.43887">
        <ele>213.921</ele>
        <time>2019-09-22T11:55:40.001Z</time>
      </trkpt>
      <trkpt lat="49.00328" lon="5.43904">
        <ele>214.31</ele>
        <time>2019-09-22T11:55:43.001Z</time>
      </trkpt>
      <trkpt lat="49.0032" lon="5.43923">
        <ele>214.307</ele>
        <time>2019-09-22T11:55:46.001Z</time>
      </trkpt>
      <trkpt lat="49.00312" lon="5.43942">
        <ele>214.125</ele>
        <time>2019-09-22T11:55:49.001Z</time>
      </trkpt>
      <trkpt lat="49.00304" lon="5.43961">
        <ele>213.914</ele>
        <time>2019-09-22T11:55:52.001Z</time>
      </trkpt>
      <trkpt lat="49.00295" lon="5.43982">
        <ele>213.533</ele>
        <time>2019-09-22T11:55:55.001Z</time>
      </trkpt>
      <trkpt lat="49.00286" lon="5.44003">
        <ele>213.187</ele>
        <time>2019-09-22T11:55:58.001Z</time>
      </trkpt>
      <trkpt lat="49.00275" lon="5.44022">
        <ele>213.081</ele>
        <time>2019-09-22T11:56:01.001Z</time>
      </trkpt>
      <trkpt lat="49.00262" lon="5.44038">
        <ele>212.787</ele>
        <time>2019-09-22T11:56:04.001Z</time>
      </trkpt>
      <trkpt lat="49.00248" lon="5.44051">
        <ele>211.62</ele>
        <time>2019-09-22T11:56:07.001Z</time>
      </trkpt>
      <trkpt lat="49.00236" lon="5.44063">
        <ele>210.955</ele>
        <time>2019-09-22T11:56:10.001Z</time>
      </trkpt>
      <trkpt lat="49.00224" lon="5.44074">
        <ele>210.585</ele>
        <time>2019-09-22T11:56:13.001Z</time>
      </trkpt>
      <trkpt lat="49.00211" lon="5.44085">
        <ele>210.003</ele>
        <time>2019-09-22T11:56:16.000Z</time>
      </trkpt>
      <trkpt lat="49.00199" lon="5.44096">
        <ele>209.892</ele>
        <time>2019-09-22T11:56:19.001Z</time>
      </trkpt>
      <trkpt lat="49.00187" lon="5.44106">
        <ele>209.878</ele>
        <time>2019-09-22T11:56:22.001Z</time>
      </trkpt>
      <trkpt lat="49.00175" lon="5.44118">
        <ele>210.176</ele>
        <time>2019-09-22T11:56:25.001Z</time>
      </trkpt>
      <trkpt lat="49.00164" lon="5.44131">
        <ele>209.91</ele>
        <time>2019-09-22T11:56:28.001Z</time>
      </trkpt>
      <trkpt lat="49.00153" lon="5.44145">
        <ele>209.882</ele>
        <time>2019-09-22T11:56:31.001Z</time>
      </trkpt>
      <trkpt lat="49.00141" lon="5.44161">
        <ele>209.139</ele>
        <time>2019-09-22T11:56:34.001Z</time>
      </trkpt>
      <trkpt lat="49.00129" lon="5.44176">
        <ele>208.764</ele>
        <time>2019-09-22T11:56:37.001Z</time>
      </trkpt>
      <trkpt lat="49.00117" lon="5.44193">
        <ele>208.563</ele>
        <time>2019-09-22T11:56:40.001Z</time>
      </trkpt>
      <trkpt lat="49.00106" lon="5.44209">
        <ele>208.517</ele>
        <time>2019-09-22T11:56:43.001Z</time>
      </trkpt>
      <trkpt lat="49.00096" lon="5.44225">
        <ele>208.809</ele>
        <time>2019-09-22T11:56:46.001Z</time>
      </trkpt>
      <trkpt lat="49.00084" lon="5.44241">
        <ele>209.084</ele>
        <time>2019-09-22T11:56:49.001Z</time>
      </trkpt>
      <trkpt lat="49.00073" lon="5.44257">
        <ele>209.314</ele>
        <time>2019-09-22T11:56:52.001Z</time>
      </trkpt>
      <trkpt lat="49.00061" lon="5.44272">
        <ele>209.351</ele>
        <time>2019-09-22T11:56:55.001Z</time>
      </trkpt>
      <trkpt lat="49.00049" lon="5.44286">
        <ele>208.654</ele>
        <time>2019-09-22T11:56:58.001Z</time>
      </trkpt>
      <trkpt lat="49.00038" lon="5.44301">
        <ele>208.214</ele>
        <time>2019-09-22T11:57:01.001Z</time>
      </trkpt>
      <trkpt lat="49.00027" lon="5.44316">
        <ele>207.891</ele>
        <time>2019-09-22T11:57:04.001Z</time>
      </trkpt>
      <trkpt lat="49.00017" lon="5.44331">
        <ele>207.561</ele>
        <time>2019-09-22T11:57:07.001Z</time>
      </trkpt>
      <trkpt lat="49.00007" lon="5.44346">
        <ele>207.14</ele>
        <time>2019-09-22T11:57:10.001Z</time>
      </trkpt>
      <trkpt lat="48.99997" lon="5.4436">
        <ele>206.813</ele>
        <time>2019-09-22T11:57:13.001Z</time>
      </trkpt>
      <trkpt lat="48.99986" lon="5.44374">
        <ele>206.544</ele>
        <time>2019-09-22T11:57:16.000Z</time>
      </trkpt>
      <trkpt lat="48.99976" lon="5.44387">
        <ele>206.322</ele>
        <time>2019-09-22T11:57:19.001Z</time>
      </trkpt>
      <trkpt lat="48.99966" lon="5.44401">
        <ele>206.326</ele>
        <time>2019-09-22T11:57:22.001Z</time>
      </trkpt>
      <trkpt lat="48.99957" lon="5.44414">
        <ele>206.542</ele>
        <time>2019-09-22T11:57:25.001Z</time>
      </trkpt>
      <trkpt lat="48.99947" lon="5.44427">
        <ele>206.843</ele>
        <time>2019-09-22T11:57:28.001Z</time>
      </trkpt>
      <trkpt lat="48.99938" lon="5.44439">
        <ele>206.806</ele>
        <time>2019-09-22T11:57:31.001Z</time>
      </trkpt>
      <trkpt lat="48.99929" lon="5.44451">
        <ele>206.756</ele>
        <time>2019-09-22T11:57:34.001Z</time>
      </trkpt>
      <trkpt lat="48.9992" lon="5.44462">
        <ele>206.891</ele>
        <time>2019-09-22T11:57:37.001Z</time>
      </trkpt>
      <trkpt lat="48.99912" lon="5.44473">
        <ele>206.648</ele>
        <time>2019-09-22T11:57:40.001Z</time>
      </trkpt>
      <trkpt lat="48.99905" lon="5.44484">
        <ele>206.671</ele>
        <time>2019-09-22T11:57:43.001Z</time>
      </trkpt>
      <trkpt lat="48.99898" lon="5.44494">
        <ele>207.12</ele>
        <time>2019-09-22T11:57:46.001Z</time>
      </trkpt>
      <trkpt lat="48.99891" lon="5.44505">
        <ele>207.468</ele>
        <time>2019-09-22T11:57:49.001Z</time>
      </trkpt>
      <trkpt lat="48.99884" lon="5.44514">
        <ele>207.462</ele>
        <time>2019-09-22T11:57:52.001Z</time>
      </trkpt>
      <trkpt lat="48.99876" lon="5.44524">
        <ele>207.564</ele>
        <time>2019-09-22T11:57:55.001Z</time>
      </trkpt>
      <trkpt lat="48.99868" lon="5.44535">
        <ele>207.836</ele>
        <time>2019-09-22T11:57:58.001Z</time>
      </trkpt>
      <trkpt lat="48.99861" lon="5.44544">
        <ele>208.042</ele>
        <time>2019-09-22T11:58:01.001Z</time>
      </trkpt>
      <trkpt lat="48.99853" lon="5.44554">
        <ele>208.394</ele>
        <time>2019-09-22T11:58:04.001Z</time>
      </trkpt>
      <trkpt lat="48.99846" lon="5.44564">
        <ele>208.358</ele>
        <time>2019-09-22T11:58:07.001Z</time>
      </trkpt>
      <trkpt lat="48.99838" lon="5.44574">
        <ele>208.482</ele>
        <time>2019-09-22T11:58:10.001Z</time>
      </trkpt>
      <trkpt lat="48.99831" lon="5.44584">
        <ele>208.793</ele>
        <time>2019-09-22T11:58:13.001Z</time>
      </trkpt>
      <trkpt lat="48.99823" lon="5.44594">
        <ele>209.009</ele>
        <time>2019-09-22T11:58:16.000Z</time>
      </trkpt>
      <trkpt lat="48.99815" lon="5.44605">
        <ele>209.334</ele>
        <time>2019-09-22T11:58:19.001Z</time>
      </trkpt>
      <trkpt lat="48.99808" lon="5.44615">
        <ele>209.375</ele>
        <time>2019-09-22T11:58:22.001Z</time>
      </trkpt>
      <trkpt lat="48.99801" lon="5.44624">
        <ele>209.326</ele>
        <time>2019-09-22T11:58:25.001Z</time>
      </trkpt>
      <trkpt lat="48.99794" lon="5.44635">
        <ele>209.265</ele>
        <time>2019-09-22T11:58:28.001Z</time>
      </trkpt>
      <trkpt lat="48.99787" lon="5.44644">
        <ele>209.212</ele>
        <time>2019-09-22T11:58:31.001Z</time>
      </trkpt>
      <trkpt lat="48.9978" lon="5.44654">
        <ele>209.127</ele>
        <time>2019-09-22T11:58:34.001Z</time>
      </trkpt>
      <trkpt lat="48.99773" lon="5.44663">
        <ele>209.341</ele>
        <time>2019-09-22T11:58:37.001Z</time>
      </trkpt>
      <trkpt lat="48.99766" lon="5.44673">
        <ele>209.408</ele>
        <time>2019-09-22T11:58:40.001Z</time>
      </trkpt>
      <trkpt lat="48.99759" lon="5.44683">
        <ele>209.092</ele>
        <time>2019-09-22T11:58:43.001Z</time>
      </trkpt>
      <trkpt lat="48.99751" lon="5.44691">
        <ele>209.068</ele>
        <time>2019-09-22T11:58:46.001Z</time>
      </trkpt>
      <trkpt lat="48.99744" lon="5.447">
        <ele>209.299</ele>
        <time>2019-09-22T11:58:49.001Z</time>
      </trkpt>
      <trkpt lat="48.99736" lon="5.4471">
        <ele>209.797</ele>
        <time>2019-09-22T11:58:52.001Z</time>
      </trkpt>
      <trkpt lat="48.99728" lon="5.44719">
        <ele>210.136</ele>
        <time>2019-09-22T11:58:55.001Z</time>
      </trkpt>
      <trkpt lat="48.9972" lon="5.44728">
        <ele>210.727</ele>
        <time>2019-09-22T11:58:58.001Z</time>
      </trkpt>
      <trkpt lat="48.99712" lon="5.44738">
        <ele>210.988</ele>
        <time>2019-09-22T11:59:01.001Z</time>
      </trkpt>
      <trkpt lat="48.99703" lon="5.44748">
        <ele>211.105</ele>
        <time>2019-09-22T11:59:04.001Z</time>
      </trkpt>
      <trkpt lat="48.99693" lon="5.44756">
        <ele>211.552</ele>
        <time>2019-09-22T11:59:07.001Z</time>
      </trkpt>
      <trkpt lat="48.99682" lon="5.44764">
        <ele>211.814</ele>
        <time>2019-09-22T11:59:10.001Z</time>
      </trkpt>
      <trkpt lat="48.99671" lon="5.44774">
        <ele>211.988</ele>
        <time>2019-09-22T11:59:13.001Z</time>
      </trkpt>
      <trkpt lat="48.99659" lon="5.44784">
        <ele>211.694</ele>
        <time>2019-09-22T11:59:16.000Z</time>
      </trkpt>
      <trkpt lat="48.99648" lon="5.44794">
        <ele>211.669</ele>
        <time>2019-09-22T11:59:19.001Z</time>
      </trkpt>
      <trkpt lat="48.99636" lon="5.44803">
        <ele>211.306</ele>
        <time>2019-09-22T11:59:22.001Z</time>
      </trkpt>
      <trkpt lat="48.99624" lon="5.44813">
        <ele>210.991</ele>
        <time>2019-09-22T11:59:25.001Z</time>
      </trkpt>
      <trkpt lat="48.99612" lon="5.44822">
        <ele>210.84</ele>
        <time>2019-09-22T11:59:28.001Z</time>
      </trkpt>
      <trkpt lat="48.99599" lon="5.44832">
        <ele>210.752</ele>
        <time>2019-09-22T11:59:31.001Z</time>
      </trkpt>
      <trkpt lat="48.99587" lon="5.44842">
        <ele>210.552</ele>
        <time>2019-09-22T11:59:34.001Z</time>
      </trkpt>
      <trkpt lat="48.99574" lon="5.44852">
        <ele>210.151</ele>
        <time>2019-09-22T11:59:37.001Z</time>
      </trkpt>
      <trkpt lat="48.99561" lon="5.44862">
        <ele>210.238</ele>
        <time>2019-09-22T11:59:40.001Z</time>
      </trkpt>
      <trkpt lat="48.99549" lon="5.44873">
        <ele>210.346</ele>
        <time>2019-09-22T11:59:43.001Z</time>
      </trkpt>
      <trkpt lat="48.99537" lon="5.44883">
        <ele>210.382</ele>
        <time>2019-09-22T11:59:46.001Z</time>
      </trkpt>
      <trkpt lat="48.99525" lon="5.44894">
        <ele>209.961</ele>
        <time>2019-09-22T11:59:49.001Z</time>
      </trkpt>
      <trkpt lat="48.99513" lon="5.44903">
        <ele>209.474</ele>
        <time>2019-09-22T11:59:52.001Z</time>
      </trkpt>
      <trkpt lat="48.99501" lon="5.44913">
        <ele>209.509</ele>
        <time>2019-09-22T11:59:55.001Z</time>
      </trkpt>
      <trkpt lat="48.99489" lon="5.44922">
        <ele>209.891</ele>
        <time>2019-09-22T11:59:58.001Z</time>
      </trkpt>
      <trkpt lat="48.99477" lon="5.44931">
        <ele>210.162</ele>
        <time>2019-09-22T12:00:01.001Z</time>
      </trkpt>
      <trkpt lat="48.99466" lon="5.44939">
        <ele>210.277</ele>
        <time>2019-09-22T12:00:04.001Z</time>
      </trkpt>
      <trkpt lat="48.99454" lon="5.44948">
        <ele>210.566</ele>
        <time>2019-09-22T12:00:07.001Z</time>
      </trkpt>
      <trkpt lat="48.99444" lon="5.44957">
        <ele>210.574</ele>
        <time>2019-09-22T12:00:10.001Z</time>
      </trkpt>
      <trkpt lat="48.99433" lon="5.44965">
        <ele>210.731</ele>
        <time>2019-09-22T12:00:13.001Z</time>
      </trkpt>
      <trkpt lat="48.99423" lon="5.44974">
        <ele>210.846</ele>
        <time>2019-09-22T12:00:16.000Z</time>
      </trkpt>
      <trkpt lat="48.99412" lon="5.44983">
        <ele>210.979</ele>
        <time>2019-09-22T12:00:19.001Z</time>
      </trkpt>
      <trkpt lat="48.99402" lon="5.4499">
        <ele>211.007</ele>
        <time>2019-09-22T12:00:22.001Z</time>
      </trkpt>
      <trkpt lat="48.99392" lon="5.44998">
        <ele>210.881</ele>
        <time>2019-09-22T12:00:25.001Z</time>
      </trkpt>
      <trkpt lat="48.99382" lon="5.45006">
        <ele>211.005</ele>
        <time>2019-09-22T12:00:28.001Z</time>
      </trkpt>
      <trkpt lat="48.99373" lon="5.45014">
        <ele>211.195</ele>
        <time>2019-09-22T12:00:31.001Z</time>
      </trkpt>
      <trkpt lat="48.99364" lon="5.45022">
        <ele>211.354</ele>
        <time>2019-09-22T12:00:34.001Z</time>
      </trkpt>
      <trkpt lat="48.99353" lon="5.4503">
        <ele>210.763</ele>
        <time>2019-09-22T12:00:37.001Z</time>
      </trkpt>
      <trkpt lat="48.99344" lon="5.45038">
        <ele>211</ele>
        <time>2019-09-22T12:00:40.001Z</time>
      </trkpt>
      <trkpt lat="48.99334" lon="5.45045">
        <ele>211.746</ele>
        <time>2019-09-22T12:00:43.001Z</time>
      </trkpt>
      <trkpt lat="48.99325" lon="5.45052">
        <ele>212.311</ele>
        <time>2019-09-22T12:00:46.001Z</time>
      </trkpt>
      <trkpt lat="48.99317" lon="5.45059">
        <ele>212.521</ele>
        <time>2019-09-22T12:00:49.001Z</time>
      </trkpt>
      <trkpt lat="48.99309" lon="5.45065">
        <ele>212.725</ele>
        <time>2019-09-22T12:00:52.001Z</time>
      </trkpt>
      <trkpt lat="48.993" lon="5.45071">
        <ele>213.078</ele>
        <time>2019-09-22T12:00:55.001Z</time>
      </trkpt>
      <trkpt lat="48.99292" lon="5.45077">
        <ele>213.74</ele>
        <time>2019-09-22T12:00:58.001Z</time>
      </trkpt>
      <trkpt lat="48.99285" lon="5.45083">
        <ele>214.147</ele>
        <time>2019-09-22T12:01:01.001Z</time>
      </trkpt>
      <trkpt lat="48.99277" lon="5.45089">
        <ele>214.95</ele>
        <time>2019-09-22T12:01:04.001Z</time>
      </trkpt>
      <trkpt lat="48.9927" lon="5.45095">
        <ele>215.665</ele>
        <time>2019-09-22T12:01:07.001Z</time>
      </trkpt>
      <trkpt lat="48.99262" lon="5.45101">
        <ele>216.414</ele>
        <time>2019-09-22T12:01:10.001Z</time>
      </trkpt>
      <trkpt lat="48.99253" lon="5.45109">
        <ele>217.043</ele>
        <time>2019-09-22T12:01:13.001Z</time>
      </trkpt>
      <trkpt lat="48.99246" lon="5.45116">
        <ele>217.246</ele>
        <time>2019-09-22T12:01:16.000Z</time>
      </trkpt>
      <trkpt lat="48.99238" lon="5.45122">
        <ele>217.457</ele>
        <time>2019-09-22T12:01:19.001Z</time>
      </trkpt>
      <trkpt lat="48.99231" lon="5.45129">
        <ele>218.028</ele>
        <time>2019-09-22T12:01:22.001Z</time>
      </trkpt>
      <trkpt lat="48.99222" lon="5.45136">
        <ele>217.867</ele>
        <time>2019-09-22T12:01:25.001Z</time>
      </trkpt>
      <trkpt lat="48.99213" lon="5.45143">
        <ele>217.224</ele>
        <time>2019-09-22T12:01:28.001Z</time>
      </trkpt>
      <trkpt lat="48.99204" lon="5.45151">
        <ele>217.079</ele>
        <time>2019-09-22T12:01:31.001Z</time>
      </trkpt>
      <trkpt lat="48.99195" lon="5.45158">
        <ele>216.861</ele>
        <time>2019-09-22T12:01:34.001Z</time>
      </trkpt>
      <trkpt lat="48.99186" lon="5.45165">
        <ele>216.574</ele>
        <time>2019-09-22T12:01:37.001Z</time>
      </trkpt>
      <trkpt lat="48.99178" lon="5.45172">
        <ele>216.566</ele>
        <time>2019-09-22T12:01:40.001Z</time>
      </trkpt>
      <trkpt lat="48.99169" lon="5.45179">
        <ele>216.876</ele>
        <time>2019-09-22T12:01:43.001Z</time>
      </trkpt>
      <trkpt lat="48.9916" lon="5.45186">
        <ele>217.304</ele>
        <time>2019-09-22T12:01:46.001Z</time>
      </trkpt>
      <trkpt lat="48.9915" lon="5.45194">
        <ele>217.836</ele>
        <time>2019-09-22T12:01:49.001Z</time>
      </trkpt>
      <trkpt lat="48.9914" lon="5.45201">
        <ele>217.892</ele>
        <time>2019-09-22T12:01:52.001Z</time>
      </trkpt>
      <trkpt lat="48.99129" lon="5.4521">
        <ele>217.823</ele>
        <time>2019-09-22T12:01:55.001Z</time>
      </trkpt>
      <trkpt lat="48.99119" lon="5.45219">
        <ele>217.719</ele>
        <time>2019-09-22T12:01:58.001Z</time>
      </trkpt>
      <trkpt lat="48.99108" lon="5.45228">
        <ele>217.639</ele>
        <time>2019-09-22T12:02:01.001Z</time>
      </trkpt>
      <trkpt lat="48.99096" lon="5.45237">
        <ele>217.398</ele>
        <time>2019-09-22T12:02:04.001Z</time>
      </trkpt>
      <trkpt lat="48.99084" lon="5.45248">
        <ele>217.254</ele>
        <time>2019-09-22T12:02:07.001Z</time>
      </trkpt>
      <trkpt lat="48.99072" lon="5.45261">
        <ele>216.873</ele>
        <time>2019-09-22T12:02:10.001Z</time>
      </trkpt>
      <trkpt lat="48.99059" lon="5.45276">
        <ele>216.513</ele>
        <time>2019-09-22T12:02:13.001Z</time>
      </trkpt>
      <trkpt lat="48.99044" lon="5.45291">
        <ele>216.108</ele>
        <time>2019-09-22T12:02:16.000Z</time>
      </trkpt>
      <trkpt lat="48.99028" lon="5.45308">
        <ele>215.862</ele>
        <time>2019-09-22T12:02:19.001Z</time>
      </trkpt>
      <trkpt lat="48.99011" lon="5.45327">
        <ele>215.636</ele>
        <time>2019-09-22T12:02:22.001Z</time>
      </trkpt>
      <trkpt lat="48.98991" lon="5.45348">
        <ele>214.623</ele>
        <time>2019-09-22T12:02:25.001Z</time>
      </trkpt>
      <trkpt lat="48.98967" lon="5.45369">
        <ele>212.139</ele>
        <time>2019-09-22T12:02:28.001Z</time>
      </trkpt>
      <trkpt lat="48.98945" lon="5.45389">
        <ele>209.692</ele>
        <time>2019-09-22T12:02:31.001Z</time>
      </trkpt>
      <trkpt lat="48.98924" lon="5.45409">
        <ele>208.604</ele>
        <time>2019-09-22T12:02:34.001Z</time>
      </trkpt>
      <trkpt lat="48.98903" lon="5.45426">
        <ele>208.178</ele>
        <time>2019-09-22T12:02:37.001Z</time>
      </trkpt>
      <trkpt lat="48.98885" lon="5.45441">
        <ele>207.455</ele>
        <time>2019-09-22T12:02:40.001Z</time>
      </trkpt>
      <trkpt lat="48.98867" lon="5.45456">
        <ele>206.914</ele>
        <time>2019-09-22T12:02:43.001Z</time>
      </trkpt>
      <trkpt lat="48.9885" lon="5.45469">
        <ele>206.803</ele>
        <time>2019-09-22T12:02:46.001Z</time>
      </trkpt>
      <trkpt lat="48.98834" lon="5.4548">
        <ele>206.449</ele>
        <time>2019-09-22T12:02:49.001Z</time>
      </trkpt>
      <trkpt lat="48.9882" lon="5.4549">
        <ele>206.199</ele>
        <time>2019-09-22T12:02:52.001Z</time>
      </trkpt>
      <trkpt lat="48.98805" lon="5.45501">
        <ele>206.134</ele>
        <time>2019-09-22T12:02:55.001Z</time>
      </trkpt>
      <trkpt lat="48.9879" lon="5.4551">
        <ele>206.141</ele>
        <time>2019-09-22T12:02:58.001Z</time>
      </trkpt>
      <trkpt lat="48.98776" lon="5.45519">
        <ele>205.982</ele>
        <time>2019-09-22T12:03:01.001Z</time>
      </trkpt>
      <trkpt lat="48.98761" lon="5.45528">
        <ele>205.836</ele>
        <time>2019-09-22T12:03:04.001Z</time>
      </trkpt>
      <trkpt lat="48.98747" lon="5.45537">
        <ele>205.824</ele>
        <time>2019-09-22T12:03:07.001Z</time>
      </trkpt>
      <trkpt lat="48.98732" lon="5.45547">
        <ele>205.396</ele>
        <time>2019-09-22T12:03:10.001Z</time>
      </trkpt>
      <trkpt lat="48.98719" lon="5.45556">
        <ele>205.134</ele>
        <time>2019-09-22T12:03:13.001Z</time>
      </trkpt>
      <trkpt lat="48.98706" lon="5.45565">
        <ele>204.987</ele>
        <time>2019-09-22T12:03:16.000Z</time>
      </trkpt>
      <trkpt lat="48.98692" lon="5.45575">
        <ele>205.285</ele>
        <time>2019-09-22T12:03:19.001Z</time>
      </trkpt>
      <trkpt lat="48.98678" lon="5.45585">
        <ele>205.519</ele>
        <time>2019-09-22T12:03:22.001Z</time>
      </trkpt>
      <trkpt lat="48.98663" lon="5.45595">
        <ele>205.591</ele>
        <time>2019-09-22T12:03:25.001Z</time>
      </trkpt>
      <trkpt lat="48.98648" lon="5.45606">
        <ele>205.397</ele>
        <time>2019-09-22T12:03:28.001Z</time>
      </trkpt>
      <trkpt lat="48.98635" lon="5.45617">
        <ele>205.352</ele>
        <time>2019-09-22T12:03:31.001Z</time>
      </trkpt>
      <trkpt lat="48.9862" lon="5.45629">
        <ele>205.056</ele>
        <time>2019-09-22T12:03:34.001Z</time>
      </trkpt>
      <trkpt lat="48.98606" lon="5.45642">
        <ele>205.013</ele>
        <time>2019-09-22T12:03:37.001Z</time>
      </trkpt>
      <trkpt lat="48.98592" lon="5.45655">
        <ele>205.265</ele>
        <time>2019-09-22T12:03:40.001Z</time>
      </trkpt>
      <trkpt lat="48.98579" lon="5.45667">
        <ele>205.232</ele>
        <time>2019-09-22T12:03:43.001Z</time>
      </trkpt>
      <trkpt lat="48.98567" lon="5.45678">
        <ele>205.474</ele>
        <time>2019-09-22T12:03:46.001Z</time>
      </trkpt>
      <trkpt lat="48.98555" lon="5.45691">
        <ele>205.566</ele>
        <time>2019-09-22T12:03:49.001Z</time>
      </trkpt>
      <trkpt lat="48.98543" lon="5.45704">
        <ele>205.596</ele>
        <time>2019-09-22T12:03:52.001Z</time>
      </trkpt>
      <trkpt lat="48.98531" lon="5.45717">
        <ele>206.034</ele>
        <time>2019-09-22T12:03:55.001Z</time>
      </trkpt>
      <trkpt lat="48.98519" lon="5.4573">
        <ele>206.14</ele>
        <time>2019-09-22T12:03:58.001Z</time>
      </trkpt>
      <trkpt lat="48.98508" lon="5.45742">
        <ele>206.149</ele>
        <time>2019-09-22T12:04:01.001Z</time>
      </trkpt>
      <trkpt lat="48.98497" lon="5.45755">
        <ele>206.167</ele>
        <time>2019-09-22T12:04:04.001Z</time>
      </trkpt>
      <trkpt lat="48.98486" lon="5.45767">
        <ele>206.022</ele>
        <time>2019-09-22T12:04:07.001Z</time>
      </trkpt>
      <trkpt lat="48.98475" lon="5.4578">
        <ele>205.824</ele>
        <time>2019-09-22T12:04:10.001Z</time>
      </trkpt>
      <trkpt lat="48.98465" lon="5.45794">
        <ele>205.653</ele>
        <time>2019-09-22T12:04:13.001Z</time>
      </trkpt>
      <trkpt lat="48.98455" lon="5.45807">
        <ele>205.225</ele>
        <time>2019-09-22T12:04:16.000Z</time>
      </trkpt>
      <trkpt lat="48.98444" lon="5.45822">
        <ele>204.793</ele>
        <time>2019-09-22T12:04:19.001Z</time>
      </trkpt>
      <trkpt lat="48.98433" lon="5.45837">
        <ele>204.669</ele>
        <time>2019-09-22T12:04:22.001Z</time>
      </trkpt>
      <trkpt lat="48.98423" lon="5.45851">
        <ele>204.449</ele>
        <time>2019-09-22T12:04:25.001Z</time>
      </trkpt>
      <trkpt lat="48.98412" lon="5.45866">
        <ele>204.398</ele>
        <time>2019-09-22T12:04:28.001Z</time>
      </trkpt>
      <trkpt lat="48.98403" lon="5.4588">
        <ele>204.487</ele>
        <time>2019-09-22T12:04:31.001Z</time>
      </trkpt>
      <trkpt lat="48.98393" lon="5.45894">
        <ele>204.767</ele>
        <time>2019-09-22T12:04:34.001Z</time>
      </trkpt>
      <trkpt lat="48.98383" lon="5.45907">
        <ele>205.129</ele>
        <time>2019-09-22T12:04:37.001Z</time>
      </trkpt>
      <trkpt lat="48.98372" lon="5.45922">
        <ele>205.755</ele>
        <time>2019-09-22T12:04:40.001Z</time>
      </trkpt>
      <trkpt lat="48.98362" lon="5.45936">
        <ele>206.054</ele>
        <time>2019-09-22T12:04:43.001Z</time>
      </trkpt>
      <trkpt lat="48.98352" lon="5.4595">
        <ele>206.342</ele>
        <time>2019-09-22T12:04:46.001Z</time>
      </trkpt>
      <trkpt lat="48.98341" lon="5.45963">
        <ele>206.911</ele>
        <time>2019-09-22T12:04:49.001Z</time>
      </trkpt>
      <trkpt lat="48.98332" lon="5.45977">
        <ele>207.371</ele>
        <time>2019-09-22T12:04:52.001Z</time>
      </trkpt>
      <trkpt lat="48.98322" lon="5.45991">
        <ele>208.043</ele>
        <time>2019-09-22T12:04:55.001Z</time>
      </trkpt>
      <trkpt lat="48.98312" lon="5.46006">
        <ele>208.602</ele>
        <time>2019-09-22T12:04:58.001Z</time>
      </trkpt>
      <trkpt lat="48.98302" lon="5.4602">
        <ele>208.94</ele>
        <time>2019-09-22T12:05:01.001Z</time>
      </trkpt>
      <trkpt lat="48.98291" lon="5.46034">
        <ele>208.866</ele>
        <time>2019-09-22T12:05:04.001Z</time>
      </trkpt>
      <trkpt lat="48.98279" lon="5.46048">
        <ele>208.131</ele>
        <time>2019-09-22T12:05:07.001Z</time>
      </trkpt>
      <trkpt lat="48.98269" lon="5.46063">
        <ele>208.003</ele>
        <time>2019-09-22T12:05:10.001Z</time>
      </trkpt>
      <trkpt lat="48.98258" lon="5.46078">
        <ele>208.203</ele>
        <time>2019-09-22T12:05:13.001Z</time>
      </trkpt>
      <trkpt lat="48.98248" lon="5.46092">
        <ele>208.446</ele>
        <time>2019-09-22T12:05:16.000Z</time>
      </trkpt>
      <trkpt lat="48.98238" lon="5.46107">
        <ele>208.442</ele>
        <time>2019-09-22T12:05:19.001Z</time>
      </trkpt>
      <trkpt lat="48.98228" lon="5.46122">
        <ele>208.115</ele>
        <time>2019-09-22T12:05:22.001Z</time>
      </trkpt>
      <trkpt lat="48.9822" lon="5.46137">
        <ele>208.239</ele>
        <time>2019-09-22T12:05:25.001Z</time>
      </trkpt>
      <trkpt lat="48.98211" lon="5.4615">
        <ele>208.726</ele>
        <time>2019-09-22T12:05:28.001Z</time>
      </trkpt>
      <trkpt lat="48.98199" lon="5.46163">
        <ele>208.608</ele>
        <time>2019-09-22T12:05:31.001Z</time>
      </trkpt>
      <trkpt lat="48.98189" lon="5.46177">
        <ele>208.977</ele>
        <time>2019-09-22T12:05:34.001Z</time>
      </trkpt>
      <trkpt lat="48.9818" lon="5.4619">
        <ele>209.372</ele>
        <time>2019-09-22T12:05:37.001Z</time>
      </trkpt>
      <trkpt lat="48.9817" lon="5.46205">
        <ele>210.168</ele>
        <time>2019-09-22T12:05:40.001Z</time>
      </trkpt>
      <trkpt lat="48.98161" lon="5.46217">
        <ele>210.807</ele>
        <time>2019-09-22T12:05:43.001Z</time>
      </trkpt>
      <trkpt lat="48.98151" lon="5.4623">
        <ele>210.532</ele>
        <time>2019-09-22T12:05:46.001Z</time>
      </trkpt>
      <trkpt lat="48.98139" lon="5.46245">
        <ele>210.137</ele>
        <time>2019-09-22T12:05:49.001Z</time>
      </trkpt>
      <trkpt lat="48.98127" lon="5.46261">
        <ele>209.112</ele>
        <time>2019-09-22T12:05:52.001Z</time>
      </trkpt>
      <trkpt lat="48.98115" lon="5.46275">
        <ele>207.351</ele>
        <time>2019-09-22T12:05:55.001Z</time>
      </trkpt>
      <trkpt lat="48.98102" lon="5.46289">
        <ele>206.567</ele>
        <time>2019-09-22T12:05:58.001Z</time>
      </trkpt>
      <trkpt lat="48.98091" lon="5.46306">
        <ele>206.056</ele>
        <time>2019-09-22T12:06:01.001Z</time>
      </trkpt>
      <trkpt lat="48.98081" lon="5.4632">
        <ele>205.994</ele>
        <time>2019-09-22T12:06:04.001Z</time>
      </trkpt>
      <trkpt lat="48.98071" lon="5.46335">
        <ele>206.223</ele>
        <time>2019-09-22T12:06:07.001Z</time>
      </trkpt>
      <trkpt lat="48.98061" lon="5.46349">
        <ele>206.87</ele>
        <time>2019-09-22T12:06:10.001Z</time>
      </trkpt>
      <trkpt lat="48.98051" lon="5.46362">
        <ele>207.256</ele>
        <time>2019-09-22T12:06:13.001Z</time>
      </trkpt>
      <trkpt lat="48.98041" lon="5.46375">
        <ele>208.154</ele>
        <time>2019-09-22T12:06:16.000Z</time>
      </trkpt>
      <trkpt lat="48.98031" lon="5.46388">
        <ele>208.265</ele>
        <time>2019-09-22T12:06:19.001Z</time>
      </trkpt>
      <trkpt lat="48.98021" lon="5.46401">
        <ele>208.328</ele>
        <time>2019-09-22T12:06:22.001Z</time>
      </trkpt>
      <trkpt lat="48.98012" lon="5.46413">
        <ele>208.452</ele>
        <time>2019-09-22T12:06:25.001Z</time>
      </trkpt>
      <trkpt lat="48.98003" lon="5.46426">
        <ele>208.254</ele>
        <time>2019-09-22T12:06:28.001Z</time>
      </trkpt>
      <trkpt lat="48.97993" lon="5.46439">
        <ele>208.125</ele>
        <time>2019-09-22T12:06:31.001Z</time>
      </trkpt>
      <trkpt lat="48.97984" lon="5.46453">
        <ele>208.363</ele>
        <time>2019-09-22T12:06:34.001Z</time>
      </trkpt>
      <trkpt lat="48.97974" lon="5.46469">
        <ele>208.781</ele>
        <time>2019-09-22T12:06:37.001Z</time>
      </trkpt>
      <trkpt lat="48.97963" lon="5.46484">
        <ele>209.335</ele>
        <time>2019-09-22T12:06:40.001Z</time>
      </trkpt>
      <trkpt lat="48.97953" lon="5.46498">
        <ele>209.504</ele>
        <time>2019-09-22T12:06:43.001Z</time>
      </trkpt>
      <trkpt lat="48.97942" lon="5.4651">
        <ele>209.238</ele>
        <time>2019-09-22T12:06:46.001Z</time>
      </trkpt>
      <trkpt lat="48.97932" lon="5.46524">
        <ele>208.959</ele>
        <time>2019-09-22T12:06:49.001Z</time>
      </trkpt>
      <trkpt lat="48.97922" lon="5.46538">
        <ele>208.881</ele>
        <time>2019-09-22T12:06:52.001Z</time>
      </trkpt>
      <trkpt lat="48.97912" lon="5.46552">
        <ele>208.138</ele>
        <time>2019-09-22T12:06:55.001Z</time>
      </trkpt>
      <trkpt lat="48.97902" lon="5.46566">
        <ele>207.559</ele>
        <time>2019-09-22T12:06:58.001Z</time>
      </trkpt>
      <trkpt lat="48.97892" lon="5.46579">
        <ele>207.609</ele>
        <time>2019-09-22T12:07:01.001Z</time>
      </trkpt>
      <trkpt lat="48.97882" lon="5.46592">
        <ele>207.708</ele>
        <time>2019-09-22T12:07:04.001Z</time>
      </trkpt>
      <trkpt lat="48.97872" lon="5.46605">
        <ele>207.89</ele>
        <time>2019-09-22T12:07:07.001Z</time>
      </trkpt>
      <trkpt lat="48.97863" lon="5.46617">
        <ele>208.264</ele>
        <time>2019-09-22T12:07:10.001Z</time>
      </trkpt>
      <trkpt lat="48.97854" lon="5.46629">
        <ele>209.205</ele>
        <time>2019-09-22T12:07:13.001Z</time>
      </trkpt>
      <trkpt lat="48.97844" lon="5.46642">
        <ele>209.49</ele>
        <time>2019-09-22T12:07:16.000Z</time>
      </trkpt>
      <trkpt lat="48.97833" lon="5.46655">
        <ele>209.473</ele>
        <time>2019-09-22T12:07:19.001Z</time>
      </trkpt>
      <trkpt lat="48.97822" lon="5.46668">
        <ele>208.912</ele>
        <time>2019-09-22T12:07:22.001Z</time>
      </trkpt>
      <trkpt lat="48.97813" lon="5.46681">
        <ele>209.32</ele>
        <time>2019-09-22T12:07:25.001Z</time>
      </trkpt>
      <trkpt lat="48.97803" lon="5.46695">
        <ele>209.334</ele>
        <time>2019-09-22T12:07:28.001Z</time>
      </trkpt>
      <trkpt lat="48.97793" lon="5.46709">
        <ele>208.936</ele>
        <time>2019-09-22T12:07:31.001Z</time>
      </trkpt>
      <trkpt lat="48.97783" lon="5.46723">
        <ele>209.19</ele>
        <time>2019-09-22T12:07:34.001Z</time>
      </trkpt>
      <trkpt lat="48.97773" lon="5.46736">
        <ele>210.024</ele>
        <time>2019-09-22T12:07:37.001Z</time>
      </trkpt>
      <trkpt lat="48.97763" lon="5.46749">
        <ele>210.703</ele>
        <time>2019-09-22T12:07:40.001Z</time>
      </trkpt>
      <trkpt lat="48.97753" lon="5.46762">
        <ele>210.872</ele>
        <time>2019-09-22T12:07:43.001Z</time>
      </trkpt>
      <trkpt lat="48.97744" lon="5.46776">
        <ele>210.854</ele>
        <time>2019-09-22T12:07:46.001Z</time>
      </trkpt>
      <trkpt lat="48.97735" lon="5.46788">
        <ele>210.851</ele>
        <time>2019-09-22T12:07:49.001Z</time>
      </trkpt>
      <trkpt lat="48.97726" lon="5.46801">
        <ele>211.409</ele>
        <time>2019-09-22T12:07:52.001Z</time>
      </trkpt>
      <trkpt lat="48.97716" lon="5.46814">
        <ele>211.765</ele>
        <time>2019-09-22T12:07:55.001Z</time>
      </trkpt>
      <trkpt lat="48.97706" lon="5.46827">
        <ele>211.99</ele>
        <time>2019-09-22T12:07:58.001Z</time>
      </trkpt>
      <trkpt lat="48.97696" lon="5.4684">
        <ele>211.973</ele>
        <time>2019-09-22T12:08:01.001Z</time>
      </trkpt>
      <trkpt lat="48.97684" lon="5.46854">
        <ele>210.011</ele>
        <time>2019-09-22T12:08:04.001Z</time>
      </trkpt>
      <trkpt lat="48.97672" lon="5.46868">
        <ele>208.035</ele>
        <time>2019-09-22T12:08:07.001Z</time>
      </trkpt>
      <trkpt lat="48.97661" lon="5.46883">
        <ele>206.47</ele>
        <time>2019-09-22T12:08:10.001Z</time>
      </trkpt>
      <trkpt lat="48.97652" lon="5.46898">
        <ele>205.771</ele>
        <time>2019-09-22T12:08:13.001Z</time>
      </trkpt>
      <trkpt lat="48.97644" lon="5.46916">
        <ele>205.379</ele>
        <time>2019-09-22T12:08:16.000Z</time>
      </trkpt>
      <trkpt lat="48.97639" lon="5.46934">
        <ele>205.919</ele>
        <time>2019-09-22T12:08:19.001Z</time>
      </trkpt>
      <trkpt lat="48.97635" lon="5.46953">
        <ele>206.344</ele>
        <time>2019-09-22T12:08:22.001Z</time>
      </trkpt>
      <trkpt lat="48.97632" lon="5.46972">
        <ele>206.801</ele>
        <time>2019-09-22T12:08:25.001Z</time>
      </trkpt>
      <trkpt lat="48.97628" lon="5.46992">
        <ele>206.887</ele>
        <time>2019-09-22T12:08:28.001Z</time>
      </trkpt>
      <trkpt lat="48.97625" lon="5.47012">
        <ele>206.862</ele>
        <time>2019-09-22T12:08:31.001Z</time>
      </trkpt>
      <trkpt lat="48.97621" lon="5.47032">
        <ele>207.368</ele>
        <time>2019-09-22T12:08:34.001Z</time>
      </trkpt>
      <trkpt lat="48.97618" lon="5.47052">
        <ele>207.86</ele>
        <time>2019-09-22T12:08:37.001Z</time>
      </trkpt>
      <trkpt lat="48.97613" lon="5.47071">
        <ele>208.086</ele>
        <time>2019-09-22T12:08:40.001Z</time>
      </trkpt>
      <trkpt lat="48.97609" lon="5.4709">
        <ele>208.081</ele>
        <time>2019-09-22T12:08:43.001Z</time>
      </trkpt>
      <trkpt lat="48.97605" lon="5.47108">
        <ele>207.809</ele>
        <time>2019-09-22T12:08:46.001Z</time>
      </trkpt>
      <trkpt lat="48.97602" lon="5.47126">
        <ele>208.741</ele>
        <time>2019-09-22T12:08:49.001Z</time>
      </trkpt>
      <trkpt lat="48.97598" lon="5.47145">
        <ele>209.499</ele>
        <time>2019-09-22T12:08:52.001Z</time>
      </trkpt>
      <trkpt lat="48.97594" lon="5.47164">
        <ele>209.794</ele>
        <time>2019-09-22T12:08:55.001Z</time>
      </trkpt>
      <trkpt lat="48.9759" lon="5.47183">
        <ele>209.942</ele>
        <time>2019-09-22T12:08:58.001Z</time>
      </trkpt>
      <trkpt lat="48.97586" lon="5.47202">
        <ele>209.919</ele>
        <time>2019-09-22T12:09:01.001Z</time>
      </trkpt>
      <trkpt lat="48.97582" lon="5.47221">
        <ele>209.866</ele>
        <time>2019-09-22T12:09:04.001Z</time>
      </trkpt>
      <trkpt lat="48.97579" lon="5.47241">
        <ele>209.623</ele>
        <time>2019-09-22T12:09:07.001Z</time>
      </trkpt>
      <trkpt lat="48.97574" lon="5.47263">
        <ele>209.693</ele>
        <time>2019-09-22T12:09:10.001Z</time>
      </trkpt>
      <trkpt lat="48.9757" lon="5.47284">
        <ele>209.758</ele>
        <time>2019-09-22T12:09:13.001Z</time>
      </trkpt>
      <trkpt lat="48.97566" lon="5.47305">
        <ele>209.601</ele>
        <time>2019-09-22T12:09:16.000Z</time>
      </trkpt>
      <trkpt lat="48.97562" lon="5.47327">
        <ele>209.555</ele>
        <time>2019-09-22T12:09:19.001Z</time>
      </trkpt>
      <trkpt lat="48.97558" lon="5.47348">
        <ele>208.986</ele>
        <time>2019-09-22T12:09:22.001Z</time>
      </trkpt>
      <trkpt lat="48.97554" lon="5.47368">
        <ele>208.17</ele>
        <time>2019-09-22T12:09:25.001Z</time>
      </trkpt>
      <trkpt lat="48.9755" lon="5.47387">
        <ele>207.842</ele>
        <time>2019-09-22T12:09:28.001Z</time>
      </trkpt>
      <trkpt lat="48.97546" lon="5.47406">
        <ele>207.683</ele>
        <time>2019-09-22T12:09:31.001Z</time>
      </trkpt>
      <trkpt lat="48.97542" lon="5.47428">
        <ele>207.305</ele>
        <time>2019-09-22T12:09:34.001Z</time>
      </trkpt>
      <trkpt lat="48.97538" lon="5.47449">
        <ele>206.944</ele>
        <time>2019-09-22T12:09:37.001Z</time>
      </trkpt>
      <trkpt lat="48.97534" lon="5.47471">
        <ele>207.289</ele>
        <time>2019-09-22T12:09:40.001Z</time>
      </trkpt>
      <trkpt lat="48.9753" lon="5.47493">
        <ele>207.759</ele>
        <time>2019-09-22T12:09:43.001Z</time>
      </trkpt>
      <trkpt lat="48.97525" lon="5.47516">
        <ele>208.271</ele>
        <time>2019-09-22T12:09:46.001Z</time>
      </trkpt>
      <trkpt lat="48.97521" lon="5.47538">
        <ele>208.55</ele>
        <time>2019-09-22T12:09:49.001Z</time>
      </trkpt>
      <trkpt lat="48.97516" lon="5.47559">
        <ele>208.489</ele>
        <time>2019-09-22T12:09:52.001Z</time>
      </trkpt>
      <trkpt lat="48.97512" lon="5.4758">
        <ele>208.388</ele>
        <time>2019-09-22T12:09:55.001Z</time>
      </trkpt>
      <trkpt lat="48.97508" lon="5.476">
        <ele>208.284</ele>
        <time>2019-09-22T12:09:58.001Z</time>
      </trkpt>
      <trkpt lat="48.97505" lon="5.47622">
        <ele>207.904</ele>
        <time>2019-09-22T12:10:01.001Z</time>
      </trkpt>
      <trkpt lat="48.97501" lon="5.47643">
        <ele>208.119</ele>
        <time>2019-09-22T12:10:04.001Z</time>
      </trkpt>
      <trkpt lat="48.97497" lon="5.47664">
        <ele>208.105</ele>
        <time>2019-09-22T12:10:07.001Z</time>
      </trkpt>
      <trkpt lat="48.97493" lon="5.47683">
        <ele>208.151</ele>
        <time>2019-09-22T12:10:10.001Z</time>
      </trkpt>
      <trkpt lat="48.97489" lon="5.47702">
        <ele>208.262</ele>
        <time>2019-09-22T12:10:13.001Z</time>
      </trkpt>
      <trkpt lat="48.97485" lon="5.47721">
        <ele>208.849</ele>
        <time>2019-09-22T12:10:16.000Z</time>
      </trkpt>
      <trkpt lat="48.97481" lon="5.4774">
        <ele>209.369</ele>
        <time>2019-09-22T12:10:19.001Z</time>
      </trkpt>
      <trkpt lat="48.97477" lon="5.47759">
        <ele>209.144</ele>
        <time>2019-09-22T12:10:22.001Z</time>
      </trkpt>
      <trkpt lat="48.97473" lon="5.47779">
        <ele>208.972</ele>
        <time>2019-09-22T12:10:25.001Z</time>
      </trkpt>
      <trkpt lat="48.97469" lon="5.478">
        <ele>208.647</ele>
        <time>2019-09-22T12:10:28.001Z</time>
      </trkpt>
      <trkpt lat="48.97465" lon="5.47821">
        <ele>208.902</ele>
        <time>2019-09-22T12:10:31.001Z</time>
      </trkpt>
      <trkpt lat="48.97462" lon="5.47842">
        <ele>208.67</ele>
        <time>2019-09-22T12:10:34.001Z</time>
      </trkpt>
      <trkpt lat="48.97458" lon="5.47864">
        <ele>208.786</ele>
        <time>2019-09-22T12:10:37.001Z</time>
      </trkpt>
      <trkpt lat="48.97454" lon="5.47885">
        <ele>208.808</ele>
        <time>2019-09-22T12:10:40.001Z</time>
      </trkpt>
      <trkpt lat="48.9745" lon="5.47907">
        <ele>208.613</ele>
        <time>2019-09-22T12:10:43.001Z</time>
      </trkpt>
      <trkpt lat="48.97446" lon="5.47927">
        <ele>208.824</ele>
        <time>2019-09-22T12:10:46.001Z</time>
      </trkpt>
      <trkpt lat="48.97442" lon="5.47947">
        <ele>209.23</ele>
        <time>2019-09-22T12:10:49.001Z</time>
      </trkpt>
      <trkpt lat="48.97438" lon="5.47968">
        <ele>209.536</ele>
        <time>2019-09-22T12:10:52.001Z</time>
      </trkpt>
      <trkpt lat="48.97435" lon="5.47987">
        <ele>209.627</ele>
        <time>2019-09-22T12:10:55.001Z</time>
      </trkpt>
      <trkpt lat="48.9743" lon="5.4801">
        <ele>209.348</ele>
        <time>2019-09-22T12:10:58.001Z</time>
      </trkpt>
      <trkpt lat="48.97425" lon="5.48032">
        <ele>209.665</ele>
        <time>2019-09-22T12:11:01.001Z</time>
      </trkpt>
      <trkpt lat="48.9742" lon="5.48056">
        <ele>209.591</ele>
        <time>2019-09-22T12:11:04.001Z</time>
      </trkpt>
      <trkpt lat="48.97415" lon="5.48079">
        <ele>209.398</ele>
        <time>2019-09-22T12:11:07.001Z</time>
      </trkpt>
      <trkpt lat="48.97412" lon="5.48101">
        <ele>209.764</ele>
        <time>2019-09-22T12:11:10.001Z</time>
      </trkpt>
      <trkpt lat="48.97408" lon="5.48122">
        <ele>210.465</ele>
        <time>2019-09-22T12:11:13.001Z</time>
      </trkpt>
      <trkpt lat="48.97405" lon="5.48143">
        <ele>211.111</ele>
        <time>2019-09-22T12:11:16.000Z</time>
      </trkpt>
      <trkpt lat="48.97401" lon="5.48161">
        <ele>212.168</ele>
        <time>2019-09-22T12:11:19.001Z</time>
      </trkpt>
      <trkpt lat="48.97399" lon="5.48178">
        <ele>212.981</ele>
        <time>2019-09-22T12:11:22.001Z</time>
      </trkpt>
      <trkpt lat="48.97396" lon="5.48197">
        <ele>213.542</ele>
        <time>2019-09-22T12:11:25.001Z</time>
      </trkpt>
      <trkpt lat="48.97394" lon="5.48218">
        <ele>213.801</ele>
        <time>2019-09-22T12:11:28.001Z</time>
      </trkpt>
      <trkpt lat="48.9739" lon="5.48239">
        <ele>214.576</ele>
        <time>2019-09-22T12:11:31.001Z</time>
      </trkpt>
      <trkpt lat="48.97387" lon="5.48259">
        <ele>214.686</ele>
        <time>2019-09-22T12:11:34.001Z</time>
      </trkpt>
      <trkpt lat="48.97382" lon="5.48283">
        <ele>213.875</ele>
        <time>2019-09-22T12:11:37.001Z</time>
      </trkpt>
      <trkpt lat="48.97376" lon="5.48304">
        <ele>212.856</ele>
        <time>2019-09-22T12:11:40.001Z</time>
      </trkpt>
      <trkpt lat="48.97372" lon="5.48325">
        <ele>211.939</ele>
        <time>2019-09-22T12:11:43.001Z</time>
      </trkpt>
      <trkpt lat="48.97368" lon="5.48347">
        <ele>211.625</ele>
        <time>2019-09-22T12:11:46.001Z</time>
      </trkpt>
      <trkpt lat="48.97365" lon="5.48369">
        <ele>211.284</ele>
        <time>2019-09-22T12:11:49.001Z</time>
      </trkpt>
      <trkpt lat="48.97362" lon="5.4839">
        <ele>211.319</ele>
        <time>2019-09-22T12:11:52.001Z</time>
      </trkpt>
      <trkpt lat="48.97358" lon="5.4841">
        <ele>211.252</ele>
        <time>2019-09-22T12:11:55.001Z</time>
      </trkpt>
      <trkpt lat="48.97355" lon="5.4843">
        <ele>210.95</ele>
        <time>2019-09-22T12:11:58.001Z</time>
      </trkpt>
      <trkpt lat="48.97353" lon="5.48449">
        <ele>211.124</ele>
        <time>2019-09-22T12:12:01.001Z</time>
      </trkpt>
      <trkpt lat="48.97352" lon="5.48468">
        <ele>211.157</ele>
        <time>2019-09-22T12:12:04.001Z</time>
      </trkpt>
      <trkpt lat="48.97349" lon="5.48486">
        <ele>212.062</ele>
        <time>2019-09-22T12:12:07.001Z</time>
      </trkpt>
      <trkpt lat="48.97346" lon="5.48507">
        <ele>213.132</ele>
        <time>2019-09-22T12:12:10.001Z</time>
      </trkpt>
      <trkpt lat="48.97343" lon="5.48531">
        <ele>213.536</ele>
        <time>2019-09-22T12:12:13.001Z</time>
      </trkpt>
      <trkpt lat="48.97339" lon="5.48554">
        <ele>213.837</ele>
        <time>2019-09-22T12:12:16.000Z</time>
      </trkpt>
      <trkpt lat="48.97336" lon="5.48574">
        <ele>213.719</ele>
        <time>2019-09-22T12:12:19.001Z</time>
      </trkpt>
      <trkpt lat="48.97334" lon="5.48593">
        <ele>213.961</ele>
        <time>2019-09-22T12:12:22.001Z</time>
      </trkpt>
      <trkpt lat="48.97333" lon="5.48612">
        <ele>214.232</ele>
        <time>2019-09-22T12:12:25.001Z</time>
      </trkpt>
      <trkpt lat="48.9733" lon="5.48632">
        <ele>214.35</ele>
        <time>2019-09-22T12:12:28.001Z</time>
      </trkpt>
      <trkpt lat="48.97327" lon="5.48653">
        <ele>214.433</ele>
        <time>2019-09-22T12:12:31.001Z</time>
      </trkpt>
      <trkpt lat="48.97325" lon="5.48674">
        <ele>215.354</ele>
        <time>2019-09-22T12:12:34.001Z</time>
      </trkpt>
      <trkpt lat="48.97322" lon="5.48695">
        <ele>215.986</ele>
        <time>2019-09-22T12:12:37.001Z</time>
      </trkpt>
      <trkpt lat="48.97318" lon="5.48715">
        <ele>216.094</ele>
        <time>2019-09-22T12:12:40.001Z</time>
      </trkpt>
      <trkpt lat="48.97314" lon="5.48735">
        <ele>215.632</ele>
        <time>2019-09-22T12:12:43.001Z</time>
      </trkpt>
      <trkpt lat="48.9731" lon="5.48755">
        <ele>214.734</ele>
        <time>2019-09-22T12:12:46.001Z</time>
      </trkpt>
      <trkpt lat="48.97307" lon="5.48777">
        <ele>214.555</ele>
        <time>2019-09-22T12:12:49.001Z</time>
      </trkpt>
      <trkpt lat="48.97304" lon="5.48797">
        <ele>214.298</ele>
        <time>2019-09-22T12:12:52.001Z</time>
      </trkpt>
      <trkpt lat="48.973" lon="5.48817">
        <ele>213.789</ele>
        <time>2019-09-22T12:12:55.001Z</time>
      </trkpt>
      <trkpt lat="48.97298" lon="5.48835">
        <ele>213.574</ele>
        <time>2019-09-22T12:12:58.001Z</time>
      </trkpt>
      <trkpt lat="48.97296" lon="5.48851">
        <ele>213.799</ele>
        <time>2019-09-22T12:13:01.001Z</time>
      </trkpt>
      <trkpt lat="48.97294" lon="5.48869">
        <ele>213.814</ele>
        <time>2019-09-22T12:13:04.001Z</time>
      </trkpt>
      <trkpt lat="48.97292" lon="5.48887">
        <ele>214.41</ele>
        <time>2019-09-22T12:13:07.001Z</time>
      </trkpt>
      <trkpt lat="48.97291" lon="5.48904">
        <ele>215.296</ele>
        <time>2019-09-22T12:13:10.001Z</time>
      </trkpt>
      <trkpt lat="48.97289" lon="5.48923">
        <ele>216.293</ele>
        <time>2019-09-22T12:13:13.001Z</time>
      </trkpt>
      <trkpt lat="48.97287" lon="5.48941">
        <ele>217.11</ele>
        <time>2019-09-22T12:13:16.000Z</time>
      </trkpt>
      <trkpt lat="48.97284" lon="5.48954">
        <ele>217.43</ele>
        <time>2019-09-22T12:13:19.001Z</time>
      </trkpt>
      <trkpt lat="48.97281" lon="5.4897">
        <ele>217.687</ele>
        <time>2019-09-22T12:13:22.001Z</time>
      </trkpt>
      <trkpt lat="48.97277" lon="5.48989">
        <ele>217.004</ele>
        <time>2019-09-22T12:13:25.001Z</time>
      </trkpt>
      <trkpt lat="48.97272" lon="5.49013">
        <ele>216.051</ele>
        <time>2019-09-22T12:13:28.001Z</time>
      </trkpt>
      <trkpt lat="48.97267" lon="5.49035">
        <ele>215.725</ele>
        <time>2019-09-22T12:13:31.001Z</time>
      </trkpt>
      <trkpt lat="48.97262" lon="5.49054">
        <ele>215.44</ele>
        <time>2019-09-22T12:13:34.001Z</time>
      </trkpt>
      <trkpt lat="48.97257" lon="5.49074">
        <ele>215.124</ele>
        <time>2019-09-22T12:13:37.001Z</time>
      </trkpt>
      <trkpt lat="48.97251" lon="5.49093">
        <ele>214.671</ele>
        <time>2019-09-22T12:13:40.001Z</time>
      </trkpt>
      <trkpt lat="48.97246" lon="5.4911">
        <ele>214.222</ele>
        <time>2019-09-22T12:13:43.001Z</time>
      </trkpt>
      <trkpt lat="48.97241" lon="5.49127">
        <ele>214.733</ele>
        <time>2019-09-22T12:13:46.001Z</time>
      </trkpt>
      <trkpt lat="48.97237" lon="5.49146">
        <ele>214.838</ele>
        <time>2019-09-22T12:13:49.001Z</time>
      </trkpt>
      <trkpt lat="48.97233" lon="5.49165">
        <ele>214.472</ele>
        <time>2019-09-22T12:13:52.001Z</time>
      </trkpt>
      <trkpt lat="48.97227" lon="5.49183">
        <ele>214.325</ele>
        <time>2019-09-22T12:13:55.001Z</time>
      </trkpt>
      <trkpt lat="48.97221" lon="5.49201">
        <ele>213.723</ele>
        <time>2019-09-22T12:13:58.001Z</time>
      </trkpt>
      <trkpt lat="48.97215" lon="5.49219">
        <ele>212.538</ele>
        <time>2019-09-22T12:14:01.001Z</time>
      </trkpt>
      <trkpt lat="48.97208" lon="5.49237">
        <ele>210.807</ele>
        <time>2019-09-22T12:14:04.001Z</time>
      </trkpt>
      <trkpt lat="48.97201" lon="5.49256">
        <ele>209.904</ele>
        <time>2019-09-22T12:14:07.001Z</time>
      </trkpt>
      <trkpt lat="48.97194" lon="5.49275">
        <ele>209.683</ele>
        <time>2019-09-22T12:14:10.001Z</time>
      </trkpt>
      <trkpt lat="48.97187" lon="5.49293">
        <ele>209.685</ele>
        <time>2019-09-22T12:14:13.001Z</time>
      </trkpt>
      <trkpt lat="48.9718" lon="5.49311">
        <ele>209.879</ele>
        <time>2019-09-22T12:14:16.000Z</time>
      </trkpt>
      <trkpt lat="48.97173" lon="5.49329">
        <ele>209.505</ele>
        <time>2019-09-22T12:14:19.001Z</time>
      </trkpt>
      <trkpt lat="48.97166" lon="5.49347">
        <ele>209.053</ele>
        <time>2019-09-22T12:14:22.001Z</time>
      </trkpt>
      <trkpt lat="48.97159" lon="5.49366">
        <ele>209.248</ele>
        <time>2019-09-22T12:14:25.001Z</time>
      </trkpt>
      <trkpt lat="48.97152" lon="5.49386">
        <ele>209.259</ele>
        <time>2019-09-22T12:14:28.001Z</time>
      </trkpt>
      <trkpt lat="48.97144" lon="5.49407">
        <ele>208.995</ele>
        <time>2019-09-22T12:14:31.001Z</time>
      </trkpt>
      <trkpt lat="48.97135" lon="5.49429">
        <ele>208.907</ele>
        <time>2019-09-22T12:14:34.001Z</time>
      </trkpt>
      <trkpt lat="48.97127" lon="5.49451">
        <ele>209.181</ele>
        <time>2019-09-22T12:14:37.001Z</time>
      </trkpt>
      <trkpt lat="48.97119" lon="5.49473">
        <ele>209.285</ele>
        <time>2019-09-22T12:14:40.001Z</time>
      </trkpt>
      <trkpt lat="48.97112" lon="5.49494">
        <ele>209.585</ele>
        <time>2019-09-22T12:14:43.001Z</time>
      </trkpt>
      <trkpt lat="48.97105" lon="5.49513">
        <ele>209.811</ele>
        <time>2019-09-22T12:14:46.001Z</time>
      </trkpt>
      <trkpt lat="48.97099" lon="5.4953">
        <ele>210.045</ele>
        <time>2019-09-22T12:14:49.001Z</time>
      </trkpt>
      <trkpt lat="48.97093" lon="5.49546">
        <ele>210.496</ele>
        <time>2019-09-22T12:14:52.001Z</time>
      </trkpt>
      <trkpt lat="48.97086" lon="5.49563">
        <ele>210.71</ele>
        <time>2019-09-22T12:14:55.001Z</time>
      </trkpt>
      <trkpt lat="48.97079" lon="5.49581">
        <ele>210.773</ele>
        <time>2019-09-22T12:14:58.001Z</time>
      </trkpt>
      <trkpt lat="48.97072" lon="5.49599">
        <ele>211.181</ele>
        <time>2019-09-22T12:15:01.001Z</time>
      </trkpt>
      <trkpt lat="48.97066" lon="5.49616">
        <ele>211.188</ele>
        <time>2019-09-22T12:15:04.001Z</time>
      </trkpt>
      <trkpt lat="48.97059" lon="5.49632">
        <ele>211.472</ele>
        <time>2019-09-22T12:15:07.001Z</time>
      </trkpt>
      <trkpt lat="48.97052" lon="5.49649">
        <ele>211.587</ele>
        <time>2019-09-22T12:15:10.001Z</time>
      </trkpt>
      <trkpt lat="48.97046" lon="5.49666">
        <ele>211.278</ele>
        <time>2019-09-22T12:15:13.001Z</time>
      </trkpt>
      <trkpt lat="48.97041" lon="5.49682">
        <ele>211.674</ele>
        <time>2019-09-22T12:15:16.000Z</time>
      </trkpt>
      <trkpt lat="48.97034" lon="5.49698">
        <ele>212.04</ele>
        <time>2019-09-22T12:15:19.001Z</time>
      </trkpt>
      <trkpt lat="48.97027" lon="5.49714">
        <ele>212.007</ele>
        <time>2019-09-22T12:15:22.001Z</time>
      </trkpt>
      <trkpt lat="48.97021" lon="5.49731">
        <ele>212.381</ele>
        <time>2019-09-22T12:15:25.001Z</time>
      </trkpt>
      <trkpt lat="48.97015" lon="5.49748">
        <ele>212.671</ele>
        <time>2019-09-22T12:15:28.001Z</time>
      </trkpt>
      <trkpt lat="48.97009" lon="5.49765">
        <ele>212.652</ele>
        <time>2019-09-22T12:15:31.001Z</time>
      </trkpt>
      <trkpt lat="48.97003" lon="5.49782">
        <ele>212.736</ele>
        <time>2019-09-22T12:15:34.001Z</time>
      </trkpt>
      <trkpt lat="48.96996" lon="5.49799">
        <ele>212.893</ele>
        <time>2019-09-22T12:15:37.001Z</time>
      </trkpt>
      <trkpt lat="48.96989" lon="5.49816">
        <ele>213.117</ele>
        <time>2019-09-22T12:15:40.001Z</time>
      </trkpt>
      <trkpt lat="48.96983" lon="5.49833">
        <ele>212.967</ele>
        <time>2019-09-22T12:15:43.001Z</time>
      </trkpt>
      <trkpt lat="48.96977" lon="5.4985">
        <ele>212.995</ele>
        <time>2019-09-22T12:15:46.001Z</time>
      </trkpt>
      <trkpt lat="48.9697" lon="5.49868">
        <ele>212.799</ele>
        <time>2019-09-22T12:15:49.001Z</time>
      </trkpt>
      <trkpt lat="48.96962" lon="5.49885">
        <ele>212.71</ele>
        <time>2019-09-22T12:15:52.001Z</time>
      </trkpt>
      <trkpt lat="48.96954" lon="5.49903">
        <ele>212.846</ele>
        <time>2019-09-22T12:15:55.001Z</time>
      </trkpt>
      <trkpt lat="48.96946" lon="5.49919">
        <ele>212.643</ele>
        <time>2019-09-22T12:15:58.001Z</time>
      </trkpt>
      <trkpt lat="48.96937" lon="5.49932">
        <ele>212.786</ele>
        <time>2019-09-22T12:16:01.001Z</time>
      </trkpt>
      <trkpt lat="48.9693" lon="5.49943">
        <ele>213.248</ele>
        <time>2019-09-22T12:16:04.001Z</time>
      </trkpt>
      <trkpt lat="48.96922" lon="5.49954">
        <ele>214.245</ele>
        <time>2019-09-22T12:16:07.001Z</time>
      </trkpt>
      <trkpt lat="48.96912" lon="5.49968">
        <ele>214.941</ele>
        <time>2019-09-22T12:16:10.001Z</time>
      </trkpt>
      <trkpt lat="48.969" lon="5.49982">
        <ele>214.592</ele>
        <time>2019-09-22T12:16:13.001Z</time>
      </trkpt>
      <trkpt lat="48.96887" lon="5.49996">
        <ele>213.631</ele>
        <time>2019-09-22T12:16:16.000Z</time>
      </trkpt>
      <trkpt lat="48.96875" lon="5.50008">
        <ele>213.352</ele>
        <time>2019-09-22T12:16:19.001Z</time>
      </trkpt>
      <trkpt lat="48.96862" lon="5.50019">
        <ele>213.29</ele>
        <time>2019-09-22T12:16:22.001Z</time>
      </trkpt>
      <trkpt lat="48.9685" lon="5.50028">
        <ele>213.393</ele>
        <time>2019-09-22T12:16:25.001Z</time>
      </trkpt>
      <trkpt lat="48.96839" lon="5.50036">
        <ele>213.464</ele>
        <time>2019-09-22T12:16:28.001Z</time>
      </trkpt>
      <trkpt lat="48.96828" lon="5.50044">
        <ele>213.482</ele>
        <time>2019-09-22T12:16:31.001Z</time>
      </trkpt>
      <trkpt lat="48.96816" lon="5.50051">
        <ele>213.106</ele>
        <time>2019-09-22T12:16:34.001Z</time>
      </trkpt>
      <trkpt lat="48.96806" lon="5.50057">
        <ele>212.65</ele>
        <time>2019-09-22T12:16:37.001Z</time>
      </trkpt>
      <trkpt lat="48.96795" lon="5.50062">
        <ele>212.33</ele>
        <time>2019-09-22T12:16:40.001Z</time>
      </trkpt>
      <trkpt lat="48.96784" lon="5.50067">
        <ele>211.913</ele>
        <time>2019-09-22T12:16:43.001Z</time>
      </trkpt>
      <trkpt lat="48.96773" lon="5.50071">
        <ele>212.02</ele>
        <time>2019-09-22T12:16:46.001Z</time>
      </trkpt>
      <trkpt lat="48.96762" lon="5.50075">
        <ele>211.887</ele>
        <time>2019-09-22T12:16:49.001Z</time>
      </trkpt>
      <trkpt lat="48.96751" lon="5.5008">
        <ele>211.645</ele>
        <time>2019-09-22T12:16:52.001Z</time>
      </trkpt>
      <trkpt lat="48.96739" lon="5.50085">
        <ele>211.71</ele>
        <time>2019-09-22T12:16:55.001Z</time>
      </trkpt>
      <trkpt lat="48.96727" lon="5.50089">
        <ele>211.721</ele>
        <time>2019-09-22T12:16:58.001Z</time>
      </trkpt>
      <trkpt lat="48.96714" lon="5.50094">
        <ele>211.775</ele>
        <time>2019-09-22T12:17:01.001Z</time>
      </trkpt>
      <trkpt lat="48.967" lon="5.501">
        <ele>211.647</ele>
        <time>2019-09-22T12:17:04.001Z</time>
      </trkpt>
      <trkpt lat="48.96686" lon="5.50106">
        <ele>211.756</ele>
        <time>2019-09-22T12:17:07.001Z</time>
      </trkpt>
      <trkpt lat="48.96672" lon="5.50111">
        <ele>211.696</ele>
        <time>2019-09-22T12:17:10.001Z</time>
      </trkpt>
      <trkpt lat="48.96657" lon="5.50117">
        <ele>211.438</ele>
        <time>2019-09-22T12:17:13.001Z</time>
      </trkpt>
      <trkpt lat="48.96643" lon="5.50123">
        <ele>211.366</ele>
        <time>2019-09-22T12:17:16.000Z</time>
      </trkpt>
      <trkpt lat="48.96629" lon="5.50129">
        <ele>211.737</ele>
        <time>2019-09-22T12:17:19.001Z</time>
      </trkpt>
      <trkpt lat="48.96613" lon="5.50135">
        <ele>211.606</ele>
        <time>2019-09-22T12:17:22.001Z</time>
      </trkpt>
      <trkpt lat="48.96598" lon="5.5014">
        <ele>211.194</ele>
        <time>2019-09-22T12:17:25.001Z</time>
      </trkpt>
      <trkpt lat="48.96584" lon="5.50145">
        <ele>211.216</ele>
        <time>2019-09-22T12:17:28.001Z</time>
      </trkpt>
      <trkpt lat="48.9657" lon="5.50149">
        <ele>211.319</ele>
        <time>2019-09-22T12:17:31.001Z</time>
      </trkpt>
      <trkpt lat="48.96556" lon="5.50152">
        <ele>211.442</ele>
        <time>2019-09-22T12:17:34.001Z</time>
      </trkpt>
      <trkpt lat="48.96543" lon="5.50154">
        <ele>211.796</ele>
        <time>2019-09-22T12:17:37.001Z</time>
      </trkpt>
      <trkpt lat="48.96531" lon="5.50155">
        <ele>211.879</ele>
        <time>2019-09-22T12:17:40.001Z</time>
      </trkpt>
      <trkpt lat="48.96518" lon="5.50156">
        <ele>212.274</ele>
        <time>2019-09-22T12:17:43.001Z</time>
      </trkpt>
      <trkpt lat="48.96506" lon="5.50155">
        <ele>212.666</ele>
        <time>2019-09-22T12:17:46.001Z</time>
      </trkpt>
      <trkpt lat="48.96493" lon="5.50154">
        <ele>212.915</ele>
        <time>2019-09-22T12:17:49.001Z</time>
      </trkpt>
      <trkpt lat="48.96481" lon="5.50153">
        <ele>212.946</ele>
        <time>2019-09-22T12:17:52.001Z</time>
      </trkpt>
      <trkpt lat="48.96467" lon="5.50151">
        <ele>213.148</ele>
        <time>2019-09-22T12:17:55.001Z</time>
      </trkpt>
      <trkpt lat="48.96457" lon="5.50149">
        <ele>213.791</ele>
        <time>2019-09-22T12:17:58.001Z</time>
      </trkpt>
      <trkpt lat="48.96447" lon="5.50142">
        <ele>214.049</ele>
        <time>2019-09-22T12:18:01.001Z</time>
      </trkpt>
      <trkpt lat="48.96435" lon="5.50141">
        <ele>214.904</ele>
        <time>2019-09-22T12:18:04.001Z</time>
      </trkpt>
      <trkpt lat="48.96424" lon="5.50137">
        <ele>214.498</ele>
        <time>2019-09-22T12:18:07.001Z</time>
      </trkpt>
      <trkpt lat="48.96414" lon="5.50135">
        <ele>213.199</ele>
        <time>2019-09-22T12:18:10.001Z</time>
      </trkpt>
      <trkpt lat="48.96404" lon="5.5013">
        <ele>212.78</ele>
        <time>2019-09-22T12:18:13.001Z</time>
      </trkpt>
      <trkpt lat="48.96394" lon="5.50126">
        <ele>213.61</ele>
        <time>2019-09-22T12:18:16.000Z</time>
      </trkpt>
      <trkpt lat="48.96385" lon="5.50122">
        <ele>213.256</ele>
        <time>2019-09-22T12:18:19.001Z</time>
      </trkpt>
      <trkpt lat="48.96376" lon="5.50116">
        <ele>213.278</ele>
        <time>2019-09-22T12:18:22.001Z</time>
      </trkpt>
      <trkpt lat="48.96366" lon="5.50111">
        <ele>213.222</ele>
        <time>2019-09-22T12:18:25.001Z</time>
      </trkpt>
      <trkpt lat="48.96357" lon="5.50105">
        <ele>213.248</ele>
        <time>2019-09-22T12:18:28.001Z</time>
      </trkpt>
      <trkpt lat="48.96349" lon="5.50099">
        <ele>213.605</ele>
        <time>2019-09-22T12:18:31.001Z</time>
      </trkpt>
      <trkpt lat="48.96341" lon="5.50091">
        <ele>213.818</ele>
        <time>2019-09-22T12:18:34.001Z</time>
      </trkpt>
      <trkpt lat="48.96333" lon="5.50083">
        <ele>213.742</ele>
        <time>2019-09-22T12:18:37.001Z</time>
      </trkpt>
      <trkpt lat="48.96324" lon="5.50075">
        <ele>214.22</ele>
        <time>2019-09-22T12:18:40.001Z</time>
      </trkpt>
      <trkpt lat="48.96316" lon="5.50068">
        <ele>214.281</ele>
        <time>2019-09-22T12:18:43.001Z</time>
      </trkpt>
      <trkpt lat="48.96308" lon="5.50062">
        <ele>214.524</ele>
        <time>2019-09-22T12:18:46.001Z</time>
      </trkpt>
      <trkpt lat="48.963" lon="5.50055">
        <ele>214.98</ele>
        <time>2019-09-22T12:18:49.001Z</time>
      </trkpt>
      <trkpt lat="48.96292" lon="5.50048">
        <ele>215.318</ele>
        <time>2019-09-22T12:18:52.001Z</time>
      </trkpt>
      <trkpt lat="48.96284" lon="5.50041">
        <ele>215.488</ele>
        <time>2019-09-22T12:18:55.001Z</time>
      </trkpt>
      <trkpt lat="48.96276" lon="5.50035">
        <ele>215.879</ele>
        <time>2019-09-22T12:18:58.001Z</time>
      </trkpt>
      <trkpt lat="48.96268" lon="5.50027">
        <ele>216.17</ele>
        <time>2019-09-22T12:19:01.001Z</time>
      </trkpt>
      <trkpt lat="48.9626" lon="5.50021">
        <ele>216.711</ele>
        <time>2019-09-22T12:19:04.001Z</time>
      </trkpt>
      <trkpt lat="48.96252" lon="5.50015">
        <ele>216.493</ele>
        <time>2019-09-22T12:19:07.001Z</time>
      </trkpt>
      <trkpt lat="48.96243" lon="5.50008">
        <ele>216.596</ele>
        <time>2019-09-22T12:19:10.001Z</time>
      </trkpt>
      <trkpt lat="48.96235" lon="5.50003">
        <ele>216.75</ele>
        <time>2019-09-22T12:19:13.001Z</time>
      </trkpt>
      <trkpt lat="48.96227" lon="5.49997">
        <ele>217.153</ele>
        <time>2019-09-22T12:19:16.000Z</time>
      </trkpt>
      <trkpt lat="48.96217" lon="5.4999">
        <ele>217.592</ele>
        <time>2019-09-22T12:19:19.001Z</time>
      </trkpt>
      <trkpt lat="48.96209" lon="5.49984">
        <ele>217.833</ele>
        <time>2019-09-22T12:19:22.001Z</time>
      </trkpt>
      <trkpt lat="48.962" lon="5.49978">
        <ele>217.963</ele>
        <time>2019-09-22T12:19:25.001Z</time>
      </trkpt>
      <trkpt lat="48.9619" lon="5.49973">
        <ele>218.078</ele>
        <time>2019-09-22T12:19:28.001Z</time>
      </trkpt>
      <trkpt lat="48.96181" lon="5.49967">
        <ele>218.04</ele>
        <time>2019-09-22T12:19:31.001Z</time>
      </trkpt>
      <trkpt lat="48.96172" lon="5.4996">
        <ele>217.937</ele>
        <time>2019-09-22T12:19:34.001Z</time>
      </trkpt>
      <trkpt lat="48.96161" lon="5.49954">
        <ele>217.928</ele>
        <time>2019-09-22T12:19:37.001Z</time>
      </trkpt>
      <trkpt lat="48.96151" lon="5.49947">
        <ele>217.867</ele>
        <time>2019-09-22T12:19:40.001Z</time>
      </trkpt>
      <trkpt lat="48.96141" lon="5.49941">
        <ele>217.812</ele>
        <time>2019-09-22T12:19:43.001Z</time>
      </trkpt>
      <trkpt lat="48.9613" lon="5.49934">
        <ele>217.527</ele>
        <time>2019-09-22T12:19:46.001Z</time>
      </trkpt>
      <trkpt lat="48.96118" lon="5.49928">
        <ele>217.51</ele>
        <time>2019-09-22T12:19:49.001Z</time>
      </trkpt>
      <trkpt lat="48.96105" lon="5.49921">
        <ele>217.71</ele>
        <time>2019-09-22T12:19:52.001Z</time>
      </trkpt>
      <trkpt lat="48.9609" lon="5.49911">
        <ele>217.724</ele>
        <time>2019-09-22T12:19:55.001Z</time>
      </trkpt>
      <trkpt lat="48.96074" lon="5.499">
        <ele>217.615</ele>
        <time>2019-09-22T12:19:58.001Z</time>
      </trkpt>
      <trkpt lat="48.96058" lon="5.4989">
        <ele>217.23</ele>
        <time>2019-09-22T12:20:01.001Z</time>
      </trkpt>
      <trkpt lat="48.96042" lon="5.4988">
        <ele>216.596</ele>
        <time>2019-09-22T12:20:04.001Z</time>
      </trkpt>
      <trkpt lat="48.96026" lon="5.49869">
        <ele>216.457</ele>
        <time>2019-09-22T12:20:07.001Z</time>
      </trkpt>
      <trkpt lat="48.96011" lon="5.4986">
        <ele>216.334</ele>
        <time>2019-09-22T12:20:10.001Z</time>
      </trkpt>
      <trkpt lat="48.95997" lon="5.49852">
        <ele>216.165</ele>
        <time>2019-09-22T12:20:13.001Z</time>
      </trkpt>
      <trkpt lat="48.95985" lon="5.49844">
        <ele>216.211</ele>
        <time>2019-09-22T12:20:16.000Z</time>
      </trkpt>
      <trkpt lat="48.95973" lon="5.49837">
        <ele>215.782</ele>
        <time>2019-09-22T12:20:19.001Z</time>
      </trkpt>
      <trkpt lat="48.95961" lon="5.4983">
        <ele>215.538</ele>
        <time>2019-09-22T12:20:22.001Z</time>
      </trkpt>
      <trkpt lat="48.95949" lon="5.49826">
        <ele>215.772</ele>
        <time>2019-09-22T12:20:25.001Z</time>
      </trkpt>
      <trkpt lat="48.95936" lon="5.49823">
        <ele>215.733</ele>
        <time>2019-09-22T12:20:28.001Z</time>
      </trkpt>
      <trkpt lat="48.95923" lon="5.49819">
        <ele>215.096</ele>
        <time>2019-09-22T12:20:31.001Z</time>
      </trkpt>
      <trkpt lat="48.9591" lon="5.49816">
        <ele>215.204</ele>
        <time>2019-09-22T12:20:34.001Z</time>
      </trkpt>
      <trkpt lat="48.95896" lon="5.49815">
        <ele>215.06</ele>
        <time>2019-09-22T12:20:37.001Z</time>
      </trkpt>
      <trkpt lat="48.95882" lon="5.49813">
        <ele>214.859</ele>
        <time>2019-09-22T12:20:40.001Z</time>
      </trkpt>
      <trkpt lat="48.95869" lon="5.49812">
        <ele>214.623</ele>
        <time>2019-09-22T12:20:43.001Z</time>
      </trkpt>
      <trkpt lat="48.95856" lon="5.4981">
        <ele>214.64</ele>
        <time>2019-09-22T12:20:46.001Z</time>
      </trkpt>
      <trkpt lat="48.95843" lon="5.49809">
        <ele>215.03</ele>
        <time>2019-09-22T12:20:49.001Z</time>
      </trkpt>
      <trkpt lat="48.9583" lon="5.49808">
        <ele>215.228</ele>
        <time>2019-09-22T12:20:52.001Z</time>
      </trkpt>
      <trkpt lat="48.95819" lon="5.49806">
        <ele>215.15</ele>
        <time>2019-09-22T12:20:55.001Z</time>
      </trkpt>
      <trkpt lat="48.95808" lon="5.49805">
        <ele>214.93</ele>
        <time>2019-09-22T12:20:58.001Z</time>
      </trkpt>
      <trkpt lat="48.95797" lon="5.49804">
        <ele>214.507</ele>
        <time>2019-09-22T12:21:01.001Z</time>
      </trkpt>
      <trkpt lat="48.95785" lon="5.49805">
        <ele>215.776</ele>
        <time>2019-09-22T12:21:04.001Z</time>
      </trkpt>
      <trkpt lat="48.95774" lon="5.49805">
        <ele>217.092</ele>
        <time>2019-09-22T12:21:07.001Z</time>
      </trkpt>
      <trkpt lat="48.95764" lon="5.49806">
        <ele>217.699</ele>
        <time>2019-09-22T12:21:10.001Z</time>
      </trkpt>
      <trkpt lat="48.95754" lon="5.49807">
        <ele>218.42</ele>
        <time>2019-09-22T12:21:13.001Z</time>
      </trkpt>
      <trkpt lat="48.95744" lon="5.49809">
        <ele>219.124</ele>
        <time>2019-09-22T12:21:16.000Z</time>
      </trkpt>
      <trkpt lat="48.95734" lon="5.49811">
        <ele>218.875</ele>
        <time>2019-09-22T12:21:19.001Z</time>
      </trkpt>
      <trkpt lat="48.95724" lon="5.49814">
        <ele>218.929</ele>
        <time>2019-09-22T12:21:22.001Z</time>
      </trkpt>
      <trkpt lat="48.95714" lon="5.49817">
        <ele>218.507</ele>
        <time>2019-09-22T12:21:25.001Z</time>
      </trkpt>
      <trkpt lat="48.95703" lon="5.4982">
        <ele>218.049</ele>
        <time>2019-09-22T12:21:28.001Z</time>
      </trkpt>
      <trkpt lat="48.95691" lon="5.49823">
        <ele>217.318</ele>
        <time>2019-09-22T12:21:31.001Z</time>
      </trkpt>
      <trkpt lat="48.95677" lon="5.49828">
        <ele>216.598</ele>
        <time>2019-09-22T12:21:34.001Z</time>
      </trkpt>
      <trkpt lat="48.95663" lon="5.49833">
        <ele>215.933</ele>
        <time>2019-09-22T12:21:37.001Z</time>
      </trkpt>
      <trkpt lat="48.95647" lon="5.49839">
        <ele>214.943</ele>
        <time>2019-09-22T12:21:40.001Z</time>
      </trkpt>
      <trkpt lat="48.95632" lon="5.49847">
        <ele>214.404</ele>
        <time>2019-09-22T12:21:43.001Z</time>
      </trkpt>
      <trkpt lat="48.95615" lon="5.49855">
        <ele>214.297</ele>
        <time>2019-09-22T12:21:46.001Z</time>
      </trkpt>
      <trkpt lat="48.95599" lon="5.49863">
        <ele>214.488</ele>
        <time>2019-09-22T12:21:49.001Z</time>
      </trkpt>
      <trkpt lat="48.95583" lon="5.49872">
        <ele>214.208</ele>
        <time>2019-09-22T12:21:52.001Z</time>
      </trkpt>
      <trkpt lat="48.95568" lon="5.4988">
        <ele>214.354</ele>
        <time>2019-09-22T12:21:55.001Z</time>
      </trkpt>
      <trkpt lat="48.95553" lon="5.49888">
        <ele>214.441</ele>
        <time>2019-09-22T12:21:58.001Z</time>
      </trkpt>
      <trkpt lat="48.9554" lon="5.49895">
        <ele>214.535</ele>
        <time>2019-09-22T12:22:01.001Z</time>
      </trkpt>
      <trkpt lat="48.95528" lon="5.49903">
        <ele>214.84</ele>
        <time>2019-09-22T12:22:04.001Z</time>
      </trkpt>
      <trkpt lat="48.95516" lon="5.49912">
        <ele>214.863</ele>
        <time>2019-09-22T12:22:07.001Z</time>
      </trkpt>
      <trkpt lat="48.95504" lon="5.49919">
        <ele>214.937</ele>
        <time>2019-09-22T12:22:10.001Z</time>
      </trkpt>
      <trkpt lat="48.95492" lon="5.49926">
        <ele>215.028</ele>
        <time>2019-09-22T12:22:13.001Z</time>
      </trkpt>
      <trkpt lat="48.95482" lon="5.49933">
        <ele>215.162</ele>
        <time>2019-09-22T12:22:16.000Z</time>
      </trkpt>
      <trkpt lat="48.95471" lon="5.49938">
        <ele>214.954</ele>
        <time>2019-09-22T12:22:19.001Z</time>
      </trkpt>
      <trkpt lat="48.95459" lon="5.49942">
        <ele>214.83</ele>
        <time>2019-09-22T12:22:22.001Z</time>
      </trkpt>
      <trkpt lat="48.95448" lon="5.49945">
        <ele>215.245</ele>
        <time>2019-09-22T12:22:25.001Z</time>
      </trkpt>
      <trkpt lat="48.95436" lon="5.49947">
        <ele>215.973</ele>
        <time>2019-09-22T12:22:28.001Z</time>
      </trkpt>
      <trkpt lat="48.95425" lon="5.49948">
        <ele>216.545</ele>
        <time>2019-09-22T12:22:31.001Z</time>
      </trkpt>
      <trkpt lat="48.95415" lon="5.49949">
        <ele>216.666</ele>
        <time>2019-09-22T12:22:34.001Z</time>
      </trkpt>
      <trkpt lat="48.95405" lon="5.49949">
        <ele>216.991</ele>
        <time>2019-09-22T12:22:37.001Z</time>
      </trkpt>
      <trkpt lat="48.95395" lon="5.4995">
        <ele>217.37</ele>
        <time>2019-09-22T12:22:40.001Z</time>
      </trkpt>
      <trkpt lat="48.95385" lon="5.4995">
        <ele>217.557</ele>
        <time>2019-09-22T12:22:43.001Z</time>
      </trkpt>
      <trkpt lat="48.95376" lon="5.49951">
        <ele>217.912</ele>
        <time>2019-09-22T12:22:46.001Z</time>
      </trkpt>
      <trkpt lat="48.95367" lon="5.49952">
        <ele>218.373</ele>
        <time>2019-09-22T12:22:49.001Z</time>
      </trkpt>
      <trkpt lat="48.95357" lon="5.49953">
        <ele>218.786</ele>
        <time>2019-09-22T12:22:52.001Z</time>
      </trkpt>
      <trkpt lat="48.95347" lon="5.49952">
        <ele>219.006</ele>
        <time>2019-09-22T12:22:55.001Z</time>
      </trkpt>
      <trkpt lat="48.95337" lon="5.4995">
        <ele>219.084</ele>
        <time>2019-09-22T12:22:58.001Z</time>
      </trkpt>
      <trkpt lat="48.95326" lon="5.49948">
        <ele>219.512</ele>
        <time>2019-09-22T12:23:01.001Z</time>
      </trkpt>
      <trkpt lat="48.95316" lon="5.49946">
        <ele>219.76</ele>
        <time>2019-09-22T12:23:04.001Z</time>
      </trkpt>
      <trkpt lat="48.95305" lon="5.49943">
        <ele>220.067</ele>
        <time>2019-09-22T12:23:07.001Z</time>
      </trkpt>
      <trkpt lat="48.95294" lon="5.49939">
        <ele>219.956</ele>
        <time>2019-09-22T12:23:10.001Z</time>
      </trkpt>
      <trkpt lat="48.95283" lon="5.49936">
        <ele>219.888</ele>
        <time>2019-09-22T12:23:13.001Z</time>
      </trkpt>
      <trkpt lat="48.95272" lon="5.49932">
        <ele>219.955</ele>
        <time>2019-09-22T12:23:16.000Z</time>
      </trkpt>
      <trkpt lat="48.95261" lon="5.49928">
        <ele>219.714</ele>
        <time>2019-09-22T12:23:19.001Z</time>
      </trkpt>
      <trkpt lat="48.9525" lon="5.49924">
        <ele>220.078</ele>
        <time>2019-09-22T12:23:22.001Z</time>
      </trkpt>
      <trkpt lat="48.95238" lon="5.4992">
        <ele>220.095</ele>
        <time>2019-09-22T12:23:25.001Z</time>
      </trkpt>
      <trkpt lat="48.95226" lon="5.49915">
        <ele>219.881</ele>
        <time>2019-09-22T12:23:28.001Z</time>
      </trkpt>
      <trkpt lat="48.95214" lon="5.49911">
        <ele>219.846</ele>
        <time>2019-09-22T12:23:31.001Z</time>
      </trkpt>
      <trkpt lat="48.95203" lon="5.49906">
        <ele>219.436</ele>
        <time>2019-09-22T12:23:34.001Z</time>
      </trkpt>
      <trkpt lat="48.9519" lon="5.49902">
        <ele>218.931</ele>
        <time>2019-09-22T12:23:37.001Z</time>
      </trkpt>
      <trkpt lat="48.95178" lon="5.49897">
        <ele>218.697</ele>
        <time>2019-09-22T12:23:40.001Z</time>
      </trkpt>
      <trkpt lat="48.95166" lon="5.49893">
        <ele>218.659</ele>
        <time>2019-09-22T12:23:43.001Z</time>
      </trkpt>
      <trkpt lat="48.95154" lon="5.49889">
        <ele>218.707</ele>
        <time>2019-09-22T12:23:46.001Z</time>
      </trkpt>
      <trkpt lat="48.95142" lon="5.49885">
        <ele>218.17</ele>
        <time>2019-09-22T12:23:49.001Z</time>
      </trkpt>
      <trkpt lat="48.9513" lon="5.49881">
        <ele>217.454</ele>
        <time>2019-09-22T12:23:52.001Z</time>
      </trkpt>
      <trkpt lat="48.95117" lon="5.49877">
        <ele>217.501</ele>
        <time>2019-09-22T12:23:55.001Z</time>
      </trkpt>
      <trkpt lat="48.95105" lon="5.49873">
        <ele>217.86</ele>
        <time>2019-09-22T12:23:58.001Z</time>
      </trkpt>
      <trkpt lat="48.95092" lon="5.49868">
        <ele>217.839</ele>
        <time>2019-09-22T12:24:01.001Z</time>
      </trkpt>
      <trkpt lat="48.9508" lon="5.49864">
        <ele>218.244</ele>
        <time>2019-09-22T12:24:04.001Z</time>
      </trkpt>
      <trkpt lat="48.95066" lon="5.4986">
        <ele>218.277</ele>
        <time>2019-09-22T12:24:07.001Z</time>
      </trkpt>
      <trkpt lat="48.95053" lon="5.49855">
        <ele>218.385</ele>
        <time>2019-09-22T12:24:10.001Z</time>
      </trkpt>
      <trkpt lat="48.95039" lon="5.49849">
        <ele>218.201</ele>
        <time>2019-09-22T12:24:13.001Z</time>
      </trkpt>
      <trkpt lat="48.95027" lon="5.49845">
        <ele>217.795</ele>
        <time>2019-09-22T12:24:16.000Z</time>
      </trkpt>
      <trkpt lat="48.95014" lon="5.4984">
        <ele>217.929</ele>
        <time>2019-09-22T12:24:19.001Z</time>
      </trkpt>
      <trkpt lat="48.95" lon="5.49836">
        <ele>218.045</ele>
        <time>2019-09-22T12:24:22.001Z</time>
      </trkpt>
      <trkpt lat="48.94987" lon="5.49831">
        <ele>218.015</ele>
        <time>2019-09-22T12:24:25.001Z</time>
      </trkpt>
      <trkpt lat="48.94974" lon="5.49827">
        <ele>217.833</ele>
        <time>2019-09-22T12:24:28.001Z</time>
      </trkpt>
      <trkpt lat="48.94961" lon="5.49822">
        <ele>217.586</ele>
        <time>2019-09-22T12:24:31.001Z</time>
      </trkpt>
      <trkpt lat="48.94948" lon="5.49818">
        <ele>217.407</ele>
        <time>2019-09-22T12:24:34.001Z</time>
      </trkpt>
      <trkpt lat="48.94934" lon="5.49814">
        <ele>217.606</ele>
        <time>2019-09-22T12:24:37.001Z</time>
      </trkpt>
      <trkpt lat="48.94921" lon="5.49811">
        <ele>217.282</ele>
        <time>2019-09-22T12:24:40.001Z</time>
      </trkpt>
      <trkpt lat="48.94906" lon="5.4981">
        <ele>217.306</ele>
        <time>2019-09-22T12:24:43.001Z</time>
      </trkpt>
      <trkpt lat="48.94891" lon="5.49808">
        <ele>217.452</ele>
        <time>2019-09-22T12:24:46.001Z</time>
      </trkpt>
      <trkpt lat="48.94876" lon="5.49807">
        <ele>217.507</ele>
        <time>2019-09-22T12:24:49.001Z</time>
      </trkpt>
      <trkpt lat="48.94859" lon="5.49805">
        <ele>217.435</ele>
        <time>2019-09-22T12:24:52.001Z</time>
      </trkpt>
      <trkpt lat="48.94843" lon="5.49803">
        <ele>216.862</ele>
        <time>2019-09-22T12:24:55.001Z</time>
      </trkpt>
      <trkpt lat="48.94825" lon="5.49802">
        <ele>216.558</ele>
        <time>2019-09-22T12:24:58.001Z</time>
      </trkpt>
      <trkpt lat="48.94808" lon="5.498">
        <ele>216.304</ele>
        <time>2019-09-22T12:25:01.001Z</time>
      </trkpt>
      <trkpt lat="48.94791" lon="5.49798">
        <ele>215.779</ele>
        <time>2019-09-22T12:25:04.001Z</time>
      </trkpt>
      <trkpt lat="48.94773" lon="5.49796">
        <ele>215.55</ele>
        <time>2019-09-22T12:25:07.001Z</time>
      </trkpt>
      <trkpt lat="48.94756" lon="5.49795">
        <ele>215.061</ele>
        <time>2019-09-22T12:25:10.001Z</time>
      </trkpt>
      <trkpt lat="48.94739" lon="5.49793">
        <ele>214.589</ele>
        <time>2019-09-22T12:25:13.001Z</time>
      </trkpt>
      <trkpt lat="48.94722" lon="5.49791">
        <ele>214.245</ele>
        <time>2019-09-22T12:25:16.000Z</time>
      </trkpt>
      <trkpt lat="48.94706" lon="5.4979">
        <ele>214.265</ele>
        <time>2019-09-22T12:25:19.001Z</time>
      </trkpt>
      <trkpt lat="48.94693" lon="5.49789">
        <ele>214.822</ele>
        <time>2019-09-22T12:25:22.001Z</time>
      </trkpt>
      <trkpt lat="48.94679" lon="5.49787">
        <ele>215.555</ele>
        <time>2019-09-22T12:25:25.001Z</time>
      </trkpt>
      <trkpt lat="48.94665" lon="5.49785">
        <ele>216.106</ele>
        <time>2019-09-22T12:25:28.001Z</time>
      </trkpt>
      <trkpt lat="48.94652" lon="5.49783">
        <ele>215.854</ele>
        <time>2019-09-22T12:25:31.001Z</time>
      </trkpt>
      <trkpt lat="48.94638" lon="5.49781">
        <ele>215.698</ele>
        <time>2019-09-22T12:25:34.001Z</time>
      </trkpt>
      <trkpt lat="48.94625" lon="5.4978">
        <ele>215.839</ele>
        <time>2019-09-22T12:25:37.001Z</time>
      </trkpt>
      <trkpt lat="48.94611" lon="5.49778">
        <ele>215.458</ele>
        <time>2019-09-22T12:25:40.001Z</time>
      </trkpt>
      <trkpt lat="48.94597" lon="5.49775">
        <ele>215.445</ele>
        <time>2019-09-22T12:25:43.001Z</time>
      </trkpt>
      <trkpt lat="48.94582" lon="5.49769">
        <ele>215.058</ele>
        <time>2019-09-22T12:25:46.001Z</time>
      </trkpt>
      <trkpt lat="48.94567" lon="5.49763">
        <ele>214.778</ele>
        <time>2019-09-22T12:25:49.001Z</time>
      </trkpt>
      <trkpt lat="48.94552" lon="5.49756">
        <ele>214.035</ele>
        <time>2019-09-22T12:25:52.001Z</time>
      </trkpt>
      <trkpt lat="48.94536" lon="5.49748">
        <ele>213.838</ele>
        <time>2019-09-22T12:25:55.001Z</time>
      </trkpt>
      <trkpt lat="48.9452" lon="5.49742">
        <ele>213.137</ele>
        <time>2019-09-22T12:25:58.001Z</time>
      </trkpt>
      <trkpt lat="48.94503" lon="5.49734">
        <ele>211.898</ele>
        <time>2019-09-22T12:26:01.001Z</time>
      </trkpt>
      <trkpt lat="48.94487" lon="5.49726">
        <ele>211.168</ele>
        <time>2019-09-22T12:26:04.001Z</time>
      </trkpt>
      <trkpt lat="48.94471" lon="5.49718">
        <ele>210.846</ele>
        <time>2019-09-22T12:26:07.001Z</time>
      </trkpt>
      <trkpt lat="48.94455" lon="5.49711">
        <ele>210.631</ele>
        <time>2019-09-22T12:26:10.001Z</time>
      </trkpt>
      <trkpt lat="48.9444" lon="5.49704">
        <ele>210.344</ele>
        <time>2019-09-22T12:26:13.001Z</time>
      </trkpt>
      <trkpt lat="48.94425" lon="5.49699">
        <ele>210.207</ele>
        <time>2019-09-22T12:26:16.000Z</time>
      </trkpt>
      <trkpt lat="48.94411" lon="5.49695">
        <ele>210.441</ele>
        <time>2019-09-22T12:26:19.001Z</time>
      </trkpt>
      <trkpt lat="48.94398" lon="5.49688">
        <ele>210.597</ele>
        <time>2019-09-22T12:26:22.001Z</time>
      </trkpt>
      <trkpt lat="48.94385" lon="5.4968">
        <ele>210.936</ele>
        <time>2019-09-22T12:26:25.001Z</time>
      </trkpt>
      <trkpt lat="48.94372" lon="5.49674">
        <ele>211.423</ele>
        <time>2019-09-22T12:26:28.001Z</time>
      </trkpt>
      <trkpt lat="48.94358" lon="5.49667">
        <ele>212.006</ele>
        <time>2019-09-22T12:26:31.001Z</time>
      </trkpt>
      <trkpt lat="48.94343" lon="5.49659">
        <ele>212.584</ele>
        <time>2019-09-22T12:26:34.001Z</time>
      </trkpt>
      <trkpt lat="48.94327" lon="5.49653">
        <ele>212.175</ele>
        <time>2019-09-22T12:26:37.001Z</time>
      </trkpt>
      <trkpt lat="48.94313" lon="5.49646">
        <ele>211.333</ele>
        <time>2019-09-22T12:26:40.001Z</time>
      </trkpt>
      <trkpt lat="48.94298" lon="5.49639">
        <ele>210.454</ele>
        <time>2019-09-22T12:26:43.001Z</time>
      </trkpt>
      <trkpt lat="48.94285" lon="5.49633">
        <ele>210.061</ele>
        <time>2019-09-22T12:26:46.001Z</time>
      </trkpt>
      <trkpt lat="48.94271" lon="5.49626">
        <ele>209.968</ele>
        <time>2019-09-22T12:26:49.001Z</time>
      </trkpt>
      <trkpt lat="48.94257" lon="5.4962">
        <ele>209.835</ele>
        <time>2019-09-22T12:26:52.001Z</time>
      </trkpt>
      <trkpt lat="48.94243" lon="5.49614">
        <ele>210.128</ele>
        <time>2019-09-22T12:26:55.001Z</time>
      </trkpt>
      <trkpt lat="48.94229" lon="5.49608">
        <ele>210.621</ele>
        <time>2019-09-22T12:26:58.001Z</time>
      </trkpt>
      <trkpt lat="48.94216" lon="5.49602">
        <ele>211.148</ele>
        <time>2019-09-22T12:27:01.001Z</time>
      </trkpt>
      <trkpt lat="48.94202" lon="5.49596">
        <ele>211.33</ele>
        <time>2019-09-22T12:27:04.001Z</time>
      </trkpt>
      <trkpt lat="48.94188" lon="5.49589">
        <ele>211.228</ele>
        <time>2019-09-22T12:27:07.001Z</time>
      </trkpt>
      <trkpt lat="48.94174" lon="5.49582">
        <ele>211.044</ele>
        <time>2019-09-22T12:27:10.001Z</time>
      </trkpt>
      <trkpt lat="48.94159" lon="5.49574">
        <ele>211.349</ele>
        <time>2019-09-22T12:27:13.001Z</time>
      </trkpt>
      <trkpt lat="48.94145" lon="5.49567">
        <ele>211.102</ele>
        <time>2019-09-22T12:27:16.000Z</time>
      </trkpt>
      <trkpt lat="48.9413" lon="5.4956">
        <ele>211.894</ele>
        <time>2019-09-22T12:27:19.001Z</time>
      </trkpt>
      <trkpt lat="48.94115" lon="5.49553">
        <ele>212.139</ele>
        <time>2019-09-22T12:27:22.001Z</time>
      </trkpt>
      <trkpt lat="48.94101" lon="5.49547">
        <ele>212.539</ele>
        <time>2019-09-22T12:27:25.001Z</time>
      </trkpt>
      <trkpt lat="48.94087" lon="5.4954">
        <ele>212.883</ele>
        <time>2019-09-22T12:27:28.001Z</time>
      </trkpt>
      <trkpt lat="48.94073" lon="5.49533">
        <ele>213.401</ele>
        <time>2019-09-22T12:27:31.001Z</time>
      </trkpt>
      <trkpt lat="48.9406" lon="5.49527">
        <ele>213.851</ele>
        <time>2019-09-22T12:27:34.001Z</time>
      </trkpt>
      <trkpt lat="48.94044" lon="5.4952">
        <ele>214.586</ele>
        <time>2019-09-22T12:27:37.001Z</time>
      </trkpt>
      <trkpt lat="48.94028" lon="5.49512">
        <ele>214.25</ele>
        <time>2019-09-22T12:27:40.001Z</time>
      </trkpt>
      <trkpt lat="48.94012" lon="5.49505">
        <ele>214.374</ele>
        <time>2019-09-22T12:27:43.001Z</time>
      </trkpt>
      <trkpt lat="48.93997" lon="5.49496">
        <ele>214.005</ele>
        <time>2019-09-22T12:27:46.001Z</time>
      </trkpt>
      <trkpt lat="48.93982" lon="5.49487">
        <ele>213.901</ele>
        <time>2019-09-22T12:27:49.001Z</time>
      </trkpt>
      <trkpt lat="48.93969" lon="5.49478">
        <ele>213.421</ele>
        <time>2019-09-22T12:27:52.001Z</time>
      </trkpt>
      <trkpt lat="48.93955" lon="5.49468">
        <ele>213.047</ele>
        <time>2019-09-22T12:27:55.001Z</time>
      </trkpt>
      <trkpt lat="48.93943" lon="5.49459">
        <ele>212.935</ele>
        <time>2019-09-22T12:27:58.001Z</time>
      </trkpt>
      <trkpt lat="48.9393" lon="5.4945">
        <ele>212.613</ele>
        <time>2019-09-22T12:28:01.001Z</time>
      </trkpt>
      <trkpt lat="48.93918" lon="5.49438">
        <ele>212.34</ele>
        <time>2019-09-22T12:28:04.001Z</time>
      </trkpt>
      <trkpt lat="48.93904" lon="5.49428">
        <ele>212.591</ele>
        <time>2019-09-22T12:28:07.001Z</time>
      </trkpt>
      <trkpt lat="48.93891" lon="5.49419">
        <ele>212.894</ele>
        <time>2019-09-22T12:28:10.001Z</time>
      </trkpt>
      <trkpt lat="48.9388" lon="5.4941">
        <ele>214.127</ele>
        <time>2019-09-22T12:28:13.001Z</time>
      </trkpt>
      <trkpt lat="48.93868" lon="5.49401">
        <ele>214.594</ele>
        <time>2019-09-22T12:28:16.000Z</time>
      </trkpt>
      <trkpt lat="48.93855" lon="5.49391">
        <ele>214.873</ele>
        <time>2019-09-22T12:28:19.001Z</time>
      </trkpt>
      <trkpt lat="48.93844" lon="5.49381">
        <ele>215.688</ele>
        <time>2019-09-22T12:28:22.001Z</time>
      </trkpt>
      <trkpt lat="48.93832" lon="5.49371">
        <ele>215.814</ele>
        <time>2019-09-22T12:28:25.001Z</time>
      </trkpt>
      <trkpt lat="48.9382" lon="5.49361">
        <ele>215.273</ele>
        <time>2019-09-22T12:28:28.001Z</time>
      </trkpt>
      <trkpt lat="48.93808" lon="5.49351">
        <ele>214.645</ele>
        <time>2019-09-22T12:28:31.001Z</time>
      </trkpt>
      <trkpt lat="48.93796" lon="5.49342">
        <ele>214.298</ele>
        <time>2019-09-22T12:28:34.001Z</time>
      </trkpt>
      <trkpt lat="48.93785" lon="5.49334">
        <ele>214.061</ele>
        <time>2019-09-22T12:28:37.001Z</time>
      </trkpt>
      <trkpt lat="48.93773" lon="5.49325">
        <ele>213.536</ele>
        <time>2019-09-22T12:28:40.001Z</time>
      </trkpt>
      <trkpt lat="48.93762" lon="5.49317">
        <ele>213.332</ele>
        <time>2019-09-22T12:28:43.001Z</time>
      </trkpt>
      <trkpt lat="48.93752" lon="5.49309">
        <ele>212.953</ele>
        <time>2019-09-22T12:28:46.001Z</time>
      </trkpt>
      <trkpt lat="48.93741" lon="5.49301">
        <ele>213.581</ele>
        <time>2019-09-22T12:28:49.001Z</time>
      </trkpt>
      <trkpt lat="48.9373" lon="5.49295">
        <ele>214.085</ele>
        <time>2019-09-22T12:28:52.001Z</time>
      </trkpt>
      <trkpt lat="48.93719" lon="5.49287">
        <ele>215.084</ele>
        <time>2019-09-22T12:28:55.001Z</time>
      </trkpt>
      <trkpt lat="48.93709" lon="5.4928">
        <ele>215.515</ele>
        <time>2019-09-22T12:28:58.001Z</time>
      </trkpt>
      <trkpt lat="48.93697" lon="5.49272">
        <ele>215.48</ele>
        <time>2019-09-22T12:29:01.001Z</time>
      </trkpt>
      <trkpt lat="48.93685" lon="5.49265">
        <ele>215.428</ele>
        <time>2019-09-22T12:29:04.001Z</time>
      </trkpt>
      <trkpt lat="48.93673" lon="5.49258">
        <ele>215.786</ele>
        <time>2019-09-22T12:29:07.001Z</time>
      </trkpt>
      <trkpt lat="48.93661" lon="5.49252">
        <ele>215.24</ele>
        <time>2019-09-22T12:29:10.001Z</time>
      </trkpt>
      <trkpt lat="48.93649" lon="5.49246">
        <ele>214.566</ele>
        <time>2019-09-22T12:29:13.001Z</time>
      </trkpt>
      <trkpt lat="48.93637" lon="5.4924">
        <ele>214.144</ele>
        <time>2019-09-22T12:29:16.000Z</time>
      </trkpt>
      <trkpt lat="48.93625" lon="5.49234">
        <ele>213.676</ele>
        <time>2019-09-22T12:29:19.001Z</time>
      </trkpt>
      <trkpt lat="48.93613" lon="5.49228">
        <ele>213.053</ele>
        <time>2019-09-22T12:29:22.001Z</time>
      </trkpt>
      <trkpt lat="48.93602" lon="5.49223">
        <ele>213.094</ele>
        <time>2019-09-22T12:29:25.001Z</time>
      </trkpt>
      <trkpt lat="48.9359" lon="5.49217">
        <ele>213.251</ele>
        <time>2019-09-22T12:29:28.001Z</time>
      </trkpt>
      <trkpt lat="48.93579" lon="5.49211">
        <ele>212.995</ele>
        <time>2019-09-22T12:29:31.001Z</time>
      </trkpt>
      <trkpt lat="48.93567" lon="5.49205">
        <ele>213.222</ele>
        <time>2019-09-22T12:29:34.001Z</time>
      </trkpt>
      <trkpt lat="48.93554" lon="5.49198">
        <ele>213.464</ele>
        <time>2019-09-22T12:29:37.001Z</time>
      </trkpt>
      <trkpt lat="48.93542" lon="5.49193">
        <ele>213.295</ele>
        <time>2019-09-22T12:29:40.001Z</time>
      </trkpt>
      <trkpt lat="48.93529" lon="5.49187">
        <ele>213.194</ele>
        <time>2019-09-22T12:29:43.001Z</time>
      </trkpt>
      <trkpt lat="48.93517" lon="5.49181">
        <ele>212.999</ele>
        <time>2019-09-22T12:29:46.001Z</time>
      </trkpt>
      <trkpt lat="48.93505" lon="5.49175">
        <ele>212.942</ele>
        <time>2019-09-22T12:29:49.001Z</time>
      </trkpt>
      <trkpt lat="48.93493" lon="5.49169">
        <ele>212.983</ele>
        <time>2019-09-22T12:29:52.001Z</time>
      </trkpt>
      <trkpt lat="48.93482" lon="5.49163">
        <ele>212.068</ele>
        <time>2019-09-22T12:29:55.001Z</time>
      </trkpt>
      <trkpt lat="48.93471" lon="5.49156">
        <ele>211.653</ele>
        <time>2019-09-22T12:29:58.001Z</time>
      </trkpt>
      <trkpt lat="48.93459" lon="5.4915">
        <ele>211.562</ele>
        <time>2019-09-22T12:30:01.001Z</time>
      </trkpt>
      <trkpt lat="48.93447" lon="5.49144">
        <ele>211.64</ele>
        <time>2019-09-22T12:30:04.001Z</time>
      </trkpt>
      <trkpt lat="48.93434" lon="5.49139">
        <ele>212.551</ele>
        <time>2019-09-22T12:30:07.001Z</time>
      </trkpt>
      <trkpt lat="48.93421" lon="5.49133">
        <ele>212.584</ele>
        <time>2019-09-22T12:30:10.001Z</time>
      </trkpt>
      <trkpt lat="48.93408" lon="5.49126">
        <ele>212.824</ele>
        <time>2019-09-22T12:30:13.001Z</time>
      </trkpt>
      <trkpt lat="48.93395" lon="5.4912">
        <ele>213.181</ele>
        <time>2019-09-22T12:30:16.000Z</time>
      </trkpt>
      <trkpt lat="48.93381" lon="5.49114">
        <ele>213.077</ele>
        <time>2019-09-22T12:30:19.001Z</time>
      </trkpt>
      <trkpt lat="48.93367" lon="5.49107">
        <ele>212.956</ele>
        <time>2019-09-22T12:30:22.001Z</time>
      </trkpt>
      <trkpt lat="48.93353" lon="5.49102">
        <ele>212.42</ele>
        <time>2019-09-22T12:30:25.001Z</time>
      </trkpt>
      <trkpt lat="48.9334" lon="5.49097">
        <ele>211.88</ele>
        <time>2019-09-22T12:30:28.001Z</time>
      </trkpt>
      <trkpt lat="48.93326" lon="5.49089">
        <ele>212.471</ele>
        <time>2019-09-22T12:30:31.001Z</time>
      </trkpt>
      <trkpt lat="48.93313" lon="5.49082">
        <ele>212.575</ele>
        <time>2019-09-22T12:30:34.001Z</time>
      </trkpt>
      <trkpt lat="48.933" lon="5.49075">
        <ele>212.596</ele>
        <time>2019-09-22T12:30:37.001Z</time>
      </trkpt>
      <trkpt lat="48.93288" lon="5.49068">
        <ele>213.11</ele>
        <time>2019-09-22T12:30:40.001Z</time>
      </trkpt>
      <trkpt lat="48.93275" lon="5.49061">
        <ele>213.151</ele>
        <time>2019-09-22T12:30:43.001Z</time>
      </trkpt>
      <trkpt lat="48.93263" lon="5.49055">
        <ele>213.613</ele>
        <time>2019-09-22T12:30:46.001Z</time>
      </trkpt>
      <trkpt lat="48.93251" lon="5.49048">
        <ele>213.949</ele>
        <time>2019-09-22T12:30:49.001Z</time>
      </trkpt>
      <trkpt lat="48.93239" lon="5.49041">
        <ele>213.709</ele>
        <time>2019-09-22T12:30:52.001Z</time>
      </trkpt>
      <trkpt lat="48.93226" lon="5.49035">
        <ele>213.581</ele>
        <time>2019-09-22T12:30:55.001Z</time>
      </trkpt>
      <trkpt lat="48.93212" lon="5.49031">
        <ele>213.459</ele>
        <time>2019-09-22T12:30:58.001Z</time>
      </trkpt>
      <trkpt lat="48.93199" lon="5.49024">
        <ele>213.812</ele>
        <time>2019-09-22T12:31:01.001Z</time>
      </trkpt>
      <trkpt lat="48.93187" lon="5.49018">
        <ele>213.896</ele>
        <time>2019-09-22T12:31:04.001Z</time>
      </trkpt>
      <trkpt lat="48.93174" lon="5.49012">
        <ele>214.412</ele>
        <time>2019-09-22T12:31:07.001Z</time>
      </trkpt>
      <trkpt lat="48.93162" lon="5.49006">
        <ele>215.017</ele>
        <time>2019-09-22T12:31:10.001Z</time>
      </trkpt>
      <trkpt lat="48.93151" lon="5.49">
        <ele>215.012</ele>
        <time>2019-09-22T12:31:13.001Z</time>
      </trkpt>
      <trkpt lat="48.93141" lon="5.48996">
        <ele>214.922</ele>
        <time>2019-09-22T12:31:16.000Z</time>
      </trkpt>
      <trkpt lat="48.93133" lon="5.48994">
        <ele>215.145</ele>
        <time>2019-09-22T12:31:19.001Z</time>
      </trkpt>
      <trkpt lat="48.93123" lon="5.48994">
        <ele>215.469</ele>
        <time>2019-09-22T12:31:22.001Z</time>
      </trkpt>
      <trkpt lat="48.93113" lon="5.48995">
        <ele>215.504</ele>
        <time>2019-09-22T12:31:25.001Z</time>
      </trkpt>
      <trkpt lat="48.93101" lon="5.48996">
        <ele>215.506</ele>
        <time>2019-09-22T12:31:28.001Z</time>
      </trkpt>
      <trkpt lat="48.93089" lon="5.48997">
        <ele>215.162</ele>
        <time>2019-09-22T12:31:31.001Z</time>
      </trkpt>
      <trkpt lat="48.93077" lon="5.48998">
        <ele>215.306</ele>
        <time>2019-09-22T12:31:34.001Z</time>
      </trkpt>
      <trkpt lat="48.93065" lon="5.49001">
        <ele>215.229</ele>
        <time>2019-09-22T12:31:37.001Z</time>
      </trkpt>
      <trkpt lat="48.93052" lon="5.49003">
        <ele>215.047</ele>
        <time>2019-09-22T12:31:40.001Z</time>
      </trkpt>
      <trkpt lat="48.93038" lon="5.49006">
        <ele>214.895</ele>
        <time>2019-09-22T12:31:43.001Z</time>
      </trkpt>
      <trkpt lat="48.93024" lon="5.49008">
        <ele>214.877</ele>
        <time>2019-09-22T12:31:46.001Z</time>
      </trkpt>
      <trkpt lat="48.9301" lon="5.49012">
        <ele>214.932</ele>
        <time>2019-09-22T12:31:49.001Z</time>
      </trkpt>
      <trkpt lat="48.92996" lon="5.49015">
        <ele>215.42</ele>
        <time>2019-09-22T12:31:52.001Z</time>
      </trkpt>
      <trkpt lat="48.92982" lon="5.49018">
        <ele>215.499</ele>
        <time>2019-09-22T12:31:55.001Z</time>
      </trkpt>
      <trkpt lat="48.92968" lon="5.49021">
        <ele>215.755</ele>
        <time>2019-09-22T12:31:58.001Z</time>
      </trkpt>
      <trkpt lat="48.92952" lon="5.49024">
        <ele>215.417</ele>
        <time>2019-09-22T12:32:01.001Z</time>
      </trkpt>
      <trkpt lat="48.92937" lon="5.49028">
        <ele>214.824</ele>
        <time>2019-09-22T12:32:04.001Z</time>
      </trkpt>
      <trkpt lat="48.92921" lon="5.49032">
        <ele>213.866</ele>
        <time>2019-09-22T12:32:07.001Z</time>
      </trkpt>
      <trkpt lat="48.92905" lon="5.49034">
        <ele>213.369</ele>
        <time>2019-09-22T12:32:10.001Z</time>
      </trkpt>
      <trkpt lat="48.92887" lon="5.49034">
        <ele>213.261</ele>
        <time>2019-09-22T12:32:13.001Z</time>
      </trkpt>
      <trkpt lat="48.9287" lon="5.49026">
        <ele>213.379</ele>
        <time>2019-09-22T12:32:16.000Z</time>
      </trkpt>
      <trkpt lat="48.92856" lon="5.49017">
        <ele>214.18</ele>
        <time>2019-09-22T12:32:19.001Z</time>
      </trkpt>
      <trkpt lat="48.92844" lon="5.49007">
        <ele>214.569</ele>
        <time>2019-09-22T12:32:22.001Z</time>
      </trkpt>
      <trkpt lat="48.92832" lon="5.48999">
        <ele>214.741</ele>
        <time>2019-09-22T12:32:25.001Z</time>
      </trkpt>
      <trkpt lat="48.92821" lon="5.48993">
        <ele>214.508</ele>
        <time>2019-09-22T12:32:28.001Z</time>
      </trkpt>
      <trkpt lat="48.92809" lon="5.48986">
        <ele>215.271</ele>
        <time>2019-09-22T12:32:31.001Z</time>
      </trkpt>
      <trkpt lat="48.92798" lon="5.48983">
        <ele>214.996</ele>
        <time>2019-09-22T12:32:34.001Z</time>
      </trkpt>
      <trkpt lat="48.92785" lon="5.4898">
        <ele>214.715</ele>
        <time>2019-09-22T12:32:37.001Z</time>
      </trkpt>
      <trkpt lat="48.92772" lon="5.4898">
        <ele>214.231</ele>
        <time>2019-09-22T12:32:40.001Z</time>
      </trkpt>
      <trkpt lat="48.92758" lon="5.4898">
        <ele>213.095</ele>
        <time>2019-09-22T12:32:43.001Z</time>
      </trkpt>
      <trkpt lat="48.92745" lon="5.48983">
        <ele>211.822</ele>
        <time>2019-09-22T12:32:46.001Z</time>
      </trkpt>
      <trkpt lat="48.92731" lon="5.48988">
        <ele>211.212</ele>
        <time>2019-09-22T12:32:49.001Z</time>
      </trkpt>
      <trkpt lat="48.92718" lon="5.48991">
        <ele>210.034</ele>
        <time>2019-09-22T12:32:52.001Z</time>
      </trkpt>
      <trkpt lat="48.92705" lon="5.48996">
        <ele>209.08</ele>
        <time>2019-09-22T12:32:55.001Z</time>
      </trkpt>
      <trkpt lat="48.92692" lon="5.49">
        <ele>208.063</ele>
        <time>2019-09-22T12:32:58.001Z</time>
      </trkpt>
      <trkpt lat="48.92679" lon="5.49006">
        <ele>207.239</ele>
        <time>2019-09-22T12:33:01.001Z</time>
      </trkpt>
      <trkpt lat="48.92666" lon="5.49013">
        <ele>206.898</ele>
        <time>2019-09-22T12:33:04.001Z</time>
      </trkpt>
      <trkpt lat="48.92653" lon="5.4902">
        <ele>206.634</ele>
        <time>2019-09-22T12:33:07.001Z</time>
      </trkpt>
      <trkpt lat="48.92642" lon="5.49027">
        <ele>206.674</ele>
        <time>2019-09-22T12:33:10.001Z</time>
      </trkpt>
      <trkpt lat="48.92629" lon="5.49033">
        <ele>206.477</ele>
        <time>2019-09-22T12:33:13.001Z</time>
      </trkpt>
      <trkpt lat="48.92616" lon="5.49041">
        <ele>206.96</ele>
        <time>2019-09-22T12:33:16.000Z</time>
      </trkpt>
      <trkpt lat="48.92604" lon="5.4905">
        <ele>207.324</ele>
        <time>2019-09-22T12:33:19.001Z</time>
      </trkpt>
      <trkpt lat="48.92592" lon="5.49059">
        <ele>208.089</ele>
        <time>2019-09-22T12:33:22.001Z</time>
      </trkpt>
      <trkpt lat="48.9258" lon="5.49069">
        <ele>209.243</ele>
        <time>2019-09-22T12:33:25.001Z</time>
      </trkpt>
      <trkpt lat="48.92567" lon="5.4908">
        <ele>210.829</ele>
        <time>2019-09-22T12:33:28.001Z</time>
      </trkpt>
      <trkpt lat="48.92556" lon="5.49091">
        <ele>211.803</ele>
        <time>2019-09-22T12:33:31.001Z</time>
      </trkpt>
      <trkpt lat="48.92544" lon="5.49103">
        <ele>212.029</ele>
        <time>2019-09-22T12:33:34.001Z</time>
      </trkpt>
      <trkpt lat="48.92533" lon="5.49115">
        <ele>212.452</ele>
        <time>2019-09-22T12:33:37.001Z</time>
      </trkpt>
      <trkpt lat="48.92523" lon="5.49129">
        <ele>212.965</ele>
        <time>2019-09-22T12:33:40.001Z</time>
      </trkpt>
      <trkpt lat="48.92511" lon="5.49142">
        <ele>213.555</ele>
        <time>2019-09-22T12:33:43.001Z</time>
      </trkpt>
      <trkpt lat="48.925" lon="5.49156">
        <ele>213.532</ele>
        <time>2019-09-22T12:33:46.001Z</time>
      </trkpt>
      <trkpt lat="48.92489" lon="5.49169">
        <ele>214.107</ele>
        <time>2019-09-22T12:33:49.001Z</time>
      </trkpt>
      <trkpt lat="48.92479" lon="5.49181">
        <ele>214.822</ele>
        <time>2019-09-22T12:33:52.001Z</time>
      </trkpt>
      <trkpt lat="48.92468" lon="5.49192">
        <ele>215.537</ele>
        <time>2019-09-22T12:33:55.001Z</time>
      </trkpt>
      <trkpt lat="48.92457" lon="5.49203">
        <ele>216.102</ele>
        <time>2019-09-22T12:33:58.001Z</time>
      </trkpt>
      <trkpt lat="48.92448" lon="5.49215">
        <ele>216.693</ele>
        <time>2019-09-22T12:34:01.001Z</time>
      </trkpt>
      <trkpt lat="48.92439" lon="5.49227">
        <ele>217.383</ele>
        <time>2019-09-22T12:34:04.001Z</time>
      </trkpt>
      <trkpt lat="48.92431" lon="5.49238">
        <ele>217.619</ele>
        <time>2019-09-22T12:34:07.001Z</time>
      </trkpt>
      <trkpt lat="48.92422" lon="5.49249">
        <ele>218.318</ele>
        <time>2019-09-22T12:34:10.001Z</time>
      </trkpt>
      <trkpt lat="48.92414" lon="5.49258">
        <ele>219.178</ele>
        <time>2019-09-22T12:34:13.001Z</time>
      </trkpt>
      <trkpt lat="48.92406" lon="5.49269">
        <ele>219.161</ele>
        <time>2019-09-22T12:34:16.000Z</time>
      </trkpt>
      <trkpt lat="48.92396" lon="5.4928">
        <ele>218.952</ele>
        <time>2019-09-22T12:34:19.001Z</time>
      </trkpt>
      <trkpt lat="48.92386" lon="5.49293">
        <ele>219.138</ele>
        <time>2019-09-22T12:34:22.001Z</time>
      </trkpt>
      <trkpt lat="48.92373" lon="5.49307">
        <ele>219.52</ele>
        <time>2019-09-22T12:34:25.001Z</time>
      </trkpt>
      <trkpt lat="48.92359" lon="5.49319">
        <ele>220.123</ele>
        <time>2019-09-22T12:34:28.001Z</time>
      </trkpt>
      <trkpt lat="48.92346" lon="5.49332">
        <ele>219.485</ele>
        <time>2019-09-22T12:34:31.001Z</time>
      </trkpt>
      <trkpt lat="48.92333" lon="5.49345">
        <ele>219.529</ele>
        <time>2019-09-22T12:34:34.001Z</time>
      </trkpt>
      <trkpt lat="48.92321" lon="5.49358">
        <ele>219.096</ele>
        <time>2019-09-22T12:34:37.001Z</time>
      </trkpt>
      <trkpt lat="48.9231" lon="5.49371">
        <ele>219.068</ele>
        <time>2019-09-22T12:34:40.001Z</time>
      </trkpt>
      <trkpt lat="48.92299" lon="5.49383">
        <ele>218.8</ele>
        <time>2019-09-22T12:34:43.001Z</time>
      </trkpt>
      <trkpt lat="48.92288" lon="5.49396">
        <ele>218.509</ele>
        <time>2019-09-22T12:34:46.001Z</time>
      </trkpt>
      <trkpt lat="48.92277" lon="5.49409">
        <ele>218.147</ele>
        <time>2019-09-22T12:34:49.001Z</time>
      </trkpt>
      <trkpt lat="48.92266" lon="5.49422">
        <ele>217.331</ele>
        <time>2019-09-22T12:34:52.001Z</time>
      </trkpt>
      <trkpt lat="48.92254" lon="5.49435">
        <ele>216.514</ele>
        <time>2019-09-22T12:34:55.001Z</time>
      </trkpt>
      <trkpt lat="48.92243" lon="5.49448">
        <ele>215.755</ele>
        <time>2019-09-22T12:34:58.001Z</time>
      </trkpt>
      <trkpt lat="48.92232" lon="5.4946">
        <ele>214.611</ele>
        <time>2019-09-22T12:35:01.001Z</time>
      </trkpt>
      <trkpt lat="48.92222" lon="5.49472">
        <ele>213.749</ele>
        <time>2019-09-22T12:35:04.001Z</time>
      </trkpt>
      <trkpt lat="48.92211" lon="5.49483">
        <ele>213.248</ele>
        <time>2019-09-22T12:35:07.001Z</time>
      </trkpt>
      <trkpt lat="48.92201" lon="5.49494">
        <ele>212.812</ele>
        <time>2019-09-22T12:35:10.001Z</time>
      </trkpt>
      <trkpt lat="48.9219" lon="5.49504">
        <ele>212.432</ele>
        <time>2019-09-22T12:35:13.001Z</time>
      </trkpt>
      <trkpt lat="48.9218" lon="5.49514">
        <ele>212.622</ele>
        <time>2019-09-22T12:35:16.000Z</time>
      </trkpt>
      <trkpt lat="48.92171" lon="5.49524">
        <ele>212.432</ele>
        <time>2019-09-22T12:35:19.001Z</time>
      </trkpt>
      <trkpt lat="48.92162" lon="5.49533">
        <ele>212.386</ele>
        <time>2019-09-22T12:35:22.001Z</time>
      </trkpt>
      <trkpt lat="48.92152" lon="5.49541">
        <ele>212.331</ele>
        <time>2019-09-22T12:35:25.001Z</time>
      </trkpt>
      <trkpt lat="48.92143" lon="5.49549">
        <ele>212.148</ele>
        <time>2019-09-22T12:35:28.001Z</time>
      </trkpt>
      <trkpt lat="48.92134" lon="5.49557">
        <ele>212.392</ele>
        <time>2019-09-22T12:35:31.001Z</time>
      </trkpt>
      <trkpt lat="48.92124" lon="5.49565">
        <ele>212.612</ele>
        <time>2019-09-22T12:35:34.001Z</time>
      </trkpt>
      <trkpt lat="48.92113" lon="5.49575">
        <ele>212.801</ele>
        <time>2019-09-22T12:35:37.001Z</time>
      </trkpt>
      <trkpt lat="48.92103" lon="5.49584">
        <ele>212.991</ele>
        <time>2019-09-22T12:35:40.001Z</time>
      </trkpt>
      <trkpt lat="48.92093" lon="5.49593">
        <ele>213.404</ele>
        <time>2019-09-22T12:35:43.001Z</time>
      </trkpt>
      <trkpt lat="48.92083" lon="5.49602">
        <ele>213.567</ele>
        <time>2019-09-22T12:35:46.001Z</time>
      </trkpt>
      <trkpt lat="48.92072" lon="5.49611">
        <ele>213.877</ele>
        <time>2019-09-22T12:35:49.001Z</time>
      </trkpt>
      <trkpt lat="48.92062" lon="5.4962">
        <ele>214.516</ele>
        <time>2019-09-22T12:35:52.001Z</time>
      </trkpt>
      <trkpt lat="48.92051" lon="5.49631">
        <ele>213.662</ele>
        <time>2019-09-22T12:35:55.001Z</time>
      </trkpt>
      <trkpt lat="48.92039" lon="5.49642">
        <ele>214.208</ele>
        <time>2019-09-22T12:35:58.001Z</time>
      </trkpt>
      <trkpt lat="48.92027" lon="5.49654">
        <ele>214.581</ele>
        <time>2019-09-22T12:36:01.001Z</time>
      </trkpt>
      <trkpt lat="48.92014" lon="5.49666">
        <ele>214.714</ele>
        <time>2019-09-22T12:36:04.001Z</time>
      </trkpt>
      <trkpt lat="48.92001" lon="5.49679">
        <ele>214.479</ele>
        <time>2019-09-22T12:36:07.001Z</time>
      </trkpt>
      <trkpt lat="48.91987" lon="5.49693">
        <ele>214.18</ele>
        <time>2019-09-22T12:36:10.001Z</time>
      </trkpt>
      <trkpt lat="48.91972" lon="5.49706">
        <ele>214.019</ele>
        <time>2019-09-22T12:36:13.001Z</time>
      </trkpt>
      <trkpt lat="48.91958" lon="5.4972">
        <ele>214.185</ele>
        <time>2019-09-22T12:36:16.000Z</time>
      </trkpt>
      <trkpt lat="48.91944" lon="5.49733">
        <ele>214.058</ele>
        <time>2019-09-22T12:36:19.001Z</time>
      </trkpt>
      <trkpt lat="48.91931" lon="5.49745">
        <ele>213.93</ele>
        <time>2019-09-22T12:36:22.001Z</time>
      </trkpt>
      <trkpt lat="48.9192" lon="5.49757">
        <ele>213.853</ele>
        <time>2019-09-22T12:36:25.001Z</time>
      </trkpt>
      <trkpt lat="48.91908" lon="5.49767">
        <ele>214.108</ele>
        <time>2019-09-22T12:36:28.001Z</time>
      </trkpt>
      <trkpt lat="48.91896" lon="5.49779">
        <ele>214.163</ele>
        <time>2019-09-22T12:36:31.001Z</time>
      </trkpt>
      <trkpt lat="48.91885" lon="5.4979">
        <ele>214.04</ele>
        <time>2019-09-22T12:36:34.001Z</time>
      </trkpt>
      <trkpt lat="48.91875" lon="5.49803">
        <ele>214.588</ele>
        <time>2019-09-22T12:36:37.001Z</time>
      </trkpt>
      <trkpt lat="48.91866" lon="5.49817">
        <ele>214.909</ele>
        <time>2019-09-22T12:36:40.001Z</time>
      </trkpt>
      <trkpt lat="48.91857" lon="5.49829">
        <ele>215.247</ele>
        <time>2019-09-22T12:36:43.001Z</time>
      </trkpt>
      <trkpt lat="48.9185" lon="5.49844">
        <ele>216.16</ele>
        <time>2019-09-22T12:36:46.001Z</time>
      </trkpt>
      <trkpt lat="48.91841" lon="5.4986">
        <ele>216.554</ele>
        <time>2019-09-22T12:36:49.001Z</time>
      </trkpt>
      <trkpt lat="48.91833" lon="5.49876">
        <ele>216.808</ele>
        <time>2019-09-22T12:36:52.001Z</time>
      </trkpt>
      <trkpt lat="48.91826" lon="5.49891">
        <ele>217.127</ele>
        <time>2019-09-22T12:36:55.001Z</time>
      </trkpt>
      <trkpt lat="48.91818" lon="5.49904">
        <ele>217.619</ele>
        <time>2019-09-22T12:36:58.001Z</time>
      </trkpt>
      <trkpt lat="48.91811" lon="5.49916">
        <ele>218.123</ele>
        <time>2019-09-22T12:37:01.001Z</time>
      </trkpt>
      <trkpt lat="48.91803" lon="5.49929">
        <ele>218.913</ele>
        <time>2019-09-22T12:37:04.001Z</time>
      </trkpt>
      <trkpt lat="48.91795" lon="5.49942">
        <ele>219.142</ele>
        <time>2019-09-22T12:37:07.001Z</time>
      </trkpt>
      <trkpt lat="48.91788" lon="5.49954">
        <ele>220.068</ele>
        <time>2019-09-22T12:37:10.001Z</time>
      </trkpt>
      <trkpt lat="48.91781" lon="5.49966">
        <ele>220.954</ele>
        <time>2019-09-22T12:37:13.001Z</time>
      </trkpt>
      <trkpt lat="48.91774" lon="5.49978">
        <ele>221.438</ele>
        <time>2019-09-22T12:37:16.000Z</time>
      </trkpt>
      <trkpt lat="48.91768" lon="5.49989">
        <ele>221.796</ele>
        <time>2019-09-22T12:37:19.001Z</time>
      </trkpt>
      <trkpt lat="48.91762" lon="5.5">
        <ele>222.327</ele>
        <time>2019-09-22T12:37:22.001Z</time>
      </trkpt>
      <trkpt lat="48.91756" lon="5.5001">
        <ele>223.156</ele>
        <time>2019-09-22T12:37:25.001Z</time>
      </trkpt>
      <trkpt lat="48.91751" lon="5.50021">
        <ele>224.01</ele>
        <time>2019-09-22T12:37:28.001Z</time>
      </trkpt>
      <trkpt lat="48.91745" lon="5.50032">
        <ele>224.473</ele>
        <time>2019-09-22T12:37:31.002Z</time>
      </trkpt>
      <trkpt lat="48.91741" lon="5.50042">
        <ele>225.351</ele>
        <time>2019-09-22T12:37:34.001Z</time>
      </trkpt>
      <trkpt lat="48.91738" lon="5.50051">
        <ele>226.7</ele>
        <time>2019-09-22T12:37:37.001Z</time>
      </trkpt>
      <trkpt lat="48.91733" lon="5.50059">
        <ele>227.872</ele>
        <time>2019-09-22T12:37:40.001Z</time>
      </trkpt>
      <trkpt lat="48.91729" lon="5.50068">
        <ele>228.074</ele>
        <time>2019-09-22T12:37:43.001Z</time>
      </trkpt>
      <trkpt lat="48.91723" lon="5.50077">
        <ele>228.864</ele>
        <time>2019-09-22T12:37:46.001Z</time>
      </trkpt>
      <trkpt lat="48.91719" lon="5.50087">
        <ele>229.854</ele>
        <time>2019-09-22T12:37:49.001Z</time>
      </trkpt>
      <trkpt lat="48.91714" lon="5.50095">
        <ele>230.021</ele>
        <time>2019-09-22T12:37:52.001Z</time>
      </trkpt>
      <trkpt lat="48.91708" lon="5.50105">
        <ele>229.828</ele>
        <time>2019-09-22T12:37:55.001Z</time>
      </trkpt>
      <trkpt lat="48.91702" lon="5.50116">
        <ele>230.817</ele>
        <time>2019-09-22T12:37:58.001Z</time>
      </trkpt>
      <trkpt lat="48.91696" lon="5.50126">
        <ele>231.031</ele>
        <time>2019-09-22T12:38:01.001Z</time>
      </trkpt>
      <trkpt lat="48.91689" lon="5.50137">
        <ele>231.842</ele>
        <time>2019-09-22T12:38:04.001Z</time>
      </trkpt>
      <trkpt lat="48.91683" lon="5.50147">
        <ele>232.277</ele>
        <time>2019-09-22T12:38:07.001Z</time>
      </trkpt>
      <trkpt lat="48.91677" lon="5.50157">
        <ele>231.662</ele>
        <time>2019-09-22T12:38:10.001Z</time>
      </trkpt>
      <trkpt lat="48.9167" lon="5.50167">
        <ele>231.234</ele>
        <time>2019-09-22T12:38:13.001Z</time>
      </trkpt>
      <trkpt lat="48.91664" lon="5.50175">
        <ele>230.752</ele>
        <time>2019-09-22T12:38:16.000Z</time>
      </trkpt>
      <trkpt lat="48.91657" lon="5.50184">
        <ele>231.265</ele>
        <time>2019-09-22T12:38:19.001Z</time>
      </trkpt>
      <trkpt lat="48.91651" lon="5.50193">
        <ele>230.917</ele>
        <time>2019-09-22T12:38:22.001Z</time>
      </trkpt>
      <trkpt lat="48.91645" lon="5.50203">
        <ele>231.483</ele>
        <time>2019-09-22T12:38:25.001Z</time>
      </trkpt>
      <trkpt lat="48.91637" lon="5.50212">
        <ele>231.123</ele>
        <time>2019-09-22T12:38:28.001Z</time>
      </trkpt>
      <trkpt lat="48.91627" lon="5.50225">
        <ele>230.342</ele>
        <time>2019-09-22T12:38:31.001Z</time>
      </trkpt>
      <trkpt lat="48.91615" lon="5.50239">
        <ele>230.32</ele>
        <time>2019-09-22T12:38:34.001Z</time>
      </trkpt>
      <trkpt lat="48.91603" lon="5.50253">
        <ele>231.137</ele>
        <time>2019-09-22T12:38:37.001Z</time>
      </trkpt>
      <trkpt lat="48.91588" lon="5.50269">
        <ele>231.693</ele>
        <time>2019-09-22T12:38:40.001Z</time>
      </trkpt>
      <trkpt lat="48.91572" lon="5.50286">
        <ele>230.713</ele>
        <time>2019-09-22T12:38:43.001Z</time>
      </trkpt>
      <trkpt lat="48.91553" lon="5.50303">
        <ele>228.654</ele>
        <time>2019-09-22T12:38:46.001Z</time>
      </trkpt>
      <trkpt lat="48.91535" lon="5.5032">
        <ele>227.011</ele>
        <time>2019-09-22T12:38:49.001Z</time>
      </trkpt>
      <trkpt lat="48.9152" lon="5.50334">
        <ele>224.941</ele>
        <time>2019-09-22T12:38:52.001Z</time>
      </trkpt>
      <trkpt lat="48.91507" lon="5.50346">
        <ele>223.559</ele>
        <time>2019-09-22T12:38:55.001Z</time>
      </trkpt>
      <trkpt lat="48.91494" lon="5.50357">
        <ele>222.595</ele>
        <time>2019-09-22T12:38:58.001Z</time>
      </trkpt>
      <trkpt lat="48.91483" lon="5.50368">
        <ele>221.799</ele>
        <time>2019-09-22T12:39:01.001Z</time>
      </trkpt>
      <trkpt lat="48.91472" lon="5.50379">
        <ele>221.123</ele>
        <time>2019-09-22T12:39:04.001Z</time>
      </trkpt>
      <trkpt lat="48.9146" lon="5.50389">
        <ele>219.82</ele>
        <time>2019-09-22T12:39:07.001Z</time>
      </trkpt>
      <trkpt lat="48.91449" lon="5.50399">
        <ele>219.592</ele>
        <time>2019-09-22T12:39:10.001Z</time>
      </trkpt>
      <trkpt lat="48.91438" lon="5.50409">
        <ele>219.095</ele>
        <time>2019-09-22T12:39:13.001Z</time>
      </trkpt>
      <trkpt lat="48.91428" lon="5.50418">
        <ele>218.713</ele>
        <time>2019-09-22T12:39:16.000Z</time>
      </trkpt>
      <trkpt lat="48.91417" lon="5.50428">
        <ele>218.482</ele>
        <time>2019-09-22T12:39:19.001Z</time>
      </trkpt>
      <trkpt lat="48.91406" lon="5.50438">
        <ele>217.904</ele>
        <time>2019-09-22T12:39:22.001Z</time>
      </trkpt>
      <trkpt lat="48.91396" lon="5.50448">
        <ele>217.419</ele>
        <time>2019-09-22T12:39:25.001Z</time>
      </trkpt>
      <trkpt lat="48.91387" lon="5.50456">
        <ele>217.182</ele>
        <time>2019-09-22T12:39:28.001Z</time>
      </trkpt>
      <trkpt lat="48.91379" lon="5.50465">
        <ele>216.85</ele>
        <time>2019-09-22T12:39:31.001Z</time>
      </trkpt>
      <trkpt lat="48.91369" lon="5.50477">
        <ele>216.538</ele>
        <time>2019-09-22T12:39:34.001Z</time>
      </trkpt>
      <trkpt lat="48.91359" lon="5.5049">
        <ele>216.777</ele>
        <time>2019-09-22T12:39:37.001Z</time>
      </trkpt>
      <trkpt lat="48.91348" lon="5.50504">
        <ele>217.316</ele>
        <time>2019-09-22T12:39:40.001Z</time>
      </trkpt>
      <trkpt lat="48.91338" lon="5.50519">
        <ele>217.736</ele>
        <time>2019-09-22T12:39:43.001Z</time>
      </trkpt>
      <trkpt lat="48.91328" lon="5.50534">
        <ele>218.664</ele>
        <time>2019-09-22T12:39:46.001Z</time>
      </trkpt>
      <trkpt lat="48.91319" lon="5.5055">
        <ele>219.628</ele>
        <time>2019-09-22T12:39:49.001Z</time>
      </trkpt>
      <trkpt lat="48.9131" lon="5.50566">
        <ele>220.434</ele>
        <time>2019-09-22T12:39:52.001Z</time>
      </trkpt>
      <trkpt lat="48.913" lon="5.50583">
        <ele>220.978</ele>
        <time>2019-09-22T12:39:55.001Z</time>
      </trkpt>
      <trkpt lat="48.9129" lon="5.506">
        <ele>221.787</ele>
        <time>2019-09-22T12:39:58.001Z</time>
      </trkpt>
      <trkpt lat="48.91279" lon="5.50616">
        <ele>221.888</ele>
        <time>2019-09-22T12:40:01.001Z</time>
      </trkpt>
      <trkpt lat="48.91268" lon="5.50634">
        <ele>221.946</ele>
        <time>2019-09-22T12:40:04.001Z</time>
      </trkpt>
      <trkpt lat="48.91256" lon="5.50653">
        <ele>222.021</ele>
        <time>2019-09-22T12:40:07.001Z</time>
      </trkpt>
      <trkpt lat="48.91244" lon="5.50672">
        <ele>222.332</ele>
        <time>2019-09-22T12:40:10.001Z</time>
      </trkpt>
      <trkpt lat="48.91232" lon="5.50691">
        <ele>222.298</ele>
        <time>2019-09-22T12:40:13.001Z</time>
      </trkpt>
      <trkpt lat="48.91219" lon="5.50709">
        <ele>222.523</ele>
        <time>2019-09-22T12:40:16.000Z</time>
      </trkpt>
      <trkpt lat="48.91207" lon="5.50728">
        <ele>222.437</ele>
        <time>2019-09-22T12:40:19.001Z</time>
      </trkpt>
      <trkpt lat="48.91196" lon="5.50746">
        <ele>222.067</ele>
        <time>2019-09-22T12:40:22.001Z</time>
      </trkpt>
      <trkpt lat="48.91184" lon="5.50764">
        <ele>221.795</ele>
        <time>2019-09-22T12:40:25.001Z</time>
      </trkpt>
      <trkpt lat="48.91171" lon="5.50784">
        <ele>221.628</ele>
        <time>2019-09-22T12:40:28.001Z</time>
      </trkpt>
      <trkpt lat="48.91159" lon="5.50804">
        <ele>221.52</ele>
        <time>2019-09-22T12:40:31.001Z</time>
      </trkpt>
      <trkpt lat="48.91147" lon="5.50822">
        <ele>221.107</ele>
        <time>2019-09-22T12:40:34.001Z</time>
      </trkpt>
      <trkpt lat="48.91136" lon="5.5084">
        <ele>221.5</ele>
        <time>2019-09-22T12:40:37.001Z</time>
      </trkpt>
      <trkpt lat="48.91125" lon="5.50857">
        <ele>221.717</ele>
        <time>2019-09-22T12:40:40.001Z</time>
      </trkpt>
      <trkpt lat="48.91114" lon="5.50874">
        <ele>221.616</ele>
        <time>2019-09-22T12:40:43.001Z</time>
      </trkpt>
      <trkpt lat="48.91104" lon="5.5089">
        <ele>221.49</ele>
        <time>2019-09-22T12:40:46.001Z</time>
      </trkpt>
      <trkpt lat="48.91093" lon="5.50905">
        <ele>221.373</ele>
        <time>2019-09-22T12:40:49.001Z</time>
      </trkpt>
      <trkpt lat="48.91084" lon="5.5092">
        <ele>221.814</ele>
        <time>2019-09-22T12:40:52.001Z</time>
      </trkpt>
      <trkpt lat="48.91074" lon="5.50935">
        <ele>221.77</ele>
        <time>2019-09-22T12:40:55.001Z</time>
      </trkpt>
      <trkpt lat="48.91064" lon="5.50951">
        <ele>221.574</ele>
        <time>2019-09-22T12:40:58.001Z</time>
      </trkpt>
      <trkpt lat="48.91054" lon="5.50967">
        <ele>221.423</ele>
        <time>2019-09-22T12:41:01.001Z</time>
      </trkpt>
      <trkpt lat="48.91044" lon="5.50983">
        <ele>221.304</ele>
        <time>2019-09-22T12:41:04.001Z</time>
      </trkpt>
      <trkpt lat="48.91034" lon="5.50999">
        <ele>221.289</ele>
        <time>2019-09-22T12:41:07.001Z</time>
      </trkpt>
      <trkpt lat="48.91025" lon="5.51014">
        <ele>221.63</ele>
        <time>2019-09-22T12:41:10.001Z</time>
      </trkpt>
      <trkpt lat="48.91015" lon="5.51031">
        <ele>221.972</ele>
        <time>2019-09-22T12:41:13.001Z</time>
      </trkpt>
      <trkpt lat="48.91005" lon="5.51049">
        <ele>221.609</ele>
        <time>2019-09-22T12:41:16.000Z</time>
      </trkpt>
      <trkpt lat="48.90994" lon="5.51068">
        <ele>221.299</ele>
        <time>2019-09-22T12:41:19.001Z</time>
      </trkpt>
      <trkpt lat="48.90983" lon="5.51087">
        <ele>220.867</ele>
        <time>2019-09-22T12:41:22.001Z</time>
      </trkpt>
      <trkpt lat="48.90971" lon="5.51108">
        <ele>220.714</ele>
        <time>2019-09-22T12:41:25.001Z</time>
      </trkpt>
      <trkpt lat="48.90959" lon="5.51131">
        <ele>220.136</ele>
        <time>2019-09-22T12:41:28.001Z</time>
      </trkpt>
      <trkpt lat="48.90948" lon="5.51152">
        <ele>219.714</ele>
        <time>2019-09-22T12:41:31.001Z</time>
      </trkpt>
      <trkpt lat="48.90936" lon="5.51175">
        <ele>219.475</ele>
        <time>2019-09-22T12:41:34.001Z</time>
      </trkpt>
      <trkpt lat="48.90924" lon="5.51198">
        <ele>219.678</ele>
        <time>2019-09-22T12:41:37.001Z</time>
      </trkpt>
      <trkpt lat="48.90912" lon="5.51219">
        <ele>219.548</ele>
        <time>2019-09-22T12:41:40.001Z</time>
      </trkpt>
      <trkpt lat="48.90899" lon="5.51241">
        <ele>219.402</ele>
        <time>2019-09-22T12:41:43.001Z</time>
      </trkpt>
      <trkpt lat="48.90885" lon="5.51262">
        <ele>219.019</ele>
        <time>2019-09-22T12:41:46.001Z</time>
      </trkpt>
      <trkpt lat="48.90872" lon="5.51282">
        <ele>218.701</ele>
        <time>2019-09-22T12:41:49.001Z</time>
      </trkpt>
      <trkpt lat="48.90859" lon="5.513">
        <ele>218.648</ele>
        <time>2019-09-22T12:41:52.001Z</time>
      </trkpt>
      <trkpt lat="48.90846" lon="5.51315">
        <ele>218.37</ele>
        <time>2019-09-22T12:41:55.001Z</time>
      </trkpt>
      <trkpt lat="48.90834" lon="5.51328">
        <ele>218.33</ele>
        <time>2019-09-22T12:41:58.001Z</time>
      </trkpt>
      <trkpt lat="48.90823" lon="5.5134">
        <ele>218.16</ele>
        <time>2019-09-22T12:42:01.001Z</time>
      </trkpt>
      <trkpt lat="48.90811" lon="5.51353">
        <ele>218.145</ele>
        <time>2019-09-22T12:42:04.001Z</time>
      </trkpt>
      <trkpt lat="48.90799" lon="5.51365">
        <ele>217.744</ele>
        <time>2019-09-22T12:42:07.001Z</time>
      </trkpt>
      <trkpt lat="48.90788" lon="5.51377">
        <ele>217.503</ele>
        <time>2019-09-22T12:42:10.001Z</time>
      </trkpt>
      <trkpt lat="48.90776" lon="5.51391">
        <ele>217.758</ele>
        <time>2019-09-22T12:42:13.001Z</time>
      </trkpt>
      <trkpt lat="48.90765" lon="5.51405">
        <ele>217.884</ele>
        <time>2019-09-22T12:42:16.000Z</time>
      </trkpt>
      <trkpt lat="48.90753" lon="5.5142">
        <ele>217.679</ele>
        <time>2019-09-22T12:42:19.001Z</time>
      </trkpt>
      <trkpt lat="48.90741" lon="5.51433">
        <ele>217.561</ele>
        <time>2019-09-22T12:42:22.001Z</time>
      </trkpt>
      <trkpt lat="48.90729" lon="5.51447">
        <ele>217.255</ele>
        <time>2019-09-22T12:42:25.001Z</time>
      </trkpt>
      <trkpt lat="48.90717" lon="5.51462">
        <ele>217.043</ele>
        <time>2019-09-22T12:42:28.001Z</time>
      </trkpt>
      <trkpt lat="48.90705" lon="5.51475">
        <ele>217.208</ele>
        <time>2019-09-22T12:42:31.001Z</time>
      </trkpt>
      <trkpt lat="48.90692" lon="5.51489">
        <ele>216.592</ele>
        <time>2019-09-22T12:42:34.001Z</time>
      </trkpt>
      <trkpt lat="48.9068" lon="5.51502">
        <ele>215.975</ele>
        <time>2019-09-22T12:42:37.001Z</time>
      </trkpt>
      <trkpt lat="48.90667" lon="5.51516">
        <ele>215.636</ele>
        <time>2019-09-22T12:42:40.001Z</time>
      </trkpt>
      <trkpt lat="48.90654" lon="5.51531">
        <ele>215.287</ele>
        <time>2019-09-22T12:42:43.001Z</time>
      </trkpt>
      <trkpt lat="48.90641" lon="5.51545">
        <ele>215.495</ele>
        <time>2019-09-22T12:42:46.001Z</time>
      </trkpt>
      <trkpt lat="48.90628" lon="5.51559">
        <ele>215.697</ele>
        <time>2019-09-22T12:42:49.001Z</time>
      </trkpt>
      <trkpt lat="48.90616" lon="5.51572">
        <ele>215.179</ele>
        <time>2019-09-22T12:42:52.001Z</time>
      </trkpt>
      <trkpt lat="48.90604" lon="5.51587">
        <ele>215.118</ele>
        <time>2019-09-22T12:42:55.001Z</time>
      </trkpt>
      <trkpt lat="48.90591" lon="5.516">
        <ele>214.971</ele>
        <time>2019-09-22T12:42:58.001Z</time>
      </trkpt>
      <trkpt lat="48.90579" lon="5.51613">
        <ele>215.096</ele>
        <time>2019-09-22T12:43:01.001Z</time>
      </trkpt>
      <trkpt lat="48.90568" lon="5.51626">
        <ele>215.118</ele>
        <time>2019-09-22T12:43:04.001Z</time>
      </trkpt>
      <trkpt lat="48.90557" lon="5.5164">
        <ele>215.117</ele>
        <time>2019-09-22T12:43:07.001Z</time>
      </trkpt>
      <trkpt lat="48.90545" lon="5.51654">
        <ele>215.397</ele>
        <time>2019-09-22T12:43:10.001Z</time>
      </trkpt>
      <trkpt lat="48.90532" lon="5.51668">
        <ele>215.472</ele>
        <time>2019-09-22T12:43:13.001Z</time>
      </trkpt>
      <trkpt lat="48.9052" lon="5.51681">
        <ele>215.255</ele>
        <time>2019-09-22T12:43:16.000Z</time>
      </trkpt>
      <trkpt lat="48.90508" lon="5.51694">
        <ele>214.967</ele>
        <time>2019-09-22T12:43:19.001Z</time>
      </trkpt>
      <trkpt lat="48.90497" lon="5.51707">
        <ele>214.834</ele>
        <time>2019-09-22T12:43:22.001Z</time>
      </trkpt>
      <trkpt lat="48.90485" lon="5.51719">
        <ele>214.376</ele>
        <time>2019-09-22T12:43:25.001Z</time>
      </trkpt>
      <trkpt lat="48.90474" lon="5.51732">
        <ele>214.24</ele>
        <time>2019-09-22T12:43:28.001Z</time>
      </trkpt>
      <trkpt lat="48.90463" lon="5.51744">
        <ele>214.226</ele>
        <time>2019-09-22T12:43:31.001Z</time>
      </trkpt>
      <trkpt lat="48.90453" lon="5.51758">
        <ele>214.621</ele>
        <time>2019-09-22T12:43:34.001Z</time>
      </trkpt>
      <trkpt lat="48.90442" lon="5.51771">
        <ele>214.884</ele>
        <time>2019-09-22T12:43:37.001Z</time>
      </trkpt>
      <trkpt lat="48.90432" lon="5.51784">
        <ele>214.864</ele>
        <time>2019-09-22T12:43:40.001Z</time>
      </trkpt>
      <trkpt lat="48.90421" lon="5.51798">
        <ele>215.046</ele>
        <time>2019-09-22T12:43:43.001Z</time>
      </trkpt>
      <trkpt lat="48.9041" lon="5.51813">
        <ele>214.962</ele>
        <time>2019-09-22T12:43:46.001Z</time>
      </trkpt>
      <trkpt lat="48.90401" lon="5.51826">
        <ele>215.737</ele>
        <time>2019-09-22T12:43:49.001Z</time>
      </trkpt>
      <trkpt lat="48.90391" lon="5.51838">
        <ele>216.353</ele>
        <time>2019-09-22T12:43:52.001Z</time>
      </trkpt>
      <trkpt lat="48.90382" lon="5.5185">
        <ele>216.654</ele>
        <time>2019-09-22T12:43:55.001Z</time>
      </trkpt>
      <trkpt lat="48.90373" lon="5.51863">
        <ele>217.154</ele>
        <time>2019-09-22T12:43:58.001Z</time>
      </trkpt>
      <trkpt lat="48.90365" lon="5.51875">
        <ele>217.576</ele>
        <time>2019-09-22T12:44:01.001Z</time>
      </trkpt>
      <trkpt lat="48.90358" lon="5.51885">
        <ele>217.795</ele>
        <time>2019-09-22T12:44:04.001Z</time>
      </trkpt>
      <trkpt lat="48.90352" lon="5.51894">
        <ele>218.356</ele>
        <time>2019-09-22T12:44:07.001Z</time>
      </trkpt>
      <trkpt lat="48.90346" lon="5.51902">
        <ele>217.771</ele>
        <time>2019-09-22T12:44:10.001Z</time>
      </trkpt>
      <trkpt lat="48.90341" lon="5.5191">
        <ele>217.444</ele>
        <time>2019-09-22T12:44:13.001Z</time>
      </trkpt>
      <trkpt lat="48.90336" lon="5.51918">
        <ele>216.633</ele>
        <time>2019-09-22T12:44:16.000Z</time>
      </trkpt>
      <trkpt lat="48.9033" lon="5.51925">
        <ele>216.518</ele>
        <time>2019-09-22T12:44:19.001Z</time>
      </trkpt>
      <trkpt lat="48.90325" lon="5.51931">
        <ele>216.903</ele>
        <time>2019-09-22T12:44:22.001Z</time>
      </trkpt>
      <trkpt lat="48.9032" lon="5.51938">
        <ele>217.456</ele>
        <time>2019-09-22T12:44:25.001Z</time>
      </trkpt>
      <trkpt lat="48.90316" lon="5.51946">
        <ele>217.426</ele>
        <time>2019-09-22T12:44:28.001Z</time>
      </trkpt>
      <trkpt lat="48.90312" lon="5.51952">
        <ele>217.544</ele>
        <time>2019-09-22T12:44:31.001Z</time>
      </trkpt>
      <trkpt lat="48.90307" lon="5.5196">
        <ele>218.097</ele>
        <time>2019-09-22T12:44:34.001Z</time>
      </trkpt>
      <trkpt lat="48.90304" lon="5.51968">
        <ele>219.111</ele>
        <time>2019-09-22T12:44:37.001Z</time>
      </trkpt>
      <trkpt lat="48.903" lon="5.51977">
        <ele>220.025</ele>
        <time>2019-09-22T12:44:40.001Z</time>
      </trkpt>
      <trkpt lat="48.90296" lon="5.51985">
        <ele>220.043</ele>
        <time>2019-09-22T12:44:43.001Z</time>
      </trkpt>
      <trkpt lat="48.90291" lon="5.51994">
        <ele>220.299</ele>
        <time>2019-09-22T12:44:46.001Z</time>
      </trkpt>
      <trkpt lat="48.90284" lon="5.52">
        <ele>220.381</ele>
        <time>2019-09-22T12:44:49.001Z</time>
      </trkpt>
      <trkpt lat="48.90278" lon="5.52004">
        <ele>219.227</ele>
        <time>2019-09-22T12:44:52.001Z</time>
      </trkpt>
      <trkpt lat="48.90271" lon="5.52006">
        <ele>218.134</ele>
        <time>2019-09-22T12:44:55.001Z</time>
      </trkpt>
      <trkpt lat="48.90265" lon="5.52012">
        <ele>218.84</ele>
        <time>2019-09-22T12:44:58.001Z</time>
      </trkpt>
      <trkpt lat="48.90263" lon="5.52027">
        <ele>219.793</ele>
        <time>2019-09-22T12:45:01.001Z</time>
      </trkpt>
      <trkpt lat="48.90261" lon="5.52045">
        <ele>220.896</ele>
        <time>2019-09-22T12:45:04.001Z</time>
      </trkpt>
      <trkpt lat="48.90259" lon="5.52062">
        <ele>221.154</ele>
        <time>2019-09-22T12:45:07.001Z</time>
      </trkpt>
      <trkpt lat="48.90255" lon="5.52079">
        <ele>221.21</ele>
        <time>2019-09-22T12:45:10.001Z</time>
      </trkpt>
      <trkpt lat="48.9025" lon="5.52096">
        <ele>221.078</ele>
        <time>2019-09-22T12:45:13.001Z</time>
      </trkpt>
      <trkpt lat="48.90245" lon="5.5211">
        <ele>221.949</ele>
        <time>2019-09-22T12:45:16.000Z</time>
      </trkpt>
      <trkpt lat="48.9024" lon="5.52125">
        <ele>222.855</ele>
        <time>2019-09-22T12:45:19.001Z</time>
      </trkpt>
      <trkpt lat="48.90235" lon="5.5214">
        <ele>223.581</ele>
        <time>2019-09-22T12:45:22.001Z</time>
      </trkpt>
      <trkpt lat="48.90229" lon="5.52155">
        <ele>224.898</ele>
        <time>2019-09-22T12:45:25.001Z</time>
      </trkpt>
      <trkpt lat="48.90224" lon="5.5217">
        <ele>226.207</ele>
        <time>2019-09-22T12:45:28.001Z</time>
      </trkpt>
      <trkpt lat="48.9022" lon="5.52185">
        <ele>227.924</ele>
        <time>2019-09-22T12:45:31.001Z</time>
      </trkpt>
      <trkpt lat="48.90215" lon="5.522">
        <ele>229.388</ele>
        <time>2019-09-22T12:45:34.001Z</time>
      </trkpt>
      <trkpt lat="48.90209" lon="5.52215">
        <ele>230.003</ele>
        <time>2019-09-22T12:45:37.001Z</time>
      </trkpt>
      <trkpt lat="48.90203" lon="5.52232">
        <ele>230.249</ele>
        <time>2019-09-22T12:45:40.001Z</time>
      </trkpt>
      <trkpt lat="48.90196" lon="5.52249">
        <ele>229.72</ele>
        <time>2019-09-22T12:45:43.001Z</time>
      </trkpt>
      <trkpt lat="48.9019" lon="5.52267">
        <ele>230.055</ele>
        <time>2019-09-22T12:45:46.001Z</time>
      </trkpt>
      <trkpt lat="48.90183" lon="5.52285">
        <ele>229.882</ele>
        <time>2019-09-22T12:45:49.001Z</time>
      </trkpt>
      <trkpt lat="48.90177" lon="5.52303">
        <ele>229.797</ele>
        <time>2019-09-22T12:45:52.001Z</time>
      </trkpt>
      <trkpt lat="48.9017" lon="5.52322">
        <ele>229.281</ele>
        <time>2019-09-22T12:45:55.001Z</time>
      </trkpt>
      <trkpt lat="48.90163" lon="5.5234">
        <ele>228.87</ele>
        <time>2019-09-22T12:45:58.001Z</time>
      </trkpt>
      <trkpt lat="48.90156" lon="5.5236">
        <ele>228.325</ele>
        <time>2019-09-22T12:46:01.001Z</time>
      </trkpt>
      <trkpt lat="48.9015" lon="5.52381">
        <ele>228.406</ele>
        <time>2019-09-22T12:46:04.001Z</time>
      </trkpt>
      <trkpt lat="48.90142" lon="5.524">
        <ele>227.609</ele>
        <time>2019-09-22T12:46:07.001Z</time>
      </trkpt>
      <trkpt lat="48.90136" lon="5.52421">
        <ele>227.643</ele>
        <time>2019-09-22T12:46:10.001Z</time>
      </trkpt>
      <trkpt lat="48.90128" lon="5.52444">
        <ele>227.377</ele>
        <time>2019-09-22T12:46:13.001Z</time>
      </trkpt>
      <trkpt lat="48.90119" lon="5.5247">
        <ele>226.969</ele>
        <time>2019-09-22T12:46:16.000Z</time>
      </trkpt>
      <trkpt lat="48.90109" lon="5.52499">
        <ele>225.652</ele>
        <time>2019-09-22T12:46:19.001Z</time>
      </trkpt>
      <trkpt lat="48.90098" lon="5.52528">
        <ele>224.62</ele>
        <time>2019-09-22T12:46:22.001Z</time>
      </trkpt>
      <trkpt lat="48.90086" lon="5.52556">
        <ele>224.037</ele>
        <time>2019-09-22T12:46:25.001Z</time>
      </trkpt>
      <trkpt lat="48.90075" lon="5.52583">
        <ele>223.771</ele>
        <time>2019-09-22T12:46:28.001Z</time>
      </trkpt>
      <trkpt lat="48.90065" lon="5.5261">
        <ele>224.031</ele>
        <time>2019-09-22T12:46:31.001Z</time>
      </trkpt>
      <trkpt lat="48.90055" lon="5.52637">
        <ele>224.142</ele>
        <time>2019-09-22T12:46:34.001Z</time>
      </trkpt>
      <trkpt lat="48.90045" lon="5.52664">
        <ele>224.14</ele>
        <time>2019-09-22T12:46:37.001Z</time>
      </trkpt>
      <trkpt lat="48.90036" lon="5.52692">
        <ele>223.759</ele>
        <time>2019-09-22T12:46:40.001Z</time>
      </trkpt>
      <trkpt lat="48.90026" lon="5.5272">
        <ele>223.096</ele>
        <time>2019-09-22T12:46:43.001Z</time>
      </trkpt>
      <trkpt lat="48.90017" lon="5.52746">
        <ele>222.691</ele>
        <time>2019-09-22T12:46:46.001Z</time>
      </trkpt>
      <trkpt lat="48.90009" lon="5.52769">
        <ele>222.716</ele>
        <time>2019-09-22T12:46:49.001Z</time>
      </trkpt>
      <trkpt lat="48.9" lon="5.52791">
        <ele>222.455</ele>
        <time>2019-09-22T12:46:52.001Z</time>
      </trkpt>
      <trkpt lat="48.89992" lon="5.5281">
        <ele>223.042</ele>
        <time>2019-09-22T12:46:55.001Z</time>
      </trkpt>
      <trkpt lat="48.89986" lon="5.52829">
        <ele>223.025</ele>
        <time>2019-09-22T12:46:58.001Z</time>
      </trkpt>
      <trkpt lat="48.8998" lon="5.52848">
        <ele>222.689</ele>
        <time>2019-09-22T12:47:01.001Z</time>
      </trkpt>
      <trkpt lat="48.89974" lon="5.52868">
        <ele>222.64</ele>
        <time>2019-09-22T12:47:04.001Z</time>
      </trkpt>
      <trkpt lat="48.89967" lon="5.52888">
        <ele>222.697</ele>
        <time>2019-09-22T12:47:07.001Z</time>
      </trkpt>
      <trkpt lat="48.8996" lon="5.52907">
        <ele>222.732</ele>
        <time>2019-09-22T12:47:10.001Z</time>
      </trkpt>
      <trkpt lat="48.89953" lon="5.52923">
        <ele>222.818</ele>
        <time>2019-09-22T12:47:13.001Z</time>
      </trkpt>
      <trkpt lat="48.89945" lon="5.5294">
        <ele>223.398</ele>
        <time>2019-09-22T12:47:16.000Z</time>
      </trkpt>
      <trkpt lat="48.89937" lon="5.52957">
        <ele>224.166</ele>
        <time>2019-09-22T12:47:19.001Z</time>
      </trkpt>
      <trkpt lat="48.89928" lon="5.52975">
        <ele>224.12</ele>
        <time>2019-09-22T12:47:22.001Z</time>
      </trkpt>
      <trkpt lat="48.8992" lon="5.52991">
        <ele>223.855</ele>
        <time>2019-09-22T12:47:25.001Z</time>
      </trkpt>
      <trkpt lat="48.89913" lon="5.53007">
        <ele>224.479</ele>
        <time>2019-09-22T12:47:28.001Z</time>
      </trkpt>
      <trkpt lat="48.89906" lon="5.53023">
        <ele>224.779</ele>
        <time>2019-09-22T12:47:31.001Z</time>
      </trkpt>
      <trkpt lat="48.89898" lon="5.53039">
        <ele>224.514</ele>
        <time>2019-09-22T12:47:34.001Z</time>
      </trkpt>
      <trkpt lat="48.8989" lon="5.53055">
        <ele>224.798</ele>
        <time>2019-09-22T12:47:37.001Z</time>
      </trkpt>
      <trkpt lat="48.89881" lon="5.53071">
        <ele>225.2</ele>
        <time>2019-09-22T12:47:40.001Z</time>
      </trkpt>
      <trkpt lat="48.89871" lon="5.53087">
        <ele>224.792</ele>
        <time>2019-09-22T12:47:43.001Z</time>
      </trkpt>
      <trkpt lat="48.89865" lon="5.53103">
        <ele>225.015</ele>
        <time>2019-09-22T12:47:46.001Z</time>
      </trkpt>
      <trkpt lat="48.8986" lon="5.53113">
        <ele>225.709</ele>
        <time>2019-09-22T12:47:49.001Z</time>
      </trkpt>
      <trkpt lat="48.89855" lon="5.53122">
        <ele>227.573</ele>
        <time>2019-09-22T12:47:55.001Z</time>
      </trkpt>
      <trkpt lat="48.89855" lon="5.53122">
        <ele>227.911</ele>
        <time>2019-09-22T12:47:58.001Z</time>
      </trkpt>
      <trkpt lat="48.89855" lon="5.53122">
        <ele>227.911</ele>
        <time>2019-09-22T12:54:40.001Z</time>
      </trkpt>
      <trkpt lat="48.89855" lon="5.53123">
        <ele>228.123</ele>
        <time>2019-09-22T12:54:43.001Z</time>
      </trkpt>
      <trkpt lat="48.89851" lon="5.53129">
        <ele>227.6</ele>
        <time>2019-09-22T12:54:46.001Z</time>
      </trkpt>
      <trkpt lat="48.89842" lon="5.53138">
        <ele>228.353</ele>
        <time>2019-09-22T12:54:52.001Z</time>
      </trkpt>
      <trkpt lat="48.89837" lon="5.53148">
        <ele>228.042</ele>
        <time>2019-09-22T12:54:55.001Z</time>
      </trkpt>
      <trkpt lat="48.89831" lon="5.53161">
        <ele>227.88</ele>
        <time>2019-09-22T12:54:58.001Z</time>
      </trkpt>
      <trkpt lat="48.89826" lon="5.53176">
        <ele>227.228</ele>
        <time>2019-09-22T12:55:01.001Z</time>
      </trkpt>
      <trkpt lat="48.89819" lon="5.53189">
        <ele>227.38</ele>
        <time>2019-09-22T12:55:04.001Z</time>
      </trkpt>
      <trkpt lat="48.89812" lon="5.532">
        <ele>227.709</ele>
        <time>2019-09-22T12:55:07.001Z</time>
      </trkpt>
      <trkpt lat="48.89807" lon="5.53211">
        <ele>227.19</ele>
        <time>2019-09-22T12:55:10.001Z</time>
      </trkpt>
      <trkpt lat="48.89801" lon="5.53223">
        <ele>226.395</ele>
        <time>2019-09-22T12:55:13.001Z</time>
      </trkpt>
      <trkpt lat="48.89794" lon="5.53236">
        <ele>225.921</ele>
        <time>2019-09-22T12:55:16.000Z</time>
      </trkpt>
      <trkpt lat="48.89788" lon="5.53248">
        <ele>225.434</ele>
        <time>2019-09-22T12:55:19.001Z</time>
      </trkpt>
      <trkpt lat="48.89781" lon="5.5326">
        <ele>225.226</ele>
        <time>2019-09-22T12:55:22.001Z</time>
      </trkpt>
      <trkpt lat="48.89775" lon="5.53272">
        <ele>224.995</ele>
        <time>2019-09-22T12:55:25.001Z</time>
      </trkpt>
      <trkpt lat="48.89769" lon="5.53284">
        <ele>224.814</ele>
        <time>2019-09-22T12:55:28.001Z</time>
      </trkpt>
      <trkpt lat="48.89763" lon="5.53297">
        <ele>224.439</ele>
        <time>2019-09-22T12:55:31.001Z</time>
      </trkpt>
      <trkpt lat="48.89757" lon="5.53309">
        <ele>224.674</ele>
        <time>2019-09-22T12:55:34.001Z</time>
      </trkpt>
      <trkpt lat="48.8975" lon="5.53324">
        <ele>225.067</ele>
        <time>2019-09-22T12:55:37.001Z</time>
      </trkpt>
      <trkpt lat="48.89742" lon="5.53336">
        <ele>226.362</ele>
        <time>2019-09-22T12:55:40.001Z</time>
      </trkpt>
      <trkpt lat="48.89734" lon="5.5335">
        <ele>227.348</ele>
        <time>2019-09-22T12:55:43.001Z</time>
      </trkpt>
      <trkpt lat="48.89726" lon="5.53367">
        <ele>227.614</ele>
        <time>2019-09-22T12:55:46.001Z</time>
      </trkpt>
      <trkpt lat="48.89719" lon="5.53382">
        <ele>227.406</ele>
        <time>2019-09-22T12:55:49.001Z</time>
      </trkpt>
      <trkpt lat="48.89711" lon="5.53398">
        <ele>226.69</ele>
        <time>2019-09-22T12:55:52.001Z</time>
      </trkpt>
      <trkpt lat="48.89704" lon="5.53415">
        <ele>226.028</ele>
        <time>2019-09-22T12:55:55.001Z</time>
      </trkpt>
      <trkpt lat="48.89696" lon="5.53431">
        <ele>225.17</ele>
        <time>2019-09-22T12:55:58.001Z</time>
      </trkpt>
      <trkpt lat="48.89688" lon="5.53446">
        <ele>224.787</ele>
        <time>2019-09-22T12:56:01.001Z</time>
      </trkpt>
      <trkpt lat="48.89679" lon="5.53461">
        <ele>225.198</ele>
        <time>2019-09-22T12:56:04.001Z</time>
      </trkpt>
      <trkpt lat="48.8967" lon="5.53476">
        <ele>225.211</ele>
        <time>2019-09-22T12:56:07.001Z</time>
      </trkpt>
      <trkpt lat="48.89661" lon="5.53491">
        <ele>225.993</ele>
        <time>2019-09-22T12:56:10.001Z</time>
      </trkpt>
      <trkpt lat="48.89654" lon="5.53508">
        <ele>226</ele>
        <time>2019-09-22T12:56:13.001Z</time>
      </trkpt>
      <trkpt lat="48.89647" lon="5.53525">
        <ele>225.834</ele>
        <time>2019-09-22T12:56:16.000Z</time>
      </trkpt>
      <trkpt lat="48.89638" lon="5.53542">
        <ele>224.96</ele>
        <time>2019-09-22T12:56:19.001Z</time>
      </trkpt>
      <trkpt lat="48.89628" lon="5.5356">
        <ele>224.512</ele>
        <time>2019-09-22T12:56:22.001Z</time>
      </trkpt>
      <trkpt lat="48.89619" lon="5.53576">
        <ele>224.853</ele>
        <time>2019-09-22T12:56:25.001Z</time>
      </trkpt>
      <trkpt lat="48.89608" lon="5.53595">
        <ele>224.925</ele>
        <time>2019-09-22T12:56:28.001Z</time>
      </trkpt>
      <trkpt lat="48.89599" lon="5.53616">
        <ele>225.082</ele>
        <time>2019-09-22T12:56:31.001Z</time>
      </trkpt>
      <trkpt lat="48.89587" lon="5.53637">
        <ele>225.153</ele>
        <time>2019-09-22T12:56:34.001Z</time>
      </trkpt>
      <trkpt lat="48.89571" lon="5.53649">
        <ele>224.823</ele>
        <time>2019-09-22T12:56:37.001Z</time>
      </trkpt>
      <trkpt lat="48.89556" lon="5.5366">
        <ele>224.188</ele>
        <time>2019-09-22T12:56:40.001Z</time>
      </trkpt>
      <trkpt lat="48.8954" lon="5.53671">
        <ele>223.128</ele>
        <time>2019-09-22T12:56:43.001Z</time>
      </trkpt>
      <trkpt lat="48.89525" lon="5.53679">
        <ele>221.671</ele>
        <time>2019-09-22T12:56:46.001Z</time>
      </trkpt>
      <trkpt lat="48.89511" lon="5.53684">
        <ele>220.657</ele>
        <time>2019-09-22T12:56:49.001Z</time>
      </trkpt>
      <trkpt lat="48.89497" lon="5.53688">
        <ele>220.193</ele>
        <time>2019-09-22T12:56:52.001Z</time>
      </trkpt>
      <trkpt lat="48.89485" lon="5.53694">
        <ele>219.581</ele>
        <time>2019-09-22T12:56:55.001Z</time>
      </trkpt>
      <trkpt lat="48.89474" lon="5.53703">
        <ele>219.306</ele>
        <time>2019-09-22T12:56:58.001Z</time>
      </trkpt>
      <trkpt lat="48.89463" lon="5.53713">
        <ele>218.391</ele>
        <time>2019-09-22T12:57:01.001Z</time>
      </trkpt>
      <trkpt lat="48.89453" lon="5.53723">
        <ele>217.979</ele>
        <time>2019-09-22T12:57:04.001Z</time>
      </trkpt>
      <trkpt lat="48.89445" lon="5.53733">
        <ele>217.804</ele>
        <time>2019-09-22T12:57:07.001Z</time>
      </trkpt>
      <trkpt lat="48.89438" lon="5.5373">
        <ele>217.673</ele>
        <time>2019-09-22T12:57:10.001Z</time>
      </trkpt>
      <trkpt lat="48.89435" lon="5.53719">
        <ele>217.306</ele>
        <time>2019-09-22T12:57:13.001Z</time>
      </trkpt>
      <trkpt lat="48.89436" lon="5.53709">
        <ele>215.95</ele>
        <time>2019-09-22T12:57:16.000Z</time>
      </trkpt>
      <trkpt lat="48.89435" lon="5.53699">
        <ele>214.228</ele>
        <time>2019-09-22T12:57:19.001Z</time>
      </trkpt>
      <trkpt lat="48.89434" lon="5.53692">
        <ele>213.383</ele>
        <time>2019-09-22T12:57:22.001Z</time>
      </trkpt>
      <trkpt lat="48.89433" lon="5.53692">
        <ele>213.528</ele>
        <time>2019-09-22T12:57:25.001Z</time>
      </trkpt>
      <trkpt lat="48.89433" lon="5.53692">
        <ele>213.528</ele>
        <time>2019-09-22T12:57:49.001Z</time>
      </trkpt>
      <trkpt lat="48.89434" lon="5.53692">
        <ele>214.091</ele>
        <time>2019-09-22T12:57:52.001Z</time>
      </trkpt>
      <trkpt lat="48.89434" lon="5.5369">
        <ele>215.153</ele>
        <time>2019-09-22T12:57:55.001Z</time>
      </trkpt>
      <trkpt lat="48.89433" lon="5.53688">
        <ele>215.313</ele>
        <time>2019-09-22T12:57:58.001Z</time>
      </trkpt>
      <trkpt lat="48.89433" lon="5.53688">
        <ele>215.852</ele>
        <time>2019-09-22T13:02:01.001Z</time>
      </trkpt>
      <trkpt lat="48.89433" lon="5.53689">
        <ele>215.852</ele>
        <time>2019-09-22T13:02:04.001Z</time>
      </trkpt>
      <trkpt lat="48.89432" lon="5.53691">
        <ele>217.094</ele>
        <time>2019-09-22T13:02:22.001Z</time>
      </trkpt>
      <trkpt lat="48.89432" lon="5.53691">
        <ele>217.094</ele>
        <time>2019-09-22T13:02:25.001Z</time>
      </trkpt>
      <trkpt lat="48.89432" lon="5.53691">
        <ele>217.094</ele>
        <time>2019-09-22T13:02:28.001Z</time>
      </trkpt>
      <trkpt lat="48.89432" lon="5.53692">
        <ele>217.094</ele>
        <time>2019-09-22T13:02:31.001Z</time>
      </trkpt>
      <trkpt lat="48.89432" lon="5.53692">
        <ele>217.094</ele>
        <time>2019-09-22T13:02:34.001Z</time>
      </trkpt>
      <trkpt lat="48.89432" lon="5.53692">
        <ele>217.094</ele>
        <time>2019-09-22T13:02:37.001Z</time>
      </trkpt>
      <trkpt lat="48.89432" lon="5.53692">
        <ele>217.094</ele>
        <time>2019-09-22T13:03:49.001Z</time>
      </trkpt>
      <trkpt lat="48.89432" lon="5.53692">
        <ele>217.094</ele>
        <time>2019-09-22T13:03:52.001Z</time>
      </trkpt>
      <trkpt lat="48.89432" lon="5.53692">
        <ele>217.094</ele>
        <time>2019-09-22T13:03:55.001Z</time>
      </trkpt>
      <trkpt lat="48.89432" lon="5.53692">
        <ele>217.094</ele>
        <time>2019-09-22T13:03:58.001Z</time>
      </trkpt>
      <trkpt lat="48.89432" lon="5.53692">
        <ele>217.129</ele>
        <time>2019-09-22T13:08:55.001Z</time>
      </trkpt>
      <trkpt lat="48.89432" lon="5.53691">
        <ele>217.129</ele>
        <time>2019-09-22T13:08:58.001Z</time>
      </trkpt>
      <trkpt lat="48.89432" lon="5.53691">
        <ele>217.129</ele>
        <time>2019-09-22T13:09:07.001Z</time>
      </trkpt>
      <trkpt lat="48.89432" lon="5.53691">
        <ele>217.129</ele>
        <time>2019-09-22T13:09:10.001Z</time>
      </trkpt>
      <trkpt lat="48.89432" lon="5.53691">
        <ele>217.129</ele>
        <time>2019-09-22T13:09:34.001Z</time>
      </trkpt>
      <trkpt lat="48.89432" lon="5.53691">
        <ele>217.129</ele>
        <time>2019-09-22T13:09:37.001Z</time>
      </trkpt>
      <trkpt lat="48.89432" lon="5.53691">
        <ele>217.129</ele>
        <time>2019-09-22T13:09:40.001Z</time>
      </trkpt>
      <trkpt lat="48.89432" lon="5.53691">
        <ele>217.129</ele>
        <time>2019-09-22T13:09:43.001Z</time>
      </trkpt>
      <trkpt lat="48.89432" lon="5.53691">
        <ele>216.837</ele>
        <time>2019-09-22T13:11:01.001Z</time>
      </trkpt>
      <trkpt lat="48.89433" lon="5.53692">
        <ele>216.837</ele>
        <time>2019-09-22T13:11:04.001Z</time>
      </trkpt>
      <trkpt lat="48.89433" lon="5.53692">
        <ele>216.837</ele>
        <time>2019-09-22T13:11:07.001Z</time>
      </trkpt>
      <trkpt lat="48.89433" lon="5.53692">
        <ele>216.837</ele>
        <time>2019-09-22T13:11:10.001Z</time>
      </trkpt>
      <trkpt lat="48.89433" lon="5.53692">
        <ele>216.837</ele>
        <time>2019-09-22T13:11:13.001Z</time>
      </trkpt>
      <trkpt lat="48.89433" lon="5.53692">
        <ele>216.837</ele>
        <time>2019-09-22T13:11:25.001Z</time>
      </trkpt>
      <trkpt lat="48.89433" lon="5.53692">
        <ele>216.837</ele>
        <time>2019-09-22T13:11:28.001Z</time>
      </trkpt>
      <trkpt lat="48.89433" lon="5.53692">
        <ele>216.837</ele>
        <time>2019-09-22T13:13:34.001Z</time>
      </trkpt>
      <trkpt lat="48.89433" lon="5.53692">
        <ele>216.837</ele>
        <time>2019-09-22T13:13:37.001Z</time>
      </trkpt>
      <trkpt lat="48.89433" lon="5.53692">
        <ele>216.837</ele>
        <time>2019-09-22T13:13:43.001Z</time>
      </trkpt>
      <trkpt lat="48.89433" lon="5.53692">
        <ele>216.837</ele>
        <time>2019-09-22T13:13:46.001Z</time>
      </trkpt>
      <trkpt lat="48.89433" lon="5.53692">
        <ele>216.837</ele>
        <time>2019-09-22T13:17:22.001Z</time>
      </trkpt>
      <trkpt lat="48.89433" lon="5.53692">
        <ele>216.837</ele>
        <time>2019-09-22T13:17:25.001Z</time>
      </trkpt>
      <trkpt lat="48.89433" lon="5.53692">
        <ele>216.837</ele>
        <time>2019-09-22T13:17:28.001Z</time>
      </trkpt>
      <trkpt lat="48.89433" lon="5.53692">
        <ele>218.901</ele>
        <time>2019-09-22T13:24:37.001Z</time>
      </trkpt>
      <trkpt lat="48.89435" lon="5.53692">
        <ele>218.901</ele>
        <time>2019-09-22T13:24:40.001Z</time>
      </trkpt>
      <trkpt lat="48.89435" lon="5.53692">
        <ele>218.901</ele>
        <time>2019-09-22T13:24:43.001Z</time>
      </trkpt>
      <trkpt lat="48.89435" lon="5.53692">
        <ele>218.901</ele>
        <time>2019-09-22T13:27:25.001Z</time>
      </trkpt>
      <trkpt lat="48.89434" lon="5.53692">
        <ele>218.901</ele>
        <time>2019-09-22T13:27:28.001Z</time>
      </trkpt>
      <trkpt lat="48.89435" lon="5.53692">
        <ele>218.901</ele>
        <time>2019-09-22T13:27:40.001Z</time>
      </trkpt>
      <trkpt lat="48.89435" lon="5.53692">
        <ele>218.901</ele>
        <time>2019-09-22T13:27:43.001Z</time>
      </trkpt>
      <trkpt lat="48.89435" lon="5.53692">
        <ele>218.901</ele>
        <time>2019-09-22T13:28:01.001Z</time>
      </trkpt>
      <trkpt lat="48.89434" lon="5.53692">
        <ele>218.828</ele>
        <time>2019-09-22T13:28:04.001Z</time>
      </trkpt>
      <trkpt lat="48.89432" lon="5.53695">
        <ele>219.024</ele>
        <time>2019-09-22T13:28:16.000Z</time>
      </trkpt>
      <trkpt lat="48.89432" lon="5.53695">
        <ele>219.024</ele>
        <time>2019-09-22T13:28:19.001Z</time>
      </trkpt>
      <trkpt lat="48.89432" lon="5.53695">
        <ele>219.024</ele>
        <time>2019-09-22T13:28:22.001Z</time>
      </trkpt>
      <trkpt lat="48.89432" lon="5.53694">
        <ele>219.024</ele>
        <time>2019-09-22T13:28:25.001Z</time>
      </trkpt>
      <trkpt lat="48.89432" lon="5.53694">
        <ele>219.024</ele>
        <time>2019-09-22T13:28:28.001Z</time>
      </trkpt>
      <trkpt lat="48.89432" lon="5.53694">
        <ele>219.024</ele>
        <time>2019-09-22T13:28:31.001Z</time>
      </trkpt>
      <trkpt lat="48.89432" lon="5.53694">
        <ele>219.623</ele>
        <time>2019-09-22T13:32:31.001Z</time>
      </trkpt>
      <trkpt lat="48.89432" lon="5.53694">
        <ele>219.716</ele>
        <time>2019-09-22T13:32:34.001Z</time>
      </trkpt>
      <trkpt lat="48.89432" lon="5.53695">
        <ele>219.716</ele>
        <time>2019-09-22T13:32:46.001Z</time>
      </trkpt>
      <trkpt lat="48.89432" lon="5.53695">
        <ele>219.716</ele>
        <time>2019-09-22T13:32:49.001Z</time>
      </trkpt>
      <trkpt lat="48.89432" lon="5.53695">
        <ele>219.716</ele>
        <time>2019-09-22T13:34:37.001Z</time>
      </trkpt>
      <trkpt lat="48.89432" lon="5.53695">
        <ele>219.716</ele>
        <time>2019-09-22T13:34:40.001Z</time>
      </trkpt>
      <trkpt lat="48.89432" lon="5.53695">
        <ele>219.716</ele>
        <time>2019-09-22T13:34:55.001Z</time>
      </trkpt>
      <trkpt lat="48.89432" lon="5.53695">
        <ele>219.716</ele>
        <time>2019-09-22T13:34:58.001Z</time>
      </trkpt>
      <trkpt lat="48.89432" lon="5.53695">
        <ele>220.079</ele>
        <time>2019-09-22T13:36:22.001Z</time>
      </trkpt>
      <trkpt lat="48.89415" lon="5.53706">
        <ele>220.964</ele>
        <time>2019-09-22T13:36:25.001Z</time>
      </trkpt>
      <trkpt lat="48.89411" lon="5.53717">
        <ele>221.747</ele>
        <time>2019-09-22T13:36:28.001Z</time>
      </trkpt>
      <trkpt lat="48.89407" lon="5.53732">
        <ele>222.268</ele>
        <time>2019-09-22T13:36:31.001Z</time>
      </trkpt>
      <trkpt lat="48.89406" lon="5.53745">
        <ele>222.591</ele>
        <time>2019-09-22T13:36:34.001Z</time>
      </trkpt>
      <trkpt lat="48.89406" lon="5.53758">
        <ele>222.568</ele>
        <time>2019-09-22T13:36:37.001Z</time>
      </trkpt>
      <trkpt lat="48.89403" lon="5.53768">
        <ele>223.259</ele>
        <time>2019-09-22T13:36:40.001Z</time>
      </trkpt>
      <trkpt lat="48.89399" lon="5.53777">
        <ele>223.97</ele>
        <time>2019-09-22T13:36:43.001Z</time>
      </trkpt>
      <trkpt lat="48.89394" lon="5.53786">
        <ele>224.012</ele>
        <time>2019-09-22T13:36:46.001Z</time>
      </trkpt>
      <trkpt lat="48.89389" lon="5.53794">
        <ele>224.057</ele>
        <time>2019-09-22T13:36:49.001Z</time>
      </trkpt>
      <trkpt lat="48.89385" lon="5.53801">
        <ele>224.659</ele>
        <time>2019-09-22T13:36:52.001Z</time>
      </trkpt>
      <trkpt lat="48.8938" lon="5.53809">
        <ele>224.575</ele>
        <time>2019-09-22T13:36:55.001Z</time>
      </trkpt>
      <trkpt lat="48.89375" lon="5.53818">
        <ele>224.515</ele>
        <time>2019-09-22T13:36:58.001Z</time>
      </trkpt>
      <trkpt lat="48.89369" lon="5.53828">
        <ele>224.787</ele>
        <time>2019-09-22T13:37:01.001Z</time>
      </trkpt>
      <trkpt lat="48.89363" lon="5.53838">
        <ele>225.035</ele>
        <time>2019-09-22T13:37:04.001Z</time>
      </trkpt>
      <trkpt lat="48.89358" lon="5.53849">
        <ele>224.567</ele>
        <time>2019-09-22T13:37:07.001Z</time>
      </trkpt>
      <trkpt lat="48.89352" lon="5.53861">
        <ele>224.87</ele>
        <time>2019-09-22T13:37:10.001Z</time>
      </trkpt>
      <trkpt lat="48.89345" lon="5.53872">
        <ele>225.154</ele>
        <time>2019-09-22T13:37:13.001Z</time>
      </trkpt>
      <trkpt lat="48.89339" lon="5.53884">
        <ele>225.436</ele>
        <time>2019-09-22T13:37:16.000Z</time>
      </trkpt>
      <trkpt lat="48.89332" lon="5.53897">
        <ele>224.884</ele>
        <time>2019-09-22T13:37:19.001Z</time>
      </trkpt>
      <trkpt lat="48.89324" lon="5.53914">
        <ele>223.899</ele>
        <time>2019-09-22T13:37:22.001Z</time>
      </trkpt>
      <trkpt lat="48.89315" lon="5.53934">
        <ele>223.48</ele>
        <time>2019-09-22T13:37:25.001Z</time>
      </trkpt>
      <trkpt lat="48.89305" lon="5.53955">
        <ele>223.632</ele>
        <time>2019-09-22T13:37:28.001Z</time>
      </trkpt>
      <trkpt lat="48.89294" lon="5.53978">
        <ele>223.95</ele>
        <time>2019-09-22T13:37:31.001Z</time>
      </trkpt>
      <trkpt lat="48.89284" lon="5.54002">
        <ele>224.471</ele>
        <time>2019-09-22T13:37:34.001Z</time>
      </trkpt>
      <trkpt lat="48.89277" lon="5.54023">
        <ele>224.892</ele>
        <time>2019-09-22T13:37:37.001Z</time>
      </trkpt>
      <trkpt lat="48.8927" lon="5.54039">
        <ele>225.658</ele>
        <time>2019-09-22T13:37:40.001Z</time>
      </trkpt>
      <trkpt lat="48.89261" lon="5.54053">
        <ele>227.52</ele>
        <time>2019-09-22T13:37:43.001Z</time>
      </trkpt>
      <trkpt lat="48.89253" lon="5.54066">
        <ele>227.705</ele>
        <time>2019-09-22T13:37:46.001Z</time>
      </trkpt>
      <trkpt lat="48.89247" lon="5.54079">
        <ele>227.692</ele>
        <time>2019-09-22T13:37:49.001Z</time>
      </trkpt>
      <trkpt lat="48.89241" lon="5.54091">
        <ele>228.007</ele>
        <time>2019-09-22T13:37:52.001Z</time>
      </trkpt>
      <trkpt lat="48.89237" lon="5.541">
        <ele>228.335</ele>
        <time>2019-09-22T13:37:55.001Z</time>
      </trkpt>
      <trkpt lat="48.8923" lon="5.54099">
        <ele>229.835</ele>
        <time>2019-09-22T13:37:58.001Z</time>
      </trkpt>
      <trkpt lat="48.89228" lon="5.54098">
        <ele>230.255</ele>
        <time>2019-09-22T13:38:01.001Z</time>
      </trkpt>
      <trkpt lat="48.89228" lon="5.54098">
        <ele>229.152</ele>
        <time>2019-09-22T13:42:28.001Z</time>
      </trkpt>
      <trkpt lat="48.89221" lon="5.54111">
        <ele>229.352</ele>
        <time>2019-09-22T13:42:31.001Z</time>
      </trkpt>
      <trkpt lat="48.89216" lon="5.54116">
        <ele>231.046</ele>
        <time>2019-09-22T13:42:34.001Z</time>
      </trkpt>
      <trkpt lat="48.89208" lon="5.54114">
        <ele>231.936</ele>
        <time>2019-09-22T13:42:37.001Z</time>
      </trkpt>
      <trkpt lat="48.89196" lon="5.5411">
        <ele>232.102</ele>
        <time>2019-09-22T13:42:40.001Z</time>
      </trkpt>
      <trkpt lat="48.89184" lon="5.54107">
        <ele>232.24</ele>
        <time>2019-09-22T13:42:43.001Z</time>
      </trkpt>
      <trkpt lat="48.89172" lon="5.54103">
        <ele>232.313</ele>
        <time>2019-09-22T13:42:46.001Z</time>
      </trkpt>
      <trkpt lat="48.89161" lon="5.541">
        <ele>232.499</ele>
        <time>2019-09-22T13:42:49.001Z</time>
      </trkpt>
      <trkpt lat="48.89148" lon="5.54094">
        <ele>232.228</ele>
        <time>2019-09-22T13:42:52.001Z</time>
      </trkpt>
      <trkpt lat="48.89136" lon="5.54087">
        <ele>231.953</ele>
        <time>2019-09-22T13:42:55.001Z</time>
      </trkpt>
      <trkpt lat="48.89127" lon="5.5408">
        <ele>232.641</ele>
        <time>2019-09-22T13:42:58.001Z</time>
      </trkpt>
      <trkpt lat="48.89118" lon="5.54076">
        <ele>232.929</ele>
        <time>2019-09-22T13:43:01.001Z</time>
      </trkpt>
      <trkpt lat="48.89107" lon="5.54075">
        <ele>232.633</ele>
        <time>2019-09-22T13:43:04.001Z</time>
      </trkpt>
      <trkpt lat="48.89094" lon="5.54076">
        <ele>232.701</ele>
        <time>2019-09-22T13:43:07.001Z</time>
      </trkpt>
      <trkpt lat="48.89079" lon="5.54078">
        <ele>232.801</ele>
        <time>2019-09-22T13:43:10.001Z</time>
      </trkpt>
      <trkpt lat="48.89063" lon="5.54082">
        <ele>233.195</ele>
        <time>2019-09-22T13:43:13.001Z</time>
      </trkpt>
      <trkpt lat="48.89049" lon="5.54086">
        <ele>234.004</ele>
        <time>2019-09-22T13:43:16.000Z</time>
      </trkpt>
      <trkpt lat="48.89036" lon="5.54088">
        <ele>235.451</ele>
        <time>2019-09-22T13:43:19.001Z</time>
      </trkpt>
      <trkpt lat="48.89021" lon="5.54088">
        <ele>235.643</ele>
        <time>2019-09-22T13:43:22.001Z</time>
      </trkpt>
      <trkpt lat="48.89007" lon="5.54089">
        <ele>235.703</ele>
        <time>2019-09-22T13:43:25.001Z</time>
      </trkpt>
      <trkpt lat="48.88995" lon="5.54091">
        <ele>235.523</ele>
        <time>2019-09-22T13:43:28.001Z</time>
      </trkpt>
      <trkpt lat="48.88985" lon="5.54088">
        <ele>234.309</ele>
        <time>2019-09-22T13:43:31.001Z</time>
      </trkpt>
      <trkpt lat="48.88975" lon="5.54086">
        <ele>233.927</ele>
        <time>2019-09-22T13:43:34.001Z</time>
      </trkpt>
      <trkpt lat="48.88962" lon="5.54085">
        <ele>232.595</ele>
        <time>2019-09-22T13:43:37.001Z</time>
      </trkpt>
      <trkpt lat="48.8895" lon="5.54082">
        <ele>230.886</ele>
        <time>2019-09-22T13:43:40.001Z</time>
      </trkpt>
      <trkpt lat="48.8894" lon="5.54076">
        <ele>229.558</ele>
        <time>2019-09-22T13:43:43.001Z</time>
      </trkpt>
      <trkpt lat="48.8893" lon="5.54067">
        <ele>227.7</ele>
        <time>2019-09-22T13:43:46.001Z</time>
      </trkpt>
      <trkpt lat="48.88919" lon="5.54058">
        <ele>226.561</ele>
        <time>2019-09-22T13:43:49.001Z</time>
      </trkpt>
      <trkpt lat="48.88908" lon="5.54049">
        <ele>226.192</ele>
        <time>2019-09-22T13:43:52.001Z</time>
      </trkpt>
      <trkpt lat="48.88898" lon="5.5404">
        <ele>225.83</ele>
        <time>2019-09-22T13:43:55.001Z</time>
      </trkpt>
      <trkpt lat="48.88887" lon="5.54035">
        <ele>226.084</ele>
        <time>2019-09-22T13:43:58.001Z</time>
      </trkpt>
      <trkpt lat="48.88876" lon="5.54035">
        <ele>226.655</ele>
        <time>2019-09-22T13:44:01.001Z</time>
      </trkpt>
      <trkpt lat="48.88868" lon="5.54046">
        <ele>227.926</ele>
        <time>2019-09-22T13:44:04.001Z</time>
      </trkpt>
      <trkpt lat="48.88865" lon="5.54063">
        <ele>229.078</ele>
        <time>2019-09-22T13:44:07.001Z</time>
      </trkpt>
      <trkpt lat="48.88862" lon="5.54079">
        <ele>230.123</ele>
        <time>2019-09-22T13:44:10.001Z</time>
      </trkpt>
      <trkpt lat="48.88858" lon="5.54095">
        <ele>231.274</ele>
        <time>2019-09-22T13:44:13.001Z</time>
      </trkpt>
      <trkpt lat="48.88856" lon="5.5411">
        <ele>231.923</ele>
        <time>2019-09-22T13:44:16.000Z</time>
      </trkpt>
      <trkpt lat="48.88853" lon="5.54125">
        <ele>232.912</ele>
        <time>2019-09-22T13:44:19.001Z</time>
      </trkpt>
      <trkpt lat="48.8885" lon="5.5414">
        <ele>234.289</ele>
        <time>2019-09-22T13:44:22.001Z</time>
      </trkpt>
      <trkpt lat="48.88846" lon="5.5415">
        <ele>235.113</ele>
        <time>2019-09-22T13:44:25.001Z</time>
      </trkpt>
      <trkpt lat="48.88837" lon="5.54163">
        <ele>235.59</ele>
        <time>2019-09-22T13:44:28.001Z</time>
      </trkpt>
      <trkpt lat="48.88829" lon="5.54179">
        <ele>237.058</ele>
        <time>2019-09-22T13:44:31.001Z</time>
      </trkpt>
      <trkpt lat="48.88822" lon="5.54205">
        <ele>237.167</ele>
        <time>2019-09-22T13:44:34.001Z</time>
      </trkpt>
      <trkpt lat="48.88817" lon="5.54229">
        <ele>235.985</ele>
        <time>2019-09-22T13:44:37.001Z</time>
      </trkpt>
      <trkpt lat="48.88814" lon="5.54246">
        <ele>235.995</ele>
        <time>2019-09-22T13:44:40.001Z</time>
      </trkpt>
      <trkpt lat="48.88812" lon="5.54263">
        <ele>236.693</ele>
        <time>2019-09-22T13:44:43.001Z</time>
      </trkpt>
      <trkpt lat="48.88811" lon="5.5428">
        <ele>236.762</ele>
        <time>2019-09-22T13:44:46.001Z</time>
      </trkpt>
      <trkpt lat="48.88809" lon="5.54297">
        <ele>237.731</ele>
        <time>2019-09-22T13:44:49.001Z</time>
      </trkpt>
      <trkpt lat="48.88805" lon="5.54316">
        <ele>238.15</ele>
        <time>2019-09-22T13:44:52.001Z</time>
      </trkpt>
      <trkpt lat="48.88801" lon="5.54333">
        <ele>238.926</ele>
        <time>2019-09-22T13:44:55.001Z</time>
      </trkpt>
      <trkpt lat="48.88797" lon="5.54349">
        <ele>239.666</ele>
        <time>2019-09-22T13:44:58.001Z</time>
      </trkpt>
      <trkpt lat="48.88794" lon="5.54366">
        <ele>238.986</ele>
        <time>2019-09-22T13:45:01.001Z</time>
      </trkpt>
      <trkpt lat="48.88789" lon="5.54384">
        <ele>237.815</ele>
        <time>2019-09-22T13:45:04.001Z</time>
      </trkpt>
      <trkpt lat="48.88785" lon="5.54401">
        <ele>237.594</ele>
        <time>2019-09-22T13:45:07.001Z</time>
      </trkpt>
      <trkpt lat="48.88782" lon="5.54417">
        <ele>238.267</ele>
        <time>2019-09-22T13:45:10.001Z</time>
      </trkpt>
      <trkpt lat="48.88782" lon="5.54435">
        <ele>238.58</ele>
        <time>2019-09-22T13:45:13.001Z</time>
      </trkpt>
      <trkpt lat="48.88785" lon="5.54458">
        <ele>237.482</ele>
        <time>2019-09-22T13:45:16.000Z</time>
      </trkpt>
      <trkpt lat="48.88787" lon="5.54478">
        <ele>238.004</ele>
        <time>2019-09-22T13:45:19.001Z</time>
      </trkpt>
      <trkpt lat="48.8879" lon="5.54497">
        <ele>235.542</ele>
        <time>2019-09-22T13:45:22.001Z</time>
      </trkpt>
      <trkpt lat="48.88794" lon="5.54515">
        <ele>235.498</ele>
        <time>2019-09-22T13:45:25.001Z</time>
      </trkpt>
      <trkpt lat="48.88799" lon="5.54531">
        <ele>235.539</ele>
        <time>2019-09-22T13:45:28.001Z</time>
      </trkpt>
      <trkpt lat="48.88803" lon="5.54547">
        <ele>235.577</ele>
        <time>2019-09-22T13:45:31.001Z</time>
      </trkpt>
      <trkpt lat="48.88806" lon="5.54564">
        <ele>235.76</ele>
        <time>2019-09-22T13:45:34.001Z</time>
      </trkpt>
      <trkpt lat="48.88811" lon="5.54581">
        <ele>236.437</ele>
        <time>2019-09-22T13:45:37.001Z</time>
      </trkpt>
      <trkpt lat="48.88814" lon="5.54599">
        <ele>236.706</ele>
        <time>2019-09-22T13:45:40.001Z</time>
      </trkpt>
      <trkpt lat="48.88818" lon="5.54618">
        <ele>237.057</ele>
        <time>2019-09-22T13:45:43.001Z</time>
      </trkpt>
      <trkpt lat="48.88819" lon="5.54637">
        <ele>237.704</ele>
        <time>2019-09-22T13:45:46.001Z</time>
      </trkpt>
      <trkpt lat="48.88819" lon="5.54656">
        <ele>238.082</ele>
        <time>2019-09-22T13:45:49.001Z</time>
      </trkpt>
      <trkpt lat="48.88818" lon="5.54675">
        <ele>238.805</ele>
        <time>2019-09-22T13:45:52.001Z</time>
      </trkpt>
      <trkpt lat="48.88817" lon="5.54695">
        <ele>239.547</ele>
        <time>2019-09-22T13:45:55.001Z</time>
      </trkpt>
      <trkpt lat="48.88817" lon="5.54714">
        <ele>239.985</ele>
        <time>2019-09-22T13:45:58.001Z</time>
      </trkpt>
      <trkpt lat="48.88816" lon="5.54733">
        <ele>240.557</ele>
        <time>2019-09-22T13:46:01.001Z</time>
      </trkpt>
      <trkpt lat="48.88814" lon="5.54753">
        <ele>241.916</ele>
        <time>2019-09-22T13:46:04.001Z</time>
      </trkpt>
      <trkpt lat="48.88812" lon="5.54772">
        <ele>242.557</ele>
        <time>2019-09-22T13:46:07.001Z</time>
      </trkpt>
      <trkpt lat="48.8881" lon="5.54791">
        <ele>244.147</ele>
        <time>2019-09-22T13:46:10.001Z</time>
      </trkpt>
      <trkpt lat="48.88808" lon="5.5481">
        <ele>245.572</ele>
        <time>2019-09-22T13:46:13.001Z</time>
      </trkpt>
      <trkpt lat="48.88806" lon="5.54831">
        <ele>245.122</ele>
        <time>2019-09-22T13:46:16.000Z</time>
      </trkpt>
      <trkpt lat="48.88802" lon="5.54852">
        <ele>243.989</ele>
        <time>2019-09-22T13:46:19.001Z</time>
      </trkpt>
      <trkpt lat="48.88801" lon="5.5487">
        <ele>243.579</ele>
        <time>2019-09-22T13:46:22.001Z</time>
      </trkpt>
      <trkpt lat="48.88797" lon="5.54889">
        <ele>242.976</ele>
        <time>2019-09-22T13:46:25.001Z</time>
      </trkpt>
      <trkpt lat="48.88793" lon="5.54908">
        <ele>242.34</ele>
        <time>2019-09-22T13:46:28.001Z</time>
      </trkpt>
      <trkpt lat="48.8879" lon="5.54925">
        <ele>240.969</ele>
        <time>2019-09-22T13:46:31.001Z</time>
      </trkpt>
      <trkpt lat="48.88786" lon="5.54945">
        <ele>239.865</ele>
        <time>2019-09-22T13:46:34.001Z</time>
      </trkpt>
      <trkpt lat="48.88782" lon="5.54966">
        <ele>237.445</ele>
        <time>2019-09-22T13:46:37.001Z</time>
      </trkpt>
      <trkpt lat="48.88776" lon="5.54983">
        <ele>236.685</ele>
        <time>2019-09-22T13:46:40.001Z</time>
      </trkpt>
      <trkpt lat="48.88772" lon="5.54999">
        <ele>237.221</ele>
        <time>2019-09-22T13:46:43.001Z</time>
      </trkpt>
      <trkpt lat="48.88775" lon="5.55014">
        <ele>239.585</ele>
        <time>2019-09-22T13:46:46.001Z</time>
      </trkpt>
      <trkpt lat="48.88779" lon="5.55028">
        <ele>243.321</ele>
        <time>2019-09-22T13:46:49.001Z</time>
      </trkpt>
      <trkpt lat="48.88778" lon="5.55045">
        <ele>245.365</ele>
        <time>2019-09-22T13:46:52.001Z</time>
      </trkpt>
      <trkpt lat="48.88773" lon="5.5506">
        <ele>247.495</ele>
        <time>2019-09-22T13:46:55.001Z</time>
      </trkpt>
      <trkpt lat="48.88766" lon="5.55075">
        <ele>249.338</ele>
        <time>2019-09-22T13:46:58.001Z</time>
      </trkpt>
      <trkpt lat="48.88754" lon="5.55091">
        <ele>250.965</ele>
        <time>2019-09-22T13:47:01.001Z</time>
      </trkpt>
      <trkpt lat="48.88747" lon="5.55108">
        <ele>250.159</ele>
        <time>2019-09-22T13:47:04.001Z</time>
      </trkpt>
      <trkpt lat="48.8875" lon="5.55127">
        <ele>247.15</ele>
        <time>2019-09-22T13:47:07.001Z</time>
      </trkpt>
      <trkpt lat="48.88757" lon="5.55144">
        <ele>245.06</ele>
        <time>2019-09-22T13:47:10.001Z</time>
      </trkpt>
      <trkpt lat="48.88762" lon="5.5516">
        <ele>243.592</ele>
        <time>2019-09-22T13:47:13.001Z</time>
      </trkpt>
      <trkpt lat="48.88767" lon="5.55176">
        <ele>242.243</ele>
        <time>2019-09-22T13:47:16.000Z</time>
      </trkpt>
      <trkpt lat="48.88771" lon="5.55193">
        <ele>239.706</ele>
        <time>2019-09-22T13:47:19.001Z</time>
      </trkpt>
      <trkpt lat="48.88773" lon="5.55211">
        <ele>238.179</ele>
        <time>2019-09-22T13:47:22.001Z</time>
      </trkpt>
      <trkpt lat="48.88774" lon="5.5523">
        <ele>237.53</ele>
        <time>2019-09-22T13:47:25.001Z</time>
      </trkpt>
      <trkpt lat="48.88775" lon="5.55251">
        <ele>236.042</ele>
        <time>2019-09-22T13:47:28.001Z</time>
      </trkpt>
      <trkpt lat="48.88775" lon="5.55271">
        <ele>234.888</ele>
        <time>2019-09-22T13:47:31.001Z</time>
      </trkpt>
      <trkpt lat="48.88775" lon="5.5529">
        <ele>233.005</ele>
        <time>2019-09-22T13:47:34.001Z</time>
      </trkpt>
      <trkpt lat="48.88776" lon="5.55307">
        <ele>232.52</ele>
        <time>2019-09-22T13:47:37.001Z</time>
      </trkpt>
      <trkpt lat="48.88776" lon="5.55326">
        <ele>232.737</ele>
        <time>2019-09-22T13:47:40.001Z</time>
      </trkpt>
      <trkpt lat="48.88777" lon="5.55343">
        <ele>232.983</ele>
        <time>2019-09-22T13:47:43.001Z</time>
      </trkpt>
      <trkpt lat="48.88778" lon="5.55361">
        <ele>233.775</ele>
        <time>2019-09-22T13:47:46.001Z</time>
      </trkpt>
      <trkpt lat="48.88776" lon="5.55377">
        <ele>233.181</ele>
        <time>2019-09-22T13:47:49.001Z</time>
      </trkpt>
      <trkpt lat="48.88775" lon="5.55394">
        <ele>232.936</ele>
        <time>2019-09-22T13:47:52.001Z</time>
      </trkpt>
      <trkpt lat="48.88773" lon="5.55411">
        <ele>232.911</ele>
        <time>2019-09-22T13:47:55.001Z</time>
      </trkpt>
      <trkpt lat="48.8877" lon="5.55425">
        <ele>233.915</ele>
        <time>2019-09-22T13:47:58.001Z</time>
      </trkpt>
      <trkpt lat="48.88765" lon="5.55441">
        <ele>233.847</ele>
        <time>2019-09-22T13:48:01.001Z</time>
      </trkpt>
      <trkpt lat="48.8876" lon="5.55457">
        <ele>233.688</ele>
        <time>2019-09-22T13:48:04.001Z</time>
      </trkpt>
      <trkpt lat="48.88754" lon="5.55471">
        <ele>233.68</ele>
        <time>2019-09-22T13:48:07.001Z</time>
      </trkpt>
      <trkpt lat="48.88749" lon="5.55485">
        <ele>234.248</ele>
        <time>2019-09-22T13:48:10.001Z</time>
      </trkpt>
      <trkpt lat="48.88745" lon="5.55501">
        <ele>234.978</ele>
        <time>2019-09-22T13:48:13.001Z</time>
      </trkpt>
      <trkpt lat="48.88739" lon="5.5552">
        <ele>234.509</ele>
        <time>2019-09-22T13:48:16.000Z</time>
      </trkpt>
      <trkpt lat="48.88731" lon="5.55537">
        <ele>232.885</ele>
        <time>2019-09-22T13:48:19.001Z</time>
      </trkpt>
      <trkpt lat="48.88724" lon="5.55553">
        <ele>231.825</ele>
        <time>2019-09-22T13:48:22.001Z</time>
      </trkpt>
      <trkpt lat="48.88716" lon="5.5557">
        <ele>231.372</ele>
        <time>2019-09-22T13:48:25.001Z</time>
      </trkpt>
      <trkpt lat="48.88709" lon="5.55586">
        <ele>230.644</ele>
        <time>2019-09-22T13:48:28.001Z</time>
      </trkpt>
      <trkpt lat="48.88702" lon="5.55602">
        <ele>229.921</ele>
        <time>2019-09-22T13:48:31.001Z</time>
      </trkpt>
      <trkpt lat="48.88695" lon="5.55617">
        <ele>229.617</ele>
        <time>2019-09-22T13:48:34.001Z</time>
      </trkpt>
      <trkpt lat="48.8869" lon="5.55631">
        <ele>230.595</ele>
        <time>2019-09-22T13:48:37.001Z</time>
      </trkpt>
      <trkpt lat="48.88686" lon="5.55645">
        <ele>232.147</ele>
        <time>2019-09-22T13:48:40.001Z</time>
      </trkpt>
      <trkpt lat="48.88682" lon="5.5566">
        <ele>232.054</ele>
        <time>2019-09-22T13:48:43.001Z</time>
      </trkpt>
      <trkpt lat="48.88681" lon="5.55674">
        <ele>232.622</ele>
        <time>2019-09-22T13:48:46.001Z</time>
      </trkpt>
      <trkpt lat="48.8868" lon="5.55686">
        <ele>233.212</ele>
        <time>2019-09-22T13:48:49.001Z</time>
      </trkpt>
      <trkpt lat="48.8868" lon="5.55699">
        <ele>233.764</ele>
        <time>2019-09-22T13:48:52.001Z</time>
      </trkpt>
      <trkpt lat="48.8868" lon="5.55713">
        <ele>234.522</ele>
        <time>2019-09-22T13:48:55.001Z</time>
      </trkpt>
      <trkpt lat="48.8868" lon="5.55726">
        <ele>235.37</ele>
        <time>2019-09-22T13:48:58.001Z</time>
      </trkpt>
      <trkpt lat="48.8868" lon="5.55737">
        <ele>236.413</ele>
        <time>2019-09-22T13:49:01.001Z</time>
      </trkpt>
      <trkpt lat="48.8868" lon="5.55749">
        <ele>236.923</ele>
        <time>2019-09-22T13:49:04.001Z</time>
      </trkpt>
      <trkpt lat="48.8868" lon="5.5576">
        <ele>237.277</ele>
        <time>2019-09-22T13:49:07.001Z</time>
      </trkpt>
      <trkpt lat="48.8868" lon="5.55771">
        <ele>237.153</ele>
        <time>2019-09-22T13:49:10.001Z</time>
      </trkpt>
      <trkpt lat="48.88679" lon="5.55783">
        <ele>237.218</ele>
        <time>2019-09-22T13:49:13.001Z</time>
      </trkpt>
      <trkpt lat="48.88679" lon="5.55794">
        <ele>237.615</ele>
        <time>2019-09-22T13:49:16.000Z</time>
      </trkpt>
      <trkpt lat="48.88679" lon="5.55804">
        <ele>238.982</ele>
        <time>2019-09-22T13:49:19.001Z</time>
      </trkpt>
      <trkpt lat="48.8868" lon="5.55813">
        <ele>239.853</ele>
        <time>2019-09-22T13:49:22.001Z</time>
      </trkpt>
      <trkpt lat="48.88679" lon="5.55821">
        <ele>241.53</ele>
        <time>2019-09-22T13:49:25.001Z</time>
      </trkpt>
      <trkpt lat="48.8868" lon="5.55828">
        <ele>243.277</ele>
        <time>2019-09-22T13:49:28.001Z</time>
      </trkpt>
      <trkpt lat="48.88679" lon="5.55835">
        <ele>243.335</ele>
        <time>2019-09-22T13:49:31.001Z</time>
      </trkpt>
      <trkpt lat="48.88679" lon="5.55843">
        <ele>243.784</ele>
        <time>2019-09-22T13:49:34.001Z</time>
      </trkpt>
      <trkpt lat="48.88677" lon="5.55851">
        <ele>244.184</ele>
        <time>2019-09-22T13:49:37.001Z</time>
      </trkpt>
      <trkpt lat="48.88676" lon="5.55857">
        <ele>244.631</ele>
        <time>2019-09-22T13:49:40.001Z</time>
      </trkpt>
      <trkpt lat="48.88676" lon="5.55865">
        <ele>245.223</ele>
        <time>2019-09-22T13:49:43.001Z</time>
      </trkpt>
      <trkpt lat="48.88676" lon="5.55872">
        <ele>246.458</ele>
        <time>2019-09-22T13:49:46.001Z</time>
      </trkpt>
      <trkpt lat="48.88676" lon="5.55879">
        <ele>247.607</ele>
        <time>2019-09-22T13:49:49.001Z</time>
      </trkpt>
      <trkpt lat="48.88676" lon="5.55887">
        <ele>248.325</ele>
        <time>2019-09-22T13:49:52.001Z</time>
      </trkpt>
      <trkpt lat="48.88677" lon="5.55896">
        <ele>250.165</ele>
        <time>2019-09-22T13:49:55.001Z</time>
      </trkpt>
      <trkpt lat="48.88677" lon="5.55905">
        <ele>250.879</ele>
        <time>2019-09-22T13:49:58.001Z</time>
      </trkpt>
      <trkpt lat="48.88677" lon="5.55914">
        <ele>252.027</ele>
        <time>2019-09-22T13:50:01.001Z</time>
      </trkpt>
      <trkpt lat="48.88676" lon="5.55922">
        <ele>253.512</ele>
        <time>2019-09-22T13:50:04.001Z</time>
      </trkpt>
      <trkpt lat="48.88676" lon="5.55932">
        <ele>254.356</ele>
        <time>2019-09-22T13:50:07.001Z</time>
      </trkpt>
      <trkpt lat="48.88676" lon="5.55942">
        <ele>254.169</ele>
        <time>2019-09-22T13:50:10.001Z</time>
      </trkpt>
      <trkpt lat="48.88675" lon="5.55951">
        <ele>254.25</ele>
        <time>2019-09-22T13:50:13.001Z</time>
      </trkpt>
      <trkpt lat="48.88673" lon="5.55962">
        <ele>253.687</ele>
        <time>2019-09-22T13:50:16.000Z</time>
      </trkpt>
      <trkpt lat="48.88671" lon="5.55971">
        <ele>253.353</ele>
        <time>2019-09-22T13:50:19.001Z</time>
      </trkpt>
      <trkpt lat="48.8867" lon="5.55981">
        <ele>253.477</ele>
        <time>2019-09-22T13:50:22.001Z</time>
      </trkpt>
      <trkpt lat="48.88668" lon="5.5599">
        <ele>253.709</ele>
        <time>2019-09-22T13:50:25.001Z</time>
      </trkpt>
      <trkpt lat="48.88666" lon="5.55999">
        <ele>253.679</ele>
        <time>2019-09-22T13:50:28.001Z</time>
      </trkpt>
      <trkpt lat="48.88663" lon="5.56008">
        <ele>253.595</ele>
        <time>2019-09-22T13:50:31.001Z</time>
      </trkpt>
      <trkpt lat="48.8866" lon="5.56017">
        <ele>253.139</ele>
        <time>2019-09-22T13:50:34.001Z</time>
      </trkpt>
      <trkpt lat="48.88656" lon="5.56026">
        <ele>251.857</ele>
        <time>2019-09-22T13:50:37.001Z</time>
      </trkpt>
      <trkpt lat="48.88652" lon="5.56032">
        <ele>251.459</ele>
        <time>2019-09-22T13:50:40.001Z</time>
      </trkpt>
      <trkpt lat="48.88648" lon="5.56039">
        <ele>252.169</ele>
        <time>2019-09-22T13:50:43.001Z</time>
      </trkpt>
      <trkpt lat="48.88644" lon="5.56044">
        <ele>252.405</ele>
        <time>2019-09-22T13:50:46.001Z</time>
      </trkpt>
      <trkpt lat="48.88641" lon="5.5605">
        <ele>253.109</ele>
        <time>2019-09-22T13:50:49.001Z</time>
      </trkpt>
      <trkpt lat="48.88636" lon="5.56059">
        <ele>253.201</ele>
        <time>2019-09-22T13:50:55.001Z</time>
      </trkpt>
      <trkpt lat="48.88633" lon="5.56065">
        <ele>253.063</ele>
        <time>2019-09-22T13:50:58.001Z</time>
      </trkpt>
      <trkpt lat="48.88629" lon="5.56069">
        <ele>253.275</ele>
        <time>2019-09-22T13:51:01.001Z</time>
      </trkpt>
      <trkpt lat="48.88626" lon="5.56074">
        <ele>253.259</ele>
        <time>2019-09-22T13:51:04.001Z</time>
      </trkpt>
      <trkpt lat="48.8862" lon="5.56085">
        <ele>252.828</ele>
        <time>2019-09-22T13:51:10.001Z</time>
      </trkpt>
      <trkpt lat="48.88617" lon="5.5609">
        <ele>253.033</ele>
        <time>2019-09-22T13:51:13.001Z</time>
      </trkpt>
      <trkpt lat="48.88613" lon="5.56095">
        <ele>253.258</ele>
        <time>2019-09-22T13:51:16.000Z</time>
      </trkpt>
      <trkpt lat="48.8861" lon="5.56101">
        <ele>253.728</ele>
        <time>2019-09-22T13:51:19.001Z</time>
      </trkpt>
      <trkpt lat="48.88606" lon="5.56106">
        <ele>254.101</ele>
        <time>2019-09-22T13:51:22.001Z</time>
      </trkpt>
      <trkpt lat="48.88603" lon="5.56111">
        <ele>254.828</ele>
        <time>2019-09-22T13:51:25.001Z</time>
      </trkpt>
      <trkpt lat="48.88598" lon="5.56115">
        <ele>255.066</ele>
        <time>2019-09-22T13:51:28.001Z</time>
      </trkpt>
      <trkpt lat="48.88595" lon="5.5612">
        <ele>255.695</ele>
        <time>2019-09-22T13:51:31.001Z</time>
      </trkpt>
      <trkpt lat="48.88592" lon="5.56126">
        <ele>255.923</ele>
        <time>2019-09-22T13:51:34.001Z</time>
      </trkpt>
      <trkpt lat="48.88589" lon="5.56131">
        <ele>256.269</ele>
        <time>2019-09-22T13:51:37.001Z</time>
      </trkpt>
      <trkpt lat="48.88585" lon="5.56136">
        <ele>257.26</ele>
        <time>2019-09-22T13:51:40.001Z</time>
      </trkpt>
      <trkpt lat="48.88579" lon="5.56147">
        <ele>257.74</ele>
        <time>2019-09-22T13:51:46.001Z</time>
      </trkpt>
      <trkpt lat="48.88576" lon="5.56152">
        <ele>257.614</ele>
        <time>2019-09-22T13:51:49.001Z</time>
      </trkpt>
      <trkpt lat="48.88572" lon="5.56157">
        <ele>257.394</ele>
        <time>2019-09-22T13:51:52.001Z</time>
      </trkpt>
      <trkpt lat="48.88568" lon="5.56163">
        <ele>257.583</ele>
        <time>2019-09-22T13:51:55.001Z</time>
      </trkpt>
      <trkpt lat="48.88565" lon="5.56169">
        <ele>258.21</ele>
        <time>2019-09-22T13:51:58.001Z</time>
      </trkpt>
      <trkpt lat="48.88562" lon="5.56175">
        <ele>258.649</ele>
        <time>2019-09-22T13:52:01.001Z</time>
      </trkpt>
      <trkpt lat="48.88558" lon="5.56181">
        <ele>259.041</ele>
        <time>2019-09-22T13:52:04.001Z</time>
      </trkpt>
      <trkpt lat="48.88554" lon="5.56186">
        <ele>259.27</ele>
        <time>2019-09-22T13:52:07.001Z</time>
      </trkpt>
      <trkpt lat="48.88549" lon="5.56192">
        <ele>259.786</ele>
        <time>2019-09-22T13:52:10.001Z</time>
      </trkpt>
      <trkpt lat="48.88545" lon="5.56199">
        <ele>260.477</ele>
        <time>2019-09-22T13:52:13.001Z</time>
      </trkpt>
      <trkpt lat="48.8854" lon="5.56206">
        <ele>261.15</ele>
        <time>2019-09-22T13:52:16.000Z</time>
      </trkpt>
      <trkpt lat="48.88536" lon="5.56214">
        <ele>261.907</ele>
        <time>2019-09-22T13:52:19.001Z</time>
      </trkpt>
      <trkpt lat="48.88531" lon="5.56221">
        <ele>262.799</ele>
        <time>2019-09-22T13:52:22.001Z</time>
      </trkpt>
      <trkpt lat="48.88527" lon="5.56228">
        <ele>263.775</ele>
        <time>2019-09-22T13:52:25.001Z</time>
      </trkpt>
      <trkpt lat="48.88522" lon="5.56235">
        <ele>265.32</ele>
        <time>2019-09-22T13:52:28.001Z</time>
      </trkpt>
      <trkpt lat="48.88518" lon="5.56242">
        <ele>267.47</ele>
        <time>2019-09-22T13:52:31.001Z</time>
      </trkpt>
      <trkpt lat="48.88513" lon="5.56249">
        <ele>268.636</ele>
        <time>2019-09-22T13:52:34.001Z</time>
      </trkpt>
      <trkpt lat="48.88508" lon="5.56256">
        <ele>269.743</ele>
        <time>2019-09-22T13:52:37.001Z</time>
      </trkpt>
      <trkpt lat="48.88504" lon="5.56264">
        <ele>270.403</ele>
        <time>2019-09-22T13:52:40.001Z</time>
      </trkpt>
      <trkpt lat="48.88499" lon="5.56271">
        <ele>270.303</ele>
        <time>2019-09-22T13:52:43.001Z</time>
      </trkpt>
      <trkpt lat="48.88494" lon="5.56278">
        <ele>271.01</ele>
        <time>2019-09-22T13:52:46.001Z</time>
      </trkpt>
      <trkpt lat="48.8849" lon="5.56285">
        <ele>270.992</ele>
        <time>2019-09-22T13:52:49.001Z</time>
      </trkpt>
      <trkpt lat="48.88485" lon="5.56293">
        <ele>270.861</ele>
        <time>2019-09-22T13:52:52.001Z</time>
      </trkpt>
      <trkpt lat="48.8848" lon="5.56301">
        <ele>270.409</ele>
        <time>2019-09-22T13:52:55.001Z</time>
      </trkpt>
      <trkpt lat="48.88475" lon="5.56308">
        <ele>269.95</ele>
        <time>2019-09-22T13:52:58.001Z</time>
      </trkpt>
      <trkpt lat="48.8847" lon="5.56316">
        <ele>270.003</ele>
        <time>2019-09-22T13:53:01.001Z</time>
      </trkpt>
      <trkpt lat="48.88465" lon="5.56323">
        <ele>269.86</ele>
        <time>2019-09-22T13:53:04.001Z</time>
      </trkpt>
      <trkpt lat="48.88461" lon="5.56331">
        <ele>269.733</ele>
        <time>2019-09-22T13:53:07.001Z</time>
      </trkpt>
      <trkpt lat="48.88457" lon="5.56338">
        <ele>269.562</ele>
        <time>2019-09-22T13:53:10.001Z</time>
      </trkpt>
      <trkpt lat="48.88453" lon="5.56345">
        <ele>269.941</ele>
        <time>2019-09-22T13:53:13.001Z</time>
      </trkpt>
      <trkpt lat="48.88449" lon="5.56351">
        <ele>270.43</ele>
        <time>2019-09-22T13:53:16.000Z</time>
      </trkpt>
      <trkpt lat="48.88445" lon="5.56357">
        <ele>270.991</ele>
        <time>2019-09-22T13:53:19.001Z</time>
      </trkpt>
      <trkpt lat="48.8844" lon="5.56363">
        <ele>270.834</ele>
        <time>2019-09-22T13:53:22.001Z</time>
      </trkpt>
      <trkpt lat="48.88437" lon="5.56368">
        <ele>270.928</ele>
        <time>2019-09-22T13:53:25.001Z</time>
      </trkpt>
      <trkpt lat="48.88433" lon="5.56374">
        <ele>270.246</ele>
        <time>2019-09-22T13:53:28.001Z</time>
      </trkpt>
      <trkpt lat="48.88429" lon="5.5638">
        <ele>270.418</ele>
        <time>2019-09-22T13:53:31.001Z</time>
      </trkpt>
      <trkpt lat="48.88425" lon="5.56387">
        <ele>270.502</ele>
        <time>2019-09-22T13:53:34.001Z</time>
      </trkpt>
      <trkpt lat="48.88422" lon="5.56392">
        <ele>270.805</ele>
        <time>2019-09-22T13:53:37.001Z</time>
      </trkpt>
      <trkpt lat="48.88418" lon="5.56398">
        <ele>271.245</ele>
        <time>2019-09-22T13:53:40.001Z</time>
      </trkpt>
      <trkpt lat="48.88413" lon="5.56403">
        <ele>271.129</ele>
        <time>2019-09-22T13:53:43.001Z</time>
      </trkpt>
      <trkpt lat="48.8841" lon="5.56408">
        <ele>271.574</ele>
        <time>2019-09-22T13:53:46.001Z</time>
      </trkpt>
      <trkpt lat="48.88406" lon="5.56413">
        <ele>272.567</ele>
        <time>2019-09-22T13:53:49.001Z</time>
      </trkpt>
      <trkpt lat="48.88403" lon="5.56419">
        <ele>273.419</ele>
        <time>2019-09-22T13:53:52.001Z</time>
      </trkpt>
      <trkpt lat="48.884" lon="5.56424">
        <ele>273.772</ele>
        <time>2019-09-22T13:53:55.001Z</time>
      </trkpt>
      <trkpt lat="48.88396" lon="5.56429">
        <ele>273.678</ele>
        <time>2019-09-22T13:53:58.001Z</time>
      </trkpt>
      <trkpt lat="48.88393" lon="5.56435">
        <ele>272.991</ele>
        <time>2019-09-22T13:54:01.001Z</time>
      </trkpt>
      <trkpt lat="48.88389" lon="5.56441">
        <ele>273.529</ele>
        <time>2019-09-22T13:54:04.001Z</time>
      </trkpt>
      <trkpt lat="48.88386" lon="5.56447">
        <ele>273.393</ele>
        <time>2019-09-22T13:54:07.001Z</time>
      </trkpt>
      <trkpt lat="48.88383" lon="5.56451">
        <ele>273.919</ele>
        <time>2019-09-22T13:54:10.001Z</time>
      </trkpt>
      <trkpt lat="48.88377" lon="5.56461">
        <ele>276.092</ele>
        <time>2019-09-22T13:54:16.000Z</time>
      </trkpt>
      <trkpt lat="48.88374" lon="5.56466">
        <ele>277.235</ele>
        <time>2019-09-22T13:54:19.001Z</time>
      </trkpt>
      <trkpt lat="48.8837" lon="5.56471">
        <ele>278.121</ele>
        <time>2019-09-22T13:54:22.001Z</time>
      </trkpt>
      <trkpt lat="48.88366" lon="5.56476">
        <ele>278.312</ele>
        <time>2019-09-22T13:54:25.001Z</time>
      </trkpt>
      <trkpt lat="48.88362" lon="5.56481">
        <ele>278.425</ele>
        <time>2019-09-22T13:54:28.001Z</time>
      </trkpt>
      <trkpt lat="48.88358" lon="5.56487">
        <ele>278.422</ele>
        <time>2019-09-22T13:54:31.001Z</time>
      </trkpt>
      <trkpt lat="48.88355" lon="5.56492">
        <ele>278.701</ele>
        <time>2019-09-22T13:54:34.001Z</time>
      </trkpt>
      <trkpt lat="48.88351" lon="5.56499">
        <ele>278.518</ele>
        <time>2019-09-22T13:54:37.001Z</time>
      </trkpt>
      <trkpt lat="48.88346" lon="5.56503">
        <ele>277.399</ele>
        <time>2019-09-22T13:54:40.001Z</time>
      </trkpt>
      <trkpt lat="48.88342" lon="5.56509">
        <ele>276.381</ele>
        <time>2019-09-22T13:54:43.001Z</time>
      </trkpt>
      <trkpt lat="48.88338" lon="5.56514">
        <ele>276.214</ele>
        <time>2019-09-22T13:54:46.001Z</time>
      </trkpt>
      <trkpt lat="48.88334" lon="5.56519">
        <ele>276.098</ele>
        <time>2019-09-22T13:54:49.001Z</time>
      </trkpt>
      <trkpt lat="48.88331" lon="5.56525">
        <ele>276.032</ele>
        <time>2019-09-22T13:54:52.001Z</time>
      </trkpt>
      <trkpt lat="48.88325" lon="5.56536">
        <ele>276.272</ele>
        <time>2019-09-22T13:54:58.001Z</time>
      </trkpt>
      <trkpt lat="48.88319" lon="5.56546">
        <ele>276.067</ele>
        <time>2019-09-22T13:55:04.001Z</time>
      </trkpt>
      <trkpt lat="48.88316" lon="5.56552">
        <ele>276.216</ele>
        <time>2019-09-22T13:55:07.001Z</time>
      </trkpt>
      <trkpt lat="48.88313" lon="5.56558">
        <ele>276.406</ele>
        <time>2019-09-22T13:55:10.001Z</time>
      </trkpt>
      <trkpt lat="48.88309" lon="5.56564">
        <ele>276.883</ele>
        <time>2019-09-22T13:55:13.001Z</time>
      </trkpt>
      <trkpt lat="48.88306" lon="5.5657">
        <ele>277.435</ele>
        <time>2019-09-22T13:55:16.000Z</time>
      </trkpt>
      <trkpt lat="48.88302" lon="5.56576">
        <ele>278.203</ele>
        <time>2019-09-22T13:55:19.001Z</time>
      </trkpt>
      <trkpt lat="48.88298" lon="5.56582">
        <ele>278.783</ele>
        <time>2019-09-22T13:55:22.001Z</time>
      </trkpt>
      <trkpt lat="48.88294" lon="5.56588">
        <ele>278.525</ele>
        <time>2019-09-22T13:55:25.001Z</time>
      </trkpt>
      <trkpt lat="48.8829" lon="5.56594">
        <ele>278.96</ele>
        <time>2019-09-22T13:55:28.001Z</time>
      </trkpt>
      <trkpt lat="48.88286" lon="5.566">
        <ele>279.096</ele>
        <time>2019-09-22T13:55:31.001Z</time>
      </trkpt>
      <trkpt lat="48.88282" lon="5.56605">
        <ele>279.561</ele>
        <time>2019-09-22T13:55:34.001Z</time>
      </trkpt>
      <trkpt lat="48.88277" lon="5.56611">
        <ele>280.097</ele>
        <time>2019-09-22T13:55:37.001Z</time>
      </trkpt>
      <trkpt lat="48.88272" lon="5.56619">
        <ele>280.341</ele>
        <time>2019-09-22T13:55:40.001Z</time>
      </trkpt>
      <trkpt lat="48.88267" lon="5.56627">
        <ele>280.943</ele>
        <time>2019-09-22T13:55:43.001Z</time>
      </trkpt>
      <trkpt lat="48.88262" lon="5.56635">
        <ele>281.341</ele>
        <time>2019-09-22T13:55:46.001Z</time>
      </trkpt>
      <trkpt lat="48.88257" lon="5.56644">
        <ele>281.112</ele>
        <time>2019-09-22T13:55:49.001Z</time>
      </trkpt>
      <trkpt lat="48.88252" lon="5.56652">
        <ele>280.821</ele>
        <time>2019-09-22T13:55:52.001Z</time>
      </trkpt>
      <trkpt lat="48.88247" lon="5.56661">
        <ele>280.335</ele>
        <time>2019-09-22T13:55:55.001Z</time>
      </trkpt>
      <trkpt lat="48.8824" lon="5.5667">
        <ele>280.708</ele>
        <time>2019-09-22T13:55:58.001Z</time>
      </trkpt>
      <trkpt lat="48.88234" lon="5.5668">
        <ele>281.068</ele>
        <time>2019-09-22T13:56:01.001Z</time>
      </trkpt>
      <trkpt lat="48.88227" lon="5.5669">
        <ele>281.563</ele>
        <time>2019-09-22T13:56:04.001Z</time>
      </trkpt>
      <trkpt lat="48.8822" lon="5.567">
        <ele>282.7</ele>
        <time>2019-09-22T13:56:07.001Z</time>
      </trkpt>
      <trkpt lat="48.88214" lon="5.56711">
        <ele>283.731</ele>
        <time>2019-09-22T13:56:10.001Z</time>
      </trkpt>
      <trkpt lat="48.88207" lon="5.56721">
        <ele>284.371</ele>
        <time>2019-09-22T13:56:13.001Z</time>
      </trkpt>
      <trkpt lat="48.882" lon="5.56732">
        <ele>285.011</ele>
        <time>2019-09-22T13:56:16.000Z</time>
      </trkpt>
      <trkpt lat="48.88193" lon="5.56744">
        <ele>285.087</ele>
        <time>2019-09-22T13:56:19.001Z</time>
      </trkpt>
      <trkpt lat="48.88185" lon="5.56755">
        <ele>285.294</ele>
        <time>2019-09-22T13:56:22.001Z</time>
      </trkpt>
      <trkpt lat="48.88176" lon="5.56767">
        <ele>285.696</ele>
        <time>2019-09-22T13:56:25.001Z</time>
      </trkpt>
      <trkpt lat="48.88168" lon="5.56777">
        <ele>285.886</ele>
        <time>2019-09-22T13:56:28.001Z</time>
      </trkpt>
      <trkpt lat="48.8816" lon="5.56786">
        <ele>286.374</ele>
        <time>2019-09-22T13:56:31.001Z</time>
      </trkpt>
      <trkpt lat="48.88152" lon="5.56795">
        <ele>286.73</ele>
        <time>2019-09-22T13:56:34.001Z</time>
      </trkpt>
      <trkpt lat="48.88144" lon="5.56804">
        <ele>286.948</ele>
        <time>2019-09-22T13:56:37.001Z</time>
      </trkpt>
      <trkpt lat="48.88136" lon="5.56812">
        <ele>286.594</ele>
        <time>2019-09-22T13:56:40.001Z</time>
      </trkpt>
      <trkpt lat="48.88128" lon="5.56821">
        <ele>286.032</ele>
        <time>2019-09-22T13:56:43.001Z</time>
      </trkpt>
      <trkpt lat="48.8812" lon="5.56829">
        <ele>286.232</ele>
        <time>2019-09-22T13:56:46.001Z</time>
      </trkpt>
      <trkpt lat="48.88111" lon="5.56838">
        <ele>286.332</ele>
        <time>2019-09-22T13:56:49.001Z</time>
      </trkpt>
      <trkpt lat="48.88104" lon="5.56846">
        <ele>286.338</ele>
        <time>2019-09-22T13:56:52.001Z</time>
      </trkpt>
      <trkpt lat="48.88097" lon="5.56854">
        <ele>286.42</ele>
        <time>2019-09-22T13:56:55.001Z</time>
      </trkpt>
      <trkpt lat="48.8809" lon="5.56862">
        <ele>286.102</ele>
        <time>2019-09-22T13:56:58.001Z</time>
      </trkpt>
      <trkpt lat="48.88083" lon="5.5687">
        <ele>285.84</ele>
        <time>2019-09-22T13:57:01.001Z</time>
      </trkpt>
      <trkpt lat="48.88077" lon="5.56877">
        <ele>286.05</ele>
        <time>2019-09-22T13:57:04.001Z</time>
      </trkpt>
      <trkpt lat="48.8807" lon="5.56884">
        <ele>286.606</ele>
        <time>2019-09-22T13:57:07.001Z</time>
      </trkpt>
      <trkpt lat="48.88064" lon="5.56891">
        <ele>286.966</ele>
        <time>2019-09-22T13:57:10.001Z</time>
      </trkpt>
      <trkpt lat="48.88058" lon="5.56899">
        <ele>287.309</ele>
        <time>2019-09-22T13:57:13.001Z</time>
      </trkpt>
      <trkpt lat="48.88052" lon="5.56905">
        <ele>287.437</ele>
        <time>2019-09-22T13:57:16.000Z</time>
      </trkpt>
      <trkpt lat="48.88046" lon="5.56912">
        <ele>287.368</ele>
        <time>2019-09-22T13:57:19.001Z</time>
      </trkpt>
      <trkpt lat="48.8804" lon="5.56919">
        <ele>287.529</ele>
        <time>2019-09-22T13:57:22.001Z</time>
      </trkpt>
      <trkpt lat="48.88034" lon="5.56925">
        <ele>287.544</ele>
        <time>2019-09-22T13:57:25.001Z</time>
      </trkpt>
      <trkpt lat="48.88029" lon="5.56931">
        <ele>287.957</ele>
        <time>2019-09-22T13:57:28.001Z</time>
      </trkpt>
      <trkpt lat="48.88023" lon="5.56937">
        <ele>288.525</ele>
        <time>2019-09-22T13:57:31.001Z</time>
      </trkpt>
      <trkpt lat="48.88018" lon="5.56943">
        <ele>289.231</ele>
        <time>2019-09-22T13:57:34.001Z</time>
      </trkpt>
      <trkpt lat="48.88013" lon="5.56948">
        <ele>289.897</ele>
        <time>2019-09-22T13:57:37.001Z</time>
      </trkpt>
      <trkpt lat="48.88008" lon="5.56954">
        <ele>290.505</ele>
        <time>2019-09-22T13:57:40.001Z</time>
      </trkpt>
      <trkpt lat="48.88002" lon="5.56959">
        <ele>290.992</ele>
        <time>2019-09-22T13:57:43.001Z</time>
      </trkpt>
      <trkpt lat="48.87997" lon="5.56964">
        <ele>292.303</ele>
        <time>2019-09-22T13:57:46.001Z</time>
      </trkpt>
      <trkpt lat="48.87992" lon="5.56969">
        <ele>293.435</ele>
        <time>2019-09-22T13:57:49.001Z</time>
      </trkpt>
      <trkpt lat="48.87987" lon="5.56974">
        <ele>294.428</ele>
        <time>2019-09-22T13:57:52.001Z</time>
      </trkpt>
      <trkpt lat="48.87982" lon="5.5698">
        <ele>294.684</ele>
        <time>2019-09-22T13:57:55.001Z</time>
      </trkpt>
      <trkpt lat="48.87977" lon="5.56986">
        <ele>294.242</ele>
        <time>2019-09-22T13:57:58.001Z</time>
      </trkpt>
      <trkpt lat="48.87972" lon="5.56991">
        <ele>294.02</ele>
        <time>2019-09-22T13:58:01.001Z</time>
      </trkpt>
      <trkpt lat="48.87966" lon="5.56997">
        <ele>294.3</ele>
        <time>2019-09-22T13:58:04.001Z</time>
      </trkpt>
      <trkpt lat="48.87961" lon="5.57002">
        <ele>294.399</ele>
        <time>2019-09-22T13:58:07.001Z</time>
      </trkpt>
      <trkpt lat="48.87956" lon="5.57007">
        <ele>294.957</ele>
        <time>2019-09-22T13:58:10.001Z</time>
      </trkpt>
      <trkpt lat="48.8795" lon="5.57014">
        <ele>295.274</ele>
        <time>2019-09-22T13:58:13.001Z</time>
      </trkpt>
      <trkpt lat="48.87945" lon="5.5702">
        <ele>295.642</ele>
        <time>2019-09-22T13:58:16.000Z</time>
      </trkpt>
      <trkpt lat="48.87939" lon="5.57026">
        <ele>295.437</ele>
        <time>2019-09-22T13:58:19.001Z</time>
      </trkpt>
      <trkpt lat="48.87934" lon="5.57032">
        <ele>295.99</ele>
        <time>2019-09-22T13:58:22.001Z</time>
      </trkpt>
      <trkpt lat="48.87929" lon="5.57038">
        <ele>296.481</ele>
        <time>2019-09-22T13:58:25.001Z</time>
      </trkpt>
      <trkpt lat="48.87923" lon="5.57044">
        <ele>296.696</ele>
        <time>2019-09-22T13:58:28.001Z</time>
      </trkpt>
      <trkpt lat="48.87918" lon="5.5705">
        <ele>296.986</ele>
        <time>2019-09-22T13:58:31.001Z</time>
      </trkpt>
      <trkpt lat="48.87913" lon="5.57056">
        <ele>297.088</ele>
        <time>2019-09-22T13:58:34.001Z</time>
      </trkpt>
      <trkpt lat="48.87908" lon="5.57062">
        <ele>297.346</ele>
        <time>2019-09-22T13:58:37.001Z</time>
      </trkpt>
      <trkpt lat="48.87903" lon="5.57067">
        <ele>297.899</ele>
        <time>2019-09-22T13:58:40.001Z</time>
      </trkpt>
      <trkpt lat="48.87898" lon="5.57072">
        <ele>298.216</ele>
        <time>2019-09-22T13:58:43.001Z</time>
      </trkpt>
      <trkpt lat="48.87892" lon="5.57079">
        <ele>298.462</ele>
        <time>2019-09-22T13:58:46.001Z</time>
      </trkpt>
      <trkpt lat="48.87887" lon="5.57085">
        <ele>298.666</ele>
        <time>2019-09-22T13:58:49.001Z</time>
      </trkpt>
      <trkpt lat="48.87882" lon="5.57091">
        <ele>299.19</ele>
        <time>2019-09-22T13:58:52.001Z</time>
      </trkpt>
      <trkpt lat="48.87876" lon="5.57097">
        <ele>299.743</ele>
        <time>2019-09-22T13:58:55.001Z</time>
      </trkpt>
      <trkpt lat="48.87872" lon="5.57103">
        <ele>300.016</ele>
        <time>2019-09-22T13:58:58.001Z</time>
      </trkpt>
      <trkpt lat="48.87867" lon="5.57108">
        <ele>300.734</ele>
        <time>2019-09-22T13:59:01.001Z</time>
      </trkpt>
      <trkpt lat="48.87861" lon="5.57113">
        <ele>301.286</ele>
        <time>2019-09-22T13:59:04.001Z</time>
      </trkpt>
      <trkpt lat="48.87856" lon="5.57119">
        <ele>301.708</ele>
        <time>2019-09-22T13:59:07.001Z</time>
      </trkpt>
      <trkpt lat="48.87851" lon="5.57126">
        <ele>301.835</ele>
        <time>2019-09-22T13:59:10.001Z</time>
      </trkpt>
      <trkpt lat="48.87845" lon="5.57132">
        <ele>301.757</ele>
        <time>2019-09-22T13:59:13.001Z</time>
      </trkpt>
      <trkpt lat="48.87839" lon="5.57138">
        <ele>302.709</ele>
        <time>2019-09-22T13:59:16.000Z</time>
      </trkpt>
      <trkpt lat="48.87834" lon="5.57143">
        <ele>302.9</ele>
        <time>2019-09-22T13:59:19.001Z</time>
      </trkpt>
      <trkpt lat="48.87829" lon="5.57149">
        <ele>303.069</ele>
        <time>2019-09-22T13:59:22.001Z</time>
      </trkpt>
      <trkpt lat="48.87824" lon="5.57155">
        <ele>303.846</ele>
        <time>2019-09-22T13:59:25.001Z</time>
      </trkpt>
      <trkpt lat="48.87818" lon="5.5716">
        <ele>304.528</ele>
        <time>2019-09-22T13:59:28.001Z</time>
      </trkpt>
      <trkpt lat="48.87813" lon="5.57167">
        <ele>305.166</ele>
        <time>2019-09-22T13:59:31.001Z</time>
      </trkpt>
      <trkpt lat="48.87808" lon="5.57174">
        <ele>305.547</ele>
        <time>2019-09-22T13:59:34.001Z</time>
      </trkpt>
      <trkpt lat="48.87802" lon="5.5718">
        <ele>305.774</ele>
        <time>2019-09-22T13:59:37.001Z</time>
      </trkpt>
      <trkpt lat="48.87797" lon="5.57186">
        <ele>305.843</ele>
        <time>2019-09-22T13:59:40.001Z</time>
      </trkpt>
      <trkpt lat="48.87792" lon="5.57191">
        <ele>306.65</ele>
        <time>2019-09-22T13:59:43.001Z</time>
      </trkpt>
      <trkpt lat="48.87786" lon="5.57196">
        <ele>307.52</ele>
        <time>2019-09-22T13:59:46.001Z</time>
      </trkpt>
      <trkpt lat="48.87781" lon="5.57203">
        <ele>307.664</ele>
        <time>2019-09-22T13:59:49.001Z</time>
      </trkpt>
      <trkpt lat="48.87775" lon="5.57209">
        <ele>307.93</ele>
        <time>2019-09-22T13:59:52.001Z</time>
      </trkpt>
      <trkpt lat="48.8777" lon="5.57214">
        <ele>307.666</ele>
        <time>2019-09-22T13:59:55.001Z</time>
      </trkpt>
      <trkpt lat="48.87765" lon="5.5722">
        <ele>307.463</ele>
        <time>2019-09-22T13:59:58.001Z</time>
      </trkpt>
      <trkpt lat="48.87759" lon="5.57226">
        <ele>307.484</ele>
        <time>2019-09-22T14:00:01.001Z</time>
      </trkpt>
      <trkpt lat="48.87755" lon="5.57233">
        <ele>307.393</ele>
        <time>2019-09-22T14:00:04.001Z</time>
      </trkpt>
      <trkpt lat="48.87749" lon="5.57239">
        <ele>308.406</ele>
        <time>2019-09-22T14:00:07.001Z</time>
      </trkpt>
      <trkpt lat="48.87744" lon="5.57244">
        <ele>308.399</ele>
        <time>2019-09-22T14:00:10.001Z</time>
      </trkpt>
      <trkpt lat="48.87738" lon="5.5725">
        <ele>308.541</ele>
        <time>2019-09-22T14:00:13.001Z</time>
      </trkpt>
      <trkpt lat="48.87733" lon="5.57257">
        <ele>308.404</ele>
        <time>2019-09-22T14:00:16.000Z</time>
      </trkpt>
      <trkpt lat="48.87727" lon="5.57262">
        <ele>308.619</ele>
        <time>2019-09-22T14:00:19.001Z</time>
      </trkpt>
      <trkpt lat="48.87721" lon="5.57267">
        <ele>308.529</ele>
        <time>2019-09-22T14:00:22.001Z</time>
      </trkpt>
      <trkpt lat="48.87715" lon="5.57274">
        <ele>308.519</ele>
        <time>2019-09-22T14:00:25.001Z</time>
      </trkpt>
      <trkpt lat="48.87709" lon="5.57281">
        <ele>308.943</ele>
        <time>2019-09-22T14:00:28.001Z</time>
      </trkpt>
      <trkpt lat="48.87703" lon="5.57287">
        <ele>309.177</ele>
        <time>2019-09-22T14:00:31.001Z</time>
      </trkpt>
      <trkpt lat="48.87697" lon="5.57294">
        <ele>309.324</ele>
        <time>2019-09-22T14:00:34.001Z</time>
      </trkpt>
      <trkpt lat="48.87692" lon="5.573">
        <ele>309.117</ele>
        <time>2019-09-22T14:00:37.001Z</time>
      </trkpt>
      <trkpt lat="48.87686" lon="5.57305">
        <ele>308.882</ele>
        <time>2019-09-22T14:00:40.001Z</time>
      </trkpt>
      <trkpt lat="48.87681" lon="5.57312">
        <ele>308.577</ele>
        <time>2019-09-22T14:00:43.001Z</time>
      </trkpt>
      <trkpt lat="48.87675" lon="5.57318">
        <ele>308.962</ele>
        <time>2019-09-22T14:00:46.001Z</time>
      </trkpt>
      <trkpt lat="48.8767" lon="5.57324">
        <ele>309.258</ele>
        <time>2019-09-22T14:00:49.001Z</time>
      </trkpt>
      <trkpt lat="48.87664" lon="5.57331">
        <ele>309.365</ele>
        <time>2019-09-22T14:00:52.001Z</time>
      </trkpt>
      <trkpt lat="48.87659" lon="5.57337">
        <ele>309.925</ele>
        <time>2019-09-22T14:00:55.001Z</time>
      </trkpt>
      <trkpt lat="48.87653" lon="5.57342">
        <ele>310.23</ele>
        <time>2019-09-22T14:00:58.001Z</time>
      </trkpt>
      <trkpt lat="48.87648" lon="5.57348">
        <ele>310.635</ele>
        <time>2019-09-22T14:01:01.001Z</time>
      </trkpt>
      <trkpt lat="48.87643" lon="5.57354">
        <ele>311.238</ele>
        <time>2019-09-22T14:01:04.001Z</time>
      </trkpt>
      <trkpt lat="48.87638" lon="5.5736">
        <ele>311.598</ele>
        <time>2019-09-22T14:01:07.001Z</time>
      </trkpt>
      <trkpt lat="48.87633" lon="5.57365">
        <ele>312.149</ele>
        <time>2019-09-22T14:01:10.001Z</time>
      </trkpt>
      <trkpt lat="48.87628" lon="5.5737">
        <ele>312.918</ele>
        <time>2019-09-22T14:01:13.001Z</time>
      </trkpt>
      <trkpt lat="48.87623" lon="5.57375">
        <ele>313.61</ele>
        <time>2019-09-22T14:01:16.000Z</time>
      </trkpt>
      <trkpt lat="48.87618" lon="5.5738">
        <ele>313.991</ele>
        <time>2019-09-22T14:01:19.001Z</time>
      </trkpt>
      <trkpt lat="48.87613" lon="5.57386">
        <ele>314.279</ele>
        <time>2019-09-22T14:01:22.001Z</time>
      </trkpt>
      <trkpt lat="48.87608" lon="5.57392">
        <ele>315.331</ele>
        <time>2019-09-22T14:01:25.001Z</time>
      </trkpt>
      <trkpt lat="48.87603" lon="5.57397">
        <ele>315.639</ele>
        <time>2019-09-22T14:01:28.001Z</time>
      </trkpt>
      <trkpt lat="48.87598" lon="5.57402">
        <ele>315.6</ele>
        <time>2019-09-22T14:01:31.001Z</time>
      </trkpt>
      <trkpt lat="48.87594" lon="5.57408">
        <ele>315.926</ele>
        <time>2019-09-22T14:01:34.001Z</time>
      </trkpt>
      <trkpt lat="48.87589" lon="5.57414">
        <ele>316</ele>
        <time>2019-09-22T14:01:37.001Z</time>
      </trkpt>
      <trkpt lat="48.87584" lon="5.57419">
        <ele>315.941</ele>
        <time>2019-09-22T14:01:40.001Z</time>
      </trkpt>
      <trkpt lat="48.8758" lon="5.57424">
        <ele>316.209</ele>
        <time>2019-09-22T14:01:43.001Z</time>
      </trkpt>
      <trkpt lat="48.87576" lon="5.57428">
        <ele>316.358</ele>
        <time>2019-09-22T14:01:46.001Z</time>
      </trkpt>
      <trkpt lat="48.87571" lon="5.57432">
        <ele>316.298</ele>
        <time>2019-09-22T14:01:49.001Z</time>
      </trkpt>
      <trkpt lat="48.87567" lon="5.57437">
        <ele>316.19</ele>
        <time>2019-09-22T14:01:52.001Z</time>
      </trkpt>
      <trkpt lat="48.87563" lon="5.57442">
        <ele>316.862</ele>
        <time>2019-09-22T14:01:55.001Z</time>
      </trkpt>
      <trkpt lat="48.87559" lon="5.57447">
        <ele>317.768</ele>
        <time>2019-09-22T14:01:58.001Z</time>
      </trkpt>
      <trkpt lat="48.87554" lon="5.57452">
        <ele>317.867</ele>
        <time>2019-09-22T14:02:01.001Z</time>
      </trkpt>
      <trkpt lat="48.8755" lon="5.57456">
        <ele>317.988</ele>
        <time>2019-09-22T14:02:04.001Z</time>
      </trkpt>
      <trkpt lat="48.87545" lon="5.57461">
        <ele>318.516</ele>
        <time>2019-09-22T14:02:07.001Z</time>
      </trkpt>
      <trkpt lat="48.8754" lon="5.57467">
        <ele>318.995</ele>
        <time>2019-09-22T14:02:10.001Z</time>
      </trkpt>
      <trkpt lat="48.87535" lon="5.57471">
        <ele>320.267</ele>
        <time>2019-09-22T14:02:13.001Z</time>
      </trkpt>
      <trkpt lat="48.8753" lon="5.57476">
        <ele>321.21</ele>
        <time>2019-09-22T14:02:16.000Z</time>
      </trkpt>
      <trkpt lat="48.87526" lon="5.57481">
        <ele>321.476</ele>
        <time>2019-09-22T14:02:19.001Z</time>
      </trkpt>
      <trkpt lat="48.87522" lon="5.57486">
        <ele>321.933</ele>
        <time>2019-09-22T14:02:22.001Z</time>
      </trkpt>
      <trkpt lat="48.87517" lon="5.57491">
        <ele>322.025</ele>
        <time>2019-09-22T14:02:25.001Z</time>
      </trkpt>
      <trkpt lat="48.87512" lon="5.57496">
        <ele>322.534</ele>
        <time>2019-09-22T14:02:28.001Z</time>
      </trkpt>
      <trkpt lat="48.87507" lon="5.57501">
        <ele>322.815</ele>
        <time>2019-09-22T14:02:31.001Z</time>
      </trkpt>
      <trkpt lat="48.87504" lon="5.57506">
        <ele>323.53</ele>
        <time>2019-09-22T14:02:34.001Z</time>
      </trkpt>
      <trkpt lat="48.87499" lon="5.5751">
        <ele>324.168</ele>
        <time>2019-09-22T14:02:37.001Z</time>
      </trkpt>
      <trkpt lat="48.87495" lon="5.57514">
        <ele>324.38</ele>
        <time>2019-09-22T14:02:40.001Z</time>
      </trkpt>
      <trkpt lat="48.87491" lon="5.57519">
        <ele>324.921</ele>
        <time>2019-09-22T14:02:43.001Z</time>
      </trkpt>
      <trkpt lat="48.87487" lon="5.57523">
        <ele>325.405</ele>
        <time>2019-09-22T14:02:46.001Z</time>
      </trkpt>
      <trkpt lat="48.87483" lon="5.57527">
        <ele>325.77</ele>
        <time>2019-09-22T14:02:49.001Z</time>
      </trkpt>
      <trkpt lat="48.8748" lon="5.57531">
        <ele>325.981</ele>
        <time>2019-09-22T14:02:52.001Z</time>
      </trkpt>
      <trkpt lat="48.87476" lon="5.57535">
        <ele>326.334</ele>
        <time>2019-09-22T14:02:55.001Z</time>
      </trkpt>
      <trkpt lat="48.87471" lon="5.5754">
        <ele>326.89</ele>
        <time>2019-09-22T14:02:58.001Z</time>
      </trkpt>
      <trkpt lat="48.87468" lon="5.57545">
        <ele>327.037</ele>
        <time>2019-09-22T14:03:01.001Z</time>
      </trkpt>
      <trkpt lat="48.87464" lon="5.5755">
        <ele>327.105</ele>
        <time>2019-09-22T14:03:04.001Z</time>
      </trkpt>
      <trkpt lat="48.87459" lon="5.57554">
        <ele>327.584</ele>
        <time>2019-09-22T14:03:07.001Z</time>
      </trkpt>
      <trkpt lat="48.87455" lon="5.57558">
        <ele>327.749</ele>
        <time>2019-09-22T14:03:10.001Z</time>
      </trkpt>
      <trkpt lat="48.87451" lon="5.57562">
        <ele>327.659</ele>
        <time>2019-09-22T14:03:13.001Z</time>
      </trkpt>
      <trkpt lat="48.87447" lon="5.57567">
        <ele>328.336</ele>
        <time>2019-09-22T14:03:16.000Z</time>
      </trkpt>
      <trkpt lat="48.87443" lon="5.57572">
        <ele>328.583</ele>
        <time>2019-09-22T14:03:19.001Z</time>
      </trkpt>
      <trkpt lat="48.87438" lon="5.57577">
        <ele>328.407</ele>
        <time>2019-09-22T14:03:22.001Z</time>
      </trkpt>
      <trkpt lat="48.87433" lon="5.57582">
        <ele>329.58</ele>
        <time>2019-09-22T14:03:25.001Z</time>
      </trkpt>
      <trkpt lat="48.8743" lon="5.57586">
        <ele>330.061</ele>
        <time>2019-09-22T14:03:28.001Z</time>
      </trkpt>
      <trkpt lat="48.87426" lon="5.5759">
        <ele>330.308</ele>
        <time>2019-09-22T14:03:31.001Z</time>
      </trkpt>
      <trkpt lat="48.87422" lon="5.57594">
        <ele>330.935</ele>
        <time>2019-09-22T14:03:34.001Z</time>
      </trkpt>
      <trkpt lat="48.87417" lon="5.57598">
        <ele>330.794</ele>
        <time>2019-09-22T14:03:37.001Z</time>
      </trkpt>
      <trkpt lat="48.87412" lon="5.57603">
        <ele>331.218</ele>
        <time>2019-09-22T14:03:40.001Z</time>
      </trkpt>
      <trkpt lat="48.87407" lon="5.57609">
        <ele>331.323</ele>
        <time>2019-09-22T14:03:43.001Z</time>
      </trkpt>
      <trkpt lat="48.87402" lon="5.57616">
        <ele>331.322</ele>
        <time>2019-09-22T14:03:46.001Z</time>
      </trkpt>
      <trkpt lat="48.87395" lon="5.57623">
        <ele>332.086</ele>
        <time>2019-09-22T14:03:49.001Z</time>
      </trkpt>
      <trkpt lat="48.87388" lon="5.57631">
        <ele>331.788</ele>
        <time>2019-09-22T14:03:52.001Z</time>
      </trkpt>
      <trkpt lat="48.8738" lon="5.5764">
        <ele>331.381</ele>
        <time>2019-09-22T14:03:55.001Z</time>
      </trkpt>
      <trkpt lat="48.87371" lon="5.57649">
        <ele>331.171</ele>
        <time>2019-09-22T14:03:58.001Z</time>
      </trkpt>
      <trkpt lat="48.87363" lon="5.57658">
        <ele>331.351</ele>
        <time>2019-09-22T14:04:01.001Z</time>
      </trkpt>
      <trkpt lat="48.87354" lon="5.57668">
        <ele>331.83</ele>
        <time>2019-09-22T14:04:04.001Z</time>
      </trkpt>
      <trkpt lat="48.87343" lon="5.57679">
        <ele>332.154</ele>
        <time>2019-09-22T14:04:07.001Z</time>
      </trkpt>
      <trkpt lat="48.87332" lon="5.57692">
        <ele>332.231</ele>
        <time>2019-09-22T14:04:10.001Z</time>
      </trkpt>
      <trkpt lat="48.87321" lon="5.57705">
        <ele>332.692</ele>
        <time>2019-09-22T14:04:13.001Z</time>
      </trkpt>
      <trkpt lat="48.87309" lon="5.57718">
        <ele>332.813</ele>
        <time>2019-09-22T14:04:16.000Z</time>
      </trkpt>
      <trkpt lat="48.87298" lon="5.57732">
        <ele>333.162</ele>
        <time>2019-09-22T14:04:19.001Z</time>
      </trkpt>
      <trkpt lat="48.87287" lon="5.57743">
        <ele>332.973</ele>
        <time>2019-09-22T14:04:22.001Z</time>
      </trkpt>
      <trkpt lat="48.87275" lon="5.57753">
        <ele>333.088</ele>
        <time>2019-09-22T14:04:25.001Z</time>
      </trkpt>
      <trkpt lat="48.87266" lon="5.57764">
        <ele>332.132</ele>
        <time>2019-09-22T14:04:28.001Z</time>
      </trkpt>
      <trkpt lat="48.87255" lon="5.57776">
        <ele>331.676</ele>
        <time>2019-09-22T14:04:31.001Z</time>
      </trkpt>
      <trkpt lat="48.87244" lon="5.57788">
        <ele>330.818</ele>
        <time>2019-09-22T14:04:34.001Z</time>
      </trkpt>
      <trkpt lat="48.87235" lon="5.57798">
        <ele>330.471</ele>
        <time>2019-09-22T14:04:37.001Z</time>
      </trkpt>
      <trkpt lat="48.87225" lon="5.57807">
        <ele>330.148</ele>
        <time>2019-09-22T14:04:40.001Z</time>
      </trkpt>
      <trkpt lat="48.87218" lon="5.57816">
        <ele>328.838</ele>
        <time>2019-09-22T14:04:43.001Z</time>
      </trkpt>
      <trkpt lat="48.87212" lon="5.57825">
        <ele>328.011</ele>
        <time>2019-09-22T14:04:46.001Z</time>
      </trkpt>
      <trkpt lat="48.87206" lon="5.57835">
        <ele>327.781</ele>
        <time>2019-09-22T14:04:49.001Z</time>
      </trkpt>
      <trkpt lat="48.87201" lon="5.57845">
        <ele>327.914</ele>
        <time>2019-09-22T14:04:52.001Z</time>
      </trkpt>
      <trkpt lat="48.87197" lon="5.57856">
        <ele>328.248</ele>
        <time>2019-09-22T14:04:55.001Z</time>
      </trkpt>
      <trkpt lat="48.87194" lon="5.57869">
        <ele>328.633</ele>
        <time>2019-09-22T14:04:58.001Z</time>
      </trkpt>
      <trkpt lat="48.87192" lon="5.57883">
        <ele>328.355</ele>
        <time>2019-09-22T14:05:01.001Z</time>
      </trkpt>
      <trkpt lat="48.87192" lon="5.57899">
        <ele>327.821</ele>
        <time>2019-09-22T14:05:04.001Z</time>
      </trkpt>
      <trkpt lat="48.87192" lon="5.57916">
        <ele>327.768</ele>
        <time>2019-09-22T14:05:07.001Z</time>
      </trkpt>
      <trkpt lat="48.8719" lon="5.57933">
        <ele>328.521</ele>
        <time>2019-09-22T14:05:10.001Z</time>
      </trkpt>
      <trkpt lat="48.8719" lon="5.57952">
        <ele>329.191</ele>
        <time>2019-09-22T14:05:13.001Z</time>
      </trkpt>
      <trkpt lat="48.87189" lon="5.57971">
        <ele>329.346</ele>
        <time>2019-09-22T14:05:16.000Z</time>
      </trkpt>
      <trkpt lat="48.87181" lon="5.57986">
        <ele>330.12</ele>
        <time>2019-09-22T14:05:19.001Z</time>
      </trkpt>
      <trkpt lat="48.87172" lon="5.57979">
        <ele>330.675</ele>
        <time>2019-09-22T14:05:22.001Z</time>
      </trkpt>
      <trkpt lat="48.87165" lon="5.57967">
        <ele>331.566</ele>
        <time>2019-09-22T14:05:25.001Z</time>
      </trkpt>
      <trkpt lat="48.8716" lon="5.57959">
        <ele>332.572</ele>
        <time>2019-09-22T14:05:28.001Z</time>
      </trkpt>
      <trkpt lat="48.87155" lon="5.57953">
        <ele>333.358</ele>
        <time>2019-09-22T14:05:31.001Z</time>
      </trkpt>
      <trkpt lat="48.8715" lon="5.57947">
        <ele>333.964</ele>
        <time>2019-09-22T14:05:34.001Z</time>
      </trkpt>
      <trkpt lat="48.87144" lon="5.5794">
        <ele>334.363</ele>
        <time>2019-09-22T14:05:37.001Z</time>
      </trkpt>
      <trkpt lat="48.87138" lon="5.57933">
        <ele>334.498</ele>
        <time>2019-09-22T14:05:40.001Z</time>
      </trkpt>
      <trkpt lat="48.87133" lon="5.57926">
        <ele>334.894</ele>
        <time>2019-09-22T14:05:43.001Z</time>
      </trkpt>
      <trkpt lat="48.87128" lon="5.5792">
        <ele>335.185</ele>
        <time>2019-09-22T14:05:46.001Z</time>
      </trkpt>
      <trkpt lat="48.87123" lon="5.57915">
        <ele>335.729</ele>
        <time>2019-09-22T14:05:49.001Z</time>
      </trkpt>
      <trkpt lat="48.87119" lon="5.57909">
        <ele>336.561</ele>
        <time>2019-09-22T14:05:52.001Z</time>
      </trkpt>
      <trkpt lat="48.87114" lon="5.57904">
        <ele>337.254</ele>
        <time>2019-09-22T14:05:55.001Z</time>
      </trkpt>
      <trkpt lat="48.87109" lon="5.57898">
        <ele>338.708</ele>
        <time>2019-09-22T14:05:58.001Z</time>
      </trkpt>
      <trkpt lat="48.87105" lon="5.57893">
        <ele>340.042</ele>
        <time>2019-09-22T14:06:01.001Z</time>
      </trkpt>
      <trkpt lat="48.87101" lon="5.57888">
        <ele>340.805</ele>
        <time>2019-09-22T14:06:04.001Z</time>
      </trkpt>
      <trkpt lat="48.87098" lon="5.57881">
        <ele>341.404</ele>
        <time>2019-09-22T14:06:07.001Z</time>
      </trkpt>
      <trkpt lat="48.87094" lon="5.57875">
        <ele>341.365</ele>
        <time>2019-09-22T14:06:10.001Z</time>
      </trkpt>
      <trkpt lat="48.87089" lon="5.5787">
        <ele>341.499</ele>
        <time>2019-09-22T14:06:13.001Z</time>
      </trkpt>
      <trkpt lat="48.87084" lon="5.57865">
        <ele>341.909</ele>
        <time>2019-09-22T14:06:16.000Z</time>
      </trkpt>
      <trkpt lat="48.8708" lon="5.57859">
        <ele>342.983</ele>
        <time>2019-09-22T14:06:19.001Z</time>
      </trkpt>
      <trkpt lat="48.87075" lon="5.57852">
        <ele>344.589</ele>
        <time>2019-09-22T14:06:22.001Z</time>
      </trkpt>
      <trkpt lat="48.8707" lon="5.57845">
        <ele>346.02</ele>
        <time>2019-09-22T14:06:25.001Z</time>
      </trkpt>
      <trkpt lat="48.87065" lon="5.57837">
        <ele>346.541</ele>
        <time>2019-09-22T14:06:28.001Z</time>
      </trkpt>
      <trkpt lat="48.8706" lon="5.57831">
        <ele>347.453</ele>
        <time>2019-09-22T14:06:31.001Z</time>
      </trkpt>
      <trkpt lat="48.87055" lon="5.57826">
        <ele>348.273</ele>
        <time>2019-09-22T14:06:34.001Z</time>
      </trkpt>
      <trkpt lat="48.8705" lon="5.57821">
        <ele>348.847</ele>
        <time>2019-09-22T14:06:37.001Z</time>
      </trkpt>
      <trkpt lat="48.87046" lon="5.57815">
        <ele>349.59</ele>
        <time>2019-09-22T14:06:40.001Z</time>
      </trkpt>
      <trkpt lat="48.8704" lon="5.57808">
        <ele>349.715</ele>
        <time>2019-09-22T14:06:43.001Z</time>
      </trkpt>
      <trkpt lat="48.87036" lon="5.57802">
        <ele>351.44</ele>
        <time>2019-09-22T14:06:46.001Z</time>
      </trkpt>
      <trkpt lat="48.8703" lon="5.57796">
        <ele>353.404</ele>
        <time>2019-09-22T14:06:49.001Z</time>
      </trkpt>
      <trkpt lat="48.87026" lon="5.57789">
        <ele>353.38</ele>
        <time>2019-09-22T14:06:52.001Z</time>
      </trkpt>
      <trkpt lat="48.8702" lon="5.57782">
        <ele>352.477</ele>
        <time>2019-09-22T14:06:55.001Z</time>
      </trkpt>
      <trkpt lat="48.87015" lon="5.57774">
        <ele>353.079</ele>
        <time>2019-09-22T14:06:58.001Z</time>
      </trkpt>
      <trkpt lat="48.87009" lon="5.57766">
        <ele>354.103</ele>
        <time>2019-09-22T14:07:01.001Z</time>
      </trkpt>
      <trkpt lat="48.87003" lon="5.57758">
        <ele>356.166</ele>
        <time>2019-09-22T14:07:04.001Z</time>
      </trkpt>
      <trkpt lat="48.86997" lon="5.57752">
        <ele>356.855</ele>
        <time>2019-09-22T14:07:07.001Z</time>
      </trkpt>
      <trkpt lat="48.86991" lon="5.57747">
        <ele>357.8</ele>
        <time>2019-09-22T14:07:10.001Z</time>
      </trkpt>
      <trkpt lat="48.86985" lon="5.57742">
        <ele>358.806</ele>
        <time>2019-09-22T14:07:13.001Z</time>
      </trkpt>
      <trkpt lat="48.86979" lon="5.57735">
        <ele>359.403</ele>
        <time>2019-09-22T14:07:16.000Z</time>
      </trkpt>
      <trkpt lat="48.86974" lon="5.57727">
        <ele>360.161</ele>
        <time>2019-09-22T14:07:19.001Z</time>
      </trkpt>
      <trkpt lat="48.86968" lon="5.57721">
        <ele>361.614</ele>
        <time>2019-09-22T14:07:22.001Z</time>
      </trkpt>
      <trkpt lat="48.8696" lon="5.57713">
        <ele>360.286</ele>
        <time>2019-09-22T14:07:25.001Z</time>
      </trkpt>
      <trkpt lat="48.86951" lon="5.57702">
        <ele>357.003</ele>
        <time>2019-09-22T14:07:28.001Z</time>
      </trkpt>
      <trkpt lat="48.86943" lon="5.57691">
        <ele>354.449</ele>
        <time>2019-09-22T14:07:31.001Z</time>
      </trkpt>
      <trkpt lat="48.86936" lon="5.57678">
        <ele>352.811</ele>
        <time>2019-09-22T14:07:34.001Z</time>
      </trkpt>
      <trkpt lat="48.86931" lon="5.57665">
        <ele>350.932</ele>
        <time>2019-09-22T14:07:37.001Z</time>
      </trkpt>
      <trkpt lat="48.86928" lon="5.57651">
        <ele>349.234</ele>
        <time>2019-09-22T14:07:40.001Z</time>
      </trkpt>
      <trkpt lat="48.86922" lon="5.57637">
        <ele>347.54</ele>
        <time>2019-09-22T14:07:43.001Z</time>
      </trkpt>
      <trkpt lat="48.86918" lon="5.57624">
        <ele>345.594</ele>
        <time>2019-09-22T14:07:46.001Z</time>
      </trkpt>
      <trkpt lat="48.86913" lon="5.57611">
        <ele>344.292</ele>
        <time>2019-09-22T14:07:49.001Z</time>
      </trkpt>
      <trkpt lat="48.86909" lon="5.57597">
        <ele>343.357</ele>
        <time>2019-09-22T14:07:52.001Z</time>
      </trkpt>
      <trkpt lat="48.86903" lon="5.57584">
        <ele>342.868</ele>
        <time>2019-09-22T14:07:55.001Z</time>
      </trkpt>
      <trkpt lat="48.86898" lon="5.57571">
        <ele>342.861</ele>
        <time>2019-09-22T14:07:58.001Z</time>
      </trkpt>
      <trkpt lat="48.86891" lon="5.57559">
        <ele>343.141</ele>
        <time>2019-09-22T14:08:01.001Z</time>
      </trkpt>
      <trkpt lat="48.86885" lon="5.57546">
        <ele>343.103</ele>
        <time>2019-09-22T14:08:04.001Z</time>
      </trkpt>
      <trkpt lat="48.86879" lon="5.57532">
        <ele>342.596</ele>
        <time>2019-09-22T14:08:07.001Z</time>
      </trkpt>
      <trkpt lat="48.86871" lon="5.57518">
        <ele>341.835</ele>
        <time>2019-09-22T14:08:10.001Z</time>
      </trkpt>
      <trkpt lat="48.86865" lon="5.57504">
        <ele>341.323</ele>
        <time>2019-09-22T14:08:13.001Z</time>
      </trkpt>
      <trkpt lat="48.86858" lon="5.57491">
        <ele>340.661</ele>
        <time>2019-09-22T14:08:16.000Z</time>
      </trkpt>
      <trkpt lat="48.86853" lon="5.57477">
        <ele>340.421</ele>
        <time>2019-09-22T14:08:19.001Z</time>
      </trkpt>
      <trkpt lat="48.86847" lon="5.57463">
        <ele>340.632</ele>
        <time>2019-09-22T14:08:22.001Z</time>
      </trkpt>
      <trkpt lat="48.86841" lon="5.5745">
        <ele>340.398</ele>
        <time>2019-09-22T14:08:25.001Z</time>
      </trkpt>
      <trkpt lat="48.86836" lon="5.57435">
        <ele>340.462</ele>
        <time>2019-09-22T14:08:28.001Z</time>
      </trkpt>
      <trkpt lat="48.86831" lon="5.57421">
        <ele>340.221</ele>
        <time>2019-09-22T14:08:31.001Z</time>
      </trkpt>
      <trkpt lat="48.86826" lon="5.57408">
        <ele>340.153</ele>
        <time>2019-09-22T14:08:34.001Z</time>
      </trkpt>
      <trkpt lat="48.86821" lon="5.57392">
        <ele>340.424</ele>
        <time>2019-09-22T14:08:37.001Z</time>
      </trkpt>
      <trkpt lat="48.86816" lon="5.57377">
        <ele>340.55</ele>
        <time>2019-09-22T14:08:40.001Z</time>
      </trkpt>
      <trkpt lat="48.86811" lon="5.57362">
        <ele>340.882</ele>
        <time>2019-09-22T14:08:43.001Z</time>
      </trkpt>
      <trkpt lat="48.86808" lon="5.57347">
        <ele>341.004</ele>
        <time>2019-09-22T14:08:46.001Z</time>
      </trkpt>
      <trkpt lat="48.86804" lon="5.57331">
        <ele>340.66</ele>
        <time>2019-09-22T14:08:49.001Z</time>
      </trkpt>
      <trkpt lat="48.86799" lon="5.57315">
        <ele>340.26</ele>
        <time>2019-09-22T14:08:52.001Z</time>
      </trkpt>
      <trkpt lat="48.86795" lon="5.573">
        <ele>339.579</ele>
        <time>2019-09-22T14:08:55.001Z</time>
      </trkpt>
      <trkpt lat="48.86791" lon="5.57284">
        <ele>338.601</ele>
        <time>2019-09-22T14:08:58.001Z</time>
      </trkpt>
      <trkpt lat="48.86786" lon="5.57269">
        <ele>337.937</ele>
        <time>2019-09-22T14:09:01.001Z</time>
      </trkpt>
      <trkpt lat="48.8678" lon="5.57253">
        <ele>338.017</ele>
        <time>2019-09-22T14:09:04.001Z</time>
      </trkpt>
      <trkpt lat="48.86774" lon="5.57238">
        <ele>337.885</ele>
        <time>2019-09-22T14:09:07.001Z</time>
      </trkpt>
      <trkpt lat="48.86769" lon="5.57223">
        <ele>337.625</ele>
        <time>2019-09-22T14:09:10.001Z</time>
      </trkpt>
      <trkpt lat="48.86764" lon="5.57209">
        <ele>336.932</ele>
        <time>2019-09-22T14:09:13.001Z</time>
      </trkpt>
      <trkpt lat="48.8676" lon="5.57194">
        <ele>336.81</ele>
        <time>2019-09-22T14:09:16.000Z</time>
      </trkpt>
      <trkpt lat="48.86755" lon="5.57178">
        <ele>336.408</ele>
        <time>2019-09-22T14:09:19.001Z</time>
      </trkpt>
      <trkpt lat="48.86751" lon="5.57162">
        <ele>336.515</ele>
        <time>2019-09-22T14:09:22.001Z</time>
      </trkpt>
      <trkpt lat="48.86746" lon="5.57146">
        <ele>336.779</ele>
        <time>2019-09-22T14:09:25.001Z</time>
      </trkpt>
      <trkpt lat="48.86741" lon="5.57131">
        <ele>337.273</ele>
        <time>2019-09-22T14:09:28.001Z</time>
      </trkpt>
      <trkpt lat="48.86736" lon="5.57114">
        <ele>337.009</ele>
        <time>2019-09-22T14:09:31.001Z</time>
      </trkpt>
      <trkpt lat="48.86731" lon="5.57097">
        <ele>336.627</ele>
        <time>2019-09-22T14:09:34.001Z</time>
      </trkpt>
      <trkpt lat="48.86726" lon="5.57081">
        <ele>336.34</ele>
        <time>2019-09-22T14:09:37.001Z</time>
      </trkpt>
      <trkpt lat="48.86722" lon="5.57064">
        <ele>336.092</ele>
        <time>2019-09-22T14:09:40.001Z</time>
      </trkpt>
      <trkpt lat="48.86717" lon="5.57047">
        <ele>335.966</ele>
        <time>2019-09-22T14:09:43.001Z</time>
      </trkpt>
      <trkpt lat="48.86712" lon="5.57029">
        <ele>335.698</ele>
        <time>2019-09-22T14:09:46.001Z</time>
      </trkpt>
      <trkpt lat="48.86708" lon="5.5701">
        <ele>335.672</ele>
        <time>2019-09-22T14:09:49.001Z</time>
      </trkpt>
      <trkpt lat="48.86705" lon="5.5699">
        <ele>336.094</ele>
        <time>2019-09-22T14:09:52.001Z</time>
      </trkpt>
      <trkpt lat="48.86703" lon="5.56968">
        <ele>336.325</ele>
        <time>2019-09-22T14:09:55.001Z</time>
      </trkpt>
      <trkpt lat="48.86704" lon="5.56943">
        <ele>335.359</ele>
        <time>2019-09-22T14:09:58.001Z</time>
      </trkpt>
      <trkpt lat="48.86705" lon="5.56918">
        <ele>335.003</ele>
        <time>2019-09-22T14:10:01.001Z</time>
      </trkpt>
      <trkpt lat="48.86708" lon="5.56892">
        <ele>334.776</ele>
        <time>2019-09-22T14:10:04.001Z</time>
      </trkpt>
      <trkpt lat="48.86711" lon="5.56866">
        <ele>334.538</ele>
        <time>2019-09-22T14:10:07.001Z</time>
      </trkpt>
      <trkpt lat="48.86715" lon="5.56839">
        <ele>334.339</ele>
        <time>2019-09-22T14:10:10.001Z</time>
      </trkpt>
      <trkpt lat="48.86719" lon="5.56812">
        <ele>334.138</ele>
        <time>2019-09-22T14:10:13.001Z</time>
      </trkpt>
      <trkpt lat="48.86724" lon="5.56787">
        <ele>333.757</ele>
        <time>2019-09-22T14:10:16.000Z</time>
      </trkpt>
      <trkpt lat="48.86729" lon="5.56764">
        <ele>333.661</ele>
        <time>2019-09-22T14:10:19.001Z</time>
      </trkpt>
      <trkpt lat="48.86734" lon="5.56741">
        <ele>333.333</ele>
        <time>2019-09-22T14:10:22.001Z</time>
      </trkpt>
      <trkpt lat="48.86739" lon="5.56722">
        <ele>333.118</ele>
        <time>2019-09-22T14:10:25.001Z</time>
      </trkpt>
      <trkpt lat="48.86745" lon="5.56703">
        <ele>332.752</ele>
        <time>2019-09-22T14:10:28.001Z</time>
      </trkpt>
      <trkpt lat="48.86751" lon="5.56684">
        <ele>332.418</ele>
        <time>2019-09-22T14:10:31.001Z</time>
      </trkpt>
      <trkpt lat="48.86756" lon="5.56665">
        <ele>332.143</ele>
        <time>2019-09-22T14:10:34.001Z</time>
      </trkpt>
      <trkpt lat="48.86761" lon="5.56645">
        <ele>331.86</ele>
        <time>2019-09-22T14:10:37.001Z</time>
      </trkpt>
      <trkpt lat="48.86766" lon="5.56624">
        <ele>331.125</ele>
        <time>2019-09-22T14:10:40.001Z</time>
      </trkpt>
      <trkpt lat="48.86771" lon="5.56601">
        <ele>331.178</ele>
        <time>2019-09-22T14:10:43.001Z</time>
      </trkpt>
      <trkpt lat="48.86776" lon="5.56578">
        <ele>330.968</ele>
        <time>2019-09-22T14:10:46.001Z</time>
      </trkpt>
      <trkpt lat="48.8678" lon="5.56553">
        <ele>330.515</ele>
        <time>2019-09-22T14:10:49.001Z</time>
      </trkpt>
      <trkpt lat="48.86782" lon="5.56528">
        <ele>330.026</ele>
        <time>2019-09-22T14:10:52.001Z</time>
      </trkpt>
      <trkpt lat="48.86783" lon="5.56504">
        <ele>329.426</ele>
        <time>2019-09-22T14:10:55.001Z</time>
      </trkpt>
      <trkpt lat="48.86784" lon="5.56478">
        <ele>328.954</ele>
        <time>2019-09-22T14:10:58.001Z</time>
      </trkpt>
      <trkpt lat="48.86784" lon="5.56453">
        <ele>328.318</ele>
        <time>2019-09-22T14:11:01.001Z</time>
      </trkpt>
      <trkpt lat="48.86782" lon="5.56427">
        <ele>327.647</ele>
        <time>2019-09-22T14:11:04.001Z</time>
      </trkpt>
      <trkpt lat="48.86773" lon="5.56406">
        <ele>327.057</ele>
        <time>2019-09-22T14:11:07.001Z</time>
      </trkpt>
      <trkpt lat="48.86761" lon="5.5639">
        <ele>326.474</ele>
        <time>2019-09-22T14:11:10.001Z</time>
      </trkpt>
      <trkpt lat="48.8675" lon="5.56373">
        <ele>325.091</ele>
        <time>2019-09-22T14:11:13.001Z</time>
      </trkpt>
      <trkpt lat="48.86741" lon="5.56356">
        <ele>324.275</ele>
        <time>2019-09-22T14:11:16.000Z</time>
      </trkpt>
      <trkpt lat="48.86739" lon="5.56335">
        <ele>323.591</ele>
        <time>2019-09-22T14:11:19.001Z</time>
      </trkpt>
      <trkpt lat="48.86747" lon="5.56306">
        <ele>322.565</ele>
        <time>2019-09-22T14:11:22.001Z</time>
      </trkpt>
      <trkpt lat="48.8676" lon="5.56277">
        <ele>321.233</ele>
        <time>2019-09-22T14:11:25.001Z</time>
      </trkpt>
      <trkpt lat="48.86772" lon="5.56243">
        <ele>319.969</ele>
        <time>2019-09-22T14:11:28.001Z</time>
      </trkpt>
      <trkpt lat="48.86779" lon="5.56206">
        <ele>318.489</ele>
        <time>2019-09-22T14:11:31.001Z</time>
      </trkpt>
      <trkpt lat="48.86781" lon="5.56169">
        <ele>316.808</ele>
        <time>2019-09-22T14:11:34.001Z</time>
      </trkpt>
      <trkpt lat="48.86783" lon="5.56132">
        <ele>314.762</ele>
        <time>2019-09-22T14:11:37.001Z</time>
      </trkpt>
      <trkpt lat="48.86787" lon="5.56095">
        <ele>312.668</ele>
        <time>2019-09-22T14:11:40.001Z</time>
      </trkpt>
      <trkpt lat="48.86796" lon="5.5606">
        <ele>310.63</ele>
        <time>2019-09-22T14:11:43.001Z</time>
      </trkpt>
      <trkpt lat="48.86806" lon="5.56027">
        <ele>308.453</ele>
        <time>2019-09-22T14:11:46.001Z</time>
      </trkpt>
      <trkpt lat="48.86814" lon="5.55997">
        <ele>306.909</ele>
        <time>2019-09-22T14:11:49.001Z</time>
      </trkpt>
      <trkpt lat="48.86821" lon="5.55971">
        <ele>305.637</ele>
        <time>2019-09-22T14:11:52.001Z</time>
      </trkpt>
      <trkpt lat="48.86819" lon="5.55945">
        <ele>303.537</ele>
        <time>2019-09-22T14:11:55.001Z</time>
      </trkpt>
      <trkpt lat="48.86804" lon="5.55934">
        <ele>301.542</ele>
        <time>2019-09-22T14:11:58.001Z</time>
      </trkpt>
      <trkpt lat="48.86787" lon="5.55939">
        <ele>300.453</ele>
        <time>2019-09-22T14:12:01.001Z</time>
      </trkpt>
      <trkpt lat="48.86773" lon="5.55945">
        <ele>299.782</ele>
        <time>2019-09-22T14:12:04.001Z</time>
      </trkpt>
      <trkpt lat="48.86759" lon="5.55947">
        <ele>298.203</ele>
        <time>2019-09-22T14:12:07.001Z</time>
      </trkpt>
      <trkpt lat="48.86745" lon="5.55951">
        <ele>298.886</ele>
        <time>2019-09-22T14:12:10.001Z</time>
      </trkpt>
      <trkpt lat="48.86731" lon="5.55955">
        <ele>298.973</ele>
        <time>2019-09-22T14:12:13.001Z</time>
      </trkpt>
      <trkpt lat="48.86717" lon="5.55958">
        <ele>299.205</ele>
        <time>2019-09-22T14:12:16.000Z</time>
      </trkpt>
      <trkpt lat="48.86703" lon="5.55963">
        <ele>299.035</ele>
        <time>2019-09-22T14:12:19.001Z</time>
      </trkpt>
      <trkpt lat="48.86688" lon="5.55967">
        <ele>299.353</ele>
        <time>2019-09-22T14:12:22.001Z</time>
      </trkpt>
      <trkpt lat="48.86676" lon="5.55968">
        <ele>298.534</ele>
        <time>2019-09-22T14:12:25.001Z</time>
      </trkpt>
      <trkpt lat="48.86662" lon="5.55965">
        <ele>297.311</ele>
        <time>2019-09-22T14:12:28.001Z</time>
      </trkpt>
      <trkpt lat="48.86647" lon="5.55951">
        <ele>296.01</ele>
        <time>2019-09-22T14:12:31.001Z</time>
      </trkpt>
      <trkpt lat="48.86635" lon="5.55926">
        <ele>295.083</ele>
        <time>2019-09-22T14:12:34.001Z</time>
      </trkpt>
      <trkpt lat="48.86627" lon="5.55898">
        <ele>293.906</ele>
        <time>2019-09-22T14:12:37.001Z</time>
      </trkpt>
      <trkpt lat="48.86621" lon="5.55871">
        <ele>292.553</ele>
        <time>2019-09-22T14:12:40.001Z</time>
      </trkpt>
      <trkpt lat="48.86616" lon="5.55843">
        <ele>290.958</ele>
        <time>2019-09-22T14:12:43.001Z</time>
      </trkpt>
      <trkpt lat="48.86618" lon="5.55813">
        <ele>289.228</ele>
        <time>2019-09-22T14:12:46.001Z</time>
      </trkpt>
      <trkpt lat="48.86633" lon="5.55789">
        <ele>287.203</ele>
        <time>2019-09-22T14:12:49.001Z</time>
      </trkpt>
      <trkpt lat="48.86657" lon="5.55774">
        <ele>285.323</ele>
        <time>2019-09-22T14:12:52.001Z</time>
      </trkpt>
      <trkpt lat="48.86681" lon="5.55767">
        <ele>284.086</ele>
        <time>2019-09-22T14:12:55.001Z</time>
      </trkpt>
      <trkpt lat="48.86702" lon="5.55761">
        <ele>282.358</ele>
        <time>2019-09-22T14:12:58.001Z</time>
      </trkpt>
      <trkpt lat="48.86723" lon="5.55754">
        <ele>281.169</ele>
        <time>2019-09-22T14:13:01.001Z</time>
      </trkpt>
      <trkpt lat="48.86744" lon="5.55747">
        <ele>279.788</ele>
        <time>2019-09-22T14:13:04.001Z</time>
      </trkpt>
      <trkpt lat="48.86767" lon="5.5574">
        <ele>277.982</ele>
        <time>2019-09-22T14:13:07.001Z</time>
      </trkpt>
      <trkpt lat="48.86791" lon="5.55733">
        <ele>276.501</ele>
        <time>2019-09-22T14:13:10.001Z</time>
      </trkpt>
      <trkpt lat="48.86813" lon="5.55725">
        <ele>276.437</ele>
        <time>2019-09-22T14:13:13.001Z</time>
      </trkpt>
      <trkpt lat="48.86828" lon="5.55709">
        <ele>277.081</ele>
        <time>2019-09-22T14:13:16.000Z</time>
      </trkpt>
      <trkpt lat="48.86835" lon="5.55683">
        <ele>277.063</ele>
        <time>2019-09-22T14:13:19.001Z</time>
      </trkpt>
      <trkpt lat="48.86831" lon="5.55655">
        <ele>276.316</ele>
        <time>2019-09-22T14:13:22.001Z</time>
      </trkpt>
      <trkpt lat="48.8682" lon="5.55632">
        <ele>275.146</ele>
        <time>2019-09-22T14:13:25.001Z</time>
      </trkpt>
      <trkpt lat="48.8681" lon="5.55607">
        <ele>273.583</ele>
        <time>2019-09-22T14:13:28.001Z</time>
      </trkpt>
      <trkpt lat="48.86806" lon="5.55581">
        <ele>271.346</ele>
        <time>2019-09-22T14:13:31.001Z</time>
      </trkpt>
      <trkpt lat="48.86814" lon="5.55552">
        <ele>269.117</ele>
        <time>2019-09-22T14:13:34.001Z</time>
      </trkpt>
      <trkpt lat="48.86827" lon="5.55527">
        <ele>267.394</ele>
        <time>2019-09-22T14:13:37.001Z</time>
      </trkpt>
      <trkpt lat="48.86844" lon="5.55502">
        <ele>265.626</ele>
        <time>2019-09-22T14:13:40.001Z</time>
      </trkpt>
      <trkpt lat="48.86861" lon="5.55478">
        <ele>263.85</ele>
        <time>2019-09-22T14:13:43.001Z</time>
      </trkpt>
      <trkpt lat="48.86876" lon="5.55456">
        <ele>262.771</ele>
        <time>2019-09-22T14:13:46.001Z</time>
      </trkpt>
      <trkpt lat="48.86891" lon="5.55436">
        <ele>261.575</ele>
        <time>2019-09-22T14:13:49.001Z</time>
      </trkpt>
      <trkpt lat="48.86904" lon="5.55413">
        <ele>259.898</ele>
        <time>2019-09-22T14:13:52.001Z</time>
      </trkpt>
      <trkpt lat="48.86913" lon="5.55386">
        <ele>258.204</ele>
        <time>2019-09-22T14:13:55.001Z</time>
      </trkpt>
      <trkpt lat="48.86923" lon="5.55353">
        <ele>256.341</ele>
        <time>2019-09-22T14:13:58.001Z</time>
      </trkpt>
      <trkpt lat="48.86933" lon="5.55326">
        <ele>254.858</ele>
        <time>2019-09-22T14:14:01.001Z</time>
      </trkpt>
      <trkpt lat="48.86942" lon="5.55299">
        <ele>253.503</ele>
        <time>2019-09-22T14:14:04.001Z</time>
      </trkpt>
      <trkpt lat="48.86951" lon="5.55272">
        <ele>251.977</ele>
        <time>2019-09-22T14:14:07.001Z</time>
      </trkpt>
      <trkpt lat="48.86961" lon="5.55245">
        <ele>250.451</ele>
        <time>2019-09-22T14:14:10.001Z</time>
      </trkpt>
      <trkpt lat="48.86972" lon="5.55216">
        <ele>249.084</ele>
        <time>2019-09-22T14:14:13.001Z</time>
      </trkpt>
      <trkpt lat="48.86982" lon="5.55187">
        <ele>247.478</ele>
        <time>2019-09-22T14:14:16.000Z</time>
      </trkpt>
      <trkpt lat="48.86991" lon="5.5516">
        <ele>245.682</ele>
        <time>2019-09-22T14:14:19.001Z</time>
      </trkpt>
      <trkpt lat="48.87001" lon="5.55132">
        <ele>243.667</ele>
        <time>2019-09-22T14:14:22.001Z</time>
      </trkpt>
      <trkpt lat="48.87009" lon="5.55107">
        <ele>241.385</ele>
        <time>2019-09-22T14:14:25.001Z</time>
      </trkpt>
      <trkpt lat="48.87011" lon="5.55084">
        <ele>239.579</ele>
        <time>2019-09-22T14:14:28.001Z</time>
      </trkpt>
      <trkpt lat="48.8701" lon="5.55062">
        <ele>237.972</ele>
        <time>2019-09-22T14:14:31.001Z</time>
      </trkpt>
      <trkpt lat="48.87006" lon="5.5504">
        <ele>236.53</ele>
        <time>2019-09-22T14:14:34.001Z</time>
      </trkpt>
      <trkpt lat="48.87002" lon="5.55018">
        <ele>234.572</ele>
        <time>2019-09-22T14:14:37.001Z</time>
      </trkpt>
      <trkpt lat="48.86992" lon="5.54999">
        <ele>233.818</ele>
        <time>2019-09-22T14:14:40.001Z</time>
      </trkpt>
      <trkpt lat="48.86978" lon="5.54985">
        <ele>233.53</ele>
        <time>2019-09-22T14:14:43.001Z</time>
      </trkpt>
      <trkpt lat="48.86963" lon="5.54972">
        <ele>232.653</ele>
        <time>2019-09-22T14:14:46.001Z</time>
      </trkpt>
      <trkpt lat="48.86948" lon="5.54958">
        <ele>230.635</ele>
        <time>2019-09-22T14:14:49.001Z</time>
      </trkpt>
      <trkpt lat="48.86933" lon="5.54945">
        <ele>229.715</ele>
        <time>2019-09-22T14:14:52.001Z</time>
      </trkpt>
      <trkpt lat="48.86919" lon="5.54934">
        <ele>229.133</ele>
        <time>2019-09-22T14:14:55.001Z</time>
      </trkpt>
      <trkpt lat="48.86908" lon="5.54927">
        <ele>228.341</ele>
        <time>2019-09-22T14:14:58.001Z</time>
      </trkpt>
      <trkpt lat="48.86901" lon="5.5492">
        <ele>229.035</ele>
        <time>2019-09-22T14:15:01.001Z</time>
      </trkpt>
      <trkpt lat="48.86893" lon="5.54919">
        <ele>228.745</ele>
        <time>2019-09-22T14:15:04.001Z</time>
      </trkpt>
      <trkpt lat="48.86886" lon="5.54928">
        <ele>227.568</ele>
        <time>2019-09-22T14:15:07.001Z</time>
      </trkpt>
      <trkpt lat="48.86879" lon="5.54944">
        <ele>226.996</ele>
        <time>2019-09-22T14:15:10.001Z</time>
      </trkpt>
      <trkpt lat="48.86872" lon="5.54963">
        <ele>226.778</ele>
        <time>2019-09-22T14:15:13.001Z</time>
      </trkpt>
      <trkpt lat="48.86864" lon="5.54981">
        <ele>227.069</ele>
        <time>2019-09-22T14:15:16.000Z</time>
      </trkpt>
      <trkpt lat="48.86858" lon="5.55001">
        <ele>226.755</ele>
        <time>2019-09-22T14:15:19.001Z</time>
      </trkpt>
      <trkpt lat="48.86853" lon="5.5502">
        <ele>226.117</ele>
        <time>2019-09-22T14:15:22.001Z</time>
      </trkpt>
      <trkpt lat="48.86846" lon="5.55041">
        <ele>225.746</ele>
        <time>2019-09-22T14:15:25.001Z</time>
      </trkpt>
      <trkpt lat="48.8684" lon="5.55061">
        <ele>224.771</ele>
        <time>2019-09-22T14:15:28.001Z</time>
      </trkpt>
      <trkpt lat="48.86831" lon="5.5508">
        <ele>224.323</ele>
        <time>2019-09-22T14:15:31.001Z</time>
      </trkpt>
      <trkpt lat="48.86821" lon="5.55093">
        <ele>225.17</ele>
        <time>2019-09-22T14:15:34.001Z</time>
      </trkpt>
      <trkpt lat="48.86809" lon="5.55103">
        <ele>225.638</ele>
        <time>2019-09-22T14:15:37.001Z</time>
      </trkpt>
      <trkpt lat="48.86799" lon="5.55115">
        <ele>226.421</ele>
        <time>2019-09-22T14:15:40.001Z</time>
      </trkpt>
      <trkpt lat="48.86789" lon="5.55127">
        <ele>227.894</ele>
        <time>2019-09-22T14:15:43.001Z</time>
      </trkpt>
      <trkpt lat="48.86778" lon="5.55139">
        <ele>229.418</ele>
        <time>2019-09-22T14:15:46.001Z</time>
      </trkpt>
      <trkpt lat="48.86767" lon="5.55151">
        <ele>231.224</ele>
        <time>2019-09-22T14:15:49.001Z</time>
      </trkpt>
      <trkpt lat="48.86756" lon="5.55164">
        <ele>232.919</ele>
        <time>2019-09-22T14:15:52.001Z</time>
      </trkpt>
      <trkpt lat="48.86744" lon="5.55177">
        <ele>232.742</ele>
        <time>2019-09-22T14:15:55.001Z</time>
      </trkpt>
      <trkpt lat="48.86732" lon="5.5519">
        <ele>231.587</ele>
        <time>2019-09-22T14:15:58.001Z</time>
      </trkpt>
      <trkpt lat="48.86719" lon="5.55204">
        <ele>228.94</ele>
        <time>2019-09-22T14:16:01.001Z</time>
      </trkpt>
      <trkpt lat="48.86706" lon="5.55215">
        <ele>226.512</ele>
        <time>2019-09-22T14:16:04.001Z</time>
      </trkpt>
      <trkpt lat="48.86693" lon="5.55225">
        <ele>223.939</ele>
        <time>2019-09-22T14:16:07.001Z</time>
      </trkpt>
      <trkpt lat="48.86679" lon="5.55232">
        <ele>223.042</ele>
        <time>2019-09-22T14:16:10.001Z</time>
      </trkpt>
      <trkpt lat="48.86665" lon="5.5524">
        <ele>222.274</ele>
        <time>2019-09-22T14:16:13.001Z</time>
      </trkpt>
      <trkpt lat="48.86652" lon="5.55247">
        <ele>221.606</ele>
        <time>2019-09-22T14:16:16.000Z</time>
      </trkpt>
      <trkpt lat="48.8664" lon="5.55254">
        <ele>221.17</ele>
        <time>2019-09-22T14:16:19.001Z</time>
      </trkpt>
      <trkpt lat="48.86628" lon="5.55259">
        <ele>220.884</ele>
        <time>2019-09-22T14:16:22.001Z</time>
      </trkpt>
      <trkpt lat="48.86616" lon="5.55266">
        <ele>220.868</ele>
        <time>2019-09-22T14:16:25.001Z</time>
      </trkpt>
      <trkpt lat="48.86604" lon="5.55273">
        <ele>221.03</ele>
        <time>2019-09-22T14:16:28.001Z</time>
      </trkpt>
      <trkpt lat="48.86591" lon="5.55281">
        <ele>221.513</ele>
        <time>2019-09-22T14:16:31.001Z</time>
      </trkpt>
      <trkpt lat="48.86577" lon="5.55288">
        <ele>221.276</ele>
        <time>2019-09-22T14:16:34.001Z</time>
      </trkpt>
      <trkpt lat="48.86563" lon="5.55295">
        <ele>221.265</ele>
        <time>2019-09-22T14:16:37.001Z</time>
      </trkpt>
      <trkpt lat="48.86549" lon="5.55302">
        <ele>221.433</ele>
        <time>2019-09-22T14:16:40.001Z</time>
      </trkpt>
      <trkpt lat="48.86534" lon="5.55307">
        <ele>221.12</ele>
        <time>2019-09-22T14:16:43.001Z</time>
      </trkpt>
      <trkpt lat="48.8652" lon="5.55312">
        <ele>221.133</ele>
        <time>2019-09-22T14:16:46.001Z</time>
      </trkpt>
      <trkpt lat="48.86506" lon="5.55315">
        <ele>221.506</ele>
        <time>2019-09-22T14:16:49.001Z</time>
      </trkpt>
      <trkpt lat="48.86493" lon="5.55318">
        <ele>221.674</ele>
        <time>2019-09-22T14:16:52.001Z</time>
      </trkpt>
      <trkpt lat="48.8648" lon="5.55322">
        <ele>221.621</ele>
        <time>2019-09-22T14:16:55.001Z</time>
      </trkpt>
      <trkpt lat="48.86469" lon="5.55325">
        <ele>221.408</ele>
        <time>2019-09-22T14:16:58.001Z</time>
      </trkpt>
      <trkpt lat="48.86456" lon="5.55329">
        <ele>222.005</ele>
        <time>2019-09-22T14:17:01.001Z</time>
      </trkpt>
      <trkpt lat="48.86445" lon="5.55335">
        <ele>222.192</ele>
        <time>2019-09-22T14:17:04.001Z</time>
      </trkpt>
      <trkpt lat="48.86433" lon="5.55341">
        <ele>221.947</ele>
        <time>2019-09-22T14:17:07.001Z</time>
      </trkpt>
      <trkpt lat="48.8642" lon="5.55348">
        <ele>221.603</ele>
        <time>2019-09-22T14:17:10.001Z</time>
      </trkpt>
      <trkpt lat="48.86407" lon="5.55356">
        <ele>221.694</ele>
        <time>2019-09-22T14:17:13.001Z</time>
      </trkpt>
      <trkpt lat="48.86393" lon="5.55364">
        <ele>221.813</ele>
        <time>2019-09-22T14:17:16.000Z</time>
      </trkpt>
      <trkpt lat="48.86379" lon="5.55369">
        <ele>222.15</ele>
        <time>2019-09-22T14:17:19.001Z</time>
      </trkpt>
      <trkpt lat="48.86364" lon="5.55373">
        <ele>222.182</ele>
        <time>2019-09-22T14:17:22.001Z</time>
      </trkpt>
      <trkpt lat="48.8635" lon="5.55375">
        <ele>222.333</ele>
        <time>2019-09-22T14:17:25.001Z</time>
      </trkpt>
      <trkpt lat="48.86336" lon="5.55375">
        <ele>222.11</ele>
        <time>2019-09-22T14:17:28.001Z</time>
      </trkpt>
      <trkpt lat="48.86322" lon="5.55374">
        <ele>222.745</ele>
        <time>2019-09-22T14:17:31.001Z</time>
      </trkpt>
      <trkpt lat="48.86307" lon="5.55374">
        <ele>223.318</ele>
        <time>2019-09-22T14:17:34.001Z</time>
      </trkpt>
      <trkpt lat="48.86295" lon="5.55373">
        <ele>223.585</ele>
        <time>2019-09-22T14:17:37.001Z</time>
      </trkpt>
      <trkpt lat="48.86282" lon="5.55371">
        <ele>223.59</ele>
        <time>2019-09-22T14:17:40.001Z</time>
      </trkpt>
      <trkpt lat="48.86269" lon="5.55369">
        <ele>223.645</ele>
        <time>2019-09-22T14:17:43.001Z</time>
      </trkpt>
      <trkpt lat="48.86257" lon="5.55367">
        <ele>223.754</ele>
        <time>2019-09-22T14:17:46.001Z</time>
      </trkpt>
      <trkpt lat="48.86244" lon="5.55365">
        <ele>224.055</ele>
        <time>2019-09-22T14:17:49.001Z</time>
      </trkpt>
      <trkpt lat="48.86231" lon="5.55363">
        <ele>224.086</ele>
        <time>2019-09-22T14:17:52.001Z</time>
      </trkpt>
      <trkpt lat="48.86217" lon="5.55363">
        <ele>224.072</ele>
        <time>2019-09-22T14:17:55.001Z</time>
      </trkpt>
      <trkpt lat="48.86203" lon="5.55361">
        <ele>223.849</ele>
        <time>2019-09-22T14:17:58.001Z</time>
      </trkpt>
      <trkpt lat="48.8619" lon="5.55358">
        <ele>223.789</ele>
        <time>2019-09-22T14:18:01.001Z</time>
      </trkpt>
      <trkpt lat="48.86177" lon="5.55354">
        <ele>223.807</ele>
        <time>2019-09-22T14:18:04.001Z</time>
      </trkpt>
      <trkpt lat="48.86165" lon="5.5535">
        <ele>223.961</ele>
        <time>2019-09-22T14:18:07.001Z</time>
      </trkpt>
      <trkpt lat="48.86152" lon="5.55345">
        <ele>223.704</ele>
        <time>2019-09-22T14:18:10.001Z</time>
      </trkpt>
      <trkpt lat="48.86139" lon="5.55338">
        <ele>223.877</ele>
        <time>2019-09-22T14:18:13.001Z</time>
      </trkpt>
      <trkpt lat="48.86126" lon="5.55331">
        <ele>223.865</ele>
        <time>2019-09-22T14:18:16.000Z</time>
      </trkpt>
      <trkpt lat="48.86113" lon="5.55323">
        <ele>223.921</ele>
        <time>2019-09-22T14:18:19.001Z</time>
      </trkpt>
      <trkpt lat="48.86101" lon="5.55317">
        <ele>224.07</ele>
        <time>2019-09-22T14:18:22.001Z</time>
      </trkpt>
      <trkpt lat="48.8609" lon="5.55308">
        <ele>223.987</ele>
        <time>2019-09-22T14:18:25.001Z</time>
      </trkpt>
      <trkpt lat="48.86079" lon="5.55299">
        <ele>223.968</ele>
        <time>2019-09-22T14:18:28.001Z</time>
      </trkpt>
      <trkpt lat="48.86068" lon="5.55291">
        <ele>224.608</ele>
        <time>2019-09-22T14:18:31.001Z</time>
      </trkpt>
      <trkpt lat="48.86057" lon="5.55282">
        <ele>225.118</ele>
        <time>2019-09-22T14:18:34.001Z</time>
      </trkpt>
      <trkpt lat="48.86046" lon="5.55273">
        <ele>225.322</ele>
        <time>2019-09-22T14:18:37.001Z</time>
      </trkpt>
      <trkpt lat="48.86035" lon="5.55264">
        <ele>225.681</ele>
        <time>2019-09-22T14:18:40.001Z</time>
      </trkpt>
      <trkpt lat="48.86024" lon="5.55256">
        <ele>225.552</ele>
        <time>2019-09-22T14:18:43.001Z</time>
      </trkpt>
      <trkpt lat="48.86013" lon="5.55248">
        <ele>225.499</ele>
        <time>2019-09-22T14:18:46.001Z</time>
      </trkpt>
      <trkpt lat="48.86002" lon="5.55239">
        <ele>225.714</ele>
        <time>2019-09-22T14:18:49.001Z</time>
      </trkpt>
      <trkpt lat="48.85991" lon="5.5523">
        <ele>226.075</ele>
        <time>2019-09-22T14:18:52.001Z</time>
      </trkpt>
      <trkpt lat="48.8598" lon="5.55221">
        <ele>226.166</ele>
        <time>2019-09-22T14:18:55.001Z</time>
      </trkpt>
      <trkpt lat="48.85969" lon="5.55211">
        <ele>226.268</ele>
        <time>2019-09-22T14:18:58.001Z</time>
      </trkpt>
      <trkpt lat="48.85957" lon="5.55202">
        <ele>225.706</ele>
        <time>2019-09-22T14:19:01.001Z</time>
      </trkpt>
      <trkpt lat="48.85946" lon="5.55192">
        <ele>226.155</ele>
        <time>2019-09-22T14:19:04.001Z</time>
      </trkpt>
      <trkpt lat="48.85936" lon="5.55184">
        <ele>226.363</ele>
        <time>2019-09-22T14:19:07.001Z</time>
      </trkpt>
      <trkpt lat="48.85925" lon="5.55175">
        <ele>226.349</ele>
        <time>2019-09-22T14:19:10.001Z</time>
      </trkpt>
      <trkpt lat="48.85915" lon="5.55166">
        <ele>226.254</ele>
        <time>2019-09-22T14:19:13.001Z</time>
      </trkpt>
      <trkpt lat="48.85904" lon="5.55157">
        <ele>226.23</ele>
        <time>2019-09-22T14:19:16.000Z</time>
      </trkpt>
      <trkpt lat="48.85893" lon="5.55148">
        <ele>226.298</ele>
        <time>2019-09-22T14:19:19.001Z</time>
      </trkpt>
      <trkpt lat="48.85882" lon="5.55137">
        <ele>226.037</ele>
        <time>2019-09-22T14:19:22.001Z</time>
      </trkpt>
      <trkpt lat="48.85871" lon="5.55127">
        <ele>225.847</ele>
        <time>2019-09-22T14:19:25.001Z</time>
      </trkpt>
      <trkpt lat="48.8586" lon="5.55117">
        <ele>226.095</ele>
        <time>2019-09-22T14:19:28.001Z</time>
      </trkpt>
      <trkpt lat="48.8585" lon="5.55106">
        <ele>226.387</ele>
        <time>2019-09-22T14:19:31.001Z</time>
      </trkpt>
      <trkpt lat="48.85839" lon="5.55095">
        <ele>226.585</ele>
        <time>2019-09-22T14:19:34.001Z</time>
      </trkpt>
      <trkpt lat="48.85828" lon="5.55085">
        <ele>226.622</ele>
        <time>2019-09-22T14:19:37.001Z</time>
      </trkpt>
      <trkpt lat="48.85817" lon="5.55074">
        <ele>226.74</ele>
        <time>2019-09-22T14:19:40.001Z</time>
      </trkpt>
      <trkpt lat="48.85807" lon="5.55063">
        <ele>226.602</ele>
        <time>2019-09-22T14:19:43.001Z</time>
      </trkpt>
      <trkpt lat="48.85798" lon="5.55051">
        <ele>226.599</ele>
        <time>2019-09-22T14:19:46.001Z</time>
      </trkpt>
      <trkpt lat="48.85787" lon="5.5504">
        <ele>226.68</ele>
        <time>2019-09-22T14:19:49.001Z</time>
      </trkpt>
      <trkpt lat="48.85776" lon="5.55029">
        <ele>226.114</ele>
        <time>2019-09-22T14:19:52.001Z</time>
      </trkpt>
      <trkpt lat="48.85766" lon="5.55017">
        <ele>225.534</ele>
        <time>2019-09-22T14:19:55.001Z</time>
      </trkpt>
      <trkpt lat="48.85757" lon="5.55007">
        <ele>225.443</ele>
        <time>2019-09-22T14:19:58.001Z</time>
      </trkpt>
      <trkpt lat="48.85747" lon="5.54997">
        <ele>225.44</ele>
        <time>2019-09-22T14:20:01.001Z</time>
      </trkpt>
      <trkpt lat="48.85737" lon="5.54986">
        <ele>225.68</ele>
        <time>2019-09-22T14:20:04.001Z</time>
      </trkpt>
      <trkpt lat="48.85727" lon="5.54975">
        <ele>225.868</ele>
        <time>2019-09-22T14:20:07.001Z</time>
      </trkpt>
      <trkpt lat="48.85717" lon="5.54965">
        <ele>225.963</ele>
        <time>2019-09-22T14:20:10.001Z</time>
      </trkpt>
      <trkpt lat="48.85707" lon="5.54954">
        <ele>226.039</ele>
        <time>2019-09-22T14:20:13.001Z</time>
      </trkpt>
      <trkpt lat="48.85698" lon="5.54944">
        <ele>225.831</ele>
        <time>2019-09-22T14:20:16.000Z</time>
      </trkpt>
      <trkpt lat="48.85688" lon="5.54934">
        <ele>225.728</ele>
        <time>2019-09-22T14:20:19.001Z</time>
      </trkpt>
      <trkpt lat="48.85678" lon="5.54924">
        <ele>225.665</ele>
        <time>2019-09-22T14:20:22.001Z</time>
      </trkpt>
      <trkpt lat="48.85668" lon="5.54913">
        <ele>225.6</ele>
        <time>2019-09-22T14:20:25.001Z</time>
      </trkpt>
      <trkpt lat="48.85657" lon="5.54903">
        <ele>225.464</ele>
        <time>2019-09-22T14:20:28.001Z</time>
      </trkpt>
      <trkpt lat="48.85646" lon="5.54892">
        <ele>225.241</ele>
        <time>2019-09-22T14:20:31.001Z</time>
      </trkpt>
      <trkpt lat="48.85637" lon="5.54881">
        <ele>225.017</ele>
        <time>2019-09-22T14:20:34.001Z</time>
      </trkpt>
      <trkpt lat="48.85627" lon="5.54871">
        <ele>224.787</ele>
        <time>2019-09-22T14:20:37.001Z</time>
      </trkpt>
      <trkpt lat="48.85617" lon="5.54861">
        <ele>224.384</ele>
        <time>2019-09-22T14:20:40.001Z</time>
      </trkpt>
      <trkpt lat="48.85608" lon="5.5485">
        <ele>224.125</ele>
        <time>2019-09-22T14:20:43.001Z</time>
      </trkpt>
      <trkpt lat="48.85598" lon="5.5484">
        <ele>223.869</ele>
        <time>2019-09-22T14:20:46.001Z</time>
      </trkpt>
      <trkpt lat="48.85588" lon="5.54829">
        <ele>223.82</ele>
        <time>2019-09-22T14:20:49.001Z</time>
      </trkpt>
      <trkpt lat="48.85578" lon="5.54818">
        <ele>224.313</ele>
        <time>2019-09-22T14:20:52.001Z</time>
      </trkpt>
      <trkpt lat="48.85568" lon="5.54808">
        <ele>224.509</ele>
        <time>2019-09-22T14:20:55.001Z</time>
      </trkpt>
      <trkpt lat="48.85559" lon="5.54796">
        <ele>224.862</ele>
        <time>2019-09-22T14:20:58.001Z</time>
      </trkpt>
      <trkpt lat="48.85548" lon="5.54784">
        <ele>226.199</ele>
        <time>2019-09-22T14:21:01.001Z</time>
      </trkpt>
      <trkpt lat="48.85537" lon="5.54773">
        <ele>227.463</ele>
        <time>2019-09-22T14:21:04.001Z</time>
      </trkpt>
      <trkpt lat="48.85526" lon="5.54763">
        <ele>228.324</ele>
        <time>2019-09-22T14:21:07.001Z</time>
      </trkpt>
      <trkpt lat="48.85516" lon="5.54752">
        <ele>228.402</ele>
        <time>2019-09-22T14:21:10.001Z</time>
      </trkpt>
      <trkpt lat="48.85507" lon="5.54741">
        <ele>228.22</ele>
        <time>2019-09-22T14:21:13.001Z</time>
      </trkpt>
      <trkpt lat="48.85499" lon="5.5473">
        <ele>227.578</ele>
        <time>2019-09-22T14:21:16.000Z</time>
      </trkpt>
      <trkpt lat="48.85491" lon="5.54718">
        <ele>227.316</ele>
        <time>2019-09-22T14:21:19.001Z</time>
      </trkpt>
      <trkpt lat="48.85481" lon="5.54706">
        <ele>227.434</ele>
        <time>2019-09-22T14:21:22.001Z</time>
      </trkpt>
      <trkpt lat="48.85471" lon="5.54693">
        <ele>227.301</ele>
        <time>2019-09-22T14:21:25.001Z</time>
      </trkpt>
      <trkpt lat="48.8546" lon="5.54681">
        <ele>226.968</ele>
        <time>2019-09-22T14:21:28.001Z</time>
      </trkpt>
      <trkpt lat="48.85451" lon="5.54667">
        <ele>226.738</ele>
        <time>2019-09-22T14:21:31.001Z</time>
      </trkpt>
      <trkpt lat="48.85442" lon="5.54652">
        <ele>226.265</ele>
        <time>2019-09-22T14:21:34.001Z</time>
      </trkpt>
      <trkpt lat="48.85434" lon="5.54638">
        <ele>226.134</ele>
        <time>2019-09-22T14:21:37.001Z</time>
      </trkpt>
      <trkpt lat="48.85426" lon="5.54624">
        <ele>225.834</ele>
        <time>2019-09-22T14:21:40.001Z</time>
      </trkpt>
      <trkpt lat="48.85419" lon="5.5461">
        <ele>225.348</ele>
        <time>2019-09-22T14:21:43.001Z</time>
      </trkpt>
      <trkpt lat="48.85411" lon="5.54596">
        <ele>225.433</ele>
        <time>2019-09-22T14:21:46.001Z</time>
      </trkpt>
      <trkpt lat="48.85403" lon="5.54582">
        <ele>225.22</ele>
        <time>2019-09-22T14:21:49.001Z</time>
      </trkpt>
      <trkpt lat="48.85399" lon="5.54568">
        <ele>225.165</ele>
        <time>2019-09-22T14:21:52.001Z</time>
      </trkpt>
      <trkpt lat="48.85393" lon="5.54554">
        <ele>224.83</ele>
        <time>2019-09-22T14:21:55.001Z</time>
      </trkpt>
      <trkpt lat="48.85387" lon="5.54537">
        <ele>224.495</ele>
        <time>2019-09-22T14:21:58.001Z</time>
      </trkpt>
      <trkpt lat="48.8538" lon="5.5452">
        <ele>224.008</ele>
        <time>2019-09-22T14:22:01.001Z</time>
      </trkpt>
      <trkpt lat="48.85375" lon="5.54503">
        <ele>223.85</ele>
        <time>2019-09-22T14:22:04.001Z</time>
      </trkpt>
      <trkpt lat="48.85369" lon="5.54487">
        <ele>223.703</ele>
        <time>2019-09-22T14:22:07.001Z</time>
      </trkpt>
      <trkpt lat="48.85362" lon="5.5447">
        <ele>223.779</ele>
        <time>2019-09-22T14:22:10.001Z</time>
      </trkpt>
      <trkpt lat="48.85356" lon="5.54453">
        <ele>223.781</ele>
        <time>2019-09-22T14:22:13.001Z</time>
      </trkpt>
      <trkpt lat="48.8535" lon="5.54435">
        <ele>223.697</ele>
        <time>2019-09-22T14:22:16.000Z</time>
      </trkpt>
      <trkpt lat="48.85344" lon="5.54417">
        <ele>223.826</ele>
        <time>2019-09-22T14:22:19.001Z</time>
      </trkpt>
      <trkpt lat="48.85338" lon="5.54401">
        <ele>223.906</ele>
        <time>2019-09-22T14:22:22.001Z</time>
      </trkpt>
      <trkpt lat="48.8533" lon="5.54383">
        <ele>224.092</ele>
        <time>2019-09-22T14:22:25.001Z</time>
      </trkpt>
      <trkpt lat="48.85323" lon="5.54366">
        <ele>223.767</ele>
        <time>2019-09-22T14:22:28.001Z</time>
      </trkpt>
      <trkpt lat="48.85317" lon="5.5435">
        <ele>223.583</ele>
        <time>2019-09-22T14:22:31.001Z</time>
      </trkpt>
      <trkpt lat="48.85312" lon="5.54333">
        <ele>223.493</ele>
        <time>2019-09-22T14:22:34.001Z</time>
      </trkpt>
      <trkpt lat="48.85307" lon="5.54316">
        <ele>223.189</ele>
        <time>2019-09-22T14:22:37.001Z</time>
      </trkpt>
      <trkpt lat="48.85301" lon="5.543">
        <ele>222.732</ele>
        <time>2019-09-22T14:22:40.001Z</time>
      </trkpt>
      <trkpt lat="48.85296" lon="5.54283">
        <ele>222.704</ele>
        <time>2019-09-22T14:22:43.001Z</time>
      </trkpt>
      <trkpt lat="48.8529" lon="5.54266">
        <ele>222.54</ele>
        <time>2019-09-22T14:22:46.001Z</time>
      </trkpt>
      <trkpt lat="48.85285" lon="5.54249">
        <ele>222.783</ele>
        <time>2019-09-22T14:22:49.001Z</time>
      </trkpt>
      <trkpt lat="48.85278" lon="5.5423">
        <ele>222.797</ele>
        <time>2019-09-22T14:22:52.001Z</time>
      </trkpt>
      <trkpt lat="48.85272" lon="5.54211">
        <ele>222.605</ele>
        <time>2019-09-22T14:22:55.001Z</time>
      </trkpt>
      <trkpt lat="48.85267" lon="5.54193">
        <ele>222.263</ele>
        <time>2019-09-22T14:22:58.001Z</time>
      </trkpt>
      <trkpt lat="48.85261" lon="5.54176">
        <ele>221.864</ele>
        <time>2019-09-22T14:23:01.001Z</time>
      </trkpt>
      <trkpt lat="48.85255" lon="5.54159">
        <ele>221.884</ele>
        <time>2019-09-22T14:23:04.001Z</time>
      </trkpt>
      <trkpt lat="48.8525" lon="5.54142">
        <ele>222.013</ele>
        <time>2019-09-22T14:23:07.001Z</time>
      </trkpt>
      <trkpt lat="48.85244" lon="5.54124">
        <ele>221.86</ele>
        <time>2019-09-22T14:23:10.001Z</time>
      </trkpt>
      <trkpt lat="48.85238" lon="5.54107">
        <ele>221.771</ele>
        <time>2019-09-22T14:23:13.001Z</time>
      </trkpt>
      <trkpt lat="48.85233" lon="5.54091">
        <ele>221.903</ele>
        <time>2019-09-22T14:23:16.000Z</time>
      </trkpt>
      <trkpt lat="48.85228" lon="5.54074">
        <ele>222.065</ele>
        <time>2019-09-22T14:23:19.001Z</time>
      </trkpt>
      <trkpt lat="48.85222" lon="5.54055">
        <ele>221.967</ele>
        <time>2019-09-22T14:23:22.001Z</time>
      </trkpt>
      <trkpt lat="48.85216" lon="5.54037">
        <ele>221.87</ele>
        <time>2019-09-22T14:23:25.001Z</time>
      </trkpt>
      <trkpt lat="48.8521" lon="5.54018">
        <ele>221.56</ele>
        <time>2019-09-22T14:23:28.001Z</time>
      </trkpt>
      <trkpt lat="48.85204" lon="5.53999">
        <ele>221.049</ele>
        <time>2019-09-22T14:23:31.001Z</time>
      </trkpt>
      <trkpt lat="48.85198" lon="5.53981">
        <ele>220.542</ele>
        <time>2019-09-22T14:23:34.001Z</time>
      </trkpt>
      <trkpt lat="48.85194" lon="5.53964">
        <ele>220.596</ele>
        <time>2019-09-22T14:23:37.001Z</time>
      </trkpt>
      <trkpt lat="48.85188" lon="5.53946">
        <ele>220.35</ele>
        <time>2019-09-22T14:23:40.001Z</time>
      </trkpt>
      <trkpt lat="48.85182" lon="5.53929">
        <ele>220.319</ele>
        <time>2019-09-22T14:23:43.001Z</time>
      </trkpt>
      <trkpt lat="48.85176" lon="5.53913">
        <ele>220.136</ele>
        <time>2019-09-22T14:23:46.001Z</time>
      </trkpt>
      <trkpt lat="48.85171" lon="5.53895">
        <ele>220.273</ele>
        <time>2019-09-22T14:23:49.001Z</time>
      </trkpt>
      <trkpt lat="48.85165" lon="5.53879">
        <ele>220.159</ele>
        <time>2019-09-22T14:23:52.001Z</time>
      </trkpt>
      <trkpt lat="48.8516" lon="5.53862">
        <ele>220.197</ele>
        <time>2019-09-22T14:23:55.001Z</time>
      </trkpt>
      <trkpt lat="48.85155" lon="5.53845">
        <ele>219.868</ele>
        <time>2019-09-22T14:23:58.001Z</time>
      </trkpt>
      <trkpt lat="48.85149" lon="5.53828">
        <ele>219.454</ele>
        <time>2019-09-22T14:24:01.001Z</time>
      </trkpt>
      <trkpt lat="48.85144" lon="5.53813">
        <ele>219.503</ele>
        <time>2019-09-22T14:24:04.001Z</time>
      </trkpt>
      <trkpt lat="48.85138" lon="5.53797">
        <ele>219.3</ele>
        <time>2019-09-22T14:24:07.001Z</time>
      </trkpt>
      <trkpt lat="48.85131" lon="5.53781">
        <ele>218.973</ele>
        <time>2019-09-22T14:24:10.001Z</time>
      </trkpt>
      <trkpt lat="48.85126" lon="5.53764">
        <ele>219.185</ele>
        <time>2019-09-22T14:24:13.001Z</time>
      </trkpt>
      <trkpt lat="48.85121" lon="5.53746">
        <ele>219.612</ele>
        <time>2019-09-22T14:24:16.000Z</time>
      </trkpt>
      <trkpt lat="48.85116" lon="5.53729">
        <ele>219.761</ele>
        <time>2019-09-22T14:24:19.001Z</time>
      </trkpt>
      <trkpt lat="48.8511" lon="5.53713">
        <ele>220.069</ele>
        <time>2019-09-22T14:24:22.001Z</time>
      </trkpt>
      <trkpt lat="48.85105" lon="5.53697">
        <ele>220.456</ele>
        <time>2019-09-22T14:24:25.001Z</time>
      </trkpt>
      <trkpt lat="48.85101" lon="5.5368">
        <ele>220.493</ele>
        <time>2019-09-22T14:24:28.001Z</time>
      </trkpt>
      <trkpt lat="48.85096" lon="5.53664">
        <ele>220.487</ele>
        <time>2019-09-22T14:24:31.001Z</time>
      </trkpt>
      <trkpt lat="48.8509" lon="5.53648">
        <ele>220.563</ele>
        <time>2019-09-22T14:24:34.001Z</time>
      </trkpt>
      <trkpt lat="48.85085" lon="5.53631">
        <ele>221.094</ele>
        <time>2019-09-22T14:24:37.001Z</time>
      </trkpt>
      <trkpt lat="48.85079" lon="5.53614">
        <ele>221.42</ele>
        <time>2019-09-22T14:24:40.001Z</time>
      </trkpt>
      <trkpt lat="48.85074" lon="5.53596">
        <ele>221.986</ele>
        <time>2019-09-22T14:24:43.001Z</time>
      </trkpt>
      <trkpt lat="48.85068" lon="5.53577">
        <ele>222.21</ele>
        <time>2019-09-22T14:24:46.001Z</time>
      </trkpt>
      <trkpt lat="48.85063" lon="5.53558">
        <ele>222.261</ele>
        <time>2019-09-22T14:24:49.001Z</time>
      </trkpt>
      <trkpt lat="48.85056" lon="5.53539">
        <ele>222.113</ele>
        <time>2019-09-22T14:24:52.001Z</time>
      </trkpt>
      <trkpt lat="48.8505" lon="5.5352">
        <ele>221.805</ele>
        <time>2019-09-22T14:24:55.001Z</time>
      </trkpt>
      <trkpt lat="48.85043" lon="5.53501">
        <ele>221.639</ele>
        <time>2019-09-22T14:24:58.001Z</time>
      </trkpt>
      <trkpt lat="48.85037" lon="5.53481">
        <ele>221.333</ele>
        <time>2019-09-22T14:25:01.001Z</time>
      </trkpt>
      <trkpt lat="48.85031" lon="5.53463">
        <ele>220.885</ele>
        <time>2019-09-22T14:25:04.001Z</time>
      </trkpt>
      <trkpt lat="48.85025" lon="5.53445">
        <ele>220.766</ele>
        <time>2019-09-22T14:25:07.001Z</time>
      </trkpt>
      <trkpt lat="48.85019" lon="5.53428">
        <ele>220.486</ele>
        <time>2019-09-22T14:25:10.001Z</time>
      </trkpt>
      <trkpt lat="48.85012" lon="5.5341">
        <ele>220.613</ele>
        <time>2019-09-22T14:25:13.001Z</time>
      </trkpt>
      <trkpt lat="48.85005" lon="5.53393">
        <ele>220.953</ele>
        <time>2019-09-22T14:25:16.000Z</time>
      </trkpt>
      <trkpt lat="48.84998" lon="5.53375">
        <ele>221.372</ele>
        <time>2019-09-22T14:25:19.001Z</time>
      </trkpt>
      <trkpt lat="48.8499" lon="5.53357">
        <ele>221.463</ele>
        <time>2019-09-22T14:25:22.001Z</time>
      </trkpt>
      <trkpt lat="48.84982" lon="5.53342">
        <ele>221.83</ele>
        <time>2019-09-22T14:25:25.001Z</time>
      </trkpt>
      <trkpt lat="48.84975" lon="5.53328">
        <ele>222.137</ele>
        <time>2019-09-22T14:25:28.001Z</time>
      </trkpt>
      <trkpt lat="48.84967" lon="5.53311">
        <ele>221.808</ele>
        <time>2019-09-22T14:25:31.001Z</time>
      </trkpt>
      <trkpt lat="48.84956" lon="5.53292">
        <ele>221.58</ele>
        <time>2019-09-22T14:25:34.001Z</time>
      </trkpt>
      <trkpt lat="48.84947" lon="5.53276">
        <ele>222.452</ele>
        <time>2019-09-22T14:25:37.001Z</time>
      </trkpt>
      <trkpt lat="48.84939" lon="5.53261">
        <ele>222.771</ele>
        <time>2019-09-22T14:25:40.001Z</time>
      </trkpt>
      <trkpt lat="48.84931" lon="5.53245">
        <ele>222.798</ele>
        <time>2019-09-22T14:25:43.001Z</time>
      </trkpt>
      <trkpt lat="48.84922" lon="5.53228">
        <ele>222.687</ele>
        <time>2019-09-22T14:25:46.001Z</time>
      </trkpt>
      <trkpt lat="48.84911" lon="5.53213">
        <ele>223.396</ele>
        <time>2019-09-22T14:25:49.001Z</time>
      </trkpt>
      <trkpt lat="48.84898" lon="5.532">
        <ele>224.809</ele>
        <time>2019-09-22T14:25:52.001Z</time>
      </trkpt>
      <trkpt lat="48.84888" lon="5.53189">
        <ele>225.7</ele>
        <time>2019-09-22T14:25:55.001Z</time>
      </trkpt>
      <trkpt lat="48.8488" lon="5.53177">
        <ele>225.586</ele>
        <time>2019-09-22T14:25:58.001Z</time>
      </trkpt>
      <trkpt lat="48.84874" lon="5.53162">
        <ele>225.759</ele>
        <time>2019-09-22T14:26:01.002Z</time>
      </trkpt>
      <trkpt lat="48.84865" lon="5.53149">
        <ele>225.675</ele>
        <time>2019-09-22T14:26:04.001Z</time>
      </trkpt>
      <trkpt lat="48.84857" lon="5.53133">
        <ele>225.579</ele>
        <time>2019-09-22T14:26:07.001Z</time>
      </trkpt>
      <trkpt lat="48.8485" lon="5.53116">
        <ele>226.008</ele>
        <time>2019-09-22T14:26:10.001Z</time>
      </trkpt>
      <trkpt lat="48.84843" lon="5.53098">
        <ele>226.743</ele>
        <time>2019-09-22T14:26:13.001Z</time>
      </trkpt>
      <trkpt lat="48.84836" lon="5.5308">
        <ele>226.708</ele>
        <time>2019-09-22T14:26:16.000Z</time>
      </trkpt>
      <trkpt lat="48.8483" lon="5.53062">
        <ele>227.489</ele>
        <time>2019-09-22T14:26:19.001Z</time>
      </trkpt>
      <trkpt lat="48.84824" lon="5.53045">
        <ele>227.631</ele>
        <time>2019-09-22T14:26:22.001Z</time>
      </trkpt>
      <trkpt lat="48.8482" lon="5.5303">
        <ele>228.127</ele>
        <time>2019-09-22T14:26:25.001Z</time>
      </trkpt>
      <trkpt lat="48.84814" lon="5.53016">
        <ele>229.459</ele>
        <time>2019-09-22T14:26:28.001Z</time>
      </trkpt>
      <trkpt lat="48.84807" lon="5.53002">
        <ele>229.606</ele>
        <time>2019-09-22T14:26:31.001Z</time>
      </trkpt>
      <trkpt lat="48.848" lon="5.52988">
        <ele>229.611</ele>
        <time>2019-09-22T14:26:34.001Z</time>
      </trkpt>
      <trkpt lat="48.84794" lon="5.52974">
        <ele>229.522</ele>
        <time>2019-09-22T14:26:37.001Z</time>
      </trkpt>
      <trkpt lat="48.84789" lon="5.52962">
        <ele>230.077</ele>
        <time>2019-09-22T14:26:40.001Z</time>
      </trkpt>
      <trkpt lat="48.84782" lon="5.52951">
        <ele>230.872</ele>
        <time>2019-09-22T14:26:43.001Z</time>
      </trkpt>
      <trkpt lat="48.84776" lon="5.52937">
        <ele>230.859</ele>
        <time>2019-09-22T14:26:46.001Z</time>
      </trkpt>
      <trkpt lat="48.84768" lon="5.52925">
        <ele>229.957</ele>
        <time>2019-09-22T14:26:49.001Z</time>
      </trkpt>
      <trkpt lat="48.84759" lon="5.52913">
        <ele>228.944</ele>
        <time>2019-09-22T14:26:52.001Z</time>
      </trkpt>
      <trkpt lat="48.84754" lon="5.529">
        <ele>228.86</ele>
        <time>2019-09-22T14:26:55.001Z</time>
      </trkpt>
      <trkpt lat="48.84745" lon="5.52888">
        <ele>229.045</ele>
        <time>2019-09-22T14:26:58.001Z</time>
      </trkpt>
      <trkpt lat="48.84737" lon="5.52876">
        <ele>229.083</ele>
        <time>2019-09-22T14:27:01.001Z</time>
      </trkpt>
      <trkpt lat="48.84729" lon="5.52859">
        <ele>228.891</ele>
        <time>2019-09-22T14:27:04.001Z</time>
      </trkpt>
      <trkpt lat="48.84721" lon="5.52843">
        <ele>229.149</ele>
        <time>2019-09-22T14:27:07.001Z</time>
      </trkpt>
      <trkpt lat="48.84716" lon="5.52828">
        <ele>229.24</ele>
        <time>2019-09-22T14:27:10.001Z</time>
      </trkpt>
      <trkpt lat="48.84707" lon="5.52814">
        <ele>229.866</ele>
        <time>2019-09-22T14:27:13.001Z</time>
      </trkpt>
      <trkpt lat="48.84699" lon="5.52799">
        <ele>230.571</ele>
        <time>2019-09-22T14:27:16.000Z</time>
      </trkpt>
      <trkpt lat="48.84689" lon="5.52783">
        <ele>231.101</ele>
        <time>2019-09-22T14:27:19.001Z</time>
      </trkpt>
      <trkpt lat="48.84678" lon="5.5277">
        <ele>229.943</ele>
        <time>2019-09-22T14:27:22.001Z</time>
      </trkpt>
      <trkpt lat="48.84672" lon="5.52762">
        <ele>229.027</ele>
        <time>2019-09-22T14:27:25.001Z</time>
      </trkpt>
      <trkpt lat="48.84672" lon="5.52761">
        <ele>228.744</ele>
        <time>2019-09-22T14:27:28.001Z</time>
      </trkpt>
      <trkpt lat="48.84672" lon="5.52761">
        <ele>228.744</ele>
        <time>2019-09-22T14:28:55.001Z</time>
      </trkpt>
      <trkpt lat="48.84673" lon="5.52761">
        <ele>229.002</ele>
        <time>2019-09-22T14:28:58.001Z</time>
      </trkpt>
      <trkpt lat="48.84673" lon="5.5276">
        <ele>229.378</ele>
        <time>2019-09-22T14:29:01.001Z</time>
      </trkpt>
      <trkpt lat="48.84675" lon="5.52758">
        <ele>228.7</ele>
        <time>2019-09-22T14:34:40.001Z</time>
      </trkpt>
      <trkpt lat="48.84671" lon="5.52754">
        <ele>228.716</ele>
        <time>2019-09-22T14:34:43.001Z</time>
      </trkpt>
      <trkpt lat="48.84666" lon="5.52749">
        <ele>228.895</ele>
        <time>2019-09-22T14:34:46.001Z</time>
      </trkpt>
      <trkpt lat="48.84661" lon="5.52744">
        <ele>229.388</ele>
        <time>2019-09-22T14:34:49.001Z</time>
      </trkpt>
      <trkpt lat="48.84654" lon="5.52736">
        <ele>229.016</ele>
        <time>2019-09-22T14:34:52.001Z</time>
      </trkpt>
      <trkpt lat="48.84645" lon="5.52726">
        <ele>228.594</ele>
        <time>2019-09-22T14:34:55.001Z</time>
      </trkpt>
      <trkpt lat="48.84635" lon="5.52714">
        <ele>228.206</ele>
        <time>2019-09-22T14:34:58.001Z</time>
      </trkpt>
      <trkpt lat="48.84625" lon="5.527">
        <ele>227.619</ele>
        <time>2019-09-22T14:35:01.001Z</time>
      </trkpt>
      <trkpt lat="48.84616" lon="5.52687">
        <ele>226.942</ele>
        <time>2019-09-22T14:35:04.001Z</time>
      </trkpt>
      <trkpt lat="48.84604" lon="5.52676">
        <ele>226.481</ele>
        <time>2019-09-22T14:35:07.001Z</time>
      </trkpt>
      <trkpt lat="48.84591" lon="5.52678">
        <ele>226.751</ele>
        <time>2019-09-22T14:35:10.001Z</time>
      </trkpt>
      <trkpt lat="48.84581" lon="5.52689">
        <ele>228.077</ele>
        <time>2019-09-22T14:35:13.001Z</time>
      </trkpt>
      <trkpt lat="48.84573" lon="5.52699">
        <ele>229.373</ele>
        <time>2019-09-22T14:35:16.000Z</time>
      </trkpt>
      <trkpt lat="48.84568" lon="5.52709">
        <ele>230.479</ele>
        <time>2019-09-22T14:35:19.001Z</time>
      </trkpt>
      <trkpt lat="48.84561" lon="5.52721">
        <ele>231.3</ele>
        <time>2019-09-22T14:35:22.001Z</time>
      </trkpt>
      <trkpt lat="48.84553" lon="5.52732">
        <ele>231.829</ele>
        <time>2019-09-22T14:35:25.001Z</time>
      </trkpt>
      <trkpt lat="48.84546" lon="5.52743">
        <ele>231.836</ele>
        <time>2019-09-22T14:35:28.001Z</time>
      </trkpt>
      <trkpt lat="48.84537" lon="5.52754">
        <ele>231.303</ele>
        <time>2019-09-22T14:35:31.001Z</time>
      </trkpt>
      <trkpt lat="48.84529" lon="5.52765">
        <ele>231.36</ele>
        <time>2019-09-22T14:35:34.001Z</time>
      </trkpt>
      <trkpt lat="48.8452" lon="5.52775">
        <ele>231.83</ele>
        <time>2019-09-22T14:35:37.001Z</time>
      </trkpt>
      <trkpt lat="48.84512" lon="5.52786">
        <ele>232.305</ele>
        <time>2019-09-22T14:35:40.001Z</time>
      </trkpt>
      <trkpt lat="48.84504" lon="5.52796">
        <ele>232.221</ele>
        <time>2019-09-22T14:35:43.001Z</time>
      </trkpt>
      <trkpt lat="48.84497" lon="5.52806">
        <ele>232.783</ele>
        <time>2019-09-22T14:35:46.001Z</time>
      </trkpt>
      <trkpt lat="48.84489" lon="5.52816">
        <ele>232.792</ele>
        <time>2019-09-22T14:35:49.001Z</time>
      </trkpt>
      <trkpt lat="48.84482" lon="5.52826">
        <ele>232.889</ele>
        <time>2019-09-22T14:35:52.001Z</time>
      </trkpt>
      <trkpt lat="48.84475" lon="5.52836">
        <ele>232.154</ele>
        <time>2019-09-22T14:35:55.001Z</time>
      </trkpt>
      <trkpt lat="48.84469" lon="5.52846">
        <ele>231.756</ele>
        <time>2019-09-22T14:35:58.001Z</time>
      </trkpt>
      <trkpt lat="48.84462" lon="5.52855">
        <ele>231.556</ele>
        <time>2019-09-22T14:36:01.001Z</time>
      </trkpt>
      <trkpt lat="48.84456" lon="5.52864">
        <ele>230.978</ele>
        <time>2019-09-22T14:36:04.001Z</time>
      </trkpt>
      <trkpt lat="48.8445" lon="5.52874">
        <ele>230.422</ele>
        <time>2019-09-22T14:36:07.001Z</time>
      </trkpt>
      <trkpt lat="48.84444" lon="5.52883">
        <ele>229.825</ele>
        <time>2019-09-22T14:36:10.001Z</time>
      </trkpt>
      <trkpt lat="48.84438" lon="5.52892">
        <ele>229.63</ele>
        <time>2019-09-22T14:36:13.001Z</time>
      </trkpt>
      <trkpt lat="48.84432" lon="5.529">
        <ele>229.876</ele>
        <time>2019-09-22T14:36:16.000Z</time>
      </trkpt>
      <trkpt lat="48.84427" lon="5.52908">
        <ele>230.348</ele>
        <time>2019-09-22T14:36:19.001Z</time>
      </trkpt>
      <trkpt lat="48.84422" lon="5.52915">
        <ele>231.05</ele>
        <time>2019-09-22T14:36:22.001Z</time>
      </trkpt>
      <trkpt lat="48.84417" lon="5.52922">
        <ele>232.104</ele>
        <time>2019-09-22T14:36:25.001Z</time>
      </trkpt>
      <trkpt lat="48.84413" lon="5.52928">
        <ele>233.089</ele>
        <time>2019-09-22T14:36:28.001Z</time>
      </trkpt>
      <trkpt lat="48.84408" lon="5.52934">
        <ele>233.763</ele>
        <time>2019-09-22T14:36:31.001Z</time>
      </trkpt>
      <trkpt lat="48.84403" lon="5.52941">
        <ele>234.391</ele>
        <time>2019-09-22T14:36:34.001Z</time>
      </trkpt>
      <trkpt lat="48.84399" lon="5.52947">
        <ele>234.35</ele>
        <time>2019-09-22T14:36:37.001Z</time>
      </trkpt>
      <trkpt lat="48.84394" lon="5.52953">
        <ele>234.314</ele>
        <time>2019-09-22T14:36:40.001Z</time>
      </trkpt>
      <trkpt lat="48.8439" lon="5.52959">
        <ele>234.732</ele>
        <time>2019-09-22T14:36:43.001Z</time>
      </trkpt>
      <trkpt lat="48.84386" lon="5.52965">
        <ele>235.338</ele>
        <time>2019-09-22T14:36:46.001Z</time>
      </trkpt>
      <trkpt lat="48.84382" lon="5.52971">
        <ele>235.409</ele>
        <time>2019-09-22T14:36:49.001Z</time>
      </trkpt>
      <trkpt lat="48.84377" lon="5.52978">
        <ele>235.627</ele>
        <time>2019-09-22T14:36:52.001Z</time>
      </trkpt>
      <trkpt lat="48.84372" lon="5.52984">
        <ele>235.657</ele>
        <time>2019-09-22T14:36:55.001Z</time>
      </trkpt>
      <trkpt lat="48.84368" lon="5.52989">
        <ele>236.006</ele>
        <time>2019-09-22T14:36:58.001Z</time>
      </trkpt>
      <trkpt lat="48.84363" lon="5.52995">
        <ele>236.604</ele>
        <time>2019-09-22T14:37:01.001Z</time>
      </trkpt>
      <trkpt lat="48.84357" lon="5.53">
        <ele>236.912</ele>
        <time>2019-09-22T14:37:04.001Z</time>
      </trkpt>
      <trkpt lat="48.84353" lon="5.53005">
        <ele>237.681</ele>
        <time>2019-09-22T14:37:07.001Z</time>
      </trkpt>
      <trkpt lat="48.84348" lon="5.53011">
        <ele>238.157</ele>
        <time>2019-09-22T14:37:10.001Z</time>
      </trkpt>
      <trkpt lat="48.84343" lon="5.53017">
        <ele>238.705</ele>
        <time>2019-09-22T14:37:13.001Z</time>
      </trkpt>
      <trkpt lat="48.84339" lon="5.53022">
        <ele>238.54</ele>
        <time>2019-09-22T14:37:16.000Z</time>
      </trkpt>
      <trkpt lat="48.84335" lon="5.53028">
        <ele>238.728</ele>
        <time>2019-09-22T14:37:19.001Z</time>
      </trkpt>
      <trkpt lat="48.84331" lon="5.53033">
        <ele>238.758</ele>
        <time>2019-09-22T14:37:22.001Z</time>
      </trkpt>
      <trkpt lat="48.84327" lon="5.53039">
        <ele>239.521</ele>
        <time>2019-09-22T14:37:25.001Z</time>
      </trkpt>
      <trkpt lat="48.84322" lon="5.53045">
        <ele>239.244</ele>
        <time>2019-09-22T14:37:28.001Z</time>
      </trkpt>
      <trkpt lat="48.84317" lon="5.53051">
        <ele>239.429</ele>
        <time>2019-09-22T14:37:31.001Z</time>
      </trkpt>
      <trkpt lat="48.84312" lon="5.53056">
        <ele>239.485</ele>
        <time>2019-09-22T14:37:34.001Z</time>
      </trkpt>
      <trkpt lat="48.84307" lon="5.53061">
        <ele>239.44</ele>
        <time>2019-09-22T14:37:37.001Z</time>
      </trkpt>
      <trkpt lat="48.84303" lon="5.53067">
        <ele>240.165</ele>
        <time>2019-09-22T14:37:40.001Z</time>
      </trkpt>
      <trkpt lat="48.84298" lon="5.53072">
        <ele>240.685</ele>
        <time>2019-09-22T14:37:43.001Z</time>
      </trkpt>
      <trkpt lat="48.84293" lon="5.53078">
        <ele>240.888</ele>
        <time>2019-09-22T14:37:46.001Z</time>
      </trkpt>
      <trkpt lat="48.84288" lon="5.53083">
        <ele>240.849</ele>
        <time>2019-09-22T14:37:49.001Z</time>
      </trkpt>
      <trkpt lat="48.84283" lon="5.53088">
        <ele>240.943</ele>
        <time>2019-09-22T14:37:52.001Z</time>
      </trkpt>
      <trkpt lat="48.84278" lon="5.53094">
        <ele>241.44</ele>
        <time>2019-09-22T14:37:55.001Z</time>
      </trkpt>
      <trkpt lat="48.84273" lon="5.53099">
        <ele>241.713</ele>
        <time>2019-09-22T14:37:58.001Z</time>
      </trkpt>
      <trkpt lat="48.84268" lon="5.53104">
        <ele>241.897</ele>
        <time>2019-09-22T14:38:01.001Z</time>
      </trkpt>
      <trkpt lat="48.84263" lon="5.53109">
        <ele>242.062</ele>
        <time>2019-09-22T14:38:04.001Z</time>
      </trkpt>
      <trkpt lat="48.84258" lon="5.53115">
        <ele>241.618</ele>
        <time>2019-09-22T14:38:07.001Z</time>
      </trkpt>
      <trkpt lat="48.84253" lon="5.5312">
        <ele>242.453</ele>
        <time>2019-09-22T14:38:10.001Z</time>
      </trkpt>
      <trkpt lat="48.84247" lon="5.53125">
        <ele>243.038</ele>
        <time>2019-09-22T14:38:13.001Z</time>
      </trkpt>
      <trkpt lat="48.84241" lon="5.5313">
        <ele>243.164</ele>
        <time>2019-09-22T14:38:16.000Z</time>
      </trkpt>
      <trkpt lat="48.84236" lon="5.53135">
        <ele>243.416</ele>
        <time>2019-09-22T14:38:19.001Z</time>
      </trkpt>
      <trkpt lat="48.8423" lon="5.53141">
        <ele>243.641</ele>
        <time>2019-09-22T14:38:22.001Z</time>
      </trkpt>
      <trkpt lat="48.84225" lon="5.53146">
        <ele>243.857</ele>
        <time>2019-09-22T14:38:25.001Z</time>
      </trkpt>
      <trkpt lat="48.84219" lon="5.53152">
        <ele>244.034</ele>
        <time>2019-09-22T14:38:28.001Z</time>
      </trkpt>
      <trkpt lat="48.84213" lon="5.53158">
        <ele>244.15</ele>
        <time>2019-09-22T14:38:31.001Z</time>
      </trkpt>
      <trkpt lat="48.84207" lon="5.53163">
        <ele>245.189</ele>
        <time>2019-09-22T14:38:34.001Z</time>
      </trkpt>
      <trkpt lat="48.84201" lon="5.53168">
        <ele>245.253</ele>
        <time>2019-09-22T14:38:37.001Z</time>
      </trkpt>
      <trkpt lat="48.84194" lon="5.53173">
        <ele>245.801</ele>
        <time>2019-09-22T14:38:40.001Z</time>
      </trkpt>
      <trkpt lat="48.84188" lon="5.53177">
        <ele>246.232</ele>
        <time>2019-09-22T14:38:43.001Z</time>
      </trkpt>
      <trkpt lat="48.84182" lon="5.53182">
        <ele>246.613</ele>
        <time>2019-09-22T14:38:46.001Z</time>
      </trkpt>
      <trkpt lat="48.84175" lon="5.53185">
        <ele>246.784</ele>
        <time>2019-09-22T14:38:49.001Z</time>
      </trkpt>
      <trkpt lat="48.84169" lon="5.53189">
        <ele>246.732</ele>
        <time>2019-09-22T14:38:52.001Z</time>
      </trkpt>
      <trkpt lat="48.84163" lon="5.53193">
        <ele>247.058</ele>
        <time>2019-09-22T14:38:55.001Z</time>
      </trkpt>
      <trkpt lat="48.84157" lon="5.53197">
        <ele>247.6</ele>
        <time>2019-09-22T14:38:58.001Z</time>
      </trkpt>
      <trkpt lat="48.8415" lon="5.532">
        <ele>248.32</ele>
        <time>2019-09-22T14:39:01.001Z</time>
      </trkpt>
      <trkpt lat="48.84143" lon="5.53204">
        <ele>249.184</ele>
        <time>2019-09-22T14:39:04.001Z</time>
      </trkpt>
      <trkpt lat="48.84137" lon="5.53208">
        <ele>250.047</ele>
        <time>2019-09-22T14:39:07.001Z</time>
      </trkpt>
      <trkpt lat="48.8413" lon="5.53211">
        <ele>250.65</ele>
        <time>2019-09-22T14:39:10.001Z</time>
      </trkpt>
      <trkpt lat="48.84123" lon="5.53214">
        <ele>251.311</ele>
        <time>2019-09-22T14:39:13.001Z</time>
      </trkpt>
      <trkpt lat="48.84116" lon="5.53219">
        <ele>251.358</ele>
        <time>2019-09-22T14:39:16.000Z</time>
      </trkpt>
      <trkpt lat="48.8411" lon="5.53222">
        <ele>251.72</ele>
        <time>2019-09-22T14:39:19.001Z</time>
      </trkpt>
      <trkpt lat="48.84104" lon="5.53225">
        <ele>252.455</ele>
        <time>2019-09-22T14:39:22.001Z</time>
      </trkpt>
      <trkpt lat="48.84098" lon="5.53229">
        <ele>253.157</ele>
        <time>2019-09-22T14:39:25.001Z</time>
      </trkpt>
      <trkpt lat="48.84091" lon="5.53233">
        <ele>253.669</ele>
        <time>2019-09-22T14:39:28.001Z</time>
      </trkpt>
      <trkpt lat="48.84084" lon="5.53238">
        <ele>253.379</ele>
        <time>2019-09-22T14:39:31.001Z</time>
      </trkpt>
      <trkpt lat="48.84077" lon="5.53242">
        <ele>253.536</ele>
        <time>2019-09-22T14:39:34.001Z</time>
      </trkpt>
      <trkpt lat="48.8407" lon="5.53244">
        <ele>253.769</ele>
        <time>2019-09-22T14:39:37.001Z</time>
      </trkpt>
      <trkpt lat="48.84063" lon="5.53248">
        <ele>253.895</ele>
        <time>2019-09-22T14:39:40.001Z</time>
      </trkpt>
      <trkpt lat="48.84056" lon="5.53252">
        <ele>253.903</ele>
        <time>2019-09-22T14:39:43.001Z</time>
      </trkpt>
      <trkpt lat="48.84049" lon="5.53256">
        <ele>254.245</ele>
        <time>2019-09-22T14:39:46.001Z</time>
      </trkpt>
      <trkpt lat="48.84042" lon="5.5326">
        <ele>254.306</ele>
        <time>2019-09-22T14:39:49.001Z</time>
      </trkpt>
      <trkpt lat="48.84036" lon="5.53264">
        <ele>255.023</ele>
        <time>2019-09-22T14:39:52.001Z</time>
      </trkpt>
      <trkpt lat="48.84029" lon="5.53269">
        <ele>255.439</ele>
        <time>2019-09-22T14:39:55.001Z</time>
      </trkpt>
      <trkpt lat="48.84023" lon="5.53273">
        <ele>255.719</ele>
        <time>2019-09-22T14:39:58.001Z</time>
      </trkpt>
      <trkpt lat="48.84016" lon="5.53276">
        <ele>255.938</ele>
        <time>2019-09-22T14:40:01.001Z</time>
      </trkpt>
      <trkpt lat="48.84009" lon="5.53281">
        <ele>256.003</ele>
        <time>2019-09-22T14:40:04.001Z</time>
      </trkpt>
      <trkpt lat="48.84003" lon="5.53286">
        <ele>256.138</ele>
        <time>2019-09-22T14:40:07.001Z</time>
      </trkpt>
      <trkpt lat="48.83996" lon="5.5329">
        <ele>256.349</ele>
        <time>2019-09-22T14:40:10.001Z</time>
      </trkpt>
      <trkpt lat="48.83989" lon="5.53294">
        <ele>256.735</ele>
        <time>2019-09-22T14:40:13.001Z</time>
      </trkpt>
      <trkpt lat="48.83982" lon="5.53299">
        <ele>257.076</ele>
        <time>2019-09-22T14:40:16.000Z</time>
      </trkpt>
      <trkpt lat="48.83974" lon="5.53304">
        <ele>257.755</ele>
        <time>2019-09-22T14:40:19.001Z</time>
      </trkpt>
      <trkpt lat="48.83967" lon="5.53309">
        <ele>257.873</ele>
        <time>2019-09-22T14:40:22.001Z</time>
      </trkpt>
      <trkpt lat="48.8396" lon="5.53315">
        <ele>257.897</ele>
        <time>2019-09-22T14:40:25.001Z</time>
      </trkpt>
      <trkpt lat="48.83953" lon="5.5332">
        <ele>258.334</ele>
        <time>2019-09-22T14:40:28.001Z</time>
      </trkpt>
      <trkpt lat="48.83945" lon="5.53324">
        <ele>258.466</ele>
        <time>2019-09-22T14:40:31.001Z</time>
      </trkpt>
      <trkpt lat="48.83938" lon="5.53329">
        <ele>257.883</ele>
        <time>2019-09-22T14:40:34.001Z</time>
      </trkpt>
      <trkpt lat="48.8393" lon="5.53335">
        <ele>258.046</ele>
        <time>2019-09-22T14:40:37.001Z</time>
      </trkpt>
      <trkpt lat="48.83923" lon="5.53339">
        <ele>258.133</ele>
        <time>2019-09-22T14:40:40.001Z</time>
      </trkpt>
      <trkpt lat="48.83916" lon="5.53344">
        <ele>258.157</ele>
        <time>2019-09-22T14:40:43.001Z</time>
      </trkpt>
      <trkpt lat="48.83908" lon="5.53348">
        <ele>258.053</ele>
        <time>2019-09-22T14:40:46.001Z</time>
      </trkpt>
      <trkpt lat="48.83899" lon="5.53354">
        <ele>258.506</ele>
        <time>2019-09-22T14:40:49.001Z</time>
      </trkpt>
      <trkpt lat="48.8389" lon="5.53359">
        <ele>258.714</ele>
        <time>2019-09-22T14:40:52.001Z</time>
      </trkpt>
      <trkpt lat="48.83881" lon="5.53364">
        <ele>258.79</ele>
        <time>2019-09-22T14:40:55.001Z</time>
      </trkpt>
      <trkpt lat="48.83871" lon="5.5337">
        <ele>258.865</ele>
        <time>2019-09-22T14:40:58.001Z</time>
      </trkpt>
      <trkpt lat="48.8386" lon="5.53375">
        <ele>258.686</ele>
        <time>2019-09-22T14:41:01.001Z</time>
      </trkpt>
      <trkpt lat="48.83849" lon="5.53382">
        <ele>258.519</ele>
        <time>2019-09-22T14:41:04.001Z</time>
      </trkpt>
      <trkpt lat="48.83838" lon="5.53388">
        <ele>258.254</ele>
        <time>2019-09-22T14:41:07.001Z</time>
      </trkpt>
      <trkpt lat="48.83828" lon="5.53394">
        <ele>258.07</ele>
        <time>2019-09-22T14:41:10.001Z</time>
      </trkpt>
      <trkpt lat="48.83818" lon="5.53399">
        <ele>257.948</ele>
        <time>2019-09-22T14:41:13.001Z</time>
      </trkpt>
      <trkpt lat="48.83809" lon="5.53405">
        <ele>257.758</ele>
        <time>2019-09-22T14:41:16.000Z</time>
      </trkpt>
      <trkpt lat="48.83798" lon="5.53411">
        <ele>257.828</ele>
        <time>2019-09-22T14:41:19.001Z</time>
      </trkpt>
      <trkpt lat="48.83787" lon="5.53418">
        <ele>257.761</ele>
        <time>2019-09-22T14:41:22.001Z</time>
      </trkpt>
      <trkpt lat="48.83776" lon="5.53425">
        <ele>257.394</ele>
        <time>2019-09-22T14:41:25.001Z</time>
      </trkpt>
      <trkpt lat="48.83765" lon="5.53433">
        <ele>257.476</ele>
        <time>2019-09-22T14:41:28.001Z</time>
      </trkpt>
      <trkpt lat="48.83754" lon="5.5344">
        <ele>257.577</ele>
        <time>2019-09-22T14:41:31.001Z</time>
      </trkpt>
      <trkpt lat="48.83744" lon="5.53449">
        <ele>257.663</ele>
        <time>2019-09-22T14:41:34.001Z</time>
      </trkpt>
      <trkpt lat="48.83735" lon="5.53458">
        <ele>257.758</ele>
        <time>2019-09-22T14:41:37.001Z</time>
      </trkpt>
      <trkpt lat="48.83725" lon="5.53466">
        <ele>257.791</ele>
        <time>2019-09-22T14:41:40.001Z</time>
      </trkpt>
      <trkpt lat="48.83716" lon="5.53476">
        <ele>257.634</ele>
        <time>2019-09-22T14:41:43.001Z</time>
      </trkpt>
      <trkpt lat="48.83707" lon="5.53485">
        <ele>257.986</ele>
        <time>2019-09-22T14:41:46.001Z</time>
      </trkpt>
      <trkpt lat="48.83698" lon="5.53495">
        <ele>258.222</ele>
        <time>2019-09-22T14:41:49.001Z</time>
      </trkpt>
      <trkpt lat="48.83688" lon="5.53504">
        <ele>258.326</ele>
        <time>2019-09-22T14:41:52.001Z</time>
      </trkpt>
      <trkpt lat="48.83679" lon="5.53514">
        <ele>258.242</ele>
        <time>2019-09-22T14:41:55.001Z</time>
      </trkpt>
      <trkpt lat="48.8367" lon="5.53523">
        <ele>258.178</ele>
        <time>2019-09-22T14:41:58.001Z</time>
      </trkpt>
      <trkpt lat="48.83662" lon="5.53532">
        <ele>258.046</ele>
        <time>2019-09-22T14:42:01.001Z</time>
      </trkpt>
      <trkpt lat="48.83653" lon="5.53542">
        <ele>258.051</ele>
        <time>2019-09-22T14:42:04.001Z</time>
      </trkpt>
      <trkpt lat="48.83645" lon="5.53551">
        <ele>258.18</ele>
        <time>2019-09-22T14:42:07.001Z</time>
      </trkpt>
      <trkpt lat="48.83636" lon="5.53558">
        <ele>258.082</ele>
        <time>2019-09-22T14:42:10.001Z</time>
      </trkpt>
      <trkpt lat="48.83627" lon="5.53568">
        <ele>258.435</ele>
        <time>2019-09-22T14:42:13.001Z</time>
      </trkpt>
      <trkpt lat="48.83617" lon="5.53576">
        <ele>258.591</ele>
        <time>2019-09-22T14:42:16.000Z</time>
      </trkpt>
      <trkpt lat="48.83605" lon="5.53585">
        <ele>258.929</ele>
        <time>2019-09-22T14:42:19.001Z</time>
      </trkpt>
      <trkpt lat="48.83592" lon="5.53592">
        <ele>259.168</ele>
        <time>2019-09-22T14:42:22.001Z</time>
      </trkpt>
      <trkpt lat="48.83579" lon="5.53597">
        <ele>259.394</ele>
        <time>2019-09-22T14:42:25.001Z</time>
      </trkpt>
      <trkpt lat="48.83565" lon="5.536">
        <ele>259.616</ele>
        <time>2019-09-22T14:42:28.001Z</time>
      </trkpt>
      <trkpt lat="48.83552" lon="5.536">
        <ele>260.062</ele>
        <time>2019-09-22T14:42:31.001Z</time>
      </trkpt>
      <trkpt lat="48.8354" lon="5.536">
        <ele>260.575</ele>
        <time>2019-09-22T14:42:34.001Z</time>
      </trkpt>
      <trkpt lat="48.83528" lon="5.536">
        <ele>261.036</ele>
        <time>2019-09-22T14:42:37.001Z</time>
      </trkpt>
      <trkpt lat="48.83517" lon="5.53599">
        <ele>261.224</ele>
        <time>2019-09-22T14:42:40.001Z</time>
      </trkpt>
      <trkpt lat="48.83506" lon="5.53599">
        <ele>261.684</ele>
        <time>2019-09-22T14:42:43.001Z</time>
      </trkpt>
      <trkpt lat="48.83495" lon="5.536">
        <ele>262.072</ele>
        <time>2019-09-22T14:42:46.001Z</time>
      </trkpt>
      <trkpt lat="48.83484" lon="5.53602">
        <ele>262.185</ele>
        <time>2019-09-22T14:42:49.001Z</time>
      </trkpt>
      <trkpt lat="48.83474" lon="5.53605">
        <ele>262.619</ele>
        <time>2019-09-22T14:42:52.001Z</time>
      </trkpt>
      <trkpt lat="48.83463" lon="5.53608">
        <ele>263.079</ele>
        <time>2019-09-22T14:42:55.001Z</time>
      </trkpt>
      <trkpt lat="48.83454" lon="5.53611">
        <ele>263.615</ele>
        <time>2019-09-22T14:42:58.001Z</time>
      </trkpt>
      <trkpt lat="48.83444" lon="5.53614">
        <ele>263.965</ele>
        <time>2019-09-22T14:43:01.001Z</time>
      </trkpt>
      <trkpt lat="48.83435" lon="5.53617">
        <ele>264.203</ele>
        <time>2019-09-22T14:43:04.001Z</time>
      </trkpt>
      <trkpt lat="48.83426" lon="5.53622">
        <ele>264.276</ele>
        <time>2019-09-22T14:43:07.001Z</time>
      </trkpt>
      <trkpt lat="48.83417" lon="5.53625">
        <ele>264.108</ele>
        <time>2019-09-22T14:43:10.001Z</time>
      </trkpt>
      <trkpt lat="48.83409" lon="5.53628">
        <ele>263.975</ele>
        <time>2019-09-22T14:43:13.001Z</time>
      </trkpt>
      <trkpt lat="48.83401" lon="5.53632">
        <ele>263.98</ele>
        <time>2019-09-22T14:43:16.000Z</time>
      </trkpt>
      <trkpt lat="48.83392" lon="5.53636">
        <ele>263.789</ele>
        <time>2019-09-22T14:43:19.001Z</time>
      </trkpt>
      <trkpt lat="48.83383" lon="5.5364">
        <ele>263.907</ele>
        <time>2019-09-22T14:43:22.001Z</time>
      </trkpt>
      <trkpt lat="48.83375" lon="5.53643">
        <ele>264.744</ele>
        <time>2019-09-22T14:43:25.001Z</time>
      </trkpt>
      <trkpt lat="48.83366" lon="5.53646">
        <ele>264.878</ele>
        <time>2019-09-22T14:43:28.001Z</time>
      </trkpt>
      <trkpt lat="48.83358" lon="5.53648">
        <ele>265.304</ele>
        <time>2019-09-22T14:43:31.001Z</time>
      </trkpt>
      <trkpt lat="48.83349" lon="5.53651">
        <ele>264.996</ele>
        <time>2019-09-22T14:43:34.001Z</time>
      </trkpt>
      <trkpt lat="48.83342" lon="5.53654">
        <ele>265.472</ele>
        <time>2019-09-22T14:43:37.001Z</time>
      </trkpt>
      <trkpt lat="48.83334" lon="5.53655">
        <ele>265.899</ele>
        <time>2019-09-22T14:43:40.001Z</time>
      </trkpt>
      <trkpt lat="48.83327" lon="5.53657">
        <ele>266.25</ele>
        <time>2019-09-22T14:43:43.001Z</time>
      </trkpt>
      <trkpt lat="48.8332" lon="5.53659">
        <ele>266.757</ele>
        <time>2019-09-22T14:43:46.001Z</time>
      </trkpt>
      <trkpt lat="48.83313" lon="5.5366">
        <ele>266.936</ele>
        <time>2019-09-22T14:43:49.001Z</time>
      </trkpt>
      <trkpt lat="48.83306" lon="5.53662">
        <ele>267.079</ele>
        <time>2019-09-22T14:43:52.001Z</time>
      </trkpt>
      <trkpt lat="48.83299" lon="5.53664">
        <ele>267.349</ele>
        <time>2019-09-22T14:43:55.001Z</time>
      </trkpt>
      <trkpt lat="48.83291" lon="5.53667">
        <ele>267.554</ele>
        <time>2019-09-22T14:43:58.001Z</time>
      </trkpt>
      <trkpt lat="48.83284" lon="5.53671">
        <ele>267.84</ele>
        <time>2019-09-22T14:44:01.001Z</time>
      </trkpt>
      <trkpt lat="48.83278" lon="5.53674">
        <ele>268.166</ele>
        <time>2019-09-22T14:44:04.001Z</time>
      </trkpt>
      <trkpt lat="48.8327" lon="5.53676">
        <ele>268.524</ele>
        <time>2019-09-22T14:44:07.001Z</time>
      </trkpt>
      <trkpt lat="48.83263" lon="5.53681">
        <ele>268.958</ele>
        <time>2019-09-22T14:44:10.001Z</time>
      </trkpt>
      <trkpt lat="48.83257" lon="5.53684">
        <ele>269.35</ele>
        <time>2019-09-22T14:44:13.001Z</time>
      </trkpt>
      <trkpt lat="48.8325" lon="5.53689">
        <ele>270.08</ele>
        <time>2019-09-22T14:44:16.000Z</time>
      </trkpt>
      <trkpt lat="48.83244" lon="5.53694">
        <ele>270.776</ele>
        <time>2019-09-22T14:44:19.001Z</time>
      </trkpt>
      <trkpt lat="48.83238" lon="5.537">
        <ele>271.219</ele>
        <time>2019-09-22T14:44:22.001Z</time>
      </trkpt>
      <trkpt lat="48.8323" lon="5.53707">
        <ele>271.14</ele>
        <time>2019-09-22T14:44:25.001Z</time>
      </trkpt>
      <trkpt lat="48.83223" lon="5.53714">
        <ele>271.156</ele>
        <time>2019-09-22T14:44:28.001Z</time>
      </trkpt>
      <trkpt lat="48.83214" lon="5.5372">
        <ele>270.685</ele>
        <time>2019-09-22T14:44:31.001Z</time>
      </trkpt>
      <trkpt lat="48.83204" lon="5.53728">
        <ele>270.295</ele>
        <time>2019-09-22T14:44:34.001Z</time>
      </trkpt>
      <trkpt lat="48.83193" lon="5.53736">
        <ele>269.843</ele>
        <time>2019-09-22T14:44:37.001Z</time>
      </trkpt>
      <trkpt lat="48.83181" lon="5.53746">
        <ele>269.402</ele>
        <time>2019-09-22T14:44:40.001Z</time>
      </trkpt>
      <trkpt lat="48.83168" lon="5.53757">
        <ele>269.226</ele>
        <time>2019-09-22T14:44:43.001Z</time>
      </trkpt>
      <trkpt lat="48.83154" lon="5.53767">
        <ele>268.86</ele>
        <time>2019-09-22T14:44:46.001Z</time>
      </trkpt>
      <trkpt lat="48.83141" lon="5.53777">
        <ele>268.588</ele>
        <time>2019-09-22T14:44:49.001Z</time>
      </trkpt>
      <trkpt lat="48.83126" lon="5.53787">
        <ele>268.067</ele>
        <time>2019-09-22T14:44:52.001Z</time>
      </trkpt>
      <trkpt lat="48.83111" lon="5.53796">
        <ele>267.973</ele>
        <time>2019-09-22T14:44:55.001Z</time>
      </trkpt>
      <trkpt lat="48.83095" lon="5.53805">
        <ele>267.394</ele>
        <time>2019-09-22T14:44:58.001Z</time>
      </trkpt>
      <trkpt lat="48.83076" lon="5.53805">
        <ele>266.928</ele>
        <time>2019-09-22T14:45:01.001Z</time>
      </trkpt>
      <trkpt lat="48.83059" lon="5.53801">
        <ele>266.516</ele>
        <time>2019-09-22T14:45:04.001Z</time>
      </trkpt>
      <trkpt lat="48.83041" lon="5.53799">
        <ele>266.073</ele>
        <time>2019-09-22T14:45:07.001Z</time>
      </trkpt>
      <trkpt lat="48.83023" lon="5.53805">
        <ele>265.77</ele>
        <time>2019-09-22T14:45:10.001Z</time>
      </trkpt>
      <trkpt lat="48.83003" lon="5.53815">
        <ele>265.211</ele>
        <time>2019-09-22T14:45:13.001Z</time>
      </trkpt>
      <trkpt lat="48.8298" lon="5.53825">
        <ele>264.344</ele>
        <time>2019-09-22T14:45:16.000Z</time>
      </trkpt>
      <trkpt lat="48.82949" lon="5.53832">
        <ele>262.648</ele>
        <time>2019-09-22T14:45:19.001Z</time>
      </trkpt>
      <trkpt lat="48.82925" lon="5.53825">
        <ele>261.617</ele>
        <time>2019-09-22T14:45:22.001Z</time>
      </trkpt>
      <trkpt lat="48.829" lon="5.53815">
        <ele>261.422</ele>
        <time>2019-09-22T14:45:25.001Z</time>
      </trkpt>
      <trkpt lat="48.82874" lon="5.53801">
        <ele>260.703</ele>
        <time>2019-09-22T14:45:28.001Z</time>
      </trkpt>
      <trkpt lat="48.8285" lon="5.53784">
        <ele>258.423</ele>
        <time>2019-09-22T14:45:31.001Z</time>
      </trkpt>
      <trkpt lat="48.82826" lon="5.53769">
        <ele>256.572</ele>
        <time>2019-09-22T14:45:34.001Z</time>
      </trkpt>
      <trkpt lat="48.828" lon="5.53756">
        <ele>253.089</ele>
        <time>2019-09-22T14:45:37.001Z</time>
      </trkpt>
      <trkpt lat="48.82775" lon="5.53742">
        <ele>250.883</ele>
        <time>2019-09-22T14:45:40.001Z</time>
      </trkpt>
      <trkpt lat="48.82752" lon="5.53724">
        <ele>249.283</ele>
        <time>2019-09-22T14:45:43.001Z</time>
      </trkpt>
      <trkpt lat="48.82734" lon="5.537">
        <ele>247.897</ele>
        <time>2019-09-22T14:45:46.001Z</time>
      </trkpt>
      <trkpt lat="48.82719" lon="5.53677">
        <ele>246.231</ele>
        <time>2019-09-22T14:45:49.001Z</time>
      </trkpt>
      <trkpt lat="48.82708" lon="5.53659">
        <ele>244.029</ele>
        <time>2019-09-22T14:45:52.001Z</time>
      </trkpt>
      <trkpt lat="48.82699" lon="5.53647">
        <ele>242.113</ele>
        <time>2019-09-22T14:45:55.001Z</time>
      </trkpt>
      <trkpt lat="48.82688" lon="5.53646">
        <ele>240.659</ele>
        <time>2019-09-22T14:45:58.001Z</time>
      </trkpt>
      <trkpt lat="48.82679" lon="5.53653">
        <ele>239.689</ele>
        <time>2019-09-22T14:46:01.001Z</time>
      </trkpt>
      <trkpt lat="48.82669" lon="5.53658">
        <ele>238.514</ele>
        <time>2019-09-22T14:46:04.001Z</time>
      </trkpt>
      <trkpt lat="48.82654" lon="5.53659">
        <ele>237.765</ele>
        <time>2019-09-22T14:46:07.001Z</time>
      </trkpt>
      <trkpt lat="48.82634" lon="5.5366">
        <ele>237.201</ele>
        <time>2019-09-22T14:46:10.001Z</time>
      </trkpt>
      <trkpt lat="48.82612" lon="5.53663">
        <ele>235.69</ele>
        <time>2019-09-22T14:46:13.001Z</time>
      </trkpt>
      <trkpt lat="48.8259" lon="5.53665">
        <ele>233.824</ele>
        <time>2019-09-22T14:46:16.000Z</time>
      </trkpt>
      <trkpt lat="48.82568" lon="5.53667">
        <ele>232.356</ele>
        <time>2019-09-22T14:46:19.001Z</time>
      </trkpt>
      <trkpt lat="48.82546" lon="5.53671">
        <ele>231.26</ele>
        <time>2019-09-22T14:46:22.001Z</time>
      </trkpt>
      <trkpt lat="48.82525" lon="5.53674">
        <ele>229.854</ele>
        <time>2019-09-22T14:46:25.001Z</time>
      </trkpt>
      <trkpt lat="48.82504" lon="5.53677">
        <ele>228.931</ele>
        <time>2019-09-22T14:46:28.001Z</time>
      </trkpt>
      <trkpt lat="48.82484" lon="5.5368">
        <ele>228.298</ele>
        <time>2019-09-22T14:46:31.001Z</time>
      </trkpt>
      <trkpt lat="48.82466" lon="5.53683">
        <ele>228.171</ele>
        <time>2019-09-22T14:46:34.001Z</time>
      </trkpt>
      <trkpt lat="48.8245" lon="5.53685">
        <ele>227.817</ele>
        <time>2019-09-22T14:46:37.001Z</time>
      </trkpt>
      <trkpt lat="48.82435" lon="5.53687">
        <ele>227.391</ele>
        <time>2019-09-22T14:46:40.001Z</time>
      </trkpt>
      <trkpt lat="48.82421" lon="5.53689">
        <ele>227.195</ele>
        <time>2019-09-22T14:46:43.001Z</time>
      </trkpt>
      <trkpt lat="48.82407" lon="5.53692">
        <ele>227.129</ele>
        <time>2019-09-22T14:46:46.001Z</time>
      </trkpt>
      <trkpt lat="48.82391" lon="5.53694">
        <ele>227.263</ele>
        <time>2019-09-22T14:46:49.001Z</time>
      </trkpt>
      <trkpt lat="48.82377" lon="5.53696">
        <ele>227.275</ele>
        <time>2019-09-22T14:46:52.001Z</time>
      </trkpt>
      <trkpt lat="48.82362" lon="5.53698">
        <ele>227.361</ele>
        <time>2019-09-22T14:46:55.001Z</time>
      </trkpt>
      <trkpt lat="48.82347" lon="5.537">
        <ele>227.335</ele>
        <time>2019-09-22T14:46:58.001Z</time>
      </trkpt>
      <trkpt lat="48.82333" lon="5.53702">
        <ele>227.39</ele>
        <time>2019-09-22T14:47:01.001Z</time>
      </trkpt>
      <trkpt lat="48.8232" lon="5.53705">
        <ele>227.814</ele>
        <time>2019-09-22T14:47:04.001Z</time>
      </trkpt>
      <trkpt lat="48.82306" lon="5.53706">
        <ele>227.874</ele>
        <time>2019-09-22T14:47:07.001Z</time>
      </trkpt>
      <trkpt lat="48.82293" lon="5.53708">
        <ele>227.459</ele>
        <time>2019-09-22T14:47:10.001Z</time>
      </trkpt>
      <trkpt lat="48.82278" lon="5.5371">
        <ele>227.007</ele>
        <time>2019-09-22T14:47:13.001Z</time>
      </trkpt>
      <trkpt lat="48.82263" lon="5.53712">
        <ele>226.677</ele>
        <time>2019-09-22T14:47:16.000Z</time>
      </trkpt>
      <trkpt lat="48.82249" lon="5.53715">
        <ele>226.948</ele>
        <time>2019-09-22T14:47:19.001Z</time>
      </trkpt>
      <trkpt lat="48.82235" lon="5.53717">
        <ele>227.307</ele>
        <time>2019-09-22T14:47:22.001Z</time>
      </trkpt>
      <trkpt lat="48.8222" lon="5.53719">
        <ele>227.781</ele>
        <time>2019-09-22T14:47:25.001Z</time>
      </trkpt>
      <trkpt lat="48.82204" lon="5.5372">
        <ele>228.147</ele>
        <time>2019-09-22T14:47:28.001Z</time>
      </trkpt>
      <trkpt lat="48.8219" lon="5.53723">
        <ele>228.173</ele>
        <time>2019-09-22T14:47:31.001Z</time>
      </trkpt>
      <trkpt lat="48.82176" lon="5.53725">
        <ele>228.19</ele>
        <time>2019-09-22T14:47:34.001Z</time>
      </trkpt>
      <trkpt lat="48.82162" lon="5.53727">
        <ele>227.042</ele>
        <time>2019-09-22T14:47:37.001Z</time>
      </trkpt>
      <trkpt lat="48.82147" lon="5.5373">
        <ele>227.26</ele>
        <time>2019-09-22T14:47:40.001Z</time>
      </trkpt>
      <trkpt lat="48.82132" lon="5.53732">
        <ele>227.252</ele>
        <time>2019-09-22T14:47:43.001Z</time>
      </trkpt>
      <trkpt lat="48.82117" lon="5.53734">
        <ele>227.283</ele>
        <time>2019-09-22T14:47:46.001Z</time>
      </trkpt>
      <trkpt lat="48.82102" lon="5.53736">
        <ele>227.239</ele>
        <time>2019-09-22T14:47:49.001Z</time>
      </trkpt>
      <trkpt lat="48.82088" lon="5.53739">
        <ele>227.568</ele>
        <time>2019-09-22T14:47:52.001Z</time>
      </trkpt>
      <trkpt lat="48.82073" lon="5.53742">
        <ele>227.917</ele>
        <time>2019-09-22T14:47:55.001Z</time>
      </trkpt>
      <trkpt lat="48.82058" lon="5.53743">
        <ele>227.937</ele>
        <time>2019-09-22T14:47:58.001Z</time>
      </trkpt>
      <trkpt lat="48.82043" lon="5.53745">
        <ele>227.649</ele>
        <time>2019-09-22T14:48:01.001Z</time>
      </trkpt>
      <trkpt lat="48.82028" lon="5.53747">
        <ele>227.287</ele>
        <time>2019-09-22T14:48:04.001Z</time>
      </trkpt>
      <trkpt lat="48.82014" lon="5.53748">
        <ele>227.644</ele>
        <time>2019-09-22T14:48:07.001Z</time>
      </trkpt>
      <trkpt lat="48.82" lon="5.5375">
        <ele>228.509</ele>
        <time>2019-09-22T14:48:10.001Z</time>
      </trkpt>
      <trkpt lat="48.81986" lon="5.53752">
        <ele>228.565</ele>
        <time>2019-09-22T14:48:13.001Z</time>
      </trkpt>
      <trkpt lat="48.81972" lon="5.53755">
        <ele>228.419</ele>
        <time>2019-09-22T14:48:16.000Z</time>
      </trkpt>
      <trkpt lat="48.81958" lon="5.53757">
        <ele>228.608</ele>
        <time>2019-09-22T14:48:19.001Z</time>
      </trkpt>
      <trkpt lat="48.81945" lon="5.53759">
        <ele>228.334</ele>
        <time>2019-09-22T14:48:22.001Z</time>
      </trkpt>
      <trkpt lat="48.81932" lon="5.5376">
        <ele>227.903</ele>
        <time>2019-09-22T14:48:25.001Z</time>
      </trkpt>
      <trkpt lat="48.8192" lon="5.53762">
        <ele>227.416</ele>
        <time>2019-09-22T14:48:28.001Z</time>
      </trkpt>
      <trkpt lat="48.81907" lon="5.53765">
        <ele>227.365</ele>
        <time>2019-09-22T14:48:31.001Z</time>
      </trkpt>
      <trkpt lat="48.81894" lon="5.53767">
        <ele>226.649</ele>
        <time>2019-09-22T14:48:34.001Z</time>
      </trkpt>
      <trkpt lat="48.81881" lon="5.53768">
        <ele>226.94</ele>
        <time>2019-09-22T14:48:37.001Z</time>
      </trkpt>
      <trkpt lat="48.81869" lon="5.5377">
        <ele>227.124</ele>
        <time>2019-09-22T14:48:40.001Z</time>
      </trkpt>
      <trkpt lat="48.81856" lon="5.53771">
        <ele>227.509</ele>
        <time>2019-09-22T14:48:43.001Z</time>
      </trkpt>
      <trkpt lat="48.81844" lon="5.53773">
        <ele>227.793</ele>
        <time>2019-09-22T14:48:46.001Z</time>
      </trkpt>
      <trkpt lat="48.81832" lon="5.53775">
        <ele>228.008</ele>
        <time>2019-09-22T14:48:49.001Z</time>
      </trkpt>
      <trkpt lat="48.8182" lon="5.53777">
        <ele>228.422</ele>
        <time>2019-09-22T14:48:52.001Z</time>
      </trkpt>
      <trkpt lat="48.81807" lon="5.53779">
        <ele>228.773</ele>
        <time>2019-09-22T14:48:55.001Z</time>
      </trkpt>
      <trkpt lat="48.81795" lon="5.53781">
        <ele>228.982</ele>
        <time>2019-09-22T14:48:58.001Z</time>
      </trkpt>
      <trkpt lat="48.81782" lon="5.53783">
        <ele>229.431</ele>
        <time>2019-09-22T14:49:01.001Z</time>
      </trkpt>
      <trkpt lat="48.8177" lon="5.53784">
        <ele>229.925</ele>
        <time>2019-09-22T14:49:04.001Z</time>
      </trkpt>
      <trkpt lat="48.81757" lon="5.53786">
        <ele>230.296</ele>
        <time>2019-09-22T14:49:07.001Z</time>
      </trkpt>
      <trkpt lat="48.81745" lon="5.53789">
        <ele>230.739</ele>
        <time>2019-09-22T14:49:10.001Z</time>
      </trkpt>
      <trkpt lat="48.81734" lon="5.53791">
        <ele>230.937</ele>
        <time>2019-09-22T14:49:13.001Z</time>
      </trkpt>
      <trkpt lat="48.81723" lon="5.53791">
        <ele>231.399</ele>
        <time>2019-09-22T14:49:16.000Z</time>
      </trkpt>
      <trkpt lat="48.81712" lon="5.53793">
        <ele>231.679</ele>
        <time>2019-09-22T14:49:19.001Z</time>
      </trkpt>
      <trkpt lat="48.81701" lon="5.53794">
        <ele>231.996</ele>
        <time>2019-09-22T14:49:22.001Z</time>
      </trkpt>
      <trkpt lat="48.81691" lon="5.53796">
        <ele>232.235</ele>
        <time>2019-09-22T14:49:25.001Z</time>
      </trkpt>
      <trkpt lat="48.81681" lon="5.538">
        <ele>232.423</ele>
        <time>2019-09-22T14:49:28.001Z</time>
      </trkpt>
      <trkpt lat="48.81672" lon="5.53801">
        <ele>232.008</ele>
        <time>2019-09-22T14:49:31.001Z</time>
      </trkpt>
      <trkpt lat="48.81663" lon="5.53802">
        <ele>231.954</ele>
        <time>2019-09-22T14:49:34.001Z</time>
      </trkpt>
      <trkpt lat="48.81654" lon="5.53804">
        <ele>232.259</ele>
        <time>2019-09-22T14:49:37.001Z</time>
      </trkpt>
      <trkpt lat="48.81645" lon="5.53805">
        <ele>232.214</ele>
        <time>2019-09-22T14:49:40.001Z</time>
      </trkpt>
      <trkpt lat="48.81637" lon="5.53807">
        <ele>232.38</ele>
        <time>2019-09-22T14:49:43.001Z</time>
      </trkpt>
      <trkpt lat="48.81628" lon="5.53808">
        <ele>232.984</ele>
        <time>2019-09-22T14:49:46.001Z</time>
      </trkpt>
      <trkpt lat="48.8162" lon="5.53809">
        <ele>233.27</ele>
        <time>2019-09-22T14:49:49.001Z</time>
      </trkpt>
      <trkpt lat="48.81612" lon="5.53811">
        <ele>233.149</ele>
        <time>2019-09-22T14:49:52.001Z</time>
      </trkpt>
      <trkpt lat="48.81604" lon="5.53814">
        <ele>233.369</ele>
        <time>2019-09-22T14:49:55.001Z</time>
      </trkpt>
      <trkpt lat="48.81596" lon="5.53815">
        <ele>233.85</ele>
        <time>2019-09-22T14:49:58.001Z</time>
      </trkpt>
      <trkpt lat="48.81589" lon="5.53817">
        <ele>234.371</ele>
        <time>2019-09-22T14:50:01.001Z</time>
      </trkpt>
      <trkpt lat="48.81581" lon="5.5382">
        <ele>234.4</ele>
        <time>2019-09-22T14:50:04.001Z</time>
      </trkpt>
      <trkpt lat="48.81573" lon="5.53823">
        <ele>234.692</ele>
        <time>2019-09-22T14:50:07.001Z</time>
      </trkpt>
      <trkpt lat="48.81564" lon="5.53826">
        <ele>235.064</ele>
        <time>2019-09-22T14:50:10.001Z</time>
      </trkpt>
      <trkpt lat="48.81556" lon="5.5383">
        <ele>235.421</ele>
        <time>2019-09-22T14:50:13.001Z</time>
      </trkpt>
      <trkpt lat="48.81549" lon="5.53834">
        <ele>235.812</ele>
        <time>2019-09-22T14:50:16.000Z</time>
      </trkpt>
      <trkpt lat="48.81542" lon="5.53838">
        <ele>236.134</ele>
        <time>2019-09-22T14:50:19.001Z</time>
      </trkpt>
      <trkpt lat="48.81535" lon="5.53843">
        <ele>236.538</ele>
        <time>2019-09-22T14:50:22.001Z</time>
      </trkpt>
      <trkpt lat="48.81528" lon="5.53849">
        <ele>236.931</ele>
        <time>2019-09-22T14:50:25.001Z</time>
      </trkpt>
      <trkpt lat="48.81521" lon="5.53854">
        <ele>237.345</ele>
        <time>2019-09-22T14:50:28.001Z</time>
      </trkpt>
      <trkpt lat="48.81515" lon="5.53859">
        <ele>237.665</ele>
        <time>2019-09-22T14:50:31.001Z</time>
      </trkpt>
      <trkpt lat="48.81508" lon="5.53865">
        <ele>238.015</ele>
        <time>2019-09-22T14:50:34.001Z</time>
      </trkpt>
      <trkpt lat="48.81503" lon="5.53872">
        <ele>238.479</ele>
        <time>2019-09-22T14:50:37.001Z</time>
      </trkpt>
      <trkpt lat="48.81497" lon="5.53879">
        <ele>239.469</ele>
        <time>2019-09-22T14:50:40.001Z</time>
      </trkpt>
      <trkpt lat="48.81491" lon="5.53885">
        <ele>239.848</ele>
        <time>2019-09-22T14:50:43.001Z</time>
      </trkpt>
      <trkpt lat="48.81484" lon="5.53891">
        <ele>240.196</ele>
        <time>2019-09-22T14:50:46.001Z</time>
      </trkpt>
      <trkpt lat="48.81478" lon="5.53897">
        <ele>240.474</ele>
        <time>2019-09-22T14:50:49.001Z</time>
      </trkpt>
      <trkpt lat="48.8147" lon="5.53903">
        <ele>240.326</ele>
        <time>2019-09-22T14:50:52.001Z</time>
      </trkpt>
      <trkpt lat="48.81461" lon="5.53908">
        <ele>240.482</ele>
        <time>2019-09-22T14:50:55.001Z</time>
      </trkpt>
      <trkpt lat="48.81451" lon="5.53913">
        <ele>240.424</ele>
        <time>2019-09-22T14:50:58.001Z</time>
      </trkpt>
      <trkpt lat="48.81438" lon="5.5392">
        <ele>240.469</ele>
        <time>2019-09-22T14:51:01.001Z</time>
      </trkpt>
      <trkpt lat="48.81425" lon="5.53926">
        <ele>240.351</ele>
        <time>2019-09-22T14:51:04.001Z</time>
      </trkpt>
      <trkpt lat="48.81411" lon="5.5393">
        <ele>240.412</ele>
        <time>2019-09-22T14:51:07.001Z</time>
      </trkpt>
      <trkpt lat="48.81397" lon="5.53933">
        <ele>240.139</ele>
        <time>2019-09-22T14:51:10.001Z</time>
      </trkpt>
      <trkpt lat="48.81382" lon="5.53936">
        <ele>239.782</ele>
        <time>2019-09-22T14:51:13.001Z</time>
      </trkpt>
      <trkpt lat="48.81366" lon="5.53939">
        <ele>239.221</ele>
        <time>2019-09-22T14:51:16.000Z</time>
      </trkpt>
      <trkpt lat="48.8135" lon="5.53942">
        <ele>238.946</ele>
        <time>2019-09-22T14:51:19.001Z</time>
      </trkpt>
      <trkpt lat="48.81334" lon="5.53945">
        <ele>238.561</ele>
        <time>2019-09-22T14:51:22.001Z</time>
      </trkpt>
      <trkpt lat="48.81318" lon="5.53948">
        <ele>238.516</ele>
        <time>2019-09-22T14:51:25.001Z</time>
      </trkpt>
      <trkpt lat="48.81302" lon="5.53952">
        <ele>238.111</ele>
        <time>2019-09-22T14:51:28.001Z</time>
      </trkpt>
      <trkpt lat="48.81287" lon="5.53954">
        <ele>237.668</ele>
        <time>2019-09-22T14:51:31.001Z</time>
      </trkpt>
      <trkpt lat="48.81272" lon="5.53957">
        <ele>237.554</ele>
        <time>2019-09-22T14:51:34.001Z</time>
      </trkpt>
      <trkpt lat="48.81256" lon="5.53959">
        <ele>237.163</ele>
        <time>2019-09-22T14:51:37.001Z</time>
      </trkpt>
      <trkpt lat="48.8124" lon="5.53962">
        <ele>236.939</ele>
        <time>2019-09-22T14:51:40.001Z</time>
      </trkpt>
      <trkpt lat="48.81225" lon="5.53965">
        <ele>236.863</ele>
        <time>2019-09-22T14:51:43.001Z</time>
      </trkpt>
      <trkpt lat="48.8121" lon="5.53969">
        <ele>236.69</ele>
        <time>2019-09-22T14:51:46.001Z</time>
      </trkpt>
      <trkpt lat="48.81195" lon="5.53971">
        <ele>237.321</ele>
        <time>2019-09-22T14:51:49.001Z</time>
      </trkpt>
      <trkpt lat="48.81182" lon="5.53974">
        <ele>237.769</ele>
        <time>2019-09-22T14:51:52.001Z</time>
      </trkpt>
      <trkpt lat="48.81168" lon="5.53976">
        <ele>238.412</ele>
        <time>2019-09-22T14:51:55.001Z</time>
      </trkpt>
      <trkpt lat="48.81155" lon="5.53978">
        <ele>238.32</ele>
        <time>2019-09-22T14:51:58.001Z</time>
      </trkpt>
      <trkpt lat="48.81142" lon="5.53981">
        <ele>238.147</ele>
        <time>2019-09-22T14:52:01.001Z</time>
      </trkpt>
      <trkpt lat="48.81128" lon="5.53984">
        <ele>238.1</ele>
        <time>2019-09-22T14:52:04.001Z</time>
      </trkpt>
      <trkpt lat="48.81115" lon="5.53986">
        <ele>237.526</ele>
        <time>2019-09-22T14:52:07.001Z</time>
      </trkpt>
      <trkpt lat="48.81101" lon="5.5399">
        <ele>237.474</ele>
        <time>2019-09-22T14:52:10.001Z</time>
      </trkpt>
      <trkpt lat="48.81088" lon="5.53992">
        <ele>237.382</ele>
        <time>2019-09-22T14:52:13.001Z</time>
      </trkpt>
      <trkpt lat="48.81073" lon="5.53994">
        <ele>237.61</ele>
        <time>2019-09-22T14:52:16.000Z</time>
      </trkpt>
      <trkpt lat="48.81057" lon="5.53998">
        <ele>237.87</ele>
        <time>2019-09-22T14:52:19.001Z</time>
      </trkpt>
      <trkpt lat="48.81039" lon="5.54001">
        <ele>237.726</ele>
        <time>2019-09-22T14:52:22.001Z</time>
      </trkpt>
      <trkpt lat="48.81022" lon="5.54004">
        <ele>237.337</ele>
        <time>2019-09-22T14:52:25.001Z</time>
      </trkpt>
      <trkpt lat="48.81003" lon="5.54008">
        <ele>236.85</ele>
        <time>2019-09-22T14:52:28.001Z</time>
      </trkpt>
      <trkpt lat="48.80984" lon="5.54012">
        <ele>236.639</ele>
        <time>2019-09-22T14:52:31.001Z</time>
      </trkpt>
      <trkpt lat="48.80965" lon="5.54017">
        <ele>236.226</ele>
        <time>2019-09-22T14:52:34.001Z</time>
      </trkpt>
      <trkpt lat="48.80945" lon="5.54021">
        <ele>235.284</ele>
        <time>2019-09-22T14:52:37.001Z</time>
      </trkpt>
      <trkpt lat="48.80926" lon="5.54025">
        <ele>234.136</ele>
        <time>2019-09-22T14:52:40.001Z</time>
      </trkpt>
      <trkpt lat="48.80908" lon="5.54028">
        <ele>233.418</ele>
        <time>2019-09-22T14:52:43.001Z</time>
      </trkpt>
      <trkpt lat="48.80891" lon="5.54031">
        <ele>232.644</ele>
        <time>2019-09-22T14:52:46.001Z</time>
      </trkpt>
      <trkpt lat="48.80874" lon="5.54035">
        <ele>232.118</ele>
        <time>2019-09-22T14:52:49.001Z</time>
      </trkpt>
      <trkpt lat="48.80859" lon="5.54038">
        <ele>231.897</ele>
        <time>2019-09-22T14:52:52.001Z</time>
      </trkpt>
      <trkpt lat="48.80844" lon="5.54041">
        <ele>231.483</ele>
        <time>2019-09-22T14:52:55.001Z</time>
      </trkpt>
      <trkpt lat="48.80832" lon="5.54043">
        <ele>231.288</ele>
        <time>2019-09-22T14:52:58.001Z</time>
      </trkpt>
      <trkpt lat="48.80819" lon="5.54047">
        <ele>231.323</ele>
        <time>2019-09-22T14:53:01.001Z</time>
      </trkpt>
      <trkpt lat="48.80808" lon="5.54049">
        <ele>231.613</ele>
        <time>2019-09-22T14:53:04.001Z</time>
      </trkpt>
      <trkpt lat="48.80798" lon="5.54051">
        <ele>231.377</ele>
        <time>2019-09-22T14:53:07.001Z</time>
      </trkpt>
      <trkpt lat="48.80788" lon="5.54053">
        <ele>231.479</ele>
        <time>2019-09-22T14:53:10.001Z</time>
      </trkpt>
      <trkpt lat="48.80778" lon="5.54055">
        <ele>231.761</ele>
        <time>2019-09-22T14:53:13.001Z</time>
      </trkpt>
      <trkpt lat="48.80768" lon="5.54057">
        <ele>231.657</ele>
        <time>2019-09-22T14:53:16.000Z</time>
      </trkpt>
      <trkpt lat="48.80759" lon="5.54058">
        <ele>232.249</ele>
        <time>2019-09-22T14:53:19.001Z</time>
      </trkpt>
      <trkpt lat="48.80749" lon="5.54059">
        <ele>232.539</ele>
        <time>2019-09-22T14:53:22.001Z</time>
      </trkpt>
      <trkpt lat="48.80739" lon="5.54061">
        <ele>232.899</ele>
        <time>2019-09-22T14:53:25.001Z</time>
      </trkpt>
      <trkpt lat="48.80731" lon="5.54064">
        <ele>233.368</ele>
        <time>2019-09-22T14:53:28.001Z</time>
      </trkpt>
      <trkpt lat="48.80722" lon="5.54066">
        <ele>234.136</ele>
        <time>2019-09-22T14:53:31.001Z</time>
      </trkpt>
      <trkpt lat="48.80714" lon="5.54068">
        <ele>234.533</ele>
        <time>2019-09-22T14:53:34.001Z</time>
      </trkpt>
      <trkpt lat="48.80705" lon="5.54071">
        <ele>234.782</ele>
        <time>2019-09-22T14:53:37.001Z</time>
      </trkpt>
      <trkpt lat="48.80696" lon="5.54075">
        <ele>235.179</ele>
        <time>2019-09-22T14:53:40.001Z</time>
      </trkpt>
      <trkpt lat="48.80687" lon="5.54078">
        <ele>235.643</ele>
        <time>2019-09-22T14:53:43.001Z</time>
      </trkpt>
      <trkpt lat="48.80678" lon="5.54082">
        <ele>235.659</ele>
        <time>2019-09-22T14:53:46.001Z</time>
      </trkpt>
      <trkpt lat="48.80669" lon="5.54086">
        <ele>235.699</ele>
        <time>2019-09-22T14:53:49.001Z</time>
      </trkpt>
      <trkpt lat="48.80661" lon="5.54091">
        <ele>236.135</ele>
        <time>2019-09-22T14:53:52.001Z</time>
      </trkpt>
      <trkpt lat="48.80653" lon="5.54094">
        <ele>236.359</ele>
        <time>2019-09-22T14:53:55.001Z</time>
      </trkpt>
      <trkpt lat="48.80645" lon="5.54099">
        <ele>236.491</ele>
        <time>2019-09-22T14:53:58.001Z</time>
      </trkpt>
      <trkpt lat="48.80635" lon="5.54104">
        <ele>236.047</ele>
        <time>2019-09-22T14:54:01.001Z</time>
      </trkpt>
      <trkpt lat="48.80625" lon="5.54108">
        <ele>236.112</ele>
        <time>2019-09-22T14:54:04.001Z</time>
      </trkpt>
      <trkpt lat="48.80616" lon="5.54113">
        <ele>236.439</ele>
        <time>2019-09-22T14:54:07.001Z</time>
      </trkpt>
      <trkpt lat="48.80607" lon="5.54118">
        <ele>236.237</ele>
        <time>2019-09-22T14:54:10.001Z</time>
      </trkpt>
      <trkpt lat="48.80598" lon="5.54123">
        <ele>236.646</ele>
        <time>2019-09-22T14:54:13.001Z</time>
      </trkpt>
      <trkpt lat="48.80589" lon="5.54127">
        <ele>236.559</ele>
        <time>2019-09-22T14:54:16.000Z</time>
      </trkpt>
      <trkpt lat="48.8058" lon="5.54131">
        <ele>236.724</ele>
        <time>2019-09-22T14:54:19.001Z</time>
      </trkpt>
      <trkpt lat="48.8057" lon="5.54136">
        <ele>236.85</ele>
        <time>2019-09-22T14:54:22.001Z</time>
      </trkpt>
      <trkpt lat="48.8056" lon="5.54142">
        <ele>236.576</ele>
        <time>2019-09-22T14:54:25.001Z</time>
      </trkpt>
      <trkpt lat="48.80549" lon="5.54148">
        <ele>236.715</ele>
        <time>2019-09-22T14:54:28.001Z</time>
      </trkpt>
      <trkpt lat="48.80537" lon="5.54155">
        <ele>236.915</ele>
        <time>2019-09-22T14:54:31.001Z</time>
      </trkpt>
      <trkpt lat="48.80525" lon="5.54162">
        <ele>237.312</ele>
        <time>2019-09-22T14:54:34.001Z</time>
      </trkpt>
      <trkpt lat="48.80513" lon="5.54172">
        <ele>237.436</ele>
        <time>2019-09-22T14:54:37.001Z</time>
      </trkpt>
      <trkpt lat="48.80501" lon="5.54182">
        <ele>237.758</ele>
        <time>2019-09-22T14:54:40.001Z</time>
      </trkpt>
      <trkpt lat="48.80489" lon="5.54194">
        <ele>237.837</ele>
        <time>2019-09-22T14:54:43.001Z</time>
      </trkpt>
      <trkpt lat="48.80476" lon="5.54206">
        <ele>238.546</ele>
        <time>2019-09-22T14:54:46.001Z</time>
      </trkpt>
      <trkpt lat="48.80464" lon="5.54218">
        <ele>238.469</ele>
        <time>2019-09-22T14:54:49.001Z</time>
      </trkpt>
      <trkpt lat="48.80452" lon="5.54229">
        <ele>238.237</ele>
        <time>2019-09-22T14:54:52.001Z</time>
      </trkpt>
      <trkpt lat="48.8044" lon="5.54242">
        <ele>238.443</ele>
        <time>2019-09-22T14:54:55.001Z</time>
      </trkpt>
      <trkpt lat="48.80428" lon="5.54255">
        <ele>237.977</ele>
        <time>2019-09-22T14:54:58.001Z</time>
      </trkpt>
      <trkpt lat="48.80415" lon="5.54269">
        <ele>237.814</ele>
        <time>2019-09-22T14:55:01.001Z</time>
      </trkpt>
      <trkpt lat="48.80402" lon="5.54282">
        <ele>237.739</ele>
        <time>2019-09-22T14:55:04.001Z</time>
      </trkpt>
      <trkpt lat="48.80389" lon="5.54295">
        <ele>237.409</ele>
        <time>2019-09-22T14:55:07.001Z</time>
      </trkpt>
      <trkpt lat="48.80376" lon="5.54309">
        <ele>237.253</ele>
        <time>2019-09-22T14:55:10.001Z</time>
      </trkpt>
      <trkpt lat="48.80364" lon="5.54321">
        <ele>236.805</ele>
        <time>2019-09-22T14:55:13.001Z</time>
      </trkpt>
      <trkpt lat="48.80351" lon="5.54335">
        <ele>236.21</ele>
        <time>2019-09-22T14:55:16.000Z</time>
      </trkpt>
      <trkpt lat="48.80337" lon="5.54349">
        <ele>235.961</ele>
        <time>2019-09-22T14:55:19.001Z</time>
      </trkpt>
      <trkpt lat="48.80324" lon="5.54363">
        <ele>235.715</ele>
        <time>2019-09-22T14:55:22.001Z</time>
      </trkpt>
      <trkpt lat="48.80311" lon="5.54377">
        <ele>235.836</ele>
        <time>2019-09-22T14:55:25.001Z</time>
      </trkpt>
      <trkpt lat="48.80298" lon="5.54391">
        <ele>236.268</ele>
        <time>2019-09-22T14:55:28.001Z</time>
      </trkpt>
      <trkpt lat="48.80287" lon="5.54404">
        <ele>235.968</ele>
        <time>2019-09-22T14:55:31.001Z</time>
      </trkpt>
      <trkpt lat="48.80276" lon="5.5442">
        <ele>235.726</ele>
        <time>2019-09-22T14:55:34.001Z</time>
      </trkpt>
      <trkpt lat="48.80267" lon="5.54438">
        <ele>235.489</ele>
        <time>2019-09-22T14:55:37.001Z</time>
      </trkpt>
      <trkpt lat="48.80258" lon="5.54457">
        <ele>235.792</ele>
        <time>2019-09-22T14:55:40.001Z</time>
      </trkpt>
      <trkpt lat="48.80251" lon="5.54477">
        <ele>236.022</ele>
        <time>2019-09-22T14:55:43.001Z</time>
      </trkpt>
      <trkpt lat="48.80245" lon="5.54499">
        <ele>236.252</ele>
        <time>2019-09-22T14:55:46.001Z</time>
      </trkpt>
      <trkpt lat="48.80241" lon="5.5452">
        <ele>237.108</ele>
        <time>2019-09-22T14:55:49.001Z</time>
      </trkpt>
      <trkpt lat="48.80236" lon="5.54541">
        <ele>236.881</ele>
        <time>2019-09-22T14:55:52.001Z</time>
      </trkpt>
      <trkpt lat="48.80233" lon="5.54563">
        <ele>236.676</ele>
        <time>2019-09-22T14:55:55.001Z</time>
      </trkpt>
      <trkpt lat="48.80228" lon="5.54585">
        <ele>236.424</ele>
        <time>2019-09-22T14:55:58.001Z</time>
      </trkpt>
      <trkpt lat="48.80224" lon="5.54606">
        <ele>236.203</ele>
        <time>2019-09-22T14:56:01.001Z</time>
      </trkpt>
      <trkpt lat="48.80222" lon="5.54629">
        <ele>235.275</ele>
        <time>2019-09-22T14:56:04.001Z</time>
      </trkpt>
      <trkpt lat="48.80217" lon="5.54656">
        <ele>234.745</ele>
        <time>2019-09-22T14:56:07.001Z</time>
      </trkpt>
      <trkpt lat="48.80209" lon="5.54678">
        <ele>235.475</ele>
        <time>2019-09-22T14:56:10.001Z</time>
      </trkpt>
      <trkpt lat="48.80188" lon="5.5468">
        <ele>235.129</ele>
        <time>2019-09-22T14:56:13.001Z</time>
      </trkpt>
      <trkpt lat="48.80162" lon="5.54676">
        <ele>234.541</ele>
        <time>2019-09-22T14:56:16.000Z</time>
      </trkpt>
      <trkpt lat="48.80133" lon="5.54669">
        <ele>234.606</ele>
        <time>2019-09-22T14:56:19.001Z</time>
      </trkpt>
      <trkpt lat="48.80107" lon="5.54658">
        <ele>234.92</ele>
        <time>2019-09-22T14:56:22.001Z</time>
      </trkpt>
      <trkpt lat="48.80085" lon="5.54652">
        <ele>234.608</ele>
        <time>2019-09-22T14:56:25.001Z</time>
      </trkpt>
      <trkpt lat="48.80068" lon="5.54645">
        <ele>234.528</ele>
        <time>2019-09-22T14:56:28.001Z</time>
      </trkpt>
      <trkpt lat="48.80054" lon="5.54639">
        <ele>234.091</ele>
        <time>2019-09-22T14:56:31.001Z</time>
      </trkpt>
      <trkpt lat="48.80042" lon="5.54634">
        <ele>233.507</ele>
        <time>2019-09-22T14:56:34.001Z</time>
      </trkpt>
      <trkpt lat="48.8003" lon="5.54628">
        <ele>232.377</ele>
        <time>2019-09-22T14:56:37.001Z</time>
      </trkpt>
      <trkpt lat="48.80017" lon="5.54621">
        <ele>231.822</ele>
        <time>2019-09-22T14:56:40.001Z</time>
      </trkpt>
      <trkpt lat="48.80003" lon="5.54613">
        <ele>231.837</ele>
        <time>2019-09-22T14:56:43.001Z</time>
      </trkpt>
      <trkpt lat="48.79984" lon="5.54603">
        <ele>231.586</ele>
        <time>2019-09-22T14:56:46.001Z</time>
      </trkpt>
      <trkpt lat="48.79967" lon="5.54593">
        <ele>231.487</ele>
        <time>2019-09-22T14:56:49.001Z</time>
      </trkpt>
      <trkpt lat="48.79951" lon="5.54584">
        <ele>231.188</ele>
        <time>2019-09-22T14:56:52.001Z</time>
      </trkpt>
      <trkpt lat="48.79937" lon="5.54574">
        <ele>231.126</ele>
        <time>2019-09-22T14:56:55.001Z</time>
      </trkpt>
      <trkpt lat="48.79924" lon="5.54565">
        <ele>231.073</ele>
        <time>2019-09-22T14:56:58.001Z</time>
      </trkpt>
      <trkpt lat="48.79911" lon="5.54556">
        <ele>230.82</ele>
        <time>2019-09-22T14:57:01.001Z</time>
      </trkpt>
      <trkpt lat="48.79899" lon="5.54546">
        <ele>230.686</ele>
        <time>2019-09-22T14:57:04.001Z</time>
      </trkpt>
      <trkpt lat="48.79886" lon="5.54538">
        <ele>230.537</ele>
        <time>2019-09-22T14:57:07.001Z</time>
      </trkpt>
      <trkpt lat="48.79874" lon="5.5453">
        <ele>229.879</ele>
        <time>2019-09-22T14:57:10.001Z</time>
      </trkpt>
      <trkpt lat="48.79861" lon="5.54522">
        <ele>228.845</ele>
        <time>2019-09-22T14:57:13.001Z</time>
      </trkpt>
      <trkpt lat="48.79849" lon="5.54513">
        <ele>228.781</ele>
        <time>2019-09-22T14:57:16.000Z</time>
      </trkpt>
      <trkpt lat="48.79838" lon="5.54505">
        <ele>228.464</ele>
        <time>2019-09-22T14:57:19.001Z</time>
      </trkpt>
      <trkpt lat="48.79826" lon="5.54497">
        <ele>227.947</ele>
        <time>2019-09-22T14:57:22.001Z</time>
      </trkpt>
      <trkpt lat="48.79814" lon="5.54488">
        <ele>228.073</ele>
        <time>2019-09-22T14:57:25.001Z</time>
      </trkpt>
      <trkpt lat="48.79803" lon="5.5448">
        <ele>227.399</ele>
        <time>2019-09-22T14:57:28.001Z</time>
      </trkpt>
      <trkpt lat="48.79792" lon="5.54471">
        <ele>227.528</ele>
        <time>2019-09-22T14:57:31.001Z</time>
      </trkpt>
      <trkpt lat="48.79781" lon="5.54464">
        <ele>227.851</ele>
        <time>2019-09-22T14:57:34.001Z</time>
      </trkpt>
      <trkpt lat="48.79769" lon="5.54457">
        <ele>227.868</ele>
        <time>2019-09-22T14:57:37.001Z</time>
      </trkpt>
      <trkpt lat="48.79757" lon="5.54449">
        <ele>228.106</ele>
        <time>2019-09-22T14:57:40.001Z</time>
      </trkpt>
      <trkpt lat="48.79745" lon="5.5444">
        <ele>228.232</ele>
        <time>2019-09-22T14:57:43.001Z</time>
      </trkpt>
      <trkpt lat="48.79733" lon="5.54431">
        <ele>229.641</ele>
        <time>2019-09-22T14:57:46.001Z</time>
      </trkpt>
      <trkpt lat="48.79722" lon="5.54424">
        <ele>230.518</ele>
        <time>2019-09-22T14:57:49.001Z</time>
      </trkpt>
      <trkpt lat="48.79712" lon="5.54417">
        <ele>230.867</ele>
        <time>2019-09-22T14:57:52.001Z</time>
      </trkpt>
      <trkpt lat="48.79703" lon="5.54411">
        <ele>231.453</ele>
        <time>2019-09-22T14:57:55.001Z</time>
      </trkpt>
      <trkpt lat="48.79694" lon="5.54405">
        <ele>231.535</ele>
        <time>2019-09-22T14:57:58.001Z</time>
      </trkpt>
      <trkpt lat="48.79684" lon="5.54399">
        <ele>232.079</ele>
        <time>2019-09-22T14:58:01.001Z</time>
      </trkpt>
      <trkpt lat="48.79676" lon="5.54392">
        <ele>233.156</ele>
        <time>2019-09-22T14:58:04.001Z</time>
      </trkpt>
      <trkpt lat="48.79667" lon="5.54387">
        <ele>234.235</ele>
        <time>2019-09-22T14:58:07.001Z</time>
      </trkpt>
      <trkpt lat="48.79659" lon="5.5438">
        <ele>234.487</ele>
        <time>2019-09-22T14:58:10.001Z</time>
      </trkpt>
      <trkpt lat="48.79651" lon="5.54374">
        <ele>235.192</ele>
        <time>2019-09-22T14:58:13.001Z</time>
      </trkpt>
      <trkpt lat="48.79643" lon="5.54368">
        <ele>235.781</ele>
        <time>2019-09-22T14:58:16.000Z</time>
      </trkpt>
      <trkpt lat="48.79635" lon="5.54361">
        <ele>236.796</ele>
        <time>2019-09-22T14:58:19.001Z</time>
      </trkpt>
      <trkpt lat="48.79627" lon="5.54354">
        <ele>237.562</ele>
        <time>2019-09-22T14:58:22.001Z</time>
      </trkpt>
      <trkpt lat="48.7962" lon="5.54347">
        <ele>237.776</ele>
        <time>2019-09-22T14:58:25.001Z</time>
      </trkpt>
      <trkpt lat="48.79614" lon="5.54341">
        <ele>237.686</ele>
        <time>2019-09-22T14:58:28.001Z</time>
      </trkpt>
      <trkpt lat="48.79606" lon="5.54335">
        <ele>237.999</ele>
        <time>2019-09-22T14:58:31.001Z</time>
      </trkpt>
      <trkpt lat="48.79599" lon="5.54329">
        <ele>238.521</ele>
        <time>2019-09-22T14:58:34.001Z</time>
      </trkpt>
      <trkpt lat="48.79592" lon="5.54322">
        <ele>239.858</ele>
        <time>2019-09-22T14:58:37.001Z</time>
      </trkpt>
      <trkpt lat="48.79584" lon="5.54317">
        <ele>240.444</ele>
        <time>2019-09-22T14:58:40.001Z</time>
      </trkpt>
      <trkpt lat="48.79578" lon="5.5432">
        <ele>240.023</ele>
        <time>2019-09-22T14:58:43.001Z</time>
      </trkpt>
      <trkpt lat="48.79577" lon="5.54321">
        <ele>239.384</ele>
        <time>2019-09-22T14:58:46.001Z</time>
      </trkpt>
      <trkpt lat="48.79577" lon="5.54321">
        <ele>239.384</ele>
        <time>2019-09-22T14:59:04.001Z</time>
      </trkpt>
      <trkpt lat="48.79577" lon="5.54325">
        <ele>238.572</ele>
        <time>2019-09-22T14:59:07.001Z</time>
      </trkpt>
      <trkpt lat="48.79573" lon="5.54343">
        <ele>237.04</ele>
        <time>2019-09-22T14:59:10.001Z</time>
      </trkpt>
      <trkpt lat="48.79563" lon="5.54367">
        <ele>234.56</ele>
        <time>2019-09-22T14:59:13.001Z</time>
      </trkpt>
      <trkpt lat="48.79554" lon="5.54394">
        <ele>233.353</ele>
        <time>2019-09-22T14:59:16.000Z</time>
      </trkpt>
      <trkpt lat="48.79543" lon="5.54419">
        <ele>232.553</ele>
        <time>2019-09-22T14:59:19.001Z</time>
      </trkpt>
      <trkpt lat="48.79532" lon="5.54443">
        <ele>231.777</ele>
        <time>2019-09-22T14:59:22.001Z</time>
      </trkpt>
      <trkpt lat="48.79523" lon="5.54465">
        <ele>230.7</ele>
        <time>2019-09-22T14:59:25.001Z</time>
      </trkpt>
      <trkpt lat="48.79514" lon="5.54486">
        <ele>229.853</ele>
        <time>2019-09-22T14:59:28.001Z</time>
      </trkpt>
      <trkpt lat="48.79506" lon="5.54506">
        <ele>229.143</ele>
        <time>2019-09-22T14:59:31.001Z</time>
      </trkpt>
      <trkpt lat="48.79497" lon="5.54525">
        <ele>228.466</ele>
        <time>2019-09-22T14:59:34.001Z</time>
      </trkpt>
      <trkpt lat="48.79489" lon="5.54545">
        <ele>228.133</ele>
        <time>2019-09-22T14:59:37.001Z</time>
      </trkpt>
      <trkpt lat="48.79481" lon="5.54567">
        <ele>228.234</ele>
        <time>2019-09-22T14:59:40.001Z</time>
      </trkpt>
      <trkpt lat="48.79473" lon="5.54589">
        <ele>228.09</ele>
        <time>2019-09-22T14:59:43.001Z</time>
      </trkpt>
      <trkpt lat="48.79466" lon="5.54609">
        <ele>227.993</ele>
        <time>2019-09-22T14:59:46.001Z</time>
      </trkpt>
      <trkpt lat="48.79459" lon="5.5463">
        <ele>228.114</ele>
        <time>2019-09-22T14:59:49.001Z</time>
      </trkpt>
      <trkpt lat="48.79452" lon="5.54652">
        <ele>227.997</ele>
        <time>2019-09-22T14:59:52.001Z</time>
      </trkpt>
      <trkpt lat="48.79446" lon="5.54674">
        <ele>227.972</ele>
        <time>2019-09-22T14:59:55.001Z</time>
      </trkpt>
      <trkpt lat="48.7944" lon="5.54696">
        <ele>227.155</ele>
        <time>2019-09-22T14:59:58.001Z</time>
      </trkpt>
      <trkpt lat="48.79435" lon="5.54718">
        <ele>226.575</ele>
        <time>2019-09-22T15:00:01.001Z</time>
      </trkpt>
      <trkpt lat="48.79429" lon="5.54742">
        <ele>226.455</ele>
        <time>2019-09-22T15:00:04.001Z</time>
      </trkpt>
      <trkpt lat="48.79423" lon="5.54765">
        <ele>226.392</ele>
        <time>2019-09-22T15:00:07.001Z</time>
      </trkpt>
      <trkpt lat="48.79417" lon="5.54788">
        <ele>227.112</ele>
        <time>2019-09-22T15:00:10.001Z</time>
      </trkpt>
      <trkpt lat="48.7941" lon="5.54812">
        <ele>227.997</ele>
        <time>2019-09-22T15:00:13.001Z</time>
      </trkpt>
      <trkpt lat="48.79404" lon="5.54834">
        <ele>228.303</ele>
        <time>2019-09-22T15:00:16.000Z</time>
      </trkpt>
      <trkpt lat="48.79399" lon="5.54852">
        <ele>228.184</ele>
        <time>2019-09-22T15:00:19.001Z</time>
      </trkpt>
      <trkpt lat="48.79394" lon="5.54873">
        <ele>228.679</ele>
        <time>2019-09-22T15:00:22.001Z</time>
      </trkpt>
      <trkpt lat="48.79389" lon="5.54893">
        <ele>228.766</ele>
        <time>2019-09-22T15:00:25.001Z</time>
      </trkpt>
      <trkpt lat="48.79386" lon="5.54913">
        <ele>228.958</ele>
        <time>2019-09-22T15:00:28.001Z</time>
      </trkpt>
      <trkpt lat="48.79383" lon="5.54936">
        <ele>229.141</ele>
        <time>2019-09-22T15:00:31.001Z</time>
      </trkpt>
      <trkpt lat="48.79374" lon="5.54956">
        <ele>229.431</ele>
        <time>2019-09-22T15:00:34.001Z</time>
      </trkpt>
      <trkpt lat="48.79369" lon="5.54977">
        <ele>229.831</ele>
        <time>2019-09-22T15:00:37.001Z</time>
      </trkpt>
      <trkpt lat="48.79363" lon="5.54996">
        <ele>229.465</ele>
        <time>2019-09-22T15:00:40.001Z</time>
      </trkpt>
      <trkpt lat="48.79356" lon="5.55017">
        <ele>229.182</ele>
        <time>2019-09-22T15:00:43.001Z</time>
      </trkpt>
      <trkpt lat="48.79349" lon="5.5504">
        <ele>229.355</ele>
        <time>2019-09-22T15:00:46.001Z</time>
      </trkpt>
      <trkpt lat="48.79342" lon="5.55063">
        <ele>229.722</ele>
        <time>2019-09-22T15:00:49.001Z</time>
      </trkpt>
      <trkpt lat="48.79336" lon="5.55084">
        <ele>231.092</ele>
        <time>2019-09-22T15:00:52.001Z</time>
      </trkpt>
      <trkpt lat="48.79331" lon="5.55104">
        <ele>230.846</ele>
        <time>2019-09-22T15:00:55.001Z</time>
      </trkpt>
      <trkpt lat="48.79326" lon="5.55128">
        <ele>230.412</ele>
        <time>2019-09-22T15:00:58.001Z</time>
      </trkpt>
      <trkpt lat="48.7932" lon="5.55153">
        <ele>230.017</ele>
        <time>2019-09-22T15:01:01.001Z</time>
      </trkpt>
      <trkpt lat="48.79314" lon="5.55179">
        <ele>228.968</ele>
        <time>2019-09-22T15:01:04.001Z</time>
      </trkpt>
      <trkpt lat="48.79309" lon="5.55203">
        <ele>228.278</ele>
        <time>2019-09-22T15:01:07.001Z</time>
      </trkpt>
      <trkpt lat="48.79304" lon="5.55227">
        <ele>227.877</ele>
        <time>2019-09-22T15:01:10.001Z</time>
      </trkpt>
      <trkpt lat="48.79297" lon="5.55253">
        <ele>227.752</ele>
        <time>2019-09-22T15:01:13.001Z</time>
      </trkpt>
      <trkpt lat="48.7929" lon="5.55278">
        <ele>227.021</ele>
        <time>2019-09-22T15:01:16.000Z</time>
      </trkpt>
      <trkpt lat="48.79283" lon="5.55302">
        <ele>226.791</ele>
        <time>2019-09-22T15:01:19.001Z</time>
      </trkpt>
      <trkpt lat="48.79277" lon="5.55326">
        <ele>226.644</ele>
        <time>2019-09-22T15:01:22.001Z</time>
      </trkpt>
      <trkpt lat="48.79271" lon="5.55348">
        <ele>226.494</ele>
        <time>2019-09-22T15:01:25.001Z</time>
      </trkpt>
      <trkpt lat="48.79264" lon="5.55373">
        <ele>226.311</ele>
        <time>2019-09-22T15:01:28.001Z</time>
      </trkpt>
      <trkpt lat="48.79257" lon="5.55396">
        <ele>226.389</ele>
        <time>2019-09-22T15:01:31.001Z</time>
      </trkpt>
      <trkpt lat="48.79249" lon="5.55422">
        <ele>226.179</ele>
        <time>2019-09-22T15:01:34.001Z</time>
      </trkpt>
      <trkpt lat="48.79242" lon="5.55447">
        <ele>226.286</ele>
        <time>2019-09-22T15:01:37.001Z</time>
      </trkpt>
      <trkpt lat="48.79235" lon="5.55471">
        <ele>227.187</ele>
        <time>2019-09-22T15:01:40.001Z</time>
      </trkpt>
      <trkpt lat="48.79228" lon="5.55494">
        <ele>228.068</ele>
        <time>2019-09-22T15:01:43.001Z</time>
      </trkpt>
      <trkpt lat="48.79221" lon="5.55517">
        <ele>228.184</ele>
        <time>2019-09-22T15:01:46.001Z</time>
      </trkpt>
      <trkpt lat="48.79215" lon="5.55538">
        <ele>228.249</ele>
        <time>2019-09-22T15:01:49.001Z</time>
      </trkpt>
      <trkpt lat="48.79209" lon="5.55559">
        <ele>228.506</ele>
        <time>2019-09-22T15:01:52.001Z</time>
      </trkpt>
      <trkpt lat="48.79204" lon="5.5558">
        <ele>228.384</ele>
        <time>2019-09-22T15:01:55.001Z</time>
      </trkpt>
      <trkpt lat="48.79197" lon="5.55602">
        <ele>228.007</ele>
        <time>2019-09-22T15:01:58.001Z</time>
      </trkpt>
      <trkpt lat="48.79191" lon="5.55626">
        <ele>227.92</ele>
        <time>2019-09-22T15:02:01.001Z</time>
      </trkpt>
      <trkpt lat="48.79184" lon="5.5565">
        <ele>227.549</ele>
        <time>2019-09-22T15:02:04.001Z</time>
      </trkpt>
      <trkpt lat="48.79178" lon="5.55671">
        <ele>227.461</ele>
        <time>2019-09-22T15:02:07.001Z</time>
      </trkpt>
      <trkpt lat="48.79171" lon="5.55692">
        <ele>227.583</ele>
        <time>2019-09-22T15:02:10.001Z</time>
      </trkpt>
      <trkpt lat="48.79165" lon="5.55713">
        <ele>226.313</ele>
        <time>2019-09-22T15:02:13.001Z</time>
      </trkpt>
      <trkpt lat="48.79158" lon="5.55735">
        <ele>226.055</ele>
        <time>2019-09-22T15:02:16.000Z</time>
      </trkpt>
      <trkpt lat="48.7915" lon="5.55756">
        <ele>226.255</ele>
        <time>2019-09-22T15:02:19.001Z</time>
      </trkpt>
      <trkpt lat="48.79144" lon="5.55776">
        <ele>226.144</ele>
        <time>2019-09-22T15:02:22.001Z</time>
      </trkpt>
      <trkpt lat="48.79136" lon="5.55796">
        <ele>226.696</ele>
        <time>2019-09-22T15:02:25.001Z</time>
      </trkpt>
      <trkpt lat="48.79128" lon="5.55817">
        <ele>226.648</ele>
        <time>2019-09-22T15:02:28.001Z</time>
      </trkpt>
      <trkpt lat="48.79121" lon="5.55837">
        <ele>226.997</ele>
        <time>2019-09-22T15:02:31.001Z</time>
      </trkpt>
      <trkpt lat="48.79112" lon="5.55856">
        <ele>228.359</ele>
        <time>2019-09-22T15:02:34.001Z</time>
      </trkpt>
      <trkpt lat="48.79103" lon="5.55877">
        <ele>229.056</ele>
        <time>2019-09-22T15:02:37.001Z</time>
      </trkpt>
      <trkpt lat="48.79091" lon="5.55898">
        <ele>229.647</ele>
        <time>2019-09-22T15:02:40.001Z</time>
      </trkpt>
      <trkpt lat="48.79081" lon="5.55918">
        <ele>230.464</ele>
        <time>2019-09-22T15:02:43.001Z</time>
      </trkpt>
      <trkpt lat="48.79073" lon="5.55943">
        <ele>230.756</ele>
        <time>2019-09-22T15:02:46.001Z</time>
      </trkpt>
      <trkpt lat="48.79066" lon="5.55963">
        <ele>230.988</ele>
        <time>2019-09-22T15:02:49.001Z</time>
      </trkpt>
      <trkpt lat="48.79055" lon="5.55982">
        <ele>230.404</ele>
        <time>2019-09-22T15:02:52.001Z</time>
      </trkpt>
      <trkpt lat="48.79042" lon="5.56002">
        <ele>231.46</ele>
        <time>2019-09-22T15:02:55.001Z</time>
      </trkpt>
      <trkpt lat="48.79031" lon="5.5602">
        <ele>232.143</ele>
        <time>2019-09-22T15:02:58.001Z</time>
      </trkpt>
      <trkpt lat="48.79018" lon="5.56039">
        <ele>231.32</ele>
        <time>2019-09-22T15:03:01.001Z</time>
      </trkpt>
      <trkpt lat="48.79005" lon="5.56057">
        <ele>229.968</ele>
        <time>2019-09-22T15:03:04.001Z</time>
      </trkpt>
      <trkpt lat="48.78995" lon="5.56073">
        <ele>229.032</ele>
        <time>2019-09-22T15:03:07.001Z</time>
      </trkpt>
      <trkpt lat="48.78986" lon="5.56092">
        <ele>228.502</ele>
        <time>2019-09-22T15:03:10.001Z</time>
      </trkpt>
      <trkpt lat="48.78978" lon="5.56112">
        <ele>229.829</ele>
        <time>2019-09-22T15:03:13.001Z</time>
      </trkpt>
      <trkpt lat="48.7897" lon="5.56128">
        <ele>230.094</ele>
        <time>2019-09-22T15:03:16.000Z</time>
      </trkpt>
      <trkpt lat="48.78954" lon="5.56144">
        <ele>230.884</ele>
        <time>2019-09-22T15:03:19.001Z</time>
      </trkpt>
      <trkpt lat="48.78943" lon="5.56159">
        <ele>231.436</ele>
        <time>2019-09-22T15:03:22.001Z</time>
      </trkpt>
      <trkpt lat="48.78932" lon="5.56174">
        <ele>231.212</ele>
        <time>2019-09-22T15:03:25.001Z</time>
      </trkpt>
      <trkpt lat="48.78922" lon="5.5619">
        <ele>231.196</ele>
        <time>2019-09-22T15:03:28.001Z</time>
      </trkpt>
      <trkpt lat="48.7891" lon="5.56208">
        <ele>230.5</ele>
        <time>2019-09-22T15:03:31.001Z</time>
      </trkpt>
      <trkpt lat="48.78897" lon="5.56227">
        <ele>230.034</ele>
        <time>2019-09-22T15:03:34.001Z</time>
      </trkpt>
      <trkpt lat="48.78884" lon="5.56246">
        <ele>229.662</ele>
        <time>2019-09-22T15:03:37.001Z</time>
      </trkpt>
      <trkpt lat="48.78873" lon="5.56265">
        <ele>229.613</ele>
        <time>2019-09-22T15:03:40.001Z</time>
      </trkpt>
      <trkpt lat="48.78862" lon="5.56282">
        <ele>229.545</ele>
        <time>2019-09-22T15:03:43.001Z</time>
      </trkpt>
      <trkpt lat="48.78851" lon="5.563">
        <ele>229.533</ele>
        <time>2019-09-22T15:03:46.001Z</time>
      </trkpt>
      <trkpt lat="48.78839" lon="5.56318">
        <ele>230.011</ele>
        <time>2019-09-22T15:03:49.001Z</time>
      </trkpt>
      <trkpt lat="48.78829" lon="5.56336">
        <ele>230.314</ele>
        <time>2019-09-22T15:03:52.001Z</time>
      </trkpt>
      <trkpt lat="48.78818" lon="5.56355">
        <ele>230.673</ele>
        <time>2019-09-22T15:03:55.001Z</time>
      </trkpt>
      <trkpt lat="48.78807" lon="5.56373">
        <ele>230.809</ele>
        <time>2019-09-22T15:03:58.001Z</time>
      </trkpt>
      <trkpt lat="48.78795" lon="5.56393">
        <ele>231.175</ele>
        <time>2019-09-22T15:04:01.001Z</time>
      </trkpt>
      <trkpt lat="48.78784" lon="5.56413">
        <ele>231.351</ele>
        <time>2019-09-22T15:04:04.001Z</time>
      </trkpt>
      <trkpt lat="48.78773" lon="5.5643">
        <ele>231.417</ele>
        <time>2019-09-22T15:04:07.001Z</time>
      </trkpt>
      <trkpt lat="48.78761" lon="5.56445">
        <ele>232.295</ele>
        <time>2019-09-22T15:04:10.001Z</time>
      </trkpt>
      <trkpt lat="48.78751" lon="5.56464">
        <ele>232.321</ele>
        <time>2019-09-22T15:04:13.001Z</time>
      </trkpt>
      <trkpt lat="48.78743" lon="5.56487">
        <ele>232.954</ele>
        <time>2019-09-22T15:04:16.000Z</time>
      </trkpt>
      <trkpt lat="48.7873" lon="5.56506">
        <ele>233.19</ele>
        <time>2019-09-22T15:04:19.001Z</time>
      </trkpt>
      <trkpt lat="48.78717" lon="5.56524">
        <ele>232.806</ele>
        <time>2019-09-22T15:04:22.001Z</time>
      </trkpt>
      <trkpt lat="48.78704" lon="5.56541">
        <ele>232.078</ele>
        <time>2019-09-22T15:04:25.001Z</time>
      </trkpt>
      <trkpt lat="48.78692" lon="5.56559">
        <ele>231.819</ele>
        <time>2019-09-22T15:04:28.001Z</time>
      </trkpt>
      <trkpt lat="48.7868" lon="5.56575">
        <ele>232.158</ele>
        <time>2019-09-22T15:04:31.001Z</time>
      </trkpt>
      <trkpt lat="48.78666" lon="5.56591">
        <ele>231.722</ele>
        <time>2019-09-22T15:04:34.001Z</time>
      </trkpt>
      <trkpt lat="48.78653" lon="5.56606">
        <ele>231.084</ele>
        <time>2019-09-22T15:04:37.001Z</time>
      </trkpt>
      <trkpt lat="48.78639" lon="5.56618">
        <ele>231.081</ele>
        <time>2019-09-22T15:04:40.001Z</time>
      </trkpt>
      <trkpt lat="48.78624" lon="5.56629">
        <ele>230.783</ele>
        <time>2019-09-22T15:04:43.001Z</time>
      </trkpt>
      <trkpt lat="48.78609" lon="5.56637">
        <ele>231.038</ele>
        <time>2019-09-22T15:04:46.001Z</time>
      </trkpt>
      <trkpt lat="48.78595" lon="5.56643">
        <ele>231.134</ele>
        <time>2019-09-22T15:04:49.001Z</time>
      </trkpt>
      <trkpt lat="48.78577" lon="5.56648">
        <ele>231.019</ele>
        <time>2019-09-22T15:04:52.001Z</time>
      </trkpt>
      <trkpt lat="48.7856" lon="5.56652">
        <ele>230.996</ele>
        <time>2019-09-22T15:04:55.001Z</time>
      </trkpt>
      <trkpt lat="48.78543" lon="5.56656">
        <ele>230.346</ele>
        <time>2019-09-22T15:04:58.001Z</time>
      </trkpt>
      <trkpt lat="48.78527" lon="5.56659">
        <ele>230.398</ele>
        <time>2019-09-22T15:05:01.001Z</time>
      </trkpt>
      <trkpt lat="48.7851" lon="5.56662">
        <ele>230.775</ele>
        <time>2019-09-22T15:05:04.001Z</time>
      </trkpt>
      <trkpt lat="48.78495" lon="5.56664">
        <ele>231.219</ele>
        <time>2019-09-22T15:05:07.001Z</time>
      </trkpt>
      <trkpt lat="48.78479" lon="5.56666">
        <ele>231.662</ele>
        <time>2019-09-22T15:05:10.001Z</time>
      </trkpt>
      <trkpt lat="48.78462" lon="5.56668">
        <ele>232.245</ele>
        <time>2019-09-22T15:05:13.001Z</time>
      </trkpt>
      <trkpt lat="48.78445" lon="5.56671">
        <ele>232.169</ele>
        <time>2019-09-22T15:05:16.000Z</time>
      </trkpt>
      <trkpt lat="48.7843" lon="5.56673">
        <ele>232.319</ele>
        <time>2019-09-22T15:05:19.001Z</time>
      </trkpt>
      <trkpt lat="48.78414" lon="5.56676">
        <ele>232.285</ele>
        <time>2019-09-22T15:05:22.001Z</time>
      </trkpt>
      <trkpt lat="48.78397" lon="5.56678">
        <ele>232.551</ele>
        <time>2019-09-22T15:05:25.001Z</time>
      </trkpt>
      <trkpt lat="48.78383" lon="5.5668">
        <ele>232.475</ele>
        <time>2019-09-22T15:05:28.001Z</time>
      </trkpt>
      <trkpt lat="48.78367" lon="5.56682">
        <ele>232.033</ele>
        <time>2019-09-22T15:05:31.001Z</time>
      </trkpt>
      <trkpt lat="48.7835" lon="5.56682">
        <ele>231.74</ele>
        <time>2019-09-22T15:05:34.001Z</time>
      </trkpt>
      <trkpt lat="48.78334" lon="5.56681">
        <ele>232.44</ele>
        <time>2019-09-22T15:05:37.001Z</time>
      </trkpt>
      <trkpt lat="48.78318" lon="5.56681">
        <ele>233.624</ele>
        <time>2019-09-22T15:05:40.001Z</time>
      </trkpt>
      <trkpt lat="48.78302" lon="5.5668">
        <ele>234.24</ele>
        <time>2019-09-22T15:05:43.001Z</time>
      </trkpt>
      <trkpt lat="48.78287" lon="5.56679">
        <ele>234.975</ele>
        <time>2019-09-22T15:05:46.001Z</time>
      </trkpt>
      <trkpt lat="48.78271" lon="5.56678">
        <ele>235.058</ele>
        <time>2019-09-22T15:05:49.001Z</time>
      </trkpt>
      <trkpt lat="48.78256" lon="5.56679">
        <ele>235.862</ele>
        <time>2019-09-22T15:05:52.001Z</time>
      </trkpt>
      <trkpt lat="48.7824" lon="5.56682">
        <ele>236.266</ele>
        <time>2019-09-22T15:05:55.001Z</time>
      </trkpt>
      <trkpt lat="48.78227" lon="5.56683">
        <ele>236.557</ele>
        <time>2019-09-22T15:05:58.001Z</time>
      </trkpt>
      <trkpt lat="48.78211" lon="5.56685">
        <ele>237.827</ele>
        <time>2019-09-22T15:06:01.001Z</time>
      </trkpt>
      <trkpt lat="48.78194" lon="5.56687">
        <ele>238.784</ele>
        <time>2019-09-22T15:06:04.001Z</time>
      </trkpt>
      <trkpt lat="48.78178" lon="5.56689">
        <ele>239.148</ele>
        <time>2019-09-22T15:06:07.001Z</time>
      </trkpt>
      <trkpt lat="48.7816" lon="5.56693">
        <ele>239.863</ele>
        <time>2019-09-22T15:06:10.001Z</time>
      </trkpt>
      <trkpt lat="48.78143" lon="5.56696">
        <ele>240.146</ele>
        <time>2019-09-22T15:06:13.001Z</time>
      </trkpt>
      <trkpt lat="48.78128" lon="5.56698">
        <ele>240.707</ele>
        <time>2019-09-22T15:06:16.000Z</time>
      </trkpt>
      <trkpt lat="48.78115" lon="5.56699">
        <ele>239.775</ele>
        <time>2019-09-22T15:06:19.001Z</time>
      </trkpt>
      <trkpt lat="48.78101" lon="5.567">
        <ele>238.855</ele>
        <time>2019-09-22T15:06:22.001Z</time>
      </trkpt>
      <trkpt lat="48.78084" lon="5.56701">
        <ele>238.639</ele>
        <time>2019-09-22T15:06:25.001Z</time>
      </trkpt>
      <trkpt lat="48.78067" lon="5.56705">
        <ele>238.001</ele>
        <time>2019-09-22T15:06:28.001Z</time>
      </trkpt>
      <trkpt lat="48.78052" lon="5.56711">
        <ele>237.816</ele>
        <time>2019-09-22T15:06:31.001Z</time>
      </trkpt>
      <trkpt lat="48.78036" lon="5.56716">
        <ele>237.517</ele>
        <time>2019-09-22T15:06:34.001Z</time>
      </trkpt>
      <trkpt lat="48.7802" lon="5.56721">
        <ele>237.95</ele>
        <time>2019-09-22T15:06:37.001Z</time>
      </trkpt>
      <trkpt lat="48.78003" lon="5.56726">
        <ele>238.048</ele>
        <time>2019-09-22T15:06:40.001Z</time>
      </trkpt>
      <trkpt lat="48.77987" lon="5.56731">
        <ele>237.506</ele>
        <time>2019-09-22T15:06:43.001Z</time>
      </trkpt>
      <trkpt lat="48.77972" lon="5.56736">
        <ele>236.812</ele>
        <time>2019-09-22T15:06:46.001Z</time>
      </trkpt>
      <trkpt lat="48.77957" lon="5.56741">
        <ele>236.734</ele>
        <time>2019-09-22T15:06:49.001Z</time>
      </trkpt>
      <trkpt lat="48.77942" lon="5.56748">
        <ele>237.292</ele>
        <time>2019-09-22T15:06:52.001Z</time>
      </trkpt>
      <trkpt lat="48.77926" lon="5.56754">
        <ele>237.409</ele>
        <time>2019-09-22T15:06:55.001Z</time>
      </trkpt>
      <trkpt lat="48.77911" lon="5.5676">
        <ele>237.655</ele>
        <time>2019-09-22T15:06:58.001Z</time>
      </trkpt>
      <trkpt lat="48.77896" lon="5.56767">
        <ele>237.592</ele>
        <time>2019-09-22T15:07:01.001Z</time>
      </trkpt>
      <trkpt lat="48.77881" lon="5.56773">
        <ele>236.738</ele>
        <time>2019-09-22T15:07:04.001Z</time>
      </trkpt>
      <trkpt lat="48.77866" lon="5.56779">
        <ele>236.506</ele>
        <time>2019-09-22T15:07:07.001Z</time>
      </trkpt>
      <trkpt lat="48.77851" lon="5.56785">
        <ele>236.243</ele>
        <time>2019-09-22T15:07:10.001Z</time>
      </trkpt>
      <trkpt lat="48.77836" lon="5.56792">
        <ele>235.812</ele>
        <time>2019-09-22T15:07:13.001Z</time>
      </trkpt>
      <trkpt lat="48.77821" lon="5.568">
        <ele>234.916</ele>
        <time>2019-09-22T15:07:16.000Z</time>
      </trkpt>
      <trkpt lat="48.77807" lon="5.56809">
        <ele>234.54</ele>
        <time>2019-09-22T15:07:19.001Z</time>
      </trkpt>
      <trkpt lat="48.77792" lon="5.56819">
        <ele>234.266</ele>
        <time>2019-09-22T15:07:22.001Z</time>
      </trkpt>
      <trkpt lat="48.77777" lon="5.56829">
        <ele>233.938</ele>
        <time>2019-09-22T15:07:25.001Z</time>
      </trkpt>
      <trkpt lat="48.77762" lon="5.5684">
        <ele>233.235</ele>
        <time>2019-09-22T15:07:28.001Z</time>
      </trkpt>
      <trkpt lat="48.77748" lon="5.56851">
        <ele>232.426</ele>
        <time>2019-09-22T15:07:31.001Z</time>
      </trkpt>
      <trkpt lat="48.77733" lon="5.56863">
        <ele>231.877</ele>
        <time>2019-09-22T15:07:34.001Z</time>
      </trkpt>
      <trkpt lat="48.77719" lon="5.56874">
        <ele>231.32</ele>
        <time>2019-09-22T15:07:37.001Z</time>
      </trkpt>
      <trkpt lat="48.77704" lon="5.56885">
        <ele>230.696</ele>
        <time>2019-09-22T15:07:40.001Z</time>
      </trkpt>
      <trkpt lat="48.7769" lon="5.56895">
        <ele>230.783</ele>
        <time>2019-09-22T15:07:43.001Z</time>
      </trkpt>
      <trkpt lat="48.77677" lon="5.56905">
        <ele>230.328</ele>
        <time>2019-09-22T15:07:46.001Z</time>
      </trkpt>
      <trkpt lat="48.77662" lon="5.56914">
        <ele>229.349</ele>
        <time>2019-09-22T15:07:49.001Z</time>
      </trkpt>
      <trkpt lat="48.77647" lon="5.56925">
        <ele>229.347</ele>
        <time>2019-09-22T15:07:52.001Z</time>
      </trkpt>
      <trkpt lat="48.77633" lon="5.56936">
        <ele>229.119</ele>
        <time>2019-09-22T15:07:55.001Z</time>
      </trkpt>
      <trkpt lat="48.77619" lon="5.56947">
        <ele>229.143</ele>
        <time>2019-09-22T15:07:58.001Z</time>
      </trkpt>
      <trkpt lat="48.77604" lon="5.56959">
        <ele>228.541</ele>
        <time>2019-09-22T15:08:01.001Z</time>
      </trkpt>
      <trkpt lat="48.7759" lon="5.5697">
        <ele>228.16</ele>
        <time>2019-09-22T15:08:04.001Z</time>
      </trkpt>
      <trkpt lat="48.77577" lon="5.56982">
        <ele>228.05</ele>
        <time>2019-09-22T15:08:07.001Z</time>
      </trkpt>
      <trkpt lat="48.77563" lon="5.56995">
        <ele>228.379</ele>
        <time>2019-09-22T15:08:10.001Z</time>
      </trkpt>
      <trkpt lat="48.77548" lon="5.57009">
        <ele>228.419</ele>
        <time>2019-09-22T15:08:13.001Z</time>
      </trkpt>
      <trkpt lat="48.77534" lon="5.57022">
        <ele>228.392</ele>
        <time>2019-09-22T15:08:16.000Z</time>
      </trkpt>
      <trkpt lat="48.7752" lon="5.57036">
        <ele>228.55</ele>
        <time>2019-09-22T15:08:19.001Z</time>
      </trkpt>
      <trkpt lat="48.77505" lon="5.5705">
        <ele>229.135</ele>
        <time>2019-09-22T15:08:22.001Z</time>
      </trkpt>
      <trkpt lat="48.77491" lon="5.57064">
        <ele>229.942</ele>
        <time>2019-09-22T15:08:25.001Z</time>
      </trkpt>
      <trkpt lat="48.77477" lon="5.57079">
        <ele>229.769</ele>
        <time>2019-09-22T15:08:28.001Z</time>
      </trkpt>
      <trkpt lat="48.77464" lon="5.57094">
        <ele>229.638</ele>
        <time>2019-09-22T15:08:31.001Z</time>
      </trkpt>
      <trkpt lat="48.77451" lon="5.57109">
        <ele>229.297</ele>
        <time>2019-09-22T15:08:34.001Z</time>
      </trkpt>
      <trkpt lat="48.77438" lon="5.57123">
        <ele>229.588</ele>
        <time>2019-09-22T15:08:37.001Z</time>
      </trkpt>
      <trkpt lat="48.77426" lon="5.57138">
        <ele>229.939</ele>
        <time>2019-09-22T15:08:40.001Z</time>
      </trkpt>
      <trkpt lat="48.77414" lon="5.57153">
        <ele>229.797</ele>
        <time>2019-09-22T15:08:43.001Z</time>
      </trkpt>
      <trkpt lat="48.77402" lon="5.57169">
        <ele>230.015</ele>
        <time>2019-09-22T15:08:46.001Z</time>
      </trkpt>
      <trkpt lat="48.7739" lon="5.57186">
        <ele>230.007</ele>
        <time>2019-09-22T15:08:49.001Z</time>
      </trkpt>
      <trkpt lat="48.77377" lon="5.57201">
        <ele>230.141</ele>
        <time>2019-09-22T15:08:52.001Z</time>
      </trkpt>
      <trkpt lat="48.77364" lon="5.57217">
        <ele>230.249</ele>
        <time>2019-09-22T15:08:55.001Z</time>
      </trkpt>
      <trkpt lat="48.77352" lon="5.57233">
        <ele>230.56</ele>
        <time>2019-09-22T15:08:58.001Z</time>
      </trkpt>
      <trkpt lat="48.7734" lon="5.5725">
        <ele>230.421</ele>
        <time>2019-09-22T15:09:01.001Z</time>
      </trkpt>
      <trkpt lat="48.77328" lon="5.57268">
        <ele>230.49</ele>
        <time>2019-09-22T15:09:04.001Z</time>
      </trkpt>
      <trkpt lat="48.77317" lon="5.57286">
        <ele>229.989</ele>
        <time>2019-09-22T15:09:07.001Z</time>
      </trkpt>
      <trkpt lat="48.77305" lon="5.57304">
        <ele>229.6</ele>
        <time>2019-09-22T15:09:10.001Z</time>
      </trkpt>
      <trkpt lat="48.77294" lon="5.57321">
        <ele>229.756</ele>
        <time>2019-09-22T15:09:13.001Z</time>
      </trkpt>
      <trkpt lat="48.77282" lon="5.5734">
        <ele>229.7</ele>
        <time>2019-09-22T15:09:16.000Z</time>
      </trkpt>
      <trkpt lat="48.7727" lon="5.57358">
        <ele>228.883</ele>
        <time>2019-09-22T15:09:19.001Z</time>
      </trkpt>
      <trkpt lat="48.77259" lon="5.57375">
        <ele>228.637</ele>
        <time>2019-09-22T15:09:22.001Z</time>
      </trkpt>
      <trkpt lat="48.77248" lon="5.57393">
        <ele>228.441</ele>
        <time>2019-09-22T15:09:25.001Z</time>
      </trkpt>
      <trkpt lat="48.77237" lon="5.5741">
        <ele>229.125</ele>
        <time>2019-09-22T15:09:28.001Z</time>
      </trkpt>
      <trkpt lat="48.77226" lon="5.57428">
        <ele>229.02</ele>
        <time>2019-09-22T15:09:31.001Z</time>
      </trkpt>
      <trkpt lat="48.77215" lon="5.57445">
        <ele>229.051</ele>
        <time>2019-09-22T15:09:34.001Z</time>
      </trkpt>
      <trkpt lat="48.77204" lon="5.57464">
        <ele>228.919</ele>
        <time>2019-09-22T15:09:37.001Z</time>
      </trkpt>
      <trkpt lat="48.77193" lon="5.57483">
        <ele>229.407</ele>
        <time>2019-09-22T15:09:40.001Z</time>
      </trkpt>
      <trkpt lat="48.77185" lon="5.57499">
        <ele>229.38</ele>
        <time>2019-09-22T15:09:43.001Z</time>
      </trkpt>
      <trkpt lat="48.77177" lon="5.57517">
        <ele>229.93</ele>
        <time>2019-09-22T15:09:46.001Z</time>
      </trkpt>
      <trkpt lat="48.77172" lon="5.57538">
        <ele>230.299</ele>
        <time>2019-09-22T15:09:49.001Z</time>
      </trkpt>
      <trkpt lat="48.77166" lon="5.57557">
        <ele>230.592</ele>
        <time>2019-09-22T15:09:52.001Z</time>
      </trkpt>
      <trkpt lat="48.77159" lon="5.57578">
        <ele>231.014</ele>
        <time>2019-09-22T15:09:55.001Z</time>
      </trkpt>
      <trkpt lat="48.77154" lon="5.57602">
        <ele>231.353</ele>
        <time>2019-09-22T15:09:58.001Z</time>
      </trkpt>
      <trkpt lat="48.77148" lon="5.57625">
        <ele>231.418</ele>
        <time>2019-09-22T15:10:01.001Z</time>
      </trkpt>
      <trkpt lat="48.77142" lon="5.57648">
        <ele>230.991</ele>
        <time>2019-09-22T15:10:04.001Z</time>
      </trkpt>
      <trkpt lat="48.77137" lon="5.57673">
        <ele>231.012</ele>
        <time>2019-09-22T15:10:07.001Z</time>
      </trkpt>
      <trkpt lat="48.77131" lon="5.57697">
        <ele>231.22</ele>
        <time>2019-09-22T15:10:10.001Z</time>
      </trkpt>
      <trkpt lat="48.77125" lon="5.57721">
        <ele>231.254</ele>
        <time>2019-09-22T15:10:13.001Z</time>
      </trkpt>
      <trkpt lat="48.7712" lon="5.57746">
        <ele>231.904</ele>
        <time>2019-09-22T15:10:16.000Z</time>
      </trkpt>
      <trkpt lat="48.77116" lon="5.57769">
        <ele>232.158</ele>
        <time>2019-09-22T15:10:19.001Z</time>
      </trkpt>
      <trkpt lat="48.7711" lon="5.57791">
        <ele>232.257</ele>
        <time>2019-09-22T15:10:22.001Z</time>
      </trkpt>
      <trkpt lat="48.77104" lon="5.57816">
        <ele>231.924</ele>
        <time>2019-09-22T15:10:25.001Z</time>
      </trkpt>
      <trkpt lat="48.77097" lon="5.57843">
        <ele>231.837</ele>
        <time>2019-09-22T15:10:28.001Z</time>
      </trkpt>
      <trkpt lat="48.7709" lon="5.57869">
        <ele>231.814</ele>
        <time>2019-09-22T15:10:31.001Z</time>
      </trkpt>
      <trkpt lat="48.77083" lon="5.57892">
        <ele>231.623</ele>
        <time>2019-09-22T15:10:34.001Z</time>
      </trkpt>
      <trkpt lat="48.77078" lon="5.57917">
        <ele>231.256</ele>
        <time>2019-09-22T15:10:37.001Z</time>
      </trkpt>
      <trkpt lat="48.77073" lon="5.57939">
        <ele>231.685</ele>
        <time>2019-09-22T15:10:40.001Z</time>
      </trkpt>
      <trkpt lat="48.77069" lon="5.57959">
        <ele>232.371</ele>
        <time>2019-09-22T15:10:43.001Z</time>
      </trkpt>
      <trkpt lat="48.77066" lon="5.57981">
        <ele>233.298</ele>
        <time>2019-09-22T15:10:46.001Z</time>
      </trkpt>
      <trkpt lat="48.7706" lon="5.58002">
        <ele>234.253</ele>
        <time>2019-09-22T15:10:49.001Z</time>
      </trkpt>
      <trkpt lat="48.77057" lon="5.58023">
        <ele>235.515</ele>
        <time>2019-09-22T15:10:52.001Z</time>
      </trkpt>
      <trkpt lat="48.77054" lon="5.58044">
        <ele>236.362</ele>
        <time>2019-09-22T15:10:55.001Z</time>
      </trkpt>
      <trkpt lat="48.77051" lon="5.58074">
        <ele>238.682</ele>
        <time>2019-09-22T15:10:58.001Z</time>
      </trkpt>
      <trkpt lat="48.77042" lon="5.581">
        <ele>239.868</ele>
        <time>2019-09-22T15:11:01.001Z</time>
      </trkpt>
      <trkpt lat="48.77029" lon="5.5813">
        <ele>241.35</ele>
        <time>2019-09-22T15:11:04.001Z</time>
      </trkpt>
      <trkpt lat="48.77023" lon="5.58156">
        <ele>242.9</ele>
        <time>2019-09-22T15:11:07.001Z</time>
      </trkpt>
      <trkpt lat="48.77016" lon="5.5818">
        <ele>245.103</ele>
        <time>2019-09-22T15:11:10.001Z</time>
      </trkpt>
      <trkpt lat="48.7701" lon="5.58206">
        <ele>245.106</ele>
        <time>2019-09-22T15:11:13.001Z</time>
      </trkpt>
      <trkpt lat="48.77004" lon="5.58231">
        <ele>245.256</ele>
        <time>2019-09-22T15:11:16.000Z</time>
      </trkpt>
      <trkpt lat="48.76997" lon="5.58254">
        <ele>244.116</ele>
        <time>2019-09-22T15:11:19.001Z</time>
      </trkpt>
      <trkpt lat="48.76991" lon="5.58274">
        <ele>241.679</ele>
        <time>2019-09-22T15:11:22.001Z</time>
      </trkpt>
      <trkpt lat="48.76983" lon="5.58295">
        <ele>241.367</ele>
        <time>2019-09-22T15:11:25.001Z</time>
      </trkpt>
      <trkpt lat="48.76975" lon="5.5831">
        <ele>238.521</ele>
        <time>2019-09-22T15:11:28.001Z</time>
      </trkpt>
      <trkpt lat="48.76977" lon="5.5832">
        <ele>235.189</ele>
        <time>2019-09-22T15:11:31.001Z</time>
      </trkpt>
      <trkpt lat="48.76985" lon="5.58329">
        <ele>233.984</ele>
        <time>2019-09-22T15:11:34.001Z</time>
      </trkpt>
      <trkpt lat="48.76994" lon="5.58334">
        <ele>232.756</ele>
        <time>2019-09-22T15:11:37.001Z</time>
      </trkpt>
      <trkpt lat="48.76999" lon="5.58344">
        <ele>231.759</ele>
        <time>2019-09-22T15:11:40.001Z</time>
      </trkpt>
      <trkpt lat="48.76993" lon="5.58365">
        <ele>231.969</ele>
        <time>2019-09-22T15:11:43.001Z</time>
      </trkpt>
      <trkpt lat="48.76984" lon="5.5839">
        <ele>232.74</ele>
        <time>2019-09-22T15:11:46.001Z</time>
      </trkpt>
      <trkpt lat="48.76978" lon="5.58415">
        <ele>233.141</ele>
        <time>2019-09-22T15:11:49.001Z</time>
      </trkpt>
      <trkpt lat="48.76974" lon="5.58436">
        <ele>232.498</ele>
        <time>2019-09-22T15:11:52.001Z</time>
      </trkpt>
      <trkpt lat="48.7697" lon="5.58453">
        <ele>232.95</ele>
        <time>2019-09-22T15:11:55.001Z</time>
      </trkpt>
      <trkpt lat="48.76964" lon="5.58473">
        <ele>232.703</ele>
        <time>2019-09-22T15:11:58.001Z</time>
      </trkpt>
      <trkpt lat="48.76957" lon="5.58494">
        <ele>232.731</ele>
        <time>2019-09-22T15:12:01.001Z</time>
      </trkpt>
      <trkpt lat="48.76951" lon="5.58516">
        <ele>232.997</ele>
        <time>2019-09-22T15:12:04.001Z</time>
      </trkpt>
      <trkpt lat="48.76944" lon="5.58537">
        <ele>233.072</ele>
        <time>2019-09-22T15:12:07.001Z</time>
      </trkpt>
      <trkpt lat="48.76938" lon="5.58561">
        <ele>233.676</ele>
        <time>2019-09-22T15:12:10.001Z</time>
      </trkpt>
      <trkpt lat="48.76932" lon="5.58584">
        <ele>233.449</ele>
        <time>2019-09-22T15:12:13.001Z</time>
      </trkpt>
      <trkpt lat="48.76926" lon="5.58608">
        <ele>233.878</ele>
        <time>2019-09-22T15:12:16.000Z</time>
      </trkpt>
      <trkpt lat="48.76921" lon="5.58632">
        <ele>233.851</ele>
        <time>2019-09-22T15:12:19.001Z</time>
      </trkpt>
      <trkpt lat="48.76915" lon="5.58657">
        <ele>234.084</ele>
        <time>2019-09-22T15:12:22.001Z</time>
      </trkpt>
      <trkpt lat="48.7691" lon="5.58681">
        <ele>234.375</ele>
        <time>2019-09-22T15:12:25.001Z</time>
      </trkpt>
      <trkpt lat="48.76904" lon="5.58706">
        <ele>234.402</ele>
        <time>2019-09-22T15:12:28.001Z</time>
      </trkpt>
      <trkpt lat="48.76898" lon="5.58731">
        <ele>234.074</ele>
        <time>2019-09-22T15:12:31.001Z</time>
      </trkpt>
      <trkpt lat="48.76893" lon="5.58755">
        <ele>233.868</ele>
        <time>2019-09-22T15:12:34.001Z</time>
      </trkpt>
      <trkpt lat="48.76889" lon="5.58779">
        <ele>234.031</ele>
        <time>2019-09-22T15:12:37.001Z</time>
      </trkpt>
      <trkpt lat="48.76883" lon="5.58805">
        <ele>233.907</ele>
        <time>2019-09-22T15:12:40.001Z</time>
      </trkpt>
      <trkpt lat="48.76877" lon="5.58831">
        <ele>234.099</ele>
        <time>2019-09-22T15:12:43.001Z</time>
      </trkpt>
      <trkpt lat="48.76871" lon="5.58857">
        <ele>233.648</ele>
        <time>2019-09-22T15:12:46.001Z</time>
      </trkpt>
      <trkpt lat="48.76864" lon="5.58883">
        <ele>233.094</ele>
        <time>2019-09-22T15:12:49.001Z</time>
      </trkpt>
      <trkpt lat="48.76858" lon="5.58906">
        <ele>231.633</ele>
        <time>2019-09-22T15:12:52.001Z</time>
      </trkpt>
      <trkpt lat="48.76851" lon="5.58929">
        <ele>231.1</ele>
        <time>2019-09-22T15:12:55.001Z</time>
      </trkpt>
      <trkpt lat="48.76844" lon="5.58955">
        <ele>231.483</ele>
        <time>2019-09-22T15:12:58.001Z</time>
      </trkpt>
      <trkpt lat="48.76838" lon="5.58981">
        <ele>232.161</ele>
        <time>2019-09-22T15:13:01.001Z</time>
      </trkpt>
      <trkpt lat="48.76833" lon="5.59005">
        <ele>232.872</ele>
        <time>2019-09-22T15:13:04.001Z</time>
      </trkpt>
      <trkpt lat="48.76828" lon="5.59029">
        <ele>234.164</ele>
        <time>2019-09-22T15:13:07.001Z</time>
      </trkpt>
      <trkpt lat="48.76819" lon="5.59056">
        <ele>234.493</ele>
        <time>2019-09-22T15:13:10.001Z</time>
      </trkpt>
      <trkpt lat="48.7681" lon="5.59084">
        <ele>234.671</ele>
        <time>2019-09-22T15:13:13.001Z</time>
      </trkpt>
      <trkpt lat="48.76801" lon="5.5911">
        <ele>234.503</ele>
        <time>2019-09-22T15:13:16.000Z</time>
      </trkpt>
      <trkpt lat="48.76791" lon="5.59135">
        <ele>234.694</ele>
        <time>2019-09-22T15:13:19.001Z</time>
      </trkpt>
      <trkpt lat="48.76782" lon="5.5916">
        <ele>235.236</ele>
        <time>2019-09-22T15:13:22.001Z</time>
      </trkpt>
      <trkpt lat="48.7677" lon="5.59186">
        <ele>235.546</ele>
        <time>2019-09-22T15:13:25.001Z</time>
      </trkpt>
      <trkpt lat="48.76759" lon="5.5921">
        <ele>235.661</ele>
        <time>2019-09-22T15:13:28.001Z</time>
      </trkpt>
      <trkpt lat="48.76749" lon="5.59233">
        <ele>235.938</ele>
        <time>2019-09-22T15:13:31.001Z</time>
      </trkpt>
      <trkpt lat="48.76737" lon="5.59257">
        <ele>235.878</ele>
        <time>2019-09-22T15:13:34.001Z</time>
      </trkpt>
      <trkpt lat="48.76725" lon="5.59278">
        <ele>236.441</ele>
        <time>2019-09-22T15:13:37.001Z</time>
      </trkpt>
      <trkpt lat="48.76714" lon="5.593">
        <ele>237.059</ele>
        <time>2019-09-22T15:13:40.001Z</time>
      </trkpt>
      <trkpt lat="48.76703" lon="5.59321">
        <ele>236.86</ele>
        <time>2019-09-22T15:13:43.001Z</time>
      </trkpt>
      <trkpt lat="48.76691" lon="5.59344">
        <ele>236.971</ele>
        <time>2019-09-22T15:13:46.001Z</time>
      </trkpt>
      <trkpt lat="48.76679" lon="5.59367">
        <ele>237.695</ele>
        <time>2019-09-22T15:13:49.001Z</time>
      </trkpt>
      <trkpt lat="48.76667" lon="5.59389">
        <ele>237.767</ele>
        <time>2019-09-22T15:13:52.001Z</time>
      </trkpt>
      <trkpt lat="48.76654" lon="5.59411">
        <ele>237.75</ele>
        <time>2019-09-22T15:13:55.001Z</time>
      </trkpt>
      <trkpt lat="48.76639" lon="5.59434">
        <ele>237.269</ele>
        <time>2019-09-22T15:13:58.001Z</time>
      </trkpt>
      <trkpt lat="48.76625" lon="5.59454">
        <ele>236.937</ele>
        <time>2019-09-22T15:14:01.001Z</time>
      </trkpt>
      <trkpt lat="48.7661" lon="5.59471">
        <ele>236.571</ele>
        <time>2019-09-22T15:14:04.001Z</time>
      </trkpt>
      <trkpt lat="48.76595" lon="5.59487">
        <ele>236.211</ele>
        <time>2019-09-22T15:14:07.001Z</time>
      </trkpt>
      <trkpt lat="48.76581" lon="5.59504">
        <ele>235.838</ele>
        <time>2019-09-22T15:14:10.001Z</time>
      </trkpt>
      <trkpt lat="48.76566" lon="5.59521">
        <ele>234.923</ele>
        <time>2019-09-22T15:14:13.001Z</time>
      </trkpt>
      <trkpt lat="48.76552" lon="5.59536">
        <ele>234.255</ele>
        <time>2019-09-22T15:14:16.000Z</time>
      </trkpt>
      <trkpt lat="48.76538" lon="5.59551">
        <ele>233.897</ele>
        <time>2019-09-22T15:14:19.001Z</time>
      </trkpt>
      <trkpt lat="48.76523" lon="5.59566">
        <ele>234.277</ele>
        <time>2019-09-22T15:14:22.001Z</time>
      </trkpt>
      <trkpt lat="48.76509" lon="5.59581">
        <ele>233.827</ele>
        <time>2019-09-22T15:14:25.001Z</time>
      </trkpt>
      <trkpt lat="48.76495" lon="5.59597">
        <ele>233.582</ele>
        <time>2019-09-22T15:14:28.001Z</time>
      </trkpt>
      <trkpt lat="48.76481" lon="5.59612">
        <ele>233.009</ele>
        <time>2019-09-22T15:14:31.001Z</time>
      </trkpt>
      <trkpt lat="48.76467" lon="5.59627">
        <ele>232.405</ele>
        <time>2019-09-22T15:14:34.001Z</time>
      </trkpt>
      <trkpt lat="48.76453" lon="5.59643">
        <ele>232.035</ele>
        <time>2019-09-22T15:14:37.001Z</time>
      </trkpt>
      <trkpt lat="48.76439" lon="5.59658">
        <ele>231.979</ele>
        <time>2019-09-22T15:14:40.001Z</time>
      </trkpt>
      <trkpt lat="48.76425" lon="5.59674">
        <ele>231.753</ele>
        <time>2019-09-22T15:14:43.001Z</time>
      </trkpt>
      <trkpt lat="48.76411" lon="5.59688">
        <ele>231.22</ele>
        <time>2019-09-22T15:14:46.001Z</time>
      </trkpt>
      <trkpt lat="48.76398" lon="5.59703">
        <ele>230.795</ele>
        <time>2019-09-22T15:14:49.001Z</time>
      </trkpt>
      <trkpt lat="48.76385" lon="5.59717">
        <ele>230.003</ele>
        <time>2019-09-22T15:14:52.001Z</time>
      </trkpt>
      <trkpt lat="48.76372" lon="5.59729">
        <ele>229.757</ele>
        <time>2019-09-22T15:14:55.001Z</time>
      </trkpt>
      <trkpt lat="48.76357" lon="5.59738">
        <ele>229.412</ele>
        <time>2019-09-22T15:14:58.001Z</time>
      </trkpt>
      <trkpt lat="48.76344" lon="5.59749">
        <ele>229.223</ele>
        <time>2019-09-22T15:15:01.001Z</time>
      </trkpt>
      <trkpt lat="48.76336" lon="5.59769">
        <ele>229.652</ele>
        <time>2019-09-22T15:15:04.001Z</time>
      </trkpt>
      <trkpt lat="48.76326" lon="5.59782">
        <ele>230.926</ele>
        <time>2019-09-22T15:15:07.001Z</time>
      </trkpt>
      <trkpt lat="48.76314" lon="5.59791">
        <ele>232.159</ele>
        <time>2019-09-22T15:15:10.001Z</time>
      </trkpt>
      <trkpt lat="48.76303" lon="5.59805">
        <ele>232.205</ele>
        <time>2019-09-22T15:15:13.001Z</time>
      </trkpt>
      <trkpt lat="48.76291" lon="5.59822">
        <ele>232.683</ele>
        <time>2019-09-22T15:15:16.000Z</time>
      </trkpt>
      <trkpt lat="48.76278" lon="5.59839">
        <ele>232.494</ele>
        <time>2019-09-22T15:15:19.001Z</time>
      </trkpt>
      <trkpt lat="48.76263" lon="5.59856">
        <ele>232.267</ele>
        <time>2019-09-22T15:15:22.001Z</time>
      </trkpt>
      <trkpt lat="48.76249" lon="5.59871">
        <ele>232.199</ele>
        <time>2019-09-22T15:15:25.001Z</time>
      </trkpt>
      <trkpt lat="48.76236" lon="5.59887">
        <ele>232.566</ele>
        <time>2019-09-22T15:15:28.001Z</time>
      </trkpt>
      <trkpt lat="48.76223" lon="5.59907">
        <ele>232.711</ele>
        <time>2019-09-22T15:15:31.001Z</time>
      </trkpt>
      <trkpt lat="48.76212" lon="5.59926">
        <ele>233.254</ele>
        <time>2019-09-22T15:15:34.001Z</time>
      </trkpt>
      <trkpt lat="48.76202" lon="5.59947">
        <ele>234.112</ele>
        <time>2019-09-22T15:15:37.001Z</time>
      </trkpt>
      <trkpt lat="48.76192" lon="5.59968">
        <ele>235.379</ele>
        <time>2019-09-22T15:15:40.001Z</time>
      </trkpt>
      <trkpt lat="48.76182" lon="5.59988">
        <ele>236.821</ele>
        <time>2019-09-22T15:15:43.001Z</time>
      </trkpt>
      <trkpt lat="48.76173" lon="5.60008">
        <ele>238.303</ele>
        <time>2019-09-22T15:15:46.001Z</time>
      </trkpt>
      <trkpt lat="48.76163" lon="5.60029">
        <ele>239.477</ele>
        <time>2019-09-22T15:15:49.001Z</time>
      </trkpt>
      <trkpt lat="48.76151" lon="5.60052">
        <ele>239.03</ele>
        <time>2019-09-22T15:15:52.001Z</time>
      </trkpt>
      <trkpt lat="48.76141" lon="5.60073">
        <ele>240.137</ele>
        <time>2019-09-22T15:15:55.001Z</time>
      </trkpt>
      <trkpt lat="48.76131" lon="5.60094">
        <ele>240.982</ele>
        <time>2019-09-22T15:15:58.001Z</time>
      </trkpt>
      <trkpt lat="48.76122" lon="5.60115">
        <ele>242.656</ele>
        <time>2019-09-22T15:16:01.001Z</time>
      </trkpt>
      <trkpt lat="48.76111" lon="5.60135">
        <ele>242.788</ele>
        <time>2019-09-22T15:16:04.001Z</time>
      </trkpt>
      <trkpt lat="48.761" lon="5.60155">
        <ele>243.185</ele>
        <time>2019-09-22T15:16:07.001Z</time>
      </trkpt>
      <trkpt lat="48.76089" lon="5.60175">
        <ele>243.109</ele>
        <time>2019-09-22T15:16:10.001Z</time>
      </trkpt>
      <trkpt lat="48.76078" lon="5.60193">
        <ele>244.129</ele>
        <time>2019-09-22T15:16:13.001Z</time>
      </trkpt>
      <trkpt lat="48.76068" lon="5.60212">
        <ele>244.186</ele>
        <time>2019-09-22T15:16:16.000Z</time>
      </trkpt>
      <trkpt lat="48.76058" lon="5.60231">
        <ele>244.533</ele>
        <time>2019-09-22T15:16:19.001Z</time>
      </trkpt>
      <trkpt lat="48.76047" lon="5.60249">
        <ele>244.63</ele>
        <time>2019-09-22T15:16:22.001Z</time>
      </trkpt>
      <trkpt lat="48.76037" lon="5.60268">
        <ele>244.481</ele>
        <time>2019-09-22T15:16:25.001Z</time>
      </trkpt>
      <trkpt lat="48.76027" lon="5.60288">
        <ele>244.451</ele>
        <time>2019-09-22T15:16:28.001Z</time>
      </trkpt>
      <trkpt lat="48.76017" lon="5.60306">
        <ele>244.849</ele>
        <time>2019-09-22T15:16:31.001Z</time>
      </trkpt>
      <trkpt lat="48.76009" lon="5.60325">
        <ele>245.595</ele>
        <time>2019-09-22T15:16:34.001Z</time>
      </trkpt>
      <trkpt lat="48.75999" lon="5.60343">
        <ele>245.41</ele>
        <time>2019-09-22T15:16:37.001Z</time>
      </trkpt>
      <trkpt lat="48.75989" lon="5.60361">
        <ele>245.131</ele>
        <time>2019-09-22T15:16:40.001Z</time>
      </trkpt>
      <trkpt lat="48.7598" lon="5.6038">
        <ele>243.697</ele>
        <time>2019-09-22T15:16:43.001Z</time>
      </trkpt>
      <trkpt lat="48.75971" lon="5.60399">
        <ele>242.757</ele>
        <time>2019-09-22T15:16:46.001Z</time>
      </trkpt>
      <trkpt lat="48.75961" lon="5.60417">
        <ele>242.339</ele>
        <time>2019-09-22T15:16:49.001Z</time>
      </trkpt>
      <trkpt lat="48.75952" lon="5.60437">
        <ele>241.472</ele>
        <time>2019-09-22T15:16:52.001Z</time>
      </trkpt>
      <trkpt lat="48.75942" lon="5.60455">
        <ele>240.685</ele>
        <time>2019-09-22T15:16:55.001Z</time>
      </trkpt>
      <trkpt lat="48.75932" lon="5.60473">
        <ele>239.965</ele>
        <time>2019-09-22T15:16:58.001Z</time>
      </trkpt>
      <trkpt lat="48.75922" lon="5.60492">
        <ele>239.101</ele>
        <time>2019-09-22T15:17:01.001Z</time>
      </trkpt>
      <trkpt lat="48.75912" lon="5.60509">
        <ele>238.711</ele>
        <time>2019-09-22T15:17:04.001Z</time>
      </trkpt>
      <trkpt lat="48.75903" lon="5.60527">
        <ele>238.498</ele>
        <time>2019-09-22T15:17:07.001Z</time>
      </trkpt>
      <trkpt lat="48.75893" lon="5.60546">
        <ele>238.542</ele>
        <time>2019-09-22T15:17:10.001Z</time>
      </trkpt>
      <trkpt lat="48.75883" lon="5.60566">
        <ele>238.566</ele>
        <time>2019-09-22T15:17:13.001Z</time>
      </trkpt>
      <trkpt lat="48.75874" lon="5.60586">
        <ele>238.354</ele>
        <time>2019-09-22T15:17:16.000Z</time>
      </trkpt>
      <trkpt lat="48.75865" lon="5.60606">
        <ele>238.304</ele>
        <time>2019-09-22T15:17:19.001Z</time>
      </trkpt>
      <trkpt lat="48.75856" lon="5.60625">
        <ele>238.805</ele>
        <time>2019-09-22T15:17:22.001Z</time>
      </trkpt>
      <trkpt lat="48.75847" lon="5.60643">
        <ele>239.314</ele>
        <time>2019-09-22T15:17:25.001Z</time>
      </trkpt>
      <trkpt lat="48.75837" lon="5.60662">
        <ele>238.751</ele>
        <time>2019-09-22T15:17:28.001Z</time>
      </trkpt>
      <trkpt lat="48.75828" lon="5.6068">
        <ele>238.939</ele>
        <time>2019-09-22T15:17:31.001Z</time>
      </trkpt>
      <trkpt lat="48.75818" lon="5.60698">
        <ele>238.975</ele>
        <time>2019-09-22T15:17:34.001Z</time>
      </trkpt>
      <trkpt lat="48.75808" lon="5.60718">
        <ele>239.213</ele>
        <time>2019-09-22T15:17:37.001Z</time>
      </trkpt>
      <trkpt lat="48.75799" lon="5.60737">
        <ele>239.534</ele>
        <time>2019-09-22T15:17:40.001Z</time>
      </trkpt>
      <trkpt lat="48.75791" lon="5.60756">
        <ele>239.784</ele>
        <time>2019-09-22T15:17:43.001Z</time>
      </trkpt>
      <trkpt lat="48.75783" lon="5.60776">
        <ele>239.496</ele>
        <time>2019-09-22T15:17:46.001Z</time>
      </trkpt>
      <trkpt lat="48.75774" lon="5.60797">
        <ele>238.715</ele>
        <time>2019-09-22T15:17:49.001Z</time>
      </trkpt>
      <trkpt lat="48.75765" lon="5.6082">
        <ele>238.197</ele>
        <time>2019-09-22T15:17:52.001Z</time>
      </trkpt>
      <trkpt lat="48.75756" lon="5.60841">
        <ele>237.594</ele>
        <time>2019-09-22T15:17:55.001Z</time>
      </trkpt>
      <trkpt lat="48.75747" lon="5.60861">
        <ele>237.306</ele>
        <time>2019-09-22T15:17:58.001Z</time>
      </trkpt>
      <trkpt lat="48.75739" lon="5.60882">
        <ele>237.213</ele>
        <time>2019-09-22T15:18:01.001Z</time>
      </trkpt>
      <trkpt lat="48.75729" lon="5.60903">
        <ele>237.291</ele>
        <time>2019-09-22T15:18:04.001Z</time>
      </trkpt>
      <trkpt lat="48.7572" lon="5.60926">
        <ele>237.125</ele>
        <time>2019-09-22T15:18:07.001Z</time>
      </trkpt>
      <trkpt lat="48.75711" lon="5.60947">
        <ele>236.228</ele>
        <time>2019-09-22T15:18:10.001Z</time>
      </trkpt>
      <trkpt lat="48.75702" lon="5.60968">
        <ele>235.758</ele>
        <time>2019-09-22T15:18:13.001Z</time>
      </trkpt>
      <trkpt lat="48.75695" lon="5.60989">
        <ele>235.687</ele>
        <time>2019-09-22T15:18:16.000Z</time>
      </trkpt>
      <trkpt lat="48.75688" lon="5.61011">
        <ele>235.287</ele>
        <time>2019-09-22T15:18:19.001Z</time>
      </trkpt>
      <trkpt lat="48.7568" lon="5.61032">
        <ele>235.146</ele>
        <time>2019-09-22T15:18:22.001Z</time>
      </trkpt>
      <trkpt lat="48.75672" lon="5.61051">
        <ele>234.891</ele>
        <time>2019-09-22T15:18:25.001Z</time>
      </trkpt>
      <trkpt lat="48.75664" lon="5.61071">
        <ele>235.323</ele>
        <time>2019-09-22T15:18:28.001Z</time>
      </trkpt>
      <trkpt lat="48.75655" lon="5.61091">
        <ele>235.719</ele>
        <time>2019-09-22T15:18:31.001Z</time>
      </trkpt>
      <trkpt lat="48.75647" lon="5.6111">
        <ele>236.596</ele>
        <time>2019-09-22T15:18:34.001Z</time>
      </trkpt>
      <trkpt lat="48.75639" lon="5.6113">
        <ele>237.028</ele>
        <time>2019-09-22T15:18:37.001Z</time>
      </trkpt>
      <trkpt lat="48.75631" lon="5.61149">
        <ele>237.119</ele>
        <time>2019-09-22T15:18:40.001Z</time>
      </trkpt>
      <trkpt lat="48.75623" lon="5.61169">
        <ele>236.693</ele>
        <time>2019-09-22T15:18:43.001Z</time>
      </trkpt>
      <trkpt lat="48.75616" lon="5.6119">
        <ele>236.38</ele>
        <time>2019-09-22T15:18:46.001Z</time>
      </trkpt>
      <trkpt lat="48.75608" lon="5.6121">
        <ele>236.596</ele>
        <time>2019-09-22T15:18:49.001Z</time>
      </trkpt>
      <trkpt lat="48.756" lon="5.61228">
        <ele>236.976</ele>
        <time>2019-09-22T15:18:52.001Z</time>
      </trkpt>
      <trkpt lat="48.75593" lon="5.61247">
        <ele>236.683</ele>
        <time>2019-09-22T15:18:55.001Z</time>
      </trkpt>
      <trkpt lat="48.75585" lon="5.61266">
        <ele>236.642</ele>
        <time>2019-09-22T15:18:58.001Z</time>
      </trkpt>
      <trkpt lat="48.75577" lon="5.61284">
        <ele>236.412</ele>
        <time>2019-09-22T15:19:01.001Z</time>
      </trkpt>
      <trkpt lat="48.7557" lon="5.61305">
        <ele>236.589</ele>
        <time>2019-09-22T15:19:04.001Z</time>
      </trkpt>
      <trkpt lat="48.75561" lon="5.61326">
        <ele>236.267</ele>
        <time>2019-09-22T15:19:07.001Z</time>
      </trkpt>
      <trkpt lat="48.75553" lon="5.61347">
        <ele>236.001</ele>
        <time>2019-09-22T15:19:10.001Z</time>
      </trkpt>
      <trkpt lat="48.75544" lon="5.61369">
        <ele>235.554</ele>
        <time>2019-09-22T15:19:13.001Z</time>
      </trkpt>
      <trkpt lat="48.75536" lon="5.61389">
        <ele>235.639</ele>
        <time>2019-09-22T15:19:16.000Z</time>
      </trkpt>
      <trkpt lat="48.75528" lon="5.6141">
        <ele>235.852</ele>
        <time>2019-09-22T15:19:19.001Z</time>
      </trkpt>
      <trkpt lat="48.75519" lon="5.61432">
        <ele>235.647</ele>
        <time>2019-09-22T15:19:22.001Z</time>
      </trkpt>
      <trkpt lat="48.75512" lon="5.61453">
        <ele>235.753</ele>
        <time>2019-09-22T15:19:25.001Z</time>
      </trkpt>
      <trkpt lat="48.75503" lon="5.61474">
        <ele>235.991</ele>
        <time>2019-09-22T15:19:28.001Z</time>
      </trkpt>
      <trkpt lat="48.75495" lon="5.61494">
        <ele>236.255</ele>
        <time>2019-09-22T15:19:31.001Z</time>
      </trkpt>
      <trkpt lat="48.75486" lon="5.61513">
        <ele>236.799</ele>
        <time>2019-09-22T15:19:34.001Z</time>
      </trkpt>
      <trkpt lat="48.75479" lon="5.61531">
        <ele>237.208</ele>
        <time>2019-09-22T15:19:37.001Z</time>
      </trkpt>
      <trkpt lat="48.7547" lon="5.61551">
        <ele>237.864</ele>
        <time>2019-09-22T15:19:40.001Z</time>
      </trkpt>
      <trkpt lat="48.75463" lon="5.61572">
        <ele>237.824</ele>
        <time>2019-09-22T15:19:43.001Z</time>
      </trkpt>
      <trkpt lat="48.75455" lon="5.61593">
        <ele>237.825</ele>
        <time>2019-09-22T15:19:46.001Z</time>
      </trkpt>
      <trkpt lat="48.75448" lon="5.61614">
        <ele>237.338</ele>
        <time>2019-09-22T15:19:49.001Z</time>
      </trkpt>
      <trkpt lat="48.75439" lon="5.61634">
        <ele>236.328</ele>
        <time>2019-09-22T15:19:52.001Z</time>
      </trkpt>
      <trkpt lat="48.75431" lon="5.61654">
        <ele>235.761</ele>
        <time>2019-09-22T15:19:55.001Z</time>
      </trkpt>
      <trkpt lat="48.75423" lon="5.61676">
        <ele>235.406</ele>
        <time>2019-09-22T15:19:58.001Z</time>
      </trkpt>
      <trkpt lat="48.75415" lon="5.61697">
        <ele>235.01</ele>
        <time>2019-09-22T15:20:01.001Z</time>
      </trkpt>
      <trkpt lat="48.75407" lon="5.61718">
        <ele>234.456</ele>
        <time>2019-09-22T15:20:04.001Z</time>
      </trkpt>
      <trkpt lat="48.75398" lon="5.6174">
        <ele>234.179</ele>
        <time>2019-09-22T15:20:07.001Z</time>
      </trkpt>
      <trkpt lat="48.75389" lon="5.61761">
        <ele>233.834</ele>
        <time>2019-09-22T15:20:10.001Z</time>
      </trkpt>
      <trkpt lat="48.7538" lon="5.61783">
        <ele>234.311</ele>
        <time>2019-09-22T15:20:13.001Z</time>
      </trkpt>
      <trkpt lat="48.75371" lon="5.61805">
        <ele>234.215</ele>
        <time>2019-09-22T15:20:16.000Z</time>
      </trkpt>
      <trkpt lat="48.75362" lon="5.61827">
        <ele>234.345</ele>
        <time>2019-09-22T15:20:19.001Z</time>
      </trkpt>
      <trkpt lat="48.75353" lon="5.61849">
        <ele>233.93</ele>
        <time>2019-09-22T15:20:22.001Z</time>
      </trkpt>
      <trkpt lat="48.75343" lon="5.61871">
        <ele>233.502</ele>
        <time>2019-09-22T15:20:25.001Z</time>
      </trkpt>
      <trkpt lat="48.75334" lon="5.61891">
        <ele>232.974</ele>
        <time>2019-09-22T15:20:28.001Z</time>
      </trkpt>
      <trkpt lat="48.75325" lon="5.61911">
        <ele>232.388</ele>
        <time>2019-09-22T15:20:31.001Z</time>
      </trkpt>
      <trkpt lat="48.75316" lon="5.6193">
        <ele>232.412</ele>
        <time>2019-09-22T15:20:34.001Z</time>
      </trkpt>
      <trkpt lat="48.75306" lon="5.61949">
        <ele>232.431</ele>
        <time>2019-09-22T15:20:37.001Z</time>
      </trkpt>
      <trkpt lat="48.75296" lon="5.61968">
        <ele>232.16</ele>
        <time>2019-09-22T15:20:40.001Z</time>
      </trkpt>
      <trkpt lat="48.75286" lon="5.61986">
        <ele>232.118</ele>
        <time>2019-09-22T15:20:43.001Z</time>
      </trkpt>
      <trkpt lat="48.75276" lon="5.62004">
        <ele>232.17</ele>
        <time>2019-09-22T15:20:46.001Z</time>
      </trkpt>
      <trkpt lat="48.75267" lon="5.62021">
        <ele>232.612</ele>
        <time>2019-09-22T15:20:49.001Z</time>
      </trkpt>
      <trkpt lat="48.75257" lon="5.62038">
        <ele>233.341</ele>
        <time>2019-09-22T15:20:52.001Z</time>
      </trkpt>
      <trkpt lat="48.75248" lon="5.62054">
        <ele>234.144</ele>
        <time>2019-09-22T15:20:55.001Z</time>
      </trkpt>
      <trkpt lat="48.7524" lon="5.62069">
        <ele>235.128</ele>
        <time>2019-09-22T15:20:58.001Z</time>
      </trkpt>
      <trkpt lat="48.75233" lon="5.62083">
        <ele>237.05</ele>
        <time>2019-09-22T15:21:01.001Z</time>
      </trkpt>
      <trkpt lat="48.75225" lon="5.62097">
        <ele>238.746</ele>
        <time>2019-09-22T15:21:04.001Z</time>
      </trkpt>
      <trkpt lat="48.75218" lon="5.62111">
        <ele>239.808</ele>
        <time>2019-09-22T15:21:07.001Z</time>
      </trkpt>
      <trkpt lat="48.75209" lon="5.62123">
        <ele>240.091</ele>
        <time>2019-09-22T15:21:10.001Z</time>
      </trkpt>
      <trkpt lat="48.75201" lon="5.62136">
        <ele>240.828</ele>
        <time>2019-09-22T15:21:13.001Z</time>
      </trkpt>
      <trkpt lat="48.75193" lon="5.62148">
        <ele>240.664</ele>
        <time>2019-09-22T15:21:16.000Z</time>
      </trkpt>
      <trkpt lat="48.75185" lon="5.62161">
        <ele>239.591</ele>
        <time>2019-09-22T15:21:19.001Z</time>
      </trkpt>
      <trkpt lat="48.75179" lon="5.62174">
        <ele>240.033</ele>
        <time>2019-09-22T15:21:22.001Z</time>
      </trkpt>
      <trkpt lat="48.75173" lon="5.62185">
        <ele>240.221</ele>
        <time>2019-09-22T15:21:25.001Z</time>
      </trkpt>
      <trkpt lat="48.75165" lon="5.62197">
        <ele>241.044</ele>
        <time>2019-09-22T15:21:28.001Z</time>
      </trkpt>
      <trkpt lat="48.75158" lon="5.6221">
        <ele>242.431</ele>
        <time>2019-09-22T15:21:31.001Z</time>
      </trkpt>
      <trkpt lat="48.75153" lon="5.62223">
        <ele>244.017</ele>
        <time>2019-09-22T15:21:34.001Z</time>
      </trkpt>
      <trkpt lat="48.75146" lon="5.62235">
        <ele>246.107</ele>
        <time>2019-09-22T15:21:37.001Z</time>
      </trkpt>
      <trkpt lat="48.75138" lon="5.62247">
        <ele>247.687</ele>
        <time>2019-09-22T15:21:40.001Z</time>
      </trkpt>
      <trkpt lat="48.75131" lon="5.62259">
        <ele>248.689</ele>
        <time>2019-09-22T15:21:43.001Z</time>
      </trkpt>
      <trkpt lat="48.75124" lon="5.62273">
        <ele>249.256</ele>
        <time>2019-09-22T15:21:46.001Z</time>
      </trkpt>
      <trkpt lat="48.75117" lon="5.62286">
        <ele>250.271</ele>
        <time>2019-09-22T15:21:49.001Z</time>
      </trkpt>
      <trkpt lat="48.7511" lon="5.62298">
        <ele>251.335</ele>
        <time>2019-09-22T15:21:52.001Z</time>
      </trkpt>
      <trkpt lat="48.75102" lon="5.62309">
        <ele>250.931</ele>
        <time>2019-09-22T15:21:55.001Z</time>
      </trkpt>
      <trkpt lat="48.75093" lon="5.62322">
        <ele>250.563</ele>
        <time>2019-09-22T15:21:58.001Z</time>
      </trkpt>
      <trkpt lat="48.75085" lon="5.62334">
        <ele>251.121</ele>
        <time>2019-09-22T15:22:01.001Z</time>
      </trkpt>
      <trkpt lat="48.75075" lon="5.62346">
        <ele>251.783</ele>
        <time>2019-09-22T15:22:04.001Z</time>
      </trkpt>
      <trkpt lat="48.75062" lon="5.62357">
        <ele>251.588</ele>
        <time>2019-09-22T15:22:07.001Z</time>
      </trkpt>
      <trkpt lat="48.75051" lon="5.62368">
        <ele>251.764</ele>
        <time>2019-09-22T15:22:10.001Z</time>
      </trkpt>
      <trkpt lat="48.7504" lon="5.62378">
        <ele>252.076</ele>
        <time>2019-09-22T15:22:13.001Z</time>
      </trkpt>
      <trkpt lat="48.7503" lon="5.62388">
        <ele>253.063</ele>
        <time>2019-09-22T15:22:16.000Z</time>
      </trkpt>
      <trkpt lat="48.75019" lon="5.62397">
        <ele>253.323</ele>
        <time>2019-09-22T15:22:19.001Z</time>
      </trkpt>
      <trkpt lat="48.75008" lon="5.62406">
        <ele>253.745</ele>
        <time>2019-09-22T15:22:22.001Z</time>
      </trkpt>
      <trkpt lat="48.74997" lon="5.62415">
        <ele>254.554</ele>
        <time>2019-09-22T15:22:25.001Z</time>
      </trkpt>
      <trkpt lat="48.74986" lon="5.62424">
        <ele>254.698</ele>
        <time>2019-09-22T15:22:28.001Z</time>
      </trkpt>
      <trkpt lat="48.74976" lon="5.62434">
        <ele>253.477</ele>
        <time>2019-09-22T15:22:31.001Z</time>
      </trkpt>
      <trkpt lat="48.74967" lon="5.62442">
        <ele>252.93</ele>
        <time>2019-09-22T15:22:34.001Z</time>
      </trkpt>
      <trkpt lat="48.7496" lon="5.62448">
        <ele>253.457</ele>
        <time>2019-09-22T15:22:37.001Z</time>
      </trkpt>
      <trkpt lat="48.74956" lon="5.62449">
        <ele>253.043</ele>
        <time>2019-09-22T15:22:40.001Z</time>
      </trkpt>
      <trkpt lat="48.74955" lon="5.6245">
        <ele>252.032</ele>
        <time>2019-09-22T15:22:43.001Z</time>
      </trkpt>
      <trkpt lat="48.74954" lon="5.62449">
        <ele>252.583</ele>
        <time>2019-09-22T15:22:46.001Z</time>
      </trkpt>
      <trkpt lat="48.74954" lon="5.62451">
        <ele>252.792</ele>
        <time>2019-09-22T15:22:49.001Z</time>
      </trkpt>
      <trkpt lat="48.74954" lon="5.62453">
        <ele>253.318</ele>
        <time>2019-09-22T15:24:43.001Z</time>
      </trkpt>
      <trkpt lat="48.74956" lon="5.62457">
        <ele>253.397</ele>
        <time>2019-09-22T15:24:46.001Z</time>
      </trkpt>
      <trkpt lat="48.74956" lon="5.62459">
        <ele>253.378</ele>
        <time>2019-09-22T15:24:49.001Z</time>
      </trkpt>
      <trkpt lat="48.74956" lon="5.62459">
        <ele>253.378</ele>
        <time>2019-09-22T15:25:52.001Z</time>
      </trkpt>
      <trkpt lat="48.74958" lon="5.62459">
        <ele>253.553</ele>
        <time>2019-09-22T15:25:55.001Z</time>
      </trkpt>
      <trkpt lat="48.74959" lon="5.62461">
        <ele>253.545</ele>
        <time>2019-09-22T15:25:58.001Z</time>
      </trkpt>
      <trkpt lat="48.7496" lon="5.62461">
        <ele>253.519</ele>
        <time>2019-09-22T15:26:01.001Z</time>
      </trkpt>
      <trkpt lat="48.7496" lon="5.62461">
        <ele>253.519</ele>
        <time>2019-09-22T15:26:10.001Z</time>
      </trkpt>
      <trkpt lat="48.74962" lon="5.62459">
        <ele>252.176</ele>
        <time>2019-09-22T15:26:13.001Z</time>
      </trkpt>
      <trkpt lat="48.74962" lon="5.62459">
        <ele>252.176</ele>
        <time>2019-09-22T15:26:16.000Z</time>
      </trkpt>
    </trkseg>
  </trk>
</gpx>